<?xml version="1.0" encoding="UTF-8" ?>
<gpx
 version="1.0"
 creator="Maverick - http://www.maverickgps.com"
 xmlns:xsi="http://www.w3.org/2001/XMLSchema-instance"
 xmlns="http://www.topografix.com/GPX/1/0"
 xsi:schemaLocation="http://www.topografix.com/GPX/1/0 http://www.topografix.com/GPX/1/0/gpx.xsd">
<time>2014-06-16T11:45:45Z</time>
<trk>
 <name>2014-06-16 @ 06-45-45</name>
 <trkseg>
  <trkpt lat="6.069982" lon="-75.633366">
    <ele>1730</ele>
    <time>2014-06-16T11:37:57Z</time>
    <speed>0.0</speed>
  </trkpt>
  <trkpt lat="6.069878" lon="-75.633389">
    <ele>1731</ele>
    <time>2014-06-16T11:38:02Z</time>
    <speed>2.3572323</speed>
  </trkpt>
  <trkpt lat="6.069798" lon="-75.633420">
    <ele>1732</ele>
    <time>2014-06-16T11:38:05Z</time>
    <speed>0.0</speed>
  </trkpt>
  <trkpt lat="6.069627" lon="-75.633504">
    <ele>1733</ele>
    <time>2014-06-16T11:38:07Z</time>
    <speed>10.521352</speed>
  </trkpt>
  <trkpt lat="6.069490" lon="-75.633574">
    <ele>1734</ele>
    <time>2014-06-16T11:38:09Z</time>
    <speed>6.7890234</speed>
  </trkpt>
  <trkpt lat="6.069344" lon="-75.633633">
    <ele>1735</ele>
    <time>2014-06-16T11:38:11Z</time>
    <speed>6.4587507</speed>
  </trkpt>
  <trkpt lat="6.069197" lon="-75.633657">
    <ele>1737</ele>
    <time>2014-06-16T11:38:13Z</time>
    <speed>6.6991224</speed>
  </trkpt>
  <trkpt lat="6.069063" lon="-75.633654">
    <ele>1736</ele>
    <time>2014-06-16T11:38:15Z</time>
    <speed>6.7664394</speed>
  </trkpt>
  <trkpt lat="6.068921" lon="-75.633618">
    <ele>1739</ele>
    <time>2014-06-16T11:38:17Z</time>
    <speed>7.5289545</speed>
  </trkpt>
  <trkpt lat="6.068765" lon="-75.633557">
    <ele>1739</ele>
    <time>2014-06-16T11:38:19Z</time>
    <speed>8.213042</speed>
  </trkpt>
  <trkpt lat="6.068612" lon="-75.633489">
    <ele>1742</ele>
    <time>2014-06-16T11:38:21Z</time>
    <speed>8.072816</speed>
  </trkpt>
  <trkpt lat="6.068470" lon="-75.633420">
    <ele>1741</ele>
    <time>2014-06-16T11:38:23Z</time>
    <speed>8.339708</speed>
  </trkpt>
  <trkpt lat="6.068330" lon="-75.633353">
    <ele>1741</ele>
    <time>2014-06-16T11:38:25Z</time>
    <speed>8.005892</speed>
  </trkpt>
  <trkpt lat="6.068205" lon="-75.633295">
    <ele>1743</ele>
    <time>2014-06-16T11:38:27Z</time>
    <speed>7.7142434</speed>
  </trkpt>
  <trkpt lat="6.068058" lon="-75.633254">
    <ele>1740</ele>
    <time>2014-06-16T11:38:29Z</time>
    <speed>8.577</speed>
  </trkpt>
  <trkpt lat="6.067880" lon="-75.633230">
    <ele>1741</ele>
    <time>2014-06-16T11:38:31Z</time>
    <speed>9.50262</speed>
  </trkpt>
  <trkpt lat="6.067700" lon="-75.633203">
    <ele>1743</ele>
    <time>2014-06-16T11:38:33Z</time>
    <speed>8.90569</speed>
  </trkpt>
  <trkpt lat="6.067527" lon="-75.633237">
    <ele>1743</ele>
    <time>2014-06-16T11:38:35Z</time>
    <speed>8.516591</speed>
  </trkpt>
  <trkpt lat="6.067385" lon="-75.633330">
    <ele>1744</ele>
    <time>2014-06-16T11:38:37Z</time>
    <speed>9.154155</speed>
  </trkpt>
  <trkpt lat="6.067232" lon="-75.633494">
    <ele>1744</ele>
    <time>2014-06-16T11:38:39Z</time>
    <speed>10.617854</speed>
  </trkpt>
  <trkpt lat="6.067085" lon="-75.633660">
    <ele>1743</ele>
    <time>2014-06-16T11:38:41Z</time>
    <speed>10.183824</speed>
  </trkpt>
  <trkpt lat="6.066942" lon="-75.633757">
    <ele>1744</ele>
    <time>2014-06-16T11:38:43Z</time>
    <speed>8.98418</speed>
  </trkpt>
  <trkpt lat="6.066797" lon="-75.633770">
    <ele>1746</ele>
    <time>2014-06-16T11:38:45Z</time>
    <speed>7.3663077</speed>
  </trkpt>
  <trkpt lat="6.066647" lon="-75.633729">
    <ele>1746</ele>
    <time>2014-06-16T11:38:47Z</time>
    <speed>7.1936574</speed>
  </trkpt>
  <trkpt lat="6.066474" lon="-75.633657">
    <ele>1748</ele>
    <time>2014-06-16T11:38:49Z</time>
    <speed>8.498678</speed>
  </trkpt>
  <trkpt lat="6.066299" lon="-75.633588">
    <ele>1749</ele>
    <time>2014-06-16T11:38:51Z</time>
    <speed>9.614395</speed>
  </trkpt>
  <trkpt lat="6.066089" lon="-75.633540">
    <ele>1749</ele>
    <time>2014-06-16T11:38:53Z</time>
    <speed>10.752685</speed>
  </trkpt>
  <trkpt lat="6.065873" lon="-75.633504">
    <ele>1750</ele>
    <time>2014-06-16T11:38:55Z</time>
    <speed>10.791585</speed>
  </trkpt>
  <trkpt lat="6.065650" lon="-75.633483">
    <ele>1751</ele>
    <time>2014-06-16T11:38:57Z</time>
    <speed>10.841185</speed>
  </trkpt>
  <trkpt lat="6.065464" lon="-75.633478">
    <ele>1752</ele>
    <time>2014-06-16T11:38:59Z</time>
    <speed>10.204605</speed>
  </trkpt>
  <trkpt lat="6.065311" lon="-75.633479">
    <ele>1752</ele>
    <time>2014-06-16T11:39:01Z</time>
    <speed>9.185634</speed>
  </trkpt>
  <trkpt lat="6.065139" lon="-75.633488">
    <ele>1753</ele>
    <time>2014-06-16T11:39:03Z</time>
    <speed>9.000533</speed>
  </trkpt>
  <trkpt lat="6.064964" lon="-75.633501">
    <ele>1753</ele>
    <time>2014-06-16T11:39:05Z</time>
    <speed>9.079292</speed>
  </trkpt>
  <trkpt lat="6.064799" lon="-75.633512">
    <ele>1753</ele>
    <time>2014-06-16T11:39:07Z</time>
    <speed>8.533041</speed>
  </trkpt>
  <trkpt lat="6.064645" lon="-75.633518">
    <ele>1753</ele>
    <time>2014-06-16T11:39:09Z</time>
    <speed>8.516044</speed>
  </trkpt>
  <trkpt lat="6.064486" lon="-75.633526">
    <ele>1753</ele>
    <time>2014-06-16T11:39:11Z</time>
    <speed>9.268211</speed>
  </trkpt>
  <trkpt lat="6.064324" lon="-75.633537">
    <ele>1753</ele>
    <time>2014-06-16T11:39:13Z</time>
    <speed>9.54289</speed>
  </trkpt>
  <trkpt lat="6.064141" lon="-75.633545">
    <ele>1753</ele>
    <time>2014-06-16T11:39:15Z</time>
    <speed>10.068673</speed>
  </trkpt>
  <trkpt lat="6.063952" lon="-75.633538">
    <ele>1753</ele>
    <time>2014-06-16T11:39:17Z</time>
    <speed>10.65162</speed>
  </trkpt>
  <trkpt lat="6.063773" lon="-75.633475">
    <ele>1754</ele>
    <time>2014-06-16T11:39:19Z</time>
    <speed>10.327546</speed>
  </trkpt>
  <trkpt lat="6.063589" lon="-75.633396">
    <ele>1756</ele>
    <time>2014-06-16T11:39:21Z</time>
    <speed>10.136018</speed>
  </trkpt>
  <trkpt lat="6.063403" lon="-75.633308">
    <ele>1756</ele>
    <time>2014-06-16T11:39:23Z</time>
    <speed>10.567673</speed>
  </trkpt>
  <trkpt lat="6.063207" lon="-75.633205">
    <ele>1759</ele>
    <time>2014-06-16T11:39:25Z</time>
    <speed>11.603736</speed>
  </trkpt>
  <trkpt lat="6.063029" lon="-75.633076">
    <ele>1758</ele>
    <time>2014-06-16T11:39:27Z</time>
    <speed>11.948111</speed>
  </trkpt>
  <trkpt lat="6.062879" lon="-75.632891">
    <ele>1758</ele>
    <time>2014-06-16T11:39:29Z</time>
    <speed>12.275964</speed>
  </trkpt>
  <trkpt lat="6.062716" lon="-75.632668">
    <ele>1759</ele>
    <time>2014-06-16T11:39:31Z</time>
    <speed>12.915043</speed>
  </trkpt>
  <trkpt lat="6.062564" lon="-75.632454">
    <ele>1760</ele>
    <time>2014-06-16T11:39:33Z</time>
    <speed>13.126118</speed>
  </trkpt>
  <trkpt lat="6.062352" lon="-75.632315">
    <ele>1761</ele>
    <time>2014-06-16T11:39:35Z</time>
    <speed>13.641076</speed>
  </trkpt>
  <trkpt lat="6.062129" lon="-75.632196">
    <ele>1760</ele>
    <time>2014-06-16T11:39:37Z</time>
    <speed>13.714903</speed>
  </trkpt>
  <trkpt lat="6.061918" lon="-75.632102">
    <ele>1757</ele>
    <time>2014-06-16T11:39:39Z</time>
    <speed>13.1342745</speed>
  </trkpt>
  <trkpt lat="6.061720" lon="-75.632022">
    <ele>1756</ele>
    <time>2014-06-16T11:39:41Z</time>
    <speed>11.296868</speed>
  </trkpt>
  <trkpt lat="6.061523" lon="-75.631989">
    <ele>1757</ele>
    <time>2014-06-16T11:39:43Z</time>
    <speed>11.894886</speed>
  </trkpt>
  <trkpt lat="6.061310" lon="-75.631993">
    <ele>1756</ele>
    <time>2014-06-16T11:39:45Z</time>
    <speed>11.629514</speed>
  </trkpt>
  <trkpt lat="6.061096" lon="-75.632006">
    <ele>1757</ele>
    <time>2014-06-16T11:39:47Z</time>
    <speed>10.81466</speed>
  </trkpt>
  <trkpt lat="6.060903" lon="-75.631978">
    <ele>1758</ele>
    <time>2014-06-16T11:39:49Z</time>
    <speed>10.898059</speed>
  </trkpt>
  <trkpt lat="6.060717" lon="-75.631904">
    <ele>1759</ele>
    <time>2014-06-16T11:39:51Z</time>
    <speed>12.094664</speed>
  </trkpt>
  <trkpt lat="6.060522" lon="-75.631813">
    <ele>1759</ele>
    <time>2014-06-16T11:39:53Z</time>
    <speed>11.166146</speed>
  </trkpt>
  <trkpt lat="6.060309" lon="-75.631700">
    <ele>1757</ele>
    <time>2014-06-16T11:39:55Z</time>
    <speed>12.457354</speed>
  </trkpt>
  <trkpt lat="6.060084" lon="-75.631570">
    <ele>1758</ele>
    <time>2014-06-16T11:39:57Z</time>
    <speed>13.088256</speed>
  </trkpt>
  <trkpt lat="6.059870" lon="-75.631448">
    <ele>1756</ele>
    <time>2014-06-16T11:39:59Z</time>
    <speed>13.013398</speed>
  </trkpt>
  <trkpt lat="6.059678" lon="-75.631334">
    <ele>1755</ele>
    <time>2014-06-16T11:40:01Z</time>
    <speed>11.640513</speed>
  </trkpt>
  <trkpt lat="6.059536" lon="-75.631170">
    <ele>1755</ele>
    <time>2014-06-16T11:40:03Z</time>
    <speed>12.562612</speed>
  </trkpt>
  <trkpt lat="6.059431" lon="-75.630957">
    <ele>1756</ele>
    <time>2014-06-16T11:40:05Z</time>
    <speed>12.430231</speed>
  </trkpt>
  <trkpt lat="6.059404" lon="-75.630709">
    <ele>1756</ele>
    <time>2014-06-16T11:40:07Z</time>
    <speed>13.6383295</speed>
  </trkpt>
  <trkpt lat="6.059366" lon="-75.630446">
    <ele>1757</ele>
    <time>2014-06-16T11:40:09Z</time>
    <speed>13.676426</speed>
  </trkpt>
  <trkpt lat="6.059324" lon="-75.630209">
    <ele>1757</ele>
    <time>2014-06-16T11:40:11Z</time>
    <speed>11.943416</speed>
  </trkpt>
  <trkpt lat="6.059200" lon="-75.630050">
    <ele>1755</ele>
    <time>2014-06-16T11:40:13Z</time>
    <speed>9.3876295</speed>
  </trkpt>
  <trkpt lat="6.059036" lon="-75.629987">
    <ele>1757</ele>
    <time>2014-06-16T11:40:15Z</time>
    <speed>8.612028</speed>
  </trkpt>
  <trkpt lat="6.058855" lon="-75.630001">
    <ele>1758</ele>
    <time>2014-06-16T11:40:17Z</time>
    <speed>10.373203</speed>
  </trkpt>
  <trkpt lat="6.058652" lon="-75.630034">
    <ele>1759</ele>
    <time>2014-06-16T11:40:19Z</time>
    <speed>11.870062</speed>
  </trkpt>
  <trkpt lat="6.058424" lon="-75.630056">
    <ele>1759</ele>
    <time>2014-06-16T11:40:21Z</time>
    <speed>11.981183</speed>
  </trkpt>
  <trkpt lat="6.058206" lon="-75.630071">
    <ele>1761</ele>
    <time>2014-06-16T11:40:23Z</time>
    <speed>11.576932</speed>
  </trkpt>
  <trkpt lat="6.057982" lon="-75.630098">
    <ele>1762</ele>
    <time>2014-06-16T11:40:25Z</time>
    <speed>12.183791</speed>
  </trkpt>
  <trkpt lat="6.057755" lon="-75.630087">
    <ele>1762</ele>
    <time>2014-06-16T11:40:27Z</time>
    <speed>12.844898</speed>
  </trkpt>
  <trkpt lat="6.057518" lon="-75.630029">
    <ele>1765</ele>
    <time>2014-06-16T11:40:29Z</time>
    <speed>13.7387295</speed>
  </trkpt>
  <trkpt lat="6.057255" lon="-75.629949">
    <ele>1765</ele>
    <time>2014-06-16T11:40:31Z</time>
    <speed>15.06033</speed>
  </trkpt>
  <trkpt lat="6.056973" lon="-75.629854">
    <ele>1766</ele>
    <time>2014-06-16T11:40:33Z</time>
    <speed>15.608704</speed>
  </trkpt>
  <trkpt lat="6.056695" lon="-75.629741">
    <ele>1767</ele>
    <time>2014-06-16T11:40:35Z</time>
    <speed>15.94336</speed>
  </trkpt>
  <trkpt lat="6.056438" lon="-75.629601">
    <ele>1770</ele>
    <time>2014-06-16T11:40:37Z</time>
    <speed>15.9585705</speed>
  </trkpt>
  <trkpt lat="6.056173" lon="-75.629442">
    <ele>1773</ele>
    <time>2014-06-16T11:40:39Z</time>
    <speed>16.134428</speed>
  </trkpt>
  <trkpt lat="6.055917" lon="-75.629320">
    <ele>1772</ele>
    <time>2014-06-16T11:40:41Z</time>
    <speed>16.23684</speed>
  </trkpt>
  <trkpt lat="6.055629" lon="-75.629235">
    <ele>1772</ele>
    <time>2014-06-16T11:40:43Z</time>
    <speed>17.315071</speed>
  </trkpt>
  <trkpt lat="6.055329" lon="-75.629176">
    <ele>1772</ele>
    <time>2014-06-16T11:40:45Z</time>
    <speed>16.533787</speed>
  </trkpt>
  <trkpt lat="6.055035" lon="-75.629149">
    <ele>1770</ele>
    <time>2014-06-16T11:40:47Z</time>
    <speed>16.583261</speed>
  </trkpt>
  <trkpt lat="6.054736" lon="-75.629151">
    <ele>1771</ele>
    <time>2014-06-16T11:40:49Z</time>
    <speed>16.161293</speed>
  </trkpt>
  <trkpt lat="6.054451" lon="-75.629183">
    <ele>1769</ele>
    <time>2014-06-16T11:40:51Z</time>
    <speed>15.781614</speed>
  </trkpt>
  <trkpt lat="6.054163" lon="-75.629238">
    <ele>1770</ele>
    <time>2014-06-16T11:40:53Z</time>
    <speed>15.400253</speed>
  </trkpt>
  <trkpt lat="6.053882" lon="-75.629311">
    <ele>1771</ele>
    <time>2014-06-16T11:40:55Z</time>
    <speed>15.119908</speed>
  </trkpt>
  <trkpt lat="6.053616" lon="-75.629402">
    <ele>1773</ele>
    <time>2014-06-16T11:40:57Z</time>
    <speed>14.664622</speed>
  </trkpt>
  <trkpt lat="6.053334" lon="-75.629510">
    <ele>1775</ele>
    <time>2014-06-16T11:40:59Z</time>
    <speed>15.291649</speed>
  </trkpt>
  <trkpt lat="6.053067" lon="-75.629615">
    <ele>1776</ele>
    <time>2014-06-16T11:41:01Z</time>
    <speed>14.992933</speed>
  </trkpt>
  <trkpt lat="6.052826" lon="-75.629701">
    <ele>1779</ele>
    <time>2014-06-16T11:41:03Z</time>
    <speed>14.1100855</speed>
  </trkpt>
  <trkpt lat="6.052588" lon="-75.629768">
    <ele>1779</ele>
    <time>2014-06-16T11:41:05Z</time>
    <speed>14.123433</speed>
  </trkpt>
  <trkpt lat="6.052336" lon="-75.629776">
    <ele>1779</ele>
    <time>2014-06-16T11:41:07Z</time>
    <speed>14.208244</speed>
  </trkpt>
  <trkpt lat="6.052094" lon="-75.629703">
    <ele>1783</ele>
    <time>2014-06-16T11:41:09Z</time>
    <speed>14.788274</speed>
  </trkpt>
  <trkpt lat="6.051853" lon="-75.629594">
    <ele>1783</ele>
    <time>2014-06-16T11:41:11Z</time>
    <speed>14.982541</speed>
  </trkpt>
  <trkpt lat="6.051594" lon="-75.629466">
    <ele>1784</ele>
    <time>2014-06-16T11:41:13Z</time>
    <speed>15.290656</speed>
  </trkpt>
  <trkpt lat="6.051343" lon="-75.629336">
    <ele>1783</ele>
    <time>2014-06-16T11:41:15Z</time>
    <speed>14.285733</speed>
  </trkpt>
  <trkpt lat="6.051110" lon="-75.629218">
    <ele>1782</ele>
    <time>2014-06-16T11:41:17Z</time>
    <speed>13.343496</speed>
  </trkpt>
  <trkpt lat="6.050877" lon="-75.629187">
    <ele>1783</ele>
    <time>2014-06-16T11:41:19Z</time>
    <speed>13.309639</speed>
  </trkpt>
  <trkpt lat="6.050644" lon="-75.629182">
    <ele>1780</ele>
    <time>2014-06-16T11:41:21Z</time>
    <speed>13.721097</speed>
  </trkpt>
  <trkpt lat="6.050419" lon="-75.629240">
    <ele>1776</ele>
    <time>2014-06-16T11:41:23Z</time>
    <speed>12.578831</speed>
  </trkpt>
  <trkpt lat="6.050186" lon="-75.629282">
    <ele>1779</ele>
    <time>2014-06-16T11:41:25Z</time>
    <speed>13.562852</speed>
  </trkpt>
  <trkpt lat="6.049910" lon="-75.629260">
    <ele>1778</ele>
    <time>2014-06-16T11:41:27Z</time>
    <speed>15.124079</speed>
  </trkpt>
  <trkpt lat="6.049632" lon="-75.629186">
    <ele>1779</ele>
    <time>2014-06-16T11:41:29Z</time>
    <speed>15.786278</speed>
  </trkpt>
  <trkpt lat="6.049339" lon="-75.629068">
    <ele>1777</ele>
    <time>2014-06-16T11:41:31Z</time>
    <speed>15.8363285</speed>
  </trkpt>
  <trkpt lat="6.049069" lon="-75.628963">
    <ele>1775</ele>
    <time>2014-06-16T11:41:33Z</time>
    <speed>14.387905</speed>
  </trkpt>
  <trkpt lat="6.048826" lon="-75.628974">
    <ele>1775</ele>
    <time>2014-06-16T11:41:35Z</time>
    <speed>12.229894</speed>
  </trkpt>
  <trkpt lat="6.048578" lon="-75.629025">
    <ele>1776</ele>
    <time>2014-06-16T11:41:37Z</time>
    <speed>14.009319</speed>
  </trkpt>
  <trkpt lat="6.048301" lon="-75.629111">
    <ele>1777</ele>
    <time>2014-06-16T11:41:39Z</time>
    <speed>15.056851</speed>
  </trkpt>
  <trkpt lat="6.048007" lon="-75.629173">
    <ele>1779</ele>
    <time>2014-06-16T11:41:41Z</time>
    <speed>15.149273</speed>
  </trkpt>
  <trkpt lat="6.047654" lon="-75.629188">
    <ele>1779</ele>
    <time>2014-06-16T11:41:43Z</time>
    <speed>16.066254</speed>
  </trkpt>
  <trkpt lat="6.047336" lon="-75.629173">
    <ele>1780</ele>
    <time>2014-06-16T11:41:45Z</time>
    <speed>16.148891</speed>
  </trkpt>
  <trkpt lat="6.047044" lon="-75.629159">
    <ele>1778</ele>
    <time>2014-06-16T11:41:47Z</time>
    <speed>15.47295</speed>
  </trkpt>
  <trkpt lat="6.046776" lon="-75.629230">
    <ele>1781</ele>
    <time>2014-06-16T11:41:49Z</time>
    <speed>14.511366</speed>
  </trkpt>
  <trkpt lat="6.046597" lon="-75.629511">
    <ele>1783</ele>
    <time>2014-06-16T11:41:51Z</time>
    <speed>14.610773</speed>
  </trkpt>
  <trkpt lat="6.046425" lon="-75.629825">
    <ele>1783</ele>
    <time>2014-06-16T11:41:53Z</time>
    <speed>15.514642</speed>
  </trkpt>
  <trkpt lat="6.046280" lon="-75.630087">
    <ele>1783</ele>
    <time>2014-06-16T11:41:55Z</time>
    <speed>13.919365</speed>
  </trkpt>
  <trkpt lat="6.046143" lon="-75.630256">
    <ele>1781</ele>
    <time>2014-06-16T11:41:57Z</time>
    <speed>12.959743</speed>
  </trkpt>
  <trkpt lat="6.045946" lon="-75.630292">
    <ele>1784</ele>
    <time>2014-06-16T11:41:59Z</time>
    <speed>12.701833</speed>
  </trkpt>
  <trkpt lat="6.045720" lon="-75.630277">
    <ele>1785</ele>
    <time>2014-06-16T11:42:01Z</time>
    <speed>13.627947</speed>
  </trkpt>
  <trkpt lat="6.045459" lon="-75.630226">
    <ele>1786</ele>
    <time>2014-06-16T11:42:03Z</time>
    <speed>14.792653</speed>
  </trkpt>
  <trkpt lat="6.045204" lon="-75.630148">
    <ele>1787</ele>
    <time>2014-06-16T11:42:05Z</time>
    <speed>14.828733</speed>
  </trkpt>
  <trkpt lat="6.044957" lon="-75.630014">
    <ele>1790</ele>
    <time>2014-06-16T11:42:07Z</time>
    <speed>14.381353</speed>
  </trkpt>
  <trkpt lat="6.044723" lon="-75.629816">
    <ele>1793</ele>
    <time>2014-06-16T11:42:09Z</time>
    <speed>15.146151</speed>
  </trkpt>
  <trkpt lat="6.044538" lon="-75.629636">
    <ele>1791</ele>
    <time>2014-06-16T11:42:11Z</time>
    <speed>11.623458</speed>
  </trkpt>
  <trkpt lat="6.044349" lon="-75.629474">
    <ele>1790</ele>
    <time>2014-06-16T11:42:13Z</time>
    <speed>12.965675</speed>
  </trkpt>
  <trkpt lat="6.044143" lon="-75.629379">
    <ele>1790</ele>
    <time>2014-06-16T11:42:15Z</time>
    <speed>11.346218</speed>
  </trkpt>
  <trkpt lat="6.043946" lon="-75.629343">
    <ele>1793</ele>
    <time>2014-06-16T11:42:17Z</time>
    <speed>11.584741</speed>
  </trkpt>
  <trkpt lat="6.043739" lon="-75.629350">
    <ele>1793</ele>
    <time>2014-06-16T11:42:19Z</time>
    <speed>11.116437</speed>
  </trkpt>
  <trkpt lat="6.043521" lon="-75.629370">
    <ele>1796</ele>
    <time>2014-06-16T11:42:21Z</time>
    <speed>11.967931</speed>
  </trkpt>
  <trkpt lat="6.043310" lon="-75.629400">
    <ele>1797</ele>
    <time>2014-06-16T11:42:23Z</time>
    <speed>12.34257</speed>
  </trkpt>
  <trkpt lat="6.043095" lon="-75.629430">
    <ele>1798</ele>
    <time>2014-06-16T11:42:25Z</time>
    <speed>12.524726</speed>
  </trkpt>
  <trkpt lat="6.042865" lon="-75.629461">
    <ele>1802</ele>
    <time>2014-06-16T11:42:27Z</time>
    <speed>12.7761</speed>
  </trkpt>
  <trkpt lat="6.042631" lon="-75.629498">
    <ele>1803</ele>
    <time>2014-06-16T11:42:29Z</time>
    <speed>12.910284</speed>
  </trkpt>
  <trkpt lat="6.042361" lon="-75.629542">
    <ele>1804</ele>
    <time>2014-06-16T11:42:31Z</time>
    <speed>13.188107</speed>
  </trkpt>
  <trkpt lat="6.042095" lon="-75.629582">
    <ele>1806</ele>
    <time>2014-06-16T11:42:33Z</time>
    <speed>13.169887</speed>
  </trkpt>
  <trkpt lat="6.041862" lon="-75.629605">
    <ele>1809</ele>
    <time>2014-06-16T11:42:35Z</time>
    <speed>12.072827</speed>
  </trkpt>
  <trkpt lat="6.041626" lon="-75.629502">
    <ele>1811</ele>
    <time>2014-06-16T11:42:37Z</time>
    <speed>12.708717</speed>
  </trkpt>
  <trkpt lat="6.041424" lon="-75.629375">
    <ele>1811</ele>
    <time>2014-06-16T11:42:39Z</time>
    <speed>12.894365</speed>
  </trkpt>
  <trkpt lat="6.041230" lon="-75.629230">
    <ele>1814</ele>
    <time>2014-06-16T11:42:41Z</time>
    <speed>12.793116</speed>
  </trkpt>
  <trkpt lat="6.041030" lon="-75.629144">
    <ele>1816</ele>
    <time>2014-06-16T11:42:43Z</time>
    <speed>11.93857</speed>
  </trkpt>
  <trkpt lat="6.040822" lon="-75.629092">
    <ele>1817</ele>
    <time>2014-06-16T11:42:45Z</time>
    <speed>11.769322</speed>
  </trkpt>
  <trkpt lat="6.040580" lon="-75.629020">
    <ele>1820</ele>
    <time>2014-06-16T11:42:47Z</time>
    <speed>12.55608</speed>
  </trkpt>
  <trkpt lat="6.040384" lon="-75.628871">
    <ele>1819</ele>
    <time>2014-06-16T11:42:49Z</time>
    <speed>12.821802</speed>
  </trkpt>
  <trkpt lat="6.040205" lon="-75.628693">
    <ele>1824</ele>
    <time>2014-06-16T11:42:51Z</time>
    <speed>13.070184</speed>
  </trkpt>
  <trkpt lat="6.040028" lon="-75.628505">
    <ele>1825</ele>
    <time>2014-06-16T11:42:53Z</time>
    <speed>13.053211</speed>
  </trkpt>
  <trkpt lat="6.039856" lon="-75.628337">
    <ele>1827</ele>
    <time>2014-06-16T11:42:55Z</time>
    <speed>13.092977</speed>
  </trkpt>
  <trkpt lat="6.039666" lon="-75.628196">
    <ele>1829</ele>
    <time>2014-06-16T11:42:57Z</time>
    <speed>13.022923</speed>
  </trkpt>
  <trkpt lat="6.039460" lon="-75.628079">
    <ele>1829</ele>
    <time>2014-06-16T11:42:59Z</time>
    <speed>12.768695</speed>
  </trkpt>
  <trkpt lat="6.039241" lon="-75.627976">
    <ele>1831</ele>
    <time>2014-06-16T11:43:01Z</time>
    <speed>12.574231</speed>
  </trkpt>
  <trkpt lat="6.039038" lon="-75.627881">
    <ele>1832</ele>
    <time>2014-06-16T11:43:03Z</time>
    <speed>12.670712</speed>
  </trkpt>
  <trkpt lat="6.038852" lon="-75.627744">
    <ele>1834</ele>
    <time>2014-06-16T11:43:05Z</time>
    <speed>13.435446</speed>
  </trkpt>
  <trkpt lat="6.038681" lon="-75.627555">
    <ele>1835</ele>
    <time>2014-06-16T11:43:07Z</time>
    <speed>14.055377</speed>
  </trkpt>
  <trkpt lat="6.038520" lon="-75.627342">
    <ele>1834</ele>
    <time>2014-06-16T11:43:09Z</time>
    <speed>14.482715</speed>
  </trkpt>
  <trkpt lat="6.038360" lon="-75.627128">
    <ele>1838</ele>
    <time>2014-06-16T11:43:11Z</time>
    <speed>14.562797</speed>
  </trkpt>
  <trkpt lat="6.038187" lon="-75.626915">
    <ele>1839</ele>
    <time>2014-06-16T11:43:13Z</time>
    <speed>14.40892</speed>
  </trkpt>
  <trkpt lat="6.038008" lon="-75.626721">
    <ele>1841</ele>
    <time>2014-06-16T11:43:15Z</time>
    <speed>14.218666</speed>
  </trkpt>
  <trkpt lat="6.037816" lon="-75.626557">
    <ele>1843</ele>
    <time>2014-06-16T11:43:17Z</time>
    <speed>14.336613</speed>
  </trkpt>
  <trkpt lat="6.037594" lon="-75.626401">
    <ele>1843</ele>
    <time>2014-06-16T11:43:19Z</time>
    <speed>14.74924</speed>
  </trkpt>
  <trkpt lat="6.037370" lon="-75.626264">
    <ele>1848</ele>
    <time>2014-06-16T11:43:21Z</time>
    <speed>14.506751</speed>
  </trkpt>
  <trkpt lat="6.037141" lon="-75.626150">
    <ele>1850</ele>
    <time>2014-06-16T11:43:23Z</time>
    <speed>14.3785305</speed>
  </trkpt>
  <trkpt lat="6.036896" lon="-75.626042">
    <ele>1852</ele>
    <time>2014-06-16T11:43:25Z</time>
    <speed>14.643012</speed>
  </trkpt>
  <trkpt lat="6.036658" lon="-75.625914">
    <ele>1854</ele>
    <time>2014-06-16T11:43:27Z</time>
    <speed>14.893798</speed>
  </trkpt>
  <trkpt lat="6.036432" lon="-75.625760">
    <ele>1857</ele>
    <time>2014-06-16T11:43:29Z</time>
    <speed>14.48165</speed>
  </trkpt>
  <trkpt lat="6.036226" lon="-75.625585">
    <ele>1857</ele>
    <time>2014-06-16T11:43:31Z</time>
    <speed>14.397912</speed>
  </trkpt>
  <trkpt lat="6.036031" lon="-75.625410">
    <ele>1859</ele>
    <time>2014-06-16T11:43:33Z</time>
    <speed>14.455143</speed>
  </trkpt>
  <trkpt lat="6.035840" lon="-75.625241">
    <ele>1862</ele>
    <time>2014-06-16T11:43:35Z</time>
    <speed>13.25539</speed>
  </trkpt>
  <trkpt lat="6.035647" lon="-75.625086">
    <ele>1862</ele>
    <time>2014-06-16T11:43:37Z</time>
    <speed>12.983367</speed>
  </trkpt>
  <trkpt lat="6.035468" lon="-75.624955">
    <ele>1865</ele>
    <time>2014-06-16T11:43:39Z</time>
    <speed>11.737236</speed>
  </trkpt>
  <trkpt lat="6.035310" lon="-75.624769">
    <ele>1866</ele>
    <time>2014-06-16T11:43:41Z</time>
    <speed>12.137462</speed>
  </trkpt>
  <trkpt lat="6.035160" lon="-75.624582">
    <ele>1868</ele>
    <time>2014-06-16T11:43:43Z</time>
    <speed>11.347745</speed>
  </trkpt>
  <trkpt lat="6.035023" lon="-75.624420">
    <ele>1867</ele>
    <time>2014-06-16T11:43:45Z</time>
    <speed>10.030697</speed>
  </trkpt>
  <trkpt lat="6.034828" lon="-75.624395">
    <ele>1866</ele>
    <time>2014-06-16T11:43:47Z</time>
    <speed>9.021695</speed>
  </trkpt>
  <trkpt lat="6.034658" lon="-75.624503">
    <ele>1868</ele>
    <time>2014-06-16T11:43:49Z</time>
    <speed>8.108226</speed>
  </trkpt>
  <trkpt lat="6.034563" lon="-75.624683">
    <ele>1870</ele>
    <time>2014-06-16T11:43:51Z</time>
    <speed>8.624549</speed>
  </trkpt>
  <trkpt lat="6.034551" lon="-75.624887">
    <ele>1871</ele>
    <time>2014-06-16T11:43:53Z</time>
    <speed>9.702614</speed>
  </trkpt>
  <trkpt lat="6.034568" lon="-75.625094">
    <ele>1873</ele>
    <time>2014-06-16T11:43:55Z</time>
    <speed>9.536794</speed>
  </trkpt>
  <trkpt lat="6.034544" lon="-75.625240">
    <ele>1874</ele>
    <time>2014-06-16T11:43:57Z</time>
    <speed>7.394748</speed>
  </trkpt>
  <trkpt lat="6.034402" lon="-75.625288">
    <ele>1876</ele>
    <time>2014-06-16T11:43:59Z</time>
    <speed>9.089407</speed>
  </trkpt>
  <trkpt lat="6.034263" lon="-75.625213">
    <ele>1878</ele>
    <time>2014-06-16T11:44:01Z</time>
    <speed>9.517692</speed>
  </trkpt>
  <trkpt lat="6.034098" lon="-75.625076">
    <ele>1881</ele>
    <time>2014-06-16T11:44:03Z</time>
    <speed>10.269199</speed>
  </trkpt>
  <trkpt lat="6.033934" lon="-75.624930">
    <ele>1881</ele>
    <time>2014-06-16T11:44:05Z</time>
    <speed>11.111266</speed>
  </trkpt>
  <trkpt lat="6.033777" lon="-75.624780">
    <ele>1884</ele>
    <time>2014-06-16T11:44:07Z</time>
    <speed>11.750651</speed>
  </trkpt>
  <trkpt lat="6.033609" lon="-75.624632">
    <ele>1884</ele>
    <time>2014-06-16T11:44:09Z</time>
    <speed>11.832015</speed>
  </trkpt>
  <trkpt lat="6.033420" lon="-75.624525">
    <ele>1887</ele>
    <time>2014-06-16T11:44:11Z</time>
    <speed>10.568561</speed>
  </trkpt>
  <trkpt lat="6.033232" lon="-75.624458">
    <ele>1887</ele>
    <time>2014-06-16T11:44:13Z</time>
    <speed>11.306146</speed>
  </trkpt>
  <trkpt lat="6.033102" lon="-75.624316">
    <ele>1892</ele>
    <time>2014-06-16T11:44:15Z</time>
    <speed>11.014285</speed>
  </trkpt>
  <trkpt lat="6.033025" lon="-75.624126">
    <ele>1892</ele>
    <time>2014-06-16T11:44:17Z</time>
    <speed>11.483156</speed>
  </trkpt>
  <trkpt lat="6.032971" lon="-75.623927">
    <ele>1893</ele>
    <time>2014-06-16T11:44:19Z</time>
    <speed>10.66549</speed>
  </trkpt>
  <trkpt lat="6.032896" lon="-75.623778">
    <ele>1896</ele>
    <time>2014-06-16T11:44:21Z</time>
    <speed>7.7841244</speed>
  </trkpt>
  <trkpt lat="6.032741" lon="-75.623606">
    <ele>1897</ele>
    <time>2014-06-16T11:44:23Z</time>
    <speed>11.403903</speed>
  </trkpt>
  <trkpt lat="6.032585" lon="-75.623469">
    <ele>1899</ele>
    <time>2014-06-16T11:44:25Z</time>
    <speed>9.644635</speed>
  </trkpt>
  <trkpt lat="6.032380" lon="-75.623430">
    <ele>1900</ele>
    <time>2014-06-16T11:44:27Z</time>
    <speed>9.521547</speed>
  </trkpt>
  <trkpt lat="6.032165" lon="-75.623519">
    <ele>1902</ele>
    <time>2014-06-16T11:44:29Z</time>
    <speed>10.71215</speed>
  </trkpt>
  <trkpt lat="6.031953" lon="-75.623630">
    <ele>1903</ele>
    <time>2014-06-16T11:44:31Z</time>
    <speed>10.553706</speed>
  </trkpt>
  <trkpt lat="6.031765" lon="-75.623596">
    <ele>1905</ele>
    <time>2014-06-16T11:44:33Z</time>
    <speed>9.853926</speed>
  </trkpt>
  <trkpt lat="6.031620" lon="-75.623459">
    <ele>1908</ele>
    <time>2014-06-16T11:44:35Z</time>
    <speed>10.5062475</speed>
  </trkpt>
  <trkpt lat="6.031494" lon="-75.623334">
    <ele>1909</ele>
    <time>2014-06-16T11:44:37Z</time>
    <speed>9.047611</speed>
  </trkpt>
  <trkpt lat="6.031361" lon="-75.623327">
    <ele>1911</ele>
    <time>2014-06-16T11:44:39Z</time>
    <speed>6.732643</speed>
  </trkpt>
  <trkpt lat="6.031217" lon="-75.623418">
    <ele>1910</ele>
    <time>2014-06-16T11:44:41Z</time>
    <speed>6.4377894</speed>
  </trkpt>
  <trkpt lat="6.031110" lon="-75.623552">
    <ele>1912</ele>
    <time>2014-06-16T11:44:43Z</time>
    <speed>7.8697886</speed>
  </trkpt>
  <trkpt lat="6.031016" lon="-75.623622">
    <ele>1913</ele>
    <time>2014-06-16T11:44:45Z</time>
    <speed>7.205936</speed>
  </trkpt>
  <trkpt lat="6.030894" lon="-75.623614">
    <ele>1916</ele>
    <time>2014-06-16T11:44:47Z</time>
    <speed>8.343708</speed>
  </trkpt>
  <trkpt lat="6.030733" lon="-75.623524">
    <ele>1915</ele>
    <time>2014-06-16T11:44:49Z</time>
    <speed>9.283649</speed>
  </trkpt>
  <trkpt lat="6.030560" lon="-75.623401">
    <ele>1919</ele>
    <time>2014-06-16T11:44:51Z</time>
    <speed>10.769718</speed>
  </trkpt>
  <trkpt lat="6.030425" lon="-75.623238">
    <ele>1918</ele>
    <time>2014-06-16T11:44:53Z</time>
    <speed>11.374425</speed>
  </trkpt>
  <trkpt lat="6.030307" lon="-75.623097">
    <ele>1919</ele>
    <time>2014-06-16T11:44:55Z</time>
    <speed>9.170864</speed>
  </trkpt>
  <trkpt lat="6.030182" lon="-75.622995">
    <ele>1919</ele>
    <time>2014-06-16T11:44:57Z</time>
    <speed>7.9941087</speed>
  </trkpt>
  <trkpt lat="6.030037" lon="-75.622977">
    <ele>1923</ele>
    <time>2014-06-16T11:44:59Z</time>
    <speed>7.9508805</speed>
  </trkpt>
  <trkpt lat="6.029864" lon="-75.623009">
    <ele>1921</ele>
    <time>2014-06-16T11:45:01Z</time>
    <speed>9.202403</speed>
  </trkpt>
  <trkpt lat="6.029689" lon="-75.622972">
    <ele>1922</ele>
    <time>2014-06-16T11:45:03Z</time>
    <speed>9.395406</speed>
  </trkpt>
  <trkpt lat="6.029562" lon="-75.622877">
    <ele>1926</ele>
    <time>2014-06-16T11:45:05Z</time>
    <speed>9.450222</speed>
  </trkpt>
  <trkpt lat="6.029465" lon="-75.622732">
    <ele>1926</ele>
    <time>2014-06-16T11:45:07Z</time>
    <speed>9.017477</speed>
  </trkpt>
  <trkpt lat="6.029323" lon="-75.622641">
    <ele>1926</ele>
    <time>2014-06-16T11:45:09Z</time>
    <speed>8.248717</speed>
  </trkpt>
  <trkpt lat="6.029162" lon="-75.622571">
    <ele>1928</ele>
    <time>2014-06-16T11:45:11Z</time>
    <speed>8.651003</speed>
  </trkpt>
  <trkpt lat="6.029022" lon="-75.622453">
    <ele>1927</ele>
    <time>2014-06-16T11:45:13Z</time>
    <speed>10.063977</speed>
  </trkpt>
  <trkpt lat="6.028976" lon="-75.622266">
    <ele>1931</ele>
    <time>2014-06-16T11:45:15Z</time>
    <speed>9.619375</speed>
  </trkpt>
  <trkpt lat="6.028982" lon="-75.622069">
    <ele>1932</ele>
    <time>2014-06-16T11:45:17Z</time>
    <speed>10.575659</speed>
  </trkpt>
  <trkpt lat="6.028965" lon="-75.621865">
    <ele>1933</ele>
    <time>2014-06-16T11:45:19Z</time>
    <speed>10.855506</speed>
  </trkpt>
  <trkpt lat="6.028897" lon="-75.621656">
    <ele>1936</ele>
    <time>2014-06-16T11:45:21Z</time>
    <speed>12.0900545</speed>
  </trkpt>
  <trkpt lat="6.028791" lon="-75.621447">
    <ele>1935</ele>
    <time>2014-06-16T11:45:23Z</time>
    <speed>10.737746</speed>
  </trkpt>
  <trkpt lat="6.028667" lon="-75.621254">
    <ele>1938</ele>
    <time>2014-06-16T11:45:25Z</time>
    <speed>11.722854</speed>
  </trkpt>
  <trkpt lat="6.028479" lon="-75.621123">
    <ele>1939</ele>
    <time>2014-06-16T11:45:27Z</time>
    <speed>11.34999</speed>
  </trkpt>
  <trkpt lat="6.028242" lon="-75.621061">
    <ele>1941</ele>
    <time>2014-06-16T11:45:29Z</time>
    <speed>12.528307</speed>
  </trkpt>
  <trkpt lat="6.028006" lon="-75.621017">
    <ele>1942</ele>
    <time>2014-06-16T11:45:31Z</time>
    <speed>12.759919</speed>
  </trkpt>
  <trkpt lat="6.027758" lon="-75.620928">
    <ele>1944</ele>
    <time>2014-06-16T11:45:33Z</time>
    <speed>13.978426</speed>
  </trkpt>
  <trkpt lat="6.027504" lon="-75.620796">
    <ele>1949</ele>
    <time>2014-06-16T11:45:35Z</time>
    <speed>14.327568</speed>
  </trkpt>
  <trkpt lat="6.027277" lon="-75.620653">
    <ele>1950</ele>
    <time>2014-06-16T11:45:37Z</time>
    <speed>14.487166</speed>
  </trkpt>
  <trkpt lat="6.027037" lon="-75.620518">
    <ele>1953</ele>
    <time>2014-06-16T11:45:39Z</time>
    <speed>14.518117</speed>
  </trkpt>
  <trkpt lat="6.026785" lon="-75.620415">
    <ele>1953</ele>
    <time>2014-06-16T11:45:41Z</time>
    <speed>14.672051</speed>
  </trkpt>
  <trkpt lat="6.026558" lon="-75.620338">
    <ele>1953</ele>
    <time>2014-06-16T11:45:43Z</time>
    <speed>13.124645</speed>
  </trkpt>
  <trkpt lat="6.026352" lon="-75.620349">
    <ele>1953</ele>
    <time>2014-06-16T11:45:45Z</time>
    <speed>10.809586</speed>
  </trkpt>
  <trkpt lat="6.026214" lon="-75.620430">
    <ele>1954</ele>
    <time>2014-06-16T11:45:47Z</time>
    <speed>8.239658</speed>
  </trkpt>
  <trkpt lat="6.026104" lon="-75.620562">
    <ele>1957</ele>
    <time>2014-06-16T11:45:49Z</time>
    <speed>7.990076</speed>
  </trkpt>
  <trkpt lat="6.025996" lon="-75.620695">
    <ele>1958</ele>
    <time>2014-06-16T11:45:51Z</time>
    <speed>8.688949</speed>
  </trkpt>
  <trkpt lat="6.025864" lon="-75.620799">
    <ele>1958</ele>
    <time>2014-06-16T11:45:53Z</time>
    <speed>8.408993</speed>
  </trkpt>
  <trkpt lat="6.025699" lon="-75.620799">
    <ele>1960</ele>
    <time>2014-06-16T11:45:55Z</time>
    <speed>8.296228</speed>
  </trkpt>
  <trkpt lat="6.025518" lon="-75.620707">
    <ele>1963</ele>
    <time>2014-06-16T11:45:57Z</time>
    <speed>9.958042</speed>
  </trkpt>
  <trkpt lat="6.025361" lon="-75.620558">
    <ele>1964</ele>
    <time>2014-06-16T11:45:59Z</time>
    <speed>9.859402</speed>
  </trkpt>
  <trkpt lat="6.025228" lon="-75.620424">
    <ele>1965</ele>
    <time>2014-06-16T11:46:01Z</time>
    <speed>9.434881</speed>
  </trkpt>
  <trkpt lat="6.025105" lon="-75.620304">
    <ele>1966</ele>
    <time>2014-06-16T11:46:03Z</time>
    <speed>9.122767</speed>
  </trkpt>
  <trkpt lat="6.024968" lon="-75.620253">
    <ele>1969</ele>
    <time>2014-06-16T11:46:05Z</time>
    <speed>9.028378</speed>
  </trkpt>
  <trkpt lat="6.024802" lon="-75.620265">
    <ele>1969</ele>
    <time>2014-06-16T11:46:07Z</time>
    <speed>8.915551</speed>
  </trkpt>
  <trkpt lat="6.024653" lon="-75.620344">
    <ele>1972</ele>
    <time>2014-06-16T11:46:09Z</time>
    <speed>9.155929</speed>
  </trkpt>
  <trkpt lat="6.024491" lon="-75.620444">
    <ele>1973</ele>
    <time>2014-06-16T11:46:11Z</time>
    <speed>10.24383</speed>
  </trkpt>
  <trkpt lat="6.024320" lon="-75.620539">
    <ele>1974</ele>
    <time>2014-06-16T11:46:13Z</time>
    <speed>10.01913</speed>
  </trkpt>
  <trkpt lat="6.024170" lon="-75.620616">
    <ele>1976</ele>
    <time>2014-06-16T11:46:15Z</time>
    <speed>9.0946455</speed>
  </trkpt>
  <trkpt lat="6.024023" lon="-75.620684">
    <ele>1977</ele>
    <time>2014-06-16T11:46:17Z</time>
    <speed>7.621647</speed>
  </trkpt>
  <trkpt lat="6.023886" lon="-75.620743">
    <ele>1977</ele>
    <time>2014-06-16T11:46:19Z</time>
    <speed>7.0079446</speed>
  </trkpt>
  <trkpt lat="6.023746" lon="-75.620801">
    <ele>1976</ele>
    <time>2014-06-16T11:46:21Z</time>
    <speed>7.3316536</speed>
  </trkpt>
  <trkpt lat="6.023613" lon="-75.620841">
    <ele>1978</ele>
    <time>2014-06-16T11:46:23Z</time>
    <speed>6.1577606</speed>
  </trkpt>
  <trkpt lat="6.023458" lon="-75.620886">
    <ele>1979</ele>
    <time>2014-06-16T11:46:25Z</time>
    <speed>6.1837006</speed>
  </trkpt>
  <trkpt lat="6.023337" lon="-75.620896">
    <ele>1979</ele>
    <time>2014-06-16T11:46:27Z</time>
    <speed>5.1236978</speed>
  </trkpt>
  <trkpt lat="6.023217" lon="-75.620881">
    <ele>1980</ele>
    <time>2014-06-16T11:46:29Z</time>
    <speed>5.7157273</speed>
  </trkpt>
  <trkpt lat="6.023113" lon="-75.620856">
    <ele>1982</ele>
    <time>2014-06-16T11:46:31Z</time>
    <speed>5.7567563</speed>
  </trkpt>
  <trkpt lat="6.023010" lon="-75.620823">
    <ele>1982</ele>
    <time>2014-06-16T11:46:33Z</time>
    <speed>5.172133</speed>
  </trkpt>
  <trkpt lat="6.022897" lon="-75.620764">
    <ele>1983</ele>
    <time>2014-06-16T11:46:35Z</time>
    <speed>5.796011</speed>
  </trkpt>
  <trkpt lat="6.022794" lon="-75.620693">
    <ele>1983</ele>
    <time>2014-06-16T11:46:37Z</time>
    <speed>5.820373</speed>
  </trkpt>
  <trkpt lat="6.022704" lon="-75.620635">
    <ele>1984</ele>
    <time>2014-06-16T11:46:39Z</time>
    <speed>5.596434</speed>
  </trkpt>
  <trkpt lat="6.022602" lon="-75.620563">
    <ele>1986</ele>
    <time>2014-06-16T11:46:41Z</time>
    <speed>6.380149</speed>
  </trkpt>
  <trkpt lat="6.022500" lon="-75.620490">
    <ele>1986</ele>
    <time>2014-06-16T11:46:43Z</time>
    <speed>6.619413</speed>
  </trkpt>
  <trkpt lat="6.022397" lon="-75.620402">
    <ele>1988</ele>
    <time>2014-06-16T11:46:45Z</time>
    <speed>6.830774</speed>
  </trkpt>
  <trkpt lat="6.022296" lon="-75.620309">
    <ele>1989</ele>
    <time>2014-06-16T11:46:47Z</time>
    <speed>7.5150747</speed>
  </trkpt>
  <trkpt lat="6.022191" lon="-75.620221">
    <ele>1991</ele>
    <time>2014-06-16T11:46:49Z</time>
    <speed>7.689758</speed>
  </trkpt>
  <trkpt lat="6.022069" lon="-75.620149">
    <ele>1991</ele>
    <time>2014-06-16T11:46:51Z</time>
    <speed>7.8842473</speed>
  </trkpt>
  <trkpt lat="6.021940" lon="-75.620091">
    <ele>1990</ele>
    <time>2014-06-16T11:46:53Z</time>
    <speed>6.7739897</speed>
  </trkpt>
  <trkpt lat="6.021822" lon="-75.620043">
    <ele>1993</ele>
    <time>2014-06-16T11:46:55Z</time>
    <speed>6.4922085</speed>
  </trkpt>
  <trkpt lat="6.021701" lon="-75.619996">
    <ele>1993</ele>
    <time>2014-06-16T11:46:57Z</time>
    <speed>6.623667</speed>
  </trkpt>
  <trkpt lat="6.021585" lon="-75.619946">
    <ele>1994</ele>
    <time>2014-06-16T11:46:59Z</time>
    <speed>6.170408</speed>
  </trkpt>
  <trkpt lat="6.021503" lon="-75.619887">
    <ele>1995</ele>
    <time>2014-06-16T11:47:01Z</time>
    <speed>5.5254784</speed>
  </trkpt>
  <trkpt lat="6.021419" lon="-75.619815">
    <ele>1997</ele>
    <time>2014-06-16T11:47:03Z</time>
    <speed>6.379033</speed>
  </trkpt>
  <trkpt lat="6.021331" lon="-75.619733">
    <ele>1997</ele>
    <time>2014-06-16T11:47:05Z</time>
    <speed>6.529537</speed>
  </trkpt>
  <trkpt lat="6.021239" lon="-75.619650">
    <ele>1999</ele>
    <time>2014-06-16T11:47:07Z</time>
    <speed>6.1814866</speed>
  </trkpt>
  <trkpt lat="6.021138" lon="-75.619603">
    <ele>2000</ele>
    <time>2014-06-16T11:47:09Z</time>
    <speed>5.701978</speed>
  </trkpt>
  <trkpt lat="6.021038" lon="-75.619570">
    <ele>1999</ele>
    <time>2014-06-16T11:47:11Z</time>
    <speed>5.8749495</speed>
  </trkpt>
  <trkpt lat="6.020934" lon="-75.619542">
    <ele>2001</ele>
    <time>2014-06-16T11:47:13Z</time>
    <speed>5.1395516</speed>
  </trkpt>
  <trkpt lat="6.020836" lon="-75.619504">
    <ele>2002</ele>
    <time>2014-06-16T11:47:15Z</time>
    <speed>6.219301</speed>
  </trkpt>
  <trkpt lat="6.020749" lon="-75.619434">
    <ele>2002</ele>
    <time>2014-06-16T11:47:17Z</time>
    <speed>6.058004</speed>
  </trkpt>
  <trkpt lat="6.020658" lon="-75.619348">
    <ele>2004</ele>
    <time>2014-06-16T11:47:19Z</time>
    <speed>5.748631</speed>
  </trkpt>
  <trkpt lat="6.020567" lon="-75.619259">
    <ele>2004</ele>
    <time>2014-06-16T11:47:21Z</time>
    <speed>5.839345</speed>
  </trkpt>
  <trkpt lat="6.020471" lon="-75.619199">
    <ele>2005</ele>
    <time>2014-06-16T11:47:23Z</time>
    <speed>6.025608</speed>
  </trkpt>
  <trkpt lat="6.020358" lon="-75.619169">
    <ele>2006</ele>
    <time>2014-06-16T11:47:25Z</time>
    <speed>5.618451</speed>
  </trkpt>
  <trkpt lat="6.020242" lon="-75.619170">
    <ele>2006</ele>
    <time>2014-06-16T11:47:27Z</time>
    <speed>6.152642</speed>
  </trkpt>
  <trkpt lat="6.020139" lon="-75.619191">
    <ele>2007</ele>
    <time>2014-06-16T11:47:29Z</time>
    <speed>5.5316863</speed>
  </trkpt>
  <trkpt lat="6.020041" lon="-75.619259">
    <ele>2007</ele>
    <time>2014-06-16T11:47:31Z</time>
    <speed>6.3435054</speed>
  </trkpt>
  <trkpt lat="6.019969" lon="-75.619366">
    <ele>2008</ele>
    <time>2014-06-16T11:47:33Z</time>
    <speed>6.1027184</speed>
  </trkpt>
  <trkpt lat="6.019895" lon="-75.619485">
    <ele>2010</ele>
    <time>2014-06-16T11:47:35Z</time>
    <speed>6.4712977</speed>
  </trkpt>
  <trkpt lat="6.019805" lon="-75.619591">
    <ele>2010</ele>
    <time>2014-06-16T11:47:37Z</time>
    <speed>5.9889655</speed>
  </trkpt>
  <trkpt lat="6.019708" lon="-75.619654">
    <ele>2011</ele>
    <time>2014-06-16T11:47:39Z</time>
    <speed>6.21137</speed>
  </trkpt>
  <trkpt lat="6.019616" lon="-75.619691">
    <ele>2012</ele>
    <time>2014-06-16T11:47:41Z</time>
    <speed>6.352594</speed>
  </trkpt>
  <trkpt lat="6.019519" lon="-75.619723">
    <ele>2012</ele>
    <time>2014-06-16T11:47:43Z</time>
    <speed>6.344013</speed>
  </trkpt>
  <trkpt lat="6.019405" lon="-75.619755">
    <ele>2016</ele>
    <time>2014-06-16T11:47:45Z</time>
    <speed>5.933856</speed>
  </trkpt>
  <trkpt lat="6.019302" lon="-75.619781">
    <ele>2016</ele>
    <time>2014-06-16T11:47:47Z</time>
    <speed>5.9002757</speed>
  </trkpt>
  <trkpt lat="6.019193" lon="-75.619794">
    <ele>2016</ele>
    <time>2014-06-16T11:47:49Z</time>
    <speed>5.4654126</speed>
  </trkpt>
  <trkpt lat="6.019086" lon="-75.619768">
    <ele>2016</ele>
    <time>2014-06-16T11:47:51Z</time>
    <speed>5.9808083</speed>
  </trkpt>
  <trkpt lat="6.018987" lon="-75.619706">
    <ele>2018</ele>
    <time>2014-06-16T11:47:53Z</time>
    <speed>6.120464</speed>
  </trkpt>
  <trkpt lat="6.018891" lon="-75.619601">
    <ele>2019</ele>
    <time>2014-06-16T11:47:55Z</time>
    <speed>6.7220383</speed>
  </trkpt>
  <trkpt lat="6.018799" lon="-75.619495">
    <ele>2020</ele>
    <time>2014-06-16T11:47:57Z</time>
    <speed>6.8598237</speed>
  </trkpt>
  <trkpt lat="6.018713" lon="-75.619397">
    <ele>2021</ele>
    <time>2014-06-16T11:47:59Z</time>
    <speed>7.078665</speed>
  </trkpt>
  <trkpt lat="6.018636" lon="-75.619307">
    <ele>2021</ele>
    <time>2014-06-16T11:48:01Z</time>
    <speed>5.958382</speed>
  </trkpt>
  <trkpt lat="6.018584" lon="-75.619222">
    <ele>2023</ele>
    <time>2014-06-16T11:48:03Z</time>
    <speed>5.437303</speed>
  </trkpt>
  <trkpt lat="6.018557" lon="-75.619104">
    <ele>2025</ele>
    <time>2014-06-16T11:48:05Z</time>
    <speed>5.695376</speed>
  </trkpt>
  <trkpt lat="6.018576" lon="-75.618980">
    <ele>2025</ele>
    <time>2014-06-16T11:48:07Z</time>
    <speed>6.2911057</speed>
  </trkpt>
  <trkpt lat="6.018621" lon="-75.618846">
    <ele>2026</ele>
    <time>2014-06-16T11:48:09Z</time>
    <speed>6.783932</speed>
  </trkpt>
  <trkpt lat="6.018667" lon="-75.618717">
    <ele>2027</ele>
    <time>2014-06-16T11:48:11Z</time>
    <speed>6.287499</speed>
  </trkpt>
  <trkpt lat="6.018671" lon="-75.618591">
    <ele>2028</ele>
    <time>2014-06-16T11:48:13Z</time>
    <speed>5.731442</speed>
  </trkpt>
  <trkpt lat="6.018640" lon="-75.618495">
    <ele>2029</ele>
    <time>2014-06-16T11:48:15Z</time>
    <speed>6.1690907</speed>
  </trkpt>
  <trkpt lat="6.018569" lon="-75.618392">
    <ele>2028</ele>
    <time>2014-06-16T11:48:17Z</time>
    <speed>6.867193</speed>
  </trkpt>
  <trkpt lat="6.018474" lon="-75.618325">
    <ele>2029</ele>
    <time>2014-06-16T11:48:19Z</time>
    <speed>7.069224</speed>
  </trkpt>
  <trkpt lat="6.018342" lon="-75.618266">
    <ele>2032</ele>
    <time>2014-06-16T11:48:21Z</time>
    <speed>7.4024563</speed>
  </trkpt>
  <trkpt lat="6.018206" lon="-75.618258">
    <ele>2032</ele>
    <time>2014-06-16T11:48:23Z</time>
    <speed>6.6242304</speed>
  </trkpt>
  <trkpt lat="6.018093" lon="-75.618263">
    <ele>2035</ele>
    <time>2014-06-16T11:48:25Z</time>
    <speed>6.144539</speed>
  </trkpt>
  <trkpt lat="6.017969" lon="-75.618272">
    <ele>2035</ele>
    <time>2014-06-16T11:48:27Z</time>
    <speed>7.0189047</speed>
  </trkpt>
  <trkpt lat="6.017822" lon="-75.618250">
    <ele>2039</ele>
    <time>2014-06-16T11:48:29Z</time>
    <speed>7.905658</speed>
  </trkpt>
  <trkpt lat="6.017649" lon="-75.618190">
    <ele>2042</ele>
    <time>2014-06-16T11:48:31Z</time>
    <speed>10.609858</speed>
  </trkpt>
  <trkpt lat="6.017417" lon="-75.618099">
    <ele>2045</ele>
    <time>2014-06-16T11:48:33Z</time>
    <speed>12.795059</speed>
  </trkpt>
  <trkpt lat="6.017172" lon="-75.617991">
    <ele>2048</ele>
    <time>2014-06-16T11:48:35Z</time>
    <speed>14.0633335</speed>
  </trkpt>
  <trkpt lat="6.016910" lon="-75.617855">
    <ele>2049</ele>
    <time>2014-06-16T11:48:37Z</time>
    <speed>13.918285</speed>
  </trkpt>
  <trkpt lat="6.016695" lon="-75.617735">
    <ele>2053</ele>
    <time>2014-06-16T11:48:39Z</time>
    <speed>13.367904</speed>
  </trkpt>
  <trkpt lat="6.016445" lon="-75.617695">
    <ele>2054</ele>
    <time>2014-06-16T11:48:41Z</time>
    <speed>14.167948</speed>
  </trkpt>
  <trkpt lat="6.016178" lon="-75.617674">
    <ele>2056</ele>
    <time>2014-06-16T11:48:43Z</time>
    <speed>14.818382</speed>
  </trkpt>
  <trkpt lat="6.015910" lon="-75.617644">
    <ele>2057</ele>
    <time>2014-06-16T11:48:45Z</time>
    <speed>15.015377</speed>
  </trkpt>
  <trkpt lat="6.015648" lon="-75.617528">
    <ele>2060</ele>
    <time>2014-06-16T11:48:47Z</time>
    <speed>15.557488</speed>
  </trkpt>
  <trkpt lat="6.015405" lon="-75.617411">
    <ele>2062</ele>
    <time>2014-06-16T11:48:49Z</time>
    <speed>14.98487</speed>
  </trkpt>
  <trkpt lat="6.015149" lon="-75.617318">
    <ele>2063</ele>
    <time>2014-06-16T11:48:51Z</time>
    <speed>14.069454</speed>
  </trkpt>
  <trkpt lat="6.014903" lon="-75.617227">
    <ele>2065</ele>
    <time>2014-06-16T11:48:53Z</time>
    <speed>13.21044</speed>
  </trkpt>
  <trkpt lat="6.014742" lon="-75.617016">
    <ele>2066</ele>
    <time>2014-06-16T11:48:55Z</time>
    <speed>13.32586</speed>
  </trkpt>
  <trkpt lat="6.014611" lon="-75.616813">
    <ele>2069</ele>
    <time>2014-06-16T11:48:57Z</time>
    <speed>12.373778</speed>
  </trkpt>
  <trkpt lat="6.014434" lon="-75.616732">
    <ele>2072</ele>
    <time>2014-06-16T11:48:59Z</time>
    <speed>11.480295</speed>
  </trkpt>
  <trkpt lat="6.014213" lon="-75.616728">
    <ele>2072</ele>
    <time>2014-06-16T11:49:01Z</time>
    <speed>12.564764</speed>
  </trkpt>
  <trkpt lat="6.014021" lon="-75.616771">
    <ele>2073</ele>
    <time>2014-06-16T11:49:03Z</time>
    <speed>10.866263</speed>
  </trkpt>
  <trkpt lat="6.013856" lon="-75.616816">
    <ele>2076</ele>
    <time>2014-06-16T11:49:05Z</time>
    <speed>9.996961</speed>
  </trkpt>
  <trkpt lat="6.013645" lon="-75.616840">
    <ele>2076</ele>
    <time>2014-06-16T11:49:07Z</time>
    <speed>12.513353</speed>
  </trkpt>
  <trkpt lat="6.013409" lon="-75.616812">
    <ele>2080</ele>
    <time>2014-06-16T11:49:09Z</time>
    <speed>12.88126</speed>
  </trkpt>
  <trkpt lat="6.013157" lon="-75.616738">
    <ele>2080</ele>
    <time>2014-06-16T11:49:11Z</time>
    <speed>13.588775</speed>
  </trkpt>
  <trkpt lat="6.012929" lon="-75.616686">
    <ele>2084</ele>
    <time>2014-06-16T11:49:13Z</time>
    <speed>12.8005</speed>
  </trkpt>
  <trkpt lat="6.012730" lon="-75.616771">
    <ele>2085</ele>
    <time>2014-06-16T11:49:15Z</time>
    <speed>12.3431425</speed>
  </trkpt>
  <trkpt lat="6.012563" lon="-75.616919">
    <ele>2087</ele>
    <time>2014-06-16T11:49:17Z</time>
    <speed>12.198833</speed>
  </trkpt>
  <trkpt lat="6.012385" lon="-75.617065">
    <ele>2088</ele>
    <time>2014-06-16T11:49:19Z</time>
    <speed>13.423212</speed>
  </trkpt>
  <trkpt lat="6.012147" lon="-75.617119">
    <ele>2090</ele>
    <time>2014-06-16T11:49:21Z</time>
    <speed>13.267682</speed>
  </trkpt>
  <trkpt lat="6.011887" lon="-75.617141">
    <ele>2091</ele>
    <time>2014-06-16T11:49:23Z</time>
    <speed>13.169855</speed>
  </trkpt>
  <trkpt lat="6.011626" lon="-75.617084">
    <ele>2093</ele>
    <time>2014-06-16T11:49:25Z</time>
    <speed>13.116935</speed>
  </trkpt>
  <trkpt lat="6.011383" lon="-75.617001">
    <ele>2095</ele>
    <time>2014-06-16T11:49:27Z</time>
    <speed>13.08284</speed>
  </trkpt>
  <trkpt lat="6.011162" lon="-75.617015">
    <ele>2097</ele>
    <time>2014-06-16T11:49:29Z</time>
    <speed>13.536857</speed>
  </trkpt>
  <trkpt lat="6.010926" lon="-75.617069">
    <ele>2099</ele>
    <time>2014-06-16T11:49:31Z</time>
    <speed>13.885653</speed>
  </trkpt>
  <trkpt lat="6.010655" lon="-75.617112">
    <ele>2099</ele>
    <time>2014-06-16T11:49:33Z</time>
    <speed>14.621198</speed>
  </trkpt>
  <trkpt lat="6.010396" lon="-75.617150">
    <ele>2100</ele>
    <time>2014-06-16T11:49:35Z</time>
    <speed>14.665338</speed>
  </trkpt>
  <trkpt lat="6.010162" lon="-75.617252">
    <ele>2102</ele>
    <time>2014-06-16T11:49:37Z</time>
    <speed>14.856209</speed>
  </trkpt>
  <trkpt lat="6.009933" lon="-75.617396">
    <ele>2101</ele>
    <time>2014-06-16T11:49:39Z</time>
    <speed>13.740048</speed>
  </trkpt>
  <trkpt lat="6.009709" lon="-75.617477">
    <ele>2101</ele>
    <time>2014-06-16T11:49:41Z</time>
    <speed>13.476239</speed>
  </trkpt>
  <trkpt lat="6.009473" lon="-75.617438">
    <ele>2107</ele>
    <time>2014-06-16T11:49:43Z</time>
    <speed>13.803534</speed>
  </trkpt>
  <trkpt lat="6.009196" lon="-75.617368">
    <ele>2109</ele>
    <time>2014-06-16T11:49:45Z</time>
    <speed>14.379217</speed>
  </trkpt>
  <trkpt lat="6.008952" lon="-75.617284">
    <ele>2109</ele>
    <time>2014-06-16T11:49:47Z</time>
    <speed>14.358948</speed>
  </trkpt>
  <trkpt lat="6.008719" lon="-75.617194">
    <ele>2112</ele>
    <time>2014-06-16T11:49:49Z</time>
    <speed>14.6106615</speed>
  </trkpt>
  <trkpt lat="6.008491" lon="-75.617106">
    <ele>2112</ele>
    <time>2014-06-16T11:49:51Z</time>
    <speed>13.268283</speed>
  </trkpt>
  <trkpt lat="6.008265" lon="-75.617047">
    <ele>2114</ele>
    <time>2014-06-16T11:49:53Z</time>
    <speed>12.538353</speed>
  </trkpt>
  <trkpt lat="6.008050" lon="-75.617066">
    <ele>2113</ele>
    <time>2014-06-16T11:49:55Z</time>
    <speed>12.401915</speed>
  </trkpt>
  <trkpt lat="6.007846" lon="-75.617116">
    <ele>2115</ele>
    <time>2014-06-16T11:49:57Z</time>
    <speed>12.8352375</speed>
  </trkpt>
  <trkpt lat="6.007609" lon="-75.617084">
    <ele>2116</ele>
    <time>2014-06-16T11:49:59Z</time>
    <speed>12.234901</speed>
  </trkpt>
  <trkpt lat="6.007386" lon="-75.617031">
    <ele>2116</ele>
    <time>2014-06-16T11:50:01Z</time>
    <speed>12.605301</speed>
  </trkpt>
  <trkpt lat="6.007168" lon="-75.617019">
    <ele>2116</ele>
    <time>2014-06-16T11:50:03Z</time>
    <speed>11.820988</speed>
  </trkpt>
  <trkpt lat="6.006964" lon="-75.617044">
    <ele>2117</ele>
    <time>2014-06-16T11:50:05Z</time>
    <speed>11.175787</speed>
  </trkpt>
  <trkpt lat="6.006782" lon="-75.616956">
    <ele>2118</ele>
    <time>2014-06-16T11:50:07Z</time>
    <speed>11.2436905</speed>
  </trkpt>
  <trkpt lat="6.006684" lon="-75.616729">
    <ele>2120</ele>
    <time>2014-06-16T11:50:09Z</time>
    <speed>11.524794</speed>
  </trkpt>
  <trkpt lat="6.006632" lon="-75.616493">
    <ele>2122</ele>
    <time>2014-06-16T11:50:11Z</time>
    <speed>11.680415</speed>
  </trkpt>
  <trkpt lat="6.006468" lon="-75.616336">
    <ele>2126</ele>
    <time>2014-06-16T11:50:13Z</time>
    <speed>12.259032</speed>
  </trkpt>
  <trkpt lat="6.006268" lon="-75.616261">
    <ele>2126</ele>
    <time>2014-06-16T11:50:15Z</time>
    <speed>12.1493635</speed>
  </trkpt>
  <trkpt lat="6.006049" lon="-75.616242">
    <ele>2128</ele>
    <time>2014-06-16T11:50:17Z</time>
    <speed>12.863228</speed>
  </trkpt>
  <trkpt lat="6.005825" lon="-75.616232">
    <ele>2130</ele>
    <time>2014-06-16T11:50:19Z</time>
    <speed>11.822575</speed>
  </trkpt>
  <trkpt lat="6.005630" lon="-75.616127">
    <ele>2132</ele>
    <time>2014-06-16T11:50:21Z</time>
    <speed>13.556189</speed>
  </trkpt>
  <trkpt lat="6.005417" lon="-75.615997">
    <ele>2134</ele>
    <time>2014-06-16T11:50:23Z</time>
    <speed>13.867725</speed>
  </trkpt>
  <trkpt lat="6.005181" lon="-75.615857">
    <ele>2135</ele>
    <time>2014-06-16T11:50:25Z</time>
    <speed>14.727303</speed>
  </trkpt>
  <trkpt lat="6.004959" lon="-75.615693">
    <ele>2136</ele>
    <time>2014-06-16T11:50:27Z</time>
    <speed>15.3247385</speed>
  </trkpt>
  <trkpt lat="6.004770" lon="-75.615520">
    <ele>2138</ele>
    <time>2014-06-16T11:50:29Z</time>
    <speed>14.318044</speed>
  </trkpt>
  <trkpt lat="6.004582" lon="-75.615358">
    <ele>2138</ele>
    <time>2014-06-16T11:50:31Z</time>
    <speed>13.968304</speed>
  </trkpt>
  <trkpt lat="6.004356" lon="-75.615261">
    <ele>2140</ele>
    <time>2014-06-16T11:50:33Z</time>
    <speed>13.88035</speed>
  </trkpt>
  <trkpt lat="6.004119" lon="-75.615230">
    <ele>2138</ele>
    <time>2014-06-16T11:50:35Z</time>
    <speed>13.270494</speed>
  </trkpt>
  <trkpt lat="6.003868" lon="-75.615339">
    <ele>2137</ele>
    <time>2014-06-16T11:50:37Z</time>
    <speed>13.954559</speed>
  </trkpt>
  <trkpt lat="6.003677" lon="-75.615498">
    <ele>2136</ele>
    <time>2014-06-16T11:50:39Z</time>
    <speed>12.864372</speed>
  </trkpt>
  <trkpt lat="6.003447" lon="-75.615535">
    <ele>2137</ele>
    <time>2014-06-16T11:50:41Z</time>
    <speed>13.465645</speed>
  </trkpt>
  <trkpt lat="6.003246" lon="-75.615455">
    <ele>2141</ele>
    <time>2014-06-16T11:50:43Z</time>
    <speed>13.86134</speed>
  </trkpt>
  <trkpt lat="6.003003" lon="-75.615325">
    <ele>2141</ele>
    <time>2014-06-16T11:50:45Z</time>
    <speed>14.32714</speed>
  </trkpt>
  <trkpt lat="6.002719" lon="-75.615212">
    <ele>2144</ele>
    <time>2014-06-16T11:50:47Z</time>
    <speed>15.435003</speed>
  </trkpt>
  <trkpt lat="6.002447" lon="-75.615125">
    <ele>2144</ele>
    <time>2014-06-16T11:50:49Z</time>
    <speed>14.81864</speed>
  </trkpt>
  <trkpt lat="6.002209" lon="-75.615065">
    <ele>2144</ele>
    <time>2014-06-16T11:50:51Z</time>
    <speed>12.973731</speed>
  </trkpt>
  <trkpt lat="6.002008" lon="-75.615074">
    <ele>2146</ele>
    <time>2014-06-16T11:50:53Z</time>
    <speed>12.556165</speed>
  </trkpt>
  <trkpt lat="6.001839" lon="-75.615202">
    <ele>2149</ele>
    <time>2014-06-16T11:50:55Z</time>
    <speed>11.405728</speed>
  </trkpt>
  <trkpt lat="6.001651" lon="-75.615341">
    <ele>2152</ele>
    <time>2014-06-16T11:50:57Z</time>
    <speed>11.4143305</speed>
  </trkpt>
  <trkpt lat="6.001469" lon="-75.615479">
    <ele>2151</ele>
    <time>2014-06-16T11:50:59Z</time>
    <speed>10.6251745</speed>
  </trkpt>
  <trkpt lat="6.001295" lon="-75.615523">
    <ele>2153</ele>
    <time>2014-06-16T11:51:01Z</time>
    <speed>9.102704</speed>
  </trkpt>
  <trkpt lat="6.001230" lon="-75.615467">
    <ele>2152</ele>
    <time>2014-06-16T11:51:03Z</time>
    <speed>9.271283</speed>
  </trkpt>
  <trkpt lat="6.001167" lon="-75.615326">
    <ele>2154</ele>
    <time>2014-06-16T11:51:05Z</time>
    <speed>7.4444304</speed>
  </trkpt>
  <trkpt lat="6.001220" lon="-75.615157">
    <ele>2156</ele>
    <time>2014-06-16T11:51:07Z</time>
    <speed>8.728134</speed>
  </trkpt>
  <trkpt lat="6.001256" lon="-75.614979">
    <ele>2156</ele>
    <time>2014-06-16T11:51:09Z</time>
    <speed>8.252448</speed>
  </trkpt>
  <trkpt lat="6.001173" lon="-75.614872">
    <ele>2157</ele>
    <time>2014-06-16T11:51:11Z</time>
    <speed>8.2036495</speed>
  </trkpt>
  <trkpt lat="6.001022" lon="-75.614823">
    <ele>2158</ele>
    <time>2014-06-16T11:51:13Z</time>
    <speed>9.3474245</speed>
  </trkpt>
  <trkpt lat="6.000849" lon="-75.614768">
    <ele>2162</ele>
    <time>2014-06-16T11:51:15Z</time>
    <speed>10.505035</speed>
  </trkpt>
  <trkpt lat="6.000658" lon="-75.614685">
    <ele>2164</ele>
    <time>2014-06-16T11:51:17Z</time>
    <speed>10.972933</speed>
  </trkpt>
  <trkpt lat="6.000469" lon="-75.614606">
    <ele>2166</ele>
    <time>2014-06-16T11:51:19Z</time>
    <speed>11.092847</speed>
  </trkpt>
  <trkpt lat="6.000248" lon="-75.614558">
    <ele>2168</ele>
    <time>2014-06-16T11:51:21Z</time>
    <speed>12.004913</speed>
  </trkpt>
  <trkpt lat="5.999984" lon="-75.614531">
    <ele>2169</ele>
    <time>2014-06-16T11:51:23Z</time>
    <speed>12.927432</speed>
  </trkpt>
  <trkpt lat="5.999747" lon="-75.614474">
    <ele>2171</ele>
    <time>2014-06-16T11:51:25Z</time>
    <speed>12.159421</speed>
  </trkpt>
  <trkpt lat="5.999526" lon="-75.614375">
    <ele>2173</ele>
    <time>2014-06-16T11:51:27Z</time>
    <speed>12.415363</speed>
  </trkpt>
  <trkpt lat="5.999310" lon="-75.614273">
    <ele>2176</ele>
    <time>2014-06-16T11:51:29Z</time>
    <speed>13.150184</speed>
  </trkpt>
  <trkpt lat="5.999094" lon="-75.614161">
    <ele>2177</ele>
    <time>2014-06-16T11:51:31Z</time>
    <speed>13.308865</speed>
  </trkpt>
  <trkpt lat="5.998880" lon="-75.614049">
    <ele>2179</ele>
    <time>2014-06-16T11:51:33Z</time>
    <speed>12.941831</speed>
  </trkpt>
  <trkpt lat="5.998689" lon="-75.613975">
    <ele>2179</ele>
    <time>2014-06-16T11:51:35Z</time>
    <speed>11.260217</speed>
  </trkpt>
  <trkpt lat="5.998494" lon="-75.613978">
    <ele>2181</ele>
    <time>2014-06-16T11:51:37Z</time>
    <speed>11.046945</speed>
  </trkpt>
  <trkpt lat="5.998313" lon="-75.614042">
    <ele>2179</ele>
    <time>2014-06-16T11:51:39Z</time>
    <speed>9.544625</speed>
  </trkpt>
  <trkpt lat="5.998202" lon="-75.614113">
    <ele>2180</ele>
    <time>2014-06-16T11:51:41Z</time>
    <speed>6.457578</speed>
  </trkpt>
  <trkpt lat="5.998116" lon="-75.614172">
    <ele>2179</ele>
    <time>2014-06-16T11:51:43Z</time>
    <speed>5.457508</speed>
  </trkpt>
  <trkpt lat="5.998025" lon="-75.614215">
    <ele>2181</ele>
    <time>2014-06-16T11:51:45Z</time>
    <speed>4.3579874</speed>
  </trkpt>
  <trkpt lat="5.997916" lon="-75.614228">
    <ele>2182</ele>
    <time>2014-06-16T11:51:47Z</time>
    <speed>4.2401495</speed>
  </trkpt>
  <trkpt lat="5.997841" lon="-75.614221">
    <ele>2182</ele>
    <time>2014-06-16T11:51:49Z</time>
    <speed>4.2991853</speed>
  </trkpt>
  <trkpt lat="5.997788" lon="-75.614218">
    <ele>2182</ele>
    <time>2014-06-16T11:51:51Z</time>
    <speed>3.2682662</speed>
  </trkpt>
  <trkpt lat="5.997732" lon="-75.614236">
    <ele>2182</ele>
    <time>2014-06-16T11:51:53Z</time>
    <speed>2.4036589</speed>
  </trkpt>
  <trkpt lat="5.997673" lon="-75.614250">
    <ele>2183</ele>
    <time>2014-06-16T11:51:55Z</time>
    <speed>3.1150813</speed>
  </trkpt>
  <trkpt lat="5.997609" lon="-75.614287">
    <ele>2184</ele>
    <time>2014-06-16T11:51:57Z</time>
    <speed>3.703989</speed>
  </trkpt>
  <trkpt lat="5.997562" lon="-75.614337">
    <ele>2184</ele>
    <time>2014-06-16T11:51:59Z</time>
    <speed>4.277816</speed>
  </trkpt>
  <trkpt lat="5.997510" lon="-75.614385">
    <ele>2184</ele>
    <time>2014-06-16T11:52:01Z</time>
    <speed>4.1856318</speed>
  </trkpt>
  <trkpt lat="5.997454" lon="-75.614433">
    <ele>2184</ele>
    <time>2014-06-16T11:52:03Z</time>
    <speed>4.07179</speed>
  </trkpt>
  <trkpt lat="5.997385" lon="-75.614483">
    <ele>2186</ele>
    <time>2014-06-16T11:52:05Z</time>
    <speed>4.0554166</speed>
  </trkpt>
  <trkpt lat="5.997310" lon="-75.614527">
    <ele>2187</ele>
    <time>2014-06-16T11:52:07Z</time>
    <speed>3.6137514</speed>
  </trkpt>
  <trkpt lat="5.997234" lon="-75.614541">
    <ele>2186</ele>
    <time>2014-06-16T11:52:09Z</time>
    <speed>3.970808</speed>
  </trkpt>
  <trkpt lat="5.997169" lon="-75.614551">
    <ele>2188</ele>
    <time>2014-06-16T11:52:11Z</time>
    <speed>3.6040578</speed>
  </trkpt>
  <trkpt lat="5.997108" lon="-75.614553">
    <ele>2188</ele>
    <time>2014-06-16T11:52:13Z</time>
    <speed>3.2533104</speed>
  </trkpt>
  <trkpt lat="5.997047" lon="-75.614553">
    <ele>2188</ele>
    <time>2014-06-16T11:52:15Z</time>
    <speed>3.314889</speed>
  </trkpt>
  <trkpt lat="5.996970" lon="-75.614549">
    <ele>2188</ele>
    <time>2014-06-16T11:52:17Z</time>
    <speed>3.3910837</speed>
  </trkpt>
  <trkpt lat="5.996894" lon="-75.614547">
    <ele>2189</ele>
    <time>2014-06-16T11:52:19Z</time>
    <speed>3.3318906</speed>
  </trkpt>
  <trkpt lat="5.996825" lon="-75.614540">
    <ele>2190</ele>
    <time>2014-06-16T11:52:21Z</time>
    <speed>3.142136</speed>
  </trkpt>
  <trkpt lat="5.996774" lon="-75.614521">
    <ele>2191</ele>
    <time>2014-06-16T11:52:23Z</time>
    <speed>2.7197537</speed>
  </trkpt>
  <trkpt lat="5.996709" lon="-75.614496">
    <ele>2192</ele>
    <time>2014-06-16T11:52:25Z</time>
    <speed>3.3571029</speed>
  </trkpt>
  <trkpt lat="5.996681" lon="-75.614458">
    <ele>2192</ele>
    <time>2014-06-16T11:52:27Z</time>
    <speed>2.059637</speed>
  </trkpt>
  <trkpt lat="5.996656" lon="-75.614405">
    <ele>2192</ele>
    <time>2014-06-16T11:52:29Z</time>
    <speed>2.8075964</speed>
  </trkpt>
  <trkpt lat="5.996678" lon="-75.614320">
    <ele>2193</ele>
    <time>2014-06-16T11:52:31Z</time>
    <speed>1.8843914</speed>
  </trkpt>
  <trkpt lat="5.996732" lon="-75.614236">
    <ele>2192</ele>
    <time>2014-06-16T11:52:33Z</time>
    <speed>2.7979834</speed>
  </trkpt>
  <trkpt lat="5.996820" lon="-75.614186">
    <ele>2194</ele>
    <time>2014-06-16T11:52:35Z</time>
    <speed>2.5528786</speed>
  </trkpt>
  <trkpt lat="5.996908" lon="-75.614148">
    <ele>2194</ele>
    <time>2014-06-16T11:52:37Z</time>
    <speed>3.5132039</speed>
  </trkpt>
  <trkpt lat="5.996989" lon="-75.614111">
    <ele>2196</ele>
    <time>2014-06-16T11:52:39Z</time>
    <speed>3.5719037</speed>
  </trkpt>
  <trkpt lat="5.997068" lon="-75.614089">
    <ele>2197</ele>
    <time>2014-06-16T11:52:41Z</time>
    <speed>3.3781486</speed>
  </trkpt>
  <trkpt lat="5.997137" lon="-75.614058">
    <ele>2198</ele>
    <time>2014-06-16T11:52:43Z</time>
    <speed>2.9855802</speed>
  </trkpt>
  <trkpt lat="5.997190" lon="-75.614009">
    <ele>2199</ele>
    <time>2014-06-16T11:52:45Z</time>
    <speed>3.2041416</speed>
  </trkpt>
  <trkpt lat="5.997225" lon="-75.613948">
    <ele>2199</ele>
    <time>2014-06-16T11:52:47Z</time>
    <speed>3.6022406</speed>
  </trkpt>
  <trkpt lat="5.997243" lon="-75.613893">
    <ele>2200</ele>
    <time>2014-06-16T11:52:49Z</time>
    <speed>3.8771656</speed>
  </trkpt>
  <trkpt lat="5.997257" lon="-75.613836">
    <ele>2200</ele>
    <time>2014-06-16T11:52:51Z</time>
    <speed>2.800621</speed>
  </trkpt>
  <trkpt lat="5.997262" lon="-75.613771">
    <ele>2200</ele>
    <time>2014-06-16T11:52:53Z</time>
    <speed>3.4512002</speed>
  </trkpt>
  <trkpt lat="5.997252" lon="-75.613713">
    <ele>2201</ele>
    <time>2014-06-16T11:52:55Z</time>
    <speed>3.69547</speed>
  </trkpt>
  <trkpt lat="5.997232" lon="-75.613653">
    <ele>2202</ele>
    <time>2014-06-16T11:52:57Z</time>
    <speed>3.9075642</speed>
  </trkpt>
  <trkpt lat="5.997193" lon="-75.613602">
    <ele>2203</ele>
    <time>2014-06-16T11:52:59Z</time>
    <speed>3.8271563</speed>
  </trkpt>
  <trkpt lat="5.997121" lon="-75.613555">
    <ele>2204</ele>
    <time>2014-06-16T11:53:01Z</time>
    <speed>4.434186</speed>
  </trkpt>
  <trkpt lat="5.997036" lon="-75.613533">
    <ele>2205</ele>
    <time>2014-06-16T11:53:03Z</time>
    <speed>5.6772294</speed>
  </trkpt>
  <trkpt lat="5.996945" lon="-75.613513">
    <ele>2207</ele>
    <time>2014-06-16T11:53:05Z</time>
    <speed>5.5551925</speed>
  </trkpt>
  <trkpt lat="5.996788" lon="-75.613473">
    <ele>2209</ele>
    <time>2014-06-16T11:53:07Z</time>
    <speed>7.4520135</speed>
  </trkpt>
  <trkpt lat="5.996608" lon="-75.613396">
    <ele>2211</ele>
    <time>2014-06-16T11:53:09Z</time>
    <speed>9.139779</speed>
  </trkpt>
  <trkpt lat="5.996449" lon="-75.613316">
    <ele>2211</ele>
    <time>2014-06-16T11:53:11Z</time>
    <speed>8.169384</speed>
  </trkpt>
  <trkpt lat="5.996315" lon="-75.613293">
    <ele>2209</ele>
    <time>2014-06-16T11:53:13Z</time>
    <speed>6.5027366</speed>
  </trkpt>
  <trkpt lat="5.996212" lon="-75.613283">
    <ele>2211</ele>
    <time>2014-06-16T11:53:15Z</time>
    <speed>5.931436</speed>
  </trkpt>
  <trkpt lat="5.996089" lon="-75.613275">
    <ele>2214</ele>
    <time>2014-06-16T11:53:17Z</time>
    <speed>7.2228956</speed>
  </trkpt>
  <trkpt lat="5.995935" lon="-75.613271">
    <ele>2215</ele>
    <time>2014-06-16T11:53:19Z</time>
    <speed>8.563799</speed>
  </trkpt>
  <trkpt lat="5.995746" lon="-75.613218">
    <ele>2217</ele>
    <time>2014-06-16T11:53:21Z</time>
    <speed>10.409053</speed>
  </trkpt>
  <trkpt lat="5.995563" lon="-75.613110">
    <ele>2219</ele>
    <time>2014-06-16T11:53:23Z</time>
    <speed>11.740051</speed>
  </trkpt>
  <trkpt lat="5.995355" lon="-75.612977">
    <ele>2223</ele>
    <time>2014-06-16T11:53:25Z</time>
    <speed>13.644296</speed>
  </trkpt>
  <trkpt lat="5.995140" lon="-75.612862">
    <ele>2226</ele>
    <time>2014-06-16T11:53:27Z</time>
    <speed>13.57836</speed>
  </trkpt>
  <trkpt lat="5.994921" lon="-75.612747">
    <ele>2226</ele>
    <time>2014-06-16T11:53:29Z</time>
    <speed>13.400375</speed>
  </trkpt>
  <trkpt lat="5.994725" lon="-75.612628">
    <ele>2230</ele>
    <time>2014-06-16T11:53:31Z</time>
    <speed>13.110282</speed>
  </trkpt>
  <trkpt lat="5.994509" lon="-75.612502">
    <ele>2230</ele>
    <time>2014-06-16T11:53:33Z</time>
    <speed>13.509126</speed>
  </trkpt>
  <trkpt lat="5.994280" lon="-75.612390">
    <ele>2233</ele>
    <time>2014-06-16T11:53:35Z</time>
    <speed>14.109005</speed>
  </trkpt>
  <trkpt lat="5.994048" lon="-75.612283">
    <ele>2236</ele>
    <time>2014-06-16T11:53:37Z</time>
    <speed>13.803094</speed>
  </trkpt>
  <trkpt lat="5.993816" lon="-75.612155">
    <ele>2238</ele>
    <time>2014-06-16T11:53:39Z</time>
    <speed>13.855855</speed>
  </trkpt>
  <trkpt lat="5.993603" lon="-75.612026">
    <ele>2240</ele>
    <time>2014-06-16T11:53:41Z</time>
    <speed>13.525078</speed>
  </trkpt>
  <trkpt lat="5.993395" lon="-75.611915">
    <ele>2239</ele>
    <time>2014-06-16T11:53:43Z</time>
    <speed>12.504608</speed>
  </trkpt>
  <trkpt lat="5.993214" lon="-75.611834">
    <ele>2239</ele>
    <time>2014-06-16T11:53:45Z</time>
    <speed>10.812809</speed>
  </trkpt>
  <trkpt lat="5.993054" lon="-75.611778">
    <ele>2241</ele>
    <time>2014-06-16T11:53:47Z</time>
    <speed>9.66092</speed>
  </trkpt>
  <trkpt lat="5.992897" lon="-75.611768">
    <ele>2242</ele>
    <time>2014-06-16T11:53:49Z</time>
    <speed>8.366735</speed>
  </trkpt>
  <trkpt lat="5.992757" lon="-75.611843">
    <ele>2243</ele>
    <time>2014-06-16T11:53:51Z</time>
    <speed>8.236076</speed>
  </trkpt>
  <trkpt lat="5.992665" lon="-75.611965">
    <ele>2243</ele>
    <time>2014-06-16T11:53:53Z</time>
    <speed>7.947827</speed>
  </trkpt>
  <trkpt lat="5.992561" lon="-75.612121">
    <ele>2247</ele>
    <time>2014-06-16T11:53:55Z</time>
    <speed>8.7577505</speed>
  </trkpt>
  <trkpt lat="5.992464" lon="-75.612270">
    <ele>2246</ele>
    <time>2014-06-16T11:53:57Z</time>
    <speed>8.206837</speed>
  </trkpt>
  <trkpt lat="5.992397" lon="-75.612367">
    <ele>2247</ele>
    <time>2014-06-16T11:53:59Z</time>
    <speed>5.835388</speed>
  </trkpt>
  <trkpt lat="5.992358" lon="-75.612412">
    <ele>2247</ele>
    <time>2014-06-16T11:54:01Z</time>
    <speed>2.0545263</speed>
  </trkpt>
  <trkpt lat="5.992306" lon="-75.612447">
    <ele>2248</ele>
    <time>2014-06-16T11:54:10Z</time>
    <speed>1.9319422</speed>
  </trkpt>
  <trkpt lat="5.992216" lon="-75.612461">
    <ele>2248</ele>
    <time>2014-06-16T11:54:12Z</time>
    <speed>5.07049</speed>
  </trkpt>
  <trkpt lat="5.992117" lon="-75.612422">
    <ele>2250</ele>
    <time>2014-06-16T11:54:14Z</time>
    <speed>5.452189</speed>
  </trkpt>
  <trkpt lat="5.992013" lon="-75.612324">
    <ele>2252</ele>
    <time>2014-06-16T11:54:16Z</time>
    <speed>6.2822967</speed>
  </trkpt>
  <trkpt lat="5.991984" lon="-75.612223">
    <ele>2251</ele>
    <time>2014-06-16T11:54:18Z</time>
    <speed>5.8418407</speed>
  </trkpt>
  <trkpt lat="5.992035" lon="-75.612101">
    <ele>2253</ele>
    <time>2014-06-16T11:54:20Z</time>
    <speed>7.173592</speed>
  </trkpt>
  <trkpt lat="5.992120" lon="-75.611956">
    <ele>2255</ele>
    <time>2014-06-16T11:54:22Z</time>
    <speed>8.073701</speed>
  </trkpt>
  <trkpt lat="5.992136" lon="-75.611789">
    <ele>2257</ele>
    <time>2014-06-16T11:54:24Z</time>
    <speed>8.039555</speed>
  </trkpt>
  <trkpt lat="5.992081" lon="-75.611642">
    <ele>2261</ele>
    <time>2014-06-16T11:54:26Z</time>
    <speed>8.636078</speed>
  </trkpt>
  <trkpt lat="5.991972" lon="-75.611537">
    <ele>2262</ele>
    <time>2014-06-16T11:54:28Z</time>
    <speed>9.004277</speed>
  </trkpt>
  <trkpt lat="5.991829" lon="-75.611448">
    <ele>2262</ele>
    <time>2014-06-16T11:54:30Z</time>
    <speed>9.747423</speed>
  </trkpt>
  <trkpt lat="5.991661" lon="-75.611365">
    <ele>2265</ele>
    <time>2014-06-16T11:54:32Z</time>
    <speed>9.971685</speed>
  </trkpt>
  <trkpt lat="5.991466" lon="-75.611293">
    <ele>2266</ele>
    <time>2014-06-16T11:54:34Z</time>
    <speed>10.857212</speed>
  </trkpt>
  <trkpt lat="5.991263" lon="-75.611237">
    <ele>2268</ele>
    <time>2014-06-16T11:54:36Z</time>
    <speed>11.132916</speed>
  </trkpt>
  <trkpt lat="5.991049" lon="-75.611197">
    <ele>2270</ele>
    <time>2014-06-16T11:54:38Z</time>
    <speed>11.550033</speed>
  </trkpt>
  <trkpt lat="5.990816" lon="-75.611162">
    <ele>2270</ele>
    <time>2014-06-16T11:54:40Z</time>
    <speed>11.573197</speed>
  </trkpt>
  <trkpt lat="5.990594" lon="-75.611125">
    <ele>2272</ele>
    <time>2014-06-16T11:54:42Z</time>
    <speed>11.410707</speed>
  </trkpt>
  <trkpt lat="5.990381" lon="-75.611094">
    <ele>2274</ele>
    <time>2014-06-16T11:54:44Z</time>
    <speed>11.293679</speed>
  </trkpt>
  <trkpt lat="5.990156" lon="-75.611073">
    <ele>2276</ele>
    <time>2014-06-16T11:54:46Z</time>
    <speed>12.03675</speed>
  </trkpt>
  <trkpt lat="5.989943" lon="-75.611044">
    <ele>2277</ele>
    <time>2014-06-16T11:54:48Z</time>
    <speed>11.407584</speed>
  </trkpt>
  <trkpt lat="5.989771" lon="-75.610976">
    <ele>2278</ele>
    <time>2014-06-16T11:54:50Z</time>
    <speed>10.67694</speed>
  </trkpt>
  <trkpt lat="5.989575" lon="-75.610912">
    <ele>2281</ele>
    <time>2014-06-16T11:54:52Z</time>
    <speed>10.78419</speed>
  </trkpt>
  <trkpt lat="5.989382" lon="-75.610940">
    <ele>2283</ele>
    <time>2014-06-16T11:54:54Z</time>
    <speed>10.834366</speed>
  </trkpt>
  <trkpt lat="5.989181" lon="-75.611025">
    <ele>2286</ele>
    <time>2014-06-16T11:54:56Z</time>
    <speed>11.958154</speed>
  </trkpt>
  <trkpt lat="5.988990" lon="-75.611138">
    <ele>2287</ele>
    <time>2014-06-16T11:54:58Z</time>
    <speed>11.733416</speed>
  </trkpt>
  <trkpt lat="5.988862" lon="-75.611292">
    <ele>2287</ele>
    <time>2014-06-16T11:55:00Z</time>
    <speed>10.649039</speed>
  </trkpt>
  <trkpt lat="5.988753" lon="-75.611459">
    <ele>2289</ele>
    <time>2014-06-16T11:55:02Z</time>
    <speed>9.931722</speed>
  </trkpt>
  <trkpt lat="5.988638" lon="-75.611608">
    <ele>2290</ele>
    <time>2014-06-16T11:55:04Z</time>
    <speed>8.209131</speed>
  </trkpt>
  <trkpt lat="5.988500" lon="-75.611619">
    <ele>2291</ele>
    <time>2014-06-16T11:55:06Z</time>
    <speed>7.194386</speed>
  </trkpt>
  <trkpt lat="5.988419" lon="-75.611518">
    <ele>2293</ele>
    <time>2014-06-16T11:55:08Z</time>
    <speed>8.675189</speed>
  </trkpt>
  <trkpt lat="5.988395" lon="-75.611358">
    <ele>2294</ele>
    <time>2014-06-16T11:55:10Z</time>
    <speed>8.537155</speed>
  </trkpt>
  <trkpt lat="5.988381" lon="-75.611166">
    <ele>2296</ele>
    <time>2014-06-16T11:55:12Z</time>
    <speed>9.539914</speed>
  </trkpt>
  <trkpt lat="5.988315" lon="-75.610989">
    <ele>2297</ele>
    <time>2014-06-16T11:55:14Z</time>
    <speed>9.569544</speed>
  </trkpt>
  <trkpt lat="5.988247" lon="-75.610823">
    <ele>2299</ele>
    <time>2014-06-16T11:55:16Z</time>
    <speed>9.700402</speed>
  </trkpt>
  <trkpt lat="5.988166" lon="-75.610668">
    <ele>2303</ele>
    <time>2014-06-16T11:55:18Z</time>
    <speed>9.133065</speed>
  </trkpt>
  <trkpt lat="5.988029" lon="-75.610565">
    <ele>2304</ele>
    <time>2014-06-16T11:55:20Z</time>
    <speed>9.300722</speed>
  </trkpt>
  <trkpt lat="5.987870" lon="-75.610507">
    <ele>2306</ele>
    <time>2014-06-16T11:55:22Z</time>
    <speed>9.185094</speed>
  </trkpt>
  <trkpt lat="5.987698" lon="-75.610459">
    <ele>2308</ele>
    <time>2014-06-16T11:55:24Z</time>
    <speed>9.939083</speed>
  </trkpt>
  <trkpt lat="5.987521" lon="-75.610340">
    <ele>2311</ele>
    <time>2014-06-16T11:55:26Z</time>
    <speed>11.328488</speed>
  </trkpt>
  <trkpt lat="5.987357" lon="-75.610197">
    <ele>2313</ele>
    <time>2014-06-16T11:55:28Z</time>
    <speed>11.929838</speed>
  </trkpt>
  <trkpt lat="5.987201" lon="-75.610069">
    <ele>2314</ele>
    <time>2014-06-16T11:55:30Z</time>
    <speed>11.287653</speed>
  </trkpt>
  <trkpt lat="5.987020" lon="-75.610005">
    <ele>2313</ele>
    <time>2014-06-16T11:55:32Z</time>
    <speed>9.267323</speed>
  </trkpt>
  <trkpt lat="5.986874" lon="-75.609964">
    <ele>2317</ele>
    <time>2014-06-16T11:55:34Z</time>
    <speed>7.8326383</speed>
  </trkpt>
  <trkpt lat="5.986739" lon="-75.609926">
    <ele>2315</ele>
    <time>2014-06-16T11:55:36Z</time>
    <speed>7.809138</speed>
  </trkpt>
  <trkpt lat="5.986605" lon="-75.609894">
    <ele>2317</ele>
    <time>2014-06-16T11:55:38Z</time>
    <speed>7.3603992</speed>
  </trkpt>
  <trkpt lat="5.986483" lon="-75.609877">
    <ele>2317</ele>
    <time>2014-06-16T11:55:40Z</time>
    <speed>6.9540367</speed>
  </trkpt>
  <trkpt lat="5.986353" lon="-75.609875">
    <ele>2319</ele>
    <time>2014-06-16T11:55:42Z</time>
    <speed>7.2291574</speed>
  </trkpt>
  <trkpt lat="5.986217" lon="-75.609884">
    <ele>2319</ele>
    <time>2014-06-16T11:55:44Z</time>
    <speed>7.4482875</speed>
  </trkpt>
  <trkpt lat="5.986104" lon="-75.609839">
    <ele>2320</ele>
    <time>2014-06-16T11:55:46Z</time>
    <speed>7.048333</speed>
  </trkpt>
  <trkpt lat="5.986010" lon="-75.609718">
    <ele>2323</ele>
    <time>2014-06-16T11:55:48Z</time>
    <speed>6.7456946</speed>
  </trkpt>
  <trkpt lat="5.985961" lon="-75.609593">
    <ele>2323</ele>
    <time>2014-06-16T11:55:50Z</time>
    <speed>6.4982805</speed>
  </trkpt>
  <trkpt lat="5.985929" lon="-75.609454">
    <ele>2324</ele>
    <time>2014-06-16T11:55:52Z</time>
    <speed>7.5354204</speed>
  </trkpt>
  <trkpt lat="5.985881" lon="-75.609323">
    <ele>2326</ele>
    <time>2014-06-16T11:55:54Z</time>
    <speed>8.247555</speed>
  </trkpt>
  <trkpt lat="5.985760" lon="-75.609180">
    <ele>2330</ele>
    <time>2014-06-16T11:55:56Z</time>
    <speed>10.9358635</speed>
  </trkpt>
  <trkpt lat="5.985611" lon="-75.609029">
    <ele>2333</ele>
    <time>2014-06-16T11:55:58Z</time>
    <speed>11.855506</speed>
  </trkpt>
  <trkpt lat="5.985452" lon="-75.608893">
    <ele>2335</ele>
    <time>2014-06-16T11:56:00Z</time>
    <speed>11.676567</speed>
  </trkpt>
  <trkpt lat="5.985255" lon="-75.608804">
    <ele>2335</ele>
    <time>2014-06-16T11:56:02Z</time>
    <speed>11.447898</speed>
  </trkpt>
  <trkpt lat="5.985067" lon="-75.608713">
    <ele>2337</ele>
    <time>2014-06-16T11:56:04Z</time>
    <speed>10.935355</speed>
  </trkpt>
  <trkpt lat="5.984963" lon="-75.608579">
    <ele>2338</ele>
    <time>2014-06-16T11:56:06Z</time>
    <speed>9.398711</speed>
  </trkpt>
  <trkpt lat="5.984915" lon="-75.608424">
    <ele>2339</ele>
    <time>2014-06-16T11:56:08Z</time>
    <speed>8.703635</speed>
  </trkpt>
  <trkpt lat="5.984886" lon="-75.608276">
    <ele>2339</ele>
    <time>2014-06-16T11:56:10Z</time>
    <speed>7.9017286</speed>
  </trkpt>
  <trkpt lat="5.984873" lon="-75.608133">
    <ele>2339</ele>
    <time>2014-06-16T11:56:12Z</time>
    <speed>7.756063</speed>
  </trkpt>
  <trkpt lat="5.984866" lon="-75.607989">
    <ele>2338</ele>
    <time>2014-06-16T11:56:14Z</time>
    <speed>7.967418</speed>
  </trkpt>
  <trkpt lat="5.984884" lon="-75.607841">
    <ele>2337</ele>
    <time>2014-06-16T11:56:16Z</time>
    <speed>7.514826</speed>
  </trkpt>
  <trkpt lat="5.984944" lon="-75.607714">
    <ele>2336</ele>
    <time>2014-06-16T11:56:18Z</time>
    <speed>7.863084</speed>
  </trkpt>
  <trkpt lat="5.985033" lon="-75.607596">
    <ele>2333</ele>
    <time>2014-06-16T11:56:20Z</time>
    <speed>7.1989512</speed>
  </trkpt>
  <trkpt lat="5.985120" lon="-75.607474">
    <ele>2333</ele>
    <time>2014-06-16T11:56:22Z</time>
    <speed>7.50221</speed>
  </trkpt>
  <trkpt lat="5.985152" lon="-75.607363">
    <ele>2331</ele>
    <time>2014-06-16T11:56:24Z</time>
    <speed>5.9205337</speed>
  </trkpt>
  <trkpt lat="5.985168" lon="-75.607268">
    <ele>2330</ele>
    <time>2014-06-16T11:56:26Z</time>
    <speed>5.2580953</speed>
  </trkpt>
  <trkpt lat="5.985186" lon="-75.607173">
    <ele>2331</ele>
    <time>2014-06-16T11:56:28Z</time>
    <speed>5.463723</speed>
  </trkpt>
  <trkpt lat="5.985232" lon="-75.607087">
    <ele>2329</ele>
    <time>2014-06-16T11:56:30Z</time>
    <speed>5.1910224</speed>
  </trkpt>
  <trkpt lat="5.985288" lon="-75.606991">
    <ele>2328</ele>
    <time>2014-06-16T11:56:32Z</time>
    <speed>5.0185556</speed>
  </trkpt>
  <trkpt lat="5.985345" lon="-75.606897">
    <ele>2327</ele>
    <time>2014-06-16T11:56:34Z</time>
    <speed>4.5864515</speed>
  </trkpt>
  <trkpt lat="5.985391" lon="-75.606830">
    <ele>2325</ele>
    <time>2014-06-16T11:56:36Z</time>
    <speed>3.8708959</speed>
  </trkpt>
  <trkpt lat="5.985446" lon="-75.606757">
    <ele>2325</ele>
    <time>2014-06-16T11:56:38Z</time>
    <speed>5.1290936</speed>
  </trkpt>
  <trkpt lat="5.985544" lon="-75.606681">
    <ele>2324</ele>
    <time>2014-06-16T11:56:40Z</time>
    <speed>5.2824326</speed>
  </trkpt>
  <trkpt lat="5.985662" lon="-75.606654">
    <ele>2323</ele>
    <time>2014-06-16T11:56:42Z</time>
    <speed>4.8665924</speed>
  </trkpt>
  <trkpt lat="5.985763" lon="-75.606652">
    <ele>2323</ele>
    <time>2014-06-16T11:56:44Z</time>
    <speed>4.879574</speed>
  </trkpt>
  <trkpt lat="5.985870" lon="-75.606669">
    <ele>2323</ele>
    <time>2014-06-16T11:56:46Z</time>
    <speed>5.0194764</speed>
  </trkpt>
  <trkpt lat="5.985962" lon="-75.606688">
    <ele>2321</ele>
    <time>2014-06-16T11:56:48Z</time>
    <speed>5.1526456</speed>
  </trkpt>
  <trkpt lat="5.986052" lon="-75.606693">
    <ele>2321</ele>
    <time>2014-06-16T11:56:50Z</time>
    <speed>4.706273</speed>
  </trkpt>
  <trkpt lat="5.986127" lon="-75.606669">
    <ele>2320</ele>
    <time>2014-06-16T11:56:52Z</time>
    <speed>4.2935476</speed>
  </trkpt>
  <trkpt lat="5.986186" lon="-75.606620">
    <ele>2320</ele>
    <time>2014-06-16T11:56:54Z</time>
    <speed>4.152778</speed>
  </trkpt>
  <trkpt lat="5.986232" lon="-75.606549">
    <ele>2319</ele>
    <time>2014-06-16T11:56:56Z</time>
    <speed>4.8118258</speed>
  </trkpt>
  <trkpt lat="5.986274" lon="-75.606477">
    <ele>2319</ele>
    <time>2014-06-16T11:56:58Z</time>
    <speed>4.7523165</speed>
  </trkpt>
  <trkpt lat="5.986317" lon="-75.606406">
    <ele>2318</ele>
    <time>2014-06-16T11:57:00Z</time>
    <speed>3.864921</speed>
  </trkpt>
  <trkpt lat="5.986351" lon="-75.606346">
    <ele>2316</ele>
    <time>2014-06-16T11:57:02Z</time>
    <speed>3.2129328</speed>
  </trkpt>
  <trkpt lat="5.986375" lon="-75.606297">
    <ele>2317</ele>
    <time>2014-06-16T11:57:04Z</time>
    <speed>2.487801</speed>
  </trkpt>
  <trkpt lat="5.986400" lon="-75.606243">
    <ele>2316</ele>
    <time>2014-06-16T11:57:06Z</time>
    <speed>3.1386294</speed>
  </trkpt>
  <trkpt lat="5.986431" lon="-75.606178">
    <ele>2316</ele>
    <time>2014-06-16T11:57:08Z</time>
    <speed>3.4572308</speed>
  </trkpt>
  <trkpt lat="5.986449" lon="-75.606111">
    <ele>2316</ele>
    <time>2014-06-16T11:57:10Z</time>
    <speed>3.3819897</speed>
  </trkpt>
  <trkpt lat="5.986433" lon="-75.606046">
    <ele>2314</ele>
    <time>2014-06-16T11:57:12Z</time>
    <speed>3.6145692</speed>
  </trkpt>
  <trkpt lat="5.986378" lon="-75.605978">
    <ele>2312</ele>
    <time>2014-06-16T11:57:14Z</time>
    <speed>4.7584906</speed>
  </trkpt>
  <trkpt lat="5.986275" lon="-75.605964">
    <ele>2312</ele>
    <time>2014-06-16T11:57:16Z</time>
    <speed>5.468022</speed>
  </trkpt>
  <trkpt lat="5.986155" lon="-75.605973">
    <ele>2312</ele>
    <time>2014-06-16T11:57:18Z</time>
    <speed>6.419618</speed>
  </trkpt>
  <trkpt lat="5.986039" lon="-75.605986">
    <ele>2310</ele>
    <time>2014-06-16T11:57:20Z</time>
    <speed>6.1143074</speed>
  </trkpt>
  <trkpt lat="5.985926" lon="-75.605977">
    <ele>2310</ele>
    <time>2014-06-16T11:57:22Z</time>
    <speed>5.2411017</speed>
  </trkpt>
  <trkpt lat="5.985822" lon="-75.605950">
    <ele>2309</ele>
    <time>2014-06-16T11:57:24Z</time>
    <speed>5.6373496</speed>
  </trkpt>
  <trkpt lat="5.985737" lon="-75.605900">
    <ele>2308</ele>
    <time>2014-06-16T11:57:26Z</time>
    <speed>5.112568</speed>
  </trkpt>
  <trkpt lat="5.985651" lon="-75.605844">
    <ele>2307</ele>
    <time>2014-06-16T11:57:28Z</time>
    <speed>5.754897</speed>
  </trkpt>
  <trkpt lat="5.985564" lon="-75.605782">
    <ele>2306</ele>
    <time>2014-06-16T11:57:30Z</time>
    <speed>5.376387</speed>
  </trkpt>
  <trkpt lat="5.985484" lon="-75.605714">
    <ele>2304</ele>
    <time>2014-06-16T11:57:32Z</time>
    <speed>5.7506766</speed>
  </trkpt>
  <trkpt lat="5.985412" lon="-75.605637">
    <ele>2303</ele>
    <time>2014-06-16T11:57:34Z</time>
    <speed>4.812144</speed>
  </trkpt>
  <trkpt lat="5.985378" lon="-75.605554">
    <ele>2303</ele>
    <time>2014-06-16T11:57:36Z</time>
    <speed>4.372786</speed>
  </trkpt>
  <trkpt lat="5.985367" lon="-75.605469">
    <ele>2302</ele>
    <time>2014-06-16T11:57:38Z</time>
    <speed>4.2371764</speed>
  </trkpt>
  <trkpt lat="5.985364" lon="-75.605370">
    <ele>2303</ele>
    <time>2014-06-16T11:57:40Z</time>
    <speed>4.5915856</speed>
  </trkpt>
  <trkpt lat="5.985373" lon="-75.605275">
    <ele>2301</ele>
    <time>2014-06-16T11:57:42Z</time>
    <speed>4.379087</speed>
  </trkpt>
  <trkpt lat="5.985385" lon="-75.605179">
    <ele>2301</ele>
    <time>2014-06-16T11:57:44Z</time>
    <speed>3.297082</speed>
  </trkpt>
  <trkpt lat="5.985392" lon="-75.605102">
    <ele>2300</ele>
    <time>2014-06-16T11:57:46Z</time>
    <speed>3.1607323</speed>
  </trkpt>
  <trkpt lat="5.985376" lon="-75.605050">
    <ele>2299</ele>
    <time>2014-06-16T11:57:48Z</time>
    <speed>1.9024001</speed>
  </trkpt>
  <trkpt lat="5.985343" lon="-75.605016">
    <ele>2299</ele>
    <time>2014-06-16T11:58:01Z</time>
    <speed>0.0</speed>
  </trkpt>
  <trkpt lat="5.985281" lon="-75.605011">
    <ele>2299</ele>
    <time>2014-06-16T11:58:03Z</time>
    <speed>3.4117625</speed>
  </trkpt>
  <trkpt lat="5.985201" lon="-75.605012">
    <ele>2298</ele>
    <time>2014-06-16T11:58:05Z</time>
    <speed>4.060293</speed>
  </trkpt>
  <trkpt lat="5.985125" lon="-75.605017">
    <ele>2298</ele>
    <time>2014-06-16T11:58:07Z</time>
    <speed>3.4547265</speed>
  </trkpt>
  <trkpt lat="5.985046" lon="-75.605028">
    <ele>2296</ele>
    <time>2014-06-16T11:58:09Z</time>
    <speed>4.372765</speed>
  </trkpt>
  <trkpt lat="5.984971" lon="-75.605035">
    <ele>2296</ele>
    <time>2014-06-16T11:58:11Z</time>
    <speed>4.186025</speed>
  </trkpt>
  <trkpt lat="5.984887" lon="-75.605035">
    <ele>2295</ele>
    <time>2014-06-16T11:58:13Z</time>
    <speed>5.0296617</speed>
  </trkpt>
  <trkpt lat="5.984790" lon="-75.605005">
    <ele>2294</ele>
    <time>2014-06-16T11:58:15Z</time>
    <speed>5.4449434</speed>
  </trkpt>
  <trkpt lat="5.984713" lon="-75.604941">
    <ele>2294</ele>
    <time>2014-06-16T11:58:17Z</time>
    <speed>5.1834073</speed>
  </trkpt>
  <trkpt lat="5.984649" lon="-75.604857">
    <ele>2293</ele>
    <time>2014-06-16T11:58:19Z</time>
    <speed>5.743517</speed>
  </trkpt>
  <trkpt lat="5.984581" lon="-75.604765">
    <ele>2293</ele>
    <time>2014-06-16T11:58:21Z</time>
    <speed>6.0777993</speed>
  </trkpt>
  <trkpt lat="5.984496" lon="-75.604694">
    <ele>2291</ele>
    <time>2014-06-16T11:58:23Z</time>
    <speed>6.1962185</speed>
  </trkpt>
  <trkpt lat="5.984392" lon="-75.604656">
    <ele>2292</ele>
    <time>2014-06-16T11:58:25Z</time>
    <speed>6.396673</speed>
  </trkpt>
  <trkpt lat="5.984293" lon="-75.604661">
    <ele>2290</ele>
    <time>2014-06-16T11:58:27Z</time>
    <speed>5.840613</speed>
  </trkpt>
  <trkpt lat="5.984210" lon="-75.604676">
    <ele>2289</ele>
    <time>2014-06-16T11:58:29Z</time>
    <speed>5.012361</speed>
  </trkpt>
  <trkpt lat="5.984113" lon="-75.604697">
    <ele>2289</ele>
    <time>2014-06-16T11:58:31Z</time>
    <speed>5.811525</speed>
  </trkpt>
  <trkpt lat="5.984014" lon="-75.604721">
    <ele>2287</ele>
    <time>2014-06-16T11:58:33Z</time>
    <speed>5.528313</speed>
  </trkpt>
  <trkpt lat="5.983911" lon="-75.604743">
    <ele>2286</ele>
    <time>2014-06-16T11:58:35Z</time>
    <speed>5.488445</speed>
  </trkpt>
  <trkpt lat="5.983808" lon="-75.604731">
    <ele>2287</ele>
    <time>2014-06-16T11:58:37Z</time>
    <speed>5.665478</speed>
  </trkpt>
  <trkpt lat="5.983696" lon="-75.604688">
    <ele>2285</ele>
    <time>2014-06-16T11:58:39Z</time>
    <speed>5.560409</speed>
  </trkpt>
  <trkpt lat="5.983590" lon="-75.604631">
    <ele>2284</ele>
    <time>2014-06-16T11:58:41Z</time>
    <speed>4.9452553</speed>
  </trkpt>
  <trkpt lat="5.983511" lon="-75.604586">
    <ele>2283</ele>
    <time>2014-06-16T11:58:43Z</time>
    <speed>3.790463</speed>
  </trkpt>
  <trkpt lat="5.983467" lon="-75.604556">
    <ele>2283</ele>
    <time>2014-06-16T11:58:46Z</time>
    <speed>2.102563</speed>
  </trkpt>
  <trkpt lat="5.983417" lon="-75.604510">
    <ele>2282</ele>
    <time>2014-06-16T11:59:01Z</time>
    <speed>1.0460511</speed>
  </trkpt>
  <trkpt lat="5.983357" lon="-75.604469">
    <ele>2282</ele>
    <time>2014-06-16T11:59:04Z</time>
    <speed>3.418041</speed>
  </trkpt>
  <trkpt lat="5.983304" lon="-75.604407">
    <ele>2282</ele>
    <time>2014-06-16T11:59:06Z</time>
    <speed>4.7956457</speed>
  </trkpt>
  <trkpt lat="5.983258" lon="-75.604326">
    <ele>2282</ele>
    <time>2014-06-16T11:59:08Z</time>
    <speed>5.2363772</speed>
  </trkpt>
  <trkpt lat="5.983222" lon="-75.604242">
    <ele>2280</ele>
    <time>2014-06-16T11:59:10Z</time>
    <speed>4.1576743</speed>
  </trkpt>
  <trkpt lat="5.983197" lon="-75.604171">
    <ele>2281</ele>
    <time>2014-06-16T11:59:12Z</time>
    <speed>4.2046895</speed>
  </trkpt>
  <trkpt lat="5.983177" lon="-75.604103">
    <ele>2279</ele>
    <time>2014-06-16T11:59:14Z</time>
    <speed>3.5405283</speed>
  </trkpt>
  <trkpt lat="5.983155" lon="-75.604034">
    <ele>2278</ele>
    <time>2014-06-16T11:59:16Z</time>
    <speed>4.128677</speed>
  </trkpt>
  <trkpt lat="5.983114" lon="-75.603974">
    <ele>2278</ele>
    <time>2014-06-16T11:59:18Z</time>
    <speed>4.126731</speed>
  </trkpt>
  <trkpt lat="5.983062" lon="-75.603945">
    <ele>2276</ele>
    <time>2014-06-16T11:59:20Z</time>
    <speed>4.5850744</speed>
  </trkpt>
  <trkpt lat="5.983003" lon="-75.603958">
    <ele>2276</ele>
    <time>2014-06-16T11:59:22Z</time>
    <speed>4.799899</speed>
  </trkpt>
  <trkpt lat="5.982936" lon="-75.603972">
    <ele>2275</ele>
    <time>2014-06-16T11:59:24Z</time>
    <speed>4.6605773</speed>
  </trkpt>
  <trkpt lat="5.982858" lon="-75.603985">
    <ele>2275</ele>
    <time>2014-06-16T11:59:26Z</time>
    <speed>4.5580974</speed>
  </trkpt>
  <trkpt lat="5.982768" lon="-75.603990">
    <ele>2273</ele>
    <time>2014-06-16T11:59:28Z</time>
    <speed>4.5019984</speed>
  </trkpt>
  <trkpt lat="5.982679" lon="-75.603965">
    <ele>2273</ele>
    <time>2014-06-16T11:59:30Z</time>
    <speed>5.241219</speed>
  </trkpt>
  <trkpt lat="5.982578" lon="-75.603911">
    <ele>2273</ele>
    <time>2014-06-16T11:59:32Z</time>
    <speed>4.8804083</speed>
  </trkpt>
  <trkpt lat="5.982500" lon="-75.603833">
    <ele>2273</ele>
    <time>2014-06-16T11:59:34Z</time>
    <speed>4.6943054</speed>
  </trkpt>
  <trkpt lat="5.982467" lon="-75.603739">
    <ele>2271</ele>
    <time>2014-06-16T11:59:36Z</time>
    <speed>4.6588516</speed>
  </trkpt>
  <trkpt lat="5.982438" lon="-75.603654">
    <ele>2270</ele>
    <time>2014-06-16T11:59:38Z</time>
    <speed>4.4771934</speed>
  </trkpt>
  <trkpt lat="5.982391" lon="-75.603580">
    <ele>2270</ele>
    <time>2014-06-16T11:59:40Z</time>
    <speed>4.651827</speed>
  </trkpt>
  <trkpt lat="5.982327" lon="-75.603541">
    <ele>2269</ele>
    <time>2014-06-16T11:59:42Z</time>
    <speed>5.1260476</speed>
  </trkpt>
  <trkpt lat="5.982246" lon="-75.603533">
    <ele>2268</ele>
    <time>2014-06-16T11:59:44Z</time>
    <speed>5.2096148</speed>
  </trkpt>
  <trkpt lat="5.982167" lon="-75.603547">
    <ele>2267</ele>
    <time>2014-06-16T11:59:46Z</time>
    <speed>4.8306336</speed>
  </trkpt>
  <trkpt lat="5.982086" lon="-75.603569">
    <ele>2266</ele>
    <time>2014-06-16T11:59:48Z</time>
    <speed>4.4871964</speed>
  </trkpt>
  <trkpt lat="5.981986" lon="-75.603598">
    <ele>2266</ele>
    <time>2014-06-16T11:59:50Z</time>
    <speed>4.6455646</speed>
  </trkpt>
  <trkpt lat="5.981886" lon="-75.603618">
    <ele>2265</ele>
    <time>2014-06-16T11:59:52Z</time>
    <speed>4.8272004</speed>
  </trkpt>
  <trkpt lat="5.981791" lon="-75.603628">
    <ele>2265</ele>
    <time>2014-06-16T11:59:54Z</time>
    <speed>4.380928</speed>
  </trkpt>
  <trkpt lat="5.981703" lon="-75.603625">
    <ele>2264</ele>
    <time>2014-06-16T11:59:56Z</time>
    <speed>4.655969</speed>
  </trkpt>
  <trkpt lat="5.981597" lon="-75.603610">
    <ele>2263</ele>
    <time>2014-06-16T11:59:58Z</time>
    <speed>5.633232</speed>
  </trkpt>
  <trkpt lat="5.981464" lon="-75.603567">
    <ele>2261</ele>
    <time>2014-06-16T12:00:00Z</time>
    <speed>6.679077</speed>
  </trkpt>
  <trkpt lat="5.981340" lon="-75.603504">
    <ele>2261</ele>
    <time>2014-06-16T12:00:02Z</time>
    <speed>6.8728294</speed>
  </trkpt>
  <trkpt lat="5.981245" lon="-75.603442">
    <ele>2259</ele>
    <time>2014-06-16T12:00:04Z</time>
    <speed>5.9753385</speed>
  </trkpt>
  <trkpt lat="5.981157" lon="-75.603385">
    <ele>2260</ele>
    <time>2014-06-16T12:00:06Z</time>
    <speed>5.9880753</speed>
  </trkpt>
  <trkpt lat="5.981062" lon="-75.603329">
    <ele>2259</ele>
    <time>2014-06-16T12:00:08Z</time>
    <speed>6.1328044</speed>
  </trkpt>
  <trkpt lat="5.980955" lon="-75.603260">
    <ele>2258</ele>
    <time>2014-06-16T12:00:10Z</time>
    <speed>6.860752</speed>
  </trkpt>
  <trkpt lat="5.980836" lon="-75.603186">
    <ele>2258</ele>
    <time>2014-06-16T12:00:12Z</time>
    <speed>7.806765</speed>
  </trkpt>
  <trkpt lat="5.980714" lon="-75.603109">
    <ele>2256</ele>
    <time>2014-06-16T12:00:14Z</time>
    <speed>7.568689</speed>
  </trkpt>
  <trkpt lat="5.980628" lon="-75.603050">
    <ele>2254</ele>
    <time>2014-06-16T12:00:16Z</time>
    <speed>6.2831154</speed>
  </trkpt>
  <trkpt lat="5.980539" lon="-75.602984">
    <ele>2254</ele>
    <time>2014-06-16T12:00:18Z</time>
    <speed>5.933841</speed>
  </trkpt>
  <trkpt lat="5.980444" lon="-75.602906">
    <ele>2252</ele>
    <time>2014-06-16T12:00:20Z</time>
    <speed>5.0115952</speed>
  </trkpt>
  <trkpt lat="5.980369" lon="-75.602827">
    <ele>2252</ele>
    <time>2014-06-16T12:00:22Z</time>
    <speed>5.241981</speed>
  </trkpt>
  <trkpt lat="5.980307" lon="-75.602745">
    <ele>2252</ele>
    <time>2014-06-16T12:00:24Z</time>
    <speed>5.0271106</speed>
  </trkpt>
  <trkpt lat="5.980246" lon="-75.602668">
    <ele>2250</ele>
    <time>2014-06-16T12:00:26Z</time>
    <speed>4.6245365</speed>
  </trkpt>
  <trkpt lat="5.980181" lon="-75.602598">
    <ele>2250</ele>
    <time>2014-06-16T12:00:28Z</time>
    <speed>5.293801</speed>
  </trkpt>
  <trkpt lat="5.980113" lon="-75.602539">
    <ele>2250</ele>
    <time>2014-06-16T12:00:30Z</time>
    <speed>5.3516736</speed>
  </trkpt>
  <trkpt lat="5.980051" lon="-75.602487">
    <ele>2249</ele>
    <time>2014-06-16T12:00:32Z</time>
    <speed>4.2863092</speed>
  </trkpt>
  <trkpt lat="5.979996" lon="-75.602461">
    <ele>2249</ele>
    <time>2014-06-16T12:00:34Z</time>
    <speed>3.8632374</speed>
  </trkpt>
  <trkpt lat="5.979938" lon="-75.602413">
    <ele>2247</ele>
    <time>2014-06-16T12:00:36Z</time>
    <speed>3.2984695</speed>
  </trkpt>
  <trkpt lat="5.979906" lon="-75.602359">
    <ele>2247</ele>
    <time>2014-06-16T12:00:38Z</time>
    <speed>2.9925435</speed>
  </trkpt>
  <trkpt lat="5.979871" lon="-75.602282">
    <ele>2246</ele>
    <time>2014-06-16T12:00:40Z</time>
    <speed>3.2933505</speed>
  </trkpt>
  <trkpt lat="5.979860" lon="-75.602196">
    <ele>2246</ele>
    <time>2014-06-16T12:00:42Z</time>
    <speed>3.4628158</speed>
  </trkpt>
  <trkpt lat="5.979850" lon="-75.602136">
    <ele>2245</ele>
    <time>2014-06-16T12:00:44Z</time>
    <speed>2.1934218</speed>
  </trkpt>
  <trkpt lat="5.979840" lon="-75.602063">
    <ele>2246</ele>
    <time>2014-06-16T12:00:46Z</time>
    <speed>2.6040072</speed>
  </trkpt>
  <trkpt lat="5.979825" lon="-75.602006">
    <ele>2245</ele>
    <time>2014-06-16T12:00:48Z</time>
    <speed>3.085801</speed>
  </trkpt>
  <trkpt lat="5.979814" lon="-75.601947">
    <ele>2245</ele>
    <time>2014-06-16T12:00:50Z</time>
    <speed>3.8041148</speed>
  </trkpt>
  <trkpt lat="5.979805" lon="-75.601878">
    <ele>2244</ele>
    <time>2014-06-16T12:00:52Z</time>
    <speed>4.3286076</speed>
  </trkpt>
  <trkpt lat="5.979796" lon="-75.601796">
    <ele>2243</ele>
    <time>2014-06-16T12:00:54Z</time>
    <speed>4.7086124</speed>
  </trkpt>
  <trkpt lat="5.979786" lon="-75.601704">
    <ele>2244</ele>
    <time>2014-06-16T12:00:56Z</time>
    <speed>4.8552237</speed>
  </trkpt>
  <trkpt lat="5.979768" lon="-75.601602">
    <ele>2242</ele>
    <time>2014-06-16T12:00:58Z</time>
    <speed>4.631604</speed>
  </trkpt>
  <trkpt lat="5.979752" lon="-75.601535">
    <ele>2240</ele>
    <time>2014-06-16T12:01:00Z</time>
    <speed>3.2826095</speed>
  </trkpt>
  <trkpt lat="5.979742" lon="-75.601490">
    <ele>2241</ele>
    <time>2014-06-16T12:01:02Z</time>
    <speed>2.4075851</speed>
  </trkpt>
  <trkpt lat="5.979727" lon="-75.601445">
    <ele>2241</ele>
    <time>2014-06-16T12:01:04Z</time>
    <speed>2.9775078</speed>
  </trkpt>
  <trkpt lat="5.979708" lon="-75.601372">
    <ele>2240</ele>
    <time>2014-06-16T12:01:07Z</time>
    <speed>3.1218426</speed>
  </trkpt>
  <trkpt lat="5.979712" lon="-75.601279">
    <ele>2241</ele>
    <time>2014-06-16T12:01:09Z</time>
    <speed>3.8808844</speed>
  </trkpt>
  <trkpt lat="5.979735" lon="-75.601217">
    <ele>2239</ele>
    <time>2014-06-16T12:01:11Z</time>
    <speed>2.6206214</speed>
  </trkpt>
  <trkpt lat="5.979770" lon="-75.601152">
    <ele>2238</ele>
    <time>2014-06-16T12:01:13Z</time>
    <speed>2.5185523</speed>
  </trkpt>
  <trkpt lat="5.979815" lon="-75.601096">
    <ele>2238</ele>
    <time>2014-06-16T12:01:15Z</time>
    <speed>3.596144</speed>
  </trkpt>
  <trkpt lat="5.979876" lon="-75.601030">
    <ele>2239</ele>
    <time>2014-06-16T12:01:17Z</time>
    <speed>4.02086</speed>
  </trkpt>
  <trkpt lat="5.979943" lon="-75.600962">
    <ele>2237</ele>
    <time>2014-06-16T12:01:19Z</time>
    <speed>4.4841747</speed>
  </trkpt>
  <trkpt lat="5.980020" lon="-75.600894">
    <ele>2237</ele>
    <time>2014-06-16T12:01:21Z</time>
    <speed>4.7236047</speed>
  </trkpt>
  <trkpt lat="5.980070" lon="-75.600827">
    <ele>2235</ele>
    <time>2014-06-16T12:01:23Z</time>
    <speed>4.4407363</speed>
  </trkpt>
  <trkpt lat="5.980072" lon="-75.600753">
    <ele>2236</ele>
    <time>2014-06-16T12:01:25Z</time>
    <speed>4.8581276</speed>
  </trkpt>
  <trkpt lat="5.980022" lon="-75.600665">
    <ele>2234</ele>
    <time>2014-06-16T12:01:27Z</time>
    <speed>5.1024795</speed>
  </trkpt>
  <trkpt lat="5.979947" lon="-75.600591">
    <ele>2234</ele>
    <time>2014-06-16T12:01:29Z</time>
    <speed>5.629925</speed>
  </trkpt>
  <trkpt lat="5.979877" lon="-75.600547">
    <ele>2232</ele>
    <time>2014-06-16T12:01:31Z</time>
    <speed>5.3989034</speed>
  </trkpt>
  <trkpt lat="5.979797" lon="-75.600506">
    <ele>2230</ele>
    <time>2014-06-16T12:01:33Z</time>
    <speed>5.0335717</speed>
  </trkpt>
  <trkpt lat="5.979709" lon="-75.600458">
    <ele>2231</ele>
    <time>2014-06-16T12:01:35Z</time>
    <speed>4.5855656</speed>
  </trkpt>
  <trkpt lat="5.979648" lon="-75.600420">
    <ele>2229</ele>
    <time>2014-06-16T12:01:37Z</time>
    <speed>3.948444</speed>
  </trkpt>
  <trkpt lat="5.979594" lon="-75.600391">
    <ele>2228</ele>
    <time>2014-06-16T12:01:39Z</time>
    <speed>3.7961185</speed>
  </trkpt>
  <trkpt lat="5.979519" lon="-75.600355">
    <ele>2228</ele>
    <time>2014-06-16T12:01:41Z</time>
    <speed>4.337751</speed>
  </trkpt>
  <trkpt lat="5.979431" lon="-75.600343">
    <ele>2227</ele>
    <time>2014-06-16T12:01:43Z</time>
    <speed>4.6687045</speed>
  </trkpt>
  <trkpt lat="5.979342" lon="-75.600360">
    <ele>2227</ele>
    <time>2014-06-16T12:01:45Z</time>
    <speed>4.822128</speed>
  </trkpt>
  <trkpt lat="5.979262" lon="-75.600370">
    <ele>2226</ele>
    <time>2014-06-16T12:01:47Z</time>
    <speed>4.942521</speed>
  </trkpt>
  <trkpt lat="5.979173" lon="-75.600376">
    <ele>2225</ele>
    <time>2014-06-16T12:01:49Z</time>
    <speed>4.436876</speed>
  </trkpt>
  <trkpt lat="5.979081" lon="-75.600388">
    <ele>2226</ele>
    <time>2014-06-16T12:01:51Z</time>
    <speed>4.937979</speed>
  </trkpt>
  <trkpt lat="5.978985" lon="-75.600400">
    <ele>2224</ele>
    <time>2014-06-16T12:01:53Z</time>
    <speed>4.793898</speed>
  </trkpt>
  <trkpt lat="5.978900" lon="-75.600416">
    <ele>2224</ele>
    <time>2014-06-16T12:01:55Z</time>
    <speed>3.9268978</speed>
  </trkpt>
  <trkpt lat="5.978831" lon="-75.600453">
    <ele>2223</ele>
    <time>2014-06-16T12:01:57Z</time>
    <speed>3.8877637</speed>
  </trkpt>
  <trkpt lat="5.978771" lon="-75.600494">
    <ele>2224</ele>
    <time>2014-06-16T12:01:59Z</time>
    <speed>3.856315</speed>
  </trkpt>
  <trkpt lat="5.978717" lon="-75.600546">
    <ele>2221</ele>
    <time>2014-06-16T12:02:01Z</time>
    <speed>3.7351546</speed>
  </trkpt>
  <trkpt lat="5.978647" lon="-75.600617">
    <ele>2221</ele>
    <time>2014-06-16T12:02:03Z</time>
    <speed>4.3858724</speed>
  </trkpt>
  <trkpt lat="5.978574" lon="-75.600695">
    <ele>2219</ele>
    <time>2014-06-16T12:02:05Z</time>
    <speed>4.9560084</speed>
  </trkpt>
  <trkpt lat="5.978507" lon="-75.600768">
    <ele>2220</ele>
    <time>2014-06-16T12:02:07Z</time>
    <speed>4.9978733</speed>
  </trkpt>
  <trkpt lat="5.978450" lon="-75.600840">
    <ele>2219</ele>
    <time>2014-06-16T12:02:09Z</time>
    <speed>4.4266367</speed>
  </trkpt>
  <trkpt lat="5.978397" lon="-75.600892">
    <ele>2219</ele>
    <time>2014-06-16T12:02:11Z</time>
    <speed>4.1550055</speed>
  </trkpt>
  <trkpt lat="5.978337" lon="-75.600918">
    <ele>2219</ele>
    <time>2014-06-16T12:02:13Z</time>
    <speed>4.523635</speed>
  </trkpt>
  <trkpt lat="5.978250" lon="-75.600914">
    <ele>2217</ele>
    <time>2014-06-16T12:02:15Z</time>
    <speed>4.5133886</speed>
  </trkpt>
  <trkpt lat="5.978164" lon="-75.600868">
    <ele>2217</ele>
    <time>2014-06-16T12:02:17Z</time>
    <speed>4.847559</speed>
  </trkpt>
  <trkpt lat="5.978092" lon="-75.600818">
    <ele>2216</ele>
    <time>2014-06-16T12:02:19Z</time>
    <speed>4.5821614</speed>
  </trkpt>
  <trkpt lat="5.978016" lon="-75.600758">
    <ele>2216</ele>
    <time>2014-06-16T12:02:21Z</time>
    <speed>4.273936</speed>
  </trkpt>
  <trkpt lat="5.977931" lon="-75.600685">
    <ele>2215</ele>
    <time>2014-06-16T12:02:23Z</time>
    <speed>5.0904956</speed>
  </trkpt>
  <trkpt lat="5.977856" lon="-75.600608">
    <ele>2214</ele>
    <time>2014-06-16T12:02:25Z</time>
    <speed>4.90462</speed>
  </trkpt>
  <trkpt lat="5.977793" lon="-75.600538">
    <ele>2214</ele>
    <time>2014-06-16T12:02:27Z</time>
    <speed>4.574692</speed>
  </trkpt>
  <trkpt lat="5.977736" lon="-75.600475">
    <ele>2214</ele>
    <time>2014-06-16T12:02:29Z</time>
    <speed>4.4984016</speed>
  </trkpt>
  <trkpt lat="5.977649" lon="-75.600406">
    <ele>2213</ele>
    <time>2014-06-16T12:02:31Z</time>
    <speed>4.9330873</speed>
  </trkpt>
  <trkpt lat="5.977566" lon="-75.600353">
    <ele>2211</ele>
    <time>2014-06-16T12:02:33Z</time>
    <speed>5.3537426</speed>
  </trkpt>
  <trkpt lat="5.977495" lon="-75.600312">
    <ele>2211</ele>
    <time>2014-06-16T12:02:35Z</time>
    <speed>5.1550746</speed>
  </trkpt>
  <trkpt lat="5.977427" lon="-75.600275">
    <ele>2210</ele>
    <time>2014-06-16T12:02:37Z</time>
    <speed>4.860537</speed>
  </trkpt>
  <trkpt lat="5.977343" lon="-75.600231">
    <ele>2210</ele>
    <time>2014-06-16T12:02:39Z</time>
    <speed>5.584646</speed>
  </trkpt>
  <trkpt lat="5.977253" lon="-75.600187">
    <ele>2209</ele>
    <time>2014-06-16T12:02:41Z</time>
    <speed>5.3647676</speed>
  </trkpt>
  <trkpt lat="5.977179" lon="-75.600156">
    <ele>2207</ele>
    <time>2014-06-16T12:02:43Z</time>
    <speed>4.6136727</speed>
  </trkpt>
  <trkpt lat="5.977116" lon="-75.600130">
    <ele>2207</ele>
    <time>2014-06-16T12:02:45Z</time>
    <speed>3.1338348</speed>
  </trkpt>
  <trkpt lat="5.977056" lon="-75.600106">
    <ele>2207</ele>
    <time>2014-06-16T12:02:48Z</time>
    <speed>3.2675738</speed>
  </trkpt>
  <trkpt lat="5.977009" lon="-75.600080">
    <ele>2207</ele>
    <time>2014-06-16T12:02:50Z</time>
    <speed>3.0672688</speed>
  </trkpt>
  <trkpt lat="5.976966" lon="-75.600036">
    <ele>2205</ele>
    <time>2014-06-16T12:02:52Z</time>
    <speed>3.020498</speed>
  </trkpt>
  <trkpt lat="5.976935" lon="-75.599984">
    <ele>2205</ele>
    <time>2014-06-16T12:02:54Z</time>
    <speed>2.8202658</speed>
  </trkpt>
  <trkpt lat="5.976917" lon="-75.599927">
    <ele>2204</ele>
    <time>2014-06-16T12:02:56Z</time>
    <speed>3.232776</speed>
  </trkpt>
  <trkpt lat="5.976904" lon="-75.599865">
    <ele>2203</ele>
    <time>2014-06-16T12:02:58Z</time>
    <speed>3.6990812</speed>
  </trkpt>
  <trkpt lat="5.976902" lon="-75.599785">
    <ele>2204</ele>
    <time>2014-06-16T12:03:00Z</time>
    <speed>4.6696234</speed>
  </trkpt>
  <trkpt lat="5.976906" lon="-75.599682">
    <ele>2203</ele>
    <time>2014-06-16T12:03:02Z</time>
    <speed>5.319073</speed>
  </trkpt>
  <trkpt lat="5.976914" lon="-75.599585">
    <ele>2201</ele>
    <time>2014-06-16T12:03:04Z</time>
    <speed>4.022297</speed>
  </trkpt>
  <trkpt lat="5.976924" lon="-75.599505">
    <ele>2201</ele>
    <time>2014-06-16T12:03:06Z</time>
    <speed>4.2678213</speed>
  </trkpt>
  <trkpt lat="5.976939" lon="-75.599414">
    <ele>2201</ele>
    <time>2014-06-16T12:03:08Z</time>
    <speed>5.1887374</speed>
  </trkpt>
  <trkpt lat="5.976962" lon="-75.599323">
    <ele>2200</ele>
    <time>2014-06-16T12:03:10Z</time>
    <speed>4.687498</speed>
  </trkpt>
  <trkpt lat="5.976980" lon="-75.599237">
    <ele>2200</ele>
    <time>2014-06-16T12:03:12Z</time>
    <speed>4.8360615</speed>
  </trkpt>
  <trkpt lat="5.976995" lon="-75.599153">
    <ele>2198</ele>
    <time>2014-06-16T12:03:14Z</time>
    <speed>4.3191524</speed>
  </trkpt>
  <trkpt lat="5.977006" lon="-75.599072">
    <ele>2199</ele>
    <time>2014-06-16T12:03:16Z</time>
    <speed>4.0226216</speed>
  </trkpt>
  <trkpt lat="5.977016" lon="-75.599006">
    <ele>2198</ele>
    <time>2014-06-16T12:03:18Z</time>
    <speed>3.8361104</speed>
  </trkpt>
  <trkpt lat="5.977026" lon="-75.598938">
    <ele>2197</ele>
    <time>2014-06-16T12:03:20Z</time>
    <speed>3.8185296</speed>
  </trkpt>
  <trkpt lat="5.977035" lon="-75.598861">
    <ele>2196</ele>
    <time>2014-06-16T12:03:22Z</time>
    <speed>4.0098834</speed>
  </trkpt>
  <trkpt lat="5.977042" lon="-75.598783">
    <ele>2197</ele>
    <time>2014-06-16T12:03:24Z</time>
    <speed>4.3718166</speed>
  </trkpt>
  <trkpt lat="5.977049" lon="-75.598700">
    <ele>2196</ele>
    <time>2014-06-16T12:03:26Z</time>
    <speed>3.8832126</speed>
  </trkpt>
  <trkpt lat="5.977052" lon="-75.598612">
    <ele>2194</ele>
    <time>2014-06-16T12:03:28Z</time>
    <speed>3.7690127</speed>
  </trkpt>
  <trkpt lat="5.977030" lon="-75.598536">
    <ele>2194</ele>
    <time>2014-06-16T12:03:30Z</time>
    <speed>3.504445</speed>
  </trkpt>
  <trkpt lat="5.976985" lon="-75.598483">
    <ele>2192</ele>
    <time>2014-06-16T12:03:32Z</time>
    <speed>2.8050997</speed>
  </trkpt>
  <trkpt lat="5.976941" lon="-75.598466">
    <ele>2194</ele>
    <time>2014-06-16T12:03:34Z</time>
    <speed>2.509566</speed>
  </trkpt>
  <trkpt lat="5.976882" lon="-75.598505">
    <ele>2192</ele>
    <time>2014-06-16T12:03:55Z</time>
    <speed>1.67447</speed>
  </trkpt>
  <trkpt lat="5.976792" lon="-75.598533">
    <ele>2191</ele>
    <time>2014-06-16T12:03:57Z</time>
    <speed>3.4399285</speed>
  </trkpt>
  <trkpt lat="5.976721" lon="-75.598549">
    <ele>2191</ele>
    <time>2014-06-16T12:03:59Z</time>
    <speed>3.6468296</speed>
  </trkpt>
  <trkpt lat="5.976678" lon="-75.598563">
    <ele>2191</ele>
    <time>2014-06-16T12:04:01Z</time>
    <speed>1.9981267</speed>
  </trkpt>
  <trkpt lat="5.976619" lon="-75.598559">
    <ele>2189</ele>
    <time>2014-06-16T12:04:39Z</time>
    <speed>3.6827624</speed>
  </trkpt>
  <trkpt lat="5.976537" lon="-75.598549">
    <ele>2190</ele>
    <time>2014-06-16T12:04:41Z</time>
    <speed>4.6513577</speed>
  </trkpt>
  <trkpt lat="5.976444" lon="-75.598542">
    <ele>2189</ele>
    <time>2014-06-16T12:04:43Z</time>
    <speed>4.382417</speed>
  </trkpt>
  <trkpt lat="5.976349" lon="-75.598531">
    <ele>2188</ele>
    <time>2014-06-16T12:04:45Z</time>
    <speed>4.7201834</speed>
  </trkpt>
  <trkpt lat="5.976247" lon="-75.598522">
    <ele>2188</ele>
    <time>2014-06-16T12:04:47Z</time>
    <speed>5.049707</speed>
  </trkpt>
  <trkpt lat="5.976160" lon="-75.598513">
    <ele>2187</ele>
    <time>2014-06-16T12:04:49Z</time>
    <speed>4.4964685</speed>
  </trkpt>
  <trkpt lat="5.976073" lon="-75.598496">
    <ele>2186</ele>
    <time>2014-06-16T12:04:51Z</time>
    <speed>4.1673417</speed>
  </trkpt>
  <trkpt lat="5.975998" lon="-75.598471">
    <ele>2187</ele>
    <time>2014-06-16T12:04:53Z</time>
    <speed>4.1835995</speed>
  </trkpt>
  <trkpt lat="5.975935" lon="-75.598434">
    <ele>2186</ele>
    <time>2014-06-16T12:04:55Z</time>
    <speed>3.57606</speed>
  </trkpt>
  <trkpt lat="5.975890" lon="-75.598384">
    <ele>2185</ele>
    <time>2014-06-16T12:04:57Z</time>
    <speed>3.2572465</speed>
  </trkpt>
  <trkpt lat="5.975858" lon="-75.598330">
    <ele>2185</ele>
    <time>2014-06-16T12:04:59Z</time>
    <speed>3.379754</speed>
  </trkpt>
  <trkpt lat="5.975844" lon="-75.598258">
    <ele>2184</ele>
    <time>2014-06-16T12:05:01Z</time>
    <speed>4.14086</speed>
  </trkpt>
  <trkpt lat="5.975847" lon="-75.598186">
    <ele>2183</ele>
    <time>2014-06-16T12:05:03Z</time>
    <speed>3.5889196</speed>
  </trkpt>
  <trkpt lat="5.975852" lon="-75.598101">
    <ele>2182</ele>
    <time>2014-06-16T12:05:05Z</time>
    <speed>4.276414</speed>
  </trkpt>
  <trkpt lat="5.975861" lon="-75.598013">
    <ele>2182</ele>
    <time>2014-06-16T12:05:07Z</time>
    <speed>4.325892</speed>
  </trkpt>
  <trkpt lat="5.975869" lon="-75.597933">
    <ele>2182</ele>
    <time>2014-06-16T12:05:09Z</time>
    <speed>4.015199</speed>
  </trkpt>
  <trkpt lat="5.975881" lon="-75.597860">
    <ele>2181</ele>
    <time>2014-06-16T12:05:11Z</time>
    <speed>3.676074</speed>
  </trkpt>
  <trkpt lat="5.975896" lon="-75.597802">
    <ele>2180</ele>
    <time>2014-06-16T12:05:13Z</time>
    <speed>3.0804927</speed>
  </trkpt>
  <trkpt lat="5.975907" lon="-75.597723">
    <ele>2180</ele>
    <time>2014-06-16T12:05:15Z</time>
    <speed>2.983469</speed>
  </trkpt>
  <trkpt lat="5.975907" lon="-75.597642">
    <ele>2179</ele>
    <time>2014-06-16T12:05:17Z</time>
    <speed>3.1492665</speed>
  </trkpt>
  <trkpt lat="5.975889" lon="-75.597575">
    <ele>2179</ele>
    <time>2014-06-16T12:05:19Z</time>
    <speed>3.146912</speed>
  </trkpt>
  <trkpt lat="5.975857" lon="-75.597524">
    <ele>2178</ele>
    <time>2014-06-16T12:05:21Z</time>
    <speed>3.15091</speed>
  </trkpt>
  <trkpt lat="5.975820" lon="-75.597495">
    <ele>2176</ele>
    <time>2014-06-16T12:05:23Z</time>
    <speed>3.0311449</speed>
  </trkpt>
  <trkpt lat="5.975761" lon="-75.597475">
    <ele>2176</ele>
    <time>2014-06-16T12:05:25Z</time>
    <speed>3.100555</speed>
  </trkpt>
  <trkpt lat="5.975694" lon="-75.597479">
    <ele>2177</ele>
    <time>2014-06-16T12:05:27Z</time>
    <speed>3.2344003</speed>
  </trkpt>
  <trkpt lat="5.975625" lon="-75.597508">
    <ele>2175</ele>
    <time>2014-06-16T12:05:29Z</time>
    <speed>3.4029162</speed>
  </trkpt>
  <trkpt lat="5.975561" lon="-75.597547">
    <ele>2175</ele>
    <time>2014-06-16T12:05:31Z</time>
    <speed>3.5244207</speed>
  </trkpt>
  <trkpt lat="5.975500" lon="-75.597580">
    <ele>2173</ele>
    <time>2014-06-16T12:05:33Z</time>
    <speed>3.5546412</speed>
  </trkpt>
  <trkpt lat="5.975424" lon="-75.597609">
    <ele>2174</ele>
    <time>2014-06-16T12:05:35Z</time>
    <speed>3.7021365</speed>
  </trkpt>
  <trkpt lat="5.975340" lon="-75.597614">
    <ele>2171</ele>
    <time>2014-06-16T12:05:37Z</time>
    <speed>3.8136241</speed>
  </trkpt>
  <trkpt lat="5.975261" lon="-75.597599">
    <ele>2171</ele>
    <time>2014-06-16T12:05:39Z</time>
    <speed>3.88902</speed>
  </trkpt>
  <trkpt lat="5.975187" lon="-75.597564">
    <ele>2170</ele>
    <time>2014-06-16T12:05:41Z</time>
    <speed>3.9433036</speed>
  </trkpt>
  <trkpt lat="5.975120" lon="-75.597527">
    <ele>2170</ele>
    <time>2014-06-16T12:05:43Z</time>
    <speed>3.9615133</speed>
  </trkpt>
  <trkpt lat="5.975042" lon="-75.597481">
    <ele>2169</ele>
    <time>2014-06-16T12:05:45Z</time>
    <speed>4.1329703</speed>
  </trkpt>
  <trkpt lat="5.974978" lon="-75.597443">
    <ele>2168</ele>
    <time>2014-06-16T12:05:47Z</time>
    <speed>4.1018257</speed>
  </trkpt>
  <trkpt lat="5.974924" lon="-75.597420">
    <ele>2167</ele>
    <time>2014-06-16T12:05:49Z</time>
    <speed>3.929468</speed>
  </trkpt>
  <trkpt lat="5.974878" lon="-75.597400">
    <ele>2166</ele>
    <time>2014-06-16T12:05:51Z</time>
    <speed>3.6914675</speed>
  </trkpt>
  <trkpt lat="5.974833" lon="-75.597392">
    <ele>2166</ele>
    <time>2014-06-16T12:05:53Z</time>
    <speed>3.511765</speed>
  </trkpt>
  <trkpt lat="5.974774" lon="-75.597396">
    <ele>2165</ele>
    <time>2014-06-16T12:05:55Z</time>
    <speed>3.500994</speed>
  </trkpt>
  <trkpt lat="5.974707" lon="-75.597415">
    <ele>2164</ele>
    <time>2014-06-16T12:05:57Z</time>
    <speed>3.5471492</speed>
  </trkpt>
  <trkpt lat="5.974645" lon="-75.597443">
    <ele>2164</ele>
    <time>2014-06-16T12:05:59Z</time>
    <speed>3.545237</speed>
  </trkpt>
  <trkpt lat="5.974579" lon="-75.597480">
    <ele>2163</ele>
    <time>2014-06-16T12:06:01Z</time>
    <speed>3.6112845</speed>
  </trkpt>
  <trkpt lat="5.974519" lon="-75.597515">
    <ele>2163</ele>
    <time>2014-06-16T12:06:03Z</time>
    <speed>3.6032753</speed>
  </trkpt>
  <trkpt lat="5.974467" lon="-75.597550">
    <ele>2163</ele>
    <time>2014-06-16T12:06:05Z</time>
    <speed>3.6177697</speed>
  </trkpt>
  <trkpt lat="5.974411" lon="-75.597587">
    <ele>2163</ele>
    <time>2014-06-16T12:06:07Z</time>
    <speed>3.6688547</speed>
  </trkpt>
  <trkpt lat="5.974357" lon="-75.597623">
    <ele>2162</ele>
    <time>2014-06-16T12:06:09Z</time>
    <speed>3.6582744</speed>
  </trkpt>
  <trkpt lat="5.974291" lon="-75.597666">
    <ele>2161</ele>
    <time>2014-06-16T12:06:11Z</time>
    <speed>3.814628</speed>
  </trkpt>
  <trkpt lat="5.974214" lon="-75.597703">
    <ele>2161</ele>
    <time>2014-06-16T12:06:13Z</time>
    <speed>4.015286</speed>
  </trkpt>
  <trkpt lat="5.974134" lon="-75.597728">
    <ele>2161</ele>
    <time>2014-06-16T12:06:15Z</time>
    <speed>4.0768547</speed>
  </trkpt>
  <trkpt lat="5.974057" lon="-75.597734">
    <ele>2159</ele>
    <time>2014-06-16T12:06:17Z</time>
    <speed>4.0615435</speed>
  </trkpt>
  <trkpt lat="5.973981" lon="-75.597722">
    <ele>2159</ele>
    <time>2014-06-16T12:06:19Z</time>
    <speed>4.061341</speed>
  </trkpt>
  <trkpt lat="5.973907" lon="-75.597702">
    <ele>2159</ele>
    <time>2014-06-16T12:06:21Z</time>
    <speed>4.088113</speed>
  </trkpt>
  <trkpt lat="5.973827" lon="-75.597677">
    <ele>2158</ele>
    <time>2014-06-16T12:06:23Z</time>
    <speed>4.1667986</speed>
  </trkpt>
  <trkpt lat="5.973746" lon="-75.597656">
    <ele>2158</ele>
    <time>2014-06-16T12:06:25Z</time>
    <speed>4.2578545</speed>
  </trkpt>
  <trkpt lat="5.973662" lon="-75.597630">
    <ele>2157</ele>
    <time>2014-06-16T12:06:27Z</time>
    <speed>4.356663</speed>
  </trkpt>
  <trkpt lat="5.973584" lon="-75.597600">
    <ele>2157</ele>
    <time>2014-06-16T12:06:29Z</time>
    <speed>4.412079</speed>
  </trkpt>
  <trkpt lat="5.973504" lon="-75.597551">
    <ele>2157</ele>
    <time>2014-06-16T12:06:31Z</time>
    <speed>4.572741</speed>
  </trkpt>
  <trkpt lat="5.973440" lon="-75.597488">
    <ele>2155</ele>
    <time>2014-06-16T12:06:33Z</time>
    <speed>4.659751</speed>
  </trkpt>
  <trkpt lat="5.973398" lon="-75.597421">
    <ele>2154</ele>
    <time>2014-06-16T12:06:35Z</time>
    <speed>4.6000743</speed>
  </trkpt>
  <trkpt lat="5.973363" lon="-75.597342">
    <ele>2153</ele>
    <time>2014-06-16T12:06:37Z</time>
    <speed>4.6290417</speed>
  </trkpt>
  <trkpt lat="5.973340" lon="-75.597249">
    <ele>2153</ele>
    <time>2014-06-16T12:06:39Z</time>
    <speed>4.7482934</speed>
  </trkpt>
  <trkpt lat="5.973329" lon="-75.597160">
    <ele>2152</ele>
    <time>2014-06-16T12:06:41Z</time>
    <speed>4.7559714</speed>
  </trkpt>
  <trkpt lat="5.973326" lon="-75.597074">
    <ele>2152</ele>
    <time>2014-06-16T12:06:43Z</time>
    <speed>4.6868644</speed>
  </trkpt>
  <trkpt lat="5.973339" lon="-75.597000">
    <ele>2151</ele>
    <time>2014-06-16T12:06:45Z</time>
    <speed>4.548723</speed>
  </trkpt>
  <trkpt lat="5.973380" lon="-75.596921">
    <ele>2151</ele>
    <time>2014-06-16T12:06:47Z</time>
    <speed>4.5667095</speed>
  </trkpt>
  <trkpt lat="5.973429" lon="-75.596852">
    <ele>2150</ele>
    <time>2014-06-16T12:06:49Z</time>
    <speed>4.563446</speed>
  </trkpt>
  <trkpt lat="5.973470" lon="-75.596777">
    <ele>2150</ele>
    <time>2014-06-16T12:06:51Z</time>
    <speed>4.55135</speed>
  </trkpt>
  <trkpt lat="5.973495" lon="-75.596688">
    <ele>2147</ele>
    <time>2014-06-16T12:06:53Z</time>
    <speed>4.6025333</speed>
  </trkpt>
  <trkpt lat="5.973507" lon="-75.596604">
    <ele>2148</ele>
    <time>2014-06-16T12:06:55Z</time>
    <speed>4.582927</speed>
  </trkpt>
  <trkpt lat="5.973505" lon="-75.596519">
    <ele>2147</ele>
    <time>2014-06-16T12:06:57Z</time>
    <speed>4.595007</speed>
  </trkpt>
  <trkpt lat="5.973486" lon="-75.596441">
    <ele>2146</ele>
    <time>2014-06-16T12:06:59Z</time>
    <speed>4.5166283</speed>
  </trkpt>
  <trkpt lat="5.973464" lon="-75.596360">
    <ele>2144</ele>
    <time>2014-06-16T12:07:01Z</time>
    <speed>4.4619718</speed>
  </trkpt>
  <trkpt lat="5.973432" lon="-75.596276">
    <ele>2145</ele>
    <time>2014-06-16T12:07:03Z</time>
    <speed>4.508213</speed>
  </trkpt>
  <trkpt lat="5.973395" lon="-75.596206">
    <ele>2145</ele>
    <time>2014-06-16T12:07:05Z</time>
    <speed>4.428232</speed>
  </trkpt>
  <trkpt lat="5.973347" lon="-75.596165">
    <ele>2143</ele>
    <time>2014-06-16T12:07:07Z</time>
    <speed>4.2528763</speed>
  </trkpt>
  <trkpt lat="5.973288" lon="-75.596143">
    <ele>2143</ele>
    <time>2014-06-16T12:07:09Z</time>
    <speed>4.1292396</speed>
  </trkpt>
  <trkpt lat="5.973223" lon="-75.596132">
    <ele>2143</ele>
    <time>2014-06-16T12:07:11Z</time>
    <speed>4.043986</speed>
  </trkpt>
  <trkpt lat="5.973156" lon="-75.596128">
    <ele>2142</ele>
    <time>2014-06-16T12:07:13Z</time>
    <speed>3.9582477</speed>
  </trkpt>
  <trkpt lat="5.973080" lon="-75.596141">
    <ele>2141</ele>
    <time>2014-06-16T12:07:15Z</time>
    <speed>4.034717</speed>
  </trkpt>
  <trkpt lat="5.972998" lon="-75.596150">
    <ele>2141</ele>
    <time>2014-06-16T12:07:17Z</time>
    <speed>4.1325274</speed>
  </trkpt>
  <trkpt lat="5.972922" lon="-75.596151">
    <ele>2140</ele>
    <time>2014-06-16T12:07:19Z</time>
    <speed>4.119113</speed>
  </trkpt>
  <trkpt lat="5.972840" lon="-75.596154">
    <ele>2139</ele>
    <time>2014-06-16T12:07:21Z</time>
    <speed>4.172438</speed>
  </trkpt>
  <trkpt lat="5.972761" lon="-75.596156">
    <ele>2139</ele>
    <time>2014-06-16T12:07:23Z</time>
    <speed>4.1272545</speed>
  </trkpt>
  <trkpt lat="5.972674" lon="-75.596165">
    <ele>2139</ele>
    <time>2014-06-16T12:07:25Z</time>
    <speed>4.0640144</speed>
  </trkpt>
  <trkpt lat="5.972593" lon="-75.596186">
    <ele>2138</ele>
    <time>2014-06-16T12:07:27Z</time>
    <speed>4.227532</speed>
  </trkpt>
  <trkpt lat="5.972500" lon="-75.596221">
    <ele>2138</ele>
    <time>2014-06-16T12:07:29Z</time>
    <speed>4.5224047</speed>
  </trkpt>
  <trkpt lat="5.972387" lon="-75.596251">
    <ele>2136</ele>
    <time>2014-06-16T12:07:31Z</time>
    <speed>4.8750734</speed>
  </trkpt>
  <trkpt lat="5.972305" lon="-75.596274">
    <ele>2135</ele>
    <time>2014-06-16T12:07:33Z</time>
    <speed>5.0309234</speed>
  </trkpt>
  <trkpt lat="5.972217" lon="-75.596291">
    <ele>2135</ele>
    <time>2014-06-16T12:07:35Z</time>
    <speed>5.041572</speed>
  </trkpt>
  <trkpt lat="5.972116" lon="-75.596275">
    <ele>2134</ele>
    <time>2014-06-16T12:07:37Z</time>
    <speed>5.015533</speed>
  </trkpt>
  <trkpt lat="5.972019" lon="-75.596229">
    <ele>2133</ele>
    <time>2014-06-16T12:07:39Z</time>
    <speed>4.9734964</speed>
  </trkpt>
  <trkpt lat="5.971962" lon="-75.596171">
    <ele>2133</ele>
    <time>2014-06-16T12:07:41Z</time>
    <speed>4.8870277</speed>
  </trkpt>
  <trkpt lat="5.971921" lon="-75.596105">
    <ele>2132</ele>
    <time>2014-06-16T12:07:43Z</time>
    <speed>4.691495</speed>
  </trkpt>
  <trkpt lat="5.971892" lon="-75.596040">
    <ele>2132</ele>
    <time>2014-06-16T12:07:45Z</time>
    <speed>4.590508</speed>
  </trkpt>
  <trkpt lat="5.971864" lon="-75.595965">
    <ele>2131</ele>
    <time>2014-06-16T12:07:47Z</time>
    <speed>4.6197686</speed>
  </trkpt>
  <trkpt lat="5.971824" lon="-75.595876">
    <ele>2130</ele>
    <time>2014-06-16T12:07:49Z</time>
    <speed>4.702027</speed>
  </trkpt>
  <trkpt lat="5.971757" lon="-75.595768">
    <ele>2130</ele>
    <time>2014-06-16T12:07:51Z</time>
    <speed>4.8165</speed>
  </trkpt>
  <trkpt lat="5.971687" lon="-75.595685">
    <ele>2129</ele>
    <time>2014-06-16T12:07:53Z</time>
    <speed>4.9308205</speed>
  </trkpt>
  <trkpt lat="5.971632" lon="-75.595632">
    <ele>2128</ele>
    <time>2014-06-16T12:07:55Z</time>
    <speed>4.780291</speed>
  </trkpt>
  <trkpt lat="5.971568" lon="-75.595580">
    <ele>2127</ele>
    <time>2014-06-16T12:07:57Z</time>
    <speed>4.6679177</speed>
  </trkpt>
  <trkpt lat="5.971497" lon="-75.595524">
    <ele>2126</ele>
    <time>2014-06-16T12:07:59Z</time>
    <speed>4.6131787</speed>
  </trkpt>
  <trkpt lat="5.971428" lon="-75.595480">
    <ele>2127</ele>
    <time>2014-06-16T12:08:01Z</time>
    <speed>4.6062007</speed>
  </trkpt>
  <trkpt lat="5.971364" lon="-75.595429">
    <ele>2125</ele>
    <time>2014-06-16T12:08:03Z</time>
    <speed>4.601219</speed>
  </trkpt>
  <trkpt lat="5.971292" lon="-75.595385">
    <ele>2124</ele>
    <time>2014-06-16T12:08:05Z</time>
    <speed>4.5462427</speed>
  </trkpt>
  <trkpt lat="5.971226" lon="-75.595343">
    <ele>2123</ele>
    <time>2014-06-16T12:08:07Z</time>
    <speed>4.44852</speed>
  </trkpt>
  <trkpt lat="5.971169" lon="-75.595298">
    <ele>2124</ele>
    <time>2014-06-16T12:08:09Z</time>
    <speed>4.3344526</speed>
  </trkpt>
  <trkpt lat="5.971122" lon="-75.595249">
    <ele>2123</ele>
    <time>2014-06-16T12:08:11Z</time>
    <speed>4.280322</speed>
  </trkpt>
  <trkpt lat="5.971086" lon="-75.595204">
    <ele>2123</ele>
    <time>2014-06-16T12:08:13Z</time>
    <speed>4.157227</speed>
  </trkpt>
  <trkpt lat="5.971048" lon="-75.595148">
    <ele>2121</ele>
    <time>2014-06-16T12:08:15Z</time>
    <speed>4.1127105</speed>
  </trkpt>
  <trkpt lat="5.971003" lon="-75.595079">
    <ele>2122</ele>
    <time>2014-06-16T12:08:17Z</time>
    <speed>4.1210427</speed>
  </trkpt>
  <trkpt lat="5.970959" lon="-75.595010">
    <ele>2120</ele>
    <time>2014-06-16T12:08:19Z</time>
    <speed>4.1095877</speed>
  </trkpt>
  <trkpt lat="5.970909" lon="-75.594944">
    <ele>2121</ele>
    <time>2014-06-16T12:08:21Z</time>
    <speed>4.1555614</speed>
  </trkpt>
  <trkpt lat="5.970839" lon="-75.594876">
    <ele>2120</ele>
    <time>2014-06-16T12:08:23Z</time>
    <speed>4.2302737</speed>
  </trkpt>
  <trkpt lat="5.970780" lon="-75.594829">
    <ele>2119</ele>
    <time>2014-06-16T12:08:25Z</time>
    <speed>4.158131</speed>
  </trkpt>
  <trkpt lat="5.970729" lon="-75.594780">
    <ele>2118</ele>
    <time>2014-06-16T12:08:27Z</time>
    <speed>4.0955367</speed>
  </trkpt>
  <trkpt lat="5.970669" lon="-75.594730">
    <ele>2117</ele>
    <time>2014-06-16T12:08:29Z</time>
    <speed>4.1282477</speed>
  </trkpt>
  <trkpt lat="5.970612" lon="-75.594682">
    <ele>2118</ele>
    <time>2014-06-16T12:08:31Z</time>
    <speed>4.135461</speed>
  </trkpt>
  <trkpt lat="5.970560" lon="-75.594642">
    <ele>2119</ele>
    <time>2014-06-16T12:08:33Z</time>
    <speed>4.1205773</speed>
  </trkpt>
  <trkpt lat="5.970505" lon="-75.594594">
    <ele>2118</ele>
    <time>2014-06-16T12:08:35Z</time>
    <speed>4.1318836</speed>
  </trkpt>
  <trkpt lat="5.970438" lon="-75.594541">
    <ele>2118</ele>
    <time>2014-06-16T12:08:37Z</time>
    <speed>4.1905375</speed>
  </trkpt>
  <trkpt lat="5.970347" lon="-75.594493">
    <ele>2117</ele>
    <time>2014-06-16T12:08:39Z</time>
    <speed>4.2916136</speed>
  </trkpt>
  <trkpt lat="5.970264" lon="-75.594468">
    <ele>2118</ele>
    <time>2014-06-16T12:08:41Z</time>
    <speed>4.2747283</speed>
  </trkpt>
  <trkpt lat="5.970200" lon="-75.594456">
    <ele>2117</ele>
    <time>2014-06-16T12:08:43Z</time>
    <speed>4.093734</speed>
  </trkpt>
  <trkpt lat="5.970137" lon="-75.594441">
    <ele>2117</ele>
    <time>2014-06-16T12:08:45Z</time>
    <speed>3.9854221</speed>
  </trkpt>
  <trkpt lat="5.970077" lon="-75.594418">
    <ele>2116</ele>
    <time>2014-06-16T12:08:47Z</time>
    <speed>3.7865846</speed>
  </trkpt>
  <trkpt lat="5.970022" lon="-75.594390">
    <ele>2116</ele>
    <time>2014-06-16T12:08:50Z</time>
    <speed>3.3206258</speed>
  </trkpt>
  <trkpt lat="5.969975" lon="-75.594363">
    <ele>2117</ele>
    <time>2014-06-16T12:08:53Z</time>
    <speed>2.9960837</speed>
  </trkpt>
  <trkpt lat="5.969923" lon="-75.594328">
    <ele>2115</ele>
    <time>2014-06-16T12:08:56Z</time>
    <speed>2.7568252</speed>
  </trkpt>
  <trkpt lat="5.969881" lon="-75.594307">
    <ele>2116</ele>
    <time>2014-06-16T12:08:58Z</time>
    <speed>2.6210668</speed>
  </trkpt>
  <trkpt lat="5.969834" lon="-75.594285">
    <ele>2115</ele>
    <time>2014-06-16T12:09:01Z</time>
    <speed>2.4636493</speed>
  </trkpt>
  <trkpt lat="5.969789" lon="-75.594269">
    <ele>2114</ele>
    <time>2014-06-16T12:09:09Z</time>
    <speed>0.8287278</speed>
  </trkpt>
  <trkpt lat="5.969742" lon="-75.594276">
    <ele>2116</ele>
    <time>2014-06-16T12:09:19Z</time>
    <speed>1.1834625</speed>
  </trkpt>
  <trkpt lat="5.969709" lon="-75.594244">
    <ele>2114</ele>
    <time>2014-06-16T12:09:28Z</time>
    <speed>0.0</speed>
  </trkpt>
  <trkpt lat="5.969648" lon="-75.594233">
    <ele>2115</ele>
    <time>2014-06-16T12:09:49Z</time>
    <speed>0.32223573</speed>
  </trkpt>
  <trkpt lat="5.969591" lon="-75.594225">
    <ele>2115</ele>
    <time>2014-06-16T12:09:54Z</time>
    <speed>1.3614382</speed>
  </trkpt>
  <trkpt lat="5.969543" lon="-75.594231">
    <ele>2114</ele>
    <time>2014-06-16T12:09:58Z</time>
    <speed>1.3543681</speed>
  </trkpt>
  <trkpt lat="5.969499" lon="-75.594216">
    <ele>2114</ele>
    <time>2014-06-16T12:10:07Z</time>
    <speed>0.0</speed>
  </trkpt>
  <trkpt lat="5.969439" lon="-75.594195">
    <ele>2114</ele>
    <time>2014-06-16T12:10:20Z</time>
    <speed>0.54186404</speed>
  </trkpt>
  <trkpt lat="5.969391" lon="-75.594181">
    <ele>2114</ele>
    <time>2014-06-16T12:10:23Z</time>
    <speed>1.9606907</speed>
  </trkpt>
  <trkpt lat="5.969340" lon="-75.594181">
    <ele>2114</ele>
    <time>2014-06-16T12:10:29Z</time>
    <speed>1.515831</speed>
  </trkpt>
  <trkpt lat="5.969279" lon="-75.594173">
    <ele>2114</ele>
    <time>2014-06-16T12:10:32Z</time>
    <speed>1.5438762</speed>
  </trkpt>
  <trkpt lat="5.969224" lon="-75.594181">
    <ele>2113</ele>
    <time>2014-06-16T12:10:39Z</time>
    <speed>1.3023763</speed>
  </trkpt>
  <trkpt lat="5.969173" lon="-75.594172">
    <ele>2114</ele>
    <time>2014-06-16T12:10:42Z</time>
    <speed>1.4375228</speed>
  </trkpt>
  <trkpt lat="5.969114" lon="-75.594173">
    <ele>2113</ele>
    <time>2014-06-16T12:11:03Z</time>
    <speed>2.0606782</speed>
  </trkpt>
  <trkpt lat="5.969045" lon="-75.594157">
    <ele>2114</ele>
    <time>2014-06-16T12:11:05Z</time>
    <speed>2.3715858</speed>
  </trkpt>
  <trkpt lat="5.968997" lon="-75.594153">
    <ele>2113</ele>
    <time>2014-06-16T12:11:07Z</time>
    <speed>2.250809</speed>
  </trkpt>
  <trkpt lat="5.968935" lon="-75.594152">
    <ele>2113</ele>
    <time>2014-06-16T12:11:24Z</time>
    <speed>1.097329</speed>
  </trkpt>
  <trkpt lat="5.968886" lon="-75.594139">
    <ele>2112</ele>
    <time>2014-06-16T12:11:30Z</time>
    <speed>0.56469375</speed>
  </trkpt>
  <trkpt lat="5.968836" lon="-75.594114">
    <ele>2113</ele>
    <time>2014-06-16T12:11:33Z</time>
    <speed>2.7295444</speed>
  </trkpt>
  <trkpt lat="5.968754" lon="-75.594088">
    <ele>2112</ele>
    <time>2014-06-16T12:11:35Z</time>
    <speed>3.2932954</speed>
  </trkpt>
  <trkpt lat="5.968647" lon="-75.594065">
    <ele>2113</ele>
    <time>2014-06-16T12:11:37Z</time>
    <speed>3.6418204</speed>
  </trkpt>
  <trkpt lat="5.968538" lon="-75.594054">
    <ele>2114</ele>
    <time>2014-06-16T12:11:39Z</time>
    <speed>4.021214</speed>
  </trkpt>
  <trkpt lat="5.968429" lon="-75.594032">
    <ele>2113</ele>
    <time>2014-06-16T12:11:41Z</time>
    <speed>4.462986</speed>
  </trkpt>
  <trkpt lat="5.968291" lon="-75.593986">
    <ele>2112</ele>
    <time>2014-06-16T12:11:43Z</time>
    <speed>5.0048747</speed>
  </trkpt>
  <trkpt lat="5.968171" lon="-75.593907">
    <ele>2111</ele>
    <time>2014-06-16T12:11:45Z</time>
    <speed>8.528888</speed>
  </trkpt>
  <trkpt lat="5.968086" lon="-75.593735">
    <ele>2112</ele>
    <time>2014-06-16T12:11:47Z</time>
    <speed>9.163779</speed>
  </trkpt>
  <trkpt lat="5.968068" lon="-75.593543">
    <ele>2113</ele>
    <time>2014-06-16T12:11:49Z</time>
    <speed>10.758878</speed>
  </trkpt>
  <trkpt lat="5.968042" lon="-75.593327">
    <ele>2114</ele>
    <time>2014-06-16T12:11:51Z</time>
    <speed>12.216138</speed>
  </trkpt>
  <trkpt lat="5.967948" lon="-75.593113">
    <ele>2113</ele>
    <time>2014-06-16T12:11:53Z</time>
    <speed>13.015396</speed>
  </trkpt>
  <trkpt lat="5.967820" lon="-75.592872">
    <ele>2112</ele>
    <time>2014-06-16T12:11:55Z</time>
    <speed>13.610046</speed>
  </trkpt>
  <trkpt lat="5.967677" lon="-75.592656">
    <ele>2112</ele>
    <time>2014-06-16T12:11:57Z</time>
    <speed>13.312954</speed>
  </trkpt>
  <trkpt lat="5.967544" lon="-75.592478">
    <ele>2111</ele>
    <time>2014-06-16T12:11:59Z</time>
    <speed>11.744645</speed>
  </trkpt>
  <trkpt lat="5.967412" lon="-75.592307">
    <ele>2111</ele>
    <time>2014-06-16T12:12:01Z</time>
    <speed>12.532237</speed>
  </trkpt>
  <trkpt lat="5.967271" lon="-75.592127">
    <ele>2109</ele>
    <time>2014-06-16T12:12:03Z</time>
    <speed>12.243008</speed>
  </trkpt>
  <trkpt lat="5.967115" lon="-75.592000">
    <ele>2108</ele>
    <time>2014-06-16T12:12:05Z</time>
    <speed>10.586532</speed>
  </trkpt>
  <trkpt lat="5.966995" lon="-75.591939">
    <ele>2105</ele>
    <time>2014-06-16T12:12:07Z</time>
    <speed>6.3052497</speed>
  </trkpt>
  <trkpt lat="5.966891" lon="-75.591903">
    <ele>2105</ele>
    <time>2014-06-16T12:12:09Z</time>
    <speed>5.420812</speed>
  </trkpt>
  <trkpt lat="5.966793" lon="-75.591872">
    <ele>2105</ele>
    <time>2014-06-16T12:12:11Z</time>
    <speed>5.903376</speed>
  </trkpt>
  <trkpt lat="5.966682" lon="-75.591831">
    <ele>2105</ele>
    <time>2014-06-16T12:12:13Z</time>
    <speed>6.419169</speed>
  </trkpt>
  <trkpt lat="5.966581" lon="-75.591749">
    <ele>2106</ele>
    <time>2014-06-16T12:12:15Z</time>
    <speed>7.6602707</speed>
  </trkpt>
  <trkpt lat="5.966517" lon="-75.591594">
    <ele>2106</ele>
    <time>2014-06-16T12:12:17Z</time>
    <speed>10.027909</speed>
  </trkpt>
  <trkpt lat="5.966450" lon="-75.591407">
    <ele>2106</ele>
    <time>2014-06-16T12:12:19Z</time>
    <speed>10.958697</speed>
  </trkpt>
  <trkpt lat="5.966385" lon="-75.591204">
    <ele>2106</ele>
    <time>2014-06-16T12:12:21Z</time>
    <speed>11.360876</speed>
  </trkpt>
  <trkpt lat="5.966304" lon="-75.591008">
    <ele>2105</ele>
    <time>2014-06-16T12:12:23Z</time>
    <speed>11.748192</speed>
  </trkpt>
  <trkpt lat="5.966203" lon="-75.590817">
    <ele>2104</ele>
    <time>2014-06-16T12:12:25Z</time>
    <speed>11.520375</speed>
  </trkpt>
  <trkpt lat="5.966096" lon="-75.590650">
    <ele>2103</ele>
    <time>2014-06-16T12:12:27Z</time>
    <speed>10.397976</speed>
  </trkpt>
  <trkpt lat="5.965999" lon="-75.590502">
    <ele>2101</ele>
    <time>2014-06-16T12:12:29Z</time>
    <speed>9.754317</speed>
  </trkpt>
  <trkpt lat="5.965911" lon="-75.590350">
    <ele>2099</ele>
    <time>2014-06-16T12:12:31Z</time>
    <speed>9.559239</speed>
  </trkpt>
  <trkpt lat="5.965848" lon="-75.590212">
    <ele>2100</ele>
    <time>2014-06-16T12:12:33Z</time>
    <speed>8.103383</speed>
  </trkpt>
  <trkpt lat="5.965817" lon="-75.590102">
    <ele>2099</ele>
    <time>2014-06-16T12:12:35Z</time>
    <speed>6.478379</speed>
  </trkpt>
  <trkpt lat="5.965801" lon="-75.590004">
    <ele>2098</ele>
    <time>2014-06-16T12:12:37Z</time>
    <speed>5.374269</speed>
  </trkpt>
  <trkpt lat="5.965794" lon="-75.589926">
    <ele>2096</ele>
    <time>2014-06-16T12:12:39Z</time>
    <speed>3.9928887</speed>
  </trkpt>
  <trkpt lat="5.965777" lon="-75.589862">
    <ele>2097</ele>
    <time>2014-06-16T12:12:41Z</time>
    <speed>2.776824</speed>
  </trkpt>
  <trkpt lat="5.965758" lon="-75.589802">
    <ele>2096</ele>
    <time>2014-06-16T12:12:43Z</time>
    <speed>2.787674</speed>
  </trkpt>
  <trkpt lat="5.965738" lon="-75.589755">
    <ele>2096</ele>
    <time>2014-06-16T12:12:45Z</time>
    <speed>3.18225</speed>
  </trkpt>
  <trkpt lat="5.965706" lon="-75.589695">
    <ele>2096</ele>
    <time>2014-06-16T12:12:47Z</time>
    <speed>4.962048</speed>
  </trkpt>
  <trkpt lat="5.965654" lon="-75.589598">
    <ele>2097</ele>
    <time>2014-06-16T12:12:49Z</time>
    <speed>6.2705956</speed>
  </trkpt>
  <trkpt lat="5.965570" lon="-75.589489">
    <ele>2097</ele>
    <time>2014-06-16T12:12:51Z</time>
    <speed>8.243519</speed>
  </trkpt>
  <trkpt lat="5.965450" lon="-75.589353">
    <ele>2097</ele>
    <time>2014-06-16T12:12:53Z</time>
    <speed>10.153897</speed>
  </trkpt>
  <trkpt lat="5.965304" lon="-75.589197">
    <ele>2095</ele>
    <time>2014-06-16T12:12:55Z</time>
    <speed>11.4360695</speed>
  </trkpt>
  <trkpt lat="5.965147" lon="-75.589029">
    <ele>2094</ele>
    <time>2014-06-16T12:12:57Z</time>
    <speed>12.543921</speed>
  </trkpt>
  <trkpt lat="5.964995" lon="-75.588856">
    <ele>2094</ele>
    <time>2014-06-16T12:12:59Z</time>
    <speed>12.519342</speed>
  </trkpt>
  <trkpt lat="5.964843" lon="-75.588684">
    <ele>2093</ele>
    <time>2014-06-16T12:13:01Z</time>
    <speed>12.41016</speed>
  </trkpt>
  <trkpt lat="5.964683" lon="-75.588517">
    <ele>2093</ele>
    <time>2014-06-16T12:13:03Z</time>
    <speed>12.4551325</speed>
  </trkpt>
  <trkpt lat="5.964526" lon="-75.588349">
    <ele>2094</ele>
    <time>2014-06-16T12:13:05Z</time>
    <speed>12.779995</speed>
  </trkpt>
  <trkpt lat="5.964379" lon="-75.588184">
    <ele>2096</ele>
    <time>2014-06-16T12:13:07Z</time>
    <speed>12.102568</speed>
  </trkpt>
  <trkpt lat="5.964226" lon="-75.588040">
    <ele>2097</ele>
    <time>2014-06-16T12:13:09Z</time>
    <speed>11.744388</speed>
  </trkpt>
  <trkpt lat="5.964071" lon="-75.587919">
    <ele>2097</ele>
    <time>2014-06-16T12:13:11Z</time>
    <speed>10.823605</speed>
  </trkpt>
  <trkpt lat="5.963923" lon="-75.587793">
    <ele>2098</ele>
    <time>2014-06-16T12:13:13Z</time>
    <speed>10.654692</speed>
  </trkpt>
  <trkpt lat="5.963777" lon="-75.587644">
    <ele>2099</ele>
    <time>2014-06-16T12:13:15Z</time>
    <speed>11.386742</speed>
  </trkpt>
  <trkpt lat="5.963649" lon="-75.587501">
    <ele>2097</ele>
    <time>2014-06-16T12:13:17Z</time>
    <speed>10.157416</speed>
  </trkpt>
  <trkpt lat="5.963513" lon="-75.587415">
    <ele>2096</ele>
    <time>2014-06-16T12:13:19Z</time>
    <speed>8.834956</speed>
  </trkpt>
  <trkpt lat="5.963376" lon="-75.587348">
    <ele>2097</ele>
    <time>2014-06-16T12:13:21Z</time>
    <speed>8.039072</speed>
  </trkpt>
  <trkpt lat="5.963243" lon="-75.587300">
    <ele>2096</ele>
    <time>2014-06-16T12:13:23Z</time>
    <speed>7.9472375</speed>
  </trkpt>
  <trkpt lat="5.963111" lon="-75.587266">
    <ele>2094</ele>
    <time>2014-06-16T12:13:25Z</time>
    <speed>5.9508</speed>
  </trkpt>
  <trkpt lat="5.963038" lon="-75.587261">
    <ele>2093</ele>
    <time>2014-06-16T12:13:27Z</time>
    <speed>3.5315752</speed>
  </trkpt>
  <trkpt lat="5.962993" lon="-75.587271">
    <ele>2092</ele>
    <time>2014-06-16T12:13:29Z</time>
    <speed>1.9671742</speed>
  </trkpt>
  <trkpt lat="5.962901" lon="-75.587289">
    <ele>2092</ele>
    <time>2014-06-16T12:14:18Z</time>
    <speed>1.0210048</speed>
  </trkpt>
  <trkpt lat="5.962850" lon="-75.587281">
    <ele>2091</ele>
    <time>2014-06-16T12:14:35Z</time>
    <speed>1.0033587</speed>
  </trkpt>
  <trkpt lat="5.962803" lon="-75.587272">
    <ele>2092</ele>
    <time>2014-06-16T12:14:41Z</time>
    <speed>1.180709</speed>
  </trkpt>
  <trkpt lat="5.962787" lon="-75.587334">
    <ele>2092</ele>
    <time>2014-06-16T12:21:45Z</time>
    <speed>0.63073015</speed>
  </trkpt>
  <trkpt lat="5.962714" lon="-75.587538">
    <ele>2091</ele>
    <time>2014-06-16T12:29:08Z</time>
    <speed>0.0</speed>
  </trkpt>
  <trkpt lat="5.962933" lon="-75.587341">
    <ele>2091</ele>
    <time>2014-06-16T12:31:18Z</time>
    <speed>0.24997263</speed>
  </trkpt>
  <trkpt lat="5.963030" lon="-75.587140">
    <ele>2091</ele>
    <time>2014-06-16T12:31:52Z</time>
    <speed>0.0</speed>
  </trkpt>
  <trkpt lat="5.962954" lon="-75.587317">
    <ele>2092</ele>
    <time>2014-06-16T12:32:57Z</time>
    <speed>0.32785934</speed>
  </trkpt>
  <trkpt lat="5.962742" lon="-75.587333">
    <ele>2091</ele>
    <time>2014-06-16T12:33:37Z</time>
    <speed>0.0</speed>
  </trkpt>
  <trkpt lat="5.963023" lon="-75.587289">
    <ele>2091</ele>
    <time>2014-06-16T12:41:40Z</time>
    <speed>0.06530078</speed>
  </trkpt>
  <trkpt lat="5.963068" lon="-75.587117">
    <ele>2091</ele>
    <time>2014-06-16T12:42:28Z</time>
    <speed>0.0</speed>
  </trkpt>
  <trkpt lat="5.963050" lon="-75.587075">
    <ele>2091</ele>
    <time>2014-06-16T12:44:35Z</time>
    <speed>0.03957794</speed>
  </trkpt>
  <trkpt lat="5.963016" lon="-75.587038">
    <ele>2091</ele>
    <time>2014-06-16T12:44:39Z</time>
    <speed>1.4739325</speed>
  </trkpt>
  <trkpt lat="5.962968" lon="-75.587050">
    <ele>2091</ele>
    <time>2014-06-16T12:44:43Z</time>
    <speed>0.0</speed>
  </trkpt>
  <trkpt lat="5.962920" lon="-75.587051">
    <ele>2090</ele>
    <time>2014-06-16T12:46:08Z</time>
    <speed>0.06258486</speed>
  </trkpt>
  <trkpt lat="5.962926" lon="-75.587099">
    <ele>2092</ele>
    <time>2014-06-16T12:46:25Z</time>
    <speed>1.397324</speed>
  </trkpt>
  <trkpt lat="5.962974" lon="-75.587109">
    <ele>2090</ele>
    <time>2014-06-16T12:46:30Z</time>
    <speed>1.1496856</speed>
  </trkpt>
  <trkpt lat="5.962760" lon="-75.587351">
    <ele>2090</ele>
    <time>2014-06-16T12:47:14Z</time>
    <speed>0.0</speed>
  </trkpt>
  <trkpt lat="5.962810" lon="-75.587315">
    <ele>2090</ele>
    <time>2014-06-16T12:48:46Z</time>
    <speed>0.07450542</speed>
  </trkpt>
  <trkpt lat="5.962787" lon="-75.587355">
    <ele>2089</ele>
    <time>2014-06-16T12:48:56Z</time>
    <speed>0.5228986</speed>
  </trkpt>
  <trkpt lat="5.962819" lon="-75.587313">
    <ele>2088</ele>
    <time>2014-06-16T12:49:09Z</time>
    <speed>1.8221104</speed>
  </trkpt>
  <trkpt lat="5.962856" lon="-75.587271">
    <ele>2092</ele>
    <time>2014-06-16T12:49:37Z</time>
    <speed>0.4156012</speed>
  </trkpt>
  <trkpt lat="5.962810" lon="-75.587257">
    <ele>2093</ele>
    <time>2014-06-16T12:49:58Z</time>
    <speed>1.6950893</speed>
  </trkpt>
  <trkpt lat="5.962749" lon="-75.587234">
    <ele>2093</ele>
    <time>2014-06-16T12:50:00Z</time>
    <speed>2.9917536</speed>
  </trkpt>
  <trkpt lat="5.962678" lon="-75.587197">
    <ele>2094</ele>
    <time>2014-06-16T12:50:02Z</time>
    <speed>3.8742502</speed>
  </trkpt>
  <trkpt lat="5.962579" lon="-75.587145">
    <ele>2092</ele>
    <time>2014-06-16T12:50:04Z</time>
    <speed>4.1990623</speed>
  </trkpt>
  <trkpt lat="5.962477" lon="-75.587084">
    <ele>2092</ele>
    <time>2014-06-16T12:50:06Z</time>
    <speed>4.5696635</speed>
  </trkpt>
  <trkpt lat="5.962354" lon="-75.587016">
    <ele>2094</ele>
    <time>2014-06-16T12:50:08Z</time>
    <speed>4.955142</speed>
  </trkpt>
  <trkpt lat="5.962225" lon="-75.586942">
    <ele>2094</ele>
    <time>2014-06-16T12:50:10Z</time>
    <speed>7.835122</speed>
  </trkpt>
  <trkpt lat="5.962094" lon="-75.586864">
    <ele>2095</ele>
    <time>2014-06-16T12:50:12Z</time>
    <speed>7.989074</speed>
  </trkpt>
  <trkpt lat="5.961965" lon="-75.586784">
    <ele>2096</ele>
    <time>2014-06-16T12:50:14Z</time>
    <speed>8.582726</speed>
  </trkpt>
  <trkpt lat="5.961836" lon="-75.586706">
    <ele>2096</ele>
    <time>2014-06-16T12:50:16Z</time>
    <speed>8.262326</speed>
  </trkpt>
  <trkpt lat="5.961723" lon="-75.586631">
    <ele>2095</ele>
    <time>2014-06-16T12:50:18Z</time>
    <speed>7.5072126</speed>
  </trkpt>
  <trkpt lat="5.961591" lon="-75.586556">
    <ele>2096</ele>
    <time>2014-06-16T12:50:20Z</time>
    <speed>7.09807</speed>
  </trkpt>
  <trkpt lat="5.961451" lon="-75.586559">
    <ele>2095</ele>
    <time>2014-06-16T12:50:22Z</time>
    <speed>8.624489</speed>
  </trkpt>
  <trkpt lat="5.961299" lon="-75.586650">
    <ele>2095</ele>
    <time>2014-06-16T12:50:24Z</time>
    <speed>9.561116</speed>
  </trkpt>
  <trkpt lat="5.961156" lon="-75.586757">
    <ele>2094</ele>
    <time>2014-06-16T12:50:26Z</time>
    <speed>9.970509</speed>
  </trkpt>
  <trkpt lat="5.960978" lon="-75.586836">
    <ele>2094</ele>
    <time>2014-06-16T12:50:28Z</time>
    <speed>10.999454</speed>
  </trkpt>
  <trkpt lat="5.960784" lon="-75.586884">
    <ele>2092</ele>
    <time>2014-06-16T12:50:30Z</time>
    <speed>10.592738</speed>
  </trkpt>
  <trkpt lat="5.960562" lon="-75.586916">
    <ele>2090</ele>
    <time>2014-06-16T12:50:32Z</time>
    <speed>10.948538</speed>
  </trkpt>
  <trkpt lat="5.960341" lon="-75.586930">
    <ele>2089</ele>
    <time>2014-06-16T12:50:34Z</time>
    <speed>11.699298</speed>
  </trkpt>
  <trkpt lat="5.960145" lon="-75.586942">
    <ele>2087</ele>
    <time>2014-06-16T12:50:36Z</time>
    <speed>11.105689</speed>
  </trkpt>
  <trkpt lat="5.959945" lon="-75.586942">
    <ele>2084</ele>
    <time>2014-06-16T12:50:38Z</time>
    <speed>10.875737</speed>
  </trkpt>
  <trkpt lat="5.959731" lon="-75.586872">
    <ele>2085</ele>
    <time>2014-06-16T12:50:40Z</time>
    <speed>11.703728</speed>
  </trkpt>
  <trkpt lat="5.959523" lon="-75.586780">
    <ele>2083</ele>
    <time>2014-06-16T12:50:42Z</time>
    <speed>11.656191</speed>
  </trkpt>
  <trkpt lat="5.959351" lon="-75.586717">
    <ele>2081</ele>
    <time>2014-06-16T12:50:44Z</time>
    <speed>9.682248</speed>
  </trkpt>
  <trkpt lat="5.959181" lon="-75.586680">
    <ele>2081</ele>
    <time>2014-06-16T12:50:46Z</time>
    <speed>9.727613</speed>
  </trkpt>
  <trkpt lat="5.959004" lon="-75.586718">
    <ele>2076</ele>
    <time>2014-06-16T12:50:48Z</time>
    <speed>10.8811035</speed>
  </trkpt>
  <trkpt lat="5.958854" lon="-75.586770">
    <ele>2075</ele>
    <time>2014-06-16T12:50:50Z</time>
    <speed>8.890827</speed>
  </trkpt>
  <trkpt lat="5.958681" lon="-75.586782">
    <ele>2075</ele>
    <time>2014-06-16T12:50:52Z</time>
    <speed>9.607985</speed>
  </trkpt>
  <trkpt lat="5.958490" lon="-75.586703">
    <ele>2073</ele>
    <time>2014-06-16T12:50:54Z</time>
    <speed>10.648502</speed>
  </trkpt>
  <trkpt lat="5.958305" lon="-75.586595">
    <ele>2073</ele>
    <time>2014-06-16T12:50:56Z</time>
    <speed>11.600815</speed>
  </trkpt>
  <trkpt lat="5.958076" lon="-75.586475">
    <ele>2073</ele>
    <time>2014-06-16T12:50:58Z</time>
    <speed>13.209567</speed>
  </trkpt>
  <trkpt lat="5.957831" lon="-75.586410">
    <ele>2070</ele>
    <time>2014-06-16T12:51:00Z</time>
    <speed>13.681586</speed>
  </trkpt>
  <trkpt lat="5.957603" lon="-75.586336">
    <ele>2067</ele>
    <time>2014-06-16T12:51:02Z</time>
    <speed>13.176665</speed>
  </trkpt>
  <trkpt lat="5.957397" lon="-75.586263">
    <ele>2065</ele>
    <time>2014-06-16T12:51:04Z</time>
    <speed>11.867021</speed>
  </trkpt>
  <trkpt lat="5.957197" lon="-75.586201">
    <ele>2063</ele>
    <time>2014-06-16T12:51:06Z</time>
    <speed>11.453005</speed>
  </trkpt>
  <trkpt lat="5.957019" lon="-75.586083">
    <ele>2062</ele>
    <time>2014-06-16T12:51:08Z</time>
    <speed>12.280647</speed>
  </trkpt>
  <trkpt lat="5.956824" lon="-75.585930">
    <ele>2062</ele>
    <time>2014-06-16T12:51:10Z</time>
    <speed>13.295375</speed>
  </trkpt>
  <trkpt lat="5.956628" lon="-75.585762">
    <ele>2060</ele>
    <time>2014-06-16T12:51:12Z</time>
    <speed>14.378016</speed>
  </trkpt>
  <trkpt lat="5.956402" lon="-75.585642">
    <ele>2057</ele>
    <time>2014-06-16T12:51:14Z</time>
    <speed>13.640821</speed>
  </trkpt>
  <trkpt lat="5.956142" lon="-75.585580">
    <ele>2056</ele>
    <time>2014-06-16T12:51:16Z</time>
    <speed>13.367058</speed>
  </trkpt>
  <trkpt lat="5.955906" lon="-75.585559">
    <ele>2054</ele>
    <time>2014-06-16T12:51:18Z</time>
    <speed>12.301066</speed>
  </trkpt>
  <trkpt lat="5.955682" lon="-75.585632">
    <ele>2051</ele>
    <time>2014-06-16T12:51:20Z</time>
    <speed>12.814686</speed>
  </trkpt>
  <trkpt lat="5.955491" lon="-75.585716">
    <ele>2050</ele>
    <time>2014-06-16T12:51:22Z</time>
    <speed>12.265629</speed>
  </trkpt>
  <trkpt lat="5.955254" lon="-75.585793">
    <ele>2048</ele>
    <time>2014-06-16T12:51:24Z</time>
    <speed>13.167243</speed>
  </trkpt>
  <trkpt lat="5.955024" lon="-75.585855">
    <ele>2046</ele>
    <time>2014-06-16T12:51:26Z</time>
    <speed>12.030186</speed>
  </trkpt>
  <trkpt lat="5.954806" lon="-75.585876">
    <ele>2043</ele>
    <time>2014-06-16T12:51:28Z</time>
    <speed>10.615218</speed>
  </trkpt>
  <trkpt lat="5.954635" lon="-75.585818">
    <ele>2040</ele>
    <time>2014-06-16T12:51:30Z</time>
    <speed>9.948905</speed>
  </trkpt>
  <trkpt lat="5.954491" lon="-75.585660">
    <ele>2042</ele>
    <time>2014-06-16T12:51:32Z</time>
    <speed>11.371588</speed>
  </trkpt>
  <trkpt lat="5.954349" lon="-75.585445">
    <ele>2041</ele>
    <time>2014-06-16T12:51:34Z</time>
    <speed>14.296566</speed>
  </trkpt>
  <trkpt lat="5.954179" lon="-75.585230">
    <ele>2039</ele>
    <time>2014-06-16T12:51:36Z</time>
    <speed>15.637902</speed>
  </trkpt>
  <trkpt lat="5.953951" lon="-75.585002">
    <ele>2039</ele>
    <time>2014-06-16T12:51:38Z</time>
    <speed>16.822195</speed>
  </trkpt>
  <trkpt lat="5.953704" lon="-75.584798">
    <ele>2039</ele>
    <time>2014-06-16T12:51:40Z</time>
    <speed>16.814106</speed>
  </trkpt>
  <trkpt lat="5.953448" lon="-75.584636">
    <ele>2036</ele>
    <time>2014-06-16T12:51:42Z</time>
    <speed>16.467524</speed>
  </trkpt>
  <trkpt lat="5.953196" lon="-75.584502">
    <ele>2032</ele>
    <time>2014-06-16T12:51:44Z</time>
    <speed>15.161662</speed>
  </trkpt>
  <trkpt lat="5.952937" lon="-75.584427">
    <ele>2029</ele>
    <time>2014-06-16T12:51:46Z</time>
    <speed>14.902899</speed>
  </trkpt>
  <trkpt lat="5.952665" lon="-75.584444">
    <ele>2028</ele>
    <time>2014-06-16T12:51:48Z</time>
    <speed>15.880954</speed>
  </trkpt>
  <trkpt lat="5.952377" lon="-75.584504">
    <ele>2026</ele>
    <time>2014-06-16T12:51:50Z</time>
    <speed>16.751152</speed>
  </trkpt>
  <trkpt lat="5.952063" lon="-75.584574">
    <ele>2023</ele>
    <time>2014-06-16T12:51:52Z</time>
    <speed>17.256346</speed>
  </trkpt>
  <trkpt lat="5.951750" lon="-75.584652">
    <ele>2019</ele>
    <time>2014-06-16T12:51:54Z</time>
    <speed>16.332506</speed>
  </trkpt>
  <trkpt lat="5.951479" lon="-75.584733">
    <ele>2017</ele>
    <time>2014-06-16T12:51:56Z</time>
    <speed>14.3132715</speed>
  </trkpt>
  <trkpt lat="5.951233" lon="-75.584808">
    <ele>2016</ele>
    <time>2014-06-16T12:51:58Z</time>
    <speed>13.9859705</speed>
  </trkpt>
  <trkpt lat="5.950951" lon="-75.584813">
    <ele>2015</ele>
    <time>2014-06-16T12:52:00Z</time>
    <speed>16.246777</speed>
  </trkpt>
  <trkpt lat="5.950626" lon="-75.584803">
    <ele>2014</ele>
    <time>2014-06-16T12:52:02Z</time>
    <speed>17.297232</speed>
  </trkpt>
  <trkpt lat="5.950287" lon="-75.584765">
    <ele>2012</ele>
    <time>2014-06-16T12:52:04Z</time>
    <speed>18.826569</speed>
  </trkpt>
  <trkpt lat="5.949926" lon="-75.584713">
    <ele>2011</ele>
    <time>2014-06-16T12:52:06Z</time>
    <speed>19.512451</speed>
  </trkpt>
  <trkpt lat="5.949572" lon="-75.584666">
    <ele>2008</ele>
    <time>2014-06-16T12:52:08Z</time>
    <speed>19.02341</speed>
  </trkpt>
  <trkpt lat="5.949231" lon="-75.584625">
    <ele>2005</ele>
    <time>2014-06-16T12:52:10Z</time>
    <speed>18.059862</speed>
  </trkpt>
  <trkpt lat="5.948905" lon="-75.584599">
    <ele>2002</ele>
    <time>2014-06-16T12:52:12Z</time>
    <speed>17.738022</speed>
  </trkpt>
  <trkpt lat="5.948580" lon="-75.584548">
    <ele>1999</ele>
    <time>2014-06-16T12:52:14Z</time>
    <speed>18.225206</speed>
  </trkpt>
  <trkpt lat="5.948270" lon="-75.584460">
    <ele>1997</ele>
    <time>2014-06-16T12:52:16Z</time>
    <speed>17.586082</speed>
  </trkpt>
  <trkpt lat="5.947978" lon="-75.584365">
    <ele>1994</ele>
    <time>2014-06-16T12:52:18Z</time>
    <speed>15.876627</speed>
  </trkpt>
  <trkpt lat="5.947697" lon="-75.584365">
    <ele>1991</ele>
    <time>2014-06-16T12:52:20Z</time>
    <speed>15.850214</speed>
  </trkpt>
  <trkpt lat="5.947420" lon="-75.584366">
    <ele>1988</ele>
    <time>2014-06-16T12:52:22Z</time>
    <speed>14.8086</speed>
  </trkpt>
  <trkpt lat="5.947179" lon="-75.584378">
    <ele>1984</ele>
    <time>2014-06-16T12:52:24Z</time>
    <speed>12.244515</speed>
  </trkpt>
  <trkpt lat="5.946961" lon="-75.584331">
    <ele>1984</ele>
    <time>2014-06-16T12:52:26Z</time>
    <speed>13.099228</speed>
  </trkpt>
  <trkpt lat="5.946746" lon="-75.584223">
    <ele>1982</ele>
    <time>2014-06-16T12:52:28Z</time>
    <speed>14.993251</speed>
  </trkpt>
  <trkpt lat="5.946517" lon="-75.584073">
    <ele>1979</ele>
    <time>2014-06-16T12:52:30Z</time>
    <speed>12.963621</speed>
  </trkpt>
  <trkpt lat="5.946281" lon="-75.583999">
    <ele>1978</ele>
    <time>2014-06-16T12:52:32Z</time>
    <speed>12.2229805</speed>
  </trkpt>
  <trkpt lat="5.946050" lon="-75.583997">
    <ele>1976</ele>
    <time>2014-06-16T12:52:34Z</time>
    <speed>13.5855055</speed>
  </trkpt>
  <trkpt lat="5.945799" lon="-75.583981">
    <ele>1976</ele>
    <time>2014-06-16T12:52:36Z</time>
    <speed>14.584837</speed>
  </trkpt>
  <trkpt lat="5.945544" lon="-75.583889">
    <ele>1975</ele>
    <time>2014-06-16T12:52:38Z</time>
    <speed>14.942718</speed>
  </trkpt>
  <trkpt lat="5.945261" lon="-75.583837">
    <ele>1973</ele>
    <time>2014-06-16T12:52:40Z</time>
    <speed>14.876791</speed>
  </trkpt>
  <trkpt lat="5.944973" lon="-75.583853">
    <ele>1974</ele>
    <time>2014-06-16T12:52:42Z</time>
    <speed>16.72601</speed>
  </trkpt>
  <trkpt lat="5.944669" lon="-75.583897">
    <ele>1972</ele>
    <time>2014-06-16T12:52:44Z</time>
    <speed>17.415047</speed>
  </trkpt>
  <trkpt lat="5.944368" lon="-75.583939">
    <ele>1971</ele>
    <time>2014-06-16T12:52:46Z</time>
    <speed>17.417622</speed>
  </trkpt>
  <trkpt lat="5.944063" lon="-75.583969">
    <ele>1973</ele>
    <time>2014-06-16T12:52:48Z</time>
    <speed>17.344646</speed>
  </trkpt>
  <trkpt lat="5.943768" lon="-75.583978">
    <ele>1973</ele>
    <time>2014-06-16T12:52:50Z</time>
    <speed>15.562107</speed>
  </trkpt>
  <trkpt lat="5.943483" lon="-75.583967">
    <ele>1972</ele>
    <time>2014-06-16T12:52:52Z</time>
    <speed>15.324661</speed>
  </trkpt>
  <trkpt lat="5.943195" lon="-75.583952">
    <ele>1970</ele>
    <time>2014-06-16T12:52:54Z</time>
    <speed>16.118923</speed>
  </trkpt>
  <trkpt lat="5.942909" lon="-75.583967">
    <ele>1969</ele>
    <time>2014-06-16T12:52:56Z</time>
    <speed>16.430887</speed>
  </trkpt>
  <trkpt lat="5.942614" lon="-75.584014">
    <ele>1969</ele>
    <time>2014-06-16T12:52:58Z</time>
    <speed>16.666698</speed>
  </trkpt>
  <trkpt lat="5.942309" lon="-75.584076">
    <ele>1968</ele>
    <time>2014-06-16T12:53:00Z</time>
    <speed>16.697931</speed>
  </trkpt>
  <trkpt lat="5.942038" lon="-75.584139">
    <ele>1969</ele>
    <time>2014-06-16T12:53:02Z</time>
    <speed>15.757872</speed>
  </trkpt>
  <trkpt lat="5.941780" lon="-75.584195">
    <ele>1969</ele>
    <time>2014-06-16T12:53:04Z</time>
    <speed>13.827591</speed>
  </trkpt>
  <trkpt lat="5.941527" lon="-75.584222">
    <ele>1971</ele>
    <time>2014-06-16T12:53:06Z</time>
    <speed>13.461334</speed>
  </trkpt>
  <trkpt lat="5.941286" lon="-75.584171">
    <ele>1974</ele>
    <time>2014-06-16T12:53:08Z</time>
    <speed>13.059444</speed>
  </trkpt>
  <trkpt lat="5.941070" lon="-75.584121">
    <ele>1977</ele>
    <time>2014-06-16T12:53:10Z</time>
    <speed>13.039074</speed>
  </trkpt>
  <trkpt lat="5.940841" lon="-75.584102">
    <ele>1979</ele>
    <time>2014-06-16T12:53:12Z</time>
    <speed>12.874751</speed>
  </trkpt>
  <trkpt lat="5.940601" lon="-75.584110">
    <ele>1979</ele>
    <time>2014-06-16T12:53:14Z</time>
    <speed>12.453057</speed>
  </trkpt>
  <trkpt lat="5.940382" lon="-75.584112">
    <ele>1983</ele>
    <time>2014-06-16T12:53:16Z</time>
    <speed>12.780676</speed>
  </trkpt>
  <trkpt lat="5.940160" lon="-75.584108">
    <ele>1982</ele>
    <time>2014-06-16T12:53:18Z</time>
    <speed>12.068725</speed>
  </trkpt>
  <trkpt lat="5.939968" lon="-75.584163">
    <ele>1981</ele>
    <time>2014-06-16T12:53:20Z</time>
    <speed>10.721164</speed>
  </trkpt>
  <trkpt lat="5.939843" lon="-75.584307">
    <ele>1982</ele>
    <time>2014-06-16T12:53:22Z</time>
    <speed>11.054652</speed>
  </trkpt>
  <trkpt lat="5.939739" lon="-75.584463">
    <ele>1983</ele>
    <time>2014-06-16T12:53:24Z</time>
    <speed>10.156372</speed>
  </trkpt>
  <trkpt lat="5.939583" lon="-75.584575">
    <ele>1985</ele>
    <time>2014-06-16T12:53:26Z</time>
    <speed>10.723955</speed>
  </trkpt>
  <trkpt lat="5.939382" lon="-75.584587">
    <ele>1988</ele>
    <time>2014-06-16T12:53:28Z</time>
    <speed>10.770755</speed>
  </trkpt>
  <trkpt lat="5.939166" lon="-75.584582">
    <ele>1988</ele>
    <time>2014-06-16T12:53:30Z</time>
    <speed>11.512807</speed>
  </trkpt>
  <trkpt lat="5.938948" lon="-75.584574">
    <ele>1989</ele>
    <time>2014-06-16T12:53:32Z</time>
    <speed>11.956955</speed>
  </trkpt>
  <trkpt lat="5.938729" lon="-75.584570">
    <ele>1990</ele>
    <time>2014-06-16T12:53:34Z</time>
    <speed>12.544389</speed>
  </trkpt>
  <trkpt lat="5.938493" lon="-75.584548">
    <ele>1991</ele>
    <time>2014-06-16T12:53:36Z</time>
    <speed>13.235542</speed>
  </trkpt>
  <trkpt lat="5.938252" lon="-75.584448">
    <ele>1990</ele>
    <time>2014-06-16T12:53:38Z</time>
    <speed>13.941433</speed>
  </trkpt>
  <trkpt lat="5.938022" lon="-75.584325">
    <ele>1989</ele>
    <time>2014-06-16T12:53:40Z</time>
    <speed>13.439178</speed>
  </trkpt>
  <trkpt lat="5.937811" lon="-75.584183">
    <ele>1990</ele>
    <time>2014-06-16T12:53:42Z</time>
    <speed>13.680498</speed>
  </trkpt>
  <trkpt lat="5.937621" lon="-75.584011">
    <ele>1992</ele>
    <time>2014-06-16T12:53:44Z</time>
    <speed>14.50205</speed>
  </trkpt>
  <trkpt lat="5.937445" lon="-75.583809">
    <ele>1990</ele>
    <time>2014-06-16T12:53:46Z</time>
    <speed>15.114772</speed>
  </trkpt>
  <trkpt lat="5.937281" lon="-75.583604">
    <ele>1991</ele>
    <time>2014-06-16T12:53:48Z</time>
    <speed>14.9185295</speed>
  </trkpt>
  <trkpt lat="5.937095" lon="-75.583406">
    <ele>1991</ele>
    <time>2014-06-16T12:53:50Z</time>
    <speed>15.317229</speed>
  </trkpt>
  <trkpt lat="5.936874" lon="-75.583209">
    <ele>1994</ele>
    <time>2014-06-16T12:53:52Z</time>
    <speed>15.864602</speed>
  </trkpt>
  <trkpt lat="5.936647" lon="-75.583032">
    <ele>1995</ele>
    <time>2014-06-16T12:53:54Z</time>
    <speed>15.486016</speed>
  </trkpt>
  <trkpt lat="5.936422" lon="-75.582881">
    <ele>1998</ele>
    <time>2014-06-16T12:53:56Z</time>
    <speed>14.883303</speed>
  </trkpt>
  <trkpt lat="5.936199" lon="-75.582747">
    <ele>1999</ele>
    <time>2014-06-16T12:53:58Z</time>
    <speed>14.156459</speed>
  </trkpt>
  <trkpt lat="5.936003" lon="-75.582623">
    <ele>1999</ele>
    <time>2014-06-16T12:54:00Z</time>
    <speed>12.475458</speed>
  </trkpt>
  <trkpt lat="5.935860" lon="-75.582466">
    <ele>2001</ele>
    <time>2014-06-16T12:54:02Z</time>
    <speed>12.455417</speed>
  </trkpt>
  <trkpt lat="5.935711" lon="-75.582306">
    <ele>2002</ele>
    <time>2014-06-16T12:54:04Z</time>
    <speed>13.191772</speed>
  </trkpt>
  <trkpt lat="5.935519" lon="-75.582138">
    <ele>2003</ele>
    <time>2014-06-16T12:54:06Z</time>
    <speed>13.8801775</speed>
  </trkpt>
  <trkpt lat="5.935264" lon="-75.582052">
    <ele>2004</ele>
    <time>2014-06-16T12:54:08Z</time>
    <speed>13.769957</speed>
  </trkpt>
  <trkpt lat="5.935020" lon="-75.581981">
    <ele>2007</ele>
    <time>2014-06-16T12:54:10Z</time>
    <speed>14.012533</speed>
  </trkpt>
  <trkpt lat="5.934762" lon="-75.581916">
    <ele>2005</ele>
    <time>2014-06-16T12:54:12Z</time>
    <speed>13.239009</speed>
  </trkpt>
  <trkpt lat="5.934530" lon="-75.581922">
    <ele>2005</ele>
    <time>2014-06-16T12:54:14Z</time>
    <speed>12.58062</speed>
  </trkpt>
  <trkpt lat="5.934309" lon="-75.581900">
    <ele>2005</ele>
    <time>2014-06-16T12:54:16Z</time>
    <speed>13.115254</speed>
  </trkpt>
  <trkpt lat="5.934071" lon="-75.581838">
    <ele>2005</ele>
    <time>2014-06-16T12:54:18Z</time>
    <speed>13.0217285</speed>
  </trkpt>
  <trkpt lat="5.933863" lon="-75.581767">
    <ele>2003</ele>
    <time>2014-06-16T12:54:20Z</time>
    <speed>12.8505335</speed>
  </trkpt>
  <trkpt lat="5.933667" lon="-75.581690">
    <ele>2001</ele>
    <time>2014-06-16T12:54:22Z</time>
    <speed>10.447549</speed>
  </trkpt>
  <trkpt lat="5.933492" lon="-75.581637">
    <ele>2001</ele>
    <time>2014-06-16T12:54:24Z</time>
    <speed>9.72222</speed>
  </trkpt>
  <trkpt lat="5.933315" lon="-75.581609">
    <ele>1999</ele>
    <time>2014-06-16T12:54:26Z</time>
    <speed>8.917407</speed>
  </trkpt>
  <trkpt lat="5.933153" lon="-75.581584">
    <ele>2001</ele>
    <time>2014-06-16T12:54:28Z</time>
    <speed>10.3983135</speed>
  </trkpt>
  <trkpt lat="5.932965" lon="-75.581526">
    <ele>2001</ele>
    <time>2014-06-16T12:54:30Z</time>
    <speed>11.494662</speed>
  </trkpt>
  <trkpt lat="5.932710" lon="-75.581434">
    <ele>2001</ele>
    <time>2014-06-16T12:54:32Z</time>
    <speed>14.435997</speed>
  </trkpt>
  <trkpt lat="5.932463" lon="-75.581337">
    <ele>2000</ele>
    <time>2014-06-16T12:54:34Z</time>
    <speed>13.978064</speed>
  </trkpt>
  <trkpt lat="5.932266" lon="-75.581211">
    <ele>1998</ele>
    <time>2014-06-16T12:54:36Z</time>
    <speed>11.917822</speed>
  </trkpt>
  <trkpt lat="5.932195" lon="-75.581015">
    <ele>1998</ele>
    <time>2014-06-16T12:54:38Z</time>
    <speed>10.686148</speed>
  </trkpt>
  <trkpt lat="5.932152" lon="-75.580791">
    <ele>1998</ele>
    <time>2014-06-16T12:54:40Z</time>
    <speed>11.105755</speed>
  </trkpt>
  <trkpt lat="5.932045" lon="-75.580621">
    <ele>1997</ele>
    <time>2014-06-16T12:54:42Z</time>
    <speed>11.238523</speed>
  </trkpt>
  <trkpt lat="5.931865" lon="-75.580506">
    <ele>1996</ele>
    <time>2014-06-16T12:54:44Z</time>
    <speed>12.613501</speed>
  </trkpt>
  <trkpt lat="5.931649" lon="-75.580405">
    <ele>1996</ele>
    <time>2014-06-16T12:54:46Z</time>
    <speed>13.491528</speed>
  </trkpt>
  <trkpt lat="5.931436" lon="-75.580288">
    <ele>1995</ele>
    <time>2014-06-16T12:54:48Z</time>
    <speed>13.112569</speed>
  </trkpt>
  <trkpt lat="5.931203" lon="-75.580184">
    <ele>1992</ele>
    <time>2014-06-16T12:54:50Z</time>
    <speed>13.243287</speed>
  </trkpt>
  <trkpt lat="5.931000" lon="-75.580052">
    <ele>1994</ele>
    <time>2014-06-16T12:54:52Z</time>
    <speed>14.028351</speed>
  </trkpt>
  <trkpt lat="5.930820" lon="-75.579860">
    <ele>1994</ele>
    <time>2014-06-16T12:54:54Z</time>
    <speed>15.080158</speed>
  </trkpt>
  <trkpt lat="5.930657" lon="-75.579637">
    <ele>1993</ele>
    <time>2014-06-16T12:54:56Z</time>
    <speed>13.998606</speed>
  </trkpt>
  <trkpt lat="5.930550" lon="-75.579448">
    <ele>1992</ele>
    <time>2014-06-16T12:54:58Z</time>
    <speed>11.250521</speed>
  </trkpt>
  <trkpt lat="5.930489" lon="-75.579307">
    <ele>1991</ele>
    <time>2014-06-16T12:55:00Z</time>
    <speed>7.2775083</speed>
  </trkpt>
  <trkpt lat="5.930455" lon="-75.579210">
    <ele>1992</ele>
    <time>2014-06-16T12:55:02Z</time>
    <speed>5.5187984</speed>
  </trkpt>
  <trkpt lat="5.930421" lon="-75.579097">
    <ele>1993</ele>
    <time>2014-06-16T12:55:04Z</time>
    <speed>5.905901</speed>
  </trkpt>
  <trkpt lat="5.930366" lon="-75.578967">
    <ele>1994</ele>
    <time>2014-06-16T12:55:06Z</time>
    <speed>7.572592</speed>
  </trkpt>
  <trkpt lat="5.930263" lon="-75.578860">
    <ele>1997</ele>
    <time>2014-06-16T12:55:08Z</time>
    <speed>8.160422</speed>
  </trkpt>
  <trkpt lat="5.930129" lon="-75.578746">
    <ele>1999</ele>
    <time>2014-06-16T12:55:10Z</time>
    <speed>8.622764</speed>
  </trkpt>
  <trkpt lat="5.929967" lon="-75.578668">
    <ele>1999</ele>
    <time>2014-06-16T12:55:12Z</time>
    <speed>9.533289</speed>
  </trkpt>
  <trkpt lat="5.929748" lon="-75.578621">
    <ele>2001</ele>
    <time>2014-06-16T12:55:14Z</time>
    <speed>11.861427</speed>
  </trkpt>
  <trkpt lat="5.929520" lon="-75.578591">
    <ele>2002</ele>
    <time>2014-06-16T12:55:16Z</time>
    <speed>13.145391</speed>
  </trkpt>
  <trkpt lat="5.929267" lon="-75.578572">
    <ele>2004</ele>
    <time>2014-06-16T12:55:18Z</time>
    <speed>13.5630045</speed>
  </trkpt>
  <trkpt lat="5.928965" lon="-75.578566">
    <ele>2004</ele>
    <time>2014-06-16T12:55:20Z</time>
    <speed>15.269055</speed>
  </trkpt>
  <trkpt lat="5.928682" lon="-75.578551">
    <ele>2005</ele>
    <time>2014-06-16T12:55:22Z</time>
    <speed>16.142487</speed>
  </trkpt>
  <trkpt lat="5.928355" lon="-75.578533">
    <ele>2002</ele>
    <time>2014-06-16T12:55:24Z</time>
    <speed>17.537176</speed>
  </trkpt>
  <trkpt lat="5.928034" lon="-75.578524">
    <ele>2001</ele>
    <time>2014-06-16T12:55:26Z</time>
    <speed>17.439354</speed>
  </trkpt>
  <trkpt lat="5.927723" lon="-75.578516">
    <ele>1999</ele>
    <time>2014-06-16T12:55:28Z</time>
    <speed>16.5878</speed>
  </trkpt>
  <trkpt lat="5.927440" lon="-75.578415">
    <ele>1994</ele>
    <time>2014-06-16T12:55:30Z</time>
    <speed>16.57624</speed>
  </trkpt>
  <trkpt lat="5.927197" lon="-75.578294">
    <ele>1993</ele>
    <time>2014-06-16T12:55:32Z</time>
    <speed>15.406353</speed>
  </trkpt>
  <trkpt lat="5.926978" lon="-75.578158">
    <ele>1992</ele>
    <time>2014-06-16T12:55:34Z</time>
    <speed>12.928727</speed>
  </trkpt>
  <trkpt lat="5.926746" lon="-75.578074">
    <ele>1992</ele>
    <time>2014-06-16T12:55:36Z</time>
    <speed>13.7813635</speed>
  </trkpt>
  <trkpt lat="5.926499" lon="-75.578026">
    <ele>1989</ele>
    <time>2014-06-16T12:55:38Z</time>
    <speed>14.473745</speed>
  </trkpt>
  <trkpt lat="5.926232" lon="-75.577992">
    <ele>1989</ele>
    <time>2014-06-16T12:55:40Z</time>
    <speed>15.603181</speed>
  </trkpt>
  <trkpt lat="5.925939" lon="-75.577924">
    <ele>1988</ele>
    <time>2014-06-16T12:55:42Z</time>
    <speed>17.136406</speed>
  </trkpt>
  <trkpt lat="5.925625" lon="-75.577827">
    <ele>1986</ele>
    <time>2014-06-16T12:55:44Z</time>
    <speed>17.32528</speed>
  </trkpt>
  <trkpt lat="5.925321" lon="-75.577724">
    <ele>1984</ele>
    <time>2014-06-16T12:55:46Z</time>
    <speed>17.459929</speed>
  </trkpt>
  <trkpt lat="5.925019" lon="-75.577640">
    <ele>1982</ele>
    <time>2014-06-16T12:55:48Z</time>
    <speed>16.93203</speed>
  </trkpt>
  <trkpt lat="5.924721" lon="-75.577623">
    <ele>1977</ele>
    <time>2014-06-16T12:55:50Z</time>
    <speed>16.714565</speed>
  </trkpt>
  <trkpt lat="5.924416" lon="-75.577643">
    <ele>1977</ele>
    <time>2014-06-16T12:55:52Z</time>
    <speed>17.446747</speed>
  </trkpt>
  <trkpt lat="5.924098" lon="-75.577666">
    <ele>1974</ele>
    <time>2014-06-16T12:55:54Z</time>
    <speed>18.32861</speed>
  </trkpt>
  <trkpt lat="5.923759" lon="-75.577687">
    <ele>1974</ele>
    <time>2014-06-16T12:55:56Z</time>
    <speed>18.630283</speed>
  </trkpt>
  <trkpt lat="5.923416" lon="-75.577707">
    <ele>1974</ele>
    <time>2014-06-16T12:55:58Z</time>
    <speed>18.459421</speed>
  </trkpt>
  <trkpt lat="5.923088" lon="-75.577726">
    <ele>1971</ele>
    <time>2014-06-16T12:56:00Z</time>
    <speed>18.09859</speed>
  </trkpt>
  <trkpt lat="5.922767" lon="-75.577764">
    <ele>1971</ele>
    <time>2014-06-16T12:56:02Z</time>
    <speed>17.521448</speed>
  </trkpt>
  <trkpt lat="5.922466" lon="-75.577831">
    <ele>1969</ele>
    <time>2014-06-16T12:56:04Z</time>
    <speed>17.252983</speed>
  </trkpt>
  <trkpt lat="5.922174" lon="-75.577918">
    <ele>1967</ele>
    <time>2014-06-16T12:56:06Z</time>
    <speed>17.24019</speed>
  </trkpt>
  <trkpt lat="5.921866" lon="-75.578021">
    <ele>1966</ele>
    <time>2014-06-16T12:56:08Z</time>
    <speed>17.007557</speed>
  </trkpt>
  <trkpt lat="5.921606" lon="-75.578121">
    <ele>1964</ele>
    <time>2014-06-16T12:56:10Z</time>
    <speed>15.819797</speed>
  </trkpt>
  <trkpt lat="5.921374" lon="-75.578212">
    <ele>1958</ele>
    <time>2014-06-16T12:56:12Z</time>
    <speed>11.728289</speed>
  </trkpt>
  <trkpt lat="5.921227" lon="-75.578301">
    <ele>1958</ele>
    <time>2014-06-16T12:56:14Z</time>
    <speed>9.254358</speed>
  </trkpt>
  <trkpt lat="5.921122" lon="-75.578457">
    <ele>1957</ele>
    <time>2014-06-16T12:56:16Z</time>
    <speed>9.801623</speed>
  </trkpt>
  <trkpt lat="5.920996" lon="-75.578613">
    <ele>1955</ele>
    <time>2014-06-16T12:56:18Z</time>
    <speed>11.667741</speed>
  </trkpt>
  <trkpt lat="5.920833" lon="-75.578752">
    <ele>1955</ele>
    <time>2014-06-16T12:56:20Z</time>
    <speed>12.467047</speed>
  </trkpt>
  <trkpt lat="5.920616" lon="-75.578866">
    <ele>1951</ele>
    <time>2014-06-16T12:56:22Z</time>
    <speed>11.762141</speed>
  </trkpt>
  <trkpt lat="5.920385" lon="-75.578881">
    <ele>1951</ele>
    <time>2014-06-16T12:56:24Z</time>
    <speed>13.214624</speed>
  </trkpt>
  <trkpt lat="5.920122" lon="-75.578856">
    <ele>1951</ele>
    <time>2014-06-16T12:56:26Z</time>
    <speed>14.874002</speed>
  </trkpt>
  <trkpt lat="5.919826" lon="-75.578835">
    <ele>1953</ele>
    <time>2014-06-16T12:56:28Z</time>
    <speed>16.378757</speed>
  </trkpt>
  <trkpt lat="5.919531" lon="-75.578823">
    <ele>1947</ele>
    <time>2014-06-16T12:56:30Z</time>
    <speed>15.94437</speed>
  </trkpt>
  <trkpt lat="5.919255" lon="-75.578826">
    <ele>1943</ele>
    <time>2014-06-16T12:56:32Z</time>
    <speed>14.4283085</speed>
  </trkpt>
  <trkpt lat="5.918993" lon="-75.578774">
    <ele>1942</ele>
    <time>2014-06-16T12:56:34Z</time>
    <speed>15.37783</speed>
  </trkpt>
  <trkpt lat="5.918716" lon="-75.578657">
    <ele>1941</ele>
    <time>2014-06-16T12:56:36Z</time>
    <speed>15.391422</speed>
  </trkpt>
  <trkpt lat="5.918482" lon="-75.578553">
    <ele>1937</ele>
    <time>2014-06-16T12:56:38Z</time>
    <speed>12.574544</speed>
  </trkpt>
  <trkpt lat="5.918270" lon="-75.578570">
    <ele>1934</ele>
    <time>2014-06-16T12:56:40Z</time>
    <speed>13.292164</speed>
  </trkpt>
  <trkpt lat="5.918019" lon="-75.578628">
    <ele>1933</ele>
    <time>2014-06-16T12:56:42Z</time>
    <speed>14.516153</speed>
  </trkpt>
  <trkpt lat="5.917762" lon="-75.578704">
    <ele>1931</ele>
    <time>2014-06-16T12:56:44Z</time>
    <speed>15.776152</speed>
  </trkpt>
  <trkpt lat="5.917519" lon="-75.578812">
    <ele>1927</ele>
    <time>2014-06-16T12:56:46Z</time>
    <speed>14.917914</speed>
  </trkpt>
  <trkpt lat="5.917289" lon="-75.578932">
    <ele>1926</ele>
    <time>2014-06-16T12:56:48Z</time>
    <speed>14.171749</speed>
  </trkpt>
  <trkpt lat="5.917037" lon="-75.578976">
    <ele>1926</ele>
    <time>2014-06-16T12:56:50Z</time>
    <speed>14.319388</speed>
  </trkpt>
  <trkpt lat="5.916777" lon="-75.578947">
    <ele>1923</ele>
    <time>2014-06-16T12:56:52Z</time>
    <speed>14.252597</speed>
  </trkpt>
  <trkpt lat="5.916567" lon="-75.578849">
    <ele>1921</ele>
    <time>2014-06-16T12:56:54Z</time>
    <speed>11.693524</speed>
  </trkpt>
  <trkpt lat="5.916424" lon="-75.578754">
    <ele>1919</ele>
    <time>2014-06-16T12:56:56Z</time>
    <speed>8.256226</speed>
  </trkpt>
  <trkpt lat="5.916332" lon="-75.578683">
    <ele>1921</ele>
    <time>2014-06-16T12:56:58Z</time>
    <speed>5.8924003</speed>
  </trkpt>
  <trkpt lat="5.916268" lon="-75.578639">
    <ele>1919</ele>
    <time>2014-06-16T12:57:00Z</time>
    <speed>3.1247373</speed>
  </trkpt>
  <trkpt lat="5.916213" lon="-75.578603">
    <ele>1921</ele>
    <time>2014-06-16T13:01:19Z</time>
    <speed>1.9838749</speed>
  </trkpt>
  <trkpt lat="5.916164" lon="-75.578581">
    <ele>1922</ele>
    <time>2014-06-16T13:01:21Z</time>
    <speed>4.7937737</speed>
  </trkpt>
  <trkpt lat="5.916067" lon="-75.578542">
    <ele>1923</ele>
    <time>2014-06-16T13:01:23Z</time>
    <speed>6.0143113</speed>
  </trkpt>
  <trkpt lat="5.915950" lon="-75.578502">
    <ele>1924</ele>
    <time>2014-06-16T13:01:25Z</time>
    <speed>7.23591</speed>
  </trkpt>
  <trkpt lat="5.915808" lon="-75.578455">
    <ele>1924</ele>
    <time>2014-06-16T13:01:27Z</time>
    <speed>8.36666</speed>
  </trkpt>
  <trkpt lat="5.915638" lon="-75.578393">
    <ele>1922</ele>
    <time>2014-06-16T13:01:29Z</time>
    <speed>7.91875</speed>
  </trkpt>
  <trkpt lat="5.915527" lon="-75.578343">
    <ele>1920</ele>
    <time>2014-06-16T13:01:31Z</time>
    <speed>6.060663</speed>
  </trkpt>
  <trkpt lat="5.915439" lon="-75.578303">
    <ele>1920</ele>
    <time>2014-06-16T13:01:33Z</time>
    <speed>4.837424</speed>
  </trkpt>
  <trkpt lat="5.915364" lon="-75.578267">
    <ele>1918</ele>
    <time>2014-06-16T13:01:35Z</time>
    <speed>4.514956</speed>
  </trkpt>
  <trkpt lat="5.915280" lon="-75.578221">
    <ele>1917</ele>
    <time>2014-06-16T13:01:37Z</time>
    <speed>5.032849</speed>
  </trkpt>
  <trkpt lat="5.915208" lon="-75.578187">
    <ele>1917</ele>
    <time>2014-06-16T13:01:39Z</time>
    <speed>3.943246</speed>
  </trkpt>
  <trkpt lat="5.915140" lon="-75.578159">
    <ele>1916</ele>
    <time>2014-06-16T13:01:41Z</time>
    <speed>3.3479774</speed>
  </trkpt>
  <trkpt lat="5.915068" lon="-75.578131">
    <ele>1915</ele>
    <time>2014-06-16T13:01:44Z</time>
    <speed>3.3649287</speed>
  </trkpt>
  <trkpt lat="5.915005" lon="-75.578109">
    <ele>1914</ele>
    <time>2014-06-16T13:01:46Z</time>
    <speed>3.0975263</speed>
  </trkpt>
  <trkpt lat="5.914946" lon="-75.578091">
    <ele>1914</ele>
    <time>2014-06-16T13:01:48Z</time>
    <speed>3.3757138</speed>
  </trkpt>
  <trkpt lat="5.914891" lon="-75.578068">
    <ele>1915</ele>
    <time>2014-06-16T13:01:50Z</time>
    <speed>3.508274</speed>
  </trkpt>
  <trkpt lat="5.914836" lon="-75.578031">
    <ele>1914</ele>
    <time>2014-06-16T13:01:52Z</time>
    <speed>3.4387808</speed>
  </trkpt>
  <trkpt lat="5.914782" lon="-75.577964">
    <ele>1913</ele>
    <time>2014-06-16T13:01:54Z</time>
    <speed>3.0998235</speed>
  </trkpt>
  <trkpt lat="5.914745" lon="-75.577893">
    <ele>1912</ele>
    <time>2014-06-16T13:01:56Z</time>
    <speed>4.4444814</speed>
  </trkpt>
  <trkpt lat="5.914698" lon="-75.577795">
    <ele>1912</ele>
    <time>2014-06-16T13:01:58Z</time>
    <speed>4.828017</speed>
  </trkpt>
  <trkpt lat="5.914660" lon="-75.577699">
    <ele>1912</ele>
    <time>2014-06-16T13:02:00Z</time>
    <speed>3.5427918</speed>
  </trkpt>
  <trkpt lat="5.914635" lon="-75.577630">
    <ele>1910</ele>
    <time>2014-06-16T13:02:02Z</time>
    <speed>3.3327682</speed>
  </trkpt>
  <trkpt lat="5.914612" lon="-75.577573">
    <ele>1910</ele>
    <time>2014-06-16T13:02:04Z</time>
    <speed>2.7725432</speed>
  </trkpt>
  <trkpt lat="5.914577" lon="-75.577515">
    <ele>1911</ele>
    <time>2014-06-16T13:02:35Z</time>
    <speed>2.6648934</speed>
  </trkpt>
  <trkpt lat="5.914541" lon="-75.577453">
    <ele>1909</ele>
    <time>2014-06-16T13:02:37Z</time>
    <speed>3.5823174</speed>
  </trkpt>
  <trkpt lat="5.914495" lon="-75.577374">
    <ele>1910</ele>
    <time>2014-06-16T13:02:39Z</time>
    <speed>4.6398625</speed>
  </trkpt>
  <trkpt lat="5.914434" lon="-75.577294">
    <ele>1909</ele>
    <time>2014-06-16T13:02:41Z</time>
    <speed>6.197772</speed>
  </trkpt>
  <trkpt lat="5.914352" lon="-75.577207">
    <ele>1909</ele>
    <time>2014-06-16T13:02:43Z</time>
    <speed>7.7124276</speed>
  </trkpt>
  <trkpt lat="5.914240" lon="-75.577109">
    <ele>1907</ele>
    <time>2014-06-16T13:02:45Z</time>
    <speed>9.04527</speed>
  </trkpt>
  <trkpt lat="5.914093" lon="-75.577015">
    <ele>1906</ele>
    <time>2014-06-16T13:02:47Z</time>
    <speed>10.170175</speed>
  </trkpt>
  <trkpt lat="5.913897" lon="-75.576911">
    <ele>1905</ele>
    <time>2014-06-16T13:02:49Z</time>
    <speed>10.023686</speed>
  </trkpt>
  <trkpt lat="5.913727" lon="-75.576835">
    <ele>1904</ele>
    <time>2014-06-16T13:02:51Z</time>
    <speed>8.080338</speed>
  </trkpt>
  <trkpt lat="5.913597" lon="-75.576777">
    <ele>1902</ele>
    <time>2014-06-16T13:02:53Z</time>
    <speed>7.130184</speed>
  </trkpt>
  <trkpt lat="5.913496" lon="-75.576731">
    <ele>1901</ele>
    <time>2014-06-16T13:02:55Z</time>
    <speed>5.901999</speed>
  </trkpt>
  <trkpt lat="5.913435" lon="-75.576701">
    <ele>1901</ele>
    <time>2014-06-16T13:02:57Z</time>
    <speed>4.2177105</speed>
  </trkpt>
  <trkpt lat="5.913381" lon="-75.576680">
    <ele>1900</ele>
    <time>2014-06-16T13:02:59Z</time>
    <speed>4.4672027</speed>
  </trkpt>
  <trkpt lat="5.913309" lon="-75.576661">
    <ele>1900</ele>
    <time>2014-06-16T13:03:01Z</time>
    <speed>5.105895</speed>
  </trkpt>
  <trkpt lat="5.913220" lon="-75.576650">
    <ele>1900</ele>
    <time>2014-06-16T13:03:03Z</time>
    <speed>5.1943173</speed>
  </trkpt>
  <trkpt lat="5.913134" lon="-75.576645">
    <ele>1898</ele>
    <time>2014-06-16T13:03:05Z</time>
    <speed>4.8783746</speed>
  </trkpt>
  <trkpt lat="5.913060" lon="-75.576640">
    <ele>1896</ele>
    <time>2014-06-16T13:03:07Z</time>
    <speed>4.0428586</speed>
  </trkpt>
  <trkpt lat="5.913000" lon="-75.576634">
    <ele>1896</ele>
    <time>2014-06-16T13:03:09Z</time>
    <speed>3.2438583</speed>
  </trkpt>
  <trkpt lat="5.912939" lon="-75.576612">
    <ele>1896</ele>
    <time>2014-06-16T13:03:12Z</time>
    <speed>2.6323671</speed>
  </trkpt>
  <trkpt lat="5.912884" lon="-75.576588">
    <ele>1895</ele>
    <time>2014-06-16T13:03:14Z</time>
    <speed>3.7962298</speed>
  </trkpt>
  <trkpt lat="5.912819" lon="-75.576541">
    <ele>1896</ele>
    <time>2014-06-16T13:03:16Z</time>
    <speed>4.3151274</speed>
  </trkpt>
  <trkpt lat="5.912744" lon="-75.576484">
    <ele>1893</ele>
    <time>2014-06-16T13:03:18Z</time>
    <speed>5.0334506</speed>
  </trkpt>
  <trkpt lat="5.912667" lon="-75.576423">
    <ele>1892</ele>
    <time>2014-06-16T13:03:20Z</time>
    <speed>5.2278504</speed>
  </trkpt>
  <trkpt lat="5.912583" lon="-75.576353">
    <ele>1893</ele>
    <time>2014-06-16T13:03:22Z</time>
    <speed>6.0795407</speed>
  </trkpt>
  <trkpt lat="5.912499" lon="-75.576278">
    <ele>1891</ele>
    <time>2014-06-16T13:03:24Z</time>
    <speed>6.1068974</speed>
  </trkpt>
  <trkpt lat="5.912419" lon="-75.576197">
    <ele>1891</ele>
    <time>2014-06-16T13:03:26Z</time>
    <speed>6.115191</speed>
  </trkpt>
  <trkpt lat="5.912361" lon="-75.576118">
    <ele>1891</ele>
    <time>2014-06-16T13:03:28Z</time>
    <speed>4.9211674</speed>
  </trkpt>
  <trkpt lat="5.912326" lon="-75.576040">
    <ele>1890</ele>
    <time>2014-06-16T13:03:30Z</time>
    <speed>4.525691</speed>
  </trkpt>
  <trkpt lat="5.912280" lon="-75.575942">
    <ele>1890</ele>
    <time>2014-06-16T13:03:32Z</time>
    <speed>5.1647387</speed>
  </trkpt>
  <trkpt lat="5.912203" lon="-75.575860">
    <ele>1889</ele>
    <time>2014-06-16T13:03:34Z</time>
    <speed>6.0911098</speed>
  </trkpt>
  <trkpt lat="5.912084" lon="-75.575831">
    <ele>1889</ele>
    <time>2014-06-16T13:03:36Z</time>
    <speed>7.229935</speed>
  </trkpt>
  <trkpt lat="5.911942" lon="-75.575859">
    <ele>1888</ele>
    <time>2014-06-16T13:03:38Z</time>
    <speed>8.445829</speed>
  </trkpt>
  <trkpt lat="5.911797" lon="-75.575890">
    <ele>1886</ele>
    <time>2014-06-16T13:03:40Z</time>
    <speed>7.436277</speed>
  </trkpt>
  <trkpt lat="5.911684" lon="-75.575901">
    <ele>1884</ele>
    <time>2014-06-16T13:03:42Z</time>
    <speed>5.655887</speed>
  </trkpt>
  <trkpt lat="5.911585" lon="-75.575903">
    <ele>1883</ele>
    <time>2014-06-16T13:03:44Z</time>
    <speed>5.436417</speed>
  </trkpt>
  <trkpt lat="5.911488" lon="-75.575904">
    <ele>1884</ele>
    <time>2014-06-16T13:03:46Z</time>
    <speed>5.6778755</speed>
  </trkpt>
  <trkpt lat="5.911396" lon="-75.575900">
    <ele>1882</ele>
    <time>2014-06-16T13:03:48Z</time>
    <speed>4.9600143</speed>
  </trkpt>
  <trkpt lat="5.911306" lon="-75.575893">
    <ele>1881</ele>
    <time>2014-06-16T13:03:50Z</time>
    <speed>4.6922035</speed>
  </trkpt>
  <trkpt lat="5.911226" lon="-75.575880">
    <ele>1880</ele>
    <time>2014-06-16T13:03:52Z</time>
    <speed>3.8129153</speed>
  </trkpt>
  <trkpt lat="5.911150" lon="-75.575866">
    <ele>1879</ele>
    <time>2014-06-16T13:03:54Z</time>
    <speed>4.1239495</speed>
  </trkpt>
  <trkpt lat="5.911079" lon="-75.575812">
    <ele>1878</ele>
    <time>2014-06-16T13:03:56Z</time>
    <speed>4.482217</speed>
  </trkpt>
  <trkpt lat="5.911027" lon="-75.575761">
    <ele>1878</ele>
    <time>2014-06-16T13:03:58Z</time>
    <speed>2.0594997</speed>
  </trkpt>
  <trkpt lat="5.910999" lon="-75.575718">
    <ele>1877</ele>
    <time>2014-06-16T13:04:10Z</time>
    <speed>1.5108483</speed>
  </trkpt>
  <trkpt lat="5.910956" lon="-75.575663">
    <ele>1877</ele>
    <time>2014-06-16T13:04:12Z</time>
    <speed>3.756396</speed>
  </trkpt>
  <trkpt lat="5.910896" lon="-75.575589">
    <ele>1877</ele>
    <time>2014-06-16T13:04:14Z</time>
    <speed>5.31676</speed>
  </trkpt>
  <trkpt lat="5.910814" lon="-75.575492">
    <ele>1876</ele>
    <time>2014-06-16T13:04:16Z</time>
    <speed>6.7741165</speed>
  </trkpt>
  <trkpt lat="5.910716" lon="-75.575390">
    <ele>1875</ele>
    <time>2014-06-16T13:04:18Z</time>
    <speed>7.6853437</speed>
  </trkpt>
  <trkpt lat="5.910590" lon="-75.575326">
    <ele>1876</ele>
    <time>2014-06-16T13:04:20Z</time>
    <speed>7.851413</speed>
  </trkpt>
  <trkpt lat="5.910435" lon="-75.575325">
    <ele>1874</ele>
    <time>2014-06-16T13:04:22Z</time>
    <speed>8.742644</speed>
  </trkpt>
  <trkpt lat="5.910281" lon="-75.575363">
    <ele>1872</ele>
    <time>2014-06-16T13:04:24Z</time>
    <speed>8.52997</speed>
  </trkpt>
  <trkpt lat="5.910134" lon="-75.575345">
    <ele>1870</ele>
    <time>2014-06-16T13:04:26Z</time>
    <speed>7.997112</speed>
  </trkpt>
  <trkpt lat="5.910017" lon="-75.575263">
    <ele>1869</ele>
    <time>2014-06-16T13:04:28Z</time>
    <speed>7.968404</speed>
  </trkpt>
  <trkpt lat="5.909916" lon="-75.575147">
    <ele>1869</ele>
    <time>2014-06-16T13:04:30Z</time>
    <speed>8.329431</speed>
  </trkpt>
  <trkpt lat="5.909792" lon="-75.575058">
    <ele>1867</ele>
    <time>2014-06-16T13:04:32Z</time>
    <speed>8.400045</speed>
  </trkpt>
  <trkpt lat="5.909643" lon="-75.575051">
    <ele>1867</ele>
    <time>2014-06-16T13:04:34Z</time>
    <speed>8.435197</speed>
  </trkpt>
  <trkpt lat="5.909505" lon="-75.575121">
    <ele>1865</ele>
    <time>2014-06-16T13:04:36Z</time>
    <speed>8.376301</speed>
  </trkpt>
  <trkpt lat="5.909402" lon="-75.575247">
    <ele>1863</ele>
    <time>2014-06-16T13:04:38Z</time>
    <speed>8.985049</speed>
  </trkpt>
  <trkpt lat="5.909295" lon="-75.575372">
    <ele>1861</ele>
    <time>2014-06-16T13:04:40Z</time>
    <speed>8.957675</speed>
  </trkpt>
  <trkpt lat="5.909184" lon="-75.575452">
    <ele>1861</ele>
    <time>2014-06-16T13:04:42Z</time>
    <speed>7.219931</speed>
  </trkpt>
  <trkpt lat="5.909068" lon="-75.575497">
    <ele>1858</ele>
    <time>2014-06-16T13:04:44Z</time>
    <speed>7.2949176</speed>
  </trkpt>
  <trkpt lat="5.908930" lon="-75.575491">
    <ele>1858</ele>
    <time>2014-06-16T13:04:46Z</time>
    <speed>7.97982</speed>
  </trkpt>
  <trkpt lat="5.908806" lon="-75.575442">
    <ele>1857</ele>
    <time>2014-06-16T13:04:48Z</time>
    <speed>6.671592</speed>
  </trkpt>
  <trkpt lat="5.908725" lon="-75.575396">
    <ele>1855</ele>
    <time>2014-06-16T13:04:50Z</time>
    <speed>4.9781737</speed>
  </trkpt>
  <trkpt lat="5.908651" lon="-75.575344">
    <ele>1854</ele>
    <time>2014-06-16T13:04:52Z</time>
    <speed>4.5236034</speed>
  </trkpt>
  <trkpt lat="5.908576" lon="-75.575280">
    <ele>1854</ele>
    <time>2014-06-16T13:04:54Z</time>
    <speed>5.3254337</speed>
  </trkpt>
  <trkpt lat="5.908496" lon="-75.575224">
    <ele>1854</ele>
    <time>2014-06-16T13:04:56Z</time>
    <speed>5.5272894</speed>
  </trkpt>
  <trkpt lat="5.908394" lon="-75.575167">
    <ele>1853</ele>
    <time>2014-06-16T13:04:58Z</time>
    <speed>6.6481056</speed>
  </trkpt>
  <trkpt lat="5.908285" lon="-75.575106">
    <ele>1853</ele>
    <time>2014-06-16T13:05:00Z</time>
    <speed>6.3416214</speed>
  </trkpt>
  <trkpt lat="5.908186" lon="-75.575053">
    <ele>1852</ele>
    <time>2014-06-16T13:05:02Z</time>
    <speed>5.2783723</speed>
  </trkpt>
  <trkpt lat="5.908105" lon="-75.575014">
    <ele>1851</ele>
    <time>2014-06-16T13:05:04Z</time>
    <speed>4.794552</speed>
  </trkpt>
  <trkpt lat="5.908015" lon="-75.574974">
    <ele>1850</ele>
    <time>2014-06-16T13:05:06Z</time>
    <speed>5.026521</speed>
  </trkpt>
  <trkpt lat="5.907922" lon="-75.574945">
    <ele>1849</ele>
    <time>2014-06-16T13:05:08Z</time>
    <speed>5.129618</speed>
  </trkpt>
  <trkpt lat="5.907823" lon="-75.574923">
    <ele>1848</ele>
    <time>2014-06-16T13:05:10Z</time>
    <speed>5.216643</speed>
  </trkpt>
  <trkpt lat="5.907713" lon="-75.574904">
    <ele>1848</ele>
    <time>2014-06-16T13:05:12Z</time>
    <speed>6.12484</speed>
  </trkpt>
  <trkpt lat="5.907591" lon="-75.574876">
    <ele>1847</ele>
    <time>2014-06-16T13:05:14Z</time>
    <speed>7.0015225</speed>
  </trkpt>
  <trkpt lat="5.907437" lon="-75.574858">
    <ele>1846</ele>
    <time>2014-06-16T13:05:16Z</time>
    <speed>7.7867246</speed>
  </trkpt>
  <trkpt lat="5.907288" lon="-75.574848">
    <ele>1845</ele>
    <time>2014-06-16T13:05:18Z</time>
    <speed>7.9214344</speed>
  </trkpt>
  <trkpt lat="5.907147" lon="-75.574843">
    <ele>1843</ele>
    <time>2014-06-16T13:05:20Z</time>
    <speed>7.5307574</speed>
  </trkpt>
  <trkpt lat="5.907020" lon="-75.574841">
    <ele>1843</ele>
    <time>2014-06-16T13:05:22Z</time>
    <speed>6.926364</speed>
  </trkpt>
  <trkpt lat="5.906898" lon="-75.574843">
    <ele>1842</ele>
    <time>2014-06-16T13:05:24Z</time>
    <speed>6.4328027</speed>
  </trkpt>
  <trkpt lat="5.906799" lon="-75.574861">
    <ele>1840</ele>
    <time>2014-06-16T13:05:26Z</time>
    <speed>5.3126326</speed>
  </trkpt>
  <trkpt lat="5.906721" lon="-75.574896">
    <ele>1840</ele>
    <time>2014-06-16T13:05:28Z</time>
    <speed>4.8754</speed>
  </trkpt>
  <trkpt lat="5.906651" lon="-75.574943">
    <ele>1839</ele>
    <time>2014-06-16T13:05:30Z</time>
    <speed>5.1637893</speed>
  </trkpt>
  <trkpt lat="5.906595" lon="-75.575001">
    <ele>1838</ele>
    <time>2014-06-16T13:05:32Z</time>
    <speed>4.379144</speed>
  </trkpt>
  <trkpt lat="5.906543" lon="-75.575050">
    <ele>1837</ele>
    <time>2014-06-16T13:05:34Z</time>
    <speed>3.2947526</speed>
  </trkpt>
  <trkpt lat="5.906505" lon="-75.575085">
    <ele>1838</ele>
    <time>2014-06-16T13:05:36Z</time>
    <speed>2.4354656</speed>
  </trkpt>
  <trkpt lat="5.906456" lon="-75.575117">
    <ele>1837</ele>
    <time>2014-06-16T13:05:39Z</time>
    <speed>2.3654826</speed>
  </trkpt>
  <trkpt lat="5.906403" lon="-75.575139">
    <ele>1836</ele>
    <time>2014-06-16T13:05:41Z</time>
    <speed>3.4410288</speed>
  </trkpt>
  <trkpt lat="5.906342" lon="-75.575158">
    <ele>1835</ele>
    <time>2014-06-16T13:05:43Z</time>
    <speed>3.4002786</speed>
  </trkpt>
  <trkpt lat="5.906271" lon="-75.575172">
    <ele>1835</ele>
    <time>2014-06-16T13:05:45Z</time>
    <speed>3.7178168</speed>
  </trkpt>
  <trkpt lat="5.906191" lon="-75.575173">
    <ele>1835</ele>
    <time>2014-06-16T13:05:47Z</time>
    <speed>4.0463223</speed>
  </trkpt>
  <trkpt lat="5.906113" lon="-75.575173">
    <ele>1834</ele>
    <time>2014-06-16T13:05:49Z</time>
    <speed>3.6812289</speed>
  </trkpt>
  <trkpt lat="5.906033" lon="-75.575168">
    <ele>1833</ele>
    <time>2014-06-16T13:05:51Z</time>
    <speed>3.9035273</speed>
  </trkpt>
  <trkpt lat="5.905958" lon="-75.575157">
    <ele>1833</ele>
    <time>2014-06-16T13:05:53Z</time>
    <speed>3.933645</speed>
  </trkpt>
  <trkpt lat="5.905885" lon="-75.575151">
    <ele>1833</ele>
    <time>2014-06-16T13:05:55Z</time>
    <speed>4.092386</speed>
  </trkpt>
  <trkpt lat="5.905804" lon="-75.575141">
    <ele>1831</ele>
    <time>2014-06-16T13:05:57Z</time>
    <speed>4.8813725</speed>
  </trkpt>
  <trkpt lat="5.905710" lon="-75.575124">
    <ele>1831</ele>
    <time>2014-06-16T13:05:59Z</time>
    <speed>5.3973465</speed>
  </trkpt>
  <trkpt lat="5.905611" lon="-75.575108">
    <ele>1830</ele>
    <time>2014-06-16T13:06:01Z</time>
    <speed>5.5586014</speed>
  </trkpt>
  <trkpt lat="5.905539" lon="-75.575082">
    <ele>1829</ele>
    <time>2014-06-16T13:06:03Z</time>
    <speed>3.943256</speed>
  </trkpt>
  <trkpt lat="5.905467" lon="-75.575040">
    <ele>1827</ele>
    <time>2014-06-16T13:06:05Z</time>
    <speed>4.8939905</speed>
  </trkpt>
  <trkpt lat="5.905375" lon="-75.574979">
    <ele>1827</ele>
    <time>2014-06-16T13:06:07Z</time>
    <speed>6.124797</speed>
  </trkpt>
  <trkpt lat="5.905271" lon="-75.574911">
    <ele>1826</ele>
    <time>2014-06-16T13:06:09Z</time>
    <speed>6.656414</speed>
  </trkpt>
  <trkpt lat="5.905154" lon="-75.574834">
    <ele>1826</ele>
    <time>2014-06-16T13:06:11Z</time>
    <speed>7.708004</speed>
  </trkpt>
  <trkpt lat="5.905030" lon="-75.574768">
    <ele>1825</ele>
    <time>2014-06-16T13:06:13Z</time>
    <speed>7.3903484</speed>
  </trkpt>
  <trkpt lat="5.904913" lon="-75.574751">
    <ele>1825</ele>
    <time>2014-06-16T13:06:15Z</time>
    <speed>6.231628</speed>
  </trkpt>
  <trkpt lat="5.904805" lon="-75.574771">
    <ele>1823</ele>
    <time>2014-06-16T13:06:17Z</time>
    <speed>6.0076656</speed>
  </trkpt>
  <trkpt lat="5.904718" lon="-75.574852">
    <ele>1825</ele>
    <time>2014-06-16T13:06:19Z</time>
    <speed>6.8664055</speed>
  </trkpt>
  <trkpt lat="5.904670" lon="-75.574982">
    <ele>1825</ele>
    <time>2014-06-16T13:06:21Z</time>
    <speed>7.9714413</speed>
  </trkpt>
  <trkpt lat="5.904622" lon="-75.575117">
    <ele>1824</ele>
    <time>2014-06-16T13:06:23Z</time>
    <speed>7.6454887</speed>
  </trkpt>
  <trkpt lat="5.904545" lon="-75.575239">
    <ele>1825</ele>
    <time>2014-06-16T13:06:25Z</time>
    <speed>7.276561</speed>
  </trkpt>
  <trkpt lat="5.904445" lon="-75.575281">
    <ele>1826</ele>
    <time>2014-06-16T13:06:27Z</time>
    <speed>5.7553983</speed>
  </trkpt>
  <trkpt lat="5.904338" lon="-75.575275">
    <ele>1826</ele>
    <time>2014-06-16T13:06:29Z</time>
    <speed>5.9000583</speed>
  </trkpt>
  <trkpt lat="5.904258" lon="-75.575225">
    <ele>1827</ele>
    <time>2014-06-16T13:06:31Z</time>
    <speed>4.998761</speed>
  </trkpt>
  <trkpt lat="5.904204" lon="-75.575191">
    <ele>1827</ele>
    <time>2014-06-16T13:06:44Z</time>
    <speed>1.4737418</speed>
  </trkpt>
  <trkpt lat="5.904159" lon="-75.575147">
    <ele>1828</ele>
    <time>2014-06-16T13:06:46Z</time>
    <speed>3.5329638</speed>
  </trkpt>
  <trkpt lat="5.904095" lon="-75.575075">
    <ele>1829</ele>
    <time>2014-06-16T13:06:48Z</time>
    <speed>4.995157</speed>
  </trkpt>
  <trkpt lat="5.904036" lon="-75.575002">
    <ele>1830</ele>
    <time>2014-06-16T13:06:50Z</time>
    <speed>4.600804</speed>
  </trkpt>
  <trkpt lat="5.903973" lon="-75.574922">
    <ele>1831</ele>
    <time>2014-06-16T13:06:52Z</time>
    <speed>5.5669665</speed>
  </trkpt>
  <trkpt lat="5.903903" lon="-75.574842">
    <ele>1831</ele>
    <time>2014-06-16T13:06:54Z</time>
    <speed>5.4447484</speed>
  </trkpt>
  <trkpt lat="5.903836" lon="-75.574782">
    <ele>1831</ele>
    <time>2014-06-16T13:06:56Z</time>
    <speed>4.1947684</speed>
  </trkpt>
  <trkpt lat="5.903787" lon="-75.574745">
    <ele>1831</ele>
    <time>2014-06-16T13:06:58Z</time>
    <speed>2.8695827</speed>
  </trkpt>
  <trkpt lat="5.903739" lon="-75.574722">
    <ele>1831</ele>
    <time>2014-06-16T13:07:00Z</time>
    <speed>2.5964582</speed>
  </trkpt>
  <trkpt lat="5.903681" lon="-75.574717">
    <ele>1833</ele>
    <time>2014-06-16T13:07:02Z</time>
    <speed>3.3334734</speed>
  </trkpt>
  <trkpt lat="5.903615" lon="-75.574707">
    <ele>1834</ele>
    <time>2014-06-16T13:07:04Z</time>
    <speed>4.626848</speed>
  </trkpt>
  <trkpt lat="5.903507" lon="-75.574683">
    <ele>1832</ele>
    <time>2014-06-16T13:07:06Z</time>
    <speed>4.699721</speed>
  </trkpt>
  <trkpt lat="5.903417" lon="-75.574663">
    <ele>1833</ele>
    <time>2014-06-16T13:07:08Z</time>
    <speed>4.6554627</speed>
  </trkpt>
  <trkpt lat="5.903337" lon="-75.574647">
    <ele>1833</ele>
    <time>2014-06-16T13:07:10Z</time>
    <speed>4.6830935</speed>
  </trkpt>
  <trkpt lat="5.903255" lon="-75.574632">
    <ele>1832</ele>
    <time>2014-06-16T13:07:12Z</time>
    <speed>4.6960235</speed>
  </trkpt>
  <trkpt lat="5.903165" lon="-75.574623">
    <ele>1832</ele>
    <time>2014-06-16T13:07:14Z</time>
    <speed>4.7490215</speed>
  </trkpt>
  <trkpt lat="5.903078" lon="-75.574622">
    <ele>1832</ele>
    <time>2014-06-16T13:07:16Z</time>
    <speed>3.9690285</speed>
  </trkpt>
  <trkpt lat="5.903014" lon="-75.574638">
    <ele>1832</ele>
    <time>2014-06-16T13:07:18Z</time>
    <speed>3.3432853</speed>
  </trkpt>
  <trkpt lat="5.902955" lon="-75.574660">
    <ele>1831</ele>
    <time>2014-06-16T13:07:20Z</time>
    <speed>3.2597997</speed>
  </trkpt>
  <trkpt lat="5.902896" lon="-75.574690">
    <ele>1832</ele>
    <time>2014-06-16T13:07:22Z</time>
    <speed>3.756598</speed>
  </trkpt>
  <trkpt lat="5.902846" lon="-75.574721">
    <ele>1831</ele>
    <time>2014-06-16T13:07:24Z</time>
    <speed>3.3844547</speed>
  </trkpt>
  <trkpt lat="5.902805" lon="-75.574761">
    <ele>1832</ele>
    <time>2014-06-16T13:07:28Z</time>
    <speed>1.4794352</speed>
  </trkpt>
  <trkpt lat="5.902773" lon="-75.574793">
    <ele>1830</ele>
    <time>2014-06-16T13:07:30Z</time>
    <speed>2.2429054</speed>
  </trkpt>
  <trkpt lat="5.902728" lon="-75.574830">
    <ele>1830</ele>
    <time>2014-06-16T13:07:32Z</time>
    <speed>2.9952834</speed>
  </trkpt>
  <trkpt lat="5.902676" lon="-75.574869">
    <ele>1830</ele>
    <time>2014-06-16T13:07:34Z</time>
    <speed>3.5115485</speed>
  </trkpt>
  <trkpt lat="5.902615" lon="-75.574908">
    <ele>1830</ele>
    <time>2014-06-16T13:07:36Z</time>
    <speed>3.684431</speed>
  </trkpt>
  <trkpt lat="5.902544" lon="-75.574947">
    <ele>1830</ele>
    <time>2014-06-16T13:07:38Z</time>
    <speed>3.994463</speed>
  </trkpt>
  <trkpt lat="5.902467" lon="-75.574977">
    <ele>1831</ele>
    <time>2014-06-16T13:07:40Z</time>
    <speed>4.210338</speed>
  </trkpt>
  <trkpt lat="5.902382" lon="-75.575001">
    <ele>1830</ele>
    <time>2014-06-16T13:07:42Z</time>
    <speed>3.8174586</speed>
  </trkpt>
  <trkpt lat="5.902303" lon="-75.574991">
    <ele>1829</ele>
    <time>2014-06-16T13:07:44Z</time>
    <speed>3.8906</speed>
  </trkpt>
  <trkpt lat="5.902230" lon="-75.574965">
    <ele>1830</ele>
    <time>2014-06-16T13:07:46Z</time>
    <speed>4.0636697</speed>
  </trkpt>
  <trkpt lat="5.902148" lon="-75.574929">
    <ele>1831</ele>
    <time>2014-06-16T13:07:48Z</time>
    <speed>5.398112</speed>
  </trkpt>
  <trkpt lat="5.902065" lon="-75.574885">
    <ele>1832</ele>
    <time>2014-06-16T13:07:50Z</time>
    <speed>5.946955</speed>
  </trkpt>
  <trkpt lat="5.901952" lon="-75.574848">
    <ele>1832</ele>
    <time>2014-06-16T13:07:52Z</time>
    <speed>6.2275414</speed>
  </trkpt>
  <trkpt lat="5.901843" lon="-75.574838">
    <ele>1833</ele>
    <time>2014-06-16T13:07:54Z</time>
    <speed>6.3370547</speed>
  </trkpt>
  <trkpt lat="5.901738" lon="-75.574866">
    <ele>1834</ele>
    <time>2014-06-16T13:07:56Z</time>
    <speed>5.972536</speed>
  </trkpt>
  <trkpt lat="5.901648" lon="-75.574904">
    <ele>1834</ele>
    <time>2014-06-16T13:07:58Z</time>
    <speed>5.0623293</speed>
  </trkpt>
  <trkpt lat="5.901591" lon="-75.574963">
    <ele>1834</ele>
    <time>2014-06-16T13:08:00Z</time>
    <speed>4.7761264</speed>
  </trkpt>
  <trkpt lat="5.901567" lon="-75.575004">
    <ele>1834</ele>
    <time>2014-06-16T13:08:02Z</time>
    <speed>2.8031847</speed>
  </trkpt>
  <trkpt lat="5.901522" lon="-75.575065">
    <ele>1835</ele>
    <time>2014-06-16T13:08:06Z</time>
    <speed>3.7219126</speed>
  </trkpt>
  <trkpt lat="5.901462" lon="-75.575130">
    <ele>1836</ele>
    <time>2014-06-16T13:08:08Z</time>
    <speed>4.9549932</speed>
  </trkpt>
  <trkpt lat="5.901381" lon="-75.575180">
    <ele>1837</ele>
    <time>2014-06-16T13:08:10Z</time>
    <speed>4.2691274</speed>
  </trkpt>
  <trkpt lat="5.901307" lon="-75.575189">
    <ele>1838</ele>
    <time>2014-06-16T13:08:12Z</time>
    <speed>3.582322</speed>
  </trkpt>
  <trkpt lat="5.901254" lon="-75.575192">
    <ele>1839</ele>
    <time>2014-06-16T13:08:14Z</time>
    <speed>2.878088</speed>
  </trkpt>
  <trkpt lat="5.901205" lon="-75.575193">
    <ele>1838</ele>
    <time>2014-06-16T13:08:16Z</time>
    <speed>3.2234862</speed>
  </trkpt>
  <trkpt lat="5.901141" lon="-75.575188">
    <ele>1840</ele>
    <time>2014-06-16T13:08:18Z</time>
    <speed>3.6722205</speed>
  </trkpt>
  <trkpt lat="5.901052" lon="-75.575173">
    <ele>1839</ele>
    <time>2014-06-16T13:08:20Z</time>
    <speed>4.286268</speed>
  </trkpt>
  <trkpt lat="5.900961" lon="-75.575152">
    <ele>1841</ele>
    <time>2014-06-16T13:08:22Z</time>
    <speed>4.4193563</speed>
  </trkpt>
  <trkpt lat="5.900868" lon="-75.575130">
    <ele>1843</ele>
    <time>2014-06-16T13:08:24Z</time>
    <speed>4.8688297</speed>
  </trkpt>
  <trkpt lat="5.900776" lon="-75.575104">
    <ele>1843</ele>
    <time>2014-06-16T13:08:26Z</time>
    <speed>4.8403583</speed>
  </trkpt>
  <trkpt lat="5.900695" lon="-75.575069">
    <ele>1844</ele>
    <time>2014-06-16T13:08:28Z</time>
    <speed>5.333406</speed>
  </trkpt>
  <trkpt lat="5.900631" lon="-75.574980">
    <ele>1844</ele>
    <time>2014-06-16T13:08:30Z</time>
    <speed>6.1152983</speed>
  </trkpt>
  <trkpt lat="5.900575" lon="-75.574866">
    <ele>1846</ele>
    <time>2014-06-16T13:08:32Z</time>
    <speed>6.785721</speed>
  </trkpt>
  <trkpt lat="5.900537" lon="-75.574751">
    <ele>1845</ele>
    <time>2014-06-16T13:08:34Z</time>
    <speed>6.580106</speed>
  </trkpt>
  <trkpt lat="5.900504" lon="-75.574624">
    <ele>1847</ele>
    <time>2014-06-16T13:08:36Z</time>
    <speed>8.099235</speed>
  </trkpt>
  <trkpt lat="5.900473" lon="-75.574499">
    <ele>1847</ele>
    <time>2014-06-16T13:08:38Z</time>
    <speed>7.0743637</speed>
  </trkpt>
  <trkpt lat="5.900488" lon="-75.574362">
    <ele>1849</ele>
    <time>2014-06-16T13:08:40Z</time>
    <speed>6.51651</speed>
  </trkpt>
  <trkpt lat="5.900552" lon="-75.574226">
    <ele>1848</ele>
    <time>2014-06-16T13:08:42Z</time>
    <speed>6.1743317</speed>
  </trkpt>
  <trkpt lat="5.900616" lon="-75.574127">
    <ele>1850</ele>
    <time>2014-06-16T13:08:44Z</time>
    <speed>6.5320888</speed>
  </trkpt>
  <trkpt lat="5.900679" lon="-75.574025">
    <ele>1850</ele>
    <time>2014-06-16T13:08:46Z</time>
    <speed>6.8084464</speed>
  </trkpt>
  <trkpt lat="5.900736" lon="-75.573916">
    <ele>1852</ele>
    <time>2014-06-16T13:08:48Z</time>
    <speed>6.856506</speed>
  </trkpt>
  <trkpt lat="5.900764" lon="-75.573795">
    <ele>1851</ele>
    <time>2014-06-16T13:08:50Z</time>
    <speed>7.076561</speed>
  </trkpt>
  <trkpt lat="5.900750" lon="-75.573655">
    <ele>1852</ele>
    <time>2014-06-16T13:08:52Z</time>
    <speed>6.8990726</speed>
  </trkpt>
  <trkpt lat="5.900671" lon="-75.573548">
    <ele>1851</ele>
    <time>2014-06-16T13:08:54Z</time>
    <speed>6.9089036</speed>
  </trkpt>
  <trkpt lat="5.900530" lon="-75.573508">
    <ele>1852</ele>
    <time>2014-06-16T13:08:56Z</time>
    <speed>7.8553233</speed>
  </trkpt>
  <trkpt lat="5.900361" lon="-75.573509">
    <ele>1854</ele>
    <time>2014-06-16T13:08:58Z</time>
    <speed>8.915818</speed>
  </trkpt>
  <trkpt lat="5.900174" lon="-75.573512">
    <ele>1853</ele>
    <time>2014-06-16T13:09:00Z</time>
    <speed>9.605063</speed>
  </trkpt>
  <trkpt lat="5.899999" lon="-75.573487">
    <ele>1852</ele>
    <time>2014-06-16T13:09:02Z</time>
    <speed>8.695579</speed>
  </trkpt>
  <trkpt lat="5.899873" lon="-75.573401">
    <ele>1853</ele>
    <time>2014-06-16T13:09:04Z</time>
    <speed>7.0385633</speed>
  </trkpt>
  <trkpt lat="5.899851" lon="-75.573285">
    <ele>1853</ele>
    <time>2014-06-16T13:09:06Z</time>
    <speed>6.7106905</speed>
  </trkpt>
  <trkpt lat="5.899919" lon="-75.573184">
    <ele>1854</ele>
    <time>2014-06-16T13:09:08Z</time>
    <speed>7.894069</speed>
  </trkpt>
  <trkpt lat="5.900046" lon="-75.573101">
    <ele>1854</ele>
    <time>2014-06-16T13:09:10Z</time>
    <speed>8.314529</speed>
  </trkpt>
  <trkpt lat="5.900182" lon="-75.573014">
    <ele>1854</ele>
    <time>2014-06-16T13:09:12Z</time>
    <speed>8.0923815</speed>
  </trkpt>
  <trkpt lat="5.900278" lon="-75.572888">
    <ele>1855</ele>
    <time>2014-06-16T13:09:14Z</time>
    <speed>8.264298</speed>
  </trkpt>
  <trkpt lat="5.900299" lon="-75.572729">
    <ele>1855</ele>
    <time>2014-06-16T13:09:16Z</time>
    <speed>8.245241</speed>
  </trkpt>
  <trkpt lat="5.900293" lon="-75.572588">
    <ele>1855</ele>
    <time>2014-06-16T13:09:18Z</time>
    <speed>8.81644</speed>
  </trkpt>
  <trkpt lat="5.900257" lon="-75.572411">
    <ele>1855</ele>
    <time>2014-06-16T13:09:20Z</time>
    <speed>9.722638</speed>
  </trkpt>
  <trkpt lat="5.900207" lon="-75.572251">
    <ele>1856</ele>
    <time>2014-06-16T13:09:22Z</time>
    <speed>8.457141</speed>
  </trkpt>
  <trkpt lat="5.900120" lon="-75.572118">
    <ele>1855</ele>
    <time>2014-06-16T13:09:24Z</time>
    <speed>8.108951</speed>
  </trkpt>
  <trkpt lat="5.899982" lon="-75.572028">
    <ele>1855</ele>
    <time>2014-06-16T13:09:26Z</time>
    <speed>7.360998</speed>
  </trkpt>
  <trkpt lat="5.899826" lon="-75.571990">
    <ele>1854</ele>
    <time>2014-06-16T13:09:28Z</time>
    <speed>6.5145826</speed>
  </trkpt>
  <trkpt lat="5.899697" lon="-75.572015">
    <ele>1854</ele>
    <time>2014-06-16T13:09:30Z</time>
    <speed>6.9243174</speed>
  </trkpt>
  <trkpt lat="5.899554" lon="-75.572043">
    <ele>1853</ele>
    <time>2014-06-16T13:09:32Z</time>
    <speed>7.3862915</speed>
  </trkpt>
  <trkpt lat="5.899401" lon="-75.572072">
    <ele>1852</ele>
    <time>2014-06-16T13:09:34Z</time>
    <speed>7.6940536</speed>
  </trkpt>
  <trkpt lat="5.899260" lon="-75.572101">
    <ele>1851</ele>
    <time>2014-06-16T13:09:36Z</time>
    <speed>7.792226</speed>
  </trkpt>
  <trkpt lat="5.899124" lon="-75.572150">
    <ele>1851</ele>
    <time>2014-06-16T13:09:38Z</time>
    <speed>7.9094815</speed>
  </trkpt>
  <trkpt lat="5.898985" lon="-75.572221">
    <ele>1851</ele>
    <time>2014-06-16T13:09:40Z</time>
    <speed>8.24255</speed>
  </trkpt>
  <trkpt lat="5.898848" lon="-75.572302">
    <ele>1850</ele>
    <time>2014-06-16T13:09:42Z</time>
    <speed>7.639716</speed>
  </trkpt>
  <trkpt lat="5.898715" lon="-75.572365">
    <ele>1849</ele>
    <time>2014-06-16T13:09:44Z</time>
    <speed>7.291052</speed>
  </trkpt>
  <trkpt lat="5.898574" lon="-75.572381">
    <ele>1848</ele>
    <time>2014-06-16T13:09:46Z</time>
    <speed>6.620866</speed>
  </trkpt>
  <trkpt lat="5.898451" lon="-75.572351">
    <ele>1847</ele>
    <time>2014-06-16T13:09:48Z</time>
    <speed>6.9958744</speed>
  </trkpt>
  <trkpt lat="5.898326" lon="-75.572317">
    <ele>1848</ele>
    <time>2014-06-16T13:09:50Z</time>
    <speed>7.2106853</speed>
  </trkpt>
  <trkpt lat="5.898189" lon="-75.572289">
    <ele>1848</ele>
    <time>2014-06-16T13:09:52Z</time>
    <speed>7.44166</speed>
  </trkpt>
  <trkpt lat="5.898031" lon="-75.572269">
    <ele>1846</ele>
    <time>2014-06-16T13:09:54Z</time>
    <speed>9.127079</speed>
  </trkpt>
  <trkpt lat="5.897837" lon="-75.572249">
    <ele>1845</ele>
    <time>2014-06-16T13:09:56Z</time>
    <speed>11.190057</speed>
  </trkpt>
  <trkpt lat="5.897613" lon="-75.572236">
    <ele>1843</ele>
    <time>2014-06-16T13:09:58Z</time>
    <speed>12.164762</speed>
  </trkpt>
  <trkpt lat="5.897362" lon="-75.572241">
    <ele>1844</ele>
    <time>2014-06-16T13:10:00Z</time>
    <speed>13.791286</speed>
  </trkpt>
  <trkpt lat="5.897114" lon="-75.572251">
    <ele>1840</ele>
    <time>2014-06-16T13:10:02Z</time>
    <speed>12.860933</speed>
  </trkpt>
  <trkpt lat="5.896923" lon="-75.572268">
    <ele>1836</ele>
    <time>2014-06-16T13:10:04Z</time>
    <speed>10.111459</speed>
  </trkpt>
  <trkpt lat="5.896727" lon="-75.572287">
    <ele>1836</ele>
    <time>2014-06-16T13:10:06Z</time>
    <speed>10.333651</speed>
  </trkpt>
  <trkpt lat="5.896550" lon="-75.572300">
    <ele>1834</ele>
    <time>2014-06-16T13:10:08Z</time>
    <speed>8.89872</speed>
  </trkpt>
  <trkpt lat="5.896419" lon="-75.572312">
    <ele>1833</ele>
    <time>2014-06-16T13:10:10Z</time>
    <speed>7.0042124</speed>
  </trkpt>
  <trkpt lat="5.896284" lon="-75.572323">
    <ele>1830</ele>
    <time>2014-06-16T13:10:12Z</time>
    <speed>7.5184484</speed>
  </trkpt>
  <trkpt lat="5.896138" lon="-75.572332">
    <ele>1829</ele>
    <time>2014-06-16T13:10:14Z</time>
    <speed>7.551528</speed>
  </trkpt>
  <trkpt lat="5.896025" lon="-75.572338">
    <ele>1828</ele>
    <time>2014-06-16T13:10:16Z</time>
    <speed>5.4787855</speed>
  </trkpt>
  <trkpt lat="5.895915" lon="-75.572352">
    <ele>1827</ele>
    <time>2014-06-16T13:10:18Z</time>
    <speed>5.1530676</speed>
  </trkpt>
  <trkpt lat="5.895810" lon="-75.572374">
    <ele>1825</ele>
    <time>2014-06-16T13:10:20Z</time>
    <speed>5.947567</speed>
  </trkpt>
  <trkpt lat="5.895715" lon="-75.572409">
    <ele>1826</ele>
    <time>2014-06-16T13:10:22Z</time>
    <speed>5.3891816</speed>
  </trkpt>
  <trkpt lat="5.895630" lon="-75.572452">
    <ele>1825</ele>
    <time>2014-06-16T13:10:24Z</time>
    <speed>5.1539044</speed>
  </trkpt>
  <trkpt lat="5.895525" lon="-75.572518">
    <ele>1824</ele>
    <time>2014-06-16T13:10:26Z</time>
    <speed>5.55793</speed>
  </trkpt>
  <trkpt lat="5.895445" lon="-75.572577">
    <ele>1823</ele>
    <time>2014-06-16T13:10:28Z</time>
    <speed>4.542295</speed>
  </trkpt>
  <trkpt lat="5.895375" lon="-75.572624">
    <ele>1824</ele>
    <time>2014-06-16T13:10:30Z</time>
    <speed>4.796422</speed>
  </trkpt>
  <trkpt lat="5.895287" lon="-75.572661">
    <ele>1822</ele>
    <time>2014-06-16T13:10:32Z</time>
    <speed>5.059362</speed>
  </trkpt>
  <trkpt lat="5.895196" lon="-75.572678">
    <ele>1822</ele>
    <time>2014-06-16T13:10:34Z</time>
    <speed>4.1860747</speed>
  </trkpt>
  <trkpt lat="5.895099" lon="-75.572654">
    <ele>1822</ele>
    <time>2014-06-16T13:10:36Z</time>
    <speed>4.8464155</speed>
  </trkpt>
  <trkpt lat="5.895006" lon="-75.572613">
    <ele>1821</ele>
    <time>2014-06-16T13:10:38Z</time>
    <speed>5.0876145</speed>
  </trkpt>
  <trkpt lat="5.894911" lon="-75.572560">
    <ele>1821</ele>
    <time>2014-06-16T13:10:40Z</time>
    <speed>5.1143184</speed>
  </trkpt>
  <trkpt lat="5.894802" lon="-75.572491">
    <ele>1820</ele>
    <time>2014-06-16T13:10:42Z</time>
    <speed>6.357642</speed>
  </trkpt>
  <trkpt lat="5.894699" lon="-75.572424">
    <ele>1819</ele>
    <time>2014-06-16T13:10:44Z</time>
    <speed>6.519512</speed>
  </trkpt>
  <trkpt lat="5.894603" lon="-75.572361">
    <ele>1819</ele>
    <time>2014-06-16T13:10:46Z</time>
    <speed>5.0307</speed>
  </trkpt>
  <trkpt lat="5.894521" lon="-75.572308">
    <ele>1818</ele>
    <time>2014-06-16T13:10:48Z</time>
    <speed>5.0896134</speed>
  </trkpt>
  <trkpt lat="5.894440" lon="-75.572263">
    <ele>1818</ele>
    <time>2014-06-16T13:10:50Z</time>
    <speed>4.397322</speed>
  </trkpt>
  <trkpt lat="5.894314" lon="-75.572219">
    <ele>1816</ele>
    <time>2014-06-16T13:10:52Z</time>
    <speed>3.783947</speed>
  </trkpt>
  <trkpt lat="5.894230" lon="-75.572223">
    <ele>1815</ele>
    <time>2014-06-16T13:10:54Z</time>
    <speed>4.547131</speed>
  </trkpt>
  <trkpt lat="5.894137" lon="-75.572235">
    <ele>1816</ele>
    <time>2014-06-16T13:10:56Z</time>
    <speed>4.9479513</speed>
  </trkpt>
  <trkpt lat="5.894035" lon="-75.572264">
    <ele>1816</ele>
    <time>2014-06-16T13:10:58Z</time>
    <speed>6.3736334</speed>
  </trkpt>
  <trkpt lat="5.893906" lon="-75.572288">
    <ele>1816</ele>
    <time>2014-06-16T13:11:00Z</time>
    <speed>6.827608</speed>
  </trkpt>
  <trkpt lat="5.893766" lon="-75.572285">
    <ele>1813</ele>
    <time>2014-06-16T13:11:02Z</time>
    <speed>7.334351</speed>
  </trkpt>
  <trkpt lat="5.893627" lon="-75.572234">
    <ele>1813</ele>
    <time>2014-06-16T13:11:04Z</time>
    <speed>8.321303</speed>
  </trkpt>
  <trkpt lat="5.893483" lon="-75.572167">
    <ele>1813</ele>
    <time>2014-06-16T13:11:06Z</time>
    <speed>8.813852</speed>
  </trkpt>
  <trkpt lat="5.893321" lon="-75.572097">
    <ele>1813</ele>
    <time>2014-06-16T13:11:08Z</time>
    <speed>9.490324</speed>
  </trkpt>
  <trkpt lat="5.893152" lon="-75.572048">
    <ele>1814</ele>
    <time>2014-06-16T13:11:10Z</time>
    <speed>10.200597</speed>
  </trkpt>
  <trkpt lat="5.892964" lon="-75.572012">
    <ele>1815</ele>
    <time>2014-06-16T13:11:12Z</time>
    <speed>10.950772</speed>
  </trkpt>
  <trkpt lat="5.892758" lon="-75.571994">
    <ele>1815</ele>
    <time>2014-06-16T13:11:14Z</time>
    <speed>10.926803</speed>
  </trkpt>
  <trkpt lat="5.892566" lon="-75.572033">
    <ele>1816</ele>
    <time>2014-06-16T13:11:16Z</time>
    <speed>10.033585</speed>
  </trkpt>
  <trkpt lat="5.892393" lon="-75.572073">
    <ele>1817</ele>
    <time>2014-06-16T13:11:18Z</time>
    <speed>9.322198</speed>
  </trkpt>
  <trkpt lat="5.892230" lon="-75.572057">
    <ele>1818</ele>
    <time>2014-06-16T13:11:20Z</time>
    <speed>8.680588</speed>
  </trkpt>
  <trkpt lat="5.892076" lon="-75.571988">
    <ele>1819</ele>
    <time>2014-06-16T13:11:22Z</time>
    <speed>8.829485</speed>
  </trkpt>
  <trkpt lat="5.891946" lon="-75.571921">
    <ele>1820</ele>
    <time>2014-06-16T13:11:24Z</time>
    <speed>8.090115</speed>
  </trkpt>
  <trkpt lat="5.891832" lon="-75.571863">
    <ele>1822</ele>
    <time>2014-06-16T13:11:26Z</time>
    <speed>7.385871</speed>
  </trkpt>
  <trkpt lat="5.891679" lon="-75.571847">
    <ele>1822</ele>
    <time>2014-06-16T13:11:28Z</time>
    <speed>7.7919884</speed>
  </trkpt>
  <trkpt lat="5.891504" lon="-75.571854">
    <ele>1822</ele>
    <time>2014-06-16T13:11:30Z</time>
    <speed>8.847709</speed>
  </trkpt>
  <trkpt lat="5.891333" lon="-75.571869">
    <ele>1821</ele>
    <time>2014-06-16T13:11:32Z</time>
    <speed>9.589095</speed>
  </trkpt>
  <trkpt lat="5.891161" lon="-75.571883">
    <ele>1822</ele>
    <time>2014-06-16T13:11:34Z</time>
    <speed>9.927802</speed>
  </trkpt>
  <trkpt lat="5.890985" lon="-75.571889">
    <ele>1819</ele>
    <time>2014-06-16T13:11:36Z</time>
    <speed>9.386112</speed>
  </trkpt>
  <trkpt lat="5.890797" lon="-75.571888">
    <ele>1819</ele>
    <time>2014-06-16T13:11:38Z</time>
    <speed>9.711167</speed>
  </trkpt>
  <trkpt lat="5.890619" lon="-75.571877">
    <ele>1817</ele>
    <time>2014-06-16T13:11:40Z</time>
    <speed>9.258044</speed>
  </trkpt>
  <trkpt lat="5.890448" lon="-75.571864">
    <ele>1815</ele>
    <time>2014-06-16T13:11:42Z</time>
    <speed>9.367585</speed>
  </trkpt>
  <trkpt lat="5.890279" lon="-75.571846">
    <ele>1814</ele>
    <time>2014-06-16T13:11:44Z</time>
    <speed>9.059435</speed>
  </trkpt>
  <trkpt lat="5.890141" lon="-75.571823">
    <ele>1813</ele>
    <time>2014-06-16T13:11:46Z</time>
    <speed>7.216173</speed>
  </trkpt>
  <trkpt lat="5.890023" lon="-75.571797">
    <ele>1811</ele>
    <time>2014-06-16T13:11:48Z</time>
    <speed>6.42881</speed>
  </trkpt>
  <trkpt lat="5.889896" lon="-75.571760">
    <ele>1811</ele>
    <time>2014-06-16T13:11:50Z</time>
    <speed>7.27014</speed>
  </trkpt>
  <trkpt lat="5.889756" lon="-75.571719">
    <ele>1810</ele>
    <time>2014-06-16T13:11:52Z</time>
    <speed>7.932412</speed>
  </trkpt>
  <trkpt lat="5.889620" lon="-75.571682">
    <ele>1808</ele>
    <time>2014-06-16T13:11:54Z</time>
    <speed>7.381626</speed>
  </trkpt>
  <trkpt lat="5.889490" lon="-75.571648">
    <ele>1807</ele>
    <time>2014-06-16T13:11:56Z</time>
    <speed>7.3982487</speed>
  </trkpt>
  <trkpt lat="5.889373" lon="-75.571618">
    <ele>1804</ele>
    <time>2014-06-16T13:11:58Z</time>
    <speed>5.669757</speed>
  </trkpt>
  <trkpt lat="5.889296" lon="-75.571600">
    <ele>1805</ele>
    <time>2014-06-16T13:12:00Z</time>
    <speed>3.21132</speed>
  </trkpt>
  <trkpt lat="5.889246" lon="-75.571586">
    <ele>1804</ele>
    <time>2014-06-16T13:12:02Z</time>
    <speed>3.1685607</speed>
  </trkpt>
  <trkpt lat="5.889180" lon="-75.571570">
    <ele>1805</ele>
    <time>2014-06-16T13:12:04Z</time>
    <speed>4.034234</speed>
  </trkpt>
  <trkpt lat="5.889093" lon="-75.571548">
    <ele>1804</ele>
    <time>2014-06-16T13:12:06Z</time>
    <speed>4.296101</speed>
  </trkpt>
  <trkpt lat="5.888993" lon="-75.571520">
    <ele>1803</ele>
    <time>2014-06-16T13:12:08Z</time>
    <speed>4.782445</speed>
  </trkpt>
  <trkpt lat="5.888934" lon="-75.571501">
    <ele>1802</ele>
    <time>2014-06-16T13:12:10Z</time>
    <speed>2.9503443</speed>
  </trkpt>
  <trkpt lat="5.888889" lon="-75.571486">
    <ele>1802</ele>
    <time>2014-06-16T13:12:13Z</time>
    <speed>2.0376709</speed>
  </trkpt>
  <trkpt lat="5.888835" lon="-75.571465">
    <ele>1802</ele>
    <time>2014-06-16T13:12:15Z</time>
    <speed>4.159944</speed>
  </trkpt>
  <trkpt lat="5.888738" lon="-75.571433">
    <ele>1801</ele>
    <time>2014-06-16T13:12:17Z</time>
    <speed>5.3826528</speed>
  </trkpt>
  <trkpt lat="5.888615" lon="-75.571419">
    <ele>1801</ele>
    <time>2014-06-16T13:12:19Z</time>
    <speed>6.5548515</speed>
  </trkpt>
  <trkpt lat="5.888498" lon="-75.571436">
    <ele>1799</ele>
    <time>2014-06-16T13:12:21Z</time>
    <speed>6.763808</speed>
  </trkpt>
  <trkpt lat="5.888397" lon="-75.571473">
    <ele>1800</ele>
    <time>2014-06-16T13:12:23Z</time>
    <speed>5.815474</speed>
  </trkpt>
  <trkpt lat="5.888298" lon="-75.571521">
    <ele>1797</ele>
    <time>2014-06-16T13:12:25Z</time>
    <speed>5.308899</speed>
  </trkpt>
  <trkpt lat="5.888220" lon="-75.571569">
    <ele>1796</ele>
    <time>2014-06-16T13:12:27Z</time>
    <speed>5.6526957</speed>
  </trkpt>
  <trkpt lat="5.888143" lon="-75.571615">
    <ele>1797</ele>
    <time>2014-06-16T13:12:29Z</time>
    <speed>4.8080606</speed>
  </trkpt>
  <trkpt lat="5.888065" lon="-75.571660">
    <ele>1795</ele>
    <time>2014-06-16T13:12:31Z</time>
    <speed>5.410864</speed>
  </trkpt>
  <trkpt lat="5.887967" lon="-75.571718">
    <ele>1796</ele>
    <time>2014-06-16T13:12:33Z</time>
    <speed>6.1978006</speed>
  </trkpt>
  <trkpt lat="5.887867" lon="-75.571780">
    <ele>1794</ele>
    <time>2014-06-16T13:12:35Z</time>
    <speed>5.450336</speed>
  </trkpt>
  <trkpt lat="5.887784" lon="-75.571832">
    <ele>1793</ele>
    <time>2014-06-16T13:12:37Z</time>
    <speed>5.0972333</speed>
  </trkpt>
  <trkpt lat="5.887719" lon="-75.571872">
    <ele>1791</ele>
    <time>2014-06-16T13:12:39Z</time>
    <speed>4.0266695</speed>
  </trkpt>
  <trkpt lat="5.887648" lon="-75.571914">
    <ele>1790</ele>
    <time>2014-06-16T13:12:41Z</time>
    <speed>4.5719047</speed>
  </trkpt>
  <trkpt lat="5.887566" lon="-75.571963">
    <ele>1791</ele>
    <time>2014-06-16T13:12:43Z</time>
    <speed>4.8652</speed>
  </trkpt>
  <trkpt lat="5.887486" lon="-75.572014">
    <ele>1790</ele>
    <time>2014-06-16T13:12:45Z</time>
    <speed>4.8715186</speed>
  </trkpt>
  <trkpt lat="5.887407" lon="-75.572067">
    <ele>1789</ele>
    <time>2014-06-16T13:12:47Z</time>
    <speed>4.8791676</speed>
  </trkpt>
  <trkpt lat="5.887326" lon="-75.572126">
    <ele>1789</ele>
    <time>2014-06-16T13:12:49Z</time>
    <speed>5.282666</speed>
  </trkpt>
  <trkpt lat="5.887241" lon="-75.572188">
    <ele>1788</ele>
    <time>2014-06-16T13:12:51Z</time>
    <speed>5.502298</speed>
  </trkpt>
  <trkpt lat="5.887168" lon="-75.572242">
    <ele>1787</ele>
    <time>2014-06-16T13:12:53Z</time>
    <speed>4.5110393</speed>
  </trkpt>
  <trkpt lat="5.887102" lon="-75.572291">
    <ele>1786</ele>
    <time>2014-06-16T13:12:55Z</time>
    <speed>4.1290956</speed>
  </trkpt>
  <trkpt lat="5.887031" lon="-75.572343">
    <ele>1785</ele>
    <time>2014-06-16T13:12:57Z</time>
    <speed>5.0495334</speed>
  </trkpt>
  <trkpt lat="5.886949" lon="-75.572409">
    <ele>1784</ele>
    <time>2014-06-16T13:12:59Z</time>
    <speed>5.545175</speed>
  </trkpt>
  <trkpt lat="5.886885" lon="-75.572473">
    <ele>1785</ele>
    <time>2014-06-16T13:13:01Z</time>
    <speed>5.1707406</speed>
  </trkpt>
  <trkpt lat="5.886830" lon="-75.572547">
    <ele>1784</ele>
    <time>2014-06-16T13:13:03Z</time>
    <speed>5.2543654</speed>
  </trkpt>
  <trkpt lat="5.886781" lon="-75.572630">
    <ele>1782</ele>
    <time>2014-06-16T13:13:05Z</time>
    <speed>5.048002</speed>
  </trkpt>
  <trkpt lat="5.886741" lon="-75.572723">
    <ele>1782</ele>
    <time>2014-06-16T13:13:07Z</time>
    <speed>5.4343743</speed>
  </trkpt>
  <trkpt lat="5.886710" lon="-75.572811">
    <ele>1780</ele>
    <time>2014-06-16T13:13:09Z</time>
    <speed>4.5040646</speed>
  </trkpt>
  <trkpt lat="5.886679" lon="-75.572876">
    <ele>1781</ele>
    <time>2014-06-16T13:13:11Z</time>
    <speed>3.363718</speed>
  </trkpt>
  <trkpt lat="5.886650" lon="-75.572920">
    <ele>1780</ele>
    <time>2014-06-16T13:13:13Z</time>
    <speed>2.8947542</speed>
  </trkpt>
  <trkpt lat="5.886603" lon="-75.572962">
    <ele>1779</ele>
    <time>2014-06-16T13:13:16Z</time>
    <speed>2.5496473</speed>
  </trkpt>
  <trkpt lat="5.886556" lon="-75.572985">
    <ele>1779</ele>
    <time>2014-06-16T13:13:18Z</time>
    <speed>2.4292676</speed>
  </trkpt>
  <trkpt lat="5.886511" lon="-75.572995">
    <ele>1778</ele>
    <time>2014-06-16T13:13:20Z</time>
    <speed>2.4146492</speed>
  </trkpt>
  <trkpt lat="5.886446" lon="-75.573002">
    <ele>1778</ele>
    <time>2014-06-16T13:13:23Z</time>
    <speed>1.895523</speed>
  </trkpt>
  <trkpt lat="5.886390" lon="-75.573000">
    <ele>1778</ele>
    <time>2014-06-16T13:13:26Z</time>
    <speed>1.4792688</speed>
  </trkpt>
  <trkpt lat="5.886330" lon="-75.572988">
    <ele>1777</ele>
    <time>2014-06-16T13:13:30Z</time>
    <speed>2.1003125</speed>
  </trkpt>
  <trkpt lat="5.886277" lon="-75.572981">
    <ele>1777</ele>
    <time>2014-06-16T13:13:32Z</time>
    <speed>2.5946767</speed>
  </trkpt>
  <trkpt lat="5.886233" lon="-75.572974">
    <ele>1777</ele>
    <time>2014-06-16T13:13:34Z</time>
    <speed>1.8839408</speed>
  </trkpt>
  <trkpt lat="5.886183" lon="-75.572970">
    <ele>1776</ele>
    <time>2014-06-16T13:13:43Z</time>
    <speed>1.1734262</speed>
  </trkpt>
  <trkpt lat="5.886122" lon="-75.572954">
    <ele>1776</ele>
    <time>2014-06-16T13:13:46Z</time>
    <speed>1.9634084</speed>
  </trkpt>
  <trkpt lat="5.886064" lon="-75.572938">
    <ele>1778</ele>
    <time>2014-06-16T13:14:34Z</time>
    <speed>1.0889969</speed>
  </trkpt>
  <trkpt lat="5.886000" lon="-75.572920">
    <ele>1777</ele>
    <time>2014-06-16T13:14:37Z</time>
    <speed>1.915595</speed>
  </trkpt>
  <trkpt lat="5.885941" lon="-75.572901">
    <ele>1775</ele>
    <time>2014-06-16T13:14:40Z</time>
    <speed>2.141082</speed>
  </trkpt>
  <trkpt lat="5.885896" lon="-75.572880">
    <ele>1775</ele>
    <time>2014-06-16T13:14:44Z</time>
    <speed>1.2206767</speed>
  </trkpt>
  <trkpt lat="5.885838" lon="-75.572858">
    <ele>1774</ele>
    <time>2014-06-16T13:14:48Z</time>
    <speed>1.9083449</speed>
  </trkpt>
  <trkpt lat="5.885790" lon="-75.572847">
    <ele>1774</ele>
    <time>2014-06-16T13:14:51Z</time>
    <speed>0.9749866</speed>
  </trkpt>
  <trkpt lat="5.885739" lon="-75.572859">
    <ele>1773</ele>
    <time>2014-06-16T13:14:57Z</time>
    <speed>0.8589308</speed>
  </trkpt>
  <trkpt lat="5.885682" lon="-75.572872">
    <ele>1773</ele>
    <time>2014-06-16T13:15:00Z</time>
    <speed>1.1134788</speed>
  </trkpt>
  <trkpt lat="5.885620" lon="-75.572868">
    <ele>1773</ele>
    <time>2014-06-16T13:15:04Z</time>
    <speed>2.0614684</speed>
  </trkpt>
  <trkpt lat="5.885572" lon="-75.572860">
    <ele>1773</ele>
    <time>2014-06-16T13:15:07Z</time>
    <speed>1.9897374</speed>
  </trkpt>
  <trkpt lat="5.885525" lon="-75.572839">
    <ele>1773</ele>
    <time>2014-06-16T13:15:12Z</time>
    <speed>1.0270987</speed>
  </trkpt>
  <trkpt lat="5.885472" lon="-75.572799">
    <ele>1772</ele>
    <time>2014-06-16T13:15:17Z</time>
    <speed>1.9930899</speed>
  </trkpt>
  <trkpt lat="5.885429" lon="-75.572767">
    <ele>1771</ele>
    <time>2014-06-16T13:15:19Z</time>
    <speed>2.8173807</speed>
  </trkpt>
  <trkpt lat="5.885397" lon="-75.572733">
    <ele>1770</ele>
    <time>2014-06-16T13:15:21Z</time>
    <speed>1.2596254</speed>
  </trkpt>
  <trkpt lat="5.885367" lon="-75.572699">
    <ele>1771</ele>
    <time>2014-06-16T13:15:25Z</time>
    <speed>1.2314548</speed>
  </trkpt>
  <trkpt lat="5.885325" lon="-75.572660">
    <ele>1771</ele>
    <time>2014-06-16T13:15:29Z</time>
    <speed>1.693861</speed>
  </trkpt>
  <trkpt lat="5.885270" lon="-75.572632">
    <ele>1769</ele>
    <time>2014-06-16T13:15:33Z</time>
    <speed>2.0206916</speed>
  </trkpt>
  <trkpt lat="5.885220" lon="-75.572606">
    <ele>1769</ele>
    <time>2014-06-16T13:15:36Z</time>
    <speed>1.634193</speed>
  </trkpt>
  <trkpt lat="5.885170" lon="-75.572588">
    <ele>1768</ele>
    <time>2014-06-16T13:15:40Z</time>
    <speed>1.3857492</speed>
  </trkpt>
  <trkpt lat="5.885122" lon="-75.572592">
    <ele>1769</ele>
    <time>2014-06-16T13:15:44Z</time>
    <speed>1.662791</speed>
  </trkpt>
  <trkpt lat="5.885055" lon="-75.572608">
    <ele>1769</ele>
    <time>2014-06-16T13:15:47Z</time>
    <speed>2.024119</speed>
  </trkpt>
  <trkpt lat="5.885009" lon="-75.572617">
    <ele>1768</ele>
    <time>2014-06-16T13:15:49Z</time>
    <speed>1.9526021</speed>
  </trkpt>
  <trkpt lat="5.884950" lon="-75.572619">
    <ele>1767</ele>
    <time>2014-06-16T13:15:52Z</time>
    <speed>1.4190174</speed>
  </trkpt>
  <trkpt lat="5.884903" lon="-75.572624">
    <ele>1767</ele>
    <time>2014-06-16T13:15:58Z</time>
    <speed>1.0752589</speed>
  </trkpt>
  <trkpt lat="5.884838" lon="-75.572621">
    <ele>1767</ele>
    <time>2014-06-16T13:16:02Z</time>
    <speed>1.8624098</speed>
  </trkpt>
  <trkpt lat="5.884781" lon="-75.572605">
    <ele>1766</ele>
    <time>2014-06-16T13:16:05Z</time>
    <speed>2.1060193</speed>
  </trkpt>
  <trkpt lat="5.884729" lon="-75.572577">
    <ele>1765</ele>
    <time>2014-06-16T13:16:08Z</time>
    <speed>1.9212413</speed>
  </trkpt>
  <trkpt lat="5.884677" lon="-75.572541">
    <ele>1767</ele>
    <time>2014-06-16T13:16:11Z</time>
    <speed>2.3478634</speed>
  </trkpt>
  <trkpt lat="5.884651" lon="-75.572504">
    <ele>1765</ele>
    <time>2014-06-16T13:16:14Z</time>
    <speed>1.2869077</speed>
  </trkpt>
  <trkpt lat="5.884616" lon="-75.572455">
    <ele>1765</ele>
    <time>2014-06-16T13:16:17Z</time>
    <speed>2.6084359</speed>
  </trkpt>
  <trkpt lat="5.884577" lon="-75.572401">
    <ele>1764</ele>
    <time>2014-06-16T13:16:19Z</time>
    <speed>2.709628</speed>
  </trkpt>
  <trkpt lat="5.884546" lon="-75.572363">
    <ele>1765</ele>
    <time>2014-06-16T13:16:21Z</time>
    <speed>2.4135692</speed>
  </trkpt>
  <trkpt lat="5.884508" lon="-75.572319">
    <ele>1763</ele>
    <time>2014-06-16T13:16:24Z</time>
    <speed>1.7974449</speed>
  </trkpt>
  <trkpt lat="5.884471" lon="-75.572277">
    <ele>1762</ele>
    <time>2014-06-16T13:16:27Z</time>
    <speed>1.7457154</speed>
  </trkpt>
  <trkpt lat="5.884445" lon="-75.572239">
    <ele>1762</ele>
    <time>2014-06-16T13:16:29Z</time>
    <speed>2.8704693</speed>
  </trkpt>
  <trkpt lat="5.884410" lon="-75.572195">
    <ele>1762</ele>
    <time>2014-06-16T13:16:31Z</time>
    <speed>2.520664</speed>
  </trkpt>
  <trkpt lat="5.884367" lon="-75.572149">
    <ele>1761</ele>
    <time>2014-06-16T13:16:33Z</time>
    <speed>3.1746776</speed>
  </trkpt>
  <trkpt lat="5.884322" lon="-75.572113">
    <ele>1761</ele>
    <time>2014-06-16T13:16:35Z</time>
    <speed>2.5975754</speed>
  </trkpt>
  <trkpt lat="5.884278" lon="-75.572084">
    <ele>1761</ele>
    <time>2014-06-16T13:16:37Z</time>
    <speed>2.5816734</speed>
  </trkpt>
  <trkpt lat="5.884238" lon="-75.572049">
    <ele>1760</ele>
    <time>2014-06-16T13:16:39Z</time>
    <speed>2.710409</speed>
  </trkpt>
  <trkpt lat="5.884209" lon="-75.571991">
    <ele>1760</ele>
    <time>2014-06-16T13:16:41Z</time>
    <speed>3.2672925</speed>
  </trkpt>
  <trkpt lat="5.884156" lon="-75.571952">
    <ele>1758</ele>
    <time>2014-06-16T13:16:43Z</time>
    <speed>3.6424115</speed>
  </trkpt>
  <trkpt lat="5.884099" lon="-75.571918">
    <ele>1760</ele>
    <time>2014-06-16T13:16:45Z</time>
    <speed>3.8548334</speed>
  </trkpt>
  <trkpt lat="5.884028" lon="-75.571877">
    <ele>1759</ele>
    <time>2014-06-16T13:16:47Z</time>
    <speed>3.9327579</speed>
  </trkpt>
  <trkpt lat="5.883944" lon="-75.571833">
    <ele>1759</ele>
    <time>2014-06-16T13:16:49Z</time>
    <speed>3.5076447</speed>
  </trkpt>
  <trkpt lat="5.883865" lon="-75.571791">
    <ele>1757</ele>
    <time>2014-06-16T13:16:51Z</time>
    <speed>4.148564</speed>
  </trkpt>
  <trkpt lat="5.883785" lon="-75.571747">
    <ele>1759</ele>
    <time>2014-06-16T13:16:53Z</time>
    <speed>4.4717016</speed>
  </trkpt>
  <trkpt lat="5.883693" lon="-75.571709">
    <ele>1756</ele>
    <time>2014-06-16T13:16:55Z</time>
    <speed>5.3393025</speed>
  </trkpt>
  <trkpt lat="5.883583" lon="-75.571690">
    <ele>1756</ele>
    <time>2014-06-16T13:16:57Z</time>
    <speed>5.7616057</speed>
  </trkpt>
  <trkpt lat="5.883470" lon="-75.571686">
    <ele>1755</ele>
    <time>2014-06-16T13:16:59Z</time>
    <speed>5.37911</speed>
  </trkpt>
  <trkpt lat="5.883383" lon="-75.571681">
    <ele>1755</ele>
    <time>2014-06-16T13:17:01Z</time>
    <speed>4.195953</speed>
  </trkpt>
  <trkpt lat="5.883311" lon="-75.571639">
    <ele>1752</ele>
    <time>2014-06-16T13:17:03Z</time>
    <speed>4.870972</speed>
  </trkpt>
  <trkpt lat="5.883226" lon="-75.571585">
    <ele>1755</ele>
    <time>2014-06-16T13:17:05Z</time>
    <speed>5.8577003</speed>
  </trkpt>
  <trkpt lat="5.883133" lon="-75.571514">
    <ele>1751</ele>
    <time>2014-06-16T13:17:07Z</time>
    <speed>5.7673755</speed>
  </trkpt>
  <trkpt lat="5.883044" lon="-75.571437">
    <ele>1750</ele>
    <time>2014-06-16T13:17:09Z</time>
    <speed>6.682654</speed>
  </trkpt>
  <trkpt lat="5.882954" lon="-75.571359">
    <ele>1750</ele>
    <time>2014-06-16T13:17:11Z</time>
    <speed>6.140064</speed>
  </trkpt>
  <trkpt lat="5.882857" lon="-75.571307">
    <ele>1747</ele>
    <time>2014-06-16T13:17:13Z</time>
    <speed>5.717477</speed>
  </trkpt>
  <trkpt lat="5.882755" lon="-75.571290">
    <ele>1748</ele>
    <time>2014-06-16T13:17:15Z</time>
    <speed>5.026758</speed>
  </trkpt>
  <trkpt lat="5.882676" lon="-75.571294">
    <ele>1746</ele>
    <time>2014-06-16T13:17:17Z</time>
    <speed>3.6562</speed>
  </trkpt>
  <trkpt lat="5.882598" lon="-75.571313">
    <ele>1745</ele>
    <time>2014-06-16T13:17:19Z</time>
    <speed>4.6355667</speed>
  </trkpt>
  <trkpt lat="5.882515" lon="-75.571334">
    <ele>1745</ele>
    <time>2014-06-16T13:17:21Z</time>
    <speed>4.3140745</speed>
  </trkpt>
  <trkpt lat="5.882444" lon="-75.571350">
    <ele>1744</ele>
    <time>2014-06-16T13:17:23Z</time>
    <speed>3.7167363</speed>
  </trkpt>
  <trkpt lat="5.882354" lon="-75.571376">
    <ele>1744</ele>
    <time>2014-06-16T13:17:25Z</time>
    <speed>4.2885475</speed>
  </trkpt>
  <trkpt lat="5.882270" lon="-75.571399">
    <ele>1744</ele>
    <time>2014-06-16T13:17:27Z</time>
    <speed>3.9607744</speed>
  </trkpt>
  <trkpt lat="5.882202" lon="-75.571417">
    <ele>1743</ele>
    <time>2014-06-16T13:17:29Z</time>
    <speed>3.7055519</speed>
  </trkpt>
  <trkpt lat="5.882133" lon="-75.571432">
    <ele>1742</ele>
    <time>2014-06-16T13:17:31Z</time>
    <speed>4.083089</speed>
  </trkpt>
  <trkpt lat="5.882028" lon="-75.571439">
    <ele>1743</ele>
    <time>2014-06-16T13:17:33Z</time>
    <speed>6.2134132</speed>
  </trkpt>
  <trkpt lat="5.881881" lon="-75.571424">
    <ele>1742</ele>
    <time>2014-06-16T13:17:35Z</time>
    <speed>8.557264</speed>
  </trkpt>
  <trkpt lat="5.881720" lon="-75.571380">
    <ele>1743</ele>
    <time>2014-06-16T13:17:37Z</time>
    <speed>9.213471</speed>
  </trkpt>
  <trkpt lat="5.881553" lon="-75.571329">
    <ele>1741</ele>
    <time>2014-06-16T13:17:39Z</time>
    <speed>9.260714</speed>
  </trkpt>
  <trkpt lat="5.881385" lon="-75.571276">
    <ele>1739</ele>
    <time>2014-06-16T13:17:41Z</time>
    <speed>9.111561</speed>
  </trkpt>
  <trkpt lat="5.881242" lon="-75.571238">
    <ele>1736</ele>
    <time>2014-06-16T13:17:43Z</time>
    <speed>7.6925707</speed>
  </trkpt>
  <trkpt lat="5.881122" lon="-75.571184">
    <ele>1736</ele>
    <time>2014-06-16T13:17:45Z</time>
    <speed>6.568838</speed>
  </trkpt>
  <trkpt lat="5.881029" lon="-75.571120">
    <ele>1736</ele>
    <time>2014-06-16T13:17:47Z</time>
    <speed>5.824165</speed>
  </trkpt>
  <trkpt lat="5.880958" lon="-75.571048">
    <ele>1735</ele>
    <time>2014-06-16T13:17:49Z</time>
    <speed>5.332574</speed>
  </trkpt>
  <trkpt lat="5.880908" lon="-75.570948">
    <ele>1735</ele>
    <time>2014-06-16T13:17:51Z</time>
    <speed>6.118727</speed>
  </trkpt>
  <trkpt lat="5.880861" lon="-75.570840">
    <ele>1734</ele>
    <time>2014-06-16T13:17:53Z</time>
    <speed>5.8284893</speed>
  </trkpt>
  <trkpt lat="5.880822" lon="-75.570738">
    <ele>1733</ele>
    <time>2014-06-16T13:17:55Z</time>
    <speed>4.672135</speed>
  </trkpt>
  <trkpt lat="5.880785" lon="-75.570659">
    <ele>1733</ele>
    <time>2014-06-16T13:17:57Z</time>
    <speed>4.1003876</speed>
  </trkpt>
  <trkpt lat="5.880745" lon="-75.570586">
    <ele>1733</ele>
    <time>2014-06-16T13:17:59Z</time>
    <speed>3.616375</speed>
  </trkpt>
  <trkpt lat="5.880705" lon="-75.570511">
    <ele>1734</ele>
    <time>2014-06-16T13:18:01Z</time>
    <speed>3.3170886</speed>
  </trkpt>
  <trkpt lat="5.880650" lon="-75.570407">
    <ele>1733</ele>
    <time>2014-06-16T13:18:03Z</time>
    <speed>6.2615976</speed>
  </trkpt>
  <trkpt lat="5.880570" lon="-75.570294">
    <ele>1732</ele>
    <time>2014-06-16T13:18:05Z</time>
    <speed>7.664685</speed>
  </trkpt>
  <trkpt lat="5.880460" lon="-75.570196">
    <ele>1733</ele>
    <time>2014-06-16T13:18:07Z</time>
    <speed>8.137226</speed>
  </trkpt>
  <trkpt lat="5.880329" lon="-75.570117">
    <ele>1733</ele>
    <time>2014-06-16T13:18:09Z</time>
    <speed>7.826646</speed>
  </trkpt>
  <trkpt lat="5.880198" lon="-75.570045">
    <ele>1732</ele>
    <time>2014-06-16T13:18:11Z</time>
    <speed>7.065875</speed>
  </trkpt>
  <trkpt lat="5.880082" lon="-75.569961">
    <ele>1733</ele>
    <time>2014-06-16T13:18:13Z</time>
    <speed>6.998831</speed>
  </trkpt>
  <trkpt lat="5.879994" lon="-75.569874">
    <ele>1733</ele>
    <time>2014-06-16T13:18:15Z</time>
    <speed>6.6205015</speed>
  </trkpt>
  <trkpt lat="5.879929" lon="-75.569793">
    <ele>1733</ele>
    <time>2014-06-16T13:18:17Z</time>
    <speed>5.7223144</speed>
  </trkpt>
  <trkpt lat="5.879864" lon="-75.569704">
    <ele>1732</ele>
    <time>2014-06-16T13:18:19Z</time>
    <speed>6.0694594</speed>
  </trkpt>
  <trkpt lat="5.879803" lon="-75.569602">
    <ele>1732</ele>
    <time>2014-06-16T13:18:21Z</time>
    <speed>6.6647687</speed>
  </trkpt>
  <trkpt lat="5.879739" lon="-75.569492">
    <ele>1733</ele>
    <time>2014-06-16T13:18:23Z</time>
    <speed>7.236817</speed>
  </trkpt>
  <trkpt lat="5.879675" lon="-75.569392">
    <ele>1733</ele>
    <time>2014-06-16T13:18:25Z</time>
    <speed>6.324278</speed>
  </trkpt>
  <trkpt lat="5.879613" lon="-75.569286">
    <ele>1731</ele>
    <time>2014-06-16T13:18:27Z</time>
    <speed>6.807644</speed>
  </trkpt>
  <trkpt lat="5.879542" lon="-75.569175">
    <ele>1731</ele>
    <time>2014-06-16T13:18:29Z</time>
    <speed>7.1436176</speed>
  </trkpt>
  <trkpt lat="5.879464" lon="-75.569038">
    <ele>1731</ele>
    <time>2014-06-16T13:18:31Z</time>
    <speed>7.1618724</speed>
  </trkpt>
  <trkpt lat="5.879379" lon="-75.568914">
    <ele>1731</ele>
    <time>2014-06-16T13:18:33Z</time>
    <speed>7.602616</speed>
  </trkpt>
  <trkpt lat="5.879260" lon="-75.568818">
    <ele>1732</ele>
    <time>2014-06-16T13:18:35Z</time>
    <speed>8.329129</speed>
  </trkpt>
  <trkpt lat="5.879103" lon="-75.568769">
    <ele>1731</ele>
    <time>2014-06-16T13:18:37Z</time>
    <speed>9.2729025</speed>
  </trkpt>
  <trkpt lat="5.878945" lon="-75.568713">
    <ele>1731</ele>
    <time>2014-06-16T13:18:39Z</time>
    <speed>9.037052</speed>
  </trkpt>
  <trkpt lat="5.878833" lon="-75.568600">
    <ele>1731</ele>
    <time>2014-06-16T13:18:41Z</time>
    <speed>8.561736</speed>
  </trkpt>
  <trkpt lat="5.878750" lon="-75.568466">
    <ele>1729</ele>
    <time>2014-06-16T13:18:43Z</time>
    <speed>8.584112</speed>
  </trkpt>
  <trkpt lat="5.878667" lon="-75.568333">
    <ele>1726</ele>
    <time>2014-06-16T13:18:45Z</time>
    <speed>7.899247</speed>
  </trkpt>
  <trkpt lat="5.878578" lon="-75.568232">
    <ele>1725</ele>
    <time>2014-06-16T13:18:47Z</time>
    <speed>7.2551994</speed>
  </trkpt>
  <trkpt lat="5.878481" lon="-75.568132">
    <ele>1726</ele>
    <time>2014-06-16T13:18:49Z</time>
    <speed>5.963408</speed>
  </trkpt>
  <trkpt lat="5.878404" lon="-75.568044">
    <ele>1725</ele>
    <time>2014-06-16T13:18:51Z</time>
    <speed>5.844403</speed>
  </trkpt>
  <trkpt lat="5.878344" lon="-75.567966">
    <ele>1724</ele>
    <time>2014-06-16T13:18:53Z</time>
    <speed>4.792281</speed>
  </trkpt>
  <trkpt lat="5.878278" lon="-75.567899">
    <ele>1723</ele>
    <time>2014-06-16T13:18:55Z</time>
    <speed>4.956943</speed>
  </trkpt>
  <trkpt lat="5.878187" lon="-75.567820">
    <ele>1723</ele>
    <time>2014-06-16T13:18:57Z</time>
    <speed>6.7100925</speed>
  </trkpt>
  <trkpt lat="5.878070" lon="-75.567715">
    <ele>1722</ele>
    <time>2014-06-16T13:18:59Z</time>
    <speed>9.450695</speed>
  </trkpt>
  <trkpt lat="5.877918" lon="-75.567603">
    <ele>1722</ele>
    <time>2014-06-16T13:19:01Z</time>
    <speed>10.782398</speed>
  </trkpt>
  <trkpt lat="5.877741" lon="-75.567521">
    <ele>1719</ele>
    <time>2014-06-16T13:19:03Z</time>
    <speed>10.976548</speed>
  </trkpt>
  <trkpt lat="5.877552" lon="-75.567490">
    <ele>1720</ele>
    <time>2014-06-16T13:19:05Z</time>
    <speed>10.146721</speed>
  </trkpt>
  <trkpt lat="5.877350" lon="-75.567547">
    <ele>1717</ele>
    <time>2014-06-16T13:19:07Z</time>
    <speed>8.884012</speed>
  </trkpt>
  <trkpt lat="5.877174" lon="-75.567649">
    <ele>1713</ele>
    <time>2014-06-16T13:19:09Z</time>
    <speed>9.104549</speed>
  </trkpt>
  <trkpt lat="5.877009" lon="-75.567716">
    <ele>1714</ele>
    <time>2014-06-16T13:19:11Z</time>
    <speed>9.086316</speed>
  </trkpt>
  <trkpt lat="5.876872" lon="-75.567724">
    <ele>1711</ele>
    <time>2014-06-16T13:19:13Z</time>
    <speed>7.2888618</speed>
  </trkpt>
  <trkpt lat="5.876767" lon="-75.567680">
    <ele>1711</ele>
    <time>2014-06-16T13:19:15Z</time>
    <speed>5.906951</speed>
  </trkpt>
  <trkpt lat="5.876675" lon="-75.567607">
    <ele>1710</ele>
    <time>2014-06-16T13:19:17Z</time>
    <speed>6.2674823</speed>
  </trkpt>
  <trkpt lat="5.876602" lon="-75.567497">
    <ele>1711</ele>
    <time>2014-06-16T13:19:19Z</time>
    <speed>6.892988</speed>
  </trkpt>
  <trkpt lat="5.876553" lon="-75.567387">
    <ele>1708</ele>
    <time>2014-06-16T13:19:21Z</time>
    <speed>5.9767737</speed>
  </trkpt>
  <trkpt lat="5.876521" lon="-75.567276">
    <ele>1709</ele>
    <time>2014-06-16T13:19:23Z</time>
    <speed>5.423309</speed>
  </trkpt>
  <trkpt lat="5.876520" lon="-75.567172">
    <ele>1707</ele>
    <time>2014-06-16T13:19:25Z</time>
    <speed>5.4282837</speed>
  </trkpt>
  <trkpt lat="5.876547" lon="-75.567036">
    <ele>1709</ele>
    <time>2014-06-16T13:19:27Z</time>
    <speed>6.1591654</speed>
  </trkpt>
  <trkpt lat="5.876575" lon="-75.566904">
    <ele>1707</ele>
    <time>2014-06-16T13:19:29Z</time>
    <speed>6.664808</speed>
  </trkpt>
  <trkpt lat="5.876615" lon="-75.566767">
    <ele>1705</ele>
    <time>2014-06-16T13:19:31Z</time>
    <speed>7.6180677</speed>
  </trkpt>
  <trkpt lat="5.876673" lon="-75.566639">
    <ele>1707</ele>
    <time>2014-06-16T13:19:33Z</time>
    <speed>7.006772</speed>
  </trkpt>
  <trkpt lat="5.876743" lon="-75.566547">
    <ele>1705</ele>
    <time>2014-06-16T13:19:35Z</time>
    <speed>5.8294163</speed>
  </trkpt>
  <trkpt lat="5.876823" lon="-75.566479">
    <ele>1705</ele>
    <time>2014-06-16T13:19:37Z</time>
    <speed>5.0075316</speed>
  </trkpt>
  <trkpt lat="5.876894" lon="-75.566417">
    <ele>1704</ele>
    <time>2014-06-16T13:19:39Z</time>
    <speed>5.198038</speed>
  </trkpt>
  <trkpt lat="5.876966" lon="-75.566341">
    <ele>1705</ele>
    <time>2014-06-16T13:19:41Z</time>
    <speed>5.584466</speed>
  </trkpt>
  <trkpt lat="5.877021" lon="-75.566251">
    <ele>1703</ele>
    <time>2014-06-16T13:19:43Z</time>
    <speed>5.4339066</speed>
  </trkpt>
  <trkpt lat="5.877041" lon="-75.566158">
    <ele>1703</ele>
    <time>2014-06-16T13:19:45Z</time>
    <speed>4.73628</speed>
  </trkpt>
  <trkpt lat="5.877039" lon="-75.566072">
    <ele>1701</ele>
    <time>2014-06-16T13:19:47Z</time>
    <speed>4.621164</speed>
  </trkpt>
  <trkpt lat="5.876980" lon="-75.565979">
    <ele>1702</ele>
    <time>2014-06-16T13:19:49Z</time>
    <speed>6.222469</speed>
  </trkpt>
  <trkpt lat="5.876835" lon="-75.565904">
    <ele>1701</ele>
    <time>2014-06-16T13:19:51Z</time>
    <speed>8.45755</speed>
  </trkpt>
  <trkpt lat="5.876659" lon="-75.565908">
    <ele>1701</ele>
    <time>2014-06-16T13:19:53Z</time>
    <speed>6.6606894</speed>
  </trkpt>
  <trkpt lat="5.876528" lon="-75.565902">
    <ele>1700</ele>
    <time>2014-06-16T13:19:55Z</time>
    <speed>5.3294663</speed>
  </trkpt>
  <trkpt lat="5.876363" lon="-75.565898">
    <ele>1700</ele>
    <time>2014-06-16T13:19:57Z</time>
    <speed>5.451277</speed>
  </trkpt>
  <trkpt lat="5.876228" lon="-75.565901">
    <ele>1699</ele>
    <time>2014-06-16T13:19:59Z</time>
    <speed>5.498492</speed>
  </trkpt>
  <trkpt lat="5.876124" lon="-75.565906">
    <ele>1700</ele>
    <time>2014-06-16T13:20:01Z</time>
    <speed>6.0636463</speed>
  </trkpt>
  <trkpt lat="5.876013" lon="-75.565926">
    <ele>1699</ele>
    <time>2014-06-16T13:20:03Z</time>
    <speed>6.3865957</speed>
  </trkpt>
  <trkpt lat="5.875892" lon="-75.565982">
    <ele>1699</ele>
    <time>2014-06-16T13:20:05Z</time>
    <speed>6.874467</speed>
  </trkpt>
  <trkpt lat="5.875788" lon="-75.566071">
    <ele>1700</ele>
    <time>2014-06-16T13:20:07Z</time>
    <speed>7.0373955</speed>
  </trkpt>
  <trkpt lat="5.875677" lon="-75.566182">
    <ele>1700</ele>
    <time>2014-06-16T13:20:09Z</time>
    <speed>7.244929</speed>
  </trkpt>
  <trkpt lat="5.875572" lon="-75.566262">
    <ele>1700</ele>
    <time>2014-06-16T13:20:11Z</time>
    <speed>6.947404</speed>
  </trkpt>
  <trkpt lat="5.875462" lon="-75.566304">
    <ele>1699</ele>
    <time>2014-06-16T13:20:13Z</time>
    <speed>6.121251</speed>
  </trkpt>
  <trkpt lat="5.875347" lon="-75.566296">
    <ele>1699</ele>
    <time>2014-06-16T13:20:15Z</time>
    <speed>5.643594</speed>
  </trkpt>
  <trkpt lat="5.875252" lon="-75.566251">
    <ele>1702</ele>
    <time>2014-06-16T13:20:17Z</time>
    <speed>5.417213</speed>
  </trkpt>
  <trkpt lat="5.875163" lon="-75.566166">
    <ele>1702</ele>
    <time>2014-06-16T13:20:19Z</time>
    <speed>4.967453</speed>
  </trkpt>
  <trkpt lat="5.875117" lon="-75.566103">
    <ele>1701</ele>
    <time>2014-06-16T13:20:21Z</time>
    <speed>2.9052458</speed>
  </trkpt>
  <trkpt lat="5.875080" lon="-75.566059">
    <ele>1702</ele>
    <time>2014-06-16T13:20:23Z</time>
    <speed>2.6346352</speed>
  </trkpt>
  <trkpt lat="5.875032" lon="-75.565997">
    <ele>1703</ele>
    <time>2014-06-16T13:20:25Z</time>
    <speed>3.9041169</speed>
  </trkpt>
  <trkpt lat="5.874975" lon="-75.565933">
    <ele>1703</ele>
    <time>2014-06-16T13:20:27Z</time>
    <speed>4.500157</speed>
  </trkpt>
  <trkpt lat="5.874903" lon="-75.565879">
    <ele>1704</ele>
    <time>2014-06-16T13:20:29Z</time>
    <speed>4.9743857</speed>
  </trkpt>
  <trkpt lat="5.874815" lon="-75.565841">
    <ele>1707</ele>
    <time>2014-06-16T13:20:31Z</time>
    <speed>5.5165706</speed>
  </trkpt>
  <trkpt lat="5.874728" lon="-75.565829">
    <ele>1706</ele>
    <time>2014-06-16T13:20:33Z</time>
    <speed>4.9680505</speed>
  </trkpt>
  <trkpt lat="5.874641" lon="-75.565828">
    <ele>1707</ele>
    <time>2014-06-16T13:20:35Z</time>
    <speed>4.8304534</speed>
  </trkpt>
  <trkpt lat="5.874544" lon="-75.565827">
    <ele>1708</ele>
    <time>2014-06-16T13:20:37Z</time>
    <speed>5.3353376</speed>
  </trkpt>
  <trkpt lat="5.874440" lon="-75.565834">
    <ele>1708</ele>
    <time>2014-06-16T13:20:39Z</time>
    <speed>5.5257907</speed>
  </trkpt>
  <trkpt lat="5.874344" lon="-75.565845">
    <ele>1707</ele>
    <time>2014-06-16T13:20:41Z</time>
    <speed>4.9818964</speed>
  </trkpt>
  <trkpt lat="5.874256" lon="-75.565859">
    <ele>1708</ele>
    <time>2014-06-16T13:20:43Z</time>
    <speed>5.069972</speed>
  </trkpt>
  <trkpt lat="5.874175" lon="-75.565892">
    <ele>1709</ele>
    <time>2014-06-16T13:20:45Z</time>
    <speed>4.990477</speed>
  </trkpt>
  <trkpt lat="5.874104" lon="-75.565941">
    <ele>1710</ele>
    <time>2014-06-16T13:20:47Z</time>
    <speed>4.573718</speed>
  </trkpt>
  <trkpt lat="5.874039" lon="-75.565985">
    <ele>1709</ele>
    <time>2014-06-16T13:20:49Z</time>
    <speed>3.964365</speed>
  </trkpt>
  <trkpt lat="5.873969" lon="-75.566030">
    <ele>1709</ele>
    <time>2014-06-16T13:20:51Z</time>
    <speed>4.4450216</speed>
  </trkpt>
  <trkpt lat="5.873889" lon="-75.566053">
    <ele>1711</ele>
    <time>2014-06-16T13:20:53Z</time>
    <speed>4.8158674</speed>
  </trkpt>
  <trkpt lat="5.873787" lon="-75.566034">
    <ele>1709</ele>
    <time>2014-06-16T13:20:55Z</time>
    <speed>5.4583006</speed>
  </trkpt>
  <trkpt lat="5.873699" lon="-75.565995">
    <ele>1711</ele>
    <time>2014-06-16T13:20:57Z</time>
    <speed>4.612948</speed>
  </trkpt>
  <trkpt lat="5.873649" lon="-75.565910">
    <ele>1711</ele>
    <time>2014-06-16T13:20:59Z</time>
    <speed>5.227077</speed>
  </trkpt>
  <trkpt lat="5.873642" lon="-75.565808">
    <ele>1712</ele>
    <time>2014-06-16T13:21:01Z</time>
    <speed>5.1766214</speed>
  </trkpt>
  <trkpt lat="5.873658" lon="-75.565732">
    <ele>1712</ele>
    <time>2014-06-16T13:21:03Z</time>
    <speed>4.0467033</speed>
  </trkpt>
  <trkpt lat="5.873688" lon="-75.565660">
    <ele>1712</ele>
    <time>2014-06-16T13:21:05Z</time>
    <speed>4.364226</speed>
  </trkpt>
  <trkpt lat="5.873722" lon="-75.565580">
    <ele>1713</ele>
    <time>2014-06-16T13:21:07Z</time>
    <speed>4.369016</speed>
  </trkpt>
  <trkpt lat="5.873748" lon="-75.565495">
    <ele>1714</ele>
    <time>2014-06-16T13:21:09Z</time>
    <speed>4.4754477</speed>
  </trkpt>
  <trkpt lat="5.873751" lon="-75.565408">
    <ele>1714</ele>
    <time>2014-06-16T13:21:11Z</time>
    <speed>4.7893825</speed>
  </trkpt>
  <trkpt lat="5.873723" lon="-75.565337">
    <ele>1715</ele>
    <time>2014-06-16T13:21:13Z</time>
    <speed>4.1383247</speed>
  </trkpt>
  <trkpt lat="5.873662" lon="-75.565283">
    <ele>1715</ele>
    <time>2014-06-16T13:21:15Z</time>
    <speed>4.394504</speed>
  </trkpt>
  <trkpt lat="5.873601" lon="-75.565242">
    <ele>1715</ele>
    <time>2014-06-16T13:21:17Z</time>
    <speed>4.169384</speed>
  </trkpt>
  <trkpt lat="5.873529" lon="-75.565191">
    <ele>1716</ele>
    <time>2014-06-16T13:21:19Z</time>
    <speed>5.014941</speed>
  </trkpt>
  <trkpt lat="5.873455" lon="-75.565139">
    <ele>1716</ele>
    <time>2014-06-16T13:21:21Z</time>
    <speed>4.8991714</speed>
  </trkpt>
  <trkpt lat="5.873371" lon="-75.565101">
    <ele>1715</ele>
    <time>2014-06-16T13:21:23Z</time>
    <speed>4.8640156</speed>
  </trkpt>
  <trkpt lat="5.873260" lon="-75.565070">
    <ele>1717</ele>
    <time>2014-06-16T13:21:25Z</time>
    <speed>5.4147487</speed>
  </trkpt>
  <trkpt lat="5.873152" lon="-75.565060">
    <ele>1717</ele>
    <time>2014-06-16T13:21:27Z</time>
    <speed>5.416826</speed>
  </trkpt>
  <trkpt lat="5.873053" lon="-75.565074">
    <ele>1716</ele>
    <time>2014-06-16T13:21:29Z</time>
    <speed>5.059239</speed>
  </trkpt>
  <trkpt lat="5.872968" lon="-75.565109">
    <ele>1714</ele>
    <time>2014-06-16T13:21:31Z</time>
    <speed>4.8528805</speed>
  </trkpt>
  <trkpt lat="5.872913" lon="-75.565142">
    <ele>1714</ele>
    <time>2014-06-16T13:21:33Z</time>
    <speed>2.9195106</speed>
  </trkpt>
  <trkpt lat="5.872864" lon="-75.565170">
    <ele>1712</ele>
    <time>2014-06-16T13:21:35Z</time>
    <speed>3.367231</speed>
  </trkpt>
  <trkpt lat="5.872817" lon="-75.565193">
    <ele>1713</ele>
    <time>2014-06-16T13:21:37Z</time>
    <speed>2.030687</speed>
  </trkpt>
  <trkpt lat="5.872771" lon="-75.565211">
    <ele>1712</ele>
    <time>2014-06-16T13:21:40Z</time>
    <speed>1.2799126</speed>
  </trkpt>
  <trkpt lat="5.872727" lon="-75.565230">
    <ele>1712</ele>
    <time>2014-06-16T13:21:44Z</time>
    <speed>0.8584585</speed>
  </trkpt>
  <trkpt lat="5.872680" lon="-75.565252">
    <ele>1712</ele>
    <time>2014-06-16T13:21:49Z</time>
    <speed>1.9941789</speed>
  </trkpt>
  <trkpt lat="5.872630" lon="-75.565277">
    <ele>1710</ele>
    <time>2014-06-16T13:21:52Z</time>
    <speed>2.350622</speed>
  </trkpt>
  <trkpt lat="5.872588" lon="-75.565307">
    <ele>1710</ele>
    <time>2014-06-16T13:21:54Z</time>
    <speed>2.974723</speed>
  </trkpt>
  <trkpt lat="5.872527" lon="-75.565336">
    <ele>1710</ele>
    <time>2014-06-16T13:21:56Z</time>
    <speed>4.0172477</speed>
  </trkpt>
  <trkpt lat="5.872438" lon="-75.565382">
    <ele>1710</ele>
    <time>2014-06-16T13:21:58Z</time>
    <speed>5.6599727</speed>
  </trkpt>
  <trkpt lat="5.872331" lon="-75.565428">
    <ele>1709</ele>
    <time>2014-06-16T13:22:00Z</time>
    <speed>6.204613</speed>
  </trkpt>
  <trkpt lat="5.872197" lon="-75.565446">
    <ele>1708</ele>
    <time>2014-06-16T13:22:02Z</time>
    <speed>7.814983</speed>
  </trkpt>
  <trkpt lat="5.872042" lon="-75.565443">
    <ele>1708</ele>
    <time>2014-06-16T13:22:04Z</time>
    <speed>8.188127</speed>
  </trkpt>
  <trkpt lat="5.871918" lon="-75.565378">
    <ele>1707</ele>
    <time>2014-06-16T13:22:06Z</time>
    <speed>7.5839825</speed>
  </trkpt>
  <trkpt lat="5.871849" lon="-75.565247">
    <ele>1705</ele>
    <time>2014-06-16T13:22:08Z</time>
    <speed>9.052721</speed>
  </trkpt>
  <trkpt lat="5.871793" lon="-75.565082">
    <ele>1706</ele>
    <time>2014-06-16T13:22:10Z</time>
    <speed>9.593232</speed>
  </trkpt>
  <trkpt lat="5.871740" lon="-75.564857">
    <ele>1705</ele>
    <time>2014-06-16T13:22:12Z</time>
    <speed>11.523107</speed>
  </trkpt>
  <trkpt lat="5.871691" lon="-75.564614">
    <ele>1701</ele>
    <time>2014-06-16T13:22:14Z</time>
    <speed>12.157908</speed>
  </trkpt>
  <trkpt lat="5.871638" lon="-75.564402">
    <ele>1701</ele>
    <time>2014-06-16T13:22:16Z</time>
    <speed>11.073638</speed>
  </trkpt>
  <trkpt lat="5.871555" lon="-75.564179">
    <ele>1698</ele>
    <time>2014-06-16T13:22:18Z</time>
    <speed>11.629569</speed>
  </trkpt>
  <trkpt lat="5.871435" lon="-75.564000">
    <ele>1699</ele>
    <time>2014-06-16T13:22:20Z</time>
    <speed>10.885564</speed>
  </trkpt>
  <trkpt lat="5.871280" lon="-75.563891">
    <ele>1694</ele>
    <time>2014-06-16T13:22:22Z</time>
    <speed>10.158269</speed>
  </trkpt>
  <trkpt lat="5.871155" lon="-75.563785">
    <ele>1692</ele>
    <time>2014-06-16T13:22:24Z</time>
    <speed>8.468582</speed>
  </trkpt>
  <trkpt lat="5.871101" lon="-75.563644">
    <ele>1691</ele>
    <time>2014-06-16T13:22:26Z</time>
    <speed>8.099801</speed>
  </trkpt>
  <trkpt lat="5.871098" lon="-75.563463">
    <ele>1691</ele>
    <time>2014-06-16T13:22:28Z</time>
    <speed>9.895315</speed>
  </trkpt>
  <trkpt lat="5.871059" lon="-75.563280">
    <ele>1689</ele>
    <time>2014-06-16T13:22:30Z</time>
    <speed>10.282826</speed>
  </trkpt>
  <trkpt lat="5.870939" lon="-75.563123">
    <ele>1689</ele>
    <time>2014-06-16T13:22:32Z</time>
    <speed>10.805804</speed>
  </trkpt>
  <trkpt lat="5.870798" lon="-75.562959">
    <ele>1685</ele>
    <time>2014-06-16T13:22:34Z</time>
    <speed>11.116691</speed>
  </trkpt>
  <trkpt lat="5.870720" lon="-75.562776">
    <ele>1683</ele>
    <time>2014-06-16T13:22:36Z</time>
    <speed>9.898785</speed>
  </trkpt>
  <trkpt lat="5.870666" lon="-75.562594">
    <ele>1682</ele>
    <time>2014-06-16T13:22:38Z</time>
    <speed>10.051452</speed>
  </trkpt>
  <trkpt lat="5.870564" lon="-75.562460">
    <ele>1681</ele>
    <time>2014-06-16T13:22:40Z</time>
    <speed>9.040985</speed>
  </trkpt>
  <trkpt lat="5.870402" lon="-75.562399">
    <ele>1680</ele>
    <time>2014-06-16T13:22:42Z</time>
    <speed>9.566599</speed>
  </trkpt>
  <trkpt lat="5.870219" lon="-75.562365">
    <ele>1679</ele>
    <time>2014-06-16T13:22:44Z</time>
    <speed>10.172552</speed>
  </trkpt>
  <trkpt lat="5.870020" lon="-75.562331">
    <ele>1678</ele>
    <time>2014-06-16T13:22:46Z</time>
    <speed>11.000002</speed>
  </trkpt>
  <trkpt lat="5.869846" lon="-75.562233">
    <ele>1675</ele>
    <time>2014-06-16T13:22:48Z</time>
    <speed>10.447114</speed>
  </trkpt>
  <trkpt lat="5.869713" lon="-75.562095">
    <ele>1675</ele>
    <time>2014-06-16T13:22:50Z</time>
    <speed>10.18246</speed>
  </trkpt>
  <trkpt lat="5.869597" lon="-75.561944">
    <ele>1672</ele>
    <time>2014-06-16T13:22:52Z</time>
    <speed>10.19027</speed>
  </trkpt>
  <trkpt lat="5.869486" lon="-75.561750">
    <ele>1671</ele>
    <time>2014-06-16T13:22:54Z</time>
    <speed>10.554274</speed>
  </trkpt>
  <trkpt lat="5.869426" lon="-75.561567">
    <ele>1669</ele>
    <time>2014-06-16T13:22:56Z</time>
    <speed>10.036327</speed>
  </trkpt>
  <trkpt lat="5.869316" lon="-75.561436">
    <ele>1667</ele>
    <time>2014-06-16T13:22:58Z</time>
    <speed>9.962055</speed>
  </trkpt>
  <trkpt lat="5.869152" lon="-75.561316">
    <ele>1667</ele>
    <time>2014-06-16T13:23:00Z</time>
    <speed>9.995632</speed>
  </trkpt>
  <trkpt lat="5.868924" lon="-75.561251">
    <ele>1666</ele>
    <time>2014-06-16T13:23:02Z</time>
    <speed>12.674357</speed>
  </trkpt>
  <trkpt lat="5.868706" lon="-75.561260">
    <ele>1664</ele>
    <time>2014-06-16T13:23:04Z</time>
    <speed>11.882516</speed>
  </trkpt>
  <trkpt lat="5.868493" lon="-75.561324">
    <ele>1661</ele>
    <time>2014-06-16T13:23:06Z</time>
    <speed>11.475943</speed>
  </trkpt>
  <trkpt lat="5.868284" lon="-75.561317">
    <ele>1659</ele>
    <time>2014-06-16T13:23:08Z</time>
    <speed>11.263298</speed>
  </trkpt>
  <trkpt lat="5.868096" lon="-75.561211">
    <ele>1657</ele>
    <time>2014-06-16T13:23:10Z</time>
    <speed>12.362289</speed>
  </trkpt>
  <trkpt lat="5.867935" lon="-75.561026">
    <ele>1659</ele>
    <time>2014-06-16T13:23:12Z</time>
    <speed>13.878539</speed>
  </trkpt>
  <trkpt lat="5.867757" lon="-75.560766">
    <ele>1659</ele>
    <time>2014-06-16T13:23:14Z</time>
    <speed>17.669922</speed>
  </trkpt>
  <trkpt lat="5.867602" lon="-75.560519">
    <ele>1655</ele>
    <time>2014-06-16T13:23:16Z</time>
    <speed>15.135939</speed>
  </trkpt>
  <trkpt lat="5.867554" lon="-75.560272">
    <ele>1650</ele>
    <time>2014-06-16T13:23:18Z</time>
    <speed>13.329956</speed>
  </trkpt>
  <trkpt lat="5.867643" lon="-75.560028">
    <ele>1650</ele>
    <time>2014-06-16T13:23:20Z</time>
    <speed>14.958499</speed>
  </trkpt>
  <trkpt lat="5.867805" lon="-75.559782">
    <ele>1651</ele>
    <time>2014-06-16T13:23:22Z</time>
    <speed>16.5327</speed>
  </trkpt>
  <trkpt lat="5.867967" lon="-75.559533">
    <ele>1648</ele>
    <time>2014-06-16T13:23:24Z</time>
    <speed>16.112822</speed>
  </trkpt>
  <trkpt lat="5.868067" lon="-75.559273">
    <ele>1645</ele>
    <time>2014-06-16T13:23:26Z</time>
    <speed>14.863684</speed>
  </trkpt>
  <trkpt lat="5.868056" lon="-75.559010">
    <ele>1643</ele>
    <time>2014-06-16T13:23:28Z</time>
    <speed>14.625154</speed>
  </trkpt>
  <trkpt lat="5.867913" lon="-75.558786">
    <ele>1639</ele>
    <time>2014-06-16T13:23:30Z</time>
    <speed>14.730691</speed>
  </trkpt>
  <trkpt lat="5.867668" lon="-75.558676">
    <ele>1640</ele>
    <time>2014-06-16T13:23:32Z</time>
    <speed>15.048278</speed>
  </trkpt>
  <trkpt lat="5.867393" lon="-75.558724">
    <ele>1638</ele>
    <time>2014-06-16T13:23:34Z</time>
    <speed>14.434543</speed>
  </trkpt>
  <trkpt lat="5.867196" lon="-75.558893">
    <ele>1633</ele>
    <time>2014-06-16T13:23:36Z</time>
    <speed>13.853035</speed>
  </trkpt>
  <trkpt lat="5.867084" lon="-75.559128">
    <ele>1630</ele>
    <time>2014-06-16T13:23:38Z</time>
    <speed>14.003623</speed>
  </trkpt>
  <trkpt lat="5.866999" lon="-75.559354">
    <ele>1627</ele>
    <time>2014-06-16T13:23:40Z</time>
    <speed>12.753782</speed>
  </trkpt>
  <trkpt lat="5.866871" lon="-75.559546">
    <ele>1625</ele>
    <time>2014-06-16T13:23:42Z</time>
    <speed>12.286764</speed>
  </trkpt>
  <trkpt lat="5.866649" lon="-75.559658">
    <ele>1626</ele>
    <time>2014-06-16T13:23:44Z</time>
    <speed>14.253392</speed>
  </trkpt>
  <trkpt lat="5.866410" lon="-75.559626">
    <ele>1624</ele>
    <time>2014-06-16T13:23:46Z</time>
    <speed>14.269419</speed>
  </trkpt>
  <trkpt lat="5.866158" lon="-75.559502">
    <ele>1622</ele>
    <time>2014-06-16T13:23:48Z</time>
    <speed>16.147018</speed>
  </trkpt>
  <trkpt lat="5.865912" lon="-75.559389">
    <ele>1620</ele>
    <time>2014-06-16T13:23:50Z</time>
    <speed>14.90616</speed>
  </trkpt>
  <trkpt lat="5.865212" lon="-75.559346">
    <ele>1613</ele>
    <time>2014-06-16T13:23:55Z</time>
    <speed>16.03677</speed>
  </trkpt>
  <trkpt lat="5.864771" lon="-75.559199">
    <ele>1609</ele>
    <time>2014-06-16T13:23:59Z</time>
    <speed>11.883939</speed>
  </trkpt>
  <trkpt lat="5.864659" lon="-75.559031">
    <ele>1607</ele>
    <time>2014-06-16T13:24:01Z</time>
    <speed>11.148711</speed>
  </trkpt>
  <trkpt lat="5.864416" lon="-75.558938">
    <ele>1604</ele>
    <time>2014-06-16T13:24:04Z</time>
    <speed>10.496497</speed>
  </trkpt>
  <trkpt lat="5.864002" lon="-75.559099">
    <ele>1600</ele>
    <time>2014-06-16T13:24:08Z</time>
    <speed>13.612434</speed>
  </trkpt>
  <trkpt lat="5.863757" lon="-75.559132">
    <ele>1600</ele>
    <time>2014-06-16T13:24:10Z</time>
    <speed>13.617813</speed>
  </trkpt>
  <trkpt lat="5.863532" lon="-75.559107">
    <ele>1599</ele>
    <time>2014-06-16T13:24:12Z</time>
    <speed>13.005058</speed>
  </trkpt>
  <trkpt lat="5.863257" lon="-75.559134">
    <ele>1596</ele>
    <time>2014-06-16T13:24:14Z</time>
    <speed>16.235746</speed>
  </trkpt>
  <trkpt lat="5.862988" lon="-75.559169">
    <ele>1592</ele>
    <time>2014-06-16T13:24:16Z</time>
    <speed>14.357286</speed>
  </trkpt>
  <trkpt lat="5.862733" lon="-75.559216">
    <ele>1591</ele>
    <time>2014-06-16T13:24:18Z</time>
    <speed>12.03945</speed>
  </trkpt>
  <trkpt lat="5.862469" lon="-75.559216">
    <ele>1589</ele>
    <time>2014-06-16T13:24:20Z</time>
    <speed>12.34261</speed>
  </trkpt>
  <trkpt lat="5.862300" lon="-75.559071">
    <ele>1589</ele>
    <time>2014-06-16T13:24:22Z</time>
    <speed>14.685328</speed>
  </trkpt>
  <trkpt lat="5.862150" lon="-75.558874">
    <ele>1589</ele>
    <time>2014-06-16T13:24:24Z</time>
    <speed>13.473558</speed>
  </trkpt>
  <trkpt lat="5.862046" lon="-75.558664">
    <ele>1587</ele>
    <time>2014-06-16T13:24:26Z</time>
    <speed>13.33289</speed>
  </trkpt>
  <trkpt lat="5.862017" lon="-75.558416">
    <ele>1586</ele>
    <time>2014-06-16T13:24:28Z</time>
    <speed>14.162896</speed>
  </trkpt>
  <trkpt lat="5.862032" lon="-75.558156">
    <ele>1586</ele>
    <time>2014-06-16T13:24:30Z</time>
    <speed>14.31084</speed>
  </trkpt>
  <trkpt lat="5.862002" lon="-75.557918">
    <ele>1584</ele>
    <time>2014-06-16T13:24:32Z</time>
    <speed>13.013977</speed>
  </trkpt>
  <trkpt lat="5.861880" lon="-75.557709">
    <ele>1584</ele>
    <time>2014-06-16T13:24:34Z</time>
    <speed>12.691086</speed>
  </trkpt>
  <trkpt lat="5.861738" lon="-75.557508">
    <ele>1580</ele>
    <time>2014-06-16T13:24:36Z</time>
    <speed>11.811631</speed>
  </trkpt>
  <trkpt lat="5.861607" lon="-75.557372">
    <ele>1579</ele>
    <time>2014-06-16T13:24:38Z</time>
    <speed>9.19107</speed>
  </trkpt>
  <trkpt lat="5.861509" lon="-75.557279">
    <ele>1576</ele>
    <time>2014-06-16T13:24:40Z</time>
    <speed>6.7871203</speed>
  </trkpt>
  <trkpt lat="5.861444" lon="-75.557228">
    <ele>1575</ele>
    <time>2014-06-16T13:24:42Z</time>
    <speed>3.9085965</speed>
  </trkpt>
  <trkpt lat="5.861402" lon="-75.557183">
    <ele>1575</ele>
    <time>2014-06-16T13:24:44Z</time>
    <speed>2.2618809</speed>
  </trkpt>
  <trkpt lat="5.861320" lon="-75.557224">
    <ele>1572</ele>
    <time>2014-06-16T13:25:15Z</time>
    <speed>0.0</speed>
  </trkpt>
  <trkpt lat="5.861361" lon="-75.557204">
    <ele>1572</ele>
    <time>2014-06-16T13:31:49Z</time>
    <speed>0.01278377</speed>
  </trkpt>
  <trkpt lat="5.861342" lon="-75.557161">
    <ele>1571</ele>
    <time>2014-06-16T13:32:06Z</time>
    <speed>2.0</speed>
  </trkpt>
  <trkpt lat="5.861273" lon="-75.557084">
    <ele>1571</ele>
    <time>2014-06-16T13:32:08Z</time>
    <speed>4.854635</speed>
  </trkpt>
  <trkpt lat="5.861188" lon="-75.556976">
    <ele>1571</ele>
    <time>2014-06-16T13:32:10Z</time>
    <speed>6.9990225</speed>
  </trkpt>
  <trkpt lat="5.861149" lon="-75.556831">
    <ele>1571</ele>
    <time>2014-06-16T13:32:12Z</time>
    <speed>9.172961</speed>
  </trkpt>
  <trkpt lat="5.861128" lon="-75.556662">
    <ele>1569</ele>
    <time>2014-06-16T13:32:14Z</time>
    <speed>8.82979</speed>
  </trkpt>
  <trkpt lat="5.861098" lon="-75.556535">
    <ele>1568</ele>
    <time>2014-06-16T13:32:16Z</time>
    <speed>6.813851</speed>
  </trkpt>
  <trkpt lat="5.861023" lon="-75.556440">
    <ele>1567</ele>
    <time>2014-06-16T13:32:18Z</time>
    <speed>7.0212736</speed>
  </trkpt>
  <trkpt lat="5.860887" lon="-75.556372">
    <ele>1565</ele>
    <time>2014-06-16T13:32:20Z</time>
    <speed>8.2607975</speed>
  </trkpt>
  <trkpt lat="5.860733" lon="-75.556304">
    <ele>1564</ele>
    <time>2014-06-16T13:32:22Z</time>
    <speed>8.224288</speed>
  </trkpt>
  <trkpt lat="5.860623" lon="-75.556182">
    <ele>1563</ele>
    <time>2014-06-16T13:32:24Z</time>
    <speed>8.956916</speed>
  </trkpt>
  <trkpt lat="5.860559" lon="-75.556001">
    <ele>1562</ele>
    <time>2014-06-16T13:32:26Z</time>
    <speed>10.579078</speed>
  </trkpt>
  <trkpt lat="5.860509" lon="-75.555771">
    <ele>1562</ele>
    <time>2014-06-16T13:32:28Z</time>
    <speed>12.238838</speed>
  </trkpt>
  <trkpt lat="5.860450" lon="-75.555525">
    <ele>1560</ele>
    <time>2014-06-16T13:32:30Z</time>
    <speed>11.556627</speed>
  </trkpt>
  <trkpt lat="5.860420" lon="-75.555302">
    <ele>1557</ele>
    <time>2014-06-16T13:32:32Z</time>
    <speed>10.979033</speed>
  </trkpt>
  <trkpt lat="5.860427" lon="-75.555057">
    <ele>1555</ele>
    <time>2014-06-16T13:32:34Z</time>
    <speed>11.568692</speed>
  </trkpt>
  <trkpt lat="5.860468" lon="-75.554825">
    <ele>1555</ele>
    <time>2014-06-16T13:32:36Z</time>
    <speed>12.324214</speed>
  </trkpt>
  <trkpt lat="5.860519" lon="-75.554603">
    <ele>1552</ele>
    <time>2014-06-16T13:32:38Z</time>
    <speed>11.21116</speed>
  </trkpt>
  <trkpt lat="5.860558" lon="-75.554421">
    <ele>1551</ele>
    <time>2014-06-16T13:32:40Z</time>
    <speed>8.985378</speed>
  </trkpt>
  <trkpt lat="5.860564" lon="-75.554272">
    <ele>1548</ele>
    <time>2014-06-16T13:32:42Z</time>
    <speed>7.0326157</speed>
  </trkpt>
  <trkpt lat="5.860510" lon="-75.554147">
    <ele>1549</ele>
    <time>2014-06-16T13:32:44Z</time>
    <speed>7.3363795</speed>
  </trkpt>
  <trkpt lat="5.860405" lon="-75.554039">
    <ele>1547</ele>
    <time>2014-06-16T13:32:46Z</time>
    <speed>8.000638</speed>
  </trkpt>
  <trkpt lat="5.860203" lon="-75.554081">
    <ele>1546</ele>
    <time>2014-06-16T13:32:48Z</time>
    <speed>8.1481905</speed>
  </trkpt>
  <trkpt lat="5.860041" lon="-75.554165">
    <ele>1543</ele>
    <time>2014-06-16T13:32:50Z</time>
    <speed>7.7692604</speed>
  </trkpt>
  <trkpt lat="5.859962" lon="-75.554345">
    <ele>1543</ele>
    <time>2014-06-16T13:32:52Z</time>
    <speed>8.898895</speed>
  </trkpt>
  <trkpt lat="5.859904" lon="-75.554532">
    <ele>1542</ele>
    <time>2014-06-16T13:32:54Z</time>
    <speed>9.720453</speed>
  </trkpt>
  <trkpt lat="5.859775" lon="-75.554715">
    <ele>1540</ele>
    <time>2014-06-16T13:32:56Z</time>
    <speed>10.616711</speed>
  </trkpt>
  <trkpt lat="5.859578" lon="-75.554844">
    <ele>1540</ele>
    <time>2014-06-16T13:32:58Z</time>
    <speed>11.227222</speed>
  </trkpt>
  <trkpt lat="5.859352" lon="-75.554884">
    <ele>1539</ele>
    <time>2014-06-16T13:33:00Z</time>
    <speed>13.565827</speed>
  </trkpt>
  <trkpt lat="5.859093" lon="-75.554910">
    <ele>1538</ele>
    <time>2014-06-16T13:33:02Z</time>
    <speed>15.252908</speed>
  </trkpt>
  <trkpt lat="5.858817" lon="-75.554919">
    <ele>1536</ele>
    <time>2014-06-16T13:33:04Z</time>
    <speed>15.982401</speed>
  </trkpt>
  <trkpt lat="5.858532" lon="-75.554922">
    <ele>1534</ele>
    <time>2014-06-16T13:33:06Z</time>
    <speed>16.188984</speed>
  </trkpt>
  <trkpt lat="5.858245" lon="-75.554997">
    <ele>1531</ele>
    <time>2014-06-16T13:33:08Z</time>
    <speed>15.422379</speed>
  </trkpt>
  <trkpt lat="5.857992" lon="-75.555121">
    <ele>1529</ele>
    <time>2014-06-16T13:33:10Z</time>
    <speed>15.551094</speed>
  </trkpt>
  <trkpt lat="5.857758" lon="-75.555260">
    <ele>1527</ele>
    <time>2014-06-16T13:33:12Z</time>
    <speed>14.236309</speed>
  </trkpt>
  <trkpt lat="5.857543" lon="-75.555382">
    <ele>1524</ele>
    <time>2014-06-16T13:33:14Z</time>
    <speed>12.9093685</speed>
  </trkpt>
  <trkpt lat="5.857384" lon="-75.555456">
    <ele>1519</ele>
    <time>2014-06-16T13:33:16Z</time>
    <speed>8.34196</speed>
  </trkpt>
  <trkpt lat="5.857265" lon="-75.555496">
    <ele>1518</ele>
    <time>2014-06-16T13:33:18Z</time>
    <speed>7.1587048</speed>
  </trkpt>
  <trkpt lat="5.857133" lon="-75.555532">
    <ele>1517</ele>
    <time>2014-06-16T13:33:20Z</time>
    <speed>8.317913</speed>
  </trkpt>
  <trkpt lat="5.856967" lon="-75.555575">
    <ele>1516</ele>
    <time>2014-06-16T13:33:22Z</time>
    <speed>10.638358</speed>
  </trkpt>
  <trkpt lat="5.856754" lon="-75.555624">
    <ele>1517</ele>
    <time>2014-06-16T13:33:24Z</time>
    <speed>12.242038</speed>
  </trkpt>
  <trkpt lat="5.856532" lon="-75.555669">
    <ele>1515</ele>
    <time>2014-06-16T13:33:26Z</time>
    <speed>11.620161</speed>
  </trkpt>
  <trkpt lat="5.856340" lon="-75.555714">
    <ele>1512</ele>
    <time>2014-06-16T13:33:28Z</time>
    <speed>10.54768</speed>
  </trkpt>
  <trkpt lat="5.856165" lon="-75.555825">
    <ele>1510</ele>
    <time>2014-06-16T13:33:30Z</time>
    <speed>10.570708</speed>
  </trkpt>
  <trkpt lat="5.856019" lon="-75.555973">
    <ele>1511</ele>
    <time>2014-06-16T13:33:32Z</time>
    <speed>11.231504</speed>
  </trkpt>
  <trkpt lat="5.855932" lon="-75.556207">
    <ele>1512</ele>
    <time>2014-06-16T13:33:34Z</time>
    <speed>13.469355</speed>
  </trkpt>
  <trkpt lat="5.855869" lon="-75.556437">
    <ele>1508</ele>
    <time>2014-06-16T13:33:36Z</time>
    <speed>12.30628</speed>
  </trkpt>
  <trkpt lat="5.855830" lon="-75.556643">
    <ele>1503</ele>
    <time>2014-06-16T13:33:38Z</time>
    <speed>10.43556</speed>
  </trkpt>
  <trkpt lat="5.855789" lon="-75.556850">
    <ele>1502</ele>
    <time>2014-06-16T13:33:40Z</time>
    <speed>10.867416</speed>
  </trkpt>
  <trkpt lat="5.855696" lon="-75.557018">
    <ele>1500</ele>
    <time>2014-06-16T13:33:42Z</time>
    <speed>10.136344</speed>
  </trkpt>
  <trkpt lat="5.855551" lon="-75.557105">
    <ele>1499</ele>
    <time>2014-06-16T13:33:44Z</time>
    <speed>10.173038</speed>
  </trkpt>
  <trkpt lat="5.855415" lon="-75.557198">
    <ele>1496</ele>
    <time>2014-06-16T13:33:46Z</time>
    <speed>8.23386</speed>
  </trkpt>
  <trkpt lat="5.855330" lon="-75.557321">
    <ele>1494</ele>
    <time>2014-06-16T13:33:48Z</time>
    <speed>7.8116875</speed>
  </trkpt>
  <trkpt lat="5.855357" lon="-75.557485">
    <ele>1495</ele>
    <time>2014-06-16T13:33:50Z</time>
    <speed>10.186179</speed>
  </trkpt>
  <trkpt lat="5.855472" lon="-75.557626">
    <ele>1492</ele>
    <time>2014-06-16T13:33:52Z</time>
    <speed>10.330711</speed>
  </trkpt>
  <trkpt lat="5.855624" lon="-75.557752">
    <ele>1493</ele>
    <time>2014-06-16T13:33:54Z</time>
    <speed>12.405207</speed>
  </trkpt>
  <trkpt lat="5.855872" lon="-75.557910">
    <ele>1493</ele>
    <time>2014-06-16T13:33:56Z</time>
    <speed>14.499018</speed>
  </trkpt>
  <trkpt lat="5.856102" lon="-75.558092">
    <ele>1488</ele>
    <time>2014-06-16T13:33:58Z</time>
    <speed>13.896277</speed>
  </trkpt>
  <trkpt lat="5.856296" lon="-75.558257">
    <ele>1489</ele>
    <time>2014-06-16T13:34:00Z</time>
    <speed>13.260195</speed>
  </trkpt>
  <trkpt lat="5.856521" lon="-75.558340">
    <ele>1485</ele>
    <time>2014-06-16T13:34:02Z</time>
    <speed>12.894494</speed>
  </trkpt>
  <trkpt lat="5.856760" lon="-75.558303">
    <ele>1484</ele>
    <time>2014-06-16T13:34:04Z</time>
    <speed>12.907288</speed>
  </trkpt>
  <trkpt lat="5.856951" lon="-75.558236">
    <ele>1481</ele>
    <time>2014-06-16T13:34:06Z</time>
    <speed>10.963804</speed>
  </trkpt>
  <trkpt lat="5.857149" lon="-75.558177">
    <ele>1478</ele>
    <time>2014-06-16T13:34:08Z</time>
    <speed>9.980991</speed>
  </trkpt>
  <trkpt lat="5.857317" lon="-75.558264">
    <ele>1476</ele>
    <time>2014-06-16T13:34:10Z</time>
    <speed>11.55171</speed>
  </trkpt>
  <trkpt lat="5.857476" lon="-75.558415">
    <ele>1477</ele>
    <time>2014-06-16T13:34:12Z</time>
    <speed>13.547892</speed>
  </trkpt>
  <trkpt lat="5.857618" lon="-75.558608">
    <ele>1475</ele>
    <time>2014-06-16T13:34:14Z</time>
    <speed>13.154786</speed>
  </trkpt>
  <trkpt lat="5.857745" lon="-75.558794">
    <ele>1472</ele>
    <time>2014-06-16T13:34:16Z</time>
    <speed>11.619588</speed>
  </trkpt>
  <trkpt lat="5.857920" lon="-75.558892">
    <ele>1471</ele>
    <time>2014-06-16T13:34:18Z</time>
    <speed>11.320826</speed>
  </trkpt>
  <trkpt lat="5.858114" lon="-75.558910">
    <ele>1468</ele>
    <time>2014-06-16T13:34:20Z</time>
    <speed>10.261036</speed>
  </trkpt>
  <trkpt lat="5.858273" lon="-75.559028">
    <ele>1467</ele>
    <time>2014-06-16T13:34:22Z</time>
    <speed>10.970205</speed>
  </trkpt>
  <trkpt lat="5.858408" lon="-75.559216">
    <ele>1467</ele>
    <time>2014-06-16T13:34:24Z</time>
    <speed>13.463312</speed>
  </trkpt>
  <trkpt lat="5.858510" lon="-75.559434">
    <ele>1464</ele>
    <time>2014-06-16T13:34:26Z</time>
    <speed>13.722084</speed>
  </trkpt>
  <trkpt lat="5.858611" lon="-75.559630">
    <ele>1463</ele>
    <time>2014-06-16T13:34:28Z</time>
    <speed>11.471742</speed>
  </trkpt>
  <trkpt lat="5.858759" lon="-75.559730">
    <ele>1461</ele>
    <time>2014-06-16T13:34:30Z</time>
    <speed>9.6036215</speed>
  </trkpt>
  <trkpt lat="5.858960" lon="-75.559760">
    <ele>1458</ele>
    <time>2014-06-16T13:34:32Z</time>
    <speed>9.924762</speed>
  </trkpt>
  <trkpt lat="5.859167" lon="-75.559756">
    <ele>1456</ele>
    <time>2014-06-16T13:34:34Z</time>
    <speed>10.452855</speed>
  </trkpt>
  <trkpt lat="5.859336" lon="-75.559853">
    <ele>1456</ele>
    <time>2014-06-16T13:34:36Z</time>
    <speed>12.170294</speed>
  </trkpt>
  <trkpt lat="5.859472" lon="-75.560035">
    <ele>1456</ele>
    <time>2014-06-16T13:34:38Z</time>
    <speed>14.05203</speed>
  </trkpt>
  <trkpt lat="5.859599" lon="-75.560236">
    <ele>1454</ele>
    <time>2014-06-16T13:34:40Z</time>
    <speed>12.650464</speed>
  </trkpt>
  <trkpt lat="5.859762" lon="-75.560382">
    <ele>1452</ele>
    <time>2014-06-16T13:34:42Z</time>
    <speed>12.0968</speed>
  </trkpt>
  <trkpt lat="5.859991" lon="-75.560475">
    <ele>1450</ele>
    <time>2014-06-16T13:34:44Z</time>
    <speed>13.542418</speed>
  </trkpt>
  <trkpt lat="5.860269" lon="-75.560569">
    <ele>1450</ele>
    <time>2014-06-16T13:34:46Z</time>
    <speed>15.753157</speed>
  </trkpt>
  <trkpt lat="5.860553" lon="-75.560662">
    <ele>1447</ele>
    <time>2014-06-16T13:34:48Z</time>
    <speed>15.906571</speed>
  </trkpt>
  <trkpt lat="5.860853" lon="-75.560738">
    <ele>1446</ele>
    <time>2014-06-16T13:34:50Z</time>
    <speed>16.787834</speed>
  </trkpt>
  <trkpt lat="5.861144" lon="-75.560840">
    <ele>1440</ele>
    <time>2014-06-16T13:34:52Z</time>
    <speed>15.324545</speed>
  </trkpt>
  <trkpt lat="5.861340" lon="-75.560981">
    <ele>1437</ele>
    <time>2014-06-16T13:34:54Z</time>
    <speed>13.054449</speed>
  </trkpt>
  <trkpt lat="5.861453" lon="-75.561191">
    <ele>1437</ele>
    <time>2014-06-16T13:34:56Z</time>
    <speed>13.922126</speed>
  </trkpt>
  <trkpt lat="5.861495" lon="-75.561429">
    <ele>1434</ele>
    <time>2014-06-16T13:34:58Z</time>
    <speed>13.579764</speed>
  </trkpt>
  <trkpt lat="5.861513" lon="-75.561661">
    <ele>1432</ele>
    <time>2014-06-16T13:35:00Z</time>
    <speed>12.387487</speed>
  </trkpt>
  <trkpt lat="5.861616" lon="-75.561855">
    <ele>1431</ele>
    <time>2014-06-16T13:35:02Z</time>
    <speed>12.144653</speed>
  </trkpt>
  <trkpt lat="5.861782" lon="-75.562025">
    <ele>1430</ele>
    <time>2014-06-16T13:35:04Z</time>
    <speed>13.848927</speed>
  </trkpt>
  <trkpt lat="5.861986" lon="-75.562181">
    <ele>1428</ele>
    <time>2014-06-16T13:35:06Z</time>
    <speed>14.359697</speed>
  </trkpt>
  <trkpt lat="5.862211" lon="-75.562322">
    <ele>1424</ele>
    <time>2014-06-16T13:35:08Z</time>
    <speed>13.217844</speed>
  </trkpt>
  <trkpt lat="5.862428" lon="-75.562441">
    <ele>1424</ele>
    <time>2014-06-16T13:35:10Z</time>
    <speed>12.797377</speed>
  </trkpt>
  <trkpt lat="5.862623" lon="-75.562577">
    <ele>1422</ele>
    <time>2014-06-16T13:35:12Z</time>
    <speed>12.501431</speed>
  </trkpt>
  <trkpt lat="5.862781" lon="-75.562693">
    <ele>1417</ele>
    <time>2014-06-16T13:35:14Z</time>
    <speed>10.377385</speed>
  </trkpt>
  <trkpt lat="5.862892" lon="-75.562810">
    <ele>1417</ele>
    <time>2014-06-16T13:35:16Z</time>
    <speed>8.848916</speed>
  </trkpt>
  <trkpt lat="5.862921" lon="-75.563000">
    <ele>1417</ele>
    <time>2014-06-16T13:35:18Z</time>
    <speed>10.8576355</speed>
  </trkpt>
  <trkpt lat="5.862931" lon="-75.563214">
    <ele>1414</ele>
    <time>2014-06-16T13:35:20Z</time>
    <speed>11.217171</speed>
  </trkpt>
  <trkpt lat="5.862836" lon="-75.563394">
    <ele>1414</ele>
    <time>2014-06-16T13:35:22Z</time>
    <speed>10.883669</speed>
  </trkpt>
  <trkpt lat="5.862695" lon="-75.563541">
    <ele>1410</ele>
    <time>2014-06-16T13:35:24Z</time>
    <speed>10.021685</speed>
  </trkpt>
  <trkpt lat="5.862627" lon="-75.563697">
    <ele>1409</ele>
    <time>2014-06-16T13:35:26Z</time>
    <speed>9.43517</speed>
  </trkpt>
  <trkpt lat="5.862677" lon="-75.563854">
    <ele>1409</ele>
    <time>2014-06-16T13:35:28Z</time>
    <speed>9.896266</speed>
  </trkpt>
  <trkpt lat="5.862783" lon="-75.564000">
    <ele>1406</ele>
    <time>2014-06-16T13:35:30Z</time>
    <speed>10.112489</speed>
  </trkpt>
  <trkpt lat="5.862829" lon="-75.564170">
    <ele>1403</ele>
    <time>2014-06-16T13:35:32Z</time>
    <speed>10.333833</speed>
  </trkpt>
  <trkpt lat="5.862791" lon="-75.564358">
    <ele>1404</ele>
    <time>2014-06-16T13:35:34Z</time>
    <speed>10.549071</speed>
  </trkpt>
  <trkpt lat="5.862767" lon="-75.564448">
    <ele>1403</ele>
    <time>2014-06-16T13:35:36Z</time>
    <speed>10.354792</speed>
  </trkpt>
  <trkpt lat="5.862753" lon="-75.564624">
    <ele>1401</ele>
    <time>2014-06-16T13:35:38Z</time>
    <speed>9.758708</speed>
  </trkpt>
  <trkpt lat="5.862860" lon="-75.564758">
    <ele>1399</ele>
    <time>2014-06-16T13:35:40Z</time>
    <speed>9.905191</speed>
  </trkpt>
  <trkpt lat="5.863002" lon="-75.564854">
    <ele>1396</ele>
    <time>2014-06-16T13:35:42Z</time>
    <speed>9.872665</speed>
  </trkpt>
  <trkpt lat="5.863116" lon="-75.564976">
    <ele>1396</ele>
    <time>2014-06-16T13:35:44Z</time>
    <speed>8.468604</speed>
  </trkpt>
  <trkpt lat="5.863117" lon="-75.565137">
    <ele>1395</ele>
    <time>2014-06-16T13:35:46Z</time>
    <speed>8.650448</speed>
  </trkpt>
  <trkpt lat="5.863048" lon="-75.565242">
    <ele>1394</ele>
    <time>2014-06-16T13:35:48Z</time>
    <speed>9.191405</speed>
  </trkpt>
  <trkpt lat="5.862913" lon="-75.565361">
    <ele>1392</ele>
    <time>2014-06-16T13:35:50Z</time>
    <speed>10.114863</speed>
  </trkpt>
  <trkpt lat="5.862802" lon="-75.565496">
    <ele>1391</ele>
    <time>2014-06-16T13:35:52Z</time>
    <speed>9.706884</speed>
  </trkpt>
  <trkpt lat="5.862783" lon="-75.565673">
    <ele>1390</ele>
    <time>2014-06-16T13:35:54Z</time>
    <speed>11.182822</speed>
  </trkpt>
  <trkpt lat="5.862804" lon="-75.565909">
    <ele>1389</ele>
    <time>2014-06-16T13:35:56Z</time>
    <speed>12.543813</speed>
  </trkpt>
  <trkpt lat="5.862836" lon="-75.566116">
    <ele>1387</ele>
    <time>2014-06-16T13:35:58Z</time>
    <speed>10.545153</speed>
  </trkpt>
  <trkpt lat="5.862877" lon="-75.566327">
    <ele>1384</ele>
    <time>2014-06-16T13:36:00Z</time>
    <speed>11.263442</speed>
  </trkpt>
  <trkpt lat="5.863017" lon="-75.566501">
    <ele>1383</ele>
    <time>2014-06-16T13:36:02Z</time>
    <speed>11.911939</speed>
  </trkpt>
  <trkpt lat="5.863173" lon="-75.566639">
    <ele>1382</ele>
    <time>2014-06-16T13:36:04Z</time>
    <speed>11.757897</speed>
  </trkpt>
  <trkpt lat="5.863342" lon="-75.566757">
    <ele>1380</ele>
    <time>2014-06-16T13:36:06Z</time>
    <speed>10.47767</speed>
  </trkpt>
  <trkpt lat="5.863539" lon="-75.566825">
    <ele>1378</ele>
    <time>2014-06-16T13:36:08Z</time>
    <speed>10.095689</speed>
  </trkpt>
  <trkpt lat="5.863723" lon="-75.566921">
    <ele>1376</ele>
    <time>2014-06-16T13:36:10Z</time>
    <speed>11.0949</speed>
  </trkpt>
  <trkpt lat="5.863883" lon="-75.567096">
    <ele>1377</ele>
    <time>2014-06-16T13:36:12Z</time>
    <speed>13.542431</speed>
  </trkpt>
  <trkpt lat="5.864049" lon="-75.567307">
    <ele>1376</ele>
    <time>2014-06-16T13:36:14Z</time>
    <speed>15.765182</speed>
  </trkpt>
  <trkpt lat="5.864273" lon="-75.567550">
    <ele>1377</ele>
    <time>2014-06-16T13:36:16Z</time>
    <speed>17.989843</speed>
  </trkpt>
  <trkpt lat="5.864493" lon="-75.567788">
    <ele>1372</ele>
    <time>2014-06-16T13:36:18Z</time>
    <speed>17.025627</speed>
  </trkpt>
  <trkpt lat="5.864684" lon="-75.567986">
    <ele>1369</ele>
    <time>2014-06-16T13:36:20Z</time>
    <speed>14.694945</speed>
  </trkpt>
  <trkpt lat="5.864882" lon="-75.568148">
    <ele>1368</ele>
    <time>2014-06-16T13:36:22Z</time>
    <speed>13.324491</speed>
  </trkpt>
  <trkpt lat="5.865064" lon="-75.568277">
    <ele>1364</ele>
    <time>2014-06-16T13:36:24Z</time>
    <speed>10.869735</speed>
  </trkpt>
  <trkpt lat="5.865184" lon="-75.568404">
    <ele>1363</ele>
    <time>2014-06-16T13:36:26Z</time>
    <speed>8.54027</speed>
  </trkpt>
  <trkpt lat="5.865185" lon="-75.568544">
    <ele>1363</ele>
    <time>2014-06-16T13:36:28Z</time>
    <speed>8.667751</speed>
  </trkpt>
  <trkpt lat="5.865091" lon="-75.568619">
    <ele>1364</ele>
    <time>2014-06-16T13:36:30Z</time>
    <speed>8.583077</speed>
  </trkpt>
  <trkpt lat="5.864930" lon="-75.568655">
    <ele>1363</ele>
    <time>2014-06-16T13:36:32Z</time>
    <speed>12.292818</speed>
  </trkpt>
  <trkpt lat="5.864673" lon="-75.568696">
    <ele>1364</ele>
    <time>2014-06-16T13:36:34Z</time>
    <speed>14.985806</speed>
  </trkpt>
  <trkpt lat="5.864380" lon="-75.568616">
    <ele>1363</ele>
    <time>2014-06-16T13:36:36Z</time>
    <speed>16.175901</speed>
  </trkpt>
  <trkpt lat="5.864055" lon="-75.568513">
    <ele>1358</ele>
    <time>2014-06-16T13:36:38Z</time>
    <speed>15.077831</speed>
  </trkpt>
  <trkpt lat="5.863802" lon="-75.568419">
    <ele>1356</ele>
    <time>2014-06-16T13:36:40Z</time>
    <speed>12.907227</speed>
  </trkpt>
  <trkpt lat="5.863626" lon="-75.568403">
    <ele>1352</ele>
    <time>2014-06-16T13:36:42Z</time>
    <speed>9.135628</speed>
  </trkpt>
  <trkpt lat="5.863519" lon="-75.568510">
    <ele>1352</ele>
    <time>2014-06-16T13:36:44Z</time>
    <speed>10.367265</speed>
  </trkpt>
  <trkpt lat="5.863411" lon="-75.568670">
    <ele>1350</ele>
    <time>2014-06-16T13:36:46Z</time>
    <speed>12.190096</speed>
  </trkpt>
  <trkpt lat="5.863289" lon="-75.568880">
    <ele>1352</ele>
    <time>2014-06-16T13:36:48Z</time>
    <speed>14.097817</speed>
  </trkpt>
  <trkpt lat="5.863166" lon="-75.569109">
    <ele>1350</ele>
    <time>2014-06-16T13:36:50Z</time>
    <speed>13.272802</speed>
  </trkpt>
  <trkpt lat="5.863048" lon="-75.569307">
    <ele>1344</ele>
    <time>2014-06-16T13:36:52Z</time>
    <speed>9.89463</speed>
  </trkpt>
  <trkpt lat="5.862866" lon="-75.569421">
    <ele>1345</ele>
    <time>2014-06-16T13:36:54Z</time>
    <speed>10.994088</speed>
  </trkpt>
  <trkpt lat="5.862655" lon="-75.569436">
    <ele>1343</ele>
    <time>2014-06-16T13:36:56Z</time>
    <speed>11.640752</speed>
  </trkpt>
  <trkpt lat="5.862466" lon="-75.569525">
    <ele>1341</ele>
    <time>2014-06-16T13:36:58Z</time>
    <speed>11.772473</speed>
  </trkpt>
  <trkpt lat="5.862267" lon="-75.569673">
    <ele>1341</ele>
    <time>2014-06-16T13:37:00Z</time>
    <speed>15.184182</speed>
  </trkpt>
  <trkpt lat="5.862063" lon="-75.569849">
    <ele>1338</ele>
    <time>2014-06-16T13:37:02Z</time>
    <speed>14.650927</speed>
  </trkpt>
  <trkpt lat="5.861835" lon="-75.569964">
    <ele>1335</ele>
    <time>2014-06-16T13:37:04Z</time>
    <speed>14.722121</speed>
  </trkpt>
  <trkpt lat="5.861534" lon="-75.570006">
    <ele>1335</ele>
    <time>2014-06-16T13:37:06Z</time>
    <speed>16.284767</speed>
  </trkpt>
  <trkpt lat="5.861249" lon="-75.570019">
    <ele>1332</ele>
    <time>2014-06-16T13:37:08Z</time>
    <speed>15.112649</speed>
  </trkpt>
  <trkpt lat="5.860960" lon="-75.570072">
    <ele>1329</ele>
    <time>2014-06-16T13:37:10Z</time>
    <speed>15.928022</speed>
  </trkpt>
  <trkpt lat="5.860678" lon="-75.570113">
    <ele>1327</ele>
    <time>2014-06-16T13:37:12Z</time>
    <speed>15.725089</speed>
  </trkpt>
  <trkpt lat="5.860386" lon="-75.570130">
    <ele>1323</ele>
    <time>2014-06-16T13:37:14Z</time>
    <speed>15.576982</speed>
  </trkpt>
  <trkpt lat="5.860163" lon="-75.570132">
    <ele>1319</ele>
    <time>2014-06-16T13:37:16Z</time>
    <speed>11.37009</speed>
  </trkpt>
  <trkpt lat="5.860022" lon="-75.570033">
    <ele>1317</ele>
    <time>2014-06-16T13:37:18Z</time>
    <speed>10.655248</speed>
  </trkpt>
  <trkpt lat="5.859930" lon="-75.569856">
    <ele>1317</ele>
    <time>2014-06-16T13:37:20Z</time>
    <speed>12.7478285</speed>
  </trkpt>
  <trkpt lat="5.859813" lon="-75.569649">
    <ele>1317</ele>
    <time>2014-06-16T13:37:22Z</time>
    <speed>13.525518</speed>
  </trkpt>
  <trkpt lat="5.859616" lon="-75.569482">
    <ele>1316</ele>
    <time>2014-06-16T13:37:24Z</time>
    <speed>14.559631</speed>
  </trkpt>
  <trkpt lat="5.859371" lon="-75.569370">
    <ele>1316</ele>
    <time>2014-06-16T13:37:26Z</time>
    <speed>15.652877</speed>
  </trkpt>
  <trkpt lat="5.859078" lon="-75.569245">
    <ele>1313</ele>
    <time>2014-06-16T13:37:28Z</time>
    <speed>16.678776</speed>
  </trkpt>
  <trkpt lat="5.858795" lon="-75.569144">
    <ele>1310</ele>
    <time>2014-06-16T13:37:30Z</time>
    <speed>15.640388</speed>
  </trkpt>
  <trkpt lat="5.858536" lon="-75.569100">
    <ele>1308</ele>
    <time>2014-06-16T13:37:32Z</time>
    <speed>13.210041</speed>
  </trkpt>
  <trkpt lat="5.858298" lon="-75.569177">
    <ele>1304</ele>
    <time>2014-06-16T13:37:34Z</time>
    <speed>13.372956</speed>
  </trkpt>
  <trkpt lat="5.858052" lon="-75.569293">
    <ele>1304</ele>
    <time>2014-06-16T13:37:36Z</time>
    <speed>14.774608</speed>
  </trkpt>
  <trkpt lat="5.857754" lon="-75.569397">
    <ele>1302</ele>
    <time>2014-06-16T13:37:38Z</time>
    <speed>17.424625</speed>
  </trkpt>
  <trkpt lat="5.857444" lon="-75.569468">
    <ele>1298</ele>
    <time>2014-06-16T13:37:40Z</time>
    <speed>14.982917</speed>
  </trkpt>
  <trkpt lat="5.857152" lon="-75.569511">
    <ele>1296</ele>
    <time>2014-06-16T13:37:42Z</time>
    <speed>15.431771</speed>
  </trkpt>
  <trkpt lat="5.856870" lon="-75.569482">
    <ele>1294</ele>
    <time>2014-06-16T13:37:44Z</time>
    <speed>14.723874</speed>
  </trkpt>
  <trkpt lat="5.856553" lon="-75.569448">
    <ele>1291</ele>
    <time>2014-06-16T13:37:46Z</time>
    <speed>17.397198</speed>
  </trkpt>
  <trkpt lat="5.856264" lon="-75.569411">
    <ele>1288</ele>
    <time>2014-06-16T13:37:48Z</time>
    <speed>15.827683</speed>
  </trkpt>
  <trkpt lat="5.856036" lon="-75.569313">
    <ele>1285</ele>
    <time>2014-06-16T13:37:50Z</time>
    <speed>11.894267</speed>
  </trkpt>
  <trkpt lat="5.855823" lon="-75.569341">
    <ele>1282</ele>
    <time>2014-06-16T13:37:52Z</time>
    <speed>11.725276</speed>
  </trkpt>
  <trkpt lat="5.855660" lon="-75.569465">
    <ele>1279</ele>
    <time>2014-06-16T13:37:54Z</time>
    <speed>11.564444</speed>
  </trkpt>
  <trkpt lat="5.855462" lon="-75.569562">
    <ele>1278</ele>
    <time>2014-06-16T13:37:56Z</time>
    <speed>12.136433</speed>
  </trkpt>
  <trkpt lat="5.855268" lon="-75.569505">
    <ele>1276</ele>
    <time>2014-06-16T13:37:58Z</time>
    <speed>14.918104</speed>
  </trkpt>
  <trkpt lat="5.855005" lon="-75.569367">
    <ele>1275</ele>
    <time>2014-06-16T13:38:00Z</time>
    <speed>15.297119</speed>
  </trkpt>
  <trkpt lat="5.854742" lon="-75.569277">
    <ele>1270</ele>
    <time>2014-06-16T13:38:02Z</time>
    <speed>13.869989</speed>
  </trkpt>
  <trkpt lat="5.854494" lon="-75.569239">
    <ele>1267</ele>
    <time>2014-06-16T13:38:04Z</time>
    <speed>13.165495</speed>
  </trkpt>
  <trkpt lat="5.854297" lon="-75.569141">
    <ele>1263</ele>
    <time>2014-06-16T13:38:06Z</time>
    <speed>11.586941</speed>
  </trkpt>
  <trkpt lat="5.854135" lon="-75.569097">
    <ele>1263</ele>
    <time>2014-06-16T13:38:08Z</time>
    <speed>9.127204</speed>
  </trkpt>
  <trkpt lat="5.854002" lon="-75.569179">
    <ele>1260</ele>
    <time>2014-06-16T13:38:10Z</time>
    <speed>9.837437</speed>
  </trkpt>
  <trkpt lat="5.853878" lon="-75.569379">
    <ele>1258</ele>
    <time>2014-06-16T13:38:12Z</time>
    <speed>11.302896</speed>
  </trkpt>
  <trkpt lat="5.853711" lon="-75.569525">
    <ele>1259</ele>
    <time>2014-06-16T13:38:14Z</time>
    <speed>11.561363</speed>
  </trkpt>
  <trkpt lat="5.853500" lon="-75.569621">
    <ele>1258</ele>
    <time>2014-06-16T13:38:16Z</time>
    <speed>14.791163</speed>
  </trkpt>
  <trkpt lat="5.853200" lon="-75.569566">
    <ele>1259</ele>
    <time>2014-06-16T13:38:18Z</time>
    <speed>16.38445</speed>
  </trkpt>
  <trkpt lat="5.852873" lon="-75.569508">
    <ele>1256</ele>
    <time>2014-06-16T13:38:20Z</time>
    <speed>16.346779</speed>
  </trkpt>
  <trkpt lat="5.852572" lon="-75.569469">
    <ele>1253</ele>
    <time>2014-06-16T13:38:22Z</time>
    <speed>14.704088</speed>
  </trkpt>
  <trkpt lat="5.852339" lon="-75.569553">
    <ele>1252</ele>
    <time>2014-06-16T13:38:24Z</time>
    <speed>12.68524</speed>
  </trkpt>
  <trkpt lat="5.852187" lon="-75.569740">
    <ele>1251</ele>
    <time>2014-06-16T13:38:26Z</time>
    <speed>13.059833</speed>
  </trkpt>
  <trkpt lat="5.852178" lon="-75.570015">
    <ele>1247</ele>
    <time>2014-06-16T13:38:28Z</time>
    <speed>14.419665</speed>
  </trkpt>
  <trkpt lat="5.852194" lon="-75.570264">
    <ele>1243</ele>
    <time>2014-06-16T13:38:30Z</time>
    <speed>13.215706</speed>
  </trkpt>
  <trkpt lat="5.852186" lon="-75.570501">
    <ele>1243</ele>
    <time>2014-06-16T13:38:32Z</time>
    <speed>12.697436</speed>
  </trkpt>
  <trkpt lat="5.852112" lon="-75.570678">
    <ele>1241</ele>
    <time>2014-06-16T13:38:34Z</time>
    <speed>10.492858</speed>
  </trkpt>
  <trkpt lat="5.851880" lon="-75.570765">
    <ele>1239</ele>
    <time>2014-06-16T13:38:36Z</time>
    <speed>12.754095</speed>
  </trkpt>
  <trkpt lat="5.851592" lon="-75.570757">
    <ele>1241</ele>
    <time>2014-06-16T13:38:38Z</time>
    <speed>15.13249</speed>
  </trkpt>
  <trkpt lat="5.851249" lon="-75.570615">
    <ele>1237</ele>
    <time>2014-06-16T13:38:40Z</time>
    <speed>15.123264</speed>
  </trkpt>
  <trkpt lat="5.851001" lon="-75.570479">
    <ele>1233</ele>
    <time>2014-06-16T13:38:42Z</time>
    <speed>12.261643</speed>
  </trkpt>
  <trkpt lat="5.850763" lon="-75.570445">
    <ele>1232</ele>
    <time>2014-06-16T13:38:44Z</time>
    <speed>12.824213</speed>
  </trkpt>
  <trkpt lat="5.850572" lon="-75.570532">
    <ele>1228</ele>
    <time>2014-06-16T13:38:46Z</time>
    <speed>10.926795</speed>
  </trkpt>
  <trkpt lat="5.850412" lon="-75.570577">
    <ele>1223</ele>
    <time>2014-06-16T13:38:48Z</time>
    <speed>6.936161</speed>
  </trkpt>
  <trkpt lat="5.850324" lon="-75.570576">
    <ele>1222</ele>
    <time>2014-06-16T13:38:50Z</time>
    <speed>4.4454775</speed>
  </trkpt>
  <trkpt lat="5.850264" lon="-75.570570">
    <ele>1221</ele>
    <time>2014-06-16T13:38:52Z</time>
    <speed>1.8042773</speed>
  </trkpt>
  <trkpt lat="5.850294" lon="-75.570535">
    <ele>1222</ele>
    <time>2014-06-16T13:39:16Z</time>
    <speed>1.1854628</speed>
  </trkpt>
  <trkpt lat="5.850246" lon="-75.570526">
    <ele>1224</ele>
    <time>2014-06-16T13:39:18Z</time>
    <speed>0.0</speed>
  </trkpt>
  <trkpt lat="5.850201" lon="-75.570510">
    <ele>1223</ele>
    <time>2014-06-16T13:39:20Z</time>
    <speed>2.618554</speed>
  </trkpt>
  <trkpt lat="5.850130" lon="-75.570526">
    <ele>1222</ele>
    <time>2014-06-16T13:39:22Z</time>
    <speed>3.0325234</speed>
  </trkpt>
  <trkpt lat="5.850057" lon="-75.570559">
    <ele>1222</ele>
    <time>2014-06-16T13:39:24Z</time>
    <speed>3.4284654</speed>
  </trkpt>
  <trkpt lat="5.850015" lon="-75.570603">
    <ele>1221</ele>
    <time>2014-06-16T13:39:26Z</time>
    <speed>2.152394</speed>
  </trkpt>
  <trkpt lat="5.849981" lon="-75.570661">
    <ele>1220</ele>
    <time>2014-06-16T13:39:28Z</time>
    <speed>2.8882477</speed>
  </trkpt>
  <trkpt lat="5.849964" lon="-75.570711">
    <ele>1219</ele>
    <time>2014-06-16T13:39:30Z</time>
    <speed>2.9493818</speed>
  </trkpt>
  <trkpt lat="5.849985" lon="-75.570777">
    <ele>1221</ele>
    <time>2014-06-16T13:39:32Z</time>
    <speed>3.8216655</speed>
  </trkpt>
  <trkpt lat="5.850048" lon="-75.570837">
    <ele>1219</ele>
    <time>2014-06-16T13:39:34Z</time>
    <speed>4.774699</speed>
  </trkpt>
  <trkpt lat="5.850111" lon="-75.570902">
    <ele>1219</ele>
    <time>2014-06-16T13:39:36Z</time>
    <speed>5.270321</speed>
  </trkpt>
  <trkpt lat="5.850186" lon="-75.570956">
    <ele>1218</ele>
    <time>2014-06-16T13:39:38Z</time>
    <speed>4.7953672</speed>
  </trkpt>
  <trkpt lat="5.850236" lon="-75.571011">
    <ele>1218</ele>
    <time>2014-06-16T13:39:40Z</time>
    <speed>4.22039</speed>
  </trkpt>
  <trkpt lat="5.850316" lon="-75.571094">
    <ele>1217</ele>
    <time>2014-06-16T13:39:42Z</time>
    <speed>4.7268834</speed>
  </trkpt>
  <trkpt lat="5.850413" lon="-75.571196">
    <ele>1216</ele>
    <time>2014-06-16T13:39:44Z</time>
    <speed>5.3271265</speed>
  </trkpt>
  <trkpt lat="5.850472" lon="-75.571267">
    <ele>1215</ele>
    <time>2014-06-16T13:39:46Z</time>
    <speed>4.3544555</speed>
  </trkpt>
  <trkpt lat="5.850516" lon="-75.571305">
    <ele>1216</ele>
    <time>2014-06-16T13:39:48Z</time>
    <speed>2.7089117</speed>
  </trkpt>
  <trkpt lat="5.850562" lon="-75.571339">
    <ele>1216</ele>
    <time>2014-06-16T13:39:51Z</time>
    <speed>1.6776198</speed>
  </trkpt>
  <trkpt lat="5.850642" lon="-75.571385">
    <ele>1217</ele>
    <time>2014-06-16T13:42:42Z</time>
    <speed>0.8917193</speed>
  </trkpt>
  <trkpt lat="5.850687" lon="-75.571440">
    <ele>1216</ele>
    <time>2014-06-16T13:42:45Z</time>
    <speed>3.5331805</speed>
  </trkpt>
  <trkpt lat="5.850745" lon="-75.571517">
    <ele>1216</ele>
    <time>2014-06-16T13:42:47Z</time>
    <speed>6.075427</speed>
  </trkpt>
  <trkpt lat="5.850824" lon="-75.571631">
    <ele>1217</ele>
    <time>2014-06-16T13:42:49Z</time>
    <speed>7.197069</speed>
  </trkpt>
  <trkpt lat="5.850899" lon="-75.571747">
    <ele>1216</ele>
    <time>2014-06-16T13:42:51Z</time>
    <speed>6.70138</speed>
  </trkpt>
  <trkpt lat="5.850969" lon="-75.571852">
    <ele>1213</ele>
    <time>2014-06-16T13:42:53Z</time>
    <speed>6.176628</speed>
  </trkpt>
  <trkpt lat="5.851028" lon="-75.571947">
    <ele>1212</ele>
    <time>2014-06-16T13:42:55Z</time>
    <speed>4.854431</speed>
  </trkpt>
  <trkpt lat="5.851066" lon="-75.572040">
    <ele>1212</ele>
    <time>2014-06-16T13:42:57Z</time>
    <speed>5.0057535</speed>
  </trkpt>
  <trkpt lat="5.851088" lon="-75.572147">
    <ele>1211</ele>
    <time>2014-06-16T13:42:59Z</time>
    <speed>5.9203343</speed>
  </trkpt>
  <trkpt lat="5.851085" lon="-75.572253">
    <ele>1210</ele>
    <time>2014-06-16T13:43:01Z</time>
    <speed>5.6694503</speed>
  </trkpt>
  <trkpt lat="5.851069" lon="-75.572351">
    <ele>1208</ele>
    <time>2014-06-16T13:43:03Z</time>
    <speed>5.132191</speed>
  </trkpt>
  <trkpt lat="5.851039" lon="-75.572447">
    <ele>1208</ele>
    <time>2014-06-16T13:43:05Z</time>
    <speed>5.2726345</speed>
  </trkpt>
  <trkpt lat="5.851003" lon="-75.572533">
    <ele>1206</ele>
    <time>2014-06-16T13:43:07Z</time>
    <speed>4.916028</speed>
  </trkpt>
  <trkpt lat="5.850971" lon="-75.572587">
    <ele>1206</ele>
    <time>2014-06-16T13:43:09Z</time>
    <speed>2.8478358</speed>
  </trkpt>
  <trkpt lat="5.850941" lon="-75.572642">
    <ele>1205</ele>
    <time>2014-06-16T13:43:12Z</time>
    <speed>2.762893</speed>
  </trkpt>
  <trkpt lat="5.850913" lon="-75.572682">
    <ele>1204</ele>
    <time>2014-06-16T13:43:14Z</time>
    <speed>3.7127864</speed>
  </trkpt>
  <trkpt lat="5.850870" lon="-75.572743">
    <ele>1204</ele>
    <time>2014-06-16T13:43:16Z</time>
    <speed>4.550067</speed>
  </trkpt>
  <trkpt lat="5.850822" lon="-75.572820">
    <ele>1205</ele>
    <time>2014-06-16T13:43:18Z</time>
    <speed>4.6535945</speed>
  </trkpt>
  <trkpt lat="5.850798" lon="-75.572868">
    <ele>1202</ele>
    <time>2014-06-16T13:43:20Z</time>
    <speed>1.7376639</speed>
  </trkpt>
  <trkpt lat="5.850784" lon="-75.572922">
    <ele>1203</ele>
    <time>2014-06-16T13:43:24Z</time>
    <speed>0.0</speed>
  </trkpt>
  <trkpt lat="5.850779" lon="-75.572979">
    <ele>1201</ele>
    <time>2014-06-16T13:43:27Z</time>
    <speed>2.0941317</speed>
  </trkpt>
  <trkpt lat="5.850781" lon="-75.573039">
    <ele>1201</ele>
    <time>2014-06-16T13:43:29Z</time>
    <speed>2.4921293</speed>
  </trkpt>
  <trkpt lat="5.850794" lon="-75.573108">
    <ele>1200</ele>
    <time>2014-06-16T13:43:31Z</time>
    <speed>3.7527697</speed>
  </trkpt>
  <trkpt lat="5.850815" lon="-75.573182">
    <ele>1198</ele>
    <time>2014-06-16T13:43:33Z</time>
    <speed>3.9030342</speed>
  </trkpt>
  <trkpt lat="5.850852" lon="-75.573248">
    <ele>1199</ele>
    <time>2014-06-16T13:43:35Z</time>
    <speed>3.8594553</speed>
  </trkpt>
  <trkpt lat="5.850894" lon="-75.573284">
    <ele>1198</ele>
    <time>2014-06-16T13:43:37Z</time>
    <speed>2.152419</speed>
  </trkpt>
  <trkpt lat="5.850936" lon="-75.573325">
    <ele>1198</ele>
    <time>2014-06-16T13:43:41Z</time>
    <speed>2.1740797</speed>
  </trkpt>
  <trkpt lat="5.850972" lon="-75.573374">
    <ele>1199</ele>
    <time>2014-06-16T13:43:44Z</time>
    <speed>1.7401615</speed>
  </trkpt>
  <trkpt lat="5.851008" lon="-75.573428">
    <ele>1197</ele>
    <time>2014-06-16T13:43:47Z</time>
    <speed>0.0</speed>
  </trkpt>
  <trkpt lat="5.851024" lon="-75.573478">
    <ele>1197</ele>
    <time>2014-06-16T13:43:49Z</time>
    <speed>2.868877</speed>
  </trkpt>
  <trkpt lat="5.851051" lon="-75.573516">
    <ele>1196</ele>
    <time>2014-06-16T13:43:52Z</time>
    <speed>2.4140487</speed>
  </trkpt>
  <trkpt lat="5.851088" lon="-75.573568">
    <ele>1196</ele>
    <time>2014-06-16T13:43:56Z</time>
    <speed>2.424747</speed>
  </trkpt>
  <trkpt lat="5.851126" lon="-75.573594">
    <ele>1196</ele>
    <time>2014-06-16T13:43:59Z</time>
    <speed>1.6105168</speed>
  </trkpt>
  <trkpt lat="5.851164" lon="-75.573621">
    <ele>1195</ele>
    <time>2014-06-16T13:44:02Z</time>
    <speed>2.0629194</speed>
  </trkpt>
  <trkpt lat="5.851195" lon="-75.573657">
    <ele>1194</ele>
    <time>2014-06-16T13:44:05Z</time>
    <speed>1.7054542</speed>
  </trkpt>
  <trkpt lat="5.851227" lon="-75.573692">
    <ele>1194</ele>
    <time>2014-06-16T13:44:08Z</time>
    <speed>2.122986</speed>
  </trkpt>
  <trkpt lat="5.851267" lon="-75.573729">
    <ele>1193</ele>
    <time>2014-06-16T13:44:11Z</time>
    <speed>2.0709374</speed>
  </trkpt>
  <trkpt lat="5.851298" lon="-75.573764">
    <ele>1194</ele>
    <time>2014-06-16T13:44:13Z</time>
    <speed>2.4535677</speed>
  </trkpt>
  <trkpt lat="5.851333" lon="-75.573804">
    <ele>1192</ele>
    <time>2014-06-16T13:44:15Z</time>
    <speed>3.1266775</speed>
  </trkpt>
  <trkpt lat="5.851376" lon="-75.573844">
    <ele>1190</ele>
    <time>2014-06-16T13:44:17Z</time>
    <speed>3.1222236</speed>
  </trkpt>
  <trkpt lat="5.851435" lon="-75.573885">
    <ele>1191</ele>
    <time>2014-06-16T13:44:19Z</time>
    <speed>3.6085517</speed>
  </trkpt>
  <trkpt lat="5.851496" lon="-75.573913">
    <ele>1190</ele>
    <time>2014-06-16T13:44:21Z</time>
    <speed>3.1978185</speed>
  </trkpt>
  <trkpt lat="5.851557" lon="-75.573925">
    <ele>1190</ele>
    <time>2014-06-16T13:44:23Z</time>
    <speed>3.3045819</speed>
  </trkpt>
  <trkpt lat="5.851628" lon="-75.573930">
    <ele>1188</ele>
    <time>2014-06-16T13:44:25Z</time>
    <speed>4.0975223</speed>
  </trkpt>
  <trkpt lat="5.851709" lon="-75.573931">
    <ele>1189</ele>
    <time>2014-06-16T13:44:27Z</time>
    <speed>4.0008636</speed>
  </trkpt>
  <trkpt lat="5.851775" lon="-75.573925">
    <ele>1189</ele>
    <time>2014-06-16T13:44:29Z</time>
    <speed>3.357209</speed>
  </trkpt>
  <trkpt lat="5.851834" lon="-75.573922">
    <ele>1189</ele>
    <time>2014-06-16T13:44:31Z</time>
    <speed>3.190599</speed>
  </trkpt>
  <trkpt lat="5.851902" lon="-75.573922">
    <ele>1187</ele>
    <time>2014-06-16T13:44:33Z</time>
    <speed>3.7758975</speed>
  </trkpt>
  <trkpt lat="5.851965" lon="-75.573944">
    <ele>1186</ele>
    <time>2014-06-16T13:44:35Z</time>
    <speed>3.3961039</speed>
  </trkpt>
  <trkpt lat="5.852015" lon="-75.573983">
    <ele>1186</ele>
    <time>2014-06-16T13:44:37Z</time>
    <speed>3.5847394</speed>
  </trkpt>
  <trkpt lat="5.852045" lon="-75.574039">
    <ele>1186</ele>
    <time>2014-06-16T13:44:39Z</time>
    <speed>3.475274</speed>
  </trkpt>
  <trkpt lat="5.852057" lon="-75.574090">
    <ele>1185</ele>
    <time>2014-06-16T13:44:41Z</time>
    <speed>2.6739016</speed>
  </trkpt>
  <trkpt lat="5.852071" lon="-75.574140">
    <ele>1184</ele>
    <time>2014-06-16T13:44:43Z</time>
    <speed>2.0462835</speed>
  </trkpt>
  <trkpt lat="5.852085" lon="-75.574195">
    <ele>1184</ele>
    <time>2014-06-16T13:44:45Z</time>
    <speed>3.0498834</speed>
  </trkpt>
  <trkpt lat="5.852048" lon="-75.574256">
    <ele>1183</ele>
    <time>2014-06-16T13:44:47Z</time>
    <speed>4.4934545</speed>
  </trkpt>
  <trkpt lat="5.851942" lon="-75.574318">
    <ele>1183</ele>
    <time>2014-06-16T13:44:49Z</time>
    <speed>4.854123</speed>
  </trkpt>
  <trkpt lat="5.851839" lon="-75.574365">
    <ele>1182</ele>
    <time>2014-06-16T13:44:51Z</time>
    <speed>4.3212137</speed>
  </trkpt>
  <trkpt lat="5.851740" lon="-75.574403">
    <ele>1181</ele>
    <time>2014-06-16T13:44:53Z</time>
    <speed>5.209576</speed>
  </trkpt>
  <trkpt lat="5.851636" lon="-75.574441">
    <ele>1180</ele>
    <time>2014-06-16T13:44:55Z</time>
    <speed>4.868739</speed>
  </trkpt>
  <trkpt lat="5.851531" lon="-75.574473">
    <ele>1180</ele>
    <time>2014-06-16T13:44:57Z</time>
    <speed>5.317059</speed>
  </trkpt>
  <trkpt lat="5.851440" lon="-75.574519">
    <ele>1178</ele>
    <time>2014-06-16T13:44:59Z</time>
    <speed>5.112723</speed>
  </trkpt>
  <trkpt lat="5.851340" lon="-75.574561">
    <ele>1178</ele>
    <time>2014-06-16T13:45:01Z</time>
    <speed>5.8931203</speed>
  </trkpt>
  <trkpt lat="5.851245" lon="-75.574609">
    <ele>1177</ele>
    <time>2014-06-16T13:45:03Z</time>
    <speed>5.78334</speed>
  </trkpt>
  <trkpt lat="5.851134" lon="-75.574664">
    <ele>1176</ele>
    <time>2014-06-16T13:45:05Z</time>
    <speed>5.9723825</speed>
  </trkpt>
  <trkpt lat="5.850995" lon="-75.574724">
    <ele>1175</ele>
    <time>2014-06-16T13:45:07Z</time>
    <speed>7.1941338</speed>
  </trkpt>
  <trkpt lat="5.850866" lon="-75.574765">
    <ele>1176</ele>
    <time>2014-06-16T13:45:09Z</time>
    <speed>7.561646</speed>
  </trkpt>
  <trkpt lat="5.850727" lon="-75.574801">
    <ele>1176</ele>
    <time>2014-06-16T13:45:11Z</time>
    <speed>8.09813</speed>
  </trkpt>
  <trkpt lat="5.850566" lon="-75.574834">
    <ele>1176</ele>
    <time>2014-06-16T13:45:13Z</time>
    <speed>10.111655</speed>
  </trkpt>
  <trkpt lat="5.850367" lon="-75.574881">
    <ele>1176</ele>
    <time>2014-06-16T13:45:15Z</time>
    <speed>10.565989</speed>
  </trkpt>
  <trkpt lat="5.850196" lon="-75.574912">
    <ele>1175</ele>
    <time>2014-06-16T13:45:17Z</time>
    <speed>8.817636</speed>
  </trkpt>
  <trkpt lat="5.850057" lon="-75.574929">
    <ele>1176</ele>
    <time>2014-06-16T13:45:19Z</time>
    <speed>7.443825</speed>
  </trkpt>
  <trkpt lat="5.849919" lon="-75.574933">
    <ele>1177</ele>
    <time>2014-06-16T13:45:21Z</time>
    <speed>6.9950747</speed>
  </trkpt>
  <trkpt lat="5.849787" lon="-75.574940">
    <ele>1176</ele>
    <time>2014-06-16T13:45:23Z</time>
    <speed>7.0908217</speed>
  </trkpt>
  <trkpt lat="5.849667" lon="-75.574981">
    <ele>1176</ele>
    <time>2014-06-16T13:45:25Z</time>
    <speed>7.328187</speed>
  </trkpt>
  <trkpt lat="5.849574" lon="-75.575065">
    <ele>1178</ele>
    <time>2014-06-16T13:45:27Z</time>
    <speed>7.5156984</speed>
  </trkpt>
  <trkpt lat="5.849538" lon="-75.575199">
    <ele>1177</ele>
    <time>2014-06-16T13:45:29Z</time>
    <speed>8.37569</speed>
  </trkpt>
  <trkpt lat="5.849561" lon="-75.575342">
    <ele>1178</ele>
    <time>2014-06-16T13:45:31Z</time>
    <speed>8.242926</speed>
  </trkpt>
  <trkpt lat="5.849607" lon="-75.575477">
    <ele>1178</ele>
    <time>2014-06-16T13:45:33Z</time>
    <speed>7.5944085</speed>
  </trkpt>
  <trkpt lat="5.849660" lon="-75.575636">
    <ele>1179</ele>
    <time>2014-06-16T13:45:35Z</time>
    <speed>8.143657</speed>
  </trkpt>
  <trkpt lat="5.849707" lon="-75.575794">
    <ele>1178</ele>
    <time>2014-06-16T13:45:37Z</time>
    <speed>8.263738</speed>
  </trkpt>
  <trkpt lat="5.849746" lon="-75.575949">
    <ele>1178</ele>
    <time>2014-06-16T13:45:39Z</time>
    <speed>7.989351</speed>
  </trkpt>
  <trkpt lat="5.849780" lon="-75.576092">
    <ele>1179</ele>
    <time>2014-06-16T13:45:41Z</time>
    <speed>7.1098056</speed>
  </trkpt>
  <trkpt lat="5.849780" lon="-75.576231">
    <ele>1180</ele>
    <time>2014-06-16T13:45:43Z</time>
    <speed>7.440126</speed>
  </trkpt>
  <trkpt lat="5.849717" lon="-75.576366">
    <ele>1179</ele>
    <time>2014-06-16T13:45:45Z</time>
    <speed>6.9971514</speed>
  </trkpt>
  <trkpt lat="5.849607" lon="-75.576459">
    <ele>1179</ele>
    <time>2014-06-16T13:45:47Z</time>
    <speed>7.3625617</speed>
  </trkpt>
  <trkpt lat="5.849449" lon="-75.576521">
    <ele>1179</ele>
    <time>2014-06-16T13:45:49Z</time>
    <speed>6.833516</speed>
  </trkpt>
  <trkpt lat="5.849313" lon="-75.576535">
    <ele>1178</ele>
    <time>2014-06-16T13:45:51Z</time>
    <speed>5.7197256</speed>
  </trkpt>
  <trkpt lat="5.849179" lon="-75.576519">
    <ele>1179</ele>
    <time>2014-06-16T13:45:53Z</time>
    <speed>6.7162547</speed>
  </trkpt>
  <trkpt lat="5.849040" lon="-75.576489">
    <ele>1178</ele>
    <time>2014-06-16T13:45:55Z</time>
    <speed>7.4225054</speed>
  </trkpt>
  <trkpt lat="5.848917" lon="-75.576470">
    <ele>1176</ele>
    <time>2014-06-16T13:45:57Z</time>
    <speed>6.461756</speed>
  </trkpt>
  <trkpt lat="5.848800" lon="-75.576464">
    <ele>1175</ele>
    <time>2014-06-16T13:45:59Z</time>
    <speed>6.0808764</speed>
  </trkpt>
  <trkpt lat="5.848671" lon="-75.576495">
    <ele>1173</ele>
    <time>2014-06-16T13:46:01Z</time>
    <speed>7.2535257</speed>
  </trkpt>
  <trkpt lat="5.848531" lon="-75.576472">
    <ele>1173</ele>
    <time>2014-06-16T13:46:03Z</time>
    <speed>6.465042</speed>
  </trkpt>
  <trkpt lat="5.848431" lon="-75.576397">
    <ele>1174</ele>
    <time>2014-06-16T13:46:05Z</time>
    <speed>5.8963647</speed>
  </trkpt>
  <trkpt lat="5.848364" lon="-75.576321">
    <ele>1173</ele>
    <time>2014-06-16T13:46:07Z</time>
    <speed>5.9300056</speed>
  </trkpt>
  <trkpt lat="5.848288" lon="-75.576229">
    <ele>1173</ele>
    <time>2014-06-16T13:46:09Z</time>
    <speed>5.847959</speed>
  </trkpt>
  <trkpt lat="5.848200" lon="-75.576121">
    <ele>1171</ele>
    <time>2014-06-16T13:46:11Z</time>
    <speed>6.6990185</speed>
  </trkpt>
  <trkpt lat="5.848111" lon="-75.576028">
    <ele>1172</ele>
    <time>2014-06-16T13:46:13Z</time>
    <speed>6.8677692</speed>
  </trkpt>
  <trkpt lat="5.848005" lon="-75.575957">
    <ele>1171</ele>
    <time>2014-06-16T13:46:15Z</time>
    <speed>7.258867</speed>
  </trkpt>
  <trkpt lat="5.847885" lon="-75.575931">
    <ele>1170</ele>
    <time>2014-06-16T13:46:17Z</time>
    <speed>6.2225876</speed>
  </trkpt>
  <trkpt lat="5.847784" lon="-75.575922">
    <ele>1170</ele>
    <time>2014-06-16T13:46:19Z</time>
    <speed>5.481131</speed>
  </trkpt>
  <trkpt lat="5.847721" lon="-75.575926">
    <ele>1167</ele>
    <time>2014-06-16T13:46:21Z</time>
    <speed>0.0</speed>
  </trkpt>
  <trkpt lat="5.847599" lon="-75.575947">
    <ele>1167</ele>
    <time>2014-06-16T13:46:23Z</time>
    <speed>6.8451157</speed>
  </trkpt>
  <trkpt lat="5.847465" lon="-75.575988">
    <ele>1166</ele>
    <time>2014-06-16T13:46:25Z</time>
    <speed>6.076435</speed>
  </trkpt>
  <trkpt lat="5.847335" lon="-75.576057">
    <ele>1165</ele>
    <time>2014-06-16T13:46:27Z</time>
    <speed>6.7970667</speed>
  </trkpt>
  <trkpt lat="5.847186" lon="-75.576125">
    <ele>1164</ele>
    <time>2014-06-16T13:46:29Z</time>
    <speed>7.4666653</speed>
  </trkpt>
  <trkpt lat="5.847050" lon="-75.576198">
    <ele>1164</ele>
    <time>2014-06-16T13:46:31Z</time>
    <speed>7.5989966</speed>
  </trkpt>
  <trkpt lat="5.846919" lon="-75.576278">
    <ele>1163</ele>
    <time>2014-06-16T13:46:33Z</time>
    <speed>8.056672</speed>
  </trkpt>
  <trkpt lat="5.846811" lon="-75.576435">
    <ele>1164</ele>
    <time>2014-06-16T13:46:35Z</time>
    <speed>10.508998</speed>
  </trkpt>
  <trkpt lat="5.846695" lon="-75.576632">
    <ele>1164</ele>
    <time>2014-06-16T13:46:37Z</time>
    <speed>11.984106</speed>
  </trkpt>
  <trkpt lat="5.846568" lon="-75.576832">
    <ele>1164</ele>
    <time>2014-06-16T13:46:39Z</time>
    <speed>10.358991</speed>
  </trkpt>
  <trkpt lat="5.846402" lon="-75.577053">
    <ele>1162</ele>
    <time>2014-06-16T13:46:41Z</time>
    <speed>13.856728</speed>
  </trkpt>
  <trkpt lat="5.846253" lon="-75.577276">
    <ele>1163</ele>
    <time>2014-06-16T13:46:43Z</time>
    <speed>14.790496</speed>
  </trkpt>
  <trkpt lat="5.846074" lon="-75.577508">
    <ele>1162</ele>
    <time>2014-06-16T13:46:45Z</time>
    <speed>16.216227</speed>
  </trkpt>
  <trkpt lat="5.845868" lon="-75.577756">
    <ele>1159</ele>
    <time>2014-06-16T13:46:47Z</time>
    <speed>18.283516</speed>
  </trkpt>
  <trkpt lat="5.845687" lon="-75.578053">
    <ele>1159</ele>
    <time>2014-06-16T13:46:49Z</time>
    <speed>16.094654</speed>
  </trkpt>
  <trkpt lat="5.845548" lon="-75.578319">
    <ele>1154</ele>
    <time>2014-06-16T13:46:51Z</time>
    <speed>13.960481</speed>
  </trkpt>
  <trkpt lat="5.845451" lon="-75.578556">
    <ele>1154</ele>
    <time>2014-06-16T13:46:53Z</time>
    <speed>12.484875</speed>
  </trkpt>
  <trkpt lat="5.845395" lon="-75.578798">
    <ele>1153</ele>
    <time>2014-06-16T13:46:55Z</time>
    <speed>10.9841585</speed>
  </trkpt>
  <trkpt lat="5.845434" lon="-75.579040">
    <ele>1150</ele>
    <time>2014-06-16T13:46:57Z</time>
    <speed>10.983037</speed>
  </trkpt>
  <trkpt lat="5.845491" lon="-75.579236">
    <ele>1149</ele>
    <time>2014-06-16T13:46:59Z</time>
    <speed>11.257206</speed>
  </trkpt>
  <trkpt lat="5.845460" lon="-75.579391">
    <ele>1146</ele>
    <time>2014-06-16T13:47:01Z</time>
    <speed>8.7850275</speed>
  </trkpt>
  <trkpt lat="5.845331" lon="-75.579478">
    <ele>1145</ele>
    <time>2014-06-16T13:47:03Z</time>
    <speed>8.281849</speed>
  </trkpt>
  <trkpt lat="5.845165" lon="-75.579513">
    <ele>1144</ele>
    <time>2014-06-16T13:47:05Z</time>
    <speed>9.368352</speed>
  </trkpt>
  <trkpt lat="5.844980" lon="-75.579370">
    <ele>1144</ele>
    <time>2014-06-16T13:47:07Z</time>
    <speed>10.323638</speed>
  </trkpt>
  <trkpt lat="5.844832" lon="-75.579203">
    <ele>1145</ele>
    <time>2014-06-16T13:47:09Z</time>
    <speed>10.928696</speed>
  </trkpt>
  <trkpt lat="5.844660" lon="-75.579009">
    <ele>1145</ele>
    <time>2014-06-16T13:47:11Z</time>
    <speed>14.503166</speed>
  </trkpt>
  <trkpt lat="5.844444" lon="-75.578844">
    <ele>1142</ele>
    <time>2014-06-16T13:47:13Z</time>
    <speed>14.993125</speed>
  </trkpt>
  <trkpt lat="5.844222" lon="-75.578702">
    <ele>1140</ele>
    <time>2014-06-16T13:47:15Z</time>
    <speed>13.604604</speed>
  </trkpt>
  <trkpt lat="5.844036" lon="-75.578575">
    <ele>1139</ele>
    <time>2014-06-16T13:47:17Z</time>
    <speed>11.445764</speed>
  </trkpt>
  <trkpt lat="5.843913" lon="-75.578484">
    <ele>1136</ele>
    <time>2014-06-16T13:47:19Z</time>
    <speed>6.6979184</speed>
  </trkpt>
  <trkpt lat="5.843836" lon="-75.578406">
    <ele>1135</ele>
    <time>2014-06-16T13:47:21Z</time>
    <speed>6.74382</speed>
  </trkpt>
  <trkpt lat="5.843767" lon="-75.578325">
    <ele>1135</ele>
    <time>2014-06-16T13:47:23Z</time>
    <speed>5.73585</speed>
  </trkpt>
  <trkpt lat="5.843654" lon="-75.578220">
    <ele>1135</ele>
    <time>2014-06-16T13:47:25Z</time>
    <speed>8.029807</speed>
  </trkpt>
  <trkpt lat="5.843503" lon="-75.578085">
    <ele>1135</ele>
    <time>2014-06-16T13:47:27Z</time>
    <speed>9.966148</speed>
  </trkpt>
  <trkpt lat="5.843317" lon="-75.577949">
    <ele>1134</ele>
    <time>2014-06-16T13:47:29Z</time>
    <speed>11.406325</speed>
  </trkpt>
  <trkpt lat="5.843139" lon="-75.577835">
    <ele>1133</ele>
    <time>2014-06-16T13:47:31Z</time>
    <speed>11.486538</speed>
  </trkpt>
  <trkpt lat="5.842959" lon="-75.577680">
    <ele>1133</ele>
    <time>2014-06-16T13:47:33Z</time>
    <speed>12.766831</speed>
  </trkpt>
  <trkpt lat="5.842800" lon="-75.577493">
    <ele>1130</ele>
    <time>2014-06-16T13:47:35Z</time>
    <speed>13.002035</speed>
  </trkpt>
  <trkpt lat="5.842676" lon="-75.577272">
    <ele>1131</ele>
    <time>2014-06-16T13:47:37Z</time>
    <speed>12.1289</speed>
  </trkpt>
  <trkpt lat="5.842589" lon="-75.577032">
    <ele>1130</ele>
    <time>2014-06-16T13:47:39Z</time>
    <speed>12.357579</speed>
  </trkpt>
  <trkpt lat="5.842557" lon="-75.576840">
    <ele>1127</ele>
    <time>2014-06-16T13:47:41Z</time>
    <speed>9.987674</speed>
  </trkpt>
  <trkpt lat="5.842489" lon="-75.576692">
    <ele>1125</ele>
    <time>2014-06-16T13:47:43Z</time>
    <speed>8.667713</speed>
  </trkpt>
  <trkpt lat="5.842373" lon="-75.576630">
    <ele>1124</ele>
    <time>2014-06-16T13:47:45Z</time>
    <speed>8.043686</speed>
  </trkpt>
  <trkpt lat="5.842284" lon="-75.576600">
    <ele>1125</ele>
    <time>2014-06-16T13:47:47Z</time>
    <speed>7.4742517</speed>
  </trkpt>
  <trkpt lat="5.842180" lon="-75.576664">
    <ele>1122</ele>
    <time>2014-06-16T13:47:49Z</time>
    <speed>9.096819</speed>
  </trkpt>
  <trkpt lat="5.842091" lon="-75.576850">
    <ele>1121</ele>
    <time>2014-06-16T13:47:51Z</time>
    <speed>11.842427</speed>
  </trkpt>
  <trkpt lat="5.842021" lon="-75.577123">
    <ele>1122</ele>
    <time>2014-06-16T13:47:53Z</time>
    <speed>14.330267</speed>
  </trkpt>
  <trkpt lat="5.841971" lon="-75.577402">
    <ele>1121</ele>
    <time>2014-06-16T13:47:55Z</time>
    <speed>13.634794</speed>
  </trkpt>
  <trkpt lat="5.841970" lon="-75.577712">
    <ele>1120</ele>
    <time>2014-06-16T13:47:57Z</time>
    <speed>15.200772</speed>
  </trkpt>
  <trkpt lat="5.841926" lon="-75.578016">
    <ele>1117</ele>
    <time>2014-06-16T13:47:59Z</time>
    <speed>13.34672</speed>
  </trkpt>
  <trkpt lat="5.841807" lon="-75.578248">
    <ele>1114</ele>
    <time>2014-06-16T13:48:01Z</time>
    <speed>12.801876</speed>
  </trkpt>
  <trkpt lat="5.841581" lon="-75.578372">
    <ele>1114</ele>
    <time>2014-06-16T13:48:03Z</time>
    <speed>14.1283</speed>
  </trkpt>
  <trkpt lat="5.841285" lon="-75.578415">
    <ele>1114</ele>
    <time>2014-06-16T13:48:05Z</time>
    <speed>14.834945</speed>
  </trkpt>
  <trkpt lat="5.840988" lon="-75.578450">
    <ele>1114</ele>
    <time>2014-06-16T13:48:07Z</time>
    <speed>13.519254</speed>
  </trkpt>
  <trkpt lat="5.840723" lon="-75.578499">
    <ele>1110</ele>
    <time>2014-06-16T13:48:09Z</time>
    <speed>13.30989</speed>
  </trkpt>
  <trkpt lat="5.840488" lon="-75.578593">
    <ele>1107</ele>
    <time>2014-06-16T13:48:11Z</time>
    <speed>14.07283</speed>
  </trkpt>
  <trkpt lat="5.840286" lon="-75.578704">
    <ele>1106</ele>
    <time>2014-06-16T13:48:13Z</time>
    <speed>11.611798</speed>
  </trkpt>
  <trkpt lat="5.840143" lon="-75.578815">
    <ele>1103</ele>
    <time>2014-06-16T13:48:15Z</time>
    <speed>9.200691</speed>
  </trkpt>
  <trkpt lat="5.840166" lon="-75.578991">
    <ele>1103</ele>
    <time>2014-06-16T13:48:17Z</time>
    <speed>8.828857</speed>
  </trkpt>
  <trkpt lat="5.840346" lon="-75.579076">
    <ele>1102</ele>
    <time>2014-06-16T13:48:19Z</time>
    <speed>10.816779</speed>
  </trkpt>
  <trkpt lat="5.840564" lon="-75.579102">
    <ele>1100</ele>
    <time>2014-06-16T13:48:21Z</time>
    <speed>12.1505375</speed>
  </trkpt>
  <trkpt lat="5.840765" lon="-75.579158">
    <ele>1099</ele>
    <time>2014-06-16T13:48:23Z</time>
    <speed>11.0117655</speed>
  </trkpt>
  <trkpt lat="5.840931" lon="-75.579309">
    <ele>1098</ele>
    <time>2014-06-16T13:48:25Z</time>
    <speed>13.22147</speed>
  </trkpt>
  <trkpt lat="5.841075" lon="-75.579518">
    <ele>1098</ele>
    <time>2014-06-16T13:48:27Z</time>
    <speed>13.53991</speed>
  </trkpt>
  <trkpt lat="5.841242" lon="-75.579759">
    <ele>1096</ele>
    <time>2014-06-16T13:48:29Z</time>
    <speed>15.169044</speed>
  </trkpt>
  <trkpt lat="5.841399" lon="-75.580011">
    <ele>1094</ele>
    <time>2014-06-16T13:48:31Z</time>
    <speed>15.926999</speed>
  </trkpt>
  <trkpt lat="5.841496" lon="-75.580297">
    <ele>1093</ele>
    <time>2014-06-16T13:48:33Z</time>
    <speed>14.831454</speed>
  </trkpt>
  <trkpt lat="5.841535" lon="-75.580561">
    <ele>1092</ele>
    <time>2014-06-16T13:48:35Z</time>
    <speed>14.44682</speed>
  </trkpt>
  <trkpt lat="5.841516" lon="-75.580834">
    <ele>1090</ele>
    <time>2014-06-16T13:48:37Z</time>
    <speed>15.10711</speed>
  </trkpt>
  <trkpt lat="5.841388" lon="-75.581061">
    <ele>1088</ele>
    <time>2014-06-16T13:48:39Z</time>
    <speed>14.486967</speed>
  </trkpt>
  <trkpt lat="5.841197" lon="-75.581284">
    <ele>1087</ele>
    <time>2014-06-16T13:48:41Z</time>
    <speed>15.324079</speed>
  </trkpt>
  <trkpt lat="5.841044" lon="-75.581529">
    <ele>1085</ele>
    <time>2014-06-16T13:48:43Z</time>
    <speed>15.999033</speed>
  </trkpt>
  <trkpt lat="5.840920" lon="-75.581791">
    <ele>1084</ele>
    <time>2014-06-16T13:48:45Z</time>
    <speed>16.6235</speed>
  </trkpt>
  <trkpt lat="5.840820" lon="-75.582078">
    <ele>1084</ele>
    <time>2014-06-16T13:48:47Z</time>
    <speed>15.869871</speed>
  </trkpt>
  <trkpt lat="5.840698" lon="-75.582353">
    <ele>1080</ele>
    <time>2014-06-16T13:48:49Z</time>
    <speed>14.986337</speed>
  </trkpt>
  <trkpt lat="5.840576" lon="-75.582571">
    <ele>1078</ele>
    <time>2014-06-16T13:48:51Z</time>
    <speed>13.545256</speed>
  </trkpt>
  <trkpt lat="5.840358" lon="-75.582719">
    <ele>1079</ele>
    <time>2014-06-16T13:48:53Z</time>
    <speed>14.317754</speed>
  </trkpt>
  <trkpt lat="5.840090" lon="-75.582795">
    <ele>1077</ele>
    <time>2014-06-16T13:48:55Z</time>
    <speed>14.178299</speed>
  </trkpt>
  <trkpt lat="5.839808" lon="-75.582854">
    <ele>1076</ele>
    <time>2014-06-16T13:48:57Z</time>
    <speed>15.11839</speed>
  </trkpt>
  <trkpt lat="5.839537" lon="-75.582909">
    <ele>1075</ele>
    <time>2014-06-16T13:48:59Z</time>
    <speed>13.996348</speed>
  </trkpt>
  <trkpt lat="5.839364" lon="-75.583052">
    <ele>1073</ele>
    <time>2014-06-16T13:49:01Z</time>
    <speed>13.877632</speed>
  </trkpt>
  <trkpt lat="5.839251" lon="-75.583266">
    <ele>1072</ele>
    <time>2014-06-16T13:49:03Z</time>
    <speed>14.297375</speed>
  </trkpt>
  <trkpt lat="5.839118" lon="-75.583506">
    <ele>1072</ele>
    <time>2014-06-16T13:49:05Z</time>
    <speed>14.503023</speed>
  </trkpt>
  <trkpt lat="5.838898" lon="-75.583706">
    <ele>1071</ele>
    <time>2014-06-16T13:49:07Z</time>
    <speed>16.282219</speed>
  </trkpt>
  <trkpt lat="5.838656" lon="-75.583900">
    <ele>1068</ele>
    <time>2014-06-16T13:49:09Z</time>
    <speed>17.317738</speed>
  </trkpt>
  <trkpt lat="5.838416" lon="-75.584080">
    <ele>1067</ele>
    <time>2014-06-16T13:49:11Z</time>
    <speed>15.002336</speed>
  </trkpt>
  <trkpt lat="5.838194" lon="-75.584261">
    <ele>1065</ele>
    <time>2014-06-16T13:49:13Z</time>
    <speed>14.077668</speed>
  </trkpt>
  <trkpt lat="5.838030" lon="-75.584400">
    <ele>1061</ele>
    <time>2014-06-16T13:49:15Z</time>
    <speed>10.28324</speed>
  </trkpt>
  <trkpt lat="5.837876" lon="-75.584457">
    <ele>1060</ele>
    <time>2014-06-16T13:49:17Z</time>
    <speed>8.940414</speed>
  </trkpt>
  <trkpt lat="5.837694" lon="-75.584448">
    <ele>1060</ele>
    <time>2014-06-16T13:49:19Z</time>
    <speed>10.62893</speed>
  </trkpt>
  <trkpt lat="5.837497" lon="-75.584346">
    <ele>1059</ele>
    <time>2014-06-16T13:49:21Z</time>
    <speed>11.50852</speed>
  </trkpt>
  <trkpt lat="5.837287" lon="-75.584212">
    <ele>1060</ele>
    <time>2014-06-16T13:49:23Z</time>
    <speed>14.012357</speed>
  </trkpt>
  <trkpt lat="5.837072" lon="-75.584048">
    <ele>1059</ele>
    <time>2014-06-16T13:49:25Z</time>
    <speed>14.7479925</speed>
  </trkpt>
  <trkpt lat="5.836869" lon="-75.583853">
    <ele>1057</ele>
    <time>2014-06-16T13:49:27Z</time>
    <speed>14.702982</speed>
  </trkpt>
  <trkpt lat="5.836635" lon="-75.583676">
    <ele>1056</ele>
    <time>2014-06-16T13:49:29Z</time>
    <speed>15.370888</speed>
  </trkpt>
  <trkpt lat="5.836382" lon="-75.583574">
    <ele>1051</ele>
    <time>2014-06-16T13:49:31Z</time>
    <speed>14.312172</speed>
  </trkpt>
  <trkpt lat="5.836128" lon="-75.583544">
    <ele>1051</ele>
    <time>2014-06-16T13:49:33Z</time>
    <speed>13.621489</speed>
  </trkpt>
  <trkpt lat="5.835883" lon="-75.583576">
    <ele>1049</ele>
    <time>2014-06-16T13:49:35Z</time>
    <speed>13.5135145</speed>
  </trkpt>
  <trkpt lat="5.835678" lon="-75.583575">
    <ele>1048</ele>
    <time>2014-06-16T13:49:37Z</time>
    <speed>12.09447</speed>
  </trkpt>
  <trkpt lat="5.835474" lon="-75.583504">
    <ele>1048</ele>
    <time>2014-06-16T13:49:39Z</time>
    <speed>12.478327</speed>
  </trkpt>
  <trkpt lat="5.835287" lon="-75.583405">
    <ele>1046</ele>
    <time>2014-06-16T13:49:41Z</time>
    <speed>11.41467</speed>
  </trkpt>
  <trkpt lat="5.835089" lon="-75.583321">
    <ele>1044</ele>
    <time>2014-06-16T13:49:43Z</time>
    <speed>11.09607</speed>
  </trkpt>
  <trkpt lat="5.834894" lon="-75.583309">
    <ele>1042</ele>
    <time>2014-06-16T13:49:45Z</time>
    <speed>10.845707</speed>
  </trkpt>
  <trkpt lat="5.834749" lon="-75.583440">
    <ele>1039</ele>
    <time>2014-06-16T13:49:47Z</time>
    <speed>9.090045</speed>
  </trkpt>
  <trkpt lat="5.834714" lon="-75.583566">
    <ele>1041</ele>
    <time>2014-06-16T13:49:49Z</time>
    <speed>6.151033</speed>
  </trkpt>
  <trkpt lat="5.834722" lon="-75.583689">
    <ele>1040</ele>
    <time>2014-06-16T13:49:51Z</time>
    <speed>7.9008694</speed>
  </trkpt>
  <trkpt lat="5.834801" lon="-75.583894">
    <ele>1039</ele>
    <time>2014-06-16T13:49:53Z</time>
    <speed>9.775969</speed>
  </trkpt>
  <trkpt lat="5.834798" lon="-75.584114">
    <ele>1039</ele>
    <time>2014-06-16T13:49:55Z</time>
    <speed>10.994544</speed>
  </trkpt>
  <trkpt lat="5.834692" lon="-75.584324">
    <ele>1038</ele>
    <time>2014-06-16T13:49:57Z</time>
    <speed>11.9066105</speed>
  </trkpt>
  <trkpt lat="5.834558" lon="-75.584502">
    <ele>1038</ele>
    <time>2014-06-16T13:49:59Z</time>
    <speed>11.476279</speed>
  </trkpt>
  <trkpt lat="5.834440" lon="-75.584703">
    <ele>1035</ele>
    <time>2014-06-16T13:50:01Z</time>
    <speed>11.316604</speed>
  </trkpt>
  <trkpt lat="5.834418" lon="-75.584907">
    <ele>1034</ele>
    <time>2014-06-16T13:50:03Z</time>
    <speed>11.338725</speed>
  </trkpt>
  <trkpt lat="5.834462" lon="-75.585122">
    <ele>1034</ele>
    <time>2014-06-16T13:50:05Z</time>
    <speed>11.454452</speed>
  </trkpt>
  <trkpt lat="5.834527" lon="-75.585347">
    <ele>1034</ele>
    <time>2014-06-16T13:50:07Z</time>
    <speed>12.978643</speed>
  </trkpt>
  <trkpt lat="5.834602" lon="-75.585570">
    <ele>1033</ele>
    <time>2014-06-16T13:50:09Z</time>
    <speed>13.797371</speed>
  </trkpt>
  <trkpt lat="5.834695" lon="-75.585828">
    <ele>1032</ele>
    <time>2014-06-16T13:50:11Z</time>
    <speed>14.878518</speed>
  </trkpt>
  <trkpt lat="5.834790" lon="-75.586094">
    <ele>1032</ele>
    <time>2014-06-16T13:50:13Z</time>
    <speed>16.039845</speed>
  </trkpt>
  <trkpt lat="5.834887" lon="-75.586386">
    <ele>1033</ele>
    <time>2014-06-16T13:50:15Z</time>
    <speed>16.962698</speed>
  </trkpt>
  <trkpt lat="5.834962" lon="-75.586672">
    <ele>1032</ele>
    <time>2014-06-16T13:50:17Z</time>
    <speed>17.02539</speed>
  </trkpt>
  <trkpt lat="5.835028" lon="-75.586961">
    <ele>1031</ele>
    <time>2014-06-16T13:50:19Z</time>
    <speed>17.144682</speed>
  </trkpt>
  <trkpt lat="5.835086" lon="-75.587265">
    <ele>1029</ele>
    <time>2014-06-16T13:50:21Z</time>
    <speed>16.67852</speed>
  </trkpt>
  <trkpt lat="5.835144" lon="-75.587579">
    <ele>1029</ele>
    <time>2014-06-16T13:50:23Z</time>
    <speed>17.459978</speed>
  </trkpt>
  <trkpt lat="5.835197" lon="-75.587882">
    <ele>1027</ele>
    <time>2014-06-16T13:50:25Z</time>
    <speed>16.793127</speed>
  </trkpt>
  <trkpt lat="5.835248" lon="-75.588181">
    <ele>1025</ele>
    <time>2014-06-16T13:50:27Z</time>
    <speed>17.064732</speed>
  </trkpt>
  <trkpt lat="5.835300" lon="-75.588479">
    <ele>1024</ele>
    <time>2014-06-16T13:50:29Z</time>
    <speed>16.819483</speed>
  </trkpt>
  <trkpt lat="5.835355" lon="-75.588777">
    <ele>1023</ele>
    <time>2014-06-16T13:50:31Z</time>
    <speed>16.186565</speed>
  </trkpt>
  <trkpt lat="5.835405" lon="-75.589061">
    <ele>1025</ele>
    <time>2014-06-16T13:50:33Z</time>
    <speed>15.43397</speed>
  </trkpt>
  <trkpt lat="5.835443" lon="-75.589334">
    <ele>1024</ele>
    <time>2014-06-16T13:50:35Z</time>
    <speed>14.384332</speed>
  </trkpt>
  <trkpt lat="5.835428" lon="-75.589582">
    <ele>1024</ele>
    <time>2014-06-16T13:50:37Z</time>
    <speed>12.929794</speed>
  </trkpt>
  <trkpt lat="5.835319" lon="-75.589804">
    <ele>1024</ele>
    <time>2014-06-16T13:50:39Z</time>
    <speed>12.741138</speed>
  </trkpt>
  <trkpt lat="5.835166" lon="-75.590038">
    <ele>1026</ele>
    <time>2014-06-16T13:50:41Z</time>
    <speed>13.881412</speed>
  </trkpt>
  <trkpt lat="5.834956" lon="-75.590246">
    <ele>1028</ele>
    <time>2014-06-16T13:50:43Z</time>
    <speed>15.045839</speed>
  </trkpt>
  <trkpt lat="5.834693" lon="-75.590411">
    <ele>1028</ele>
    <time>2014-06-16T13:50:45Z</time>
    <speed>15.852625</speed>
  </trkpt>
  <trkpt lat="5.834387" lon="-75.590566">
    <ele>1026</ele>
    <time>2014-06-16T13:50:47Z</time>
    <speed>17.84782</speed>
  </trkpt>
  <trkpt lat="5.834065" lon="-75.590713">
    <ele>1027</ele>
    <time>2014-06-16T13:50:49Z</time>
    <speed>18.602516</speed>
  </trkpt>
  <trkpt lat="5.833771" lon="-75.590844">
    <ele>1027</ele>
    <time>2014-06-16T13:50:51Z</time>
    <speed>17.389849</speed>
  </trkpt>
  <trkpt lat="5.833493" lon="-75.590967">
    <ele>1026</ele>
    <time>2014-06-16T13:50:53Z</time>
    <speed>16.450794</speed>
  </trkpt>
  <trkpt lat="5.833209" lon="-75.591076">
    <ele>1028</ele>
    <time>2014-06-16T13:50:55Z</time>
    <speed>15.478512</speed>
  </trkpt>
  <trkpt lat="5.832907" lon="-75.591161">
    <ele>1029</ele>
    <time>2014-06-16T13:50:57Z</time>
    <speed>16.154947</speed>
  </trkpt>
  <trkpt lat="5.832632" lon="-75.591213">
    <ele>1025</ele>
    <time>2014-06-16T13:50:59Z</time>
    <speed>15.887774</speed>
  </trkpt>
  <trkpt lat="5.832385" lon="-75.591263">
    <ele>1021</ele>
    <time>2014-06-16T13:51:01Z</time>
    <speed>12.999319</speed>
  </trkpt>
  <trkpt lat="5.832162" lon="-75.591218">
    <ele>1021</ele>
    <time>2014-06-16T13:51:03Z</time>
    <speed>13.24416</speed>
  </trkpt>
  <trkpt lat="5.831904" lon="-75.591091">
    <ele>1021</ele>
    <time>2014-06-16T13:51:05Z</time>
    <speed>14.429712</speed>
  </trkpt>
  <trkpt lat="5.831657" lon="-75.590949">
    <ele>1020</ele>
    <time>2014-06-16T13:51:07Z</time>
    <speed>15.299599</speed>
  </trkpt>
  <trkpt lat="5.831411" lon="-75.590803">
    <ele>1017</ele>
    <time>2014-06-16T13:51:09Z</time>
    <speed>14.47094</speed>
  </trkpt>
  <trkpt lat="5.831187" lon="-75.590699">
    <ele>1017</ele>
    <time>2014-06-16T13:51:11Z</time>
    <speed>12.447028</speed>
  </trkpt>
  <trkpt lat="5.831026" lon="-75.590730">
    <ele>1015</ele>
    <time>2014-06-16T13:51:13Z</time>
    <speed>12.375674</speed>
  </trkpt>
  <trkpt lat="5.830817" lon="-75.590793">
    <ele>1012</ele>
    <time>2014-06-16T13:51:15Z</time>
    <speed>12.399885</speed>
  </trkpt>
  <trkpt lat="5.830574" lon="-75.590766">
    <ele>1014</ele>
    <time>2014-06-16T13:51:17Z</time>
    <speed>13.483276</speed>
  </trkpt>
  <trkpt lat="5.830308" lon="-75.590719">
    <ele>1012</ele>
    <time>2014-06-16T13:51:19Z</time>
    <speed>15.792577</speed>
  </trkpt>
  <trkpt lat="5.830008" lon="-75.590632">
    <ele>1013</ele>
    <time>2014-06-16T13:51:21Z</time>
    <speed>17.205702</speed>
  </trkpt>
  <trkpt lat="5.829701" lon="-75.590522">
    <ele>1012</ele>
    <time>2014-06-16T13:51:23Z</time>
    <speed>17.642633</speed>
  </trkpt>
  <trkpt lat="5.829389" lon="-75.590416">
    <ele>1008</ele>
    <time>2014-06-16T13:51:25Z</time>
    <speed>16.748245</speed>
  </trkpt>
  <trkpt lat="5.829112" lon="-75.590340">
    <ele>1005</ele>
    <time>2014-06-16T13:51:27Z</time>
    <speed>14.987988</speed>
  </trkpt>
  <trkpt lat="5.828854" lon="-75.590209">
    <ele>1005</ele>
    <time>2014-06-16T13:51:29Z</time>
    <speed>16.02649</speed>
  </trkpt>
  <trkpt lat="5.828586" lon="-75.590020">
    <ele>1006</ele>
    <time>2014-06-16T13:51:31Z</time>
    <speed>16.802536</speed>
  </trkpt>
  <trkpt lat="5.828333" lon="-75.589830">
    <ele>1002</ele>
    <time>2014-06-16T13:51:33Z</time>
    <speed>16.367493</speed>
  </trkpt>
  <trkpt lat="5.828131" lon="-75.589643">
    <ele>998</ele>
    <time>2014-06-16T13:51:35Z</time>
    <speed>13.64838</speed>
  </trkpt>
  <trkpt lat="5.827963" lon="-75.589488">
    <ele>998</ele>
    <time>2014-06-16T13:51:37Z</time>
    <speed>11.61853</speed>
  </trkpt>
  <trkpt lat="5.827783" lon="-75.589344">
    <ele>998</ele>
    <time>2014-06-16T13:51:39Z</time>
    <speed>13.634649</speed>
  </trkpt>
  <trkpt lat="5.827499" lon="-75.589306">
    <ele>995</ele>
    <time>2014-06-16T13:51:41Z</time>
    <speed>15.147377</speed>
  </trkpt>
  <trkpt lat="5.827189" lon="-75.589303">
    <ele>992</ele>
    <time>2014-06-16T13:51:43Z</time>
    <speed>15.978433</speed>
  </trkpt>
  <trkpt lat="5.826892" lon="-75.589332">
    <ele>994</ele>
    <time>2014-06-16T13:51:45Z</time>
    <speed>16.555573</speed>
  </trkpt>
  <trkpt lat="5.826581" lon="-75.589384">
    <ele>993</ele>
    <time>2014-06-16T13:51:47Z</time>
    <speed>17.476393</speed>
  </trkpt>
  <trkpt lat="5.826263" lon="-75.589444">
    <ele>991</ele>
    <time>2014-06-16T13:51:49Z</time>
    <speed>16.953077</speed>
  </trkpt>
  <trkpt lat="5.825969" lon="-75.589514">
    <ele>987</ele>
    <time>2014-06-16T13:51:51Z</time>
    <speed>15.39246</speed>
  </trkpt>
  <trkpt lat="5.825689" lon="-75.589611">
    <ele>986</ele>
    <time>2014-06-16T13:51:53Z</time>
    <speed>15.901091</speed>
  </trkpt>
  <trkpt lat="5.825409" lon="-75.589745">
    <ele>983</ele>
    <time>2014-06-16T13:51:55Z</time>
    <speed>16.407503</speed>
  </trkpt>
  <trkpt lat="5.825156" lon="-75.589877">
    <ele>980</ele>
    <time>2014-06-16T13:51:57Z</time>
    <speed>15.417387</speed>
  </trkpt>
  <trkpt lat="5.824922" lon="-75.590004">
    <ele>980</ele>
    <time>2014-06-16T13:51:59Z</time>
    <speed>14.246545</speed>
  </trkpt>
  <trkpt lat="5.824699" lon="-75.590134">
    <ele>978</ele>
    <time>2014-06-16T13:52:01Z</time>
    <speed>13.080945</speed>
  </trkpt>
  <trkpt lat="5.824503" lon="-75.590307">
    <ele>976</ele>
    <time>2014-06-16T13:52:03Z</time>
    <speed>12.987568</speed>
  </trkpt>
  <trkpt lat="5.824421" lon="-75.590544">
    <ele>973</ele>
    <time>2014-06-16T13:52:05Z</time>
    <speed>11.783777</speed>
  </trkpt>
  <trkpt lat="5.824405" lon="-75.590777">
    <ele>973</ele>
    <time>2014-06-16T13:52:07Z</time>
    <speed>12.117254</speed>
  </trkpt>
  <trkpt lat="5.824377" lon="-75.591018">
    <ele>972</ele>
    <time>2014-06-16T13:52:09Z</time>
    <speed>11.399978</speed>
  </trkpt>
  <trkpt lat="5.824249" lon="-75.591219">
    <ele>971</ele>
    <time>2014-06-16T13:52:11Z</time>
    <speed>12.312123</speed>
  </trkpt>
  <trkpt lat="5.824063" lon="-75.591342">
    <ele>969</ele>
    <time>2014-06-16T13:52:13Z</time>
    <speed>11.544469</speed>
  </trkpt>
  <trkpt lat="5.823830" lon="-75.591386">
    <ele>968</ele>
    <time>2014-06-16T13:52:15Z</time>
    <speed>12.28885</speed>
  </trkpt>
  <trkpt lat="5.823567" lon="-75.591333">
    <ele>968</ele>
    <time>2014-06-16T13:52:17Z</time>
    <speed>13.867665</speed>
  </trkpt>
  <trkpt lat="5.823287" lon="-75.591191">
    <ele>966</ele>
    <time>2014-06-16T13:52:19Z</time>
    <speed>13.987113</speed>
  </trkpt>
  <trkpt lat="5.823058" lon="-75.591062">
    <ele>964</ele>
    <time>2014-06-16T13:52:21Z</time>
    <speed>13.229971</speed>
  </trkpt>
  <trkpt lat="5.822917" lon="-75.590868">
    <ele>962</ele>
    <time>2014-06-16T13:52:23Z</time>
    <speed>13.021204</speed>
  </trkpt>
  <trkpt lat="5.822813" lon="-75.590628">
    <ele>961</ele>
    <time>2014-06-16T13:52:25Z</time>
    <speed>12.617869</speed>
  </trkpt>
  <trkpt lat="5.822693" lon="-75.590422">
    <ele>959</ele>
    <time>2014-06-16T13:52:27Z</time>
    <speed>12.766182</speed>
  </trkpt>
  <trkpt lat="5.822498" lon="-75.590290">
    <ele>958</ele>
    <time>2014-06-16T13:52:29Z</time>
    <speed>13.802474</speed>
  </trkpt>
  <trkpt lat="5.822251" lon="-75.590186">
    <ele>959</ele>
    <time>2014-06-16T13:52:31Z</time>
    <speed>14.983612</speed>
  </trkpt>
  <trkpt lat="5.822023" lon="-75.590036">
    <ele>955</ele>
    <time>2014-06-16T13:52:33Z</time>
    <speed>15.422348</speed>
  </trkpt>
  <trkpt lat="5.821805" lon="-75.589850">
    <ele>955</ele>
    <time>2014-06-16T13:52:35Z</time>
    <speed>15.887324</speed>
  </trkpt>
  <trkpt lat="5.821599" lon="-75.589669">
    <ele>952</ele>
    <time>2014-06-16T13:52:37Z</time>
    <speed>15.51776</speed>
  </trkpt>
  <trkpt lat="5.821430" lon="-75.589514">
    <ele>948</ele>
    <time>2014-06-16T13:52:39Z</time>
    <speed>10.657057</speed>
  </trkpt>
  <trkpt lat="5.821273" lon="-75.589369">
    <ele>948</ele>
    <time>2014-06-16T13:52:41Z</time>
    <speed>8.99868</speed>
  </trkpt>
  <trkpt lat="5.821127" lon="-75.589332">
    <ele>946</ele>
    <time>2014-06-16T13:52:43Z</time>
    <speed>7.7748966</speed>
  </trkpt>
  <trkpt lat="5.820982" lon="-75.589409">
    <ele>945</ele>
    <time>2014-06-16T13:52:45Z</time>
    <speed>10.481142</speed>
  </trkpt>
  <trkpt lat="5.820857" lon="-75.589532">
    <ele>946</ele>
    <time>2014-06-16T13:52:47Z</time>
    <speed>9.791943</speed>
  </trkpt>
  <trkpt lat="5.820724" lon="-75.589669">
    <ele>945</ele>
    <time>2014-06-16T13:52:49Z</time>
    <speed>9.936115</speed>
  </trkpt>
  <trkpt lat="5.820527" lon="-75.589899">
    <ele>945</ele>
    <time>2014-06-16T13:52:51Z</time>
    <speed>16.08373</speed>
  </trkpt>
  <trkpt lat="5.820375" lon="-75.590129">
    <ele>943</ele>
    <time>2014-06-16T13:52:53Z</time>
    <speed>13.6722765</speed>
  </trkpt>
  <trkpt lat="5.820198" lon="-75.590292">
    <ele>941</ele>
    <time>2014-06-16T13:52:55Z</time>
    <speed>11.933974</speed>
  </trkpt>
  <trkpt lat="5.819946" lon="-75.590387">
    <ele>941</ele>
    <time>2014-06-16T13:52:57Z</time>
    <speed>13.324161</speed>
  </trkpt>
  <trkpt lat="5.819706" lon="-75.590518">
    <ele>940</ele>
    <time>2014-06-16T13:52:59Z</time>
    <speed>12.194684</speed>
  </trkpt>
  <trkpt lat="5.819500" lon="-75.590680">
    <ele>938</ele>
    <time>2014-06-16T13:53:01Z</time>
    <speed>13.922273</speed>
  </trkpt>
  <trkpt lat="5.819292" lon="-75.590863">
    <ele>936</ele>
    <time>2014-06-16T13:53:03Z</time>
    <speed>15.659003</speed>
  </trkpt>
  <trkpt lat="5.819037" lon="-75.591035">
    <ele>934</ele>
    <time>2014-06-16T13:53:05Z</time>
    <speed>16.15863</speed>
  </trkpt>
  <trkpt lat="5.818765" lon="-75.591137">
    <ele>929</ele>
    <time>2014-06-16T13:53:07Z</time>
    <speed>13.58877</speed>
  </trkpt>
  <trkpt lat="5.818474" lon="-75.591144">
    <ele>930</ele>
    <time>2014-06-16T13:53:09Z</time>
    <speed>14.1257</speed>
  </trkpt>
  <trkpt lat="5.818203" lon="-75.591034">
    <ele>928</ele>
    <time>2014-06-16T13:53:11Z</time>
    <speed>14.823881</speed>
  </trkpt>
  <trkpt lat="5.817961" lon="-75.590920">
    <ele>925</ele>
    <time>2014-06-16T13:53:13Z</time>
    <speed>12.955424</speed>
  </trkpt>
  <trkpt lat="5.817773" lon="-75.590880">
    <ele>925</ele>
    <time>2014-06-16T13:53:15Z</time>
    <speed>10.1932535</speed>
  </trkpt>
  <trkpt lat="5.817687" lon="-75.590978">
    <ele>925</ele>
    <time>2014-06-16T13:53:17Z</time>
    <speed>8.476873</speed>
  </trkpt>
  <trkpt lat="5.817659" lon="-75.591148">
    <ele>924</ele>
    <time>2014-06-16T13:53:19Z</time>
    <speed>10.131259</speed>
  </trkpt>
  <trkpt lat="5.817547" lon="-75.591316">
    <ele>922</ele>
    <time>2014-06-16T13:53:21Z</time>
    <speed>11.316923</speed>
  </trkpt>
  <trkpt lat="5.817330" lon="-75.591473">
    <ele>923</ele>
    <time>2014-06-16T13:53:23Z</time>
    <speed>14.871742</speed>
  </trkpt>
  <trkpt lat="5.817039" lon="-75.591529">
    <ele>924</ele>
    <time>2014-06-16T13:53:25Z</time>
    <speed>15.784627</speed>
  </trkpt>
  <trkpt lat="5.816717" lon="-75.591535">
    <ele>921</ele>
    <time>2014-06-16T13:53:27Z</time>
    <speed>16.114475</speed>
  </trkpt>
  <trkpt lat="5.816427" lon="-75.591471">
    <ele>918</ele>
    <time>2014-06-16T13:53:29Z</time>
    <speed>15.517354</speed>
  </trkpt>
  <trkpt lat="5.816180" lon="-75.591310">
    <ele>919</ele>
    <time>2014-06-16T13:53:31Z</time>
    <speed>16.852585</speed>
  </trkpt>
  <trkpt lat="5.815918" lon="-75.591134">
    <ele>916</ele>
    <time>2014-06-16T13:53:33Z</time>
    <speed>17.27402</speed>
  </trkpt>
  <trkpt lat="5.815637" lon="-75.590960">
    <ele>913</ele>
    <time>2014-06-16T13:53:35Z</time>
    <speed>17.181364</speed>
  </trkpt>
  <trkpt lat="5.815343" lon="-75.590854">
    <ele>910</ele>
    <time>2014-06-16T13:53:37Z</time>
    <speed>16.932978</speed>
  </trkpt>
  <trkpt lat="5.815075" lon="-75.590795">
    <ele>906</ele>
    <time>2014-06-16T13:53:39Z</time>
    <speed>14.371735</speed>
  </trkpt>
  <trkpt lat="5.814820" lon="-75.590738">
    <ele>906</ele>
    <time>2014-06-16T13:53:41Z</time>
    <speed>13.912454</speed>
  </trkpt>
  <trkpt lat="5.814544" lon="-75.590754">
    <ele>903</ele>
    <time>2014-06-16T13:53:43Z</time>
    <speed>13.258092</speed>
  </trkpt>
  <trkpt lat="5.814302" lon="-75.590855">
    <ele>900</ele>
    <time>2014-06-16T13:53:45Z</time>
    <speed>14.077334</speed>
  </trkpt>
  <trkpt lat="5.814081" lon="-75.590780">
    <ele>899</ele>
    <time>2014-06-16T13:53:47Z</time>
    <speed>12.725045</speed>
  </trkpt>
  <trkpt lat="5.813884" lon="-75.590643">
    <ele>898</ele>
    <time>2014-06-16T13:53:49Z</time>
    <speed>13.4812355</speed>
  </trkpt>
  <trkpt lat="5.813650" lon="-75.590559">
    <ele>897</ele>
    <time>2014-06-16T13:53:51Z</time>
    <speed>13.517992</speed>
  </trkpt>
  <trkpt lat="5.813442" lon="-75.590586">
    <ele>894</ele>
    <time>2014-06-16T13:53:53Z</time>
    <speed>10.153567</speed>
  </trkpt>
  <trkpt lat="5.813304" lon="-75.590721">
    <ele>893</ele>
    <time>2014-06-16T13:53:55Z</time>
    <speed>11.17493</speed>
  </trkpt>
  <trkpt lat="5.813156" lon="-75.590918">
    <ele>891</ele>
    <time>2014-06-16T13:53:57Z</time>
    <speed>13.196924</speed>
  </trkpt>
  <trkpt lat="5.813022" lon="-75.591108">
    <ele>889</ele>
    <time>2014-06-16T13:53:59Z</time>
    <speed>11.769689</speed>
  </trkpt>
  <trkpt lat="5.812835" lon="-75.591228">
    <ele>888</ele>
    <time>2014-06-16T13:54:01Z</time>
    <speed>13.051571</speed>
  </trkpt>
  <trkpt lat="5.812579" lon="-75.591242">
    <ele>889</ele>
    <time>2014-06-16T13:54:03Z</time>
    <speed>14.231197</speed>
  </trkpt>
  <trkpt lat="5.812344" lon="-75.591156">
    <ele>888</ele>
    <time>2014-06-16T13:54:05Z</time>
    <speed>13.048244</speed>
  </trkpt>
  <trkpt lat="5.812179" lon="-75.591030">
    <ele>884</ele>
    <time>2014-06-16T13:54:07Z</time>
    <speed>12.060342</speed>
  </trkpt>
  <trkpt lat="5.812097" lon="-75.590841">
    <ele>884</ele>
    <time>2014-06-16T13:54:09Z</time>
    <speed>10.979329</speed>
  </trkpt>
  <trkpt lat="5.812006" lon="-75.590637">
    <ele>884</ele>
    <time>2014-06-16T13:54:11Z</time>
    <speed>13.150782</speed>
  </trkpt>
  <trkpt lat="5.811877" lon="-75.590418">
    <ele>880</ele>
    <time>2014-06-16T13:54:13Z</time>
    <speed>14.24571</speed>
  </trkpt>
  <trkpt lat="5.811688" lon="-75.590267">
    <ele>881</ele>
    <time>2014-06-16T13:54:15Z</time>
    <speed>12.634093</speed>
  </trkpt>
  <trkpt lat="5.811450" lon="-75.590235">
    <ele>878</ele>
    <time>2014-06-16T13:54:17Z</time>
    <speed>13.149664</speed>
  </trkpt>
  <trkpt lat="5.811215" lon="-75.590328">
    <ele>877</ele>
    <time>2014-06-16T13:54:19Z</time>
    <speed>14.82747</speed>
  </trkpt>
  <trkpt lat="5.810969" lon="-75.590455">
    <ele>877</ele>
    <time>2014-06-16T13:54:21Z</time>
    <speed>15.911845</speed>
  </trkpt>
  <trkpt lat="5.810714" lon="-75.590598">
    <ele>873</ele>
    <time>2014-06-16T13:54:23Z</time>
    <speed>16.722466</speed>
  </trkpt>
  <trkpt lat="5.810469" lon="-75.590737">
    <ele>871</ele>
    <time>2014-06-16T13:54:25Z</time>
    <speed>14.348413</speed>
  </trkpt>
  <trkpt lat="5.810295" lon="-75.590885">
    <ele>867</ele>
    <time>2014-06-16T13:54:27Z</time>
    <speed>10.497062</speed>
  </trkpt>
  <trkpt lat="5.810264" lon="-75.591102">
    <ele>866</ele>
    <time>2014-06-16T13:54:29Z</time>
    <speed>10.9132185</speed>
  </trkpt>
  <trkpt lat="5.810311" lon="-75.591303">
    <ele>864</ele>
    <time>2014-06-16T13:54:31Z</time>
    <speed>9.978027</speed>
  </trkpt>
  <trkpt lat="5.810327" lon="-75.591460">
    <ele>862</ele>
    <time>2014-06-16T13:54:33Z</time>
    <speed>8.219992</speed>
  </trkpt>
  <trkpt lat="5.810274" lon="-75.591587">
    <ele>861</ele>
    <time>2014-06-16T13:54:35Z</time>
    <speed>7.7059894</speed>
  </trkpt>
  <trkpt lat="5.810161" lon="-75.591673">
    <ele>861</ele>
    <time>2014-06-16T13:54:37Z</time>
    <speed>8.202031</speed>
  </trkpt>
  <trkpt lat="5.809984" lon="-75.591674">
    <ele>860</ele>
    <time>2014-06-16T13:54:39Z</time>
    <speed>9.087527</speed>
  </trkpt>
  <trkpt lat="5.809808" lon="-75.591542">
    <ele>858</ele>
    <time>2014-06-16T13:54:41Z</time>
    <speed>10.981658</speed>
  </trkpt>
  <trkpt lat="5.809697" lon="-75.591346">
    <ele>857</ele>
    <time>2014-06-16T13:54:43Z</time>
    <speed>13.270849</speed>
  </trkpt>
  <trkpt lat="5.809617" lon="-75.591083">
    <ele>856</ele>
    <time>2014-06-16T13:54:45Z</time>
    <speed>15.45761</speed>
  </trkpt>
  <trkpt lat="5.809545" lon="-75.590783">
    <ele>854</ele>
    <time>2014-06-16T13:54:47Z</time>
    <speed>15.915223</speed>
  </trkpt>
  <trkpt lat="5.809403" lon="-75.590507">
    <ele>852</ele>
    <time>2014-06-16T13:54:49Z</time>
    <speed>15.7452345</speed>
  </trkpt>
  <trkpt lat="5.809169" lon="-75.590375">
    <ele>853</ele>
    <time>2014-06-16T13:54:51Z</time>
    <speed>15.491196</speed>
  </trkpt>
  <trkpt lat="5.808890" lon="-75.590278">
    <ele>847</ele>
    <time>2014-06-16T13:54:53Z</time>
    <speed>15.97326</speed>
  </trkpt>
  <trkpt lat="5.808630" lon="-75.590200">
    <ele>845</ele>
    <time>2014-06-16T13:54:55Z</time>
    <speed>14.768468</speed>
  </trkpt>
  <trkpt lat="5.808404" lon="-75.590160">
    <ele>844</ele>
    <time>2014-06-16T13:54:57Z</time>
    <speed>10.696204</speed>
  </trkpt>
  <trkpt lat="5.808243" lon="-75.590238">
    <ele>843</ele>
    <time>2014-06-16T13:54:59Z</time>
    <speed>8.643972</speed>
  </trkpt>
  <trkpt lat="5.808195" lon="-75.590459">
    <ele>841</ele>
    <time>2014-06-16T13:55:01Z</time>
    <speed>11.2635975</speed>
  </trkpt>
  <trkpt lat="5.808155" lon="-75.590711">
    <ele>841</ele>
    <time>2014-06-16T13:55:03Z</time>
    <speed>12.7136755</speed>
  </trkpt>
  <trkpt lat="5.808102" lon="-75.590977">
    <ele>839</ele>
    <time>2014-06-16T13:55:05Z</time>
    <speed>14.067588</speed>
  </trkpt>
  <trkpt lat="5.808053" lon="-75.591238">
    <ele>837</ele>
    <time>2014-06-16T13:55:07Z</time>
    <speed>13.864141</speed>
  </trkpt>
  <trkpt lat="5.808023" lon="-75.591464">
    <ele>833</ele>
    <time>2014-06-16T13:55:09Z</time>
    <speed>11.827415</speed>
  </trkpt>
  <trkpt lat="5.807986" lon="-75.591667">
    <ele>830</ele>
    <time>2014-06-16T13:55:11Z</time>
    <speed>10.947033</speed>
  </trkpt>
  <trkpt lat="5.807859" lon="-75.591815">
    <ele>830</ele>
    <time>2014-06-16T13:55:13Z</time>
    <speed>10.806836</speed>
  </trkpt>
  <trkpt lat="5.807675" lon="-75.591957">
    <ele>828</ele>
    <time>2014-06-16T13:55:15Z</time>
    <speed>12.39262</speed>
  </trkpt>
  <trkpt lat="5.807472" lon="-75.592090">
    <ele>828</ele>
    <time>2014-06-16T13:55:17Z</time>
    <speed>12.714472</speed>
  </trkpt>
  <trkpt lat="5.807281" lon="-75.592243">
    <ele>825</ele>
    <time>2014-06-16T13:55:19Z</time>
    <speed>12.866161</speed>
  </trkpt>
  <trkpt lat="5.807189" lon="-75.592399">
    <ele>822</ele>
    <time>2014-06-16T13:55:21Z</time>
    <speed>7.749686</speed>
  </trkpt>
  <trkpt lat="5.807048" lon="-75.592458">
    <ele>820</ele>
    <time>2014-06-16T13:55:23Z</time>
    <speed>8.004215</speed>
  </trkpt>
  <trkpt lat="5.806860" lon="-75.592446">
    <ele>820</ele>
    <time>2014-06-16T13:55:25Z</time>
    <speed>8.449652</speed>
  </trkpt>
  <trkpt lat="5.806754" lon="-75.592350">
    <ele>818</ele>
    <time>2014-06-16T13:55:27Z</time>
    <speed>8.665029</speed>
  </trkpt>
  <trkpt lat="5.806713" lon="-75.592192">
    <ele>819</ele>
    <time>2014-06-16T13:55:29Z</time>
    <speed>9.300985</speed>
  </trkpt>
  <trkpt lat="5.806686" lon="-75.591975">
    <ele>817</ele>
    <time>2014-06-16T13:55:31Z</time>
    <speed>9.318058</speed>
  </trkpt>
  <trkpt lat="5.806596" lon="-75.591821">
    <ele>815</ele>
    <time>2014-06-16T13:55:33Z</time>
    <speed>7.5841637</speed>
  </trkpt>
  <trkpt lat="5.806485" lon="-75.591811">
    <ele>815</ele>
    <time>2014-06-16T13:55:35Z</time>
    <speed>7.678547</speed>
  </trkpt>
  <trkpt lat="5.806408" lon="-75.591956">
    <ele>813</ele>
    <time>2014-06-16T13:55:37Z</time>
    <speed>10.336483</speed>
  </trkpt>
  <trkpt lat="5.806346" lon="-75.592179">
    <ele>812</ele>
    <time>2014-06-16T13:55:39Z</time>
    <speed>12.32734</speed>
  </trkpt>
  <trkpt lat="5.806285" lon="-75.592429">
    <ele>810</ele>
    <time>2014-06-16T13:55:41Z</time>
    <speed>13.15328</speed>
  </trkpt>
  <trkpt lat="5.806220" lon="-75.592658">
    <ele>810</ele>
    <time>2014-06-16T13:55:43Z</time>
    <speed>13.482459</speed>
  </trkpt>
  <trkpt lat="5.806142" lon="-75.592879">
    <ele>806</ele>
    <time>2014-06-16T13:55:45Z</time>
    <speed>12.94719</speed>
  </trkpt>
  <trkpt lat="5.806069" lon="-75.593039">
    <ele>804</ele>
    <time>2014-06-16T13:55:47Z</time>
    <speed>8.873398</speed>
  </trkpt>
  <trkpt lat="5.805963" lon="-75.593150">
    <ele>803</ele>
    <time>2014-06-16T13:55:49Z</time>
    <speed>8.840297</speed>
  </trkpt>
  <trkpt lat="5.805728" lon="-75.593174">
    <ele>802</ele>
    <time>2014-06-16T13:55:51Z</time>
    <speed>11.286672</speed>
  </trkpt>
  <trkpt lat="5.805469" lon="-75.593150">
    <ele>801</ele>
    <time>2014-06-16T13:55:53Z</time>
    <speed>12.364498</speed>
  </trkpt>
  <trkpt lat="5.805249" lon="-75.593159">
    <ele>799</ele>
    <time>2014-06-16T13:55:55Z</time>
    <speed>12.901308</speed>
  </trkpt>
  <trkpt lat="5.805028" lon="-75.593235">
    <ele>797</ele>
    <time>2014-06-16T13:55:57Z</time>
    <speed>13.3735285</speed>
  </trkpt>
  <trkpt lat="5.804803" lon="-75.593350">
    <ele>797</ele>
    <time>2014-06-16T13:55:59Z</time>
    <speed>14.766528</speed>
  </trkpt>
  <trkpt lat="5.804572" lon="-75.593482">
    <ele>792</ele>
    <time>2014-06-16T13:56:01Z</time>
    <speed>13.567461</speed>
  </trkpt>
  <trkpt lat="5.804389" lon="-75.593575">
    <ele>791</ele>
    <time>2014-06-16T13:56:03Z</time>
    <speed>11.123812</speed>
  </trkpt>
  <trkpt lat="5.804164" lon="-75.593576">
    <ele>789</ele>
    <time>2014-06-16T13:56:05Z</time>
    <speed>11.586826</speed>
  </trkpt>
  <trkpt lat="5.803907" lon="-75.593489">
    <ele>788</ele>
    <time>2014-06-16T13:56:07Z</time>
    <speed>13.30646</speed>
  </trkpt>
  <trkpt lat="5.803646" lon="-75.593402">
    <ele>787</ele>
    <time>2014-06-16T13:56:09Z</time>
    <speed>13.307147</speed>
  </trkpt>
  <trkpt lat="5.803427" lon="-75.593302">
    <ele>786</ele>
    <time>2014-06-16T13:56:11Z</time>
    <speed>12.390657</speed>
  </trkpt>
  <trkpt lat="5.803254" lon="-75.593170">
    <ele>783</ele>
    <time>2014-06-16T13:56:13Z</time>
    <speed>10.146529</speed>
  </trkpt>
  <trkpt lat="5.803156" lon="-75.593057">
    <ele>782</ele>
    <time>2014-06-16T13:56:15Z</time>
    <speed>7.097582</speed>
  </trkpt>
  <trkpt lat="5.803086" lon="-75.592920">
    <ele>780</ele>
    <time>2014-06-16T13:56:17Z</time>
    <speed>7.0939145</speed>
  </trkpt>
  <trkpt lat="5.803020" lon="-75.592760">
    <ele>779</ele>
    <time>2014-06-16T13:56:19Z</time>
    <speed>8.185316</speed>
  </trkpt>
  <trkpt lat="5.802928" lon="-75.592634">
    <ele>779</ele>
    <time>2014-06-16T13:56:21Z</time>
    <speed>8.441319</speed>
  </trkpt>
  <trkpt lat="5.802815" lon="-75.592602">
    <ele>778</ele>
    <time>2014-06-16T13:56:23Z</time>
    <speed>7.338278</speed>
  </trkpt>
  <trkpt lat="5.802725" lon="-75.592661">
    <ele>777</ele>
    <time>2014-06-16T13:56:25Z</time>
    <speed>7.7351203</speed>
  </trkpt>
  <trkpt lat="5.802622" lon="-75.592761">
    <ele>777</ele>
    <time>2014-06-16T13:56:27Z</time>
    <speed>9.736128</speed>
  </trkpt>
  <trkpt lat="5.802489" lon="-75.592900">
    <ele>777</ele>
    <time>2014-06-16T13:56:29Z</time>
    <speed>10.886088</speed>
  </trkpt>
  <trkpt lat="5.802370" lon="-75.593051">
    <ele>777</ele>
    <time>2014-06-16T13:56:31Z</time>
    <speed>10.662652</speed>
  </trkpt>
  <trkpt lat="5.802274" lon="-75.593204">
    <ele>779</ele>
    <time>2014-06-16T13:56:33Z</time>
    <speed>9.578283</speed>
  </trkpt>
  <trkpt lat="5.802202" lon="-75.593433">
    <ele>778</ele>
    <time>2014-06-16T13:56:35Z</time>
    <speed>12.314686</speed>
  </trkpt>
  <trkpt lat="5.802126" lon="-75.593720">
    <ele>778</ele>
    <time>2014-06-16T13:56:37Z</time>
    <speed>13.97094</speed>
  </trkpt>
  <trkpt lat="5.802076" lon="-75.593991">
    <ele>775</ele>
    <time>2014-06-16T13:56:39Z</time>
    <speed>12.576237</speed>
  </trkpt>
  <trkpt lat="5.802090" lon="-75.594227">
    <ele>774</ele>
    <time>2014-06-16T13:56:41Z</time>
    <speed>11.399818</speed>
  </trkpt>
  <trkpt lat="5.802165" lon="-75.594414">
    <ele>775</ele>
    <time>2014-06-16T13:56:43Z</time>
    <speed>11.078237</speed>
  </trkpt>
  <trkpt lat="5.802354" lon="-75.594548">
    <ele>776</ele>
    <time>2014-06-16T13:56:45Z</time>
    <speed>11.318166</speed>
  </trkpt>
  <trkpt lat="5.802588" lon="-75.594656">
    <ele>777</ele>
    <time>2014-06-16T13:56:47Z</time>
    <speed>11.472463</speed>
  </trkpt>
  <trkpt lat="5.802780" lon="-75.594827">
    <ele>779</ele>
    <time>2014-06-16T13:56:49Z</time>
    <speed>11.146852</speed>
  </trkpt>
  <trkpt lat="5.802835" lon="-75.595062">
    <ele>780</ele>
    <time>2014-06-16T13:56:51Z</time>
    <speed>12.428301</speed>
  </trkpt>
  <trkpt lat="5.802849" lon="-75.595295">
    <ele>781</ele>
    <time>2014-06-16T13:56:53Z</time>
    <speed>11.818156</speed>
  </trkpt>
  <trkpt lat="5.802867" lon="-75.595518">
    <ele>784</ele>
    <time>2014-06-16T13:56:55Z</time>
    <speed>12.27331</speed>
  </trkpt>
  <trkpt lat="5.802916" lon="-75.595774">
    <ele>783</ele>
    <time>2014-06-16T13:56:57Z</time>
    <speed>13.125397</speed>
  </trkpt>
  <trkpt lat="5.802979" lon="-75.596013">
    <ele>786</ele>
    <time>2014-06-16T13:56:59Z</time>
    <speed>12.633377</speed>
  </trkpt>
  <trkpt lat="5.803058" lon="-75.596246">
    <ele>789</ele>
    <time>2014-06-16T13:57:01Z</time>
    <speed>12.689188</speed>
  </trkpt>
  <trkpt lat="5.803189" lon="-75.596464">
    <ele>790</ele>
    <time>2014-06-16T13:57:03Z</time>
    <speed>12.727558</speed>
  </trkpt>
  <trkpt lat="5.803315" lon="-75.596684">
    <ele>791</ele>
    <time>2014-06-16T13:57:05Z</time>
    <speed>12.6532</speed>
  </trkpt>
  <trkpt lat="5.803359" lon="-75.596914">
    <ele>793</ele>
    <time>2014-06-16T13:57:07Z</time>
    <speed>12.959757</speed>
  </trkpt>
  <trkpt lat="5.803352" lon="-75.597158">
    <ele>794</ele>
    <time>2014-06-16T13:57:09Z</time>
    <speed>13.752331</speed>
  </trkpt>
  <trkpt lat="5.803330" lon="-75.597391">
    <ele>798</ele>
    <time>2014-06-16T13:57:11Z</time>
    <speed>12.818689</speed>
  </trkpt>
  <trkpt lat="5.803297" lon="-75.597613">
    <ele>800</ele>
    <time>2014-06-16T13:57:13Z</time>
    <speed>12.447689</speed>
  </trkpt>
  <trkpt lat="5.803296" lon="-75.597824">
    <ele>801</ele>
    <time>2014-06-16T13:57:15Z</time>
    <speed>12.390819</speed>
  </trkpt>
  <trkpt lat="5.803409" lon="-75.598001">
    <ele>804</ele>
    <time>2014-06-16T13:57:17Z</time>
    <speed>11.460796</speed>
  </trkpt>
  <trkpt lat="5.803579" lon="-75.598128">
    <ele>801</ele>
    <time>2014-06-16T13:57:19Z</time>
    <speed>10.498651</speed>
  </trkpt>
  <trkpt lat="5.803725" lon="-75.598258">
    <ele>803</ele>
    <time>2014-06-16T13:57:21Z</time>
    <speed>9.324708</speed>
  </trkpt>
  <trkpt lat="5.803813" lon="-75.598416">
    <ele>805</ele>
    <time>2014-06-16T13:57:23Z</time>
    <speed>9.9032755</speed>
  </trkpt>
  <trkpt lat="5.803850" lon="-75.598604">
    <ele>807</ele>
    <time>2014-06-16T13:57:25Z</time>
    <speed>10.971208</speed>
  </trkpt>
  <trkpt lat="5.803859" lon="-75.598803">
    <ele>807</ele>
    <time>2014-06-16T13:57:27Z</time>
    <speed>10.989835</speed>
  </trkpt>
  <trkpt lat="5.803864" lon="-75.599013">
    <ele>810</ele>
    <time>2014-06-16T13:57:29Z</time>
    <speed>11.889204</speed>
  </trkpt>
  <trkpt lat="5.803878" lon="-75.599233">
    <ele>810</ele>
    <time>2014-06-16T13:57:31Z</time>
    <speed>11.996465</speed>
  </trkpt>
  <trkpt lat="5.803889" lon="-75.599431">
    <ele>812</ele>
    <time>2014-06-16T13:57:33Z</time>
    <speed>11.609138</speed>
  </trkpt>
  <trkpt lat="5.803846" lon="-75.599619">
    <ele>813</ele>
    <time>2014-06-16T13:57:35Z</time>
    <speed>10.209728</speed>
  </trkpt>
  <trkpt lat="5.803765" lon="-75.599767">
    <ele>814</ele>
    <time>2014-06-16T13:57:37Z</time>
    <speed>8.624926</speed>
  </trkpt>
  <trkpt lat="5.803681" lon="-75.599882">
    <ele>814</ele>
    <time>2014-06-16T13:57:39Z</time>
    <speed>7.3743453</speed>
  </trkpt>
  <trkpt lat="5.803593" lon="-75.600035">
    <ele>819</ele>
    <time>2014-06-16T13:57:41Z</time>
    <speed>9.332102</speed>
  </trkpt>
  <trkpt lat="5.803534" lon="-75.600211">
    <ele>818</ele>
    <time>2014-06-16T13:57:43Z</time>
    <speed>10.153287</speed>
  </trkpt>
  <trkpt lat="5.803489" lon="-75.600404">
    <ele>822</ele>
    <time>2014-06-16T13:57:45Z</time>
    <speed>10.760423</speed>
  </trkpt>
  <trkpt lat="5.803402" lon="-75.600593">
    <ele>824</ele>
    <time>2014-06-16T13:57:47Z</time>
    <speed>10.776556</speed>
  </trkpt>
  <trkpt lat="5.803197" lon="-75.600715">
    <ele>825</ele>
    <time>2014-06-16T13:57:49Z</time>
    <speed>11.778814</speed>
  </trkpt>
  <trkpt lat="5.802960" lon="-75.600775">
    <ele>826</ele>
    <time>2014-06-16T13:57:51Z</time>
    <speed>11.634538</speed>
  </trkpt>
  <trkpt lat="5.802746" lon="-75.600741">
    <ele>828</ele>
    <time>2014-06-16T13:57:53Z</time>
    <speed>10.707061</speed>
  </trkpt>
  <trkpt lat="5.802507" lon="-75.600714">
    <ele>828</ele>
    <time>2014-06-16T13:57:55Z</time>
    <speed>11.792024</speed>
  </trkpt>
  <trkpt lat="5.802254" lon="-75.600706">
    <ele>829</ele>
    <time>2014-06-16T13:57:57Z</time>
    <speed>13.50199</speed>
  </trkpt>
  <trkpt lat="5.802012" lon="-75.600757">
    <ele>828</ele>
    <time>2014-06-16T13:57:59Z</time>
    <speed>14.805087</speed>
  </trkpt>
  <trkpt lat="5.801747" lon="-75.600832">
    <ele>826</ele>
    <time>2014-06-16T13:58:01Z</time>
    <speed>15.631548</speed>
  </trkpt>
  <trkpt lat="5.801469" lon="-75.600916">
    <ele>823</ele>
    <time>2014-06-16T13:58:03Z</time>
    <speed>16.41498</speed>
  </trkpt>
  <trkpt lat="5.801163" lon="-75.601014">
    <ele>822</ele>
    <time>2014-06-16T13:58:05Z</time>
    <speed>17.362955</speed>
  </trkpt>
  <trkpt lat="5.800850" lon="-75.601119">
    <ele>820</ele>
    <time>2014-06-16T13:58:07Z</time>
    <speed>17.366827</speed>
  </trkpt>
  <trkpt lat="5.800530" lon="-75.601221">
    <ele>820</ele>
    <time>2014-06-16T13:58:09Z</time>
    <speed>17.288168</speed>
  </trkpt>
  <trkpt lat="5.800244" lon="-75.601311">
    <ele>819</ele>
    <time>2014-06-16T13:58:11Z</time>
    <speed>16.2594</speed>
  </trkpt>
  <trkpt lat="5.799980" lon="-75.601370">
    <ele>818</ele>
    <time>2014-06-16T13:58:13Z</time>
    <speed>14.896956</speed>
  </trkpt>
  <trkpt lat="5.799705" lon="-75.601347">
    <ele>817</ele>
    <time>2014-06-16T13:58:15Z</time>
    <speed>14.924704</speed>
  </trkpt>
  <trkpt lat="5.799433" lon="-75.601285">
    <ele>814</ele>
    <time>2014-06-16T13:58:17Z</time>
    <speed>14.258731</speed>
  </trkpt>
  <trkpt lat="5.799197" lon="-75.601216">
    <ele>813</ele>
    <time>2014-06-16T13:58:19Z</time>
    <speed>13.077408</speed>
  </trkpt>
  <trkpt lat="5.798992" lon="-75.601143">
    <ele>813</ele>
    <time>2014-06-16T13:58:21Z</time>
    <speed>12.383007</speed>
  </trkpt>
  <trkpt lat="5.798778" lon="-75.601055">
    <ele>816</ele>
    <time>2014-06-16T13:58:23Z</time>
    <speed>12.453335</speed>
  </trkpt>
  <trkpt lat="5.798575" lon="-75.600944">
    <ele>813</ele>
    <time>2014-06-16T13:58:25Z</time>
    <speed>12.566229</speed>
  </trkpt>
  <trkpt lat="5.798384" lon="-75.600815">
    <ele>814</ele>
    <time>2014-06-16T13:58:27Z</time>
    <speed>12.358519</speed>
  </trkpt>
  <trkpt lat="5.798187" lon="-75.600674">
    <ele>813</ele>
    <time>2014-06-16T13:58:29Z</time>
    <speed>12.531315</speed>
  </trkpt>
  <trkpt lat="5.797966" lon="-75.600578">
    <ele>812</ele>
    <time>2014-06-16T13:58:31Z</time>
    <speed>11.206022</speed>
  </trkpt>
  <trkpt lat="5.797765" lon="-75.600570">
    <ele>811</ele>
    <time>2014-06-16T13:58:33Z</time>
    <speed>10.837759</speed>
  </trkpt>
  <trkpt lat="5.797577" lon="-75.600627">
    <ele>812</ele>
    <time>2014-06-16T13:58:35Z</time>
    <speed>11.021153</speed>
  </trkpt>
  <trkpt lat="5.797395" lon="-75.600737">
    <ele>811</ele>
    <time>2014-06-16T13:58:37Z</time>
    <speed>12.053206</speed>
  </trkpt>
  <trkpt lat="5.797280" lon="-75.600913">
    <ele>812</ele>
    <time>2014-06-16T13:58:39Z</time>
    <speed>12.848429</speed>
  </trkpt>
  <trkpt lat="5.797201" lon="-75.601130">
    <ele>813</ele>
    <time>2014-06-16T13:58:41Z</time>
    <speed>13.470003</speed>
  </trkpt>
  <trkpt lat="5.797114" lon="-75.601351">
    <ele>814</ele>
    <time>2014-06-16T13:58:43Z</time>
    <speed>12.57474</speed>
  </trkpt>
  <trkpt lat="5.796968" lon="-75.601521">
    <ele>815</ele>
    <time>2014-06-16T13:58:45Z</time>
    <speed>12.341143</speed>
  </trkpt>
  <trkpt lat="5.796778" lon="-75.601665">
    <ele>818</ele>
    <time>2014-06-16T13:58:47Z</time>
    <speed>13.411707</speed>
  </trkpt>
  <trkpt lat="5.796533" lon="-75.601794">
    <ele>817</ele>
    <time>2014-06-16T13:58:49Z</time>
    <speed>15.301853</speed>
  </trkpt>
  <trkpt lat="5.796240" lon="-75.601928">
    <ele>817</ele>
    <time>2014-06-16T13:58:51Z</time>
    <speed>16.18444</speed>
  </trkpt>
  <trkpt lat="5.795950" lon="-75.602034">
    <ele>815</ele>
    <time>2014-06-16T13:58:53Z</time>
    <speed>17.346008</speed>
  </trkpt>
  <trkpt lat="5.795633" lon="-75.602115">
    <ele>813</ele>
    <time>2014-06-16T13:58:55Z</time>
    <speed>17.302649</speed>
  </trkpt>
  <trkpt lat="5.795301" lon="-75.602162">
    <ele>809</ele>
    <time>2014-06-16T13:58:57Z</time>
    <speed>18.018353</speed>
  </trkpt>
  <trkpt lat="5.794934" lon="-75.602181">
    <ele>807</ele>
    <time>2014-06-16T13:58:59Z</time>
    <speed>17.189945</speed>
  </trkpt>
  <trkpt lat="5.794600" lon="-75.602184">
    <ele>803</ele>
    <time>2014-06-16T13:59:01Z</time>
    <speed>16.261978</speed>
  </trkpt>
  <trkpt lat="5.794340" lon="-75.602171">
    <ele>800</ele>
    <time>2014-06-16T13:59:03Z</time>
    <speed>14.07963</speed>
  </trkpt>
  <trkpt lat="5.794101" lon="-75.602096">
    <ele>797</ele>
    <time>2014-06-16T13:59:05Z</time>
    <speed>12.698331</speed>
  </trkpt>
  <trkpt lat="5.793893" lon="-75.602034">
    <ele>797</ele>
    <time>2014-06-16T13:59:07Z</time>
    <speed>10.655387</speed>
  </trkpt>
  <trkpt lat="5.793736" lon="-75.602071">
    <ele>794</ele>
    <time>2014-06-16T13:59:09Z</time>
    <speed>9.903569</speed>
  </trkpt>
  <trkpt lat="5.793642" lon="-75.602167">
    <ele>793</ele>
    <time>2014-06-16T13:59:11Z</time>
    <speed>10.346836</speed>
  </trkpt>
  <trkpt lat="5.793568" lon="-75.602304">
    <ele>795</ele>
    <time>2014-06-16T13:59:13Z</time>
    <speed>9.826692</speed>
  </trkpt>
  <trkpt lat="5.793530" lon="-75.602477">
    <ele>793</ele>
    <time>2014-06-16T13:59:15Z</time>
    <speed>11.968711</speed>
  </trkpt>
  <trkpt lat="5.793487" lon="-75.602708">
    <ele>796</ele>
    <time>2014-06-16T13:59:17Z</time>
    <speed>13.686283</speed>
  </trkpt>
  <trkpt lat="5.793418" lon="-75.602964">
    <ele>795</ele>
    <time>2014-06-16T13:59:19Z</time>
    <speed>14.513141</speed>
  </trkpt>
  <trkpt lat="5.793275" lon="-75.603188">
    <ele>793</ele>
    <time>2014-06-16T13:59:21Z</time>
    <speed>14.407722</speed>
  </trkpt>
  <trkpt lat="5.793098" lon="-75.603411">
    <ele>790</ele>
    <time>2014-06-16T13:59:23Z</time>
    <speed>14.972493</speed>
  </trkpt>
  <trkpt lat="5.792896" lon="-75.603607">
    <ele>789</ele>
    <time>2014-06-16T13:59:25Z</time>
    <speed>13.377743</speed>
  </trkpt>
  <trkpt lat="5.792678" lon="-75.603699">
    <ele>787</ele>
    <time>2014-06-16T13:59:27Z</time>
    <speed>11.522605</speed>
  </trkpt>
  <trkpt lat="5.792434" lon="-75.603682">
    <ele>786</ele>
    <time>2014-06-16T13:59:29Z</time>
    <speed>12.37075</speed>
  </trkpt>
  <trkpt lat="5.792183" lon="-75.603602">
    <ele>783</ele>
    <time>2014-06-16T13:59:31Z</time>
    <speed>14.38489</speed>
  </trkpt>
  <trkpt lat="5.791923" lon="-75.603511">
    <ele>784</ele>
    <time>2014-06-16T13:59:33Z</time>
    <speed>14.546356</speed>
  </trkpt>
  <trkpt lat="5.791635" lon="-75.603402">
    <ele>782</ele>
    <time>2014-06-16T13:59:35Z</time>
    <speed>14.129497</speed>
  </trkpt>
  <trkpt lat="5.791387" lon="-75.603311">
    <ele>779</ele>
    <time>2014-06-16T13:59:37Z</time>
    <speed>12.998367</speed>
  </trkpt>
  <trkpt lat="5.791202" lon="-75.603304">
    <ele>775</ele>
    <time>2014-06-16T13:59:39Z</time>
    <speed>9.937035</speed>
  </trkpt>
  <trkpt lat="5.791029" lon="-75.603304">
    <ele>774</ele>
    <time>2014-06-16T13:59:41Z</time>
    <speed>9.014473</speed>
  </trkpt>
  <trkpt lat="5.790883" lon="-75.603227">
    <ele>775</ele>
    <time>2014-06-16T13:59:43Z</time>
    <speed>9.254144</speed>
  </trkpt>
  <trkpt lat="5.790802" lon="-75.603093">
    <ele>773</ele>
    <time>2014-06-16T13:59:45Z</time>
    <speed>9.120043</speed>
  </trkpt>
  <trkpt lat="5.790750" lon="-75.602937">
    <ele>772</ele>
    <time>2014-06-16T13:59:47Z</time>
    <speed>9.632942</speed>
  </trkpt>
  <trkpt lat="5.790672" lon="-75.602789">
    <ele>771</ele>
    <time>2014-06-16T13:59:49Z</time>
    <speed>8.790575</speed>
  </trkpt>
  <trkpt lat="5.790530" lon="-75.602688">
    <ele>769</ele>
    <time>2014-06-16T13:59:51Z</time>
    <speed>8.717828</speed>
  </trkpt>
  <trkpt lat="5.790356" lon="-75.602672">
    <ele>770</ele>
    <time>2014-06-16T13:59:53Z</time>
    <speed>9.193872</speed>
  </trkpt>
  <trkpt lat="5.790216" lon="-75.602802">
    <ele>770</ele>
    <time>2014-06-16T13:59:55Z</time>
    <speed>11.523433</speed>
  </trkpt>
  <trkpt lat="5.790103" lon="-75.602959">
    <ele>770</ele>
    <time>2014-06-16T13:59:57Z</time>
    <speed>11.19124</speed>
  </trkpt>
  <trkpt lat="5.789987" lon="-75.603154">
    <ele>772</ele>
    <time>2014-06-16T13:59:59Z</time>
    <speed>12.499865</speed>
  </trkpt>
  <trkpt lat="5.789832" lon="-75.603331">
    <ele>771</ele>
    <time>2014-06-16T14:00:01Z</time>
    <speed>12.835947</speed>
  </trkpt>
  <trkpt lat="5.789581" lon="-75.603421">
    <ele>770</ele>
    <time>2014-06-16T14:00:03Z</time>
    <speed>13.8424225</speed>
  </trkpt>
  <trkpt lat="5.789322" lon="-75.603454">
    <ele>767</ele>
    <time>2014-06-16T14:00:05Z</time>
    <speed>14.100413</speed>
  </trkpt>
  <trkpt lat="5.789024" lon="-75.603465">
    <ele>765</ele>
    <time>2014-06-16T14:00:07Z</time>
    <speed>15.837736</speed>
  </trkpt>
  <trkpt lat="5.788702" lon="-75.603473">
    <ele>764</ele>
    <time>2014-06-16T14:00:09Z</time>
    <speed>16.767918</speed>
  </trkpt>
  <trkpt lat="5.788404" lon="-75.603501">
    <ele>766</ele>
    <time>2014-06-16T14:00:11Z</time>
    <speed>17.154419</speed>
  </trkpt>
  <trkpt lat="5.788101" lon="-75.603528">
    <ele>767</ele>
    <time>2014-06-16T14:00:13Z</time>
    <speed>16.952429</speed>
  </trkpt>
  <trkpt lat="5.787797" lon="-75.603527">
    <ele>768</ele>
    <time>2014-06-16T14:00:15Z</time>
    <speed>15.597291</speed>
  </trkpt>
  <trkpt lat="5.787542" lon="-75.603488">
    <ele>769</ele>
    <time>2014-06-16T14:00:17Z</time>
    <speed>13.802529</speed>
  </trkpt>
  <trkpt lat="5.787307" lon="-75.603436">
    <ele>766</ele>
    <time>2014-06-16T14:00:19Z</time>
    <speed>12.357637</speed>
  </trkpt>
  <trkpt lat="5.787078" lon="-75.603426">
    <ele>766</ele>
    <time>2014-06-16T14:00:21Z</time>
    <speed>12.454386</speed>
  </trkpt>
  <trkpt lat="5.786858" lon="-75.603463">
    <ele>765</ele>
    <time>2014-06-16T14:00:23Z</time>
    <speed>12.704546</speed>
  </trkpt>
  <trkpt lat="5.786664" lon="-75.603555">
    <ele>766</ele>
    <time>2014-06-16T14:00:25Z</time>
    <speed>13.365717</speed>
  </trkpt>
  <trkpt lat="5.786442" lon="-75.603662">
    <ele>767</ele>
    <time>2014-06-16T14:00:27Z</time>
    <speed>14.575237</speed>
  </trkpt>
  <trkpt lat="5.786186" lon="-75.603787">
    <ele>768</ele>
    <time>2014-06-16T14:00:29Z</time>
    <speed>15.13523</speed>
  </trkpt>
  <trkpt lat="5.785931" lon="-75.603915">
    <ele>768</ele>
    <time>2014-06-16T14:00:31Z</time>
    <speed>15.405237</speed>
  </trkpt>
  <trkpt lat="5.785689" lon="-75.604050">
    <ele>769</ele>
    <time>2014-06-16T14:00:33Z</time>
    <speed>14.061869</speed>
  </trkpt>
  <trkpt lat="5.785484" lon="-75.604162">
    <ele>766</ele>
    <time>2014-06-16T14:00:35Z</time>
    <speed>11.674012</speed>
  </trkpt>
  <trkpt lat="5.785290" lon="-75.604270">
    <ele>766</ele>
    <time>2014-06-16T14:00:37Z</time>
    <speed>11.361375</speed>
  </trkpt>
  <trkpt lat="5.785083" lon="-75.604373">
    <ele>764</ele>
    <time>2014-06-16T14:00:39Z</time>
    <speed>11.518157</speed>
  </trkpt>
  <trkpt lat="5.784870" lon="-75.604457">
    <ele>765</ele>
    <time>2014-06-16T14:00:41Z</time>
    <speed>12.528474</speed>
  </trkpt>
  <trkpt lat="5.784632" lon="-75.604519">
    <ele>763</ele>
    <time>2014-06-16T14:00:43Z</time>
    <speed>12.728134</speed>
  </trkpt>
  <trkpt lat="5.784334" lon="-75.604520">
    <ele>761</ele>
    <time>2014-06-16T14:00:45Z</time>
    <speed>16.0603</speed>
  </trkpt>
  <trkpt lat="5.784025" lon="-75.604525">
    <ele>759</ele>
    <time>2014-06-16T14:00:47Z</time>
    <speed>15.632565</speed>
  </trkpt>
  <trkpt lat="5.783728" lon="-75.604510">
    <ele>758</ele>
    <time>2014-06-16T14:00:49Z</time>
    <speed>15.966926</speed>
  </trkpt>
  <trkpt lat="5.783445" lon="-75.604435">
    <ele>755</ele>
    <time>2014-06-16T14:00:51Z</time>
    <speed>16.26335</speed>
  </trkpt>
  <trkpt lat="5.783193" lon="-75.604327">
    <ele>753</ele>
    <time>2014-06-16T14:00:53Z</time>
    <speed>15.752949</speed>
  </trkpt>
  <trkpt lat="5.782908" lon="-75.604203">
    <ele>749</ele>
    <time>2014-06-16T14:00:55Z</time>
    <speed>15.493498</speed>
  </trkpt>
  <trkpt lat="5.782633" lon="-75.604053">
    <ele>746</ele>
    <time>2014-06-16T14:00:57Z</time>
    <speed>14.603473</speed>
  </trkpt>
  <trkpt lat="5.782449" lon="-75.603871">
    <ele>744</ele>
    <time>2014-06-16T14:00:59Z</time>
    <speed>12.380238</speed>
  </trkpt>
  <trkpt lat="5.782296" lon="-75.603721">
    <ele>743</ele>
    <time>2014-06-16T14:01:01Z</time>
    <speed>11.011308</speed>
  </trkpt>
  <trkpt lat="5.782122" lon="-75.603649">
    <ele>742</ele>
    <time>2014-06-16T14:01:03Z</time>
    <speed>11.485899</speed>
  </trkpt>
  <trkpt lat="5.781934" lon="-75.603690">
    <ele>741</ele>
    <time>2014-06-16T14:01:05Z</time>
    <speed>12.205415</speed>
  </trkpt>
  <trkpt lat="5.781759" lon="-75.603783">
    <ele>737</ele>
    <time>2014-06-16T14:01:07Z</time>
    <speed>13.474486</speed>
  </trkpt>
  <trkpt lat="5.781540" lon="-75.603919">
    <ele>737</ele>
    <time>2014-06-16T14:01:09Z</time>
    <speed>14.093788</speed>
  </trkpt>
  <trkpt lat="5.781334" lon="-75.604032">
    <ele>735</ele>
    <time>2014-06-16T14:01:11Z</time>
    <speed>12.692299</speed>
  </trkpt>
  <trkpt lat="5.781087" lon="-75.604084">
    <ele>732</ele>
    <time>2014-06-16T14:01:13Z</time>
    <speed>14.06921</speed>
  </trkpt>
  <trkpt lat="5.780802" lon="-75.604109">
    <ele>730</ele>
    <time>2014-06-16T14:01:15Z</time>
    <speed>15.565542</speed>
  </trkpt>
  <trkpt lat="5.780530" lon="-75.604088">
    <ele>729</ele>
    <time>2014-06-16T14:01:17Z</time>
    <speed>13.787028</speed>
  </trkpt>
  <trkpt lat="5.780282" lon="-75.604052">
    <ele>729</ele>
    <time>2014-06-16T14:01:19Z</time>
    <speed>13.130948</speed>
  </trkpt>
  <trkpt lat="5.780059" lon="-75.604094">
    <ele>729</ele>
    <time>2014-06-16T14:01:21Z</time>
    <speed>12.857534</speed>
  </trkpt>
  <trkpt lat="5.779861" lon="-75.604205">
    <ele>729</ele>
    <time>2014-06-16T14:01:23Z</time>
    <speed>11.509973</speed>
  </trkpt>
  <trkpt lat="5.779698" lon="-75.604319">
    <ele>729</ele>
    <time>2014-06-16T14:01:25Z</time>
    <speed>11.215995</speed>
  </trkpt>
  <trkpt lat="5.779524" lon="-75.604444">
    <ele>732</ele>
    <time>2014-06-16T14:01:27Z</time>
    <speed>11.816172</speed>
  </trkpt>
  <trkpt lat="5.779319" lon="-75.604554">
    <ele>733</ele>
    <time>2014-06-16T14:01:29Z</time>
    <speed>13.087832</speed>
  </trkpt>
  <trkpt lat="5.779080" lon="-75.604650">
    <ele>733</ele>
    <time>2014-06-16T14:01:31Z</time>
    <speed>14.067776</speed>
  </trkpt>
  <trkpt lat="5.778811" lon="-75.604726">
    <ele>735</ele>
    <time>2014-06-16T14:01:33Z</time>
    <speed>14.537312</speed>
  </trkpt>
  <trkpt lat="5.778536" lon="-75.604780">
    <ele>736</ele>
    <time>2014-06-16T14:01:35Z</time>
    <speed>14.410894</speed>
  </trkpt>
  <trkpt lat="5.778288" lon="-75.604821">
    <ele>734</ele>
    <time>2014-06-16T14:01:37Z</time>
    <speed>14.05708</speed>
  </trkpt>
  <trkpt lat="5.778050" lon="-75.604854">
    <ele>735</ele>
    <time>2014-06-16T14:01:39Z</time>
    <speed>13.154052</speed>
  </trkpt>
  <trkpt lat="5.777816" lon="-75.604890">
    <ele>736</ele>
    <time>2014-06-16T14:01:41Z</time>
    <speed>12.99972</speed>
  </trkpt>
  <trkpt lat="5.777560" lon="-75.604929">
    <ele>736</ele>
    <time>2014-06-16T14:01:43Z</time>
    <speed>12.943382</speed>
  </trkpt>
  <trkpt lat="5.777302" lon="-75.604943">
    <ele>736</ele>
    <time>2014-06-16T14:01:45Z</time>
    <speed>13.464445</speed>
  </trkpt>
  <trkpt lat="5.777040" lon="-75.604931">
    <ele>737</ele>
    <time>2014-06-16T14:01:47Z</time>
    <speed>14.1839905</speed>
  </trkpt>
  <trkpt lat="5.776774" lon="-75.604891">
    <ele>739</ele>
    <time>2014-06-16T14:01:49Z</time>
    <speed>13.642387</speed>
  </trkpt>
  <trkpt lat="5.776501" lon="-75.604831">
    <ele>737</ele>
    <time>2014-06-16T14:01:51Z</time>
    <speed>13.094006</speed>
  </trkpt>
  <trkpt lat="5.776237" lon="-75.604767">
    <ele>737</ele>
    <time>2014-06-16T14:01:53Z</time>
    <speed>12.285476</speed>
  </trkpt>
  <trkpt lat="5.776012" lon="-75.604717">
    <ele>738</ele>
    <time>2014-06-16T14:01:55Z</time>
    <speed>11.612146</speed>
  </trkpt>
  <trkpt lat="5.775811" lon="-75.604682">
    <ele>737</ele>
    <time>2014-06-16T14:01:57Z</time>
    <speed>11.617054</speed>
  </trkpt>
  <trkpt lat="5.775611" lon="-75.604667">
    <ele>736</ele>
    <time>2014-06-16T14:01:59Z</time>
    <speed>11.348722</speed>
  </trkpt>
  <trkpt lat="5.775413" lon="-75.604764">
    <ele>737</ele>
    <time>2014-06-16T14:02:01Z</time>
    <speed>12.966032</speed>
  </trkpt>
  <trkpt lat="5.775249" lon="-75.604970">
    <ele>739</ele>
    <time>2014-06-16T14:02:03Z</time>
    <speed>14.710657</speed>
  </trkpt>
  <trkpt lat="5.775094" lon="-75.605166">
    <ele>738</ele>
    <time>2014-06-16T14:02:05Z</time>
    <speed>13.873838</speed>
  </trkpt>
  <trkpt lat="5.774942" lon="-75.605394">
    <ele>738</ele>
    <time>2014-06-16T14:02:07Z</time>
    <speed>12.437424</speed>
  </trkpt>
  <trkpt lat="5.774785" lon="-75.605564">
    <ele>738</ele>
    <time>2014-06-16T14:02:09Z</time>
    <speed>12.233081</speed>
  </trkpt>
  <trkpt lat="5.774571" lon="-75.605663">
    <ele>738</ele>
    <time>2014-06-16T14:02:11Z</time>
    <speed>13.04722</speed>
  </trkpt>
  <trkpt lat="5.774319" lon="-75.605696">
    <ele>738</ele>
    <time>2014-06-16T14:02:13Z</time>
    <speed>14.305749</speed>
  </trkpt>
  <trkpt lat="5.774020" lon="-75.605717">
    <ele>737</ele>
    <time>2014-06-16T14:02:15Z</time>
    <speed>15.532534</speed>
  </trkpt>
  <trkpt lat="5.773728" lon="-75.605706">
    <ele>736</ele>
    <time>2014-06-16T14:02:17Z</time>
    <speed>15.819514</speed>
  </trkpt>
  <trkpt lat="5.773446" lon="-75.605663">
    <ele>733</ele>
    <time>2014-06-16T14:02:19Z</time>
    <speed>15.574525</speed>
  </trkpt>
  <trkpt lat="5.773166" lon="-75.605602">
    <ele>734</ele>
    <time>2014-06-16T14:02:21Z</time>
    <speed>14.740447</speed>
  </trkpt>
  <trkpt lat="5.772904" lon="-75.605536">
    <ele>734</ele>
    <time>2014-06-16T14:02:23Z</time>
    <speed>14.294872</speed>
  </trkpt>
  <trkpt lat="5.772681" lon="-75.605477">
    <ele>733</ele>
    <time>2014-06-16T14:02:25Z</time>
    <speed>11.320273</speed>
  </trkpt>
  <trkpt lat="5.772515" lon="-75.605461">
    <ele>735</ele>
    <time>2014-06-16T14:02:27Z</time>
    <speed>9.333552</speed>
  </trkpt>
  <trkpt lat="5.772374" lon="-75.605491">
    <ele>737</ele>
    <time>2014-06-16T14:02:29Z</time>
    <speed>7.920844</speed>
  </trkpt>
  <trkpt lat="5.772308" lon="-75.605589">
    <ele>736</ele>
    <time>2014-06-16T14:02:31Z</time>
    <speed>5.8832545</speed>
  </trkpt>
  <trkpt lat="5.772243" lon="-75.605709">
    <ele>737</ele>
    <time>2014-06-16T14:02:33Z</time>
    <speed>8.344335</speed>
  </trkpt>
  <trkpt lat="5.772132" lon="-75.605870">
    <ele>741</ele>
    <time>2014-06-16T14:02:35Z</time>
    <speed>9.503117</speed>
  </trkpt>
  <trkpt lat="5.772024" lon="-75.606028">
    <ele>743</ele>
    <time>2014-06-16T14:02:37Z</time>
    <speed>9.517558</speed>
  </trkpt>
  <trkpt lat="5.771897" lon="-75.606193">
    <ele>743</ele>
    <time>2014-06-16T14:02:39Z</time>
    <speed>10.963541</speed>
  </trkpt>
  <trkpt lat="5.771729" lon="-75.606311">
    <ele>744</ele>
    <time>2014-06-16T14:02:41Z</time>
    <speed>11.065904</speed>
  </trkpt>
  <trkpt lat="5.771533" lon="-75.606413">
    <ele>746</ele>
    <time>2014-06-16T14:02:43Z</time>
    <speed>10.087176</speed>
  </trkpt>
  <trkpt lat="5.771345" lon="-75.606466">
    <ele>747</ele>
    <time>2014-06-16T14:02:45Z</time>
    <speed>10.245004</speed>
  </trkpt>
  <trkpt lat="5.771165" lon="-75.606434">
    <ele>748</ele>
    <time>2014-06-16T14:02:47Z</time>
    <speed>10.46657</speed>
  </trkpt>
  <trkpt lat="5.770974" lon="-75.606292">
    <ele>749</ele>
    <time>2014-06-16T14:02:49Z</time>
    <speed>12.130596</speed>
  </trkpt>
  <trkpt lat="5.770808" lon="-75.606093">
    <ele>749</ele>
    <time>2014-06-16T14:02:51Z</time>
    <speed>12.576138</speed>
  </trkpt>
  <trkpt lat="5.770665" lon="-75.605890">
    <ele>748</ele>
    <time>2014-06-16T14:02:53Z</time>
    <speed>13.0130625</speed>
  </trkpt>
  <trkpt lat="5.770465" lon="-75.605741">
    <ele>748</ele>
    <time>2014-06-16T14:02:55Z</time>
    <speed>13.345974</speed>
  </trkpt>
  <trkpt lat="5.770229" lon="-75.605648">
    <ele>750</ele>
    <time>2014-06-16T14:02:57Z</time>
    <speed>14.22777</speed>
  </trkpt>
  <trkpt lat="5.769978" lon="-75.605564">
    <ele>750</ele>
    <time>2014-06-16T14:02:59Z</time>
    <speed>14.03564</speed>
  </trkpt>
  <trkpt lat="5.769725" lon="-75.605488">
    <ele>752</ele>
    <time>2014-06-16T14:03:01Z</time>
    <speed>14.12573</speed>
  </trkpt>
  <trkpt lat="5.769509" lon="-75.605403">
    <ele>751</ele>
    <time>2014-06-16T14:03:03Z</time>
    <speed>12.2176</speed>
  </trkpt>
  <trkpt lat="5.769276" lon="-75.605321">
    <ele>752</ele>
    <time>2014-06-16T14:03:05Z</time>
    <speed>12.811388</speed>
  </trkpt>
  <trkpt lat="5.769018" lon="-75.605253">
    <ele>754</ele>
    <time>2014-06-16T14:03:07Z</time>
    <speed>13.779662</speed>
  </trkpt>
  <trkpt lat="5.768740" lon="-75.605201">
    <ele>754</ele>
    <time>2014-06-16T14:03:09Z</time>
    <speed>14.179991</speed>
  </trkpt>
  <trkpt lat="5.768476" lon="-75.605145">
    <ele>754</ele>
    <time>2014-06-16T14:03:11Z</time>
    <speed>13.730155</speed>
  </trkpt>
  <trkpt lat="5.768231" lon="-75.605065">
    <ele>758</ele>
    <time>2014-06-16T14:03:13Z</time>
    <speed>12.530741</speed>
  </trkpt>
  <trkpt lat="5.768029" lon="-75.604971">
    <ele>757</ele>
    <time>2014-06-16T14:03:15Z</time>
    <speed>11.874743</speed>
  </trkpt>
  <trkpt lat="5.767835" lon="-75.604801">
    <ele>758</ele>
    <time>2014-06-16T14:03:17Z</time>
    <speed>13.280773</speed>
  </trkpt>
  <trkpt lat="5.767663" lon="-75.604632">
    <ele>757</ele>
    <time>2014-06-16T14:03:19Z</time>
    <speed>12.295837</speed>
  </trkpt>
  <trkpt lat="5.767523" lon="-75.604489">
    <ele>756</ele>
    <time>2014-06-16T14:03:21Z</time>
    <speed>10.45564</speed>
  </trkpt>
  <trkpt lat="5.767388" lon="-75.604341">
    <ele>757</ele>
    <time>2014-06-16T14:03:23Z</time>
    <speed>10.1838045</speed>
  </trkpt>
  <trkpt lat="5.767260" lon="-75.604202">
    <ele>755</ele>
    <time>2014-06-16T14:03:25Z</time>
    <speed>10.565435</speed>
  </trkpt>
  <trkpt lat="5.767114" lon="-75.604059">
    <ele>757</ele>
    <time>2014-06-16T14:03:27Z</time>
    <speed>10.309388</speed>
  </trkpt>
  <trkpt lat="5.766921" lon="-75.603955">
    <ele>757</ele>
    <time>2014-06-16T14:03:29Z</time>
    <speed>11.03781</speed>
  </trkpt>
  <trkpt lat="5.766702" lon="-75.603936">
    <ele>758</ele>
    <time>2014-06-16T14:03:31Z</time>
    <speed>11.426918</speed>
  </trkpt>
  <trkpt lat="5.766476" lon="-75.603912">
    <ele>760</ele>
    <time>2014-06-16T14:03:33Z</time>
    <speed>11.70399</speed>
  </trkpt>
  <trkpt lat="5.766277" lon="-75.603855">
    <ele>760</ele>
    <time>2014-06-16T14:03:35Z</time>
    <speed>11.470721</speed>
  </trkpt>
  <trkpt lat="5.766077" lon="-75.603770">
    <ele>760</ele>
    <time>2014-06-16T14:03:37Z</time>
    <speed>12.050726</speed>
  </trkpt>
  <trkpt lat="5.765829" lon="-75.603668">
    <ele>762</ele>
    <time>2014-06-16T14:03:39Z</time>
    <speed>13.972128</speed>
  </trkpt>
  <trkpt lat="5.765586" lon="-75.603604">
    <ele>761</ele>
    <time>2014-06-16T14:03:41Z</time>
    <speed>13.040163</speed>
  </trkpt>
  <trkpt lat="5.765337" lon="-75.603585">
    <ele>759</ele>
    <time>2014-06-16T14:03:43Z</time>
    <speed>11.582829</speed>
  </trkpt>
  <trkpt lat="5.765103" lon="-75.603579">
    <ele>757</ele>
    <time>2014-06-16T14:03:45Z</time>
    <speed>11.3241</speed>
  </trkpt>
  <trkpt lat="5.764890" lon="-75.603620">
    <ele>758</ele>
    <time>2014-06-16T14:03:47Z</time>
    <speed>11.263471</speed>
  </trkpt>
  <trkpt lat="5.764690" lon="-75.603701">
    <ele>759</ele>
    <time>2014-06-16T14:03:49Z</time>
    <speed>11.429109</speed>
  </trkpt>
  <trkpt lat="5.764464" lon="-75.603822">
    <ele>759</ele>
    <time>2014-06-16T14:03:51Z</time>
    <speed>12.576588</speed>
  </trkpt>
  <trkpt lat="5.764286" lon="-75.603979">
    <ele>758</ele>
    <time>2014-06-16T14:03:53Z</time>
    <speed>14.504091</speed>
  </trkpt>
  <trkpt lat="5.764090" lon="-75.604188">
    <ele>758</ele>
    <time>2014-06-16T14:03:55Z</time>
    <speed>15.092859</speed>
  </trkpt>
  <trkpt lat="5.763847" lon="-75.604368">
    <ele>760</ele>
    <time>2014-06-16T14:03:57Z</time>
    <speed>14.490832</speed>
  </trkpt>
  <trkpt lat="5.763587" lon="-75.604443">
    <ele>759</ele>
    <time>2014-06-16T14:03:59Z</time>
    <speed>13.610587</speed>
  </trkpt>
  <trkpt lat="5.763325" lon="-75.604458">
    <ele>758</ele>
    <time>2014-06-16T14:04:01Z</time>
    <speed>14.822702</speed>
  </trkpt>
  <trkpt lat="5.763031" lon="-75.604466">
    <ele>756</ele>
    <time>2014-06-16T14:04:03Z</time>
    <speed>16.009232</speed>
  </trkpt>
  <trkpt lat="5.762737" lon="-75.604449">
    <ele>755</ele>
    <time>2014-06-16T14:04:05Z</time>
    <speed>15.834985</speed>
  </trkpt>
  <trkpt lat="5.762456" lon="-75.604425">
    <ele>754</ele>
    <time>2014-06-16T14:04:07Z</time>
    <speed>14.816832</speed>
  </trkpt>
  <trkpt lat="5.762197" lon="-75.604403">
    <ele>751</ele>
    <time>2014-06-16T14:04:09Z</time>
    <speed>13.735956</speed>
  </trkpt>
  <trkpt lat="5.761968" lon="-75.604424">
    <ele>749</ele>
    <time>2014-06-16T14:04:11Z</time>
    <speed>12.002131</speed>
  </trkpt>
  <trkpt lat="5.761790" lon="-75.604474">
    <ele>747</ele>
    <time>2014-06-16T14:04:13Z</time>
    <speed>10.129284</speed>
  </trkpt>
  <trkpt lat="5.761613" lon="-75.604532">
    <ele>746</ele>
    <time>2014-06-16T14:04:15Z</time>
    <speed>10.218138</speed>
  </trkpt>
  <trkpt lat="5.761442" lon="-75.604597">
    <ele>745</ele>
    <time>2014-06-16T14:04:17Z</time>
    <speed>10.395767</speed>
  </trkpt>
  <trkpt lat="5.761254" lon="-75.604671">
    <ele>744</ele>
    <time>2014-06-16T14:04:19Z</time>
    <speed>11.35422</speed>
  </trkpt>
  <trkpt lat="5.761043" lon="-75.604749">
    <ele>744</ele>
    <time>2014-06-16T14:04:21Z</time>
    <speed>11.570611</speed>
  </trkpt>
  <trkpt lat="5.760823" lon="-75.604822">
    <ele>743</ele>
    <time>2014-06-16T14:04:23Z</time>
    <speed>11.574242</speed>
  </trkpt>
  <trkpt lat="5.760612" lon="-75.604988">
    <ele>742</ele>
    <time>2014-06-16T14:04:25Z</time>
    <speed>14.017736</speed>
  </trkpt>
  <trkpt lat="5.760451" lon="-75.605200">
    <ele>741</ele>
    <time>2014-06-16T14:04:27Z</time>
    <speed>13.714407</speed>
  </trkpt>
  <trkpt lat="5.760341" lon="-75.605440">
    <ele>741</ele>
    <time>2014-06-16T14:04:29Z</time>
    <speed>12.024867</speed>
  </trkpt>
  <trkpt lat="5.760267" lon="-75.605722">
    <ele>739</ele>
    <time>2014-06-16T14:04:31Z</time>
    <speed>13.32084</speed>
  </trkpt>
  <trkpt lat="5.760221" lon="-75.605997">
    <ele>737</ele>
    <time>2014-06-16T14:04:33Z</time>
    <speed>13.379423</speed>
  </trkpt>
  <trkpt lat="5.760187" lon="-75.606261">
    <ele>736</ele>
    <time>2014-06-16T14:04:35Z</time>
    <speed>14.035847</speed>
  </trkpt>
  <trkpt lat="5.760150" lon="-75.606517">
    <ele>736</ele>
    <time>2014-06-16T14:04:37Z</time>
    <speed>14.87055</speed>
  </trkpt>
  <trkpt lat="5.760113" lon="-75.606781">
    <ele>733</ele>
    <time>2014-06-16T14:04:39Z</time>
    <speed>14.334186</speed>
  </trkpt>
  <trkpt lat="5.760035" lon="-75.606997">
    <ele>732</ele>
    <time>2014-06-16T14:04:41Z</time>
    <speed>12.084124</speed>
  </trkpt>
  <trkpt lat="5.759879" lon="-75.607164">
    <ele>731</ele>
    <time>2014-06-16T14:04:43Z</time>
    <speed>12.227478</speed>
  </trkpt>
  <trkpt lat="5.759694" lon="-75.607326">
    <ele>730</ele>
    <time>2014-06-16T14:04:45Z</time>
    <speed>13.367049</speed>
  </trkpt>
  <trkpt lat="5.759522" lon="-75.607517">
    <ele>728</ele>
    <time>2014-06-16T14:04:47Z</time>
    <speed>13.28039</speed>
  </trkpt>
  <trkpt lat="5.759408" lon="-75.607708">
    <ele>726</ele>
    <time>2014-06-16T14:04:49Z</time>
    <speed>11.442636</speed>
  </trkpt>
  <trkpt lat="5.759320" lon="-75.607878">
    <ele>725</ele>
    <time>2014-06-16T14:04:51Z</time>
    <speed>10.355779</speed>
  </trkpt>
  <trkpt lat="5.759214" lon="-75.608039">
    <ele>723</ele>
    <time>2014-06-16T14:04:53Z</time>
    <speed>10.399516</speed>
  </trkpt>
  <trkpt lat="5.759063" lon="-75.608158">
    <ele>722</ele>
    <time>2014-06-16T14:04:55Z</time>
    <speed>10.927997</speed>
  </trkpt>
  <trkpt lat="5.758895" lon="-75.608274">
    <ele>722</ele>
    <time>2014-06-16T14:04:57Z</time>
    <speed>11.827556</speed>
  </trkpt>
  <trkpt lat="5.758707" lon="-75.608399">
    <ele>720</ele>
    <time>2014-06-16T14:04:59Z</time>
    <speed>12.822399</speed>
  </trkpt>
  <trkpt lat="5.758501" lon="-75.608530">
    <ele>719</ele>
    <time>2014-06-16T14:05:01Z</time>
    <speed>13.509436</speed>
  </trkpt>
  <trkpt lat="5.758299" lon="-75.608685">
    <ele>716</ele>
    <time>2014-06-16T14:05:03Z</time>
    <speed>13.856251</speed>
  </trkpt>
  <trkpt lat="5.758140" lon="-75.608880">
    <ele>716</ele>
    <time>2014-06-16T14:05:05Z</time>
    <speed>13.374823</speed>
  </trkpt>
  <trkpt lat="5.758033" lon="-75.609090">
    <ele>715</ele>
    <time>2014-06-16T14:05:07Z</time>
    <speed>12.8563385</speed>
  </trkpt>
  <trkpt lat="5.757961" lon="-75.609279">
    <ele>714</ele>
    <time>2014-06-16T14:05:09Z</time>
    <speed>10.284694</speed>
  </trkpt>
  <trkpt lat="5.757917" lon="-75.609418">
    <ele>713</ele>
    <time>2014-06-16T14:05:11Z</time>
    <speed>8.33995</speed>
  </trkpt>
  <trkpt lat="5.757886" lon="-75.609540">
    <ele>714</ele>
    <time>2014-06-16T14:05:13Z</time>
    <speed>7.8259654</speed>
  </trkpt>
  <trkpt lat="5.757839" lon="-75.609714">
    <ele>713</ele>
    <time>2014-06-16T14:05:15Z</time>
    <speed>9.748222</speed>
  </trkpt>
  <trkpt lat="5.757780" lon="-75.609916">
    <ele>713</ele>
    <time>2014-06-16T14:05:17Z</time>
    <speed>10.429931</speed>
  </trkpt>
  <trkpt lat="5.757677" lon="-75.610094">
    <ele>710</ele>
    <time>2014-06-16T14:05:19Z</time>
    <speed>11.477645</speed>
  </trkpt>
  <trkpt lat="5.757492" lon="-75.610231">
    <ele>709</ele>
    <time>2014-06-16T14:05:21Z</time>
    <speed>12.475074</speed>
  </trkpt>
  <trkpt lat="5.757222" lon="-75.610246">
    <ele>707</ele>
    <time>2014-06-16T14:05:23Z</time>
    <speed>14.026534</speed>
  </trkpt>
  <trkpt lat="5.756917" lon="-75.610245">
    <ele>705</ele>
    <time>2014-06-16T14:05:25Z</time>
    <speed>15.792656</speed>
  </trkpt>
  <trkpt lat="5.756654" lon="-75.610261">
    <ele>702</ele>
    <time>2014-06-16T14:05:27Z</time>
    <speed>14.474214</speed>
  </trkpt>
  <trkpt lat="5.756455" lon="-75.610330">
    <ele>700</ele>
    <time>2014-06-16T14:05:29Z</time>
    <speed>11.808627</speed>
  </trkpt>
  <trkpt lat="5.756349" lon="-75.610526">
    <ele>699</ele>
    <time>2014-06-16T14:05:31Z</time>
    <speed>13.502533</speed>
  </trkpt>
  <trkpt lat="5.756264" lon="-75.610761">
    <ele>697</ele>
    <time>2014-06-16T14:05:33Z</time>
    <speed>14.060222</speed>
  </trkpt>
  <trkpt lat="5.756202" lon="-75.610999">
    <ele>695</ele>
    <time>2014-06-16T14:05:35Z</time>
    <speed>13.291071</speed>
  </trkpt>
  <trkpt lat="5.756130" lon="-75.611196">
    <ele>693</ele>
    <time>2014-06-16T14:05:37Z</time>
    <speed>11.217353</speed>
  </trkpt>
  <trkpt lat="5.756041" lon="-75.611346">
    <ele>689</ele>
    <time>2014-06-16T14:05:39Z</time>
    <speed>9.226629</speed>
  </trkpt>
  <trkpt lat="5.755859" lon="-75.611419">
    <ele>690</ele>
    <time>2014-06-16T14:05:41Z</time>
    <speed>10.461269</speed>
  </trkpt>
  <trkpt lat="5.755583" lon="-75.611322">
    <ele>688</ele>
    <time>2014-06-16T14:05:43Z</time>
    <speed>13.167051</speed>
  </trkpt>
  <trkpt lat="5.755298" lon="-75.611152">
    <ele>687</ele>
    <time>2014-06-16T14:05:45Z</time>
    <speed>15.142738</speed>
  </trkpt>
  <trkpt lat="5.755029" lon="-75.610993">
    <ele>686</ele>
    <time>2014-06-16T14:05:47Z</time>
    <speed>15.313599</speed>
  </trkpt>
  <trkpt lat="5.754773" lon="-75.610839">
    <ele>684</ele>
    <time>2014-06-16T14:05:49Z</time>
    <speed>14.220831</speed>
  </trkpt>
  <trkpt lat="5.754549" lon="-75.610710">
    <ele>681</ele>
    <time>2014-06-16T14:05:51Z</time>
    <speed>12.569239</speed>
  </trkpt>
  <trkpt lat="5.754381" lon="-75.610606">
    <ele>678</ele>
    <time>2014-06-16T14:05:53Z</time>
    <speed>9.790633</speed>
  </trkpt>
  <trkpt lat="5.754253" lon="-75.610510">
    <ele>677</ele>
    <time>2014-06-16T14:05:55Z</time>
    <speed>8.580355</speed>
  </trkpt>
  <trkpt lat="5.754175" lon="-75.610335">
    <ele>674</ele>
    <time>2014-06-16T14:05:57Z</time>
    <speed>10.209596</speed>
  </trkpt>
  <trkpt lat="5.754186" lon="-75.610113">
    <ele>674</ele>
    <time>2014-06-16T14:05:59Z</time>
    <speed>12.0791645</speed>
  </trkpt>
  <trkpt lat="5.754221" lon="-75.609838">
    <ele>673</ele>
    <time>2014-06-16T14:06:01Z</time>
    <speed>14.793877</speed>
  </trkpt>
  <trkpt lat="5.754279" lon="-75.609556">
    <ele>671</ele>
    <time>2014-06-16T14:06:03Z</time>
    <speed>15.359585</speed>
  </trkpt>
  <trkpt lat="5.754338" lon="-75.609267">
    <ele>669</ele>
    <time>2014-06-16T14:06:05Z</time>
    <speed>15.2329645</speed>
  </trkpt>
  <trkpt lat="5.754375" lon="-75.608998">
    <ele>667</ele>
    <time>2014-06-16T14:06:07Z</time>
    <speed>14.474683</speed>
  </trkpt>
  <trkpt lat="5.754355" lon="-75.608755">
    <ele>663</ele>
    <time>2014-06-16T14:06:09Z</time>
    <speed>13.003767</speed>
  </trkpt>
  <trkpt lat="5.754302" lon="-75.608525">
    <ele>662</ele>
    <time>2014-06-16T14:06:11Z</time>
    <speed>12.478287</speed>
  </trkpt>
  <trkpt lat="5.754252" lon="-75.608321">
    <ele>660</ele>
    <time>2014-06-16T14:06:13Z</time>
    <speed>10.68321</speed>
  </trkpt>
  <trkpt lat="5.754157" lon="-75.608190">
    <ele>659</ele>
    <time>2014-06-16T14:06:15Z</time>
    <speed>8.779841</speed>
  </trkpt>
  <trkpt lat="5.753992" lon="-75.608146">
    <ele>658</ele>
    <time>2014-06-16T14:06:17Z</time>
    <speed>9.986303</speed>
  </trkpt>
  <trkpt lat="5.753814" lon="-75.608203">
    <ele>658</ele>
    <time>2014-06-16T14:06:19Z</time>
    <speed>11.063844</speed>
  </trkpt>
  <trkpt lat="5.753667" lon="-75.608288">
    <ele>655</ele>
    <time>2014-06-16T14:06:21Z</time>
    <speed>9.170678</speed>
  </trkpt>
  <trkpt lat="5.753484" lon="-75.608433">
    <ele>653</ele>
    <time>2014-06-16T14:06:23Z</time>
    <speed>11.413596</speed>
  </trkpt>
  <trkpt lat="5.753318" lon="-75.608590">
    <ele>651</ele>
    <time>2014-06-16T14:06:25Z</time>
    <speed>13.091211</speed>
  </trkpt>
  <trkpt lat="5.753145" lon="-75.608751">
    <ele>648</ele>
    <time>2014-06-16T14:06:27Z</time>
    <speed>11.514855</speed>
  </trkpt>
  <trkpt lat="5.752985" lon="-75.608875">
    <ele>648</ele>
    <time>2014-06-16T14:06:29Z</time>
    <speed>10.567062</speed>
  </trkpt>
  <trkpt lat="5.752801" lon="-75.608978">
    <ele>647</ele>
    <time>2014-06-16T14:06:31Z</time>
    <speed>11.374384</speed>
  </trkpt>
  <trkpt lat="5.752531" lon="-75.609020">
    <ele>646</ele>
    <time>2014-06-16T14:06:33Z</time>
    <speed>13.043645</speed>
  </trkpt>
  <trkpt lat="5.752244" lon="-75.609050">
    <ele>645</ele>
    <time>2014-06-16T14:06:35Z</time>
    <speed>14.271507</speed>
  </trkpt>
  <trkpt lat="5.751943" lon="-75.609040">
    <ele>644</ele>
    <time>2014-06-16T14:06:37Z</time>
    <speed>14.208387</speed>
  </trkpt>
  <trkpt lat="5.751661" lon="-75.609010">
    <ele>640</ele>
    <time>2014-06-16T14:06:39Z</time>
    <speed>14.494454</speed>
  </trkpt>
  <trkpt lat="5.751428" lon="-75.608979">
    <ele>638</ele>
    <time>2014-06-16T14:06:41Z</time>
    <speed>10.343573</speed>
  </trkpt>
  <trkpt lat="5.751206" lon="-75.608942">
    <ele>636</ele>
    <time>2014-06-16T14:06:43Z</time>
    <speed>9.549684</speed>
  </trkpt>
  <trkpt lat="5.751016" lon="-75.608858">
    <ele>635</ele>
    <time>2014-06-16T14:06:45Z</time>
    <speed>10.2116785</speed>
  </trkpt>
  <trkpt lat="5.750846" lon="-75.608675">
    <ele>634</ele>
    <time>2014-06-16T14:06:47Z</time>
    <speed>11.29145</speed>
  </trkpt>
  <trkpt lat="5.750764" lon="-75.608425">
    <ele>634</ele>
    <time>2014-06-16T14:06:49Z</time>
    <speed>12.397646</speed>
  </trkpt>
  <trkpt lat="5.750700" lon="-75.608157">
    <ele>633</ele>
    <time>2014-06-16T14:06:51Z</time>
    <speed>13.629992</speed>
  </trkpt>
  <trkpt lat="5.750642" lon="-75.607884">
    <ele>630</ele>
    <time>2014-06-16T14:06:53Z</time>
    <speed>13.857838</speed>
  </trkpt>
  <trkpt lat="5.750590" lon="-75.607619">
    <ele>627</ele>
    <time>2014-06-16T14:06:55Z</time>
    <speed>13.333979</speed>
  </trkpt>
  <trkpt lat="5.750563" lon="-75.607395">
    <ele>623</ele>
    <time>2014-06-16T14:06:57Z</time>
    <speed>11.138309</speed>
  </trkpt>
  <trkpt lat="5.750542" lon="-75.607215">
    <ele>622</ele>
    <time>2014-06-16T14:06:59Z</time>
    <speed>11.220794</speed>
  </trkpt>
  <trkpt lat="5.750426" lon="-75.607086">
    <ele>621</ele>
    <time>2014-06-16T14:07:01Z</time>
    <speed>10.931398</speed>
  </trkpt>
  <trkpt lat="5.750248" lon="-75.607025">
    <ele>619</ele>
    <time>2014-06-16T14:07:03Z</time>
    <speed>11.161808</speed>
  </trkpt>
  <trkpt lat="5.750089" lon="-75.606986">
    <ele>616</ele>
    <time>2014-06-16T14:07:05Z</time>
    <speed>9.628636</speed>
  </trkpt>
  <trkpt lat="5.749937" lon="-75.606954">
    <ele>615</ele>
    <time>2014-06-16T14:07:07Z</time>
    <speed>8.701478</speed>
  </trkpt>
  <trkpt lat="5.749778" lon="-75.606927">
    <ele>614</ele>
    <time>2014-06-16T14:07:09Z</time>
    <speed>8.596999</speed>
  </trkpt>
  <trkpt lat="5.749611" lon="-75.606903">
    <ele>613</ele>
    <time>2014-06-16T14:07:11Z</time>
    <speed>9.03777</speed>
  </trkpt>
  <trkpt lat="5.749415" lon="-75.606879">
    <ele>613</ele>
    <time>2014-06-16T14:07:13Z</time>
    <speed>10.702808</speed>
  </trkpt>
  <trkpt lat="5.749198" lon="-75.606846">
    <ele>612</ele>
    <time>2014-06-16T14:07:15Z</time>
    <speed>11.702049</speed>
  </trkpt>
  <trkpt lat="5.748988" lon="-75.606807">
    <ele>610</ele>
    <time>2014-06-16T14:07:17Z</time>
    <speed>11.5971155</speed>
  </trkpt>
  <trkpt lat="5.748788" lon="-75.606757">
    <ele>608</ele>
    <time>2014-06-16T14:07:19Z</time>
    <speed>10.662057</speed>
  </trkpt>
  <trkpt lat="5.748583" lon="-75.606693">
    <ele>606</ele>
    <time>2014-06-16T14:07:21Z</time>
    <speed>11.131074</speed>
  </trkpt>
  <trkpt lat="5.748407" lon="-75.606598">
    <ele>605</ele>
    <time>2014-06-16T14:07:23Z</time>
    <speed>9.629038</speed>
  </trkpt>
  <trkpt lat="5.748267" lon="-75.606488">
    <ele>603</ele>
    <time>2014-06-16T14:07:25Z</time>
    <speed>9.405634</speed>
  </trkpt>
  <trkpt lat="5.748138" lon="-75.606371">
    <ele>602</ele>
    <time>2014-06-16T14:07:27Z</time>
    <speed>10.26817</speed>
  </trkpt>
  <trkpt lat="5.748016" lon="-75.606225">
    <ele>601</ele>
    <time>2014-06-16T14:07:29Z</time>
    <speed>10.952557</speed>
  </trkpt>
  <trkpt lat="5.747913" lon="-75.606096">
    <ele>598</ele>
    <time>2014-06-16T14:07:31Z</time>
    <speed>7.9025135</speed>
  </trkpt>
  <trkpt lat="5.747819" lon="-75.606005">
    <ele>598</ele>
    <time>2014-06-16T14:07:33Z</time>
    <speed>7.4996758</speed>
  </trkpt>
  <trkpt lat="5.747712" lon="-75.605922">
    <ele>596</ele>
    <time>2014-06-16T14:07:35Z</time>
    <speed>7.294256</speed>
  </trkpt>
  <trkpt lat="5.747582" lon="-75.605844">
    <ele>596</ele>
    <time>2014-06-16T14:07:37Z</time>
    <speed>6.8367867</speed>
  </trkpt>
  <trkpt lat="5.747440" lon="-75.605839">
    <ele>597</ele>
    <time>2014-06-16T14:07:39Z</time>
    <speed>7.5231</speed>
  </trkpt>
  <trkpt lat="5.747294" lon="-75.605843">
    <ele>596</ele>
    <time>2014-06-16T14:07:41Z</time>
    <speed>6.7901926</speed>
  </trkpt>
  <trkpt lat="5.747193" lon="-75.605855">
    <ele>595</ele>
    <time>2014-06-16T14:07:43Z</time>
    <speed>4.5457764</speed>
  </trkpt>
  <trkpt lat="5.747117" lon="-75.605877">
    <ele>596</ele>
    <time>2014-06-16T14:07:45Z</time>
    <speed>3.8364158</speed>
  </trkpt>
  <trkpt lat="5.747049" lon="-75.605900">
    <ele>595</ele>
    <time>2014-06-16T14:07:47Z</time>
    <speed>3.9360251</speed>
  </trkpt>
  <trkpt lat="5.746976" lon="-75.605929">
    <ele>596</ele>
    <time>2014-06-16T14:07:49Z</time>
    <speed>3.9167817</speed>
  </trkpt>
  <trkpt lat="5.746875" lon="-75.605965">
    <ele>596</ele>
    <time>2014-06-16T14:07:51Z</time>
    <speed>6.055865</speed>
  </trkpt>
  <trkpt lat="5.746736" lon="-75.606005">
    <ele>597</ele>
    <time>2014-06-16T14:07:53Z</time>
    <speed>7.7227063</speed>
  </trkpt>
  <trkpt lat="5.746574" lon="-75.606046">
    <ele>596</ele>
    <time>2014-06-16T14:07:55Z</time>
    <speed>8.321499</speed>
  </trkpt>
  <trkpt lat="5.746413" lon="-75.606086">
    <ele>597</ele>
    <time>2014-06-16T14:07:57Z</time>
    <speed>9.052904</speed>
  </trkpt>
  <trkpt lat="5.746230" lon="-75.606130">
    <ele>597</ele>
    <time>2014-06-16T14:07:59Z</time>
    <speed>9.453302</speed>
  </trkpt>
  <trkpt lat="5.746058" lon="-75.606180">
    <ele>596</ele>
    <time>2014-06-16T14:08:01Z</time>
    <speed>10.268338</speed>
  </trkpt>
  <trkpt lat="5.745875" lon="-75.606239">
    <ele>595</ele>
    <time>2014-06-16T14:08:03Z</time>
    <speed>10.806716</speed>
  </trkpt>
  <trkpt lat="5.745692" lon="-75.606298">
    <ele>597</ele>
    <time>2014-06-16T14:08:05Z</time>
    <speed>10.905722</speed>
  </trkpt>
  <trkpt lat="5.745483" lon="-75.606367">
    <ele>596</ele>
    <time>2014-06-16T14:08:07Z</time>
    <speed>11.54412</speed>
  </trkpt>
  <trkpt lat="5.745270" lon="-75.606433">
    <ele>597</ele>
    <time>2014-06-16T14:08:09Z</time>
    <speed>11.620048</speed>
  </trkpt>
  <trkpt lat="5.745056" lon="-75.606499">
    <ele>595</ele>
    <time>2014-06-16T14:08:11Z</time>
    <speed>11.998313</speed>
  </trkpt>
  <trkpt lat="5.744843" lon="-75.606570">
    <ele>596</ele>
    <time>2014-06-16T14:08:13Z</time>
    <speed>11.853111</speed>
  </trkpt>
  <trkpt lat="5.744664" lon="-75.606627">
    <ele>595</ele>
    <time>2014-06-16T14:08:15Z</time>
    <speed>9.324156</speed>
  </trkpt>
  <trkpt lat="5.744503" lon="-75.606680">
    <ele>594</ele>
    <time>2014-06-16T14:08:17Z</time>
    <speed>9.149317</speed>
  </trkpt>
  <trkpt lat="5.744354" lon="-75.606725">
    <ele>596</ele>
    <time>2014-06-16T14:08:19Z</time>
    <speed>8.784861</speed>
  </trkpt>
  <trkpt lat="5.744177" lon="-75.606775">
    <ele>594</ele>
    <time>2014-06-16T14:08:21Z</time>
    <speed>9.504671</speed>
  </trkpt>
  <trkpt lat="5.743978" lon="-75.606825">
    <ele>594</ele>
    <time>2014-06-16T14:08:23Z</time>
    <speed>10.427518</speed>
  </trkpt>
  <trkpt lat="5.743754" lon="-75.606881">
    <ele>594</ele>
    <time>2014-06-16T14:08:25Z</time>
    <speed>11.221404</speed>
  </trkpt>
  <trkpt lat="5.743531" lon="-75.606943">
    <ele>595</ele>
    <time>2014-06-16T14:08:27Z</time>
    <speed>11.361343</speed>
  </trkpt>
  <trkpt lat="5.743305" lon="-75.607015">
    <ele>594</ele>
    <time>2014-06-16T14:08:29Z</time>
    <speed>11.684665</speed>
  </trkpt>
  <trkpt lat="5.743136" lon="-75.607063">
    <ele>592</ele>
    <time>2014-06-16T14:08:31Z</time>
    <speed>6.8745494</speed>
  </trkpt>
  <trkpt lat="5.743031" lon="-75.607094">
    <ele>591</ele>
    <time>2014-06-16T14:08:33Z</time>
    <speed>4.690942</speed>
  </trkpt>
  <trkpt lat="5.742962" lon="-75.607111">
    <ele>592</ele>
    <time>2014-06-16T14:08:35Z</time>
    <speed>4.5502996</speed>
  </trkpt>
  <trkpt lat="5.742870" lon="-75.607138">
    <ele>593</ele>
    <time>2014-06-16T14:08:37Z</time>
    <speed>5.7244744</speed>
  </trkpt>
  <trkpt lat="5.742771" lon="-75.607167">
    <ele>593</ele>
    <time>2014-06-16T14:08:39Z</time>
    <speed>7.767235</speed>
  </trkpt>
  <trkpt lat="5.742613" lon="-75.607194">
    <ele>594</ele>
    <time>2014-06-16T14:08:41Z</time>
    <speed>8.162873</speed>
  </trkpt>
  <trkpt lat="5.742441" lon="-75.607218">
    <ele>593</ele>
    <time>2014-06-16T14:08:43Z</time>
    <speed>9.09514</speed>
  </trkpt>
  <trkpt lat="5.742245" lon="-75.607228">
    <ele>594</ele>
    <time>2014-06-16T14:08:45Z</time>
    <speed>8.937404</speed>
  </trkpt>
  <trkpt lat="5.742072" lon="-75.607227">
    <ele>594</ele>
    <time>2014-06-16T14:08:47Z</time>
    <speed>7.8455143</speed>
  </trkpt>
  <trkpt lat="5.741941" lon="-75.607188">
    <ele>594</ele>
    <time>2014-06-16T14:08:49Z</time>
    <speed>6.545209</speed>
  </trkpt>
  <trkpt lat="5.741819" lon="-75.607156">
    <ele>593</ele>
    <time>2014-06-16T14:08:51Z</time>
    <speed>5.1491256</speed>
  </trkpt>
  <trkpt lat="5.741723" lon="-75.607142">
    <ele>593</ele>
    <time>2014-06-16T14:08:53Z</time>
    <speed>3.6153007</speed>
  </trkpt>
  <trkpt lat="5.741647" lon="-75.607121">
    <ele>593</ele>
    <time>2014-06-16T14:08:55Z</time>
    <speed>4.2652903</speed>
  </trkpt>
  <trkpt lat="5.741567" lon="-75.607089">
    <ele>595</ele>
    <time>2014-06-16T14:08:57Z</time>
    <speed>4.9222164</speed>
  </trkpt>
  <trkpt lat="5.741458" lon="-75.607046">
    <ele>595</ele>
    <time>2014-06-16T14:08:59Z</time>
    <speed>5.0892143</speed>
  </trkpt>
  <trkpt lat="5.741353" lon="-75.606998">
    <ele>593</ele>
    <time>2014-06-16T14:09:01Z</time>
    <speed>4.857247</speed>
  </trkpt>
  <trkpt lat="5.741258" lon="-75.606955">
    <ele>594</ele>
    <time>2014-06-16T14:09:03Z</time>
    <speed>2.9353013</speed>
  </trkpt>
  <trkpt lat="5.741218" lon="-75.606932">
    <ele>595</ele>
    <time>2014-06-16T14:09:05Z</time>
    <speed>2.6513803</speed>
  </trkpt>
  <trkpt lat="5.741173" lon="-75.606898">
    <ele>594</ele>
    <time>2014-06-16T14:09:07Z</time>
    <speed>3.6684375</speed>
  </trkpt>
  <trkpt lat="5.741114" lon="-75.606856">
    <ele>595</ele>
    <time>2014-06-16T14:09:09Z</time>
    <speed>3.9855552</speed>
  </trkpt>
  <trkpt lat="5.741036" lon="-75.606799">
    <ele>595</ele>
    <time>2014-06-16T14:09:11Z</time>
    <speed>4.5867915</speed>
  </trkpt>
  <trkpt lat="5.740959" lon="-75.606740">
    <ele>595</ele>
    <time>2014-06-16T14:09:13Z</time>
    <speed>3.9656107</speed>
  </trkpt>
  <trkpt lat="5.740921" lon="-75.606701">
    <ele>595</ele>
    <time>2014-06-16T14:09:15Z</time>
    <speed>1.7171543</speed>
  </trkpt>
  <trkpt lat="5.740869" lon="-75.606650">
    <ele>596</ele>
    <time>2014-06-16T14:09:17Z</time>
    <speed>2.2984297</speed>
  </trkpt>
  <trkpt lat="5.740827" lon="-75.606612">
    <ele>595</ele>
    <time>2014-06-16T14:09:19Z</time>
    <speed>1.9146495</speed>
  </trkpt>
  <trkpt lat="5.740788" lon="-75.606579">
    <ele>594</ele>
    <time>2014-06-16T14:09:22Z</time>
    <speed>1.7020553</speed>
  </trkpt>
  <trkpt lat="5.740746" lon="-75.606552">
    <ele>596</ele>
    <time>2014-06-16T14:09:26Z</time>
    <speed>1.0541455</speed>
  </trkpt>
  <trkpt lat="5.740705" lon="-75.606525">
    <ele>596</ele>
    <time>2014-06-16T14:09:31Z</time>
    <speed>2.1890604</speed>
  </trkpt>
  <trkpt lat="5.740665" lon="-75.606492">
    <ele>595</ele>
    <time>2014-06-16T14:09:33Z</time>
    <speed>1.5552497</speed>
  </trkpt>
  <trkpt lat="5.740626" lon="-75.606464">
    <ele>595</ele>
    <time>2014-06-16T14:09:51Z</time>
    <speed>0.0</speed>
  </trkpt>
  <trkpt lat="5.740596" lon="-75.606429">
    <ele>596</ele>
    <time>2014-06-16T14:09:53Z</time>
    <speed>2.5449786</speed>
  </trkpt>
  <trkpt lat="5.740538" lon="-75.606369">
    <ele>596</ele>
    <time>2014-06-16T14:09:55Z</time>
    <speed>4.7729335</speed>
  </trkpt>
  <trkpt lat="5.740487" lon="-75.606320">
    <ele>595</ele>
    <time>2014-06-16T14:09:57Z</time>
    <speed>3.2102509</speed>
  </trkpt>
  <trkpt lat="5.740434" lon="-75.606274">
    <ele>595</ele>
    <time>2014-06-16T14:09:59Z</time>
    <speed>3.228598</speed>
  </trkpt>
  <trkpt lat="5.740381" lon="-75.606235">
    <ele>595</ele>
    <time>2014-06-16T14:10:01Z</time>
    <speed>3.2503018</speed>
  </trkpt>
  <trkpt lat="5.740339" lon="-75.606214">
    <ele>596</ele>
    <time>2014-06-16T14:10:03Z</time>
    <speed>1.5456686</speed>
  </trkpt>
  <trkpt lat="5.740304" lon="-75.606166">
    <ele>596</ele>
    <time>2014-06-16T14:10:07Z</time>
    <speed>2.9741492</speed>
  </trkpt>
  <trkpt lat="5.740260" lon="-75.606130">
    <ele>596</ele>
    <time>2014-06-16T14:10:09Z</time>
    <speed>3.4544623</speed>
  </trkpt>
  <trkpt lat="5.740204" lon="-75.606079">
    <ele>597</ele>
    <time>2014-06-16T14:10:11Z</time>
    <speed>4.1449656</speed>
  </trkpt>
  <trkpt lat="5.740141" lon="-75.606011">
    <ele>597</ele>
    <time>2014-06-16T14:10:13Z</time>
    <speed>4.9767914</speed>
  </trkpt>
  <trkpt lat="5.740095" lon="-75.605970">
    <ele>596</ele>
    <time>2014-06-16T14:10:15Z</time>
    <speed>3.9693997</speed>
  </trkpt>
  <trkpt lat="5.740044" lon="-75.605932">
    <ele>597</ele>
    <time>2014-06-16T14:10:17Z</time>
    <speed>3.2007613</speed>
  </trkpt>
  <trkpt lat="5.739997" lon="-75.605892">
    <ele>596</ele>
    <time>2014-06-16T14:10:19Z</time>
    <speed>3.063484</speed>
  </trkpt>
  <trkpt lat="5.739965" lon="-75.605857">
    <ele>596</ele>
    <time>2014-06-16T14:10:21Z</time>
    <speed>2.2661333</speed>
  </trkpt>
  <trkpt lat="5.739926" lon="-75.605818">
    <ele>596</ele>
    <time>2014-06-16T14:10:23Z</time>
    <speed>3.2137783</speed>
  </trkpt>
  <trkpt lat="5.739855" lon="-75.605764">
    <ele>596</ele>
    <time>2014-06-16T14:10:25Z</time>
    <speed>4.4203115</speed>
  </trkpt>
  <trkpt lat="5.739778" lon="-75.605699">
    <ele>596</ele>
    <time>2014-06-16T14:10:27Z</time>
    <speed>4.553651</speed>
  </trkpt>
  <trkpt lat="5.739691" lon="-75.605635">
    <ele>596</ele>
    <time>2014-06-16T14:10:29Z</time>
    <speed>5.450312</speed>
  </trkpt>
  <trkpt lat="5.739603" lon="-75.605580">
    <ele>597</ele>
    <time>2014-06-16T14:10:31Z</time>
    <speed>5.3086863</speed>
  </trkpt>
  <trkpt lat="5.739530" lon="-75.605522">
    <ele>596</ele>
    <time>2014-06-16T14:10:33Z</time>
    <speed>4.601139</speed>
  </trkpt>
  <trkpt lat="5.739456" lon="-75.605458">
    <ele>596</ele>
    <time>2014-06-16T14:10:35Z</time>
    <speed>3.7769628</speed>
  </trkpt>
  <trkpt lat="5.739385" lon="-75.605400">
    <ele>596</ele>
    <time>2014-06-16T14:10:37Z</time>
    <speed>3.4599676</speed>
  </trkpt>
  <trkpt lat="5.739336" lon="-75.605361">
    <ele>596</ele>
    <time>2014-06-16T14:10:39Z</time>
    <speed>3.531805</speed>
  </trkpt>
  <trkpt lat="5.739281" lon="-75.605312">
    <ele>597</ele>
    <time>2014-06-16T14:10:41Z</time>
    <speed>3.676269</speed>
  </trkpt>
  <trkpt lat="5.739243" lon="-75.605284">
    <ele>596</ele>
    <time>2014-06-16T14:10:43Z</time>
    <speed>3.0562632</speed>
  </trkpt>
  <trkpt lat="5.739207" lon="-75.605254">
    <ele>597</ele>
    <time>2014-06-16T14:10:45Z</time>
    <speed>2.2677586</speed>
  </trkpt>
  <trkpt lat="5.739167" lon="-75.605219">
    <ele>596</ele>
    <time>2014-06-16T14:10:47Z</time>
    <speed>2.8077376</speed>
  </trkpt>
  <trkpt lat="5.739125" lon="-75.605182">
    <ele>596</ele>
    <time>2014-06-16T14:10:49Z</time>
    <speed>3.3660276</speed>
  </trkpt>
  <trkpt lat="5.739077" lon="-75.605139">
    <ele>596</ele>
    <time>2014-06-16T14:10:51Z</time>
    <speed>2.6182156</speed>
  </trkpt>
  <trkpt lat="5.739031" lon="-75.605096">
    <ele>596</ele>
    <time>2014-06-16T14:10:53Z</time>
    <speed>3.3011713</speed>
  </trkpt>
  <trkpt lat="5.738978" lon="-75.605056">
    <ele>596</ele>
    <time>2014-06-16T14:10:55Z</time>
    <speed>4.1013064</speed>
  </trkpt>
  <trkpt lat="5.738925" lon="-75.605008">
    <ele>595</ele>
    <time>2014-06-16T14:10:57Z</time>
    <speed>4.2605243</speed>
  </trkpt>
  <trkpt lat="5.738875" lon="-75.604960">
    <ele>597</ele>
    <time>2014-06-16T14:10:59Z</time>
    <speed>4.703005</speed>
  </trkpt>
  <trkpt lat="5.738831" lon="-75.604918">
    <ele>597</ele>
    <time>2014-06-16T14:11:01Z</time>
    <speed>3.8029835</speed>
  </trkpt>
  <trkpt lat="5.738776" lon="-75.604865">
    <ele>597</ele>
    <time>2014-06-16T14:11:03Z</time>
    <speed>3.698001</speed>
  </trkpt>
  <trkpt lat="5.738710" lon="-75.604808">
    <ele>597</ele>
    <time>2014-06-16T14:11:05Z</time>
    <speed>3.1690555</speed>
  </trkpt>
  <trkpt lat="5.738652" lon="-75.604766">
    <ele>596</ele>
    <time>2014-06-16T14:11:07Z</time>
    <speed>3.192902</speed>
  </trkpt>
  <trkpt lat="5.738613" lon="-75.604739">
    <ele>596</ele>
    <time>2014-06-16T14:11:09Z</time>
    <speed>2.7364738</speed>
  </trkpt>
  <trkpt lat="5.738571" lon="-75.604712">
    <ele>597</ele>
    <time>2014-06-16T14:11:11Z</time>
    <speed>1.7126971</speed>
  </trkpt>
  <trkpt lat="5.738519" lon="-75.604679">
    <ele>596</ele>
    <time>2014-06-16T14:11:14Z</time>
    <speed>1.6705096</speed>
  </trkpt>
  <trkpt lat="5.738563" lon="-75.604667">
    <ele>597</ele>
    <time>2014-06-16T14:11:48Z</time>
    <speed>1.7726141</speed>
  </trkpt>
  <trkpt lat="5.738643" lon="-75.604695">
    <ele>598</ele>
    <time>2014-06-16T14:11:50Z</time>
    <speed>4.031908</speed>
  </trkpt>
  <trkpt lat="5.738735" lon="-75.604741">
    <ele>598</ele>
    <time>2014-06-16T14:11:52Z</time>
    <speed>4.8176217</speed>
  </trkpt>
  <trkpt lat="5.738812" lon="-75.604808">
    <ele>597</ele>
    <time>2014-06-16T14:11:54Z</time>
    <speed>4.4037986</speed>
  </trkpt>
  <trkpt lat="5.738876" lon="-75.604859">
    <ele>597</ele>
    <time>2014-06-16T14:11:56Z</time>
    <speed>4.187985</speed>
  </trkpt>
  <trkpt lat="5.738936" lon="-75.604905">
    <ele>596</ele>
    <time>2014-06-16T14:11:58Z</time>
    <speed>3.9752367</speed>
  </trkpt>
  <trkpt lat="5.739000" lon="-75.604940">
    <ele>596</ele>
    <time>2014-06-16T14:12:00Z</time>
    <speed>3.4743779</speed>
  </trkpt>
  <trkpt lat="5.739051" lon="-75.604971">
    <ele>597</ele>
    <time>2014-06-16T14:12:02Z</time>
    <speed>2.9499347</speed>
  </trkpt>
  <trkpt lat="5.739087" lon="-75.605007">
    <ele>596</ele>
    <time>2014-06-16T14:12:04Z</time>
    <speed>1.938775</speed>
  </trkpt>
  <trkpt lat="5.739140" lon="-75.605054">
    <ele>596</ele>
    <time>2014-06-16T14:12:07Z</time>
    <speed>2.469061</speed>
  </trkpt>
  <trkpt lat="5.739184" lon="-75.605078">
    <ele>596</ele>
    <time>2014-06-16T14:12:09Z</time>
    <speed>2.4343815</speed>
  </trkpt>
  <trkpt lat="5.739226" lon="-75.605116">
    <ele>597</ele>
    <time>2014-06-16T14:12:11Z</time>
    <speed>2.3832166</speed>
  </trkpt>
  <trkpt lat="5.739271" lon="-75.605150">
    <ele>598</ele>
    <time>2014-06-16T14:12:13Z</time>
    <speed>2.3294091</speed>
  </trkpt>
  <trkpt lat="5.739314" lon="-75.605197">
    <ele>598</ele>
    <time>2014-06-16T14:12:16Z</time>
    <speed>2.0399017</speed>
  </trkpt>
  <trkpt lat="5.739355" lon="-75.605234">
    <ele>597</ele>
    <time>2014-06-16T14:12:20Z</time>
    <speed>1.0750769</speed>
  </trkpt>
  <trkpt lat="5.739373" lon="-75.605297">
    <ele>597</ele>
    <time>2014-06-16T14:13:07Z</time>
    <speed>3.6583626</speed>
  </trkpt>
  <trkpt lat="5.739406" lon="-75.605357">
    <ele>597</ele>
    <time>2014-06-16T14:13:09Z</time>
    <speed>3.9079866</speed>
  </trkpt>
  <trkpt lat="5.739449" lon="-75.605403">
    <ele>598</ele>
    <time>2014-06-16T14:13:11Z</time>
    <speed>4.0505176</speed>
  </trkpt>
  <trkpt lat="5.739508" lon="-75.605462">
    <ele>598</ele>
    <time>2014-06-16T14:13:13Z</time>
    <speed>4.810237</speed>
  </trkpt>
  <trkpt lat="5.739570" lon="-75.605524">
    <ele>598</ele>
    <time>2014-06-16T14:13:15Z</time>
    <speed>4.646989</speed>
  </trkpt>
  <trkpt lat="5.739638" lon="-75.605556">
    <ele>597</ele>
    <time>2014-06-16T14:13:17Z</time>
    <speed>3.5038948</speed>
  </trkpt>
  <trkpt lat="5.739681" lon="-75.605598">
    <ele>597</ele>
    <time>2014-06-16T14:13:20Z</time>
    <speed>1.9830416</speed>
  </trkpt>
  <trkpt lat="5.739710" lon="-75.605637">
    <ele>597</ele>
    <time>2014-06-16T14:13:23Z</time>
    <speed>1.1836219</speed>
  </trkpt>
  <trkpt lat="5.739734" lon="-75.605695">
    <ele>597</ele>
    <time>2014-06-16T14:13:26Z</time>
    <speed>2.5782425</speed>
  </trkpt>
  <trkpt lat="5.739779" lon="-75.605721">
    <ele>597</ele>
    <time>2014-06-16T14:13:29Z</time>
    <speed>3.0865223</speed>
  </trkpt>
  <trkpt lat="5.739827" lon="-75.605769">
    <ele>597</ele>
    <time>2014-06-16T14:13:33Z</time>
    <speed>1.3578142</speed>
  </trkpt>
  <trkpt lat="5.739872" lon="-75.605742">
    <ele>598</ele>
    <time>2014-06-16T14:13:55Z</time>
    <speed>0.0</speed>
  </trkpt>
  <trkpt lat="5.739888" lon="-75.605699">
    <ele>596</ele>
    <time>2014-06-16T14:14:05Z</time>
    <speed>0.51060545</speed>
  </trkpt>
  <trkpt lat="5.739907" lon="-75.605742">
    <ele>596</ele>
    <time>2014-06-16T14:14:20Z</time>
    <speed>0.81271625</speed>
  </trkpt>
  <trkpt lat="5.739877" lon="-75.605783">
    <ele>598</ele>
    <time>2014-06-16T14:14:23Z</time>
    <speed>0.9798611</speed>
  </trkpt>
  <trkpt lat="5.739848" lon="-75.605821">
    <ele>599</ele>
    <time>2014-06-16T14:14:26Z</time>
    <speed>1.8083191</speed>
  </trkpt>
  <trkpt lat="5.739800" lon="-75.605819">
    <ele>597</ele>
    <time>2014-06-16T14:14:37Z</time>
    <speed>1.5009935</speed>
  </trkpt>
  <trkpt lat="5.739835" lon="-75.605788">
    <ele>599</ele>
    <time>2014-06-16T14:14:42Z</time>
    <speed>0.92923117</speed>
  </trkpt>
  <trkpt lat="5.739876" lon="-75.605762">
    <ele>598</ele>
    <time>2014-06-16T14:14:50Z</time>
    <speed>0.64125526</speed>
  </trkpt>
  <trkpt lat="5.739925" lon="-75.605762">
    <ele>598</ele>
    <time>2014-06-16T14:14:54Z</time>
    <speed>1.1468818</speed>
  </trkpt>
  <trkpt lat="5.739969" lon="-75.605769">
    <ele>598</ele>
    <time>2014-06-16T14:14:58Z</time>
    <speed>1.3184505</speed>
  </trkpt>
  <trkpt lat="5.739981" lon="-75.605819">
    <ele>597</ele>
    <time>2014-06-16T14:15:20Z</time>
    <speed>1.1935412</speed>
  </trkpt>
  <trkpt lat="5.740019" lon="-75.605846">
    <ele>596</ele>
    <time>2014-06-16T14:15:25Z</time>
    <speed>1.4467285</speed>
  </trkpt>
  <trkpt lat="5.740046" lon="-75.605891">
    <ele>597</ele>
    <time>2014-06-16T14:15:29Z</time>
    <speed>1.4217994</speed>
  </trkpt>
  <trkpt lat="5.740087" lon="-75.605936">
    <ele>596</ele>
    <time>2014-06-16T14:15:33Z</time>
    <speed>1.5667367</speed>
  </trkpt>
  <trkpt lat="5.740120" lon="-75.605970">
    <ele>596</ele>
    <time>2014-06-16T14:15:38Z</time>
    <speed>1.404081</speed>
  </trkpt>
  <trkpt lat="5.740162" lon="-75.605988">
    <ele>596</ele>
    <time>2014-06-16T14:15:43Z</time>
    <speed>1.5408037</speed>
  </trkpt>
  <trkpt lat="5.740194" lon="-75.606023">
    <ele>596</ele>
    <time>2014-06-16T14:15:49Z</time>
    <speed>1.2945555</speed>
  </trkpt>
  <trkpt lat="5.740228" lon="-75.606062">
    <ele>597</ele>
    <time>2014-06-16T14:15:54Z</time>
    <speed>1.1057588</speed>
  </trkpt>
  <trkpt lat="5.740268" lon="-75.606100">
    <ele>596</ele>
    <time>2014-06-16T14:15:59Z</time>
    <speed>1.4590528</speed>
  </trkpt>
  <trkpt lat="5.740303" lon="-75.606129">
    <ele>597</ele>
    <time>2014-06-16T14:16:04Z</time>
    <speed>1.2595551</speed>
  </trkpt>
  <trkpt lat="5.740326" lon="-75.606171">
    <ele>597</ele>
    <time>2014-06-16T14:16:11Z</time>
    <speed>1.3618807</speed>
  </trkpt>
  <trkpt lat="5.740369" lon="-75.606188">
    <ele>599</ele>
    <time>2014-06-16T14:16:21Z</time>
    <speed>1.3366011</speed>
  </trkpt>
  <trkpt lat="5.740414" lon="-75.606213">
    <ele>597</ele>
    <time>2014-06-16T14:16:28Z</time>
    <speed>1.0599968</speed>
  </trkpt>
  <trkpt lat="5.740456" lon="-75.606230">
    <ele>597</ele>
    <time>2014-06-16T14:16:34Z</time>
    <speed>1.154204</speed>
  </trkpt>
  <trkpt lat="5.740493" lon="-75.606262">
    <ele>597</ele>
    <time>2014-06-16T14:16:39Z</time>
    <speed>1.4387407</speed>
  </trkpt>
  <trkpt lat="5.740523" lon="-75.606305">
    <ele>596</ele>
    <time>2014-06-16T14:16:44Z</time>
    <speed>1.0842339</speed>
  </trkpt>
  <trkpt lat="5.740563" lon="-75.606333">
    <ele>597</ele>
    <time>2014-06-16T14:16:49Z</time>
    <speed>1.3553497</speed>
  </trkpt>
  <trkpt lat="5.740605" lon="-75.606351">
    <ele>597</ele>
    <time>2014-06-16T14:16:56Z</time>
    <speed>1.3637497</speed>
  </trkpt>
  <trkpt lat="5.740644" lon="-75.606375">
    <ele>597</ele>
    <time>2014-06-16T14:17:01Z</time>
    <speed>1.3422283</speed>
  </trkpt>
  <trkpt lat="5.740642" lon="-75.606427">
    <ele>596</ele>
    <time>2014-06-16T14:17:07Z</time>
    <speed>1.1772453</speed>
  </trkpt>
  <trkpt lat="5.740632" lon="-75.606473">
    <ele>596</ele>
    <time>2014-06-16T14:17:12Z</time>
    <speed>1.2387296</speed>
  </trkpt>
  <trkpt lat="5.740629" lon="-75.606521">
    <ele>596</ele>
    <time>2014-06-16T14:17:17Z</time>
    <speed>0.99264234</speed>
  </trkpt>
  <trkpt lat="5.740664" lon="-75.606562">
    <ele>595</ele>
    <time>2014-06-16T14:17:21Z</time>
    <speed>1.5679746</speed>
  </trkpt>
  <trkpt lat="5.740661" lon="-75.606608">
    <ele>597</ele>
    <time>2014-06-16T14:17:33Z</time>
    <speed>0.9814948</speed>
  </trkpt>
  <trkpt lat="5.740659" lon="-75.606325">
    <ele>602</ele>
    <time>2014-06-16T14:24:05Z</time>
    <speed>0.0</speed>
  </trkpt>
  <trkpt lat="5.740708" lon="-75.606345">
    <ele>602</ele>
    <time>2014-06-16T14:25:15Z</time>
    <speed>0.08400591</speed>
  </trkpt>
  <trkpt lat="5.740796" lon="-75.606368">
    <ele>602</ele>
    <time>2014-06-16T14:25:26Z</time>
    <speed>1.4101518</speed>
  </trkpt>
  <trkpt lat="5.740758" lon="-75.606339">
    <ele>602</ele>
    <time>2014-06-16T14:25:32Z</time>
    <speed>0.9844325</speed>
  </trkpt>
  <trkpt lat="5.740743" lon="-75.606296">
    <ele>600</ele>
    <time>2014-06-16T14:26:16Z</time>
    <speed>1.9265362</speed>
  </trkpt>
  <trkpt lat="5.740731" lon="-75.606246">
    <ele>601</ele>
    <time>2014-06-16T14:26:23Z</time>
    <speed>1.2544487</speed>
  </trkpt>
  <trkpt lat="5.740676" lon="-75.606241">
    <ele>601</ele>
    <time>2014-06-16T14:26:27Z</time>
    <speed>1.3374506</speed>
  </trkpt>
  <trkpt lat="5.740643" lon="-75.606208">
    <ele>599</ele>
    <time>2014-06-16T14:26:32Z</time>
    <speed>1.2035599</speed>
  </trkpt>
  <trkpt lat="5.740615" lon="-75.606172">
    <ele>598</ele>
    <time>2014-06-16T14:26:40Z</time>
    <speed>1.5578518</speed>
  </trkpt>
  <trkpt lat="5.740591" lon="-75.606124">
    <ele>599</ele>
    <time>2014-06-16T14:28:02Z</time>
    <speed>1.2837429</speed>
  </trkpt>
  <trkpt lat="5.740520" lon="-75.606339">
    <ele>599</ele>
    <time>2014-06-16T14:28:24Z</time>
    <speed>1.1783266</speed>
  </trkpt>
  <trkpt lat="5.740502" lon="-75.606295">
    <ele>598</ele>
    <time>2014-06-16T14:28:35Z</time>
    <speed>1.3937327</speed>
  </trkpt>
  <trkpt lat="5.740468" lon="-75.606253">
    <ele>599</ele>
    <time>2014-06-16T14:28:41Z</time>
    <speed>1.490846</speed>
  </trkpt>
  <trkpt lat="5.740416" lon="-75.606232">
    <ele>597</ele>
    <time>2014-06-16T14:28:45Z</time>
    <speed>1.4429301</speed>
  </trkpt>
  <trkpt lat="5.740357" lon="-75.606227">
    <ele>599</ele>
    <time>2014-06-16T14:28:48Z</time>
    <speed>1.4703438</speed>
  </trkpt>
  <trkpt lat="5.740308" lon="-75.606216">
    <ele>599</ele>
    <time>2014-06-16T14:28:51Z</time>
    <speed>1.5007565</speed>
  </trkpt>
  <trkpt lat="5.740259" lon="-75.606211">
    <ele>599</ele>
    <time>2014-06-16T14:28:54Z</time>
    <speed>1.5390939</speed>
  </trkpt>
  <trkpt lat="5.740221" lon="-75.606175">
    <ele>600</ele>
    <time>2014-06-16T14:28:59Z</time>
    <speed>1.322746</speed>
  </trkpt>
  <trkpt lat="5.740182" lon="-75.606144">
    <ele>598</ele>
    <time>2014-06-16T14:29:03Z</time>
    <speed>1.5143435</speed>
  </trkpt>
  <trkpt lat="5.740135" lon="-75.606122">
    <ele>598</ele>
    <time>2014-06-16T14:29:07Z</time>
    <speed>1.5287747</speed>
  </trkpt>
  <trkpt lat="5.740108" lon="-75.606082">
    <ele>598</ele>
    <time>2014-06-16T14:29:11Z</time>
    <speed>1.417639</speed>
  </trkpt>
  <trkpt lat="5.740090" lon="-75.606036">
    <ele>597</ele>
    <time>2014-06-16T14:29:16Z</time>
    <speed>1.2993382</speed>
  </trkpt>
  <trkpt lat="5.740083" lon="-75.605981">
    <ele>597</ele>
    <time>2014-06-16T14:29:20Z</time>
    <speed>1.6119628</speed>
  </trkpt>
  <trkpt lat="5.740121" lon="-75.605941">
    <ele>599</ele>
    <time>2014-06-16T14:29:23Z</time>
    <speed>1.513285</speed>
  </trkpt>
  <trkpt lat="5.740167" lon="-75.605922">
    <ele>598</ele>
    <time>2014-06-16T14:29:25Z</time>
    <speed>1.6337578</speed>
  </trkpt>
  <trkpt lat="5.740229" lon="-75.605907">
    <ele>598</ele>
    <time>2014-06-16T14:29:28Z</time>
    <speed>1.6788055</speed>
  </trkpt>
  <trkpt lat="5.740292" lon="-75.605889">
    <ele>597</ele>
    <time>2014-06-16T14:29:31Z</time>
    <speed>1.5377698</speed>
  </trkpt>
  <trkpt lat="5.740351" lon="-75.605885">
    <ele>598</ele>
    <time>2014-06-16T14:29:34Z</time>
    <speed>1.5206105</speed>
  </trkpt>
  <trkpt lat="5.740399" lon="-75.605883">
    <ele>598</ele>
    <time>2014-06-16T14:29:37Z</time>
    <speed>1.5142077</speed>
  </trkpt>
  <trkpt lat="5.740455" lon="-75.605873">
    <ele>597</ele>
    <time>2014-06-16T14:29:41Z</time>
    <speed>1.485739</speed>
  </trkpt>
  <trkpt lat="5.740496" lon="-75.605853">
    <ele>598</ele>
    <time>2014-06-16T14:29:44Z</time>
    <speed>1.4952109</speed>
  </trkpt>
  <trkpt lat="5.740547" lon="-75.605838">
    <ele>598</ele>
    <time>2014-06-16T14:29:48Z</time>
    <speed>1.5398958</speed>
  </trkpt>
  <trkpt lat="5.740599" lon="-75.605819">
    <ele>598</ele>
    <time>2014-06-16T14:29:53Z</time>
    <speed>1.426225</speed>
  </trkpt>
  <trkpt lat="5.740639" lon="-75.605793">
    <ele>597</ele>
    <time>2014-06-16T14:29:57Z</time>
    <speed>1.3734976</speed>
  </trkpt>
  <trkpt lat="5.740674" lon="-75.605757">
    <ele>597</ele>
    <time>2014-06-16T14:30:01Z</time>
    <speed>1.5226204</speed>
  </trkpt>
  <trkpt lat="5.740719" lon="-75.605735">
    <ele>597</ele>
    <time>2014-06-16T14:30:05Z</time>
    <speed>1.437085</speed>
  </trkpt>
  <trkpt lat="5.740765" lon="-75.605728">
    <ele>599</ele>
    <time>2014-06-16T14:30:09Z</time>
    <speed>1.4009496</speed>
  </trkpt>
  <trkpt lat="5.740821" lon="-75.605728">
    <ele>598</ele>
    <time>2014-06-16T14:30:14Z</time>
    <speed>1.5029128</speed>
  </trkpt>
  <trkpt lat="5.740859" lon="-75.605700">
    <ele>596</ele>
    <time>2014-06-16T14:30:18Z</time>
    <speed>1.4523151</speed>
  </trkpt>
  <trkpt lat="5.740902" lon="-75.605682">
    <ele>597</ele>
    <time>2014-06-16T14:30:23Z</time>
    <speed>1.3868786</speed>
  </trkpt>
  <trkpt lat="5.740950" lon="-75.605679">
    <ele>597</ele>
    <time>2014-06-16T14:30:33Z</time>
    <speed>1.1370218</speed>
  </trkpt>
  <trkpt lat="5.740996" lon="-75.605679">
    <ele>597</ele>
    <time>2014-06-16T14:31:06Z</time>
    <speed>0.69516647</speed>
  </trkpt>
  <trkpt lat="5.741045" lon="-75.605684">
    <ele>597</ele>
    <time>2014-06-16T14:31:11Z</time>
    <speed>1.2266964</speed>
  </trkpt>
  <trkpt lat="5.741097" lon="-75.605660">
    <ele>596</ele>
    <time>2014-06-16T14:31:16Z</time>
    <speed>1.4834306</speed>
  </trkpt>
  <trkpt lat="5.740958" lon="-75.605722">
    <ele>597</ele>
    <time>2014-06-16T14:31:18Z</time>
    <speed>1.4571779</speed>
  </trkpt>
  <trkpt lat="5.740910" lon="-75.605718">
    <ele>596</ele>
    <time>2014-06-16T14:31:24Z</time>
    <speed>1.3776237</speed>
  </trkpt>
  <trkpt lat="5.740871" lon="-75.605742">
    <ele>596</ele>
    <time>2014-06-16T14:31:27Z</time>
    <speed>1.6939584</speed>
  </trkpt>
  <trkpt lat="5.740825" lon="-75.605771">
    <ele>598</ele>
    <time>2014-06-16T14:31:30Z</time>
    <speed>1.7384061</speed>
  </trkpt>
  <trkpt lat="5.740778" lon="-75.605780">
    <ele>596</ele>
    <time>2014-06-16T14:31:33Z</time>
    <speed>1.5892097</speed>
  </trkpt>
  <trkpt lat="5.740733" lon="-75.605813">
    <ele>596</ele>
    <time>2014-06-16T14:31:37Z</time>
    <speed>1.4953345</speed>
  </trkpt>
  <trkpt lat="5.740694" lon="-75.605847">
    <ele>597</ele>
    <time>2014-06-16T14:31:41Z</time>
    <speed>1.3893976</speed>
  </trkpt>
  <trkpt lat="5.740656" lon="-75.605873">
    <ele>596</ele>
    <time>2014-06-16T14:31:46Z</time>
    <speed>1.5748593</speed>
  </trkpt>
  <trkpt lat="5.740610" lon="-75.605891">
    <ele>598</ele>
    <time>2014-06-16T14:31:50Z</time>
    <speed>1.6116313</speed>
  </trkpt>
  <trkpt lat="5.740560" lon="-75.605887">
    <ele>597</ele>
    <time>2014-06-16T14:31:53Z</time>
    <speed>1.6172059</speed>
  </trkpt>
  <trkpt lat="5.740501" lon="-75.605891">
    <ele>598</ele>
    <time>2014-06-16T14:31:56Z</time>
    <speed>1.6599324</speed>
  </trkpt>
  <trkpt lat="5.740453" lon="-75.605907">
    <ele>599</ele>
    <time>2014-06-16T14:31:59Z</time>
    <speed>1.6487489</speed>
  </trkpt>
  <trkpt lat="5.740408" lon="-75.605913">
    <ele>598</ele>
    <time>2014-06-16T14:32:02Z</time>
    <speed>1.6413487</speed>
  </trkpt>
  <trkpt lat="5.740349" lon="-75.605901">
    <ele>598</ele>
    <time>2014-06-16T14:32:05Z</time>
    <speed>1.5873414</speed>
  </trkpt>
  <trkpt lat="5.740296" lon="-75.605896">
    <ele>599</ele>
    <time>2014-06-16T14:32:08Z</time>
    <speed>1.5988111</speed>
  </trkpt>
  <trkpt lat="5.740240" lon="-75.605910">
    <ele>598</ele>
    <time>2014-06-16T14:32:12Z</time>
    <speed>1.4498171</speed>
  </trkpt>
  <trkpt lat="5.740186" lon="-75.605913">
    <ele>599</ele>
    <time>2014-06-16T14:32:16Z</time>
    <speed>1.5123178</speed>
  </trkpt>
  <trkpt lat="5.740140" lon="-75.605905">
    <ele>598</ele>
    <time>2014-06-16T14:32:20Z</time>
    <speed>1.5614189</speed>
  </trkpt>
  <trkpt lat="5.740101" lon="-75.605869">
    <ele>598</ele>
    <time>2014-06-16T14:32:25Z</time>
    <speed>1.4712814</speed>
  </trkpt>
  <trkpt lat="5.740056" lon="-75.605841">
    <ele>597</ele>
    <time>2014-06-16T14:32:39Z</time>
    <speed>1.3832272</speed>
  </trkpt>
  <trkpt lat="5.740010" lon="-75.605822">
    <ele>598</ele>
    <time>2014-06-16T14:32:43Z</time>
    <speed>1.3738983</speed>
  </trkpt>
  <trkpt lat="5.739993" lon="-75.605868">
    <ele>599</ele>
    <time>2014-06-16T14:32:50Z</time>
    <speed>0.96132433</speed>
  </trkpt>
  <trkpt lat="5.739988" lon="-75.605816">
    <ele>600</ele>
    <time>2014-06-16T14:32:58Z</time>
    <speed>1.6573232</speed>
  </trkpt>
  <trkpt lat="5.739973" lon="-75.605860">
    <ele>599</ele>
    <time>2014-06-16T14:33:01Z</time>
    <speed>1.5446879</speed>
  </trkpt>
  <trkpt lat="5.739951" lon="-75.605910">
    <ele>599</ele>
    <time>2014-06-16T14:33:05Z</time>
    <speed>1.3810464</speed>
  </trkpt>
  <trkpt lat="5.739945" lon="-75.605957">
    <ele>599</ele>
    <time>2014-06-16T14:33:11Z</time>
    <speed>1.0617557</speed>
  </trkpt>
  <trkpt lat="5.739949" lon="-75.606002">
    <ele>600</ele>
    <time>2014-06-16T14:33:17Z</time>
    <speed>1.3580291</speed>
  </trkpt>
  <trkpt lat="5.739931" lon="-75.605952">
    <ele>600</ele>
    <time>2014-06-16T14:33:34Z</time>
    <speed>1.2327629</speed>
  </trkpt>
  <trkpt lat="5.739968" lon="-75.605987">
    <ele>598</ele>
    <time>2014-06-16T14:33:54Z</time>
    <speed>1.118061</speed>
  </trkpt>
  <trkpt lat="5.739997" lon="-75.606028">
    <ele>598</ele>
    <time>2014-06-16T14:34:08Z</time>
    <speed>1.3011317</speed>
  </trkpt>
  <trkpt lat="5.740031" lon="-75.605993">
    <ele>599</ele>
    <time>2014-06-16T14:34:18Z</time>
    <speed>1.3504298</speed>
  </trkpt>
  <trkpt lat="5.740073" lon="-75.605967">
    <ele>599</ele>
    <time>2014-06-16T14:34:32Z</time>
    <speed>1.3263501</speed>
  </trkpt>
  <trkpt lat="5.740033" lon="-75.605924">
    <ele>599</ele>
    <time>2014-06-16T14:34:39Z</time>
    <speed>1.2981217</speed>
  </trkpt>
  <trkpt lat="5.739985" lon="-75.605920">
    <ele>599</ele>
    <time>2014-06-16T14:34:43Z</time>
    <speed>1.1251094</speed>
  </trkpt>
  <trkpt lat="5.739966" lon="-75.605871">
    <ele>599</ele>
    <time>2014-06-16T14:34:50Z</time>
    <speed>1.4757487</speed>
  </trkpt>
  <trkpt lat="5.739934" lon="-75.605825">
    <ele>600</ele>
    <time>2014-06-16T14:34:54Z</time>
    <speed>1.5246372</speed>
  </trkpt>
  <trkpt lat="5.739888" lon="-75.605808">
    <ele>598</ele>
    <time>2014-06-16T14:34:58Z</time>
    <speed>1.5416135</speed>
  </trkpt>
  <trkpt lat="5.739833" lon="-75.605811">
    <ele>599</ele>
    <time>2014-06-16T14:35:02Z</time>
    <speed>1.5185984</speed>
  </trkpt>
  <trkpt lat="5.739793" lon="-75.605789">
    <ele>598</ele>
    <time>2014-06-16T14:35:07Z</time>
    <speed>1.6009132</speed>
  </trkpt>
  <trkpt lat="5.739747" lon="-75.605778">
    <ele>598</ele>
    <time>2014-06-16T14:35:12Z</time>
    <speed>1.6095022</speed>
  </trkpt>
  <trkpt lat="5.739706" lon="-75.605739">
    <ele>601</ele>
    <time>2014-06-16T14:35:15Z</time>
    <speed>1.4815747</speed>
  </trkpt>
  <trkpt lat="5.739677" lon="-75.605691">
    <ele>600</ele>
    <time>2014-06-16T14:35:18Z</time>
    <speed>1.4023331</speed>
  </trkpt>
  <trkpt lat="5.739649" lon="-75.605656">
    <ele>598</ele>
    <time>2014-06-16T14:35:21Z</time>
    <speed>1.4007064</speed>
  </trkpt>
  <trkpt lat="5.739624" lon="-75.605614">
    <ele>600</ele>
    <time>2014-06-16T14:35:25Z</time>
    <speed>1.3079579</speed>
  </trkpt>
  <trkpt lat="5.739587" lon="-75.605579">
    <ele>600</ele>
    <time>2014-06-16T14:35:30Z</time>
    <speed>1.4817234</speed>
  </trkpt>
  <trkpt lat="5.739536" lon="-75.605567">
    <ele>599</ele>
    <time>2014-06-16T14:35:35Z</time>
    <speed>1.390446</speed>
  </trkpt>
  <trkpt lat="5.739496" lon="-75.605544">
    <ele>599</ele>
    <time>2014-06-16T14:35:40Z</time>
    <speed>1.5279069</speed>
  </trkpt>
  <trkpt lat="5.739475" lon="-75.605499">
    <ele>599</ele>
    <time>2014-06-16T14:35:44Z</time>
    <speed>1.3978287</speed>
  </trkpt>
  <trkpt lat="5.739448" lon="-75.605461">
    <ele>600</ele>
    <time>2014-06-16T14:35:48Z</time>
    <speed>1.1375544</speed>
  </trkpt>
  <trkpt lat="5.739434" lon="-75.605415">
    <ele>601</ele>
    <time>2014-06-16T14:35:53Z</time>
    <speed>1.4030861</speed>
  </trkpt>
  <trkpt lat="5.739422" lon="-75.605366">
    <ele>599</ele>
    <time>2014-06-16T14:35:58Z</time>
    <speed>1.3374707</speed>
  </trkpt>
  <trkpt lat="5.739385" lon="-75.605334">
    <ele>599</ele>
    <time>2014-06-16T14:36:02Z</time>
    <speed>1.1373017</speed>
  </trkpt>
  <trkpt lat="5.739351" lon="-75.605301">
    <ele>600</ele>
    <time>2014-06-16T14:36:07Z</time>
    <speed>1.0392597</speed>
  </trkpt>
  <trkpt lat="5.739342" lon="-75.605255">
    <ele>599</ele>
    <time>2014-06-16T14:36:23Z</time>
    <speed>2.3999214</speed>
  </trkpt>
  <trkpt lat="5.739362" lon="-75.605213">
    <ele>599</ele>
    <time>2014-06-16T14:36:26Z</time>
    <speed>1.4712098</speed>
  </trkpt>
 </trkseg>
 <trkseg>
  <trkpt lat="5.741194" lon="-75.606935">
    <ele>604</ele>
    <time>2014-06-16T14:55:16Z</time>
    <speed>1.9826345E-7</speed>
  </trkpt>
  <trkpt lat="5.741252" lon="-75.606945">
    <ele>602</ele>
    <time>2014-06-16T14:55:19Z</time>
    <speed>2.649571</speed>
  </trkpt>
  <trkpt lat="5.741302" lon="-75.606976">
    <ele>604</ele>
    <time>2014-06-16T14:55:22Z</time>
    <speed>2.788144</speed>
  </trkpt>
  <trkpt lat="5.741304" lon="-75.607024">
    <ele>603</ele>
    <time>2014-06-16T14:55:24Z</time>
    <speed>3.276689</speed>
  </trkpt>
  <trkpt lat="5.741246" lon="-75.607086">
    <ele>604</ele>
    <time>2014-06-16T14:55:27Z</time>
    <speed>3.7110865</speed>
  </trkpt>
  <trkpt lat="5.741127" lon="-75.607175">
    <ele>605</ele>
    <time>2014-06-16T14:55:29Z</time>
    <speed>4.2465706</speed>
  </trkpt>
  <trkpt lat="5.740976" lon="-75.607293">
    <ele>606</ele>
    <time>2014-06-16T14:55:31Z</time>
    <speed>8.76377</speed>
  </trkpt>
  <trkpt lat="5.740822" lon="-75.607410">
    <ele>606</ele>
    <time>2014-06-16T14:55:33Z</time>
    <speed>8.720285</speed>
  </trkpt>
  <trkpt lat="5.740655" lon="-75.607525">
    <ele>604</ele>
    <time>2014-06-16T14:55:35Z</time>
    <speed>7.9188557</speed>
  </trkpt>
  <trkpt lat="5.740512" lon="-75.607618">
    <ele>605</ele>
    <time>2014-06-16T14:55:37Z</time>
    <speed>7.746035</speed>
  </trkpt>
  <trkpt lat="5.740431" lon="-75.607675">
    <ele>604</ele>
    <time>2014-06-16T14:55:39Z</time>
    <speed>4.5206065</speed>
  </trkpt>
  <trkpt lat="5.740378" lon="-75.607742">
    <ele>604</ele>
    <time>2014-06-16T14:55:41Z</time>
    <speed>3.9519656</speed>
  </trkpt>
  <trkpt lat="5.740369" lon="-75.607847">
    <ele>604</ele>
    <time>2014-06-16T14:55:43Z</time>
    <speed>5.846665</speed>
  </trkpt>
  <trkpt lat="5.740386" lon="-75.607993">
    <ele>606</ele>
    <time>2014-06-16T14:55:45Z</time>
    <speed>7.3543177</speed>
  </trkpt>
  <trkpt lat="5.740417" lon="-75.608160">
    <ele>607</ele>
    <time>2014-06-16T14:55:47Z</time>
    <speed>9.367328</speed>
  </trkpt>
  <trkpt lat="5.740471" lon="-75.608347">
    <ele>606</ele>
    <time>2014-06-16T14:55:49Z</time>
    <speed>9.697723</speed>
  </trkpt>
  <trkpt lat="5.740549" lon="-75.608547">
    <ele>607</ele>
    <time>2014-06-16T14:55:51Z</time>
    <speed>9.967899</speed>
  </trkpt>
  <trkpt lat="5.740712" lon="-75.608710">
    <ele>608</ele>
    <time>2014-06-16T14:55:53Z</time>
    <speed>11.4111595</speed>
  </trkpt>
  <trkpt lat="5.740915" lon="-75.608839">
    <ele>609</ele>
    <time>2014-06-16T14:55:55Z</time>
    <speed>11.720904</speed>
  </trkpt>
  <trkpt lat="5.741131" lon="-75.608970">
    <ele>611</ele>
    <time>2014-06-16T14:55:57Z</time>
    <speed>12.581082</speed>
  </trkpt>
  <trkpt lat="5.741370" lon="-75.609098">
    <ele>610</ele>
    <time>2014-06-16T14:55:59Z</time>
    <speed>12.59844</speed>
  </trkpt>
  <trkpt lat="5.741576" lon="-75.609214">
    <ele>611</ele>
    <time>2014-06-16T14:56:01Z</time>
    <speed>13.136169</speed>
  </trkpt>
  <trkpt lat="5.741798" lon="-75.609344">
    <ele>612</ele>
    <time>2014-06-16T14:56:03Z</time>
    <speed>13.894627</speed>
  </trkpt>
  <trkpt lat="5.742019" lon="-75.609479">
    <ele>611</ele>
    <time>2014-06-16T14:56:05Z</time>
    <speed>13.489038</speed>
  </trkpt>
  <trkpt lat="5.742232" lon="-75.609611">
    <ele>609</ele>
    <time>2014-06-16T14:56:07Z</time>
    <speed>13.355573</speed>
  </trkpt>
  <trkpt lat="5.742420" lon="-75.609723">
    <ele>612</ele>
    <time>2014-06-16T14:56:09Z</time>
    <speed>12.175747</speed>
  </trkpt>
  <trkpt lat="5.742601" lon="-75.609832">
    <ele>612</ele>
    <time>2014-06-16T14:56:11Z</time>
    <speed>11.08388</speed>
  </trkpt>
  <trkpt lat="5.742739" lon="-75.609947">
    <ele>613</ele>
    <time>2014-06-16T14:56:13Z</time>
    <speed>10.365483</speed>
  </trkpt>
  <trkpt lat="5.742843" lon="-75.610076">
    <ele>614</ele>
    <time>2014-06-16T14:56:15Z</time>
    <speed>9.44971</speed>
  </trkpt>
  <trkpt lat="5.742881" lon="-75.610238">
    <ele>615</ele>
    <time>2014-06-16T14:56:17Z</time>
    <speed>8.9674635</speed>
  </trkpt>
  <trkpt lat="5.742886" lon="-75.610426">
    <ele>616</ele>
    <time>2014-06-16T14:56:19Z</time>
    <speed>9.43044</speed>
  </trkpt>
  <trkpt lat="5.742857" lon="-75.610629">
    <ele>617</ele>
    <time>2014-06-16T14:56:21Z</time>
    <speed>10.174311</speed>
  </trkpt>
  <trkpt lat="5.742823" lon="-75.610838">
    <ele>617</ele>
    <time>2014-06-16T14:56:23Z</time>
    <speed>10.626262</speed>
  </trkpt>
  <trkpt lat="5.742785" lon="-75.611059">
    <ele>620</ele>
    <time>2014-06-16T14:56:25Z</time>
    <speed>10.841072</speed>
  </trkpt>
  <trkpt lat="5.742746" lon="-75.611267">
    <ele>620</ele>
    <time>2014-06-16T14:56:27Z</time>
    <speed>10.329487</speed>
  </trkpt>
  <trkpt lat="5.742717" lon="-75.611462">
    <ele>623</ele>
    <time>2014-06-16T14:56:29Z</time>
    <speed>9.489844</speed>
  </trkpt>
  <trkpt lat="5.742728" lon="-75.611645">
    <ele>622</ele>
    <time>2014-06-16T14:56:31Z</time>
    <speed>9.38253</speed>
  </trkpt>
  <trkpt lat="5.742772" lon="-75.611813">
    <ele>625</ele>
    <time>2014-06-16T14:56:33Z</time>
    <speed>9.228498</speed>
  </trkpt>
  <trkpt lat="5.742869" lon="-75.612014">
    <ele>626</ele>
    <time>2014-06-16T14:56:35Z</time>
    <speed>11.565426</speed>
  </trkpt>
  <trkpt lat="5.742998" lon="-75.612231">
    <ele>628</ele>
    <time>2014-06-16T14:56:37Z</time>
    <speed>11.819117</speed>
  </trkpt>
  <trkpt lat="5.743081" lon="-75.612489">
    <ele>629</ele>
    <time>2014-06-16T14:56:39Z</time>
    <speed>12.447432</speed>
  </trkpt>
  <trkpt lat="5.743100" lon="-75.612722">
    <ele>628</ele>
    <time>2014-06-16T14:56:41Z</time>
    <speed>11.274379</speed>
  </trkpt>
  <trkpt lat="5.743028" lon="-75.612965">
    <ele>626</ele>
    <time>2014-06-16T14:56:43Z</time>
    <speed>13.159173</speed>
  </trkpt>
  <trkpt lat="5.742942" lon="-75.613208">
    <ele>627</ele>
    <time>2014-06-16T14:56:45Z</time>
    <speed>12.932953</speed>
  </trkpt>
  <trkpt lat="5.742863" lon="-75.613419">
    <ele>629</ele>
    <time>2014-06-16T14:56:47Z</time>
    <speed>11.8765745</speed>
  </trkpt>
  <trkpt lat="5.742862" lon="-75.613627">
    <ele>632</ele>
    <time>2014-06-16T14:56:49Z</time>
    <speed>10.060505</speed>
  </trkpt>
  <trkpt lat="5.742921" lon="-75.613804">
    <ele>633</ele>
    <time>2014-06-16T14:56:51Z</time>
    <speed>10.396165</speed>
  </trkpt>
  <trkpt lat="5.743014" lon="-75.613974">
    <ele>634</ele>
    <time>2014-06-16T14:56:53Z</time>
    <speed>9.845988</speed>
  </trkpt>
  <trkpt lat="5.743096" lon="-75.614139">
    <ele>636</ele>
    <time>2014-06-16T14:56:55Z</time>
    <speed>9.426029</speed>
  </trkpt>
  <trkpt lat="5.743110" lon="-75.614330">
    <ele>637</ele>
    <time>2014-06-16T14:56:57Z</time>
    <speed>10.260376</speed>
  </trkpt>
  <trkpt lat="5.743084" lon="-75.614534">
    <ele>639</ele>
    <time>2014-06-16T14:56:59Z</time>
    <speed>11.249683</speed>
  </trkpt>
  <trkpt lat="5.743033" lon="-75.614753">
    <ele>638</ele>
    <time>2014-06-16T14:57:01Z</time>
    <speed>11.887167</speed>
  </trkpt>
  <trkpt lat="5.742935" lon="-75.614964">
    <ele>640</ele>
    <time>2014-06-16T14:57:03Z</time>
    <speed>12.167747</speed>
  </trkpt>
  <trkpt lat="5.742746" lon="-75.615147">
    <ele>641</ele>
    <time>2014-06-16T14:57:05Z</time>
    <speed>13.254961</speed>
  </trkpt>
  <trkpt lat="5.742535" lon="-75.615291">
    <ele>640</ele>
    <time>2014-06-16T14:57:07Z</time>
    <speed>13.354514</speed>
  </trkpt>
  <trkpt lat="5.742371" lon="-75.615416">
    <ele>642</ele>
    <time>2014-06-16T14:57:09Z</time>
    <speed>10.431742</speed>
  </trkpt>
  <trkpt lat="5.742342" lon="-75.615573">
    <ele>643</ele>
    <time>2014-06-16T14:57:11Z</time>
    <speed>8.922045</speed>
  </trkpt>
  <trkpt lat="5.742386" lon="-75.615708">
    <ele>642</ele>
    <time>2014-06-16T14:57:13Z</time>
    <speed>8.105859</speed>
  </trkpt>
  <trkpt lat="5.742470" lon="-75.615843">
    <ele>645</ele>
    <time>2014-06-16T14:57:15Z</time>
    <speed>7.381078</speed>
  </trkpt>
  <trkpt lat="5.742566" lon="-75.615971">
    <ele>646</ele>
    <time>2014-06-16T14:57:17Z</time>
    <speed>8.268</speed>
  </trkpt>
  <trkpt lat="5.742668" lon="-75.616110">
    <ele>648</ele>
    <time>2014-06-16T14:57:19Z</time>
    <speed>9.05917</speed>
  </trkpt>
  <trkpt lat="5.742713" lon="-75.616267">
    <ele>649</ele>
    <time>2014-06-16T14:57:21Z</time>
    <speed>9.313716</speed>
  </trkpt>
  <trkpt lat="5.742696" lon="-75.616438">
    <ele>650</ele>
    <time>2014-06-16T14:57:23Z</time>
    <speed>8.757661</speed>
  </trkpt>
  <trkpt lat="5.742648" lon="-75.616614">
    <ele>652</ele>
    <time>2014-06-16T14:57:25Z</time>
    <speed>10.727432</speed>
  </trkpt>
  <trkpt lat="5.742589" lon="-75.616762">
    <ele>653</ele>
    <time>2014-06-16T14:57:27Z</time>
    <speed>8.651424</speed>
  </trkpt>
  <trkpt lat="5.742527" lon="-75.616918">
    <ele>654</ele>
    <time>2014-06-16T14:57:29Z</time>
    <speed>10.106324</speed>
  </trkpt>
  <trkpt lat="5.742458" lon="-75.617078">
    <ele>656</ele>
    <time>2014-06-16T14:57:31Z</time>
    <speed>9.368618</speed>
  </trkpt>
  <trkpt lat="5.742382" lon="-75.617256">
    <ele>657</ele>
    <time>2014-06-16T14:57:33Z</time>
    <speed>9.259806</speed>
  </trkpt>
  <trkpt lat="5.742329" lon="-75.617401">
    <ele>657</ele>
    <time>2014-06-16T14:57:35Z</time>
    <speed>7.3324046</speed>
  </trkpt>
  <trkpt lat="5.742296" lon="-75.617528">
    <ele>657</ele>
    <time>2014-06-16T14:57:37Z</time>
    <speed>5.675103</speed>
  </trkpt>
  <trkpt lat="5.742303" lon="-75.617642">
    <ele>657</ele>
    <time>2014-06-16T14:57:39Z</time>
    <speed>5.7869296</speed>
  </trkpt>
  <trkpt lat="5.742336" lon="-75.617751">
    <ele>656</ele>
    <time>2014-06-16T14:57:41Z</time>
    <speed>7.270852</speed>
  </trkpt>
  <trkpt lat="5.742378" lon="-75.617892">
    <ele>655</ele>
    <time>2014-06-16T14:57:43Z</time>
    <speed>8.89582</speed>
  </trkpt>
  <trkpt lat="5.742429" lon="-75.618056">
    <ele>654</ele>
    <time>2014-06-16T14:57:45Z</time>
    <speed>7.9899745</speed>
  </trkpt>
  <trkpt lat="5.742484" lon="-75.618213">
    <ele>654</ele>
    <time>2014-06-16T14:57:47Z</time>
    <speed>8.356179</speed>
  </trkpt>
  <trkpt lat="5.742542" lon="-75.618386">
    <ele>651</ele>
    <time>2014-06-16T14:57:49Z</time>
    <speed>9.939189</speed>
  </trkpt>
  <trkpt lat="5.742613" lon="-75.618611">
    <ele>651</ele>
    <time>2014-06-16T14:57:51Z</time>
    <speed>9.948401</speed>
  </trkpt>
  <trkpt lat="5.742747" lon="-75.618783">
    <ele>650</ele>
    <time>2014-06-16T14:57:53Z</time>
    <speed>9.968008</speed>
  </trkpt>
  <trkpt lat="5.742927" lon="-75.618881">
    <ele>649</ele>
    <time>2014-06-16T14:57:55Z</time>
    <speed>8.543329</speed>
  </trkpt>
  <trkpt lat="5.743116" lon="-75.618899">
    <ele>648</ele>
    <time>2014-06-16T14:57:57Z</time>
    <speed>9.094027</speed>
  </trkpt>
  <trkpt lat="5.743323" lon="-75.618904">
    <ele>650</ele>
    <time>2014-06-16T14:57:59Z</time>
    <speed>11.575618</speed>
  </trkpt>
  <trkpt lat="5.743574" lon="-75.618924">
    <ele>648</ele>
    <time>2014-06-16T14:58:01Z</time>
    <speed>11.813777</speed>
  </trkpt>
  <trkpt lat="5.743868" lon="-75.618951">
    <ele>648</ele>
    <time>2014-06-16T14:58:03Z</time>
    <speed>12.91572</speed>
  </trkpt>
  <trkpt lat="5.744130" lon="-75.619007">
    <ele>645</ele>
    <time>2014-06-16T14:58:05Z</time>
    <speed>12.134263</speed>
  </trkpt>
  <trkpt lat="5.744319" lon="-75.619137">
    <ele>644</ele>
    <time>2014-06-16T14:58:07Z</time>
    <speed>12.009488</speed>
  </trkpt>
  <trkpt lat="5.744402" lon="-75.619339">
    <ele>641</ele>
    <time>2014-06-16T14:58:09Z</time>
    <speed>13.145633</speed>
  </trkpt>
  <trkpt lat="5.744463" lon="-75.619574">
    <ele>641</ele>
    <time>2014-06-16T14:58:11Z</time>
    <speed>13.564329</speed>
  </trkpt>
  <trkpt lat="5.744564" lon="-75.619846">
    <ele>640</ele>
    <time>2014-06-16T14:58:13Z</time>
    <speed>15.449251</speed>
  </trkpt>
  <trkpt lat="5.744743" lon="-75.620084">
    <ele>638</ele>
    <time>2014-06-16T14:58:15Z</time>
    <speed>15.474665</speed>
  </trkpt>
  <trkpt lat="5.744981" lon="-75.620302">
    <ele>636</ele>
    <time>2014-06-16T14:58:17Z</time>
    <speed>16.241539</speed>
  </trkpt>
  <trkpt lat="5.745210" lon="-75.620506">
    <ele>636</ele>
    <time>2014-06-16T14:58:19Z</time>
    <speed>15.881025</speed>
  </trkpt>
  <trkpt lat="5.745412" lon="-75.620696">
    <ele>633</ele>
    <time>2014-06-16T14:58:21Z</time>
    <speed>15.364406</speed>
  </trkpt>
  <trkpt lat="5.745582" lon="-75.620922">
    <ele>631</ele>
    <time>2014-06-16T14:58:23Z</time>
    <speed>16.257784</speed>
  </trkpt>
  <trkpt lat="5.745758" lon="-75.621187">
    <ele>632</ele>
    <time>2014-06-16T14:58:25Z</time>
    <speed>17.303677</speed>
  </trkpt>
  <trkpt lat="5.746014" lon="-75.621384">
    <ele>628</ele>
    <time>2014-06-16T14:58:27Z</time>
    <speed>16.800196</speed>
  </trkpt>
  <trkpt lat="5.746292" lon="-75.621580">
    <ele>627</ele>
    <time>2014-06-16T14:58:29Z</time>
    <speed>18.03767</speed>
  </trkpt>
  <trkpt lat="5.746596" lon="-75.621758">
    <ele>622</ele>
    <time>2014-06-16T14:58:31Z</time>
    <speed>18.030956</speed>
  </trkpt>
  <trkpt lat="5.746894" lon="-75.621915">
    <ele>618</ele>
    <time>2014-06-16T14:58:33Z</time>
    <speed>17.392813</speed>
  </trkpt>
  <trkpt lat="5.747179" lon="-75.622042">
    <ele>615</ele>
    <time>2014-06-16T14:58:35Z</time>
    <speed>15.006394</speed>
  </trkpt>
  <trkpt lat="5.747404" lon="-75.622165">
    <ele>613</ele>
    <time>2014-06-16T14:58:37Z</time>
    <speed>13.860008</speed>
  </trkpt>
  <trkpt lat="5.747576" lon="-75.622359">
    <ele>609</ele>
    <time>2014-06-16T14:58:39Z</time>
    <speed>13.564814</speed>
  </trkpt>
  <trkpt lat="5.747659" lon="-75.622574">
    <ele>608</ele>
    <time>2014-06-16T14:58:41Z</time>
    <speed>12.343598</speed>
  </trkpt>
  <trkpt lat="5.747650" lon="-75.622825">
    <ele>614</ele>
    <time>2014-06-16T14:58:43Z</time>
    <speed>15.274231</speed>
  </trkpt>
  <trkpt lat="5.747579" lon="-75.623110">
    <ele>607</ele>
    <time>2014-06-16T14:58:45Z</time>
    <speed>17.061499</speed>
  </trkpt>
  <trkpt lat="5.747488" lon="-75.623387">
    <ele>605</ele>
    <time>2014-06-16T14:58:47Z</time>
    <speed>13.565332</speed>
  </trkpt>
  <trkpt lat="5.747410" lon="-75.623662">
    <ele>601</ele>
    <time>2014-06-16T14:58:49Z</time>
    <speed>12.479683</speed>
  </trkpt>
  <trkpt lat="5.747349" lon="-75.623891">
    <ele>602</ele>
    <time>2014-06-16T14:58:51Z</time>
    <speed>11.171302</speed>
  </trkpt>
  <trkpt lat="5.747317" lon="-75.624094">
    <ele>600</ele>
    <time>2014-06-16T14:58:53Z</time>
    <speed>10.1503525</speed>
  </trkpt>
  <trkpt lat="5.747353" lon="-75.624265">
    <ele>602</ele>
    <time>2014-06-16T14:58:55Z</time>
    <speed>10.374251</speed>
  </trkpt>
  <trkpt lat="5.747466" lon="-75.624399">
    <ele>603</ele>
    <time>2014-06-16T14:58:57Z</time>
    <speed>11.122121</speed>
  </trkpt>
  <trkpt lat="5.747617" lon="-75.624528">
    <ele>603</ele>
    <time>2014-06-16T14:58:59Z</time>
    <speed>11.3055935</speed>
  </trkpt>
  <trkpt lat="5.747772" lon="-75.624658">
    <ele>604</ele>
    <time>2014-06-16T14:59:01Z</time>
    <speed>11.437042</speed>
  </trkpt>
  <trkpt lat="5.747869" lon="-75.624845">
    <ele>603</ele>
    <time>2014-06-16T14:59:03Z</time>
    <speed>11.5069475</speed>
  </trkpt>
  <trkpt lat="5.747930" lon="-75.625054">
    <ele>604</ele>
    <time>2014-06-16T14:59:05Z</time>
    <speed>12.104472</speed>
  </trkpt>
  <trkpt lat="5.747969" lon="-75.625263">
    <ele>604</ele>
    <time>2014-06-16T14:59:07Z</time>
    <speed>11.297866</speed>
  </trkpt>
  <trkpt lat="5.748008" lon="-75.625496">
    <ele>604</ele>
    <time>2014-06-16T14:59:09Z</time>
    <speed>13.120102</speed>
  </trkpt>
  <trkpt lat="5.748046" lon="-75.625742">
    <ele>603</ele>
    <time>2014-06-16T14:59:11Z</time>
    <speed>13.420396</speed>
  </trkpt>
  <trkpt lat="5.748094" lon="-75.626018">
    <ele>603</ele>
    <time>2014-06-16T14:59:13Z</time>
    <speed>14.132904</speed>
  </trkpt>
  <trkpt lat="5.748141" lon="-75.626268">
    <ele>603</ele>
    <time>2014-06-16T14:59:15Z</time>
    <speed>12.478485</speed>
  </trkpt>
  <trkpt lat="5.748188" lon="-75.626521">
    <ele>604</ele>
    <time>2014-06-16T14:59:17Z</time>
    <speed>13.319097</speed>
  </trkpt>
  <trkpt lat="5.748250" lon="-75.626849">
    <ele>602</ele>
    <time>2014-06-16T14:59:19Z</time>
    <speed>16.359163</speed>
  </trkpt>
  <trkpt lat="5.748337" lon="-75.627139">
    <ele>603</ele>
    <time>2014-06-16T14:59:21Z</time>
    <speed>16.437016</speed>
  </trkpt>
  <trkpt lat="5.748477" lon="-75.627419">
    <ele>603</ele>
    <time>2014-06-16T14:59:23Z</time>
    <speed>18.677874</speed>
  </trkpt>
  <trkpt lat="5.748788" lon="-75.627519">
    <ele>605</ele>
    <time>2014-06-16T14:59:25Z</time>
    <speed>16.054491</speed>
  </trkpt>
  <trkpt lat="5.749004" lon="-75.627564">
    <ele>605</ele>
    <time>2014-06-16T14:59:27Z</time>
    <speed>11.106016</speed>
  </trkpt>
  <trkpt lat="5.749182" lon="-75.627499">
    <ele>602</ele>
    <time>2014-06-16T14:59:29Z</time>
    <speed>8.436037</speed>
  </trkpt>
  <trkpt lat="5.749303" lon="-75.627449">
    <ele>601</ele>
    <time>2014-06-16T14:59:31Z</time>
    <speed>4.561853</speed>
  </trkpt>
  <trkpt lat="5.749266" lon="-75.627366">
    <ele>602</ele>
    <time>2014-06-16T14:59:49Z</time>
    <speed>1.197912</speed>
  </trkpt>
  <trkpt lat="5.749342" lon="-75.627357">
    <ele>603</ele>
    <time>2014-06-16T14:59:52Z</time>
    <speed>0.0</speed>
  </trkpt>
  <trkpt lat="5.749388" lon="-75.627352">
    <ele>601</ele>
    <time>2014-06-16T14:59:54Z</time>
    <speed>2.5463936</speed>
  </trkpt>
  <trkpt lat="5.749478" lon="-75.627308">
    <ele>602</ele>
    <time>2014-06-16T15:00:16Z</time>
    <speed>1.4759899</speed>
  </trkpt>
  <trkpt lat="5.749528" lon="-75.627305">
    <ele>601</ele>
    <time>2014-06-16T15:00:19Z</time>
    <speed>3.1291878</speed>
  </trkpt>
  <trkpt lat="5.749598" lon="-75.627290">
    <ele>602</ele>
    <time>2014-06-16T15:00:22Z</time>
    <speed>3.1038456</speed>
  </trkpt>
  <trkpt lat="5.749695" lon="-75.627275">
    <ele>601</ele>
    <time>2014-06-16T15:00:24Z</time>
    <speed>4.091787</speed>
  </trkpt>
  <trkpt lat="5.749812" lon="-75.627268">
    <ele>602</ele>
    <time>2014-06-16T15:00:26Z</time>
    <speed>5.569672</speed>
  </trkpt>
  <trkpt lat="5.749931" lon="-75.627259">
    <ele>603</ele>
    <time>2014-06-16T15:00:28Z</time>
    <speed>6.7891226</speed>
  </trkpt>
  <trkpt lat="5.750058" lon="-75.627269">
    <ele>602</ele>
    <time>2014-06-16T15:00:30Z</time>
    <speed>7.1035595</speed>
  </trkpt>
  <trkpt lat="5.750165" lon="-75.627303">
    <ele>603</ele>
    <time>2014-06-16T15:00:32Z</time>
    <speed>5.909957</speed>
  </trkpt>
  <trkpt lat="5.750252" lon="-75.627367">
    <ele>603</ele>
    <time>2014-06-16T15:00:34Z</time>
    <speed>5.924026</speed>
  </trkpt>
  <trkpt lat="5.750345" lon="-75.627436">
    <ele>604</ele>
    <time>2014-06-16T15:00:36Z</time>
    <speed>5.8892403</speed>
  </trkpt>
  <trkpt lat="5.750428" lon="-75.627530">
    <ele>604</ele>
    <time>2014-06-16T15:00:38Z</time>
    <speed>7.183176</speed>
  </trkpt>
  <trkpt lat="5.750499" lon="-75.627666">
    <ele>605</ele>
    <time>2014-06-16T15:00:40Z</time>
    <speed>8.097671</speed>
  </trkpt>
  <trkpt lat="5.750581" lon="-75.627827">
    <ele>604</ele>
    <time>2014-06-16T15:00:42Z</time>
    <speed>8.321666</speed>
  </trkpt>
  <trkpt lat="5.750661" lon="-75.627985">
    <ele>605</ele>
    <time>2014-06-16T15:00:44Z</time>
    <speed>8.046278</speed>
  </trkpt>
  <trkpt lat="5.750738" lon="-75.628140">
    <ele>606</ele>
    <time>2014-06-16T15:00:46Z</time>
    <speed>7.795593</speed>
  </trkpt>
  <trkpt lat="5.750804" lon="-75.628290">
    <ele>605</ele>
    <time>2014-06-16T15:00:48Z</time>
    <speed>7.962727</speed>
  </trkpt>
  <trkpt lat="5.750849" lon="-75.628418">
    <ele>607</ele>
    <time>2014-06-16T15:00:50Z</time>
    <speed>6.3545895</speed>
  </trkpt>
  <trkpt lat="5.750882" lon="-75.628525">
    <ele>607</ele>
    <time>2014-06-16T15:00:52Z</time>
    <speed>5.2644043</speed>
  </trkpt>
  <trkpt lat="5.750891" lon="-75.628583">
    <ele>606</ele>
    <time>2014-06-16T15:00:54Z</time>
    <speed>1.5863957</speed>
  </trkpt>
  <trkpt lat="5.750956" lon="-75.628549">
    <ele>607</ele>
    <time>2014-06-16T15:01:27Z</time>
    <speed>0.0</speed>
  </trkpt>
  <trkpt lat="5.750980" lon="-75.628597">
    <ele>609</ele>
    <time>2014-06-16T15:01:30Z</time>
    <speed>1.9752599</speed>
  </trkpt>
  <trkpt lat="5.750998" lon="-75.628675">
    <ele>608</ele>
    <time>2014-06-16T15:01:32Z</time>
    <speed>4.0813937</speed>
  </trkpt>
  <trkpt lat="5.751018" lon="-75.628781">
    <ele>610</ele>
    <time>2014-06-16T15:01:35Z</time>
    <speed>3.4460216</speed>
  </trkpt>
  <trkpt lat="5.751082" lon="-75.628988">
    <ele>613</ele>
    <time>2014-06-16T15:01:37Z</time>
    <speed>7.530867</speed>
  </trkpt>
  <trkpt lat="5.751142" lon="-75.629172">
    <ele>614</ele>
    <time>2014-06-16T15:01:39Z</time>
    <speed>9.022515</speed>
  </trkpt>
  <trkpt lat="5.751203" lon="-75.629379">
    <ele>616</ele>
    <time>2014-06-16T15:01:41Z</time>
    <speed>9.919031</speed>
  </trkpt>
  <trkpt lat="5.751261" lon="-75.629585">
    <ele>616</ele>
    <time>2014-06-16T15:01:43Z</time>
    <speed>10.343117</speed>
  </trkpt>
  <trkpt lat="5.751329" lon="-75.629794">
    <ele>620</ele>
    <time>2014-06-16T15:01:45Z</time>
    <speed>10.8417</speed>
  </trkpt>
  <trkpt lat="5.751409" lon="-75.630003">
    <ele>621</ele>
    <time>2014-06-16T15:01:47Z</time>
    <speed>11.303721</speed>
  </trkpt>
  <trkpt lat="5.751512" lon="-75.630187">
    <ele>622</ele>
    <time>2014-06-16T15:01:49Z</time>
    <speed>11.114372</speed>
  </trkpt>
  <trkpt lat="5.751663" lon="-75.630374">
    <ele>624</ele>
    <time>2014-06-16T15:01:51Z</time>
    <speed>12.403109</speed>
  </trkpt>
  <trkpt lat="5.751898" lon="-75.630499">
    <ele>626</ele>
    <time>2014-06-16T15:01:53Z</time>
    <speed>12.127585</speed>
  </trkpt>
  <trkpt lat="5.752139" lon="-75.630615">
    <ele>627</ele>
    <time>2014-06-16T15:01:55Z</time>
    <speed>13.831346</speed>
  </trkpt>
  <trkpt lat="5.752384" lon="-75.630725">
    <ele>630</ele>
    <time>2014-06-16T15:01:57Z</time>
    <speed>13.997145</speed>
  </trkpt>
  <trkpt lat="5.752642" lon="-75.630832">
    <ele>630</ele>
    <time>2014-06-16T15:01:59Z</time>
    <speed>14.387596</speed>
  </trkpt>
  <trkpt lat="5.752902" lon="-75.630937">
    <ele>633</ele>
    <time>2014-06-16T15:02:01Z</time>
    <speed>14.598615</speed>
  </trkpt>
  <trkpt lat="5.753144" lon="-75.631036">
    <ele>634</ele>
    <time>2014-06-16T15:02:03Z</time>
    <speed>14.987484</speed>
  </trkpt>
  <trkpt lat="5.753398" lon="-75.631144">
    <ele>637</ele>
    <time>2014-06-16T15:02:05Z</time>
    <speed>15.246984</speed>
  </trkpt>
  <trkpt lat="5.753653" lon="-75.631260">
    <ele>639</ele>
    <time>2014-06-16T15:02:07Z</time>
    <speed>15.505727</speed>
  </trkpt>
  <trkpt lat="5.753901" lon="-75.631402">
    <ele>642</ele>
    <time>2014-06-16T15:02:09Z</time>
    <speed>15.430753</speed>
  </trkpt>
  <trkpt lat="5.754146" lon="-75.631555">
    <ele>642</ele>
    <time>2014-06-16T15:02:11Z</time>
    <speed>15.343614</speed>
  </trkpt>
  <trkpt lat="5.754376" lon="-75.631698">
    <ele>643</ele>
    <time>2014-06-16T15:02:13Z</time>
    <speed>14.772369</speed>
  </trkpt>
  <trkpt lat="5.754578" lon="-75.631829">
    <ele>643</ele>
    <time>2014-06-16T15:02:15Z</time>
    <speed>12.861239</speed>
  </trkpt>
  <trkpt lat="5.754718" lon="-75.631999">
    <ele>643</ele>
    <time>2014-06-16T15:02:17Z</time>
    <speed>11.287311</speed>
  </trkpt>
  <trkpt lat="5.754772" lon="-75.632201">
    <ele>643</ele>
    <time>2014-06-16T15:02:19Z</time>
    <speed>11.889265</speed>
  </trkpt>
  <trkpt lat="5.754773" lon="-75.632419">
    <ele>640</ele>
    <time>2014-06-16T15:02:21Z</time>
    <speed>11.69332</speed>
  </trkpt>
  <trkpt lat="5.754740" lon="-75.632654">
    <ele>639</ele>
    <time>2014-06-16T15:02:23Z</time>
    <speed>12.311423</speed>
  </trkpt>
  <trkpt lat="5.754695" lon="-75.632855">
    <ele>636</ele>
    <time>2014-06-16T15:02:25Z</time>
    <speed>10.389049</speed>
  </trkpt>
  <trkpt lat="5.754754" lon="-75.633032">
    <ele>637</ele>
    <time>2014-06-16T15:02:27Z</time>
    <speed>10.29979</speed>
  </trkpt>
  <trkpt lat="5.754849" lon="-75.633194">
    <ele>636</ele>
    <time>2014-06-16T15:02:29Z</time>
    <speed>10.04256</speed>
  </trkpt>
  <trkpt lat="5.755020" lon="-75.633313">
    <ele>636</ele>
    <time>2014-06-16T15:02:31Z</time>
    <speed>11.531311</speed>
  </trkpt>
  <trkpt lat="5.755221" lon="-75.633472">
    <ele>635</ele>
    <time>2014-06-16T15:02:33Z</time>
    <speed>12.273851</speed>
  </trkpt>
  <trkpt lat="5.755336" lon="-75.633657">
    <ele>631</ele>
    <time>2014-06-16T15:02:35Z</time>
    <speed>10.106267</speed>
  </trkpt>
  <trkpt lat="5.755455" lon="-75.633814">
    <ele>631</ele>
    <time>2014-06-16T15:02:37Z</time>
    <speed>9.731848</speed>
  </trkpt>
  <trkpt lat="5.755557" lon="-75.634019">
    <ele>631</ele>
    <time>2014-06-16T15:02:39Z</time>
    <speed>10.340311</speed>
  </trkpt>
  <trkpt lat="5.755595" lon="-75.634259">
    <ele>630</ele>
    <time>2014-06-16T15:02:41Z</time>
    <speed>12.676484</speed>
  </trkpt>
  <trkpt lat="5.755605" lon="-75.634556">
    <ele>630</ele>
    <time>2014-06-16T15:02:43Z</time>
    <speed>12.75225</speed>
  </trkpt>
  <trkpt lat="5.755621" lon="-75.634859">
    <ele>628</ele>
    <time>2014-06-16T15:02:45Z</time>
    <speed>12.925299</speed>
  </trkpt>
  <trkpt lat="5.755699" lon="-75.635098">
    <ele>629</ele>
    <time>2014-06-16T15:02:47Z</time>
    <speed>12.184269</speed>
  </trkpt>
  <trkpt lat="5.755816" lon="-75.635320">
    <ele>629</ele>
    <time>2014-06-16T15:02:49Z</time>
    <speed>12.918707</speed>
  </trkpt>
  <trkpt lat="5.755965" lon="-75.635543">
    <ele>629</ele>
    <time>2014-06-16T15:02:51Z</time>
    <speed>13.556572</speed>
  </trkpt>
  <trkpt lat="5.756153" lon="-75.635784">
    <ele>629</ele>
    <time>2014-06-16T15:02:53Z</time>
    <speed>15.292273</speed>
  </trkpt>
  <trkpt lat="5.756341" lon="-75.636026">
    <ele>629</ele>
    <time>2014-06-16T15:02:55Z</time>
    <speed>14.606265</speed>
  </trkpt>
  <trkpt lat="5.756508" lon="-75.636244">
    <ele>630</ele>
    <time>2014-06-16T15:02:57Z</time>
    <speed>13.954846</speed>
  </trkpt>
  <trkpt lat="5.756692" lon="-75.636424">
    <ele>628</ele>
    <time>2014-06-16T15:02:59Z</time>
    <speed>13.818491</speed>
  </trkpt>
  <trkpt lat="5.756876" lon="-75.636597">
    <ele>627</ele>
    <time>2014-06-16T15:03:01Z</time>
    <speed>13.551455</speed>
  </trkpt>
  <trkpt lat="5.757074" lon="-75.636758">
    <ele>628</ele>
    <time>2014-06-16T15:03:03Z</time>
    <speed>13.189245</speed>
  </trkpt>
  <trkpt lat="5.757265" lon="-75.636927">
    <ele>628</ele>
    <time>2014-06-16T15:03:05Z</time>
    <speed>13.784734</speed>
  </trkpt>
  <trkpt lat="5.757458" lon="-75.637098">
    <ele>628</ele>
    <time>2014-06-16T15:03:07Z</time>
    <speed>14.608328</speed>
  </trkpt>
  <trkpt lat="5.757664" lon="-75.637291">
    <ele>628</ele>
    <time>2014-06-16T15:03:09Z</time>
    <speed>15.212952</speed>
  </trkpt>
  <trkpt lat="5.757877" lon="-75.637474">
    <ele>625</ele>
    <time>2014-06-16T15:03:11Z</time>
    <speed>15.016155</speed>
  </trkpt>
  <trkpt lat="5.758093" lon="-75.637675">
    <ele>624</ele>
    <time>2014-06-16T15:03:13Z</time>
    <speed>16.185165</speed>
  </trkpt>
  <trkpt lat="5.758324" lon="-75.637879">
    <ele>621</ele>
    <time>2014-06-16T15:03:15Z</time>
    <speed>15.974563</speed>
  </trkpt>
  <trkpt lat="5.758531" lon="-75.638048">
    <ele>617</ele>
    <time>2014-06-16T15:03:17Z</time>
    <speed>11.965081</speed>
  </trkpt>
  <trkpt lat="5.758666" lon="-75.638165">
    <ele>614</ele>
    <time>2014-06-16T15:03:19Z</time>
    <speed>8.732218</speed>
  </trkpt>
  <trkpt lat="5.758736" lon="-75.638251">
    <ele>613</ele>
    <time>2014-06-16T15:03:21Z</time>
    <speed>5.68349</speed>
  </trkpt>
  <trkpt lat="5.758782" lon="-75.638310">
    <ele>613</ele>
    <time>2014-06-16T15:03:23Z</time>
    <speed>4.0277586</speed>
  </trkpt>
  <trkpt lat="5.758846" lon="-75.638374">
    <ele>614</ele>
    <time>2014-06-16T15:03:25Z</time>
    <speed>5.183681</speed>
  </trkpt>
  <trkpt lat="5.758909" lon="-75.638447">
    <ele>614</ele>
    <time>2014-06-16T15:03:27Z</time>
    <speed>4.9564037</speed>
  </trkpt>
  <trkpt lat="5.758972" lon="-75.638540">
    <ele>614</ele>
    <time>2014-06-16T15:03:29Z</time>
    <speed>5.6858077</speed>
  </trkpt>
  <trkpt lat="5.759042" lon="-75.638642">
    <ele>614</ele>
    <time>2014-06-16T15:03:31Z</time>
    <speed>5.6870356</speed>
  </trkpt>
  <trkpt lat="5.759106" lon="-75.638733">
    <ele>614</ele>
    <time>2014-06-16T15:03:33Z</time>
    <speed>4.7655735</speed>
  </trkpt>
  <trkpt lat="5.759171" lon="-75.638820">
    <ele>615</ele>
    <time>2014-06-16T15:03:35Z</time>
    <speed>5.4018154</speed>
  </trkpt>
  <trkpt lat="5.759255" lon="-75.638932">
    <ele>614</ele>
    <time>2014-06-16T15:03:37Z</time>
    <speed>6.2646503</speed>
  </trkpt>
  <trkpt lat="5.759318" lon="-75.639056">
    <ele>614</ele>
    <time>2014-06-16T15:03:39Z</time>
    <speed>6.6664295</speed>
  </trkpt>
  <trkpt lat="5.759354" lon="-75.639188">
    <ele>615</ele>
    <time>2014-06-16T15:03:41Z</time>
    <speed>6.9669485</speed>
  </trkpt>
  <trkpt lat="5.759364" lon="-75.639330">
    <ele>615</ele>
    <time>2014-06-16T15:03:43Z</time>
    <speed>7.0858555</speed>
  </trkpt>
  <trkpt lat="5.759317" lon="-75.639473">
    <ele>615</ele>
    <time>2014-06-16T15:03:45Z</time>
    <speed>8.04762</speed>
  </trkpt>
  <trkpt lat="5.759234" lon="-75.639647">
    <ele>616</ele>
    <time>2014-06-16T15:03:47Z</time>
    <speed>10.011423</speed>
  </trkpt>
  <trkpt lat="5.759116" lon="-75.639852">
    <ele>615</ele>
    <time>2014-06-16T15:03:49Z</time>
    <speed>11.682027</speed>
  </trkpt>
  <trkpt lat="5.758976" lon="-75.640067">
    <ele>615</ele>
    <time>2014-06-16T15:03:51Z</time>
    <speed>11.48508</speed>
  </trkpt>
  <trkpt lat="5.758812" lon="-75.640271">
    <ele>614</ele>
    <time>2014-06-16T15:03:53Z</time>
    <speed>11.993387</speed>
  </trkpt>
  <trkpt lat="5.758635" lon="-75.640388">
    <ele>613</ele>
    <time>2014-06-16T15:03:55Z</time>
    <speed>11.503026</speed>
  </trkpt>
  <trkpt lat="5.758426" lon="-75.640456">
    <ele>613</ele>
    <time>2014-06-16T15:03:57Z</time>
    <speed>11.32758</speed>
  </trkpt>
  <trkpt lat="5.758150" lon="-75.640533">
    <ele>612</ele>
    <time>2014-06-16T15:03:59Z</time>
    <speed>12.598517</speed>
  </trkpt>
  <trkpt lat="5.757900" lon="-75.640599">
    <ele>610</ele>
    <time>2014-06-16T15:04:01Z</time>
    <speed>12.120916</speed>
  </trkpt>
  <trkpt lat="5.757654" lon="-75.640655">
    <ele>609</ele>
    <time>2014-06-16T15:04:03Z</time>
    <speed>12.608322</speed>
  </trkpt>
  <trkpt lat="5.757414" lon="-75.640712">
    <ele>607</ele>
    <time>2014-06-16T15:04:05Z</time>
    <speed>12.955171</speed>
  </trkpt>
  <trkpt lat="5.757196" lon="-75.640773">
    <ele>606</ele>
    <time>2014-06-16T15:04:07Z</time>
    <speed>11.500466</speed>
  </trkpt>
  <trkpt lat="5.757001" lon="-75.640851">
    <ele>604</ele>
    <time>2014-06-16T15:04:09Z</time>
    <speed>10.736128</speed>
  </trkpt>
  <trkpt lat="5.756857" lon="-75.640968">
    <ele>603</ele>
    <time>2014-06-16T15:04:11Z</time>
    <speed>9.696007</speed>
  </trkpt>
  <trkpt lat="5.756738" lon="-75.641089">
    <ele>601</ele>
    <time>2014-06-16T15:04:13Z</time>
    <speed>9.918413</speed>
  </trkpt>
  <trkpt lat="5.756723" lon="-75.641272">
    <ele>602</ele>
    <time>2014-06-16T15:04:15Z</time>
    <speed>9.875831</speed>
  </trkpt>
  <trkpt lat="5.756753" lon="-75.641485">
    <ele>602</ele>
    <time>2014-06-16T15:04:17Z</time>
    <speed>10.103672</speed>
  </trkpt>
  <trkpt lat="5.756793" lon="-75.641692">
    <ele>602</ele>
    <time>2014-06-16T15:04:19Z</time>
    <speed>10.528695</speed>
  </trkpt>
  <trkpt lat="5.756832" lon="-75.641882">
    <ele>603</ele>
    <time>2014-06-16T15:04:21Z</time>
    <speed>9.51073</speed>
  </trkpt>
  <trkpt lat="5.756882" lon="-75.642059">
    <ele>603</ele>
    <time>2014-06-16T15:04:23Z</time>
    <speed>9.230651</speed>
  </trkpt>
  <trkpt lat="5.756938" lon="-75.642241">
    <ele>604</ele>
    <time>2014-06-16T15:04:25Z</time>
    <speed>10.199533</speed>
  </trkpt>
  <trkpt lat="5.756985" lon="-75.642428">
    <ele>603</ele>
    <time>2014-06-16T15:04:27Z</time>
    <speed>9.513848</speed>
  </trkpt>
  <trkpt lat="5.757022" lon="-75.642598">
    <ele>603</ele>
    <time>2014-06-16T15:04:29Z</time>
    <speed>9.454857</speed>
  </trkpt>
  <trkpt lat="5.757054" lon="-75.642762">
    <ele>603</ele>
    <time>2014-06-16T15:04:31Z</time>
    <speed>9.31523</speed>
  </trkpt>
  <trkpt lat="5.757090" lon="-75.642930">
    <ele>603</ele>
    <time>2014-06-16T15:04:33Z</time>
    <speed>9.398752</speed>
  </trkpt>
  <trkpt lat="5.757129" lon="-75.643103">
    <ele>602</ele>
    <time>2014-06-16T15:04:35Z</time>
    <speed>9.249197</speed>
  </trkpt>
  <trkpt lat="5.757171" lon="-75.643276">
    <ele>603</ele>
    <time>2014-06-16T15:04:37Z</time>
    <speed>8.808655</speed>
  </trkpt>
  <trkpt lat="5.757243" lon="-75.643410">
    <ele>603</ele>
    <time>2014-06-16T15:04:39Z</time>
    <speed>8.591927</speed>
  </trkpt>
  <trkpt lat="5.757342" lon="-75.643505">
    <ele>602</ele>
    <time>2014-06-16T15:04:41Z</time>
    <speed>5.9662876</speed>
  </trkpt>
  <trkpt lat="5.757408" lon="-75.643546">
    <ele>601</ele>
    <time>2014-06-16T15:04:43Z</time>
    <speed>2.483325</speed>
  </trkpt>
  <trkpt lat="5.757467" lon="-75.643565">
    <ele>602</ele>
    <time>2014-06-16T15:04:45Z</time>
    <speed>2.5460503</speed>
  </trkpt>
  <trkpt lat="5.757549" lon="-75.643573">
    <ele>602</ele>
    <time>2014-06-16T15:04:47Z</time>
    <speed>3.3434885</speed>
  </trkpt>
  <trkpt lat="5.757632" lon="-75.643564">
    <ele>603</ele>
    <time>2014-06-16T15:04:49Z</time>
    <speed>3.6912892</speed>
  </trkpt>
  <trkpt lat="5.757705" lon="-75.643554">
    <ele>605</ele>
    <time>2014-06-16T15:04:51Z</time>
    <speed>4.212481</speed>
  </trkpt>
  <trkpt lat="5.757779" lon="-75.643548">
    <ele>604</ele>
    <time>2014-06-16T15:04:53Z</time>
    <speed>3.9974363</speed>
  </trkpt>
  <trkpt lat="5.757860" lon="-75.643545">
    <ele>605</ele>
    <time>2014-06-16T15:04:55Z</time>
    <speed>4.263113</speed>
  </trkpt>
  <trkpt lat="5.757935" lon="-75.643543">
    <ele>604</ele>
    <time>2014-06-16T15:04:57Z</time>
    <speed>4.086549</speed>
  </trkpt>
  <trkpt lat="5.758021" lon="-75.643554">
    <ele>606</ele>
    <time>2014-06-16T15:04:59Z</time>
    <speed>4.801944</speed>
  </trkpt>
  <trkpt lat="5.758113" lon="-75.643571">
    <ele>607</ele>
    <time>2014-06-16T15:05:01Z</time>
    <speed>5.232561</speed>
  </trkpt>
  <trkpt lat="5.758235" lon="-75.643583">
    <ele>608</ele>
    <time>2014-06-16T15:05:03Z</time>
    <speed>5.8902335</speed>
  </trkpt>
  <trkpt lat="5.758389" lon="-75.643598">
    <ele>608</ele>
    <time>2014-06-16T15:05:05Z</time>
    <speed>7.6441655</speed>
  </trkpt>
  <trkpt lat="5.758581" lon="-75.643631">
    <ele>609</ele>
    <time>2014-06-16T15:05:07Z</time>
    <speed>9.322443</speed>
  </trkpt>
  <trkpt lat="5.758781" lon="-75.643666">
    <ele>611</ele>
    <time>2014-06-16T15:05:09Z</time>
    <speed>10.063365</speed>
  </trkpt>
  <trkpt lat="5.758977" lon="-75.643713">
    <ele>611</ele>
    <time>2014-06-16T15:05:11Z</time>
    <speed>11.807002</speed>
  </trkpt>
  <trkpt lat="5.759187" lon="-75.643790">
    <ele>610</ele>
    <time>2014-06-16T15:05:13Z</time>
    <speed>12.223255</speed>
  </trkpt>
  <trkpt lat="5.759383" lon="-75.643886">
    <ele>611</ele>
    <time>2014-06-16T15:05:15Z</time>
    <speed>12.926811</speed>
  </trkpt>
  <trkpt lat="5.759608" lon="-75.644013">
    <ele>610</ele>
    <time>2014-06-16T15:05:17Z</time>
    <speed>13.786834</speed>
  </trkpt>
  <trkpt lat="5.759834" lon="-75.644143">
    <ele>611</ele>
    <time>2014-06-16T15:05:19Z</time>
    <speed>14.42852</speed>
  </trkpt>
  <trkpt lat="5.760075" lon="-75.644284">
    <ele>610</ele>
    <time>2014-06-16T15:05:21Z</time>
    <speed>14.508781</speed>
  </trkpt>
  <trkpt lat="5.760312" lon="-75.644424">
    <ele>611</ele>
    <time>2014-06-16T15:05:23Z</time>
    <speed>14.942302</speed>
  </trkpt>
  <trkpt lat="5.760539" lon="-75.644561">
    <ele>610</ele>
    <time>2014-06-16T15:05:25Z</time>
    <speed>15.038935</speed>
  </trkpt>
  <trkpt lat="5.760802" lon="-75.644704">
    <ele>609</ele>
    <time>2014-06-16T15:05:27Z</time>
    <speed>15.411959</speed>
  </trkpt>
  <trkpt lat="5.761049" lon="-75.644835">
    <ele>609</ele>
    <time>2014-06-16T15:05:29Z</time>
    <speed>14.60659</speed>
  </trkpt>
  <trkpt lat="5.761268" lon="-75.644953">
    <ele>608</ele>
    <time>2014-06-16T15:05:31Z</time>
    <speed>14.23811</speed>
  </trkpt>
  <trkpt lat="5.761491" lon="-75.645054">
    <ele>608</ele>
    <time>2014-06-16T15:05:33Z</time>
    <speed>14.026449</speed>
  </trkpt>
  <trkpt lat="5.761753" lon="-75.645081">
    <ele>607</ele>
    <time>2014-06-16T15:05:35Z</time>
    <speed>14.020358</speed>
  </trkpt>
  <trkpt lat="5.762019" lon="-75.645103">
    <ele>607</ele>
    <time>2014-06-16T15:05:37Z</time>
    <speed>14.603905</speed>
  </trkpt>
  <trkpt lat="5.762287" lon="-75.645117">
    <ele>608</ele>
    <time>2014-06-16T15:05:39Z</time>
    <speed>15.133829</speed>
  </trkpt>
  <trkpt lat="5.762574" lon="-75.645114">
    <ele>609</ele>
    <time>2014-06-16T15:05:41Z</time>
    <speed>15.483745</speed>
  </trkpt>
  <trkpt lat="5.762875" lon="-75.645102">
    <ele>610</ele>
    <time>2014-06-16T15:05:43Z</time>
    <speed>16.265137</speed>
  </trkpt>
  <trkpt lat="5.763179" lon="-75.645093">
    <ele>610</ele>
    <time>2014-06-16T15:05:45Z</time>
    <speed>16.741407</speed>
  </trkpt>
  <trkpt lat="5.763475" lon="-75.645079">
    <ele>610</ele>
    <time>2014-06-16T15:05:47Z</time>
    <speed>16.33978</speed>
  </trkpt>
  <trkpt lat="5.763768" lon="-75.645069">
    <ele>611</ele>
    <time>2014-06-16T15:05:49Z</time>
    <speed>15.64175</speed>
  </trkpt>
  <trkpt lat="5.764076" lon="-75.645060">
    <ele>611</ele>
    <time>2014-06-16T15:05:51Z</time>
    <speed>15.267954</speed>
  </trkpt>
  <trkpt lat="5.764353" lon="-75.645047">
    <ele>611</ele>
    <time>2014-06-16T15:05:53Z</time>
    <speed>15.284036</speed>
  </trkpt>
  <trkpt lat="5.764636" lon="-75.645037">
    <ele>612</ele>
    <time>2014-06-16T15:05:55Z</time>
    <speed>15.49945</speed>
  </trkpt>
  <trkpt lat="5.764918" lon="-75.645035">
    <ele>611</ele>
    <time>2014-06-16T15:05:57Z</time>
    <speed>16.122019</speed>
  </trkpt>
  <trkpt lat="5.765229" lon="-75.645060">
    <ele>612</ele>
    <time>2014-06-16T15:05:59Z</time>
    <speed>16.631687</speed>
  </trkpt>
  <trkpt lat="5.765544" lon="-75.645130">
    <ele>613</ele>
    <time>2014-06-16T15:06:01Z</time>
    <speed>16.904732</speed>
  </trkpt>
  <trkpt lat="5.765847" lon="-75.645237">
    <ele>613</ele>
    <time>2014-06-16T15:06:03Z</time>
    <speed>16.939926</speed>
  </trkpt>
  <trkpt lat="5.766129" lon="-75.645427">
    <ele>615</ele>
    <time>2014-06-16T15:06:05Z</time>
    <speed>17.917429</speed>
  </trkpt>
  <trkpt lat="5.766395" lon="-75.645639">
    <ele>615</ele>
    <time>2014-06-16T15:06:07Z</time>
    <speed>18.556435</speed>
  </trkpt>
  <trkpt lat="5.766678" lon="-75.645864">
    <ele>614</ele>
    <time>2014-06-16T15:06:09Z</time>
    <speed>19.269596</speed>
  </trkpt>
  <trkpt lat="5.766958" lon="-75.646090">
    <ele>614</ele>
    <time>2014-06-16T15:06:11Z</time>
    <speed>19.137505</speed>
  </trkpt>
  <trkpt lat="5.767236" lon="-75.646312">
    <ele>614</ele>
    <time>2014-06-16T15:06:13Z</time>
    <speed>17.64914</speed>
  </trkpt>
  <trkpt lat="5.767493" lon="-75.646482">
    <ele>615</ele>
    <time>2014-06-16T15:06:15Z</time>
    <speed>16.065863</speed>
  </trkpt>
  <trkpt lat="5.767760" lon="-75.646613">
    <ele>613</ele>
    <time>2014-06-16T15:06:17Z</time>
    <speed>15.349175</speed>
  </trkpt>
  <trkpt lat="5.768066" lon="-75.646578">
    <ele>614</ele>
    <time>2014-06-16T15:06:19Z</time>
    <speed>15.647882</speed>
  </trkpt>
  <trkpt lat="5.768369" lon="-75.646529">
    <ele>612</ele>
    <time>2014-06-16T15:06:21Z</time>
    <speed>16.016401</speed>
  </trkpt>
  <trkpt lat="5.768657" lon="-75.646456">
    <ele>609</ele>
    <time>2014-06-16T15:06:23Z</time>
    <speed>16.397682</speed>
  </trkpt>
  <trkpt lat="5.768953" lon="-75.646491">
    <ele>608</ele>
    <time>2014-06-16T15:06:25Z</time>
    <speed>16.355824</speed>
  </trkpt>
  <trkpt lat="5.769275" lon="-75.646597">
    <ele>610</ele>
    <time>2014-06-16T15:06:27Z</time>
    <speed>17.080385</speed>
  </trkpt>
  <trkpt lat="5.769591" lon="-75.646699">
    <ele>609</ele>
    <time>2014-06-16T15:06:29Z</time>
    <speed>17.889385</speed>
  </trkpt>
  <trkpt lat="5.769911" lon="-75.646802">
    <ele>611</ele>
    <time>2014-06-16T15:06:31Z</time>
    <speed>17.319874</speed>
  </trkpt>
  <trkpt lat="5.770218" lon="-75.646902">
    <ele>611</ele>
    <time>2014-06-16T15:06:33Z</time>
    <speed>17.274347</speed>
  </trkpt>
  <trkpt lat="5.770502" lon="-75.646989">
    <ele>611</ele>
    <time>2014-06-16T15:06:35Z</time>
    <speed>16.711052</speed>
  </trkpt>
  <trkpt lat="5.770790" lon="-75.647068">
    <ele>611</ele>
    <time>2014-06-16T15:06:37Z</time>
    <speed>16.449848</speed>
  </trkpt>
  <trkpt lat="5.771087" lon="-75.647152">
    <ele>612</ele>
    <time>2014-06-16T15:06:39Z</time>
    <speed>16.430733</speed>
  </trkpt>
  <trkpt lat="5.771380" lon="-75.647242">
    <ele>613</ele>
    <time>2014-06-16T15:06:41Z</time>
    <speed>16.396336</speed>
  </trkpt>
  <trkpt lat="5.771669" lon="-75.647325">
    <ele>615</ele>
    <time>2014-06-16T15:06:43Z</time>
    <speed>16.402044</speed>
  </trkpt>
  <trkpt lat="5.771968" lon="-75.647318">
    <ele>616</ele>
    <time>2014-06-16T15:06:45Z</time>
    <speed>16.233438</speed>
  </trkpt>
  <trkpt lat="5.772234" lon="-75.647226">
    <ele>617</ele>
    <time>2014-06-16T15:06:47Z</time>
    <speed>16.38205</speed>
  </trkpt>
  <trkpt lat="5.772502" lon="-75.647124">
    <ele>616</ele>
    <time>2014-06-16T15:06:49Z</time>
    <speed>14.430317</speed>
  </trkpt>
  <trkpt lat="5.772737" lon="-75.647096">
    <ele>617</ele>
    <time>2014-06-16T15:06:51Z</time>
    <speed>12.975572</speed>
  </trkpt>
  <trkpt lat="5.772948" lon="-75.647113">
    <ele>618</ele>
    <time>2014-06-16T15:06:53Z</time>
    <speed>12.220264</speed>
  </trkpt>
  <trkpt lat="5.773142" lon="-75.647156">
    <ele>619</ele>
    <time>2014-06-16T15:06:55Z</time>
    <speed>11.832082</speed>
  </trkpt>
  <trkpt lat="5.773363" lon="-75.647220">
    <ele>621</ele>
    <time>2014-06-16T15:06:57Z</time>
    <speed>13.335244</speed>
  </trkpt>
  <trkpt lat="5.773588" lon="-75.647303">
    <ele>620</ele>
    <time>2014-06-16T15:06:59Z</time>
    <speed>12.186729</speed>
  </trkpt>
  <trkpt lat="5.773811" lon="-75.647417">
    <ele>622</ele>
    <time>2014-06-16T15:07:01Z</time>
    <speed>13.084233</speed>
  </trkpt>
  <trkpt lat="5.774028" lon="-75.647508">
    <ele>622</ele>
    <time>2014-06-16T15:07:03Z</time>
    <speed>11.854995</speed>
  </trkpt>
  <trkpt lat="5.774259" lon="-75.647600">
    <ele>623</ele>
    <time>2014-06-16T15:07:05Z</time>
    <speed>12.521354</speed>
  </trkpt>
  <trkpt lat="5.774486" lon="-75.647688">
    <ele>626</ele>
    <time>2014-06-16T15:07:07Z</time>
    <speed>11.967953</speed>
  </trkpt>
  <trkpt lat="5.774726" lon="-75.647768">
    <ele>628</ele>
    <time>2014-06-16T15:07:09Z</time>
    <speed>13.012598</speed>
  </trkpt>
  <trkpt lat="5.774979" lon="-75.647858">
    <ele>628</ele>
    <time>2014-06-16T15:07:11Z</time>
    <speed>12.5457</speed>
  </trkpt>
  <trkpt lat="5.775229" lon="-75.647940">
    <ele>630</ele>
    <time>2014-06-16T15:07:13Z</time>
    <speed>12.727496</speed>
  </trkpt>
  <trkpt lat="5.775487" lon="-75.647996">
    <ele>630</ele>
    <time>2014-06-16T15:07:15Z</time>
    <speed>13.797051</speed>
  </trkpt>
  <trkpt lat="5.775738" lon="-75.648061">
    <ele>632</ele>
    <time>2014-06-16T15:07:17Z</time>
    <speed>13.775209</speed>
  </trkpt>
  <trkpt lat="5.775985" lon="-75.648146">
    <ele>633</ele>
    <time>2014-06-16T15:07:19Z</time>
    <speed>13.319709</speed>
  </trkpt>
  <trkpt lat="5.776237" lon="-75.648254">
    <ele>634</ele>
    <time>2014-06-16T15:07:21Z</time>
    <speed>14.629149</speed>
  </trkpt>
  <trkpt lat="5.776540" lon="-75.648410">
    <ele>637</ele>
    <time>2014-06-16T15:07:23Z</time>
    <speed>15.360346</speed>
  </trkpt>
  <trkpt lat="5.776801" lon="-75.648574">
    <ele>637</ele>
    <time>2014-06-16T15:07:25Z</time>
    <speed>15.056031</speed>
  </trkpt>
  <trkpt lat="5.777060" lon="-75.648743">
    <ele>638</ele>
    <time>2014-06-16T15:07:27Z</time>
    <speed>15.80623</speed>
  </trkpt>
  <trkpt lat="5.777316" lon="-75.648905">
    <ele>638</ele>
    <time>2014-06-16T15:07:29Z</time>
    <speed>16.242285</speed>
  </trkpt>
  <trkpt lat="5.777580" lon="-75.649077">
    <ele>638</ele>
    <time>2014-06-16T15:07:31Z</time>
    <speed>15.868114</speed>
  </trkpt>
  <trkpt lat="5.777851" lon="-75.649249">
    <ele>636</ele>
    <time>2014-06-16T15:07:33Z</time>
    <speed>16.952143</speed>
  </trkpt>
  <trkpt lat="5.778128" lon="-75.649416">
    <ele>636</ele>
    <time>2014-06-16T15:07:35Z</time>
    <speed>17.50768</speed>
  </trkpt>
  <trkpt lat="5.778397" lon="-75.649582">
    <ele>635</ele>
    <time>2014-06-16T15:07:37Z</time>
    <speed>17.757746</speed>
  </trkpt>
  <trkpt lat="5.778670" lon="-75.649754">
    <ele>635</ele>
    <time>2014-06-16T15:07:39Z</time>
    <speed>17.181595</speed>
  </trkpt>
  <trkpt lat="5.778943" lon="-75.649921">
    <ele>634</ele>
    <time>2014-06-16T15:07:41Z</time>
    <speed>17.431759</speed>
  </trkpt>
  <trkpt lat="5.779200" lon="-75.650086">
    <ele>632</ele>
    <time>2014-06-16T15:07:43Z</time>
    <speed>14.708439</speed>
  </trkpt>
  <trkpt lat="5.779424" lon="-75.650227">
    <ele>632</ele>
    <time>2014-06-16T15:07:45Z</time>
    <speed>14.624631</speed>
  </trkpt>
  <trkpt lat="5.779653" lon="-75.650382">
    <ele>632</ele>
    <time>2014-06-16T15:07:47Z</time>
    <speed>14.833408</speed>
  </trkpt>
  <trkpt lat="5.779855" lon="-75.650558">
    <ele>630</ele>
    <time>2014-06-16T15:07:49Z</time>
    <speed>14.681773</speed>
  </trkpt>
  <trkpt lat="5.779974" lon="-75.650834">
    <ele>631</ele>
    <time>2014-06-16T15:07:51Z</time>
    <speed>16.237728</speed>
  </trkpt>
  <trkpt lat="5.780089" lon="-75.651141">
    <ele>631</ele>
    <time>2014-06-16T15:07:53Z</time>
    <speed>16.6779</speed>
  </trkpt>
  <trkpt lat="5.780210" lon="-75.651446">
    <ele>628</ele>
    <time>2014-06-16T15:07:55Z</time>
    <speed>16.563408</speed>
  </trkpt>
  <trkpt lat="5.780326" lon="-75.651765">
    <ele>624</ele>
    <time>2014-06-16T15:07:57Z</time>
    <speed>15.678112</speed>
  </trkpt>
  <trkpt lat="5.780449" lon="-75.652018">
    <ele>624</ele>
    <time>2014-06-16T15:07:59Z</time>
    <speed>14.94593</speed>
  </trkpt>
  <trkpt lat="5.780618" lon="-75.652178">
    <ele>624</ele>
    <time>2014-06-16T15:08:01Z</time>
    <speed>14.024568</speed>
  </trkpt>
  <trkpt lat="5.780911" lon="-75.652194">
    <ele>624</ele>
    <time>2014-06-16T15:08:03Z</time>
    <speed>15.7924595</speed>
  </trkpt>
  <trkpt lat="5.781257" lon="-75.652164">
    <ele>625</ele>
    <time>2014-06-16T15:08:05Z</time>
    <speed>16.699997</speed>
  </trkpt>
  <trkpt lat="5.781583" lon="-75.652142">
    <ele>627</ele>
    <time>2014-06-16T15:08:07Z</time>
    <speed>17.163904</speed>
  </trkpt>
  <trkpt lat="5.781896" lon="-75.652133">
    <ele>630</ele>
    <time>2014-06-16T15:08:09Z</time>
    <speed>16.809095</speed>
  </trkpt>
  <trkpt lat="5.782192" lon="-75.652131">
    <ele>628</ele>
    <time>2014-06-16T15:08:11Z</time>
    <speed>16.357567</speed>
  </trkpt>
  <trkpt lat="5.782473" lon="-75.652216">
    <ele>630</ele>
    <time>2014-06-16T15:08:13Z</time>
    <speed>16.732769</speed>
  </trkpt>
  <trkpt lat="5.782729" lon="-75.652355">
    <ele>631</ele>
    <time>2014-06-16T15:08:15Z</time>
    <speed>16.67454</speed>
  </trkpt>
  <trkpt lat="5.782995" lon="-75.652513">
    <ele>631</ele>
    <time>2014-06-16T15:08:17Z</time>
    <speed>17.757969</speed>
  </trkpt>
  <trkpt lat="5.783267" lon="-75.652676">
    <ele>630</ele>
    <time>2014-06-16T15:08:19Z</time>
    <speed>17.53242</speed>
  </trkpt>
  <trkpt lat="5.783538" lon="-75.652843">
    <ele>626</ele>
    <time>2014-06-16T15:08:21Z</time>
    <speed>17.394907</speed>
  </trkpt>
  <trkpt lat="5.783772" lon="-75.652987">
    <ele>621</ele>
    <time>2014-06-16T15:08:23Z</time>
    <speed>13.033161</speed>
  </trkpt>
  <trkpt lat="5.783973" lon="-75.653121">
    <ele>620</ele>
    <time>2014-06-16T15:08:25Z</time>
    <speed>11.229178</speed>
  </trkpt>
  <trkpt lat="5.784147" lon="-75.653240">
    <ele>620</ele>
    <time>2014-06-16T15:08:27Z</time>
    <speed>10.309284</speed>
  </trkpt>
  <trkpt lat="5.784302" lon="-75.653338">
    <ele>622</ele>
    <time>2014-06-16T15:08:29Z</time>
    <speed>10.496036</speed>
  </trkpt>
  <trkpt lat="5.784448" lon="-75.653425">
    <ele>623</ele>
    <time>2014-06-16T15:08:31Z</time>
    <speed>11.031483</speed>
  </trkpt>
  <trkpt lat="5.784629" lon="-75.653537">
    <ele>624</ele>
    <time>2014-06-16T15:08:33Z</time>
    <speed>11.077937</speed>
  </trkpt>
  <trkpt lat="5.784808" lon="-75.653646">
    <ele>625</ele>
    <time>2014-06-16T15:08:35Z</time>
    <speed>11.325231</speed>
  </trkpt>
  <trkpt lat="5.784993" lon="-75.653768">
    <ele>627</ele>
    <time>2014-06-16T15:08:37Z</time>
    <speed>12.004357</speed>
  </trkpt>
  <trkpt lat="5.785161" lon="-75.653878">
    <ele>628</ele>
    <time>2014-06-16T15:08:39Z</time>
    <speed>11.41969</speed>
  </trkpt>
  <trkpt lat="5.785350" lon="-75.653994">
    <ele>629</ele>
    <time>2014-06-16T15:08:41Z</time>
    <speed>11.742832</speed>
  </trkpt>
  <trkpt lat="5.785537" lon="-75.654115">
    <ele>631</ele>
    <time>2014-06-16T15:08:43Z</time>
    <speed>12.3320265</speed>
  </trkpt>
  <trkpt lat="5.785717" lon="-75.654219">
    <ele>629</ele>
    <time>2014-06-16T15:08:45Z</time>
    <speed>11.796278</speed>
  </trkpt>
  <trkpt lat="5.785914" lon="-75.654326">
    <ele>629</ele>
    <time>2014-06-16T15:08:47Z</time>
    <speed>11.719969</speed>
  </trkpt>
  <trkpt lat="5.786121" lon="-75.654415">
    <ele>627</ele>
    <time>2014-06-16T15:08:49Z</time>
    <speed>11.771586</speed>
  </trkpt>
  <trkpt lat="5.786355" lon="-75.654476">
    <ele>627</ele>
    <time>2014-06-16T15:08:51Z</time>
    <speed>11.782245</speed>
  </trkpt>
  <trkpt lat="5.786591" lon="-75.654496">
    <ele>628</ele>
    <time>2014-06-16T15:08:53Z</time>
    <speed>12.309768</speed>
  </trkpt>
  <trkpt lat="5.786848" lon="-75.654514">
    <ele>629</ele>
    <time>2014-06-16T15:08:55Z</time>
    <speed>13.40155</speed>
  </trkpt>
  <trkpt lat="5.787124" lon="-75.654529">
    <ele>630</ele>
    <time>2014-06-16T15:08:57Z</time>
    <speed>14.462932</speed>
  </trkpt>
  <trkpt lat="5.787409" lon="-75.654556">
    <ele>631</ele>
    <time>2014-06-16T15:08:59Z</time>
    <speed>15.190322</speed>
  </trkpt>
  <trkpt lat="5.787686" lon="-75.654587">
    <ele>632</ele>
    <time>2014-06-16T15:09:01Z</time>
    <speed>15.517295</speed>
  </trkpt>
  <trkpt lat="5.787957" lon="-75.654602">
    <ele>632</ele>
    <time>2014-06-16T15:09:03Z</time>
    <speed>14.876337</speed>
  </trkpt>
  <trkpt lat="5.788226" lon="-75.654603">
    <ele>631</ele>
    <time>2014-06-16T15:09:05Z</time>
    <speed>14.609457</speed>
  </trkpt>
  <trkpt lat="5.788495" lon="-75.654626">
    <ele>631</ele>
    <time>2014-06-16T15:09:07Z</time>
    <speed>14.421811</speed>
  </trkpt>
  <trkpt lat="5.788754" lon="-75.654656">
    <ele>628</ele>
    <time>2014-06-16T15:09:09Z</time>
    <speed>14.005922</speed>
  </trkpt>
  <trkpt lat="5.789002" lon="-75.654697">
    <ele>628</ele>
    <time>2014-06-16T15:09:11Z</time>
    <speed>13.606808</speed>
  </trkpt>
  <trkpt lat="5.789223" lon="-75.654866">
    <ele>627</ele>
    <time>2014-06-16T15:09:13Z</time>
    <speed>14.023918</speed>
  </trkpt>
  <trkpt lat="5.789452" lon="-75.655114">
    <ele>630</ele>
    <time>2014-06-16T15:09:15Z</time>
    <speed>15.433924</speed>
  </trkpt>
  <trkpt lat="5.789679" lon="-75.655293">
    <ele>630</ele>
    <time>2014-06-16T15:09:17Z</time>
    <speed>14.037725</speed>
  </trkpt>
  <trkpt lat="5.789913" lon="-75.655471">
    <ele>630</ele>
    <time>2014-06-16T15:09:19Z</time>
    <speed>15.023886</speed>
  </trkpt>
  <trkpt lat="5.790138" lon="-75.655643">
    <ele>630</ele>
    <time>2014-06-16T15:09:21Z</time>
    <speed>14.784817</speed>
  </trkpt>
  <trkpt lat="5.790351" lon="-75.655814">
    <ele>630</ele>
    <time>2014-06-16T15:09:23Z</time>
    <speed>14.515747</speed>
  </trkpt>
  <trkpt lat="5.790562" lon="-75.655978">
    <ele>628</ele>
    <time>2014-06-16T15:09:25Z</time>
    <speed>14.600182</speed>
  </trkpt>
  <trkpt lat="5.790779" lon="-75.656117">
    <ele>624</ele>
    <time>2014-06-16T15:09:27Z</time>
    <speed>13.8281555</speed>
  </trkpt>
  <trkpt lat="5.790968" lon="-75.656226">
    <ele>624</ele>
    <time>2014-06-16T15:09:29Z</time>
    <speed>11.5277815</speed>
  </trkpt>
  <trkpt lat="5.791138" lon="-75.656343">
    <ele>623</ele>
    <time>2014-06-16T15:09:31Z</time>
    <speed>13.013174</speed>
  </trkpt>
  <trkpt lat="5.791328" lon="-75.656484">
    <ele>624</ele>
    <time>2014-06-16T15:09:33Z</time>
    <speed>13.852826</speed>
  </trkpt>
  <trkpt lat="5.791556" lon="-75.656663">
    <ele>622</ele>
    <time>2014-06-16T15:09:35Z</time>
    <speed>15.172655</speed>
  </trkpt>
  <trkpt lat="5.791798" lon="-75.656847">
    <ele>621</ele>
    <time>2014-06-16T15:09:37Z</time>
    <speed>15.184883</speed>
  </trkpt>
  <trkpt lat="5.791995" lon="-75.656997">
    <ele>621</ele>
    <time>2014-06-16T15:09:39Z</time>
    <speed>13.592634</speed>
  </trkpt>
  <trkpt lat="5.792188" lon="-75.657151">
    <ele>620</ele>
    <time>2014-06-16T15:09:41Z</time>
    <speed>14.137548</speed>
  </trkpt>
  <trkpt lat="5.792414" lon="-75.657321">
    <ele>620</ele>
    <time>2014-06-16T15:09:43Z</time>
    <speed>15.561201</speed>
  </trkpt>
  <trkpt lat="5.792679" lon="-75.657507">
    <ele>618</ele>
    <time>2014-06-16T15:09:45Z</time>
    <speed>17.240122</speed>
  </trkpt>
  <trkpt lat="5.792956" lon="-75.657701">
    <ele>615</ele>
    <time>2014-06-16T15:09:47Z</time>
    <speed>17.729109</speed>
  </trkpt>
  <trkpt lat="5.793217" lon="-75.657899">
    <ele>614</ele>
    <time>2014-06-16T15:09:49Z</time>
    <speed>17.098421</speed>
  </trkpt>
  <trkpt lat="5.793477" lon="-75.658094">
    <ele>612</ele>
    <time>2014-06-16T15:09:51Z</time>
    <speed>17.310114</speed>
  </trkpt>
  <trkpt lat="5.793740" lon="-75.658285">
    <ele>611</ele>
    <time>2014-06-16T15:09:53Z</time>
    <speed>16.560257</speed>
  </trkpt>
  <trkpt lat="5.794000" lon="-75.658455">
    <ele>612</ele>
    <time>2014-06-16T15:09:55Z</time>
    <speed>16.379475</speed>
  </trkpt>
  <trkpt lat="5.794236" lon="-75.658630">
    <ele>610</ele>
    <time>2014-06-16T15:09:57Z</time>
    <speed>16.334991</speed>
  </trkpt>
  <trkpt lat="5.794451" lon="-75.658837">
    <ele>612</ele>
    <time>2014-06-16T15:09:59Z</time>
    <speed>16.163542</speed>
  </trkpt>
  <trkpt lat="5.794593" lon="-75.659096">
    <ele>613</ele>
    <time>2014-06-16T15:10:01Z</time>
    <speed>16.664377</speed>
  </trkpt>
  <trkpt lat="5.794737" lon="-75.659385">
    <ele>615</ele>
    <time>2014-06-16T15:10:03Z</time>
    <speed>16.877739</speed>
  </trkpt>
  <trkpt lat="5.794870" lon="-75.659673">
    <ele>615</ele>
    <time>2014-06-16T15:10:05Z</time>
    <speed>16.79471</speed>
  </trkpt>
  <trkpt lat="5.794992" lon="-75.659968">
    <ele>616</ele>
    <time>2014-06-16T15:10:07Z</time>
    <speed>17.166811</speed>
  </trkpt>
  <trkpt lat="5.795119" lon="-75.660252">
    <ele>615</ele>
    <time>2014-06-16T15:10:09Z</time>
    <speed>16.60336</speed>
  </trkpt>
  <trkpt lat="5.795247" lon="-75.660535">
    <ele>614</ele>
    <time>2014-06-16T15:10:11Z</time>
    <speed>16.304111</speed>
  </trkpt>
  <trkpt lat="5.795389" lon="-75.660834">
    <ele>612</ele>
    <time>2014-06-16T15:10:13Z</time>
    <speed>17.474205</speed>
  </trkpt>
  <trkpt lat="5.795539" lon="-75.661122">
    <ele>610</ele>
    <time>2014-06-16T15:10:15Z</time>
    <speed>17.583864</speed>
  </trkpt>
  <trkpt lat="5.795692" lon="-75.661406">
    <ele>608</ele>
    <time>2014-06-16T15:10:17Z</time>
    <speed>17.374615</speed>
  </trkpt>
  <trkpt lat="5.795842" lon="-75.661674">
    <ele>607</ele>
    <time>2014-06-16T15:10:19Z</time>
    <speed>16.502699</speed>
  </trkpt>
  <trkpt lat="5.795980" lon="-75.661918">
    <ele>603</ele>
    <time>2014-06-16T15:10:21Z</time>
    <speed>14.956328</speed>
  </trkpt>
  <trkpt lat="5.796112" lon="-75.662162">
    <ele>600</ele>
    <time>2014-06-16T15:10:23Z</time>
    <speed>14.5435</speed>
  </trkpt>
  <trkpt lat="5.796174" lon="-75.662412">
    <ele>600</ele>
    <time>2014-06-16T15:10:25Z</time>
    <speed>14.691044</speed>
  </trkpt>
  <trkpt lat="5.796174" lon="-75.662683">
    <ele>600</ele>
    <time>2014-06-16T15:10:27Z</time>
    <speed>15.781712</speed>
  </trkpt>
  <trkpt lat="5.796159" lon="-75.662970">
    <ele>598</ele>
    <time>2014-06-16T15:10:29Z</time>
    <speed>15.507454</speed>
  </trkpt>
  <trkpt lat="5.796178" lon="-75.663248">
    <ele>595</ele>
    <time>2014-06-16T15:10:31Z</time>
    <speed>14.84565</speed>
  </trkpt>
  <trkpt lat="5.796311" lon="-75.663477">
    <ele>594</ele>
    <time>2014-06-16T15:10:33Z</time>
    <speed>13.224988</speed>
  </trkpt>
  <trkpt lat="5.796435" lon="-75.663683">
    <ele>593</ele>
    <time>2014-06-16T15:10:35Z</time>
    <speed>12.372272</speed>
  </trkpt>
  <trkpt lat="5.796574" lon="-75.663837">
    <ele>592</ele>
    <time>2014-06-16T15:10:37Z</time>
    <speed>11.037026</speed>
  </trkpt>
  <trkpt lat="5.796758" lon="-75.663912">
    <ele>593</ele>
    <time>2014-06-16T15:10:39Z</time>
    <speed>10.857316</speed>
  </trkpt>
  <trkpt lat="5.796952" lon="-75.663907">
    <ele>592</ele>
    <time>2014-06-16T15:10:41Z</time>
    <speed>9.235054</speed>
  </trkpt>
  <trkpt lat="5.797124" lon="-75.663884">
    <ele>593</ele>
    <time>2014-06-16T15:10:43Z</time>
    <speed>8.346656</speed>
  </trkpt>
  <trkpt lat="5.797292" lon="-75.663845">
    <ele>592</ele>
    <time>2014-06-16T15:10:45Z</time>
    <speed>8.468014</speed>
  </trkpt>
  <trkpt lat="5.797456" lon="-75.663825">
    <ele>592</ele>
    <time>2014-06-16T15:10:47Z</time>
    <speed>8.513604</speed>
  </trkpt>
  <trkpt lat="5.797637" lon="-75.663864">
    <ele>592</ele>
    <time>2014-06-16T15:10:49Z</time>
    <speed>9.82526</speed>
  </trkpt>
  <trkpt lat="5.797793" lon="-75.664006">
    <ele>593</ele>
    <time>2014-06-16T15:10:51Z</time>
    <speed>11.95503</speed>
  </trkpt>
  <trkpt lat="5.797956" lon="-75.664193">
    <ele>594</ele>
    <time>2014-06-16T15:10:53Z</time>
    <speed>13.522291</speed>
  </trkpt>
  <trkpt lat="5.798106" lon="-75.664390">
    <ele>593</ele>
    <time>2014-06-16T15:10:55Z</time>
    <speed>14.640086</speed>
  </trkpt>
  <trkpt lat="5.798273" lon="-75.664627">
    <ele>594</ele>
    <time>2014-06-16T15:10:57Z</time>
    <speed>16.180012</speed>
  </trkpt>
  <trkpt lat="5.798413" lon="-75.664882">
    <ele>595</ele>
    <time>2014-06-16T15:10:59Z</time>
    <speed>16.62338</speed>
  </trkpt>
  <trkpt lat="5.798495" lon="-75.665189">
    <ele>596</ele>
    <time>2014-06-16T15:11:01Z</time>
    <speed>17.14555</speed>
  </trkpt>
  <trkpt lat="5.798574" lon="-75.665520">
    <ele>595</ele>
    <time>2014-06-16T15:11:03Z</time>
    <speed>17.14621</speed>
  </trkpt>
  <trkpt lat="5.798644" lon="-75.665841">
    <ele>597</ele>
    <time>2014-06-16T15:11:05Z</time>
    <speed>17.187391</speed>
  </trkpt>
  <trkpt lat="5.798722" lon="-75.666148">
    <ele>599</ele>
    <time>2014-06-16T15:11:07Z</time>
    <speed>17.270073</speed>
  </trkpt>
  <trkpt lat="5.798794" lon="-75.666455">
    <ele>599</ele>
    <time>2014-06-16T15:11:09Z</time>
    <speed>17.196285</speed>
  </trkpt>
  <trkpt lat="5.798865" lon="-75.666765">
    <ele>601</ele>
    <time>2014-06-16T15:11:11Z</time>
    <speed>17.048655</speed>
  </trkpt>
  <trkpt lat="5.798940" lon="-75.667063">
    <ele>601</ele>
    <time>2014-06-16T15:11:13Z</time>
    <speed>16.939917</speed>
  </trkpt>
  <trkpt lat="5.799019" lon="-75.667384">
    <ele>601</ele>
    <time>2014-06-16T15:11:15Z</time>
    <speed>16.867702</speed>
  </trkpt>
  <trkpt lat="5.799085" lon="-75.667668">
    <ele>601</ele>
    <time>2014-06-16T15:11:17Z</time>
    <speed>14.913245</speed>
  </trkpt>
  <trkpt lat="5.799135" lon="-75.667935">
    <ele>603</ele>
    <time>2014-06-16T15:11:19Z</time>
    <speed>14.933821</speed>
  </trkpt>
  <trkpt lat="5.799151" lon="-75.668201">
    <ele>605</ele>
    <time>2014-06-16T15:11:21Z</time>
    <speed>14.855779</speed>
  </trkpt>
  <trkpt lat="5.799140" lon="-75.668485">
    <ele>606</ele>
    <time>2014-06-16T15:11:23Z</time>
    <speed>15.5469675</speed>
  </trkpt>
  <trkpt lat="5.799119" lon="-75.668763">
    <ele>606</ele>
    <time>2014-06-16T15:11:25Z</time>
    <speed>14.016299</speed>
  </trkpt>
  <trkpt lat="5.799094" lon="-75.669028">
    <ele>607</ele>
    <time>2014-06-16T15:11:27Z</time>
    <speed>13.164111</speed>
  </trkpt>
  <trkpt lat="5.799088" lon="-75.669308">
    <ele>608</ele>
    <time>2014-06-16T15:11:29Z</time>
    <speed>15.654529</speed>
  </trkpt>
  <trkpt lat="5.799115" lon="-75.669592">
    <ele>607</ele>
    <time>2014-06-16T15:11:31Z</time>
    <speed>14.957058</speed>
  </trkpt>
  <trkpt lat="5.799155" lon="-75.669856">
    <ele>609</ele>
    <time>2014-06-16T15:11:33Z</time>
    <speed>14.667339</speed>
  </trkpt>
  <trkpt lat="5.799113" lon="-75.670076">
    <ele>609</ele>
    <time>2014-06-16T15:11:35Z</time>
    <speed>11.431517</speed>
  </trkpt>
  <trkpt lat="5.798981" lon="-75.670298">
    <ele>610</ele>
    <time>2014-06-16T15:11:37Z</time>
    <speed>13.614916</speed>
  </trkpt>
  <trkpt lat="5.798834" lon="-75.670524">
    <ele>610</ele>
    <time>2014-06-16T15:11:39Z</time>
    <speed>14.61186</speed>
  </trkpt>
  <trkpt lat="5.798708" lon="-75.670717">
    <ele>608</ele>
    <time>2014-06-16T15:11:41Z</time>
    <speed>12.873122</speed>
  </trkpt>
  <trkpt lat="5.798662" lon="-75.670916">
    <ele>608</ele>
    <time>2014-06-16T15:11:43Z</time>
    <speed>11.379372</speed>
  </trkpt>
  <trkpt lat="5.798675" lon="-75.671148">
    <ele>609</ele>
    <time>2014-06-16T15:11:45Z</time>
    <speed>11.512548</speed>
  </trkpt>
  <trkpt lat="5.798748" lon="-75.671348">
    <ele>608</ele>
    <time>2014-06-16T15:11:47Z</time>
    <speed>11.196435</speed>
  </trkpt>
  <trkpt lat="5.798835" lon="-75.671530">
    <ele>609</ele>
    <time>2014-06-16T15:11:49Z</time>
    <speed>11.189278</speed>
  </trkpt>
  <trkpt lat="5.798985" lon="-75.671682">
    <ele>610</ele>
    <time>2014-06-16T15:11:51Z</time>
    <speed>10.821229</speed>
  </trkpt>
  <trkpt lat="5.799198" lon="-75.671731">
    <ele>611</ele>
    <time>2014-06-16T15:11:53Z</time>
    <speed>11.9478855</speed>
  </trkpt>
  <trkpt lat="5.799403" lon="-75.671685">
    <ele>610</ele>
    <time>2014-06-16T15:11:55Z</time>
    <speed>9.502959</speed>
  </trkpt>
  <trkpt lat="5.799556" lon="-75.671637">
    <ele>607</ele>
    <time>2014-06-16T15:11:57Z</time>
    <speed>8.440261</speed>
  </trkpt>
  <trkpt lat="5.799686" lon="-75.671593">
    <ele>607</ele>
    <time>2014-06-16T15:11:59Z</time>
    <speed>6.5114937</speed>
  </trkpt>
  <trkpt lat="5.799832" lon="-75.671536">
    <ele>607</ele>
    <time>2014-06-16T15:12:01Z</time>
    <speed>7.666779</speed>
  </trkpt>
  <trkpt lat="5.799982" lon="-75.671484">
    <ele>607</ele>
    <time>2014-06-16T15:12:03Z</time>
    <speed>7.2917995</speed>
  </trkpt>
  <trkpt lat="5.800128" lon="-75.671445">
    <ele>608</ele>
    <time>2014-06-16T15:12:05Z</time>
    <speed>6.884327</speed>
  </trkpt>
  <trkpt lat="5.800290" lon="-75.671415">
    <ele>606</ele>
    <time>2014-06-16T15:12:07Z</time>
    <speed>8.341944</speed>
  </trkpt>
  <trkpt lat="5.800461" lon="-75.671390">
    <ele>608</ele>
    <time>2014-06-16T15:12:09Z</time>
    <speed>9.132798</speed>
  </trkpt>
  <trkpt lat="5.800649" lon="-75.671383">
    <ele>608</ele>
    <time>2014-06-16T15:12:11Z</time>
    <speed>9.068424</speed>
  </trkpt>
  <trkpt lat="5.800883" lon="-75.671424">
    <ele>608</ele>
    <time>2014-06-16T15:12:13Z</time>
    <speed>11.888648</speed>
  </trkpt>
  <trkpt lat="5.801130" lon="-75.671458">
    <ele>608</ele>
    <time>2014-06-16T15:12:15Z</time>
    <speed>11.974956</speed>
  </trkpt>
  <trkpt lat="5.801401" lon="-75.671491">
    <ele>608</ele>
    <time>2014-06-16T15:12:17Z</time>
    <speed>13.187178</speed>
  </trkpt>
  <trkpt lat="5.801648" lon="-75.671522">
    <ele>608</ele>
    <time>2014-06-16T15:12:19Z</time>
    <speed>13.3774805</speed>
  </trkpt>
  <trkpt lat="5.801877" lon="-75.671577">
    <ele>609</ele>
    <time>2014-06-16T15:12:21Z</time>
    <speed>12.6225395</speed>
  </trkpt>
  <trkpt lat="5.802098" lon="-75.671693">
    <ele>609</ele>
    <time>2014-06-16T15:12:23Z</time>
    <speed>13.724267</speed>
  </trkpt>
  <trkpt lat="5.802340" lon="-75.671819">
    <ele>607</ele>
    <time>2014-06-16T15:12:25Z</time>
    <speed>14.2360325</speed>
  </trkpt>
  <trkpt lat="5.802560" lon="-75.671937">
    <ele>607</ele>
    <time>2014-06-16T15:12:27Z</time>
    <speed>13.726856</speed>
  </trkpt>
  <trkpt lat="5.802802" lon="-75.672065">
    <ele>607</ele>
    <time>2014-06-16T15:12:29Z</time>
    <speed>14.155735</speed>
  </trkpt>
  <trkpt lat="5.803048" lon="-75.672199">
    <ele>606</ele>
    <time>2014-06-16T15:12:31Z</time>
    <speed>14.302667</speed>
  </trkpt>
  <trkpt lat="5.803303" lon="-75.672330">
    <ele>608</ele>
    <time>2014-06-16T15:12:33Z</time>
    <speed>14.393819</speed>
  </trkpt>
  <trkpt lat="5.803550" lon="-75.672455">
    <ele>609</ele>
    <time>2014-06-16T15:12:35Z</time>
    <speed>14.152721</speed>
  </trkpt>
  <trkpt lat="5.803779" lon="-75.672572">
    <ele>612</ele>
    <time>2014-06-16T15:12:37Z</time>
    <speed>14.741459</speed>
  </trkpt>
  <trkpt lat="5.804022" lon="-75.672701">
    <ele>611</ele>
    <time>2014-06-16T15:12:39Z</time>
    <speed>14.764034</speed>
  </trkpt>
  <trkpt lat="5.804246" lon="-75.672805">
    <ele>611</ele>
    <time>2014-06-16T15:12:41Z</time>
    <speed>14.140675</speed>
  </trkpt>
  <trkpt lat="5.804500" lon="-75.672887">
    <ele>612</ele>
    <time>2014-06-16T15:12:43Z</time>
    <speed>14.429767</speed>
  </trkpt>
  <trkpt lat="5.804768" lon="-75.672975">
    <ele>612</ele>
    <time>2014-06-16T15:12:45Z</time>
    <speed>15.314172</speed>
  </trkpt>
  <trkpt lat="5.805040" lon="-75.673059">
    <ele>613</ele>
    <time>2014-06-16T15:12:47Z</time>
    <speed>15.129958</speed>
  </trkpt>
  <trkpt lat="5.805302" lon="-75.673138">
    <ele>614</ele>
    <time>2014-06-16T15:12:49Z</time>
    <speed>15.58236</speed>
  </trkpt>
  <trkpt lat="5.805577" lon="-75.673221">
    <ele>613</ele>
    <time>2014-06-16T15:12:51Z</time>
    <speed>15.474167</speed>
  </trkpt>
  <trkpt lat="5.805850" lon="-75.673306">
    <ele>613</ele>
    <time>2014-06-16T15:12:53Z</time>
    <speed>14.558735</speed>
  </trkpt>
  <trkpt lat="5.806099" lon="-75.673369">
    <ele>612</ele>
    <time>2014-06-16T15:12:55Z</time>
    <speed>13.226492</speed>
  </trkpt>
  <trkpt lat="5.806312" lon="-75.673423">
    <ele>613</ele>
    <time>2014-06-16T15:12:57Z</time>
    <speed>11.548512</speed>
  </trkpt>
  <trkpt lat="5.806472" lon="-75.673553">
    <ele>613</ele>
    <time>2014-06-16T15:12:59Z</time>
    <speed>12.3234415</speed>
  </trkpt>
  <trkpt lat="5.806598" lon="-75.673739">
    <ele>613</ele>
    <time>2014-06-16T15:13:01Z</time>
    <speed>12.998182</speed>
  </trkpt>
  <trkpt lat="5.806717" lon="-75.673959">
    <ele>614</ele>
    <time>2014-06-16T15:13:03Z</time>
    <speed>14.082033</speed>
  </trkpt>
  <trkpt lat="5.806839" lon="-75.674218">
    <ele>613</ele>
    <time>2014-06-16T15:13:05Z</time>
    <speed>15.457324</speed>
  </trkpt>
  <trkpt lat="5.806932" lon="-75.674478">
    <ele>611</ele>
    <time>2014-06-16T15:13:07Z</time>
    <speed>15.331903</speed>
  </trkpt>
  <trkpt lat="5.807017" lon="-75.674729">
    <ele>612</ele>
    <time>2014-06-16T15:13:09Z</time>
    <speed>13.890165</speed>
  </trkpt>
  <trkpt lat="5.807081" lon="-75.674944">
    <ele>612</ele>
    <time>2014-06-16T15:13:11Z</time>
    <speed>12.642906</speed>
  </trkpt>
  <trkpt lat="5.807176" lon="-75.675129">
    <ele>612</ele>
    <time>2014-06-16T15:13:13Z</time>
    <speed>12.077657</speed>
  </trkpt>
  <trkpt lat="5.807369" lon="-75.675261">
    <ele>611</ele>
    <time>2014-06-16T15:13:15Z</time>
    <speed>12.554428</speed>
  </trkpt>
  <trkpt lat="5.807614" lon="-75.675340">
    <ele>612</ele>
    <time>2014-06-16T15:13:17Z</time>
    <speed>12.1564665</speed>
  </trkpt>
  <trkpt lat="5.807861" lon="-75.675364">
    <ele>612</ele>
    <time>2014-06-16T15:13:19Z</time>
    <speed>12.037165</speed>
  </trkpt>
  <trkpt lat="5.808120" lon="-75.675197">
    <ele>613</ele>
    <time>2014-06-16T15:13:21Z</time>
    <speed>13.908832</speed>
  </trkpt>
  <trkpt lat="5.808347" lon="-75.674950">
    <ele>614</ele>
    <time>2014-06-16T15:13:23Z</time>
    <speed>14.808456</speed>
  </trkpt>
  <trkpt lat="5.808568" lon="-75.674758">
    <ele>612</ele>
    <time>2014-06-16T15:13:25Z</time>
    <speed>14.306711</speed>
  </trkpt>
  <trkpt lat="5.808783" lon="-75.674647">
    <ele>611</ele>
    <time>2014-06-16T15:13:27Z</time>
    <speed>13.142269</speed>
  </trkpt>
  <trkpt lat="5.809008" lon="-75.674740">
    <ele>610</ele>
    <time>2014-06-16T15:13:29Z</time>
    <speed>13.533109</speed>
  </trkpt>
  <trkpt lat="5.809217" lon="-75.674929">
    <ele>609</ele>
    <time>2014-06-16T15:13:31Z</time>
    <speed>15.04039</speed>
  </trkpt>
  <trkpt lat="5.809429" lon="-75.675177">
    <ele>609</ele>
    <time>2014-06-16T15:13:33Z</time>
    <speed>16.671612</speed>
  </trkpt>
  <trkpt lat="5.809638" lon="-75.675418">
    <ele>609</ele>
    <time>2014-06-16T15:13:35Z</time>
    <speed>17.5471</speed>
  </trkpt>
  <trkpt lat="5.809864" lon="-75.675649">
    <ele>607</ele>
    <time>2014-06-16T15:13:37Z</time>
    <speed>17.060474</speed>
  </trkpt>
  <trkpt lat="5.810100" lon="-75.675873">
    <ele>604</ele>
    <time>2014-06-16T15:13:39Z</time>
    <speed>17.088219</speed>
  </trkpt>
  <trkpt lat="5.810329" lon="-75.676097">
    <ele>605</ele>
    <time>2014-06-16T15:13:41Z</time>
    <speed>16.74657</speed>
  </trkpt>
  <trkpt lat="5.810560" lon="-75.676322">
    <ele>608</ele>
    <time>2014-06-16T15:13:43Z</time>
    <speed>17.150587</speed>
  </trkpt>
  <trkpt lat="5.810780" lon="-75.676544">
    <ele>606</ele>
    <time>2014-06-16T15:13:45Z</time>
    <speed>16.917978</speed>
  </trkpt>
  <trkpt lat="5.810998" lon="-75.676775">
    <ele>606</ele>
    <time>2014-06-16T15:13:47Z</time>
    <speed>17.729954</speed>
  </trkpt>
  <trkpt lat="5.811217" lon="-75.677003">
    <ele>606</ele>
    <time>2014-06-16T15:13:49Z</time>
    <speed>17.618921</speed>
  </trkpt>
  <trkpt lat="5.811446" lon="-75.677235">
    <ele>604</ele>
    <time>2014-06-16T15:13:51Z</time>
    <speed>17.530859</speed>
  </trkpt>
  <trkpt lat="5.811650" lon="-75.677484">
    <ele>605</ele>
    <time>2014-06-16T15:13:53Z</time>
    <speed>17.272276</speed>
  </trkpt>
  <trkpt lat="5.811827" lon="-75.677759">
    <ele>604</ele>
    <time>2014-06-16T15:13:55Z</time>
    <speed>17.5217</speed>
  </trkpt>
  <trkpt lat="5.811955" lon="-75.678051">
    <ele>601</ele>
    <time>2014-06-16T15:13:57Z</time>
    <speed>16.556532</speed>
  </trkpt>
  <trkpt lat="5.812064" lon="-75.678289">
    <ele>598</ele>
    <time>2014-06-16T15:13:59Z</time>
    <speed>13.337803</speed>
  </trkpt>
  <trkpt lat="5.812126" lon="-75.678470">
    <ele>595</ele>
    <time>2014-06-16T15:14:01Z</time>
    <speed>9.553701</speed>
  </trkpt>
  <trkpt lat="5.812145" lon="-75.678563">
    <ele>595</ele>
    <time>2014-06-16T15:14:03Z</time>
    <speed>3.2883039</speed>
  </trkpt>
  <trkpt lat="5.812067" lon="-75.678547">
    <ele>595</ele>
    <time>2014-06-16T15:16:20Z</time>
    <speed>1.7449679</speed>
  </trkpt>
  <trkpt lat="5.812069" lon="-75.678605">
    <ele>597</ele>
    <time>2014-06-16T15:16:22Z</time>
    <speed>4.301366</speed>
  </trkpt>
  <trkpt lat="5.812096" lon="-75.678671">
    <ele>596</ele>
    <time>2014-06-16T15:16:24Z</time>
    <speed>4.456393</speed>
  </trkpt>
  <trkpt lat="5.812135" lon="-75.678747">
    <ele>595</ele>
    <time>2014-06-16T15:16:26Z</time>
    <speed>4.5879946</speed>
  </trkpt>
  <trkpt lat="5.812194" lon="-75.678836">
    <ele>598</ele>
    <time>2014-06-16T15:16:28Z</time>
    <speed>5.140982</speed>
  </trkpt>
  <trkpt lat="5.812267" lon="-75.679004">
    <ele>599</ele>
    <time>2014-06-16T15:16:30Z</time>
    <speed>10.7266445</speed>
  </trkpt>
  <trkpt lat="5.812346" lon="-75.679189">
    <ele>599</ele>
    <time>2014-06-16T15:16:32Z</time>
    <speed>9.727898</speed>
  </trkpt>
  <trkpt lat="5.812442" lon="-75.679392">
    <ele>600</ele>
    <time>2014-06-16T15:16:34Z</time>
    <speed>10.322207</speed>
  </trkpt>
  <trkpt lat="5.812573" lon="-75.679658">
    <ele>602</ele>
    <time>2014-06-16T15:16:36Z</time>
    <speed>9.035562</speed>
  </trkpt>
  <trkpt lat="5.812661" lon="-75.679874">
    <ele>602</ele>
    <time>2014-06-16T15:16:38Z</time>
    <speed>10.243414</speed>
  </trkpt>
  <trkpt lat="5.812755" lon="-75.680096">
    <ele>604</ele>
    <time>2014-06-16T15:16:40Z</time>
    <speed>11.822377</speed>
  </trkpt>
  <trkpt lat="5.812849" lon="-75.680331">
    <ele>603</ele>
    <time>2014-06-16T15:16:42Z</time>
    <speed>11.56218</speed>
  </trkpt>
  <trkpt lat="5.812941" lon="-75.680571">
    <ele>602</ele>
    <time>2014-06-16T15:16:44Z</time>
    <speed>11.853866</speed>
  </trkpt>
  <trkpt lat="5.813053" lon="-75.680842">
    <ele>602</ele>
    <time>2014-06-16T15:16:46Z</time>
    <speed>13.076006</speed>
  </trkpt>
  <trkpt lat="5.813153" lon="-75.681106">
    <ele>600</ele>
    <time>2014-06-16T15:16:48Z</time>
    <speed>12.536628</speed>
  </trkpt>
  <trkpt lat="5.813233" lon="-75.681333">
    <ele>602</ele>
    <time>2014-06-16T15:16:50Z</time>
    <speed>12.393781</speed>
  </trkpt>
  <trkpt lat="5.813310" lon="-75.681549">
    <ele>603</ele>
    <time>2014-06-16T15:16:52Z</time>
    <speed>12.501188</speed>
  </trkpt>
  <trkpt lat="5.813402" lon="-75.681789">
    <ele>605</ele>
    <time>2014-06-16T15:16:54Z</time>
    <speed>13.475316</speed>
  </trkpt>
  <trkpt lat="5.813501" lon="-75.682056">
    <ele>605</ele>
    <time>2014-06-16T15:16:56Z</time>
    <speed>13.787073</speed>
  </trkpt>
  <trkpt lat="5.813566" lon="-75.682330">
    <ele>605</ele>
    <time>2014-06-16T15:16:58Z</time>
    <speed>13.516202</speed>
  </trkpt>
  <trkpt lat="5.813599" lon="-75.682562">
    <ele>606</ele>
    <time>2014-06-16T15:17:00Z</time>
    <speed>11.4618435</speed>
  </trkpt>
  <trkpt lat="5.813625" lon="-75.682779">
    <ele>605</ele>
    <time>2014-06-16T15:17:02Z</time>
    <speed>9.860166</speed>
  </trkpt>
  <trkpt lat="5.813647" lon="-75.682990">
    <ele>605</ele>
    <time>2014-06-16T15:17:04Z</time>
    <speed>10.045393</speed>
  </trkpt>
  <trkpt lat="5.813549" lon="-75.683222">
    <ele>602</ele>
    <time>2014-06-16T15:17:06Z</time>
    <speed>12.129852</speed>
  </trkpt>
  <trkpt lat="5.813457" lon="-75.683446">
    <ele>601</ele>
    <time>2014-06-16T15:17:08Z</time>
    <speed>11.504362</speed>
  </trkpt>
  <trkpt lat="5.813411" lon="-75.683681">
    <ele>602</ele>
    <time>2014-06-16T15:17:10Z</time>
    <speed>10.85222</speed>
  </trkpt>
  <trkpt lat="5.813448" lon="-75.683883">
    <ele>601</ele>
    <time>2014-06-16T15:17:12Z</time>
    <speed>10.191892</speed>
  </trkpt>
  <trkpt lat="5.813565" lon="-75.684031">
    <ele>602</ele>
    <time>2014-06-16T15:17:14Z</time>
    <speed>10.486729</speed>
  </trkpt>
  <trkpt lat="5.813768" lon="-75.684154">
    <ele>602</ele>
    <time>2014-06-16T15:17:16Z</time>
    <speed>11.950639</speed>
  </trkpt>
  <trkpt lat="5.813988" lon="-75.684276">
    <ele>604</ele>
    <time>2014-06-16T15:17:18Z</time>
    <speed>11.048216</speed>
  </trkpt>
  <trkpt lat="5.814147" lon="-75.684368">
    <ele>603</ele>
    <time>2014-06-16T15:17:20Z</time>
    <speed>8.880942</speed>
  </trkpt>
  <trkpt lat="5.814235" lon="-75.684407">
    <ele>602</ele>
    <time>2014-06-16T15:17:23Z</time>
    <speed>4.115672</speed>
  </trkpt>
  <trkpt lat="5.814289" lon="-75.684430">
    <ele>603</ele>
    <time>2014-06-16T15:17:25Z</time>
    <speed>2.3717682</speed>
  </trkpt>
  <trkpt lat="5.814361" lon="-75.684465">
    <ele>603</ele>
    <time>2014-06-16T15:17:27Z</time>
    <speed>2.5163407</speed>
  </trkpt>
  <trkpt lat="5.814480" lon="-75.684522">
    <ele>603</ele>
    <time>2014-06-16T15:17:29Z</time>
    <speed>4.112053</speed>
  </trkpt>
  <trkpt lat="5.814596" lon="-75.684592">
    <ele>604</ele>
    <time>2014-06-16T15:17:31Z</time>
    <speed>4.5519176</speed>
  </trkpt>
  <trkpt lat="5.814714" lon="-75.684663">
    <ele>604</ele>
    <time>2014-06-16T15:17:33Z</time>
    <speed>6.052047</speed>
  </trkpt>
  <trkpt lat="5.814875" lon="-75.684740">
    <ele>606</ele>
    <time>2014-06-16T15:17:35Z</time>
    <speed>7.847097</speed>
  </trkpt>
  <trkpt lat="5.815030" lon="-75.684834">
    <ele>606</ele>
    <time>2014-06-16T15:17:37Z</time>
    <speed>8.61088</speed>
  </trkpt>
  <trkpt lat="5.815217" lon="-75.684977">
    <ele>606</ele>
    <time>2014-06-16T15:17:39Z</time>
    <speed>10.958112</speed>
  </trkpt>
  <trkpt lat="5.815452" lon="-75.685144">
    <ele>607</ele>
    <time>2014-06-16T15:17:41Z</time>
    <speed>12.518093</speed>
  </trkpt>
  <trkpt lat="5.815691" lon="-75.685315">
    <ele>607</ele>
    <time>2014-06-16T15:17:43Z</time>
    <speed>12.63251</speed>
  </trkpt>
  <trkpt lat="5.815927" lon="-75.685503">
    <ele>606</ele>
    <time>2014-06-16T15:17:45Z</time>
    <speed>14.03609</speed>
  </trkpt>
  <trkpt lat="5.816132" lon="-75.685670">
    <ele>606</ele>
    <time>2014-06-16T15:17:47Z</time>
    <speed>14.222365</speed>
  </trkpt>
  <trkpt lat="5.816358" lon="-75.685837">
    <ele>605</ele>
    <time>2014-06-16T15:17:49Z</time>
    <speed>15.241582</speed>
  </trkpt>
  <trkpt lat="5.816597" lon="-75.685993">
    <ele>605</ele>
    <time>2014-06-16T15:17:51Z</time>
    <speed>14.668757</speed>
  </trkpt>
  <trkpt lat="5.816830" lon="-75.686178">
    <ele>604</ele>
    <time>2014-06-16T15:17:53Z</time>
    <speed>16.061407</speed>
  </trkpt>
  <trkpt lat="5.817089" lon="-75.686402">
    <ele>604</ele>
    <time>2014-06-16T15:17:55Z</time>
    <speed>16.471922</speed>
  </trkpt>
  <trkpt lat="5.817298" lon="-75.686594">
    <ele>605</ele>
    <time>2014-06-16T15:17:57Z</time>
    <speed>15.653118</speed>
  </trkpt>
  <trkpt lat="5.817524" lon="-75.686797">
    <ele>604</ele>
    <time>2014-06-16T15:17:59Z</time>
    <speed>16.20555</speed>
  </trkpt>
  <trkpt lat="5.817746" lon="-75.687011">
    <ele>605</ele>
    <time>2014-06-16T15:18:01Z</time>
    <speed>15.737781</speed>
  </trkpt>
  <trkpt lat="5.817963" lon="-75.687224">
    <ele>605</ele>
    <time>2014-06-16T15:18:03Z</time>
    <speed>15.585977</speed>
  </trkpt>
  <trkpt lat="5.818171" lon="-75.687422">
    <ele>603</ele>
    <time>2014-06-16T15:18:05Z</time>
    <speed>13.147092</speed>
  </trkpt>
  <trkpt lat="5.818370" lon="-75.687617">
    <ele>603</ele>
    <time>2014-06-16T15:18:07Z</time>
    <speed>12.360205</speed>
  </trkpt>
  <trkpt lat="5.818525" lon="-75.687844">
    <ele>603</ele>
    <time>2014-06-16T15:18:09Z</time>
    <speed>12.030747</speed>
  </trkpt>
  <trkpt lat="5.818695" lon="-75.688112">
    <ele>604</ele>
    <time>2014-06-16T15:18:11Z</time>
    <speed>16.41784</speed>
  </trkpt>
  <trkpt lat="5.818837" lon="-75.688457">
    <ele>605</ele>
    <time>2014-06-16T15:18:13Z</time>
    <speed>18.18461</speed>
  </trkpt>
  <trkpt lat="5.818982" lon="-75.688807">
    <ele>603</ele>
    <time>2014-06-16T15:18:15Z</time>
    <speed>18.898382</speed>
  </trkpt>
  <trkpt lat="5.819110" lon="-75.689134">
    <ele>602</ele>
    <time>2014-06-16T15:18:17Z</time>
    <speed>17.866749</speed>
  </trkpt>
  <trkpt lat="5.819239" lon="-75.689466">
    <ele>602</ele>
    <time>2014-06-16T15:18:19Z</time>
    <speed>18.416094</speed>
  </trkpt>
  <trkpt lat="5.819368" lon="-75.689790">
    <ele>602</ele>
    <time>2014-06-16T15:18:21Z</time>
    <speed>17.612373</speed>
  </trkpt>
  <trkpt lat="5.819491" lon="-75.690079">
    <ele>598</ele>
    <time>2014-06-16T15:18:23Z</time>
    <speed>15.800129</speed>
  </trkpt>
  <trkpt lat="5.819606" lon="-75.690305">
    <ele>599</ele>
    <time>2014-06-16T15:18:25Z</time>
    <speed>12.239513</speed>
  </trkpt>
  <trkpt lat="5.819782" lon="-75.690466">
    <ele>598</ele>
    <time>2014-06-16T15:18:27Z</time>
    <speed>13.5612135</speed>
  </trkpt>
  <trkpt lat="5.819999" lon="-75.690501">
    <ele>599</ele>
    <time>2014-06-16T15:18:29Z</time>
    <speed>12.014116</speed>
  </trkpt>
  <trkpt lat="5.820252" lon="-75.690509">
    <ele>601</ele>
    <time>2014-06-16T15:18:31Z</time>
    <speed>13.954222</speed>
  </trkpt>
  <trkpt lat="5.820518" lon="-75.690518">
    <ele>599</ele>
    <time>2014-06-16T15:18:33Z</time>
    <speed>12.987187</speed>
  </trkpt>
  <trkpt lat="5.820745" lon="-75.690555">
    <ele>598</ele>
    <time>2014-06-16T15:18:35Z</time>
    <speed>12.178782</speed>
  </trkpt>
  <trkpt lat="5.820976" lon="-75.690668">
    <ele>599</ele>
    <time>2014-06-16T15:18:37Z</time>
    <speed>13.904997</speed>
  </trkpt>
  <trkpt lat="5.821181" lon="-75.690874">
    <ele>600</ele>
    <time>2014-06-16T15:18:39Z</time>
    <speed>14.958154</speed>
  </trkpt>
  <trkpt lat="5.821362" lon="-75.691106">
    <ele>600</ele>
    <time>2014-06-16T15:18:41Z</time>
    <speed>15.089616</speed>
  </trkpt>
  <trkpt lat="5.821544" lon="-75.691335">
    <ele>601</ele>
    <time>2014-06-16T15:18:43Z</time>
    <speed>13.892763</speed>
  </trkpt>
  <trkpt lat="5.821720" lon="-75.691612">
    <ele>601</ele>
    <time>2014-06-16T15:18:45Z</time>
    <speed>18.346792</speed>
  </trkpt>
  <trkpt lat="5.821907" lon="-75.691925">
    <ele>602</ele>
    <time>2014-06-16T15:18:47Z</time>
    <speed>18.77608</speed>
  </trkpt>
  <trkpt lat="5.822107" lon="-75.692256">
    <ele>601</ele>
    <time>2014-06-16T15:18:49Z</time>
    <speed>18.754831</speed>
  </trkpt>
  <trkpt lat="5.822315" lon="-75.692573">
    <ele>600</ele>
    <time>2014-06-16T15:18:51Z</time>
    <speed>19.221981</speed>
  </trkpt>
  <trkpt lat="5.822514" lon="-75.692889">
    <ele>599</ele>
    <time>2014-06-16T15:18:53Z</time>
    <speed>19.54513</speed>
  </trkpt>
  <trkpt lat="5.822707" lon="-75.693197">
    <ele>600</ele>
    <time>2014-06-16T15:18:55Z</time>
    <speed>19.46754</speed>
  </trkpt>
  <trkpt lat="5.822893" lon="-75.693489">
    <ele>601</ele>
    <time>2014-06-16T15:18:57Z</time>
    <speed>19.354534</speed>
  </trkpt>
  <trkpt lat="5.823081" lon="-75.693766">
    <ele>601</ele>
    <time>2014-06-16T15:18:59Z</time>
    <speed>18.070658</speed>
  </trkpt>
  <trkpt lat="5.823278" lon="-75.694030">
    <ele>600</ele>
    <time>2014-06-16T15:19:01Z</time>
    <speed>18.249016</speed>
  </trkpt>
  <trkpt lat="5.823457" lon="-75.694295">
    <ele>600</ele>
    <time>2014-06-16T15:19:03Z</time>
    <speed>18.18894</speed>
  </trkpt>
  <trkpt lat="5.823566" lon="-75.694576">
    <ele>601</ele>
    <time>2014-06-16T15:19:05Z</time>
    <speed>16.930454</speed>
  </trkpt>
  <trkpt lat="5.823599" lon="-75.694877">
    <ele>602</ele>
    <time>2014-06-16T15:19:07Z</time>
    <speed>17.109741</speed>
  </trkpt>
  <trkpt lat="5.823540" lon="-75.695187">
    <ele>604</ele>
    <time>2014-06-16T15:19:09Z</time>
    <speed>17.741665</speed>
  </trkpt>
  <trkpt lat="5.823473" lon="-75.695517">
    <ele>603</ele>
    <time>2014-06-16T15:19:11Z</time>
    <speed>18.559952</speed>
  </trkpt>
  <trkpt lat="5.823416" lon="-75.695858">
    <ele>605</ele>
    <time>2014-06-16T15:19:13Z</time>
    <speed>18.605495</speed>
  </trkpt>
  <trkpt lat="5.823396" lon="-75.696186">
    <ele>605</ele>
    <time>2014-06-16T15:19:15Z</time>
    <speed>17.665064</speed>
  </trkpt>
  <trkpt lat="5.823422" lon="-75.696515">
    <ele>604</ele>
    <time>2014-06-16T15:19:17Z</time>
    <speed>17.640572</speed>
  </trkpt>
  <trkpt lat="5.823470" lon="-75.696840">
    <ele>603</ele>
    <time>2014-06-16T15:19:19Z</time>
    <speed>17.853746</speed>
  </trkpt>
  <trkpt lat="5.823523" lon="-75.697150">
    <ele>605</ele>
    <time>2014-06-16T15:19:21Z</time>
    <speed>16.88185</speed>
  </trkpt>
  <trkpt lat="5.823581" lon="-75.697448">
    <ele>605</ele>
    <time>2014-06-16T15:19:23Z</time>
    <speed>16.235004</speed>
  </trkpt>
  <trkpt lat="5.823662" lon="-75.697736">
    <ele>606</ele>
    <time>2014-06-16T15:19:25Z</time>
    <speed>17.40892</speed>
  </trkpt>
  <trkpt lat="5.823806" lon="-75.698063">
    <ele>605</ele>
    <time>2014-06-16T15:19:27Z</time>
    <speed>18.767479</speed>
  </trkpt>
  <trkpt lat="5.823988" lon="-75.698329">
    <ele>607</ele>
    <time>2014-06-16T15:19:29Z</time>
    <speed>16.545715</speed>
  </trkpt>
  <trkpt lat="5.824190" lon="-75.698525">
    <ele>608</ele>
    <time>2014-06-16T15:19:31Z</time>
    <speed>16.580208</speed>
  </trkpt>
  <trkpt lat="5.824439" lon="-75.698666">
    <ele>610</ele>
    <time>2014-06-16T15:19:33Z</time>
    <speed>14.523055</speed>
  </trkpt>
  <trkpt lat="5.824697" lon="-75.698702">
    <ele>609</ele>
    <time>2014-06-16T15:19:35Z</time>
    <speed>14.128323</speed>
  </trkpt>
  <trkpt lat="5.825007" lon="-75.698702">
    <ele>612</ele>
    <time>2014-06-16T15:19:37Z</time>
    <speed>14.548084</speed>
  </trkpt>
  <trkpt lat="5.825276" lon="-75.698786">
    <ele>614</ele>
    <time>2014-06-16T15:19:39Z</time>
    <speed>14.518818</speed>
  </trkpt>
  <trkpt lat="5.825486" lon="-75.698980">
    <ele>616</ele>
    <time>2014-06-16T15:19:41Z</time>
    <speed>16.605646</speed>
  </trkpt>
  <trkpt lat="5.825686" lon="-75.699210">
    <ele>617</ele>
    <time>2014-06-16T15:19:43Z</time>
    <speed>16.567999</speed>
  </trkpt>
  <trkpt lat="5.825871" lon="-75.699445">
    <ele>617</ele>
    <time>2014-06-16T15:19:45Z</time>
    <speed>16.242308</speed>
  </trkpt>
  <trkpt lat="5.826041" lon="-75.699708">
    <ele>615</ele>
    <time>2014-06-16T15:19:47Z</time>
    <speed>15.965119</speed>
  </trkpt>
  <trkpt lat="5.826229" lon="-75.699979">
    <ele>617</ele>
    <time>2014-06-16T15:19:49Z</time>
    <speed>16.227795</speed>
  </trkpt>
  <trkpt lat="5.826397" lon="-75.700216">
    <ele>618</ele>
    <time>2014-06-16T15:19:51Z</time>
    <speed>15.882531</speed>
  </trkpt>
  <trkpt lat="5.826529" lon="-75.700465">
    <ele>619</ele>
    <time>2014-06-16T15:19:53Z</time>
    <speed>16.255054</speed>
  </trkpt>
  <trkpt lat="5.826627" lon="-75.700752">
    <ele>618</ele>
    <time>2014-06-16T15:19:55Z</time>
    <speed>15.647835</speed>
  </trkpt>
  <trkpt lat="5.826705" lon="-75.701058">
    <ele>617</ele>
    <time>2014-06-16T15:19:57Z</time>
    <speed>15.94412</speed>
  </trkpt>
  <trkpt lat="5.826757" lon="-75.701353">
    <ele>615</ele>
    <time>2014-06-16T15:19:59Z</time>
    <speed>15.30354</speed>
  </trkpt>
  <trkpt lat="5.826881" lon="-75.701622">
    <ele>614</ele>
    <time>2014-06-16T15:20:01Z</time>
    <speed>14.747919</speed>
  </trkpt>
  <trkpt lat="5.827028" lon="-75.701859">
    <ele>613</ele>
    <time>2014-06-16T15:20:03Z</time>
    <speed>15.6201515</speed>
  </trkpt>
  <trkpt lat="5.827180" lon="-75.702078">
    <ele>611</ele>
    <time>2014-06-16T15:20:05Z</time>
    <speed>11.754836</speed>
  </trkpt>
  <trkpt lat="5.827329" lon="-75.702294">
    <ele>608</ele>
    <time>2014-06-16T15:20:07Z</time>
    <speed>11.2177105</speed>
  </trkpt>
  <trkpt lat="5.827418" lon="-75.702530">
    <ele>607</ele>
    <time>2014-06-16T15:20:09Z</time>
    <speed>11.338298</speed>
  </trkpt>
  <trkpt lat="5.827390" lon="-75.702738">
    <ele>607</ele>
    <time>2014-06-16T15:20:11Z</time>
    <speed>12.073433</speed>
  </trkpt>
  <trkpt lat="5.827314" lon="-75.702962">
    <ele>608</ele>
    <time>2014-06-16T15:20:13Z</time>
    <speed>12.898223</speed>
  </trkpt>
  <trkpt lat="5.827235" lon="-75.703210">
    <ele>607</ele>
    <time>2014-06-16T15:20:15Z</time>
    <speed>14.041541</speed>
  </trkpt>
  <trkpt lat="5.827137" lon="-75.703541">
    <ele>608</ele>
    <time>2014-06-16T15:20:17Z</time>
    <speed>17.190277</speed>
  </trkpt>
  <trkpt lat="5.827113" lon="-75.703850">
    <ele>606</ele>
    <time>2014-06-16T15:20:19Z</time>
    <speed>15.213836</speed>
  </trkpt>
  <trkpt lat="5.827168" lon="-75.704174">
    <ele>605</ele>
    <time>2014-06-16T15:20:21Z</time>
    <speed>15.454636</speed>
  </trkpt>
  <trkpt lat="5.827305" lon="-75.704459">
    <ele>604</ele>
    <time>2014-06-16T15:20:23Z</time>
    <speed>14.467254</speed>
  </trkpt>
  <trkpt lat="5.827461" lon="-75.704713">
    <ele>603</ele>
    <time>2014-06-16T15:20:25Z</time>
    <speed>15.078713</speed>
  </trkpt>
  <trkpt lat="5.827629" lon="-75.704963">
    <ele>604</ele>
    <time>2014-06-16T15:20:27Z</time>
    <speed>15.485098</speed>
  </trkpt>
  <trkpt lat="5.827827" lon="-75.705201">
    <ele>604</ele>
    <time>2014-06-16T15:20:29Z</time>
    <speed>15.743128</speed>
  </trkpt>
  <trkpt lat="5.828058" lon="-75.705395">
    <ele>602</ele>
    <time>2014-06-16T15:20:31Z</time>
    <speed>15.010342</speed>
  </trkpt>
  <trkpt lat="5.828270" lon="-75.705583">
    <ele>602</ele>
    <time>2014-06-16T15:20:33Z</time>
    <speed>13.9593525</speed>
  </trkpt>
  <trkpt lat="5.828464" lon="-75.705778">
    <ele>600</ele>
    <time>2014-06-16T15:20:35Z</time>
    <speed>13.524648</speed>
  </trkpt>
  <trkpt lat="5.828583" lon="-75.706000">
    <ele>600</ele>
    <time>2014-06-16T15:20:37Z</time>
    <speed>12.619263</speed>
  </trkpt>
  <trkpt lat="5.828626" lon="-75.706222">
    <ele>601</ele>
    <time>2014-06-16T15:20:39Z</time>
    <speed>12.427724</speed>
  </trkpt>
  <trkpt lat="5.828631" lon="-75.706430">
    <ele>599</ele>
    <time>2014-06-16T15:20:41Z</time>
    <speed>12.176616</speed>
  </trkpt>
  <trkpt lat="5.828620" lon="-75.706655">
    <ele>596</ele>
    <time>2014-06-16T15:20:43Z</time>
    <speed>12.501318</speed>
  </trkpt>
  <trkpt lat="5.828596" lon="-75.706858">
    <ele>594</ele>
    <time>2014-06-16T15:20:45Z</time>
    <speed>10.563746</speed>
  </trkpt>
  <trkpt lat="5.828588" lon="-75.707026">
    <ele>591</ele>
    <time>2014-06-16T15:20:47Z</time>
    <speed>9.318263</speed>
  </trkpt>
  <trkpt lat="5.828573" lon="-75.707218">
    <ele>591</ele>
    <time>2014-06-16T15:20:49Z</time>
    <speed>6.0474453</speed>
  </trkpt>
  <trkpt lat="5.828555" lon="-75.707373">
    <ele>590</ele>
    <time>2014-06-16T15:20:51Z</time>
    <speed>5.2246366</speed>
  </trkpt>
  <trkpt lat="5.828520" lon="-75.707479">
    <ele>590</ele>
    <time>2014-06-16T15:20:53Z</time>
    <speed>3.877597</speed>
  </trkpt>
  <trkpt lat="5.828487" lon="-75.707571">
    <ele>590</ele>
    <time>2014-06-16T15:20:55Z</time>
    <speed>2.8690224</speed>
  </trkpt>
  <trkpt lat="5.828464" lon="-75.707649">
    <ele>591</ele>
    <time>2014-06-16T15:20:57Z</time>
    <speed>2.349418</speed>
  </trkpt>
  <trkpt lat="5.828452" lon="-75.707718">
    <ele>590</ele>
    <time>2014-06-16T15:20:59Z</time>
    <speed>3.0070074</speed>
  </trkpt>
  <trkpt lat="5.828441" lon="-75.707795">
    <ele>592</ele>
    <time>2014-06-16T15:21:01Z</time>
    <speed>3.6319623</speed>
  </trkpt>
  <trkpt lat="5.828430" lon="-75.707879">
    <ele>590</ele>
    <time>2014-06-16T15:21:03Z</time>
    <speed>3.9291434</speed>
  </trkpt>
  <trkpt lat="5.828421" lon="-75.707956">
    <ele>591</ele>
    <time>2014-06-16T15:21:05Z</time>
    <speed>3.6941497</speed>
  </trkpt>
  <trkpt lat="5.828414" lon="-75.708014">
    <ele>591</ele>
    <time>2014-06-16T15:21:07Z</time>
    <speed>3.2928517</speed>
  </trkpt>
  <trkpt lat="5.828408" lon="-75.708076">
    <ele>591</ele>
    <time>2014-06-16T15:21:09Z</time>
    <speed>3.325106</speed>
  </trkpt>
  <trkpt lat="5.828403" lon="-75.708151">
    <ele>592</ele>
    <time>2014-06-16T15:21:11Z</time>
    <speed>4.6777277</speed>
  </trkpt>
  <trkpt lat="5.828396" lon="-75.708224">
    <ele>592</ele>
    <time>2014-06-16T15:21:13Z</time>
    <speed>5.264784</speed>
  </trkpt>
  <trkpt lat="5.828389" lon="-75.708311">
    <ele>593</ele>
    <time>2014-06-16T15:21:15Z</time>
    <speed>5.0146494</speed>
  </trkpt>
  <trkpt lat="5.828380" lon="-75.708425">
    <ele>594</ele>
    <time>2014-06-16T15:21:17Z</time>
    <speed>6.7748466</speed>
  </trkpt>
  <trkpt lat="5.828369" lon="-75.708553">
    <ele>596</ele>
    <time>2014-06-16T15:21:19Z</time>
    <speed>6.685854</speed>
  </trkpt>
  <trkpt lat="5.828356" lon="-75.708718">
    <ele>593</ele>
    <time>2014-06-16T15:21:21Z</time>
    <speed>6.615674</speed>
  </trkpt>
  <trkpt lat="5.828341" lon="-75.708907">
    <ele>593</ele>
    <time>2014-06-16T15:21:23Z</time>
    <speed>8.851885</speed>
  </trkpt>
  <trkpt lat="5.828323" lon="-75.709100">
    <ele>592</ele>
    <time>2014-06-16T15:21:25Z</time>
    <speed>8.612987</speed>
  </trkpt>
  <trkpt lat="5.828304" lon="-75.709283">
    <ele>591</ele>
    <time>2014-06-16T15:21:27Z</time>
    <speed>8.36627</speed>
  </trkpt>
  <trkpt lat="5.828255" lon="-75.709531">
    <ele>590</ele>
    <time>2014-06-16T15:21:29Z</time>
    <speed>9.631627</speed>
  </trkpt>
  <trkpt lat="5.828226" lon="-75.709758">
    <ele>590</ele>
    <time>2014-06-16T15:21:31Z</time>
    <speed>11.016665</speed>
  </trkpt>
  <trkpt lat="5.828194" lon="-75.710016">
    <ele>589</ele>
    <time>2014-06-16T15:21:33Z</time>
    <speed>11.759727</speed>
  </trkpt>
  <trkpt lat="5.828167" lon="-75.710236">
    <ele>588</ele>
    <time>2014-06-16T15:21:35Z</time>
    <speed>10.762448</speed>
  </trkpt>
  <trkpt lat="5.828144" lon="-75.710450">
    <ele>588</ele>
    <time>2014-06-16T15:21:37Z</time>
    <speed>11.8587265</speed>
  </trkpt>
  <trkpt lat="5.828118" lon="-75.710657">
    <ele>588</ele>
    <time>2014-06-16T15:21:39Z</time>
    <speed>11.174119</speed>
  </trkpt>
  <trkpt lat="5.828086" lon="-75.710854">
    <ele>587</ele>
    <time>2014-06-16T15:21:41Z</time>
    <speed>10.499462</speed>
  </trkpt>
  <trkpt lat="5.828090" lon="-75.711058">
    <ele>588</ele>
    <time>2014-06-16T15:21:43Z</time>
    <speed>10.316838</speed>
  </trkpt>
  <trkpt lat="5.828168" lon="-75.711247">
    <ele>589</ele>
    <time>2014-06-16T15:21:45Z</time>
    <speed>11.880029</speed>
  </trkpt>
  <trkpt lat="5.828277" lon="-75.711413">
    <ele>590</ele>
    <time>2014-06-16T15:21:47Z</time>
    <speed>12.030385</speed>
  </trkpt>
  <trkpt lat="5.828382" lon="-75.711572">
    <ele>591</ele>
    <time>2014-06-16T15:21:49Z</time>
    <speed>10.188764</speed>
  </trkpt>
  <trkpt lat="5.828483" lon="-75.711742">
    <ele>591</ele>
    <time>2014-06-16T15:21:51Z</time>
    <speed>10.77319</speed>
  </trkpt>
  <trkpt lat="5.828598" lon="-75.711921">
    <ele>592</ele>
    <time>2014-06-16T15:21:53Z</time>
    <speed>10.895446</speed>
  </trkpt>
  <trkpt lat="5.828702" lon="-75.712122">
    <ele>592</ele>
    <time>2014-06-16T15:21:55Z</time>
    <speed>11.8213215</speed>
  </trkpt>
  <trkpt lat="5.828788" lon="-75.712323">
    <ele>594</ele>
    <time>2014-06-16T15:21:57Z</time>
    <speed>11.631964</speed>
  </trkpt>
  <trkpt lat="5.828869" lon="-75.712543">
    <ele>596</ele>
    <time>2014-06-16T15:21:59Z</time>
    <speed>11.480781</speed>
  </trkpt>
  <trkpt lat="5.828947" lon="-75.712773">
    <ele>596</ele>
    <time>2014-06-16T15:22:01Z</time>
    <speed>11.48523</speed>
  </trkpt>
  <trkpt lat="5.829032" lon="-75.712995">
    <ele>599</ele>
    <time>2014-06-16T15:22:03Z</time>
    <speed>12.841218</speed>
  </trkpt>
  <trkpt lat="5.829123" lon="-75.713204">
    <ele>598</ele>
    <time>2014-06-16T15:22:05Z</time>
    <speed>12.052664</speed>
  </trkpt>
  <trkpt lat="5.829218" lon="-75.713429">
    <ele>599</ele>
    <time>2014-06-16T15:22:07Z</time>
    <speed>12.682987</speed>
  </trkpt>
  <trkpt lat="5.829322" lon="-75.713665">
    <ele>599</ele>
    <time>2014-06-16T15:22:09Z</time>
    <speed>12.539637</speed>
  </trkpt>
  <trkpt lat="5.829420" lon="-75.713870">
    <ele>598</ele>
    <time>2014-06-16T15:22:11Z</time>
    <speed>11.284564</speed>
  </trkpt>
  <trkpt lat="5.829528" lon="-75.714082">
    <ele>598</ele>
    <time>2014-06-16T15:22:13Z</time>
    <speed>11.905631</speed>
  </trkpt>
  <trkpt lat="5.829645" lon="-75.714304">
    <ele>597</ele>
    <time>2014-06-16T15:22:15Z</time>
    <speed>12.690386</speed>
  </trkpt>
  <trkpt lat="5.829753" lon="-75.714566">
    <ele>594</ele>
    <time>2014-06-16T15:22:17Z</time>
    <speed>14.324429</speed>
  </trkpt>
  <trkpt lat="5.829818" lon="-75.714835">
    <ele>592</ele>
    <time>2014-06-16T15:22:19Z</time>
    <speed>15.627284</speed>
  </trkpt>
  <trkpt lat="5.829851" lon="-75.715116">
    <ele>592</ele>
    <time>2014-06-16T15:22:21Z</time>
    <speed>15.894262</speed>
  </trkpt>
  <trkpt lat="5.829872" lon="-75.715430">
    <ele>592</ele>
    <time>2014-06-16T15:22:23Z</time>
    <speed>17.986683</speed>
  </trkpt>
  <trkpt lat="5.829880" lon="-75.715745">
    <ele>593</ele>
    <time>2014-06-16T15:22:25Z</time>
    <speed>16.67444</speed>
  </trkpt>
  <trkpt lat="5.829897" lon="-75.716033">
    <ele>594</ele>
    <time>2014-06-16T15:22:27Z</time>
    <speed>14.068208</speed>
  </trkpt>
  <trkpt lat="5.829917" lon="-75.716308">
    <ele>597</ele>
    <time>2014-06-16T15:22:29Z</time>
    <speed>15.380661</speed>
  </trkpt>
  <trkpt lat="5.829941" lon="-75.716603">
    <ele>596</ele>
    <time>2014-06-16T15:22:31Z</time>
    <speed>14.944309</speed>
  </trkpt>
  <trkpt lat="5.829982" lon="-75.716882">
    <ele>596</ele>
    <time>2014-06-16T15:22:33Z</time>
    <speed>14.734589</speed>
  </trkpt>
  <trkpt lat="5.830020" lon="-75.717141">
    <ele>599</ele>
    <time>2014-06-16T15:22:35Z</time>
    <speed>13.862375</speed>
  </trkpt>
  <trkpt lat="5.830051" lon="-75.717388">
    <ele>599</ele>
    <time>2014-06-16T15:22:37Z</time>
    <speed>13.409993</speed>
  </trkpt>
  <trkpt lat="5.830083" lon="-75.717662">
    <ele>598</ele>
    <time>2014-06-16T15:22:39Z</time>
    <speed>14.012781</speed>
  </trkpt>
  <trkpt lat="5.830122" lon="-75.717971">
    <ele>597</ele>
    <time>2014-06-16T15:22:41Z</time>
    <speed>16.622131</speed>
  </trkpt>
  <trkpt lat="5.830155" lon="-75.718293">
    <ele>596</ele>
    <time>2014-06-16T15:22:43Z</time>
    <speed>17.790354</speed>
  </trkpt>
  <trkpt lat="5.830199" lon="-75.718652">
    <ele>593</ele>
    <time>2014-06-16T15:22:45Z</time>
    <speed>18.1285</speed>
  </trkpt>
  <trkpt lat="5.830234" lon="-75.718998">
    <ele>594</ele>
    <time>2014-06-16T15:22:47Z</time>
    <speed>18.255028</speed>
  </trkpt>
  <trkpt lat="5.830259" lon="-75.719313">
    <ele>593</ele>
    <time>2014-06-16T15:22:49Z</time>
    <speed>16.287636</speed>
  </trkpt>
  <trkpt lat="5.830282" lon="-75.719636">
    <ele>592</ele>
    <time>2014-06-16T15:22:51Z</time>
    <speed>16.323515</speed>
  </trkpt>
  <trkpt lat="5.830307" lon="-75.719946">
    <ele>591</ele>
    <time>2014-06-16T15:22:53Z</time>
    <speed>16.041424</speed>
  </trkpt>
  <trkpt lat="5.830334" lon="-75.720247">
    <ele>593</ele>
    <time>2014-06-16T15:22:55Z</time>
    <speed>15.484346</speed>
  </trkpt>
  <trkpt lat="5.830364" lon="-75.720498">
    <ele>593</ele>
    <time>2014-06-16T15:22:57Z</time>
    <speed>12.695659</speed>
  </trkpt>
  <trkpt lat="5.830411" lon="-75.720740">
    <ele>595</ele>
    <time>2014-06-16T15:22:59Z</time>
    <speed>13.321153</speed>
  </trkpt>
  <trkpt lat="5.830462" lon="-75.721034">
    <ele>596</ele>
    <time>2014-06-16T15:23:01Z</time>
    <speed>11.784771</speed>
  </trkpt>
  <trkpt lat="5.830501" lon="-75.721299">
    <ele>596</ele>
    <time>2014-06-16T15:23:03Z</time>
    <speed>11.375881</speed>
  </trkpt>
  <trkpt lat="5.830543" lon="-75.721568">
    <ele>599</ele>
    <time>2014-06-16T15:23:05Z</time>
    <speed>13.037808</speed>
  </trkpt>
  <trkpt lat="5.830574" lon="-75.721858">
    <ele>600</ele>
    <time>2014-06-16T15:23:07Z</time>
    <speed>13.008053</speed>
  </trkpt>
  <trkpt lat="5.830601" lon="-75.722122">
    <ele>602</ele>
    <time>2014-06-16T15:23:09Z</time>
    <speed>13.182838</speed>
  </trkpt>
  <trkpt lat="5.830625" lon="-75.722369">
    <ele>602</ele>
    <time>2014-06-16T15:23:11Z</time>
    <speed>13.143356</speed>
  </trkpt>
  <trkpt lat="5.830650" lon="-75.722634">
    <ele>603</ele>
    <time>2014-06-16T15:23:13Z</time>
    <speed>14.289091</speed>
  </trkpt>
  <trkpt lat="5.830660" lon="-75.722886">
    <ele>606</ele>
    <time>2014-06-16T15:23:15Z</time>
    <speed>12.013954</speed>
  </trkpt>
  <trkpt lat="5.830644" lon="-75.723161">
    <ele>606</ele>
    <time>2014-06-16T15:23:17Z</time>
    <speed>12.664453</speed>
  </trkpt>
  <trkpt lat="5.830561" lon="-75.723360">
    <ele>607</ele>
    <time>2014-06-16T15:23:19Z</time>
    <speed>10.14277</speed>
  </trkpt>
  <trkpt lat="5.830424" lon="-75.723608">
    <ele>608</ele>
    <time>2014-06-16T15:23:21Z</time>
    <speed>14.108022</speed>
  </trkpt>
  <trkpt lat="5.830261" lon="-75.723940">
    <ele>607</ele>
    <time>2014-06-16T15:23:23Z</time>
    <speed>14.072011</speed>
  </trkpt>
  <trkpt lat="5.830109" lon="-75.724246">
    <ele>609</ele>
    <time>2014-06-16T15:23:25Z</time>
    <speed>15.301076</speed>
  </trkpt>
  <trkpt lat="5.829966" lon="-75.724525">
    <ele>608</ele>
    <time>2014-06-16T15:23:27Z</time>
    <speed>14.804111</speed>
  </trkpt>
  <trkpt lat="5.829832" lon="-75.724806">
    <ele>608</ele>
    <time>2014-06-16T15:23:29Z</time>
    <speed>15.002714</speed>
  </trkpt>
  <trkpt lat="5.829699" lon="-75.725093">
    <ele>610</ele>
    <time>2014-06-16T15:23:31Z</time>
    <speed>15.082163</speed>
  </trkpt>
  <trkpt lat="5.829574" lon="-75.725368">
    <ele>611</ele>
    <time>2014-06-16T15:23:33Z</time>
    <speed>15.580095</speed>
  </trkpt>
  <trkpt lat="5.829445" lon="-75.725661">
    <ele>613</ele>
    <time>2014-06-16T15:23:35Z</time>
    <speed>15.868903</speed>
  </trkpt>
  <trkpt lat="5.829308" lon="-75.725958">
    <ele>614</ele>
    <time>2014-06-16T15:23:37Z</time>
    <speed>15.807582</speed>
  </trkpt>
  <trkpt lat="5.829179" lon="-75.726243">
    <ele>616</ele>
    <time>2014-06-16T15:23:39Z</time>
    <speed>15.767468</speed>
  </trkpt>
  <trkpt lat="5.829061" lon="-75.726508">
    <ele>617</ele>
    <time>2014-06-16T15:23:41Z</time>
    <speed>15.095568</speed>
  </trkpt>
  <trkpt lat="5.828943" lon="-75.726764">
    <ele>618</ele>
    <time>2014-06-16T15:23:43Z</time>
    <speed>15.349246</speed>
  </trkpt>
  <trkpt lat="5.828820" lon="-75.727027">
    <ele>618</ele>
    <time>2014-06-16T15:23:45Z</time>
    <speed>16.232452</speed>
  </trkpt>
  <trkpt lat="5.828687" lon="-75.727307">
    <ele>619</ele>
    <time>2014-06-16T15:23:47Z</time>
    <speed>17.023504</speed>
  </trkpt>
  <trkpt lat="5.828553" lon="-75.727597">
    <ele>617</ele>
    <time>2014-06-16T15:23:49Z</time>
    <speed>16.92806</speed>
  </trkpt>
  <trkpt lat="5.828418" lon="-75.727891">
    <ele>617</ele>
    <time>2014-06-16T15:23:51Z</time>
    <speed>16.103039</speed>
  </trkpt>
  <trkpt lat="5.828287" lon="-75.728175">
    <ele>614</ele>
    <time>2014-06-16T15:23:53Z</time>
    <speed>15.852387</speed>
  </trkpt>
  <trkpt lat="5.828153" lon="-75.728453">
    <ele>614</ele>
    <time>2014-06-16T15:23:55Z</time>
    <speed>14.47169</speed>
  </trkpt>
  <trkpt lat="5.828003" lon="-75.728694">
    <ele>613</ele>
    <time>2014-06-16T15:23:57Z</time>
    <speed>14.544509</speed>
  </trkpt>
  <trkpt lat="5.827771" lon="-75.728859">
    <ele>615</ele>
    <time>2014-06-16T15:23:59Z</time>
    <speed>15.107189</speed>
  </trkpt>
  <trkpt lat="5.827482" lon="-75.728998">
    <ele>612</ele>
    <time>2014-06-16T15:24:01Z</time>
    <speed>16.145926</speed>
  </trkpt>
  <trkpt lat="5.827215" lon="-75.729089">
    <ele>610</ele>
    <time>2014-06-16T15:24:03Z</time>
    <speed>15.589753</speed>
  </trkpt>
  <trkpt lat="5.826975" lon="-75.729187">
    <ele>610</ele>
    <time>2014-06-16T15:24:05Z</time>
    <speed>14.287008</speed>
  </trkpt>
  <trkpt lat="5.826806" lon="-75.729373">
    <ele>610</ele>
    <time>2014-06-16T15:24:07Z</time>
    <speed>14.080277</speed>
  </trkpt>
  <trkpt lat="5.826671" lon="-75.729582">
    <ele>611</ele>
    <time>2014-06-16T15:24:09Z</time>
    <speed>13.953421</speed>
  </trkpt>
  <trkpt lat="5.826559" lon="-75.729798">
    <ele>612</ele>
    <time>2014-06-16T15:24:11Z</time>
    <speed>14.045929</speed>
  </trkpt>
  <trkpt lat="5.826498" lon="-75.730007">
    <ele>614</ele>
    <time>2014-06-16T15:24:13Z</time>
    <speed>12.215354</speed>
  </trkpt>
  <trkpt lat="5.826467" lon="-75.730236">
    <ele>616</ele>
    <time>2014-06-16T15:24:15Z</time>
    <speed>13.0474615</speed>
  </trkpt>
  <trkpt lat="5.826462" lon="-75.730479">
    <ele>616</ele>
    <time>2014-06-16T15:24:17Z</time>
    <speed>12.554577</speed>
  </trkpt>
  <trkpt lat="5.826526" lon="-75.730744">
    <ele>614</ele>
    <time>2014-06-16T15:24:19Z</time>
    <speed>12.984077</speed>
  </trkpt>
  <trkpt lat="5.826639" lon="-75.730964">
    <ele>615</ele>
    <time>2014-06-16T15:24:21Z</time>
    <speed>11.780423</speed>
  </trkpt>
  <trkpt lat="5.826767" lon="-75.731152">
    <ele>615</ele>
    <time>2014-06-16T15:24:23Z</time>
    <speed>11.621623</speed>
  </trkpt>
  <trkpt lat="5.826970" lon="-75.731321">
    <ele>614</ele>
    <time>2014-06-16T15:24:25Z</time>
    <speed>12.58008</speed>
  </trkpt>
  <trkpt lat="5.827205" lon="-75.731440">
    <ele>614</ele>
    <time>2014-06-16T15:24:27Z</time>
    <speed>12.291801</speed>
  </trkpt>
  <trkpt lat="5.827447" lon="-75.731526">
    <ele>615</ele>
    <time>2014-06-16T15:24:29Z</time>
    <speed>13.025999</speed>
  </trkpt>
  <trkpt lat="5.827711" lon="-75.731583">
    <ele>612</ele>
    <time>2014-06-16T15:24:31Z</time>
    <speed>13.198549</speed>
  </trkpt>
  <trkpt lat="5.828016" lon="-75.731623">
    <ele>612</ele>
    <time>2014-06-16T15:24:33Z</time>
    <speed>14.743476</speed>
  </trkpt>
  <trkpt lat="5.828308" lon="-75.731601">
    <ele>611</ele>
    <time>2014-06-16T15:24:35Z</time>
    <speed>16.655724</speed>
  </trkpt>
  <trkpt lat="5.828626" lon="-75.731547">
    <ele>609</ele>
    <time>2014-06-16T15:24:37Z</time>
    <speed>17.35267</speed>
  </trkpt>
  <trkpt lat="5.828950" lon="-75.731489">
    <ele>606</ele>
    <time>2014-06-16T15:24:39Z</time>
    <speed>17.897945</speed>
  </trkpt>
  <trkpt lat="5.829282" lon="-75.731464">
    <ele>604</ele>
    <time>2014-06-16T15:24:41Z</time>
    <speed>18.49902</speed>
  </trkpt>
  <trkpt lat="5.829629" lon="-75.731474">
    <ele>602</ele>
    <time>2014-06-16T15:24:43Z</time>
    <speed>18.893698</speed>
  </trkpt>
  <trkpt lat="5.829981" lon="-75.731498">
    <ele>600</ele>
    <time>2014-06-16T15:24:45Z</time>
    <speed>19.465809</speed>
  </trkpt>
  <trkpt lat="5.830326" lon="-75.731533">
    <ele>601</ele>
    <time>2014-06-16T15:24:47Z</time>
    <speed>19.518648</speed>
  </trkpt>
  <trkpt lat="5.830673" lon="-75.731580">
    <ele>596</ele>
    <time>2014-06-16T15:24:49Z</time>
    <speed>19.094816</speed>
  </trkpt>
  <trkpt lat="5.831011" lon="-75.731642">
    <ele>596</ele>
    <time>2014-06-16T15:24:51Z</time>
    <speed>19.028307</speed>
  </trkpt>
  <trkpt lat="5.831347" lon="-75.731680">
    <ele>596</ele>
    <time>2014-06-16T15:24:53Z</time>
    <speed>18.79646</speed>
  </trkpt>
  <trkpt lat="5.831671" lon="-75.731685">
    <ele>593</ele>
    <time>2014-06-16T15:24:55Z</time>
    <speed>17.343256</speed>
  </trkpt>
  <trkpt lat="5.831989" lon="-75.731639">
    <ele>593</ele>
    <time>2014-06-16T15:24:57Z</time>
    <speed>16.761683</speed>
  </trkpt>
  <trkpt lat="5.832274" lon="-75.731491">
    <ele>591</ele>
    <time>2014-06-16T15:24:59Z</time>
    <speed>16.387178</speed>
  </trkpt>
  <trkpt lat="5.832525" lon="-75.731352">
    <ele>591</ele>
    <time>2014-06-16T15:25:01Z</time>
    <speed>15.00302</speed>
  </trkpt>
  <trkpt lat="5.832767" lon="-75.731212">
    <ele>592</ele>
    <time>2014-06-16T15:25:03Z</time>
    <speed>14.732701</speed>
  </trkpt>
  <trkpt lat="5.833004" lon="-75.731073">
    <ele>593</ele>
    <time>2014-06-16T15:25:05Z</time>
    <speed>14.431736</speed>
  </trkpt>
  <trkpt lat="5.833211" lon="-75.730948">
    <ele>593</ele>
    <time>2014-06-16T15:25:07Z</time>
    <speed>12.230507</speed>
  </trkpt>
  <trkpt lat="5.833417" lon="-75.730827">
    <ele>593</ele>
    <time>2014-06-16T15:25:09Z</time>
    <speed>12.922431</speed>
  </trkpt>
  <trkpt lat="5.833629" lon="-75.730713">
    <ele>594</ele>
    <time>2014-06-16T15:25:11Z</time>
    <speed>12.519973</speed>
  </trkpt>
  <trkpt lat="5.833853" lon="-75.730655">
    <ele>592</ele>
    <time>2014-06-16T15:25:13Z</time>
    <speed>13.246471</speed>
  </trkpt>
  <trkpt lat="5.834115" lon="-75.730660">
    <ele>593</ele>
    <time>2014-06-16T15:25:15Z</time>
    <speed>14.322582</speed>
  </trkpt>
  <trkpt lat="5.834375" lon="-75.730740">
    <ele>591</ele>
    <time>2014-06-16T15:25:17Z</time>
    <speed>14.88205</speed>
  </trkpt>
  <trkpt lat="5.834622" lon="-75.730897">
    <ele>593</ele>
    <time>2014-06-16T15:25:19Z</time>
    <speed>15.485241</speed>
  </trkpt>
  <trkpt lat="5.834853" lon="-75.731091">
    <ele>593</ele>
    <time>2014-06-16T15:25:21Z</time>
    <speed>16.338974</speed>
  </trkpt>
  <trkpt lat="5.835089" lon="-75.731323">
    <ele>593</ele>
    <time>2014-06-16T15:25:23Z</time>
    <speed>17.263752</speed>
  </trkpt>
  <trkpt lat="5.835310" lon="-75.731554">
    <ele>593</ele>
    <time>2014-06-16T15:25:25Z</time>
    <speed>17.134518</speed>
  </trkpt>
  <trkpt lat="5.835529" lon="-75.731796">
    <ele>593</ele>
    <time>2014-06-16T15:25:27Z</time>
    <speed>17.314516</speed>
  </trkpt>
  <trkpt lat="5.835763" lon="-75.732046">
    <ele>591</ele>
    <time>2014-06-16T15:25:29Z</time>
    <speed>17.575035</speed>
  </trkpt>
  <trkpt lat="5.835991" lon="-75.732293">
    <ele>591</ele>
    <time>2014-06-16T15:25:31Z</time>
    <speed>17.877811</speed>
  </trkpt>
  <trkpt lat="5.836214" lon="-75.732529">
    <ele>590</ele>
    <time>2014-06-16T15:25:33Z</time>
    <speed>17.816154</speed>
  </trkpt>
  <trkpt lat="5.836445" lon="-75.732765">
    <ele>591</ele>
    <time>2014-06-16T15:25:35Z</time>
    <speed>18.135216</speed>
  </trkpt>
  <trkpt lat="5.836677" lon="-75.733003">
    <ele>591</ele>
    <time>2014-06-16T15:25:37Z</time>
    <speed>18.568968</speed>
  </trkpt>
  <trkpt lat="5.836912" lon="-75.733243">
    <ele>594</ele>
    <time>2014-06-16T15:25:39Z</time>
    <speed>18.316574</speed>
  </trkpt>
  <trkpt lat="5.837141" lon="-75.733481">
    <ele>595</ele>
    <time>2014-06-16T15:25:41Z</time>
    <speed>18.423906</speed>
  </trkpt>
  <trkpt lat="5.837368" lon="-75.733710">
    <ele>595</ele>
    <time>2014-06-16T15:25:43Z</time>
    <speed>17.282417</speed>
  </trkpt>
  <trkpt lat="5.837612" lon="-75.733884">
    <ele>597</ele>
    <time>2014-06-16T15:25:45Z</time>
    <speed>16.190844</speed>
  </trkpt>
  <trkpt lat="5.837880" lon="-75.733959">
    <ele>597</ele>
    <time>2014-06-16T15:25:47Z</time>
    <speed>15.594164</speed>
  </trkpt>
  <trkpt lat="5.838148" lon="-75.734005">
    <ele>598</ele>
    <time>2014-06-16T15:25:49Z</time>
    <speed>15.935658</speed>
  </trkpt>
  <trkpt lat="5.838439" lon="-75.734049">
    <ele>598</ele>
    <time>2014-06-16T15:25:51Z</time>
    <speed>16.952671</speed>
  </trkpt>
  <trkpt lat="5.838758" lon="-75.734091">
    <ele>597</ele>
    <time>2014-06-16T15:25:53Z</time>
    <speed>17.22701</speed>
  </trkpt>
  <trkpt lat="5.839065" lon="-75.734126">
    <ele>595</ele>
    <time>2014-06-16T15:25:55Z</time>
    <speed>16.33241</speed>
  </trkpt>
  <trkpt lat="5.839361" lon="-75.734208">
    <ele>594</ele>
    <time>2014-06-16T15:25:57Z</time>
    <speed>16.500835</speed>
  </trkpt>
  <trkpt lat="5.839648" lon="-75.734348">
    <ele>590</ele>
    <time>2014-06-16T15:25:59Z</time>
    <speed>16.878723</speed>
  </trkpt>
  <trkpt lat="5.839899" lon="-75.734488">
    <ele>590</ele>
    <time>2014-06-16T15:26:01Z</time>
    <speed>14.126056</speed>
  </trkpt>
  <trkpt lat="5.840095" lon="-75.734643">
    <ele>588</ele>
    <time>2014-06-16T15:26:03Z</time>
    <speed>13.481394</speed>
  </trkpt>
  <trkpt lat="5.840168" lon="-75.734881">
    <ele>586</ele>
    <time>2014-06-16T15:26:05Z</time>
    <speed>14.67233</speed>
  </trkpt>
  <trkpt lat="5.840154" lon="-75.735166">
    <ele>585</ele>
    <time>2014-06-16T15:26:07Z</time>
    <speed>14.6956005</speed>
  </trkpt>
  <trkpt lat="5.840165" lon="-75.735446">
    <ele>583</ele>
    <time>2014-06-16T15:26:09Z</time>
    <speed>13.523825</speed>
  </trkpt>
  <trkpt lat="5.840270" lon="-75.735646">
    <ele>582</ele>
    <time>2014-06-16T15:26:11Z</time>
    <speed>11.559566</speed>
  </trkpt>
  <trkpt lat="5.840459" lon="-75.735764">
    <ele>583</ele>
    <time>2014-06-16T15:26:13Z</time>
    <speed>11.663956</speed>
  </trkpt>
  <trkpt lat="5.840677" lon="-75.735840">
    <ele>585</ele>
    <time>2014-06-16T15:26:15Z</time>
    <speed>12.916753</speed>
  </trkpt>
  <trkpt lat="5.840936" lon="-75.735914">
    <ele>584</ele>
    <time>2014-06-16T15:26:17Z</time>
    <speed>14.103446</speed>
  </trkpt>
  <trkpt lat="5.841232" lon="-75.735962">
    <ele>585</ele>
    <time>2014-06-16T15:26:19Z</time>
    <speed>15.007186</speed>
  </trkpt>
  <trkpt lat="5.841508" lon="-75.736011">
    <ele>582</ele>
    <time>2014-06-16T15:26:21Z</time>
    <speed>11.865992</speed>
  </trkpt>
  <trkpt lat="5.841699" lon="-75.736100">
    <ele>581</ele>
    <time>2014-06-16T15:26:23Z</time>
    <speed>11.110214</speed>
  </trkpt>
  <trkpt lat="5.841809" lon="-75.736272">
    <ele>581</ele>
    <time>2014-06-16T15:26:25Z</time>
    <speed>11.824</speed>
  </trkpt>
  <trkpt lat="5.841840" lon="-75.736518">
    <ele>581</ele>
    <time>2014-06-16T15:26:27Z</time>
    <speed>13.773408</speed>
  </trkpt>
  <trkpt lat="5.841844" lon="-75.736785">
    <ele>580</ele>
    <time>2014-06-16T15:26:29Z</time>
    <speed>13.292857</speed>
  </trkpt>
  <trkpt lat="5.841875" lon="-75.737015">
    <ele>577</ele>
    <time>2014-06-16T15:26:31Z</time>
    <speed>11.63305</speed>
  </trkpt>
  <trkpt lat="5.841998" lon="-75.737114">
    <ele>577</ele>
    <time>2014-06-16T15:26:33Z</time>
    <speed>8.048932</speed>
  </trkpt>
  <trkpt lat="5.842146" lon="-75.737061">
    <ele>577</ele>
    <time>2014-06-16T15:26:35Z</time>
    <speed>8.099973</speed>
  </trkpt>
  <trkpt lat="5.842255" lon="-75.736925">
    <ele>578</ele>
    <time>2014-06-16T15:26:37Z</time>
    <speed>8.532434</speed>
  </trkpt>
  <trkpt lat="5.842353" lon="-75.736792">
    <ele>580</ele>
    <time>2014-06-16T15:26:39Z</time>
    <speed>8.392791</speed>
  </trkpt>
  <trkpt lat="5.842506" lon="-75.736658">
    <ele>581</ele>
    <time>2014-06-16T15:26:41Z</time>
    <speed>10.553737</speed>
  </trkpt>
  <trkpt lat="5.842719" lon="-75.736588">
    <ele>583</ele>
    <time>2014-06-16T15:26:43Z</time>
    <speed>11.915762</speed>
  </trkpt>
  <trkpt lat="5.842958" lon="-75.736604">
    <ele>584</ele>
    <time>2014-06-16T15:26:45Z</time>
    <speed>12.117182</speed>
  </trkpt>
  <trkpt lat="5.843182" lon="-75.736652">
    <ele>586</ele>
    <time>2014-06-16T15:26:47Z</time>
    <speed>11.551574</speed>
  </trkpt>
  <trkpt lat="5.843399" lon="-75.736722">
    <ele>587</ele>
    <time>2014-06-16T15:26:49Z</time>
    <speed>12.294548</speed>
  </trkpt>
  <trkpt lat="5.843626" lon="-75.736802">
    <ele>589</ele>
    <time>2014-06-16T15:26:51Z</time>
    <speed>12.921573</speed>
  </trkpt>
  <trkpt lat="5.843869" lon="-75.736858">
    <ele>589</ele>
    <time>2014-06-16T15:26:53Z</time>
    <speed>12.791368</speed>
  </trkpt>
  <trkpt lat="5.844123" lon="-75.736845">
    <ele>591</ele>
    <time>2014-06-16T15:26:55Z</time>
    <speed>13.203368</speed>
  </trkpt>
  <trkpt lat="5.844353" lon="-75.736818">
    <ele>591</ele>
    <time>2014-06-16T15:26:57Z</time>
    <speed>12.858255</speed>
  </trkpt>
  <trkpt lat="5.844579" lon="-75.736788">
    <ele>591</ele>
    <time>2014-06-16T15:26:59Z</time>
    <speed>12.58216</speed>
  </trkpt>
  <trkpt lat="5.844798" lon="-75.736841">
    <ele>590</ele>
    <time>2014-06-16T15:27:01Z</time>
    <speed>12.963573</speed>
  </trkpt>
  <trkpt lat="5.845011" lon="-75.736976">
    <ele>588</ele>
    <time>2014-06-16T15:27:03Z</time>
    <speed>13.6115465</speed>
  </trkpt>
  <trkpt lat="5.845158" lon="-75.737183">
    <ele>588</ele>
    <time>2014-06-16T15:27:05Z</time>
    <speed>13.728242</speed>
  </trkpt>
  <trkpt lat="5.845307" lon="-75.737393">
    <ele>587</ele>
    <time>2014-06-16T15:27:07Z</time>
    <speed>13.211588</speed>
  </trkpt>
  <trkpt lat="5.845512" lon="-75.737461">
    <ele>586</ele>
    <time>2014-06-16T15:27:09Z</time>
    <speed>10.659154</speed>
  </trkpt>
  <trkpt lat="5.845740" lon="-75.737416">
    <ele>587</ele>
    <time>2014-06-16T15:27:11Z</time>
    <speed>12.305849</speed>
  </trkpt>
  <trkpt lat="5.845988" lon="-75.737355">
    <ele>587</ele>
    <time>2014-06-16T15:27:13Z</time>
    <speed>12.755715</speed>
  </trkpt>
  <trkpt lat="5.846228" lon="-75.737303">
    <ele>585</ele>
    <time>2014-06-16T15:27:15Z</time>
    <speed>13.217252</speed>
  </trkpt>
  <trkpt lat="5.846457" lon="-75.737270">
    <ele>584</ele>
    <time>2014-06-16T15:27:17Z</time>
    <speed>12.495608</speed>
  </trkpt>
  <trkpt lat="5.846678" lon="-75.737379">
    <ele>583</ele>
    <time>2014-06-16T15:27:19Z</time>
    <speed>13.315269</speed>
  </trkpt>
  <trkpt lat="5.846872" lon="-75.737588">
    <ele>582</ele>
    <time>2014-06-16T15:27:21Z</time>
    <speed>15.08483</speed>
  </trkpt>
  <trkpt lat="5.847066" lon="-75.737855">
    <ele>583</ele>
    <time>2014-06-16T15:27:23Z</time>
    <speed>16.668709</speed>
  </trkpt>
  <trkpt lat="5.847256" lon="-75.738137">
    <ele>582</ele>
    <time>2014-06-16T15:27:25Z</time>
    <speed>18.034012</speed>
  </trkpt>
  <trkpt lat="5.847471" lon="-75.738430">
    <ele>583</ele>
    <time>2014-06-16T15:27:27Z</time>
    <speed>18.760952</speed>
  </trkpt>
  <trkpt lat="5.847666" lon="-75.738698">
    <ele>580</ele>
    <time>2014-06-16T15:27:29Z</time>
    <speed>17.644049</speed>
  </trkpt>
  <trkpt lat="5.847843" lon="-75.738943">
    <ele>579</ele>
    <time>2014-06-16T15:27:31Z</time>
    <speed>15.944006</speed>
  </trkpt>
  <trkpt lat="5.848018" lon="-75.739173">
    <ele>579</ele>
    <time>2014-06-16T15:27:33Z</time>
    <speed>15.8253355</speed>
  </trkpt>
  <trkpt lat="5.848280" lon="-75.739308">
    <ele>580</ele>
    <time>2014-06-16T15:27:35Z</time>
    <speed>16.120275</speed>
  </trkpt>
  <trkpt lat="5.848567" lon="-75.739363">
    <ele>581</ele>
    <time>2014-06-16T15:27:37Z</time>
    <speed>15.777874</speed>
  </trkpt>
  <trkpt lat="5.848844" lon="-75.739404">
    <ele>579</ele>
    <time>2014-06-16T15:27:39Z</time>
    <speed>14.21591</speed>
  </trkpt>
  <trkpt lat="5.849076" lon="-75.739437">
    <ele>579</ele>
    <time>2014-06-16T15:27:41Z</time>
    <speed>12.457166</speed>
  </trkpt>
  <trkpt lat="5.849311" lon="-75.739471">
    <ele>582</ele>
    <time>2014-06-16T15:27:43Z</time>
    <speed>12.763772</speed>
  </trkpt>
  <trkpt lat="5.849560" lon="-75.739506">
    <ele>581</ele>
    <time>2014-06-16T15:27:45Z</time>
    <speed>13.302016</speed>
  </trkpt>
  <trkpt lat="5.849826" lon="-75.739550">
    <ele>583</ele>
    <time>2014-06-16T15:27:47Z</time>
    <speed>14.238924</speed>
  </trkpt>
  <trkpt lat="5.850093" lon="-75.739625">
    <ele>583</ele>
    <time>2014-06-16T15:27:49Z</time>
    <speed>14.820935</speed>
  </trkpt>
  <trkpt lat="5.850338" lon="-75.739717">
    <ele>583</ele>
    <time>2014-06-16T15:27:51Z</time>
    <speed>14.052421</speed>
  </trkpt>
  <trkpt lat="5.850583" lon="-75.739837">
    <ele>582</ele>
    <time>2014-06-16T15:27:53Z</time>
    <speed>15.225772</speed>
  </trkpt>
  <trkpt lat="5.850841" lon="-75.739961">
    <ele>580</ele>
    <time>2014-06-16T15:27:55Z</time>
    <speed>14.690109</speed>
  </trkpt>
  <trkpt lat="5.851090" lon="-75.740090">
    <ele>581</ele>
    <time>2014-06-16T15:27:57Z</time>
    <speed>14.314897</speed>
  </trkpt>
  <trkpt lat="5.851333" lon="-75.740242">
    <ele>580</ele>
    <time>2014-06-16T15:27:59Z</time>
    <speed>15.344958</speed>
  </trkpt>
  <trkpt lat="5.851579" lon="-75.740416">
    <ele>581</ele>
    <time>2014-06-16T15:28:01Z</time>
    <speed>16.107271</speed>
  </trkpt>
  <trkpt lat="5.851840" lon="-75.740631">
    <ele>581</ele>
    <time>2014-06-16T15:28:03Z</time>
    <speed>17.034788</speed>
  </trkpt>
  <trkpt lat="5.852104" lon="-75.740862">
    <ele>581</ele>
    <time>2014-06-16T15:28:05Z</time>
    <speed>17.945814</speed>
  </trkpt>
  <trkpt lat="5.852360" lon="-75.741095">
    <ele>581</ele>
    <time>2014-06-16T15:28:07Z</time>
    <speed>18.211172</speed>
  </trkpt>
  <trkpt lat="5.852607" lon="-75.741326">
    <ele>582</ele>
    <time>2014-06-16T15:28:09Z</time>
    <speed>18.482634</speed>
  </trkpt>
  <trkpt lat="5.852860" lon="-75.741553">
    <ele>585</ele>
    <time>2014-06-16T15:28:11Z</time>
    <speed>18.67383</speed>
  </trkpt>
  <trkpt lat="5.853113" lon="-75.741776">
    <ele>585</ele>
    <time>2014-06-16T15:28:13Z</time>
    <speed>18.51652</speed>
  </trkpt>
  <trkpt lat="5.853360" lon="-75.741996">
    <ele>585</ele>
    <time>2014-06-16T15:28:15Z</time>
    <speed>17.682348</speed>
  </trkpt>
  <trkpt lat="5.853583" lon="-75.742219">
    <ele>585</ele>
    <time>2014-06-16T15:28:17Z</time>
    <speed>17.266756</speed>
  </trkpt>
  <trkpt lat="5.853792" lon="-75.742463">
    <ele>585</ele>
    <time>2014-06-16T15:28:19Z</time>
    <speed>17.749592</speed>
  </trkpt>
  <trkpt lat="5.853981" lon="-75.742730">
    <ele>585</ele>
    <time>2014-06-16T15:28:21Z</time>
    <speed>18.184963</speed>
  </trkpt>
  <trkpt lat="5.854170" lon="-75.743015">
    <ele>580</ele>
    <time>2014-06-16T15:28:23Z</time>
    <speed>18.256107</speed>
  </trkpt>
  <trkpt lat="5.854337" lon="-75.743271">
    <ele>578</ele>
    <time>2014-06-16T15:28:25Z</time>
    <speed>15.886774</speed>
  </trkpt>
  <trkpt lat="5.854499" lon="-75.743501">
    <ele>579</ele>
    <time>2014-06-16T15:28:27Z</time>
    <speed>14.995489</speed>
  </trkpt>
  <trkpt lat="5.854647" lon="-75.743712">
    <ele>580</ele>
    <time>2014-06-16T15:28:29Z</time>
    <speed>14.601223</speed>
  </trkpt>
  <trkpt lat="5.854794" lon="-75.743933">
    <ele>579</ele>
    <time>2014-06-16T15:28:31Z</time>
    <speed>14.638443</speed>
  </trkpt>
  <trkpt lat="5.854952" lon="-75.744166">
    <ele>578</ele>
    <time>2014-06-16T15:28:33Z</time>
    <speed>13.7344675</speed>
  </trkpt>
  <trkpt lat="5.855118" lon="-75.744360">
    <ele>579</ele>
    <time>2014-06-16T15:28:35Z</time>
    <speed>13.16542</speed>
  </trkpt>
  <trkpt lat="5.855282" lon="-75.744519">
    <ele>578</ele>
    <time>2014-06-16T15:28:37Z</time>
    <speed>10.120671</speed>
  </trkpt>
  <trkpt lat="5.855433" lon="-75.744637">
    <ele>576</ele>
    <time>2014-06-16T15:28:40Z</time>
    <speed>6.051877</speed>
  </trkpt>
  <trkpt lat="5.855541" lon="-75.744721">
    <ele>577</ele>
    <time>2014-06-16T15:28:42Z</time>
    <speed>6.5499325</speed>
  </trkpt>
  <trkpt lat="5.855653" lon="-75.744807">
    <ele>577</ele>
    <time>2014-06-16T15:28:44Z</time>
    <speed>6.900886</speed>
  </trkpt>
  <trkpt lat="5.855760" lon="-75.744890">
    <ele>577</ele>
    <time>2014-06-16T15:28:46Z</time>
    <speed>7.4113293</speed>
  </trkpt>
  <trkpt lat="5.855881" lon="-75.744985">
    <ele>576</ele>
    <time>2014-06-16T15:28:48Z</time>
    <speed>8.018508</speed>
  </trkpt>
  <trkpt lat="5.856020" lon="-75.745103">
    <ele>577</ele>
    <time>2014-06-16T15:28:50Z</time>
    <speed>10.035704</speed>
  </trkpt>
  <trkpt lat="5.856179" lon="-75.745246">
    <ele>576</ele>
    <time>2014-06-16T15:28:52Z</time>
    <speed>10.56836</speed>
  </trkpt>
  <trkpt lat="5.856339" lon="-75.745397">
    <ele>576</ele>
    <time>2014-06-16T15:28:54Z</time>
    <speed>11.189266</speed>
  </trkpt>
  <trkpt lat="5.856505" lon="-75.745545">
    <ele>577</ele>
    <time>2014-06-16T15:28:56Z</time>
    <speed>11.867484</speed>
  </trkpt>
  <trkpt lat="5.856702" lon="-75.745699">
    <ele>577</ele>
    <time>2014-06-16T15:28:58Z</time>
    <speed>13.093464</speed>
  </trkpt>
  <trkpt lat="5.856956" lon="-75.745777">
    <ele>578</ele>
    <time>2014-06-16T15:29:00Z</time>
    <speed>14.21109</speed>
  </trkpt>
  <trkpt lat="5.857205" lon="-75.745829">
    <ele>580</ele>
    <time>2014-06-16T15:29:02Z</time>
    <speed>12.472156</speed>
  </trkpt>
  <trkpt lat="5.857450" lon="-75.745869">
    <ele>578</ele>
    <time>2014-06-16T15:29:04Z</time>
    <speed>11.369827</speed>
  </trkpt>
  <trkpt lat="5.857695" lon="-75.745968">
    <ele>576</ele>
    <time>2014-06-16T15:29:06Z</time>
    <speed>13.196259</speed>
  </trkpt>
  <trkpt lat="5.857914" lon="-75.746129">
    <ele>576</ele>
    <time>2014-06-16T15:29:08Z</time>
    <speed>13.539591</speed>
  </trkpt>
  <trkpt lat="5.858077" lon="-75.746326">
    <ele>577</ele>
    <time>2014-06-16T15:29:10Z</time>
    <speed>14.032197</speed>
  </trkpt>
  <trkpt lat="5.858198" lon="-75.746551">
    <ele>578</ele>
    <time>2014-06-16T15:29:12Z</time>
    <speed>14.825931</speed>
  </trkpt>
  <trkpt lat="5.858308" lon="-75.746774">
    <ele>580</ele>
    <time>2014-06-16T15:29:14Z</time>
    <speed>13.433006</speed>
  </trkpt>
  <trkpt lat="5.858425" lon="-75.747040">
    <ele>581</ele>
    <time>2014-06-16T15:29:16Z</time>
    <speed>14.731984</speed>
  </trkpt>
  <trkpt lat="5.858571" lon="-75.747382">
    <ele>583</ele>
    <time>2014-06-16T15:29:18Z</time>
    <speed>16.891996</speed>
  </trkpt>
  <trkpt lat="5.858705" lon="-75.747751">
    <ele>585</ele>
    <time>2014-06-16T15:29:20Z</time>
    <speed>18.259457</speed>
  </trkpt>
  <trkpt lat="5.858847" lon="-75.748123">
    <ele>585</ele>
    <time>2014-06-16T15:29:22Z</time>
    <speed>19.41938</speed>
  </trkpt>
  <trkpt lat="5.858994" lon="-75.748497">
    <ele>583</ele>
    <time>2014-06-16T15:29:24Z</time>
    <speed>19.782578</speed>
  </trkpt>
  <trkpt lat="5.859207" lon="-75.749033">
    <ele>583</ele>
    <time>2014-06-16T15:29:27Z</time>
    <speed>19.847462</speed>
  </trkpt>
  <trkpt lat="5.859391" lon="-75.749349">
    <ele>584</ele>
    <time>2014-06-16T15:29:29Z</time>
    <speed>19.879557</speed>
  </trkpt>
  <trkpt lat="5.859599" lon="-75.749640">
    <ele>585</ele>
    <time>2014-06-16T15:29:31Z</time>
    <speed>18.59002</speed>
  </trkpt>
  <trkpt lat="5.859816" lon="-75.749922">
    <ele>587</ele>
    <time>2014-06-16T15:29:33Z</time>
    <speed>19.182333</speed>
  </trkpt>
  <trkpt lat="5.860030" lon="-75.750192">
    <ele>590</ele>
    <time>2014-06-16T15:29:35Z</time>
    <speed>18.545855</speed>
  </trkpt>
  <trkpt lat="5.860248" lon="-75.750460">
    <ele>587</ele>
    <time>2014-06-16T15:29:37Z</time>
    <speed>19.110035</speed>
  </trkpt>
  <trkpt lat="5.860483" lon="-75.750735">
    <ele>587</ele>
    <time>2014-06-16T15:29:39Z</time>
    <speed>19.308464</speed>
  </trkpt>
  <trkpt lat="5.860726" lon="-75.750992">
    <ele>587</ele>
    <time>2014-06-16T15:29:41Z</time>
    <speed>19.4444</speed>
  </trkpt>
  <trkpt lat="5.860962" lon="-75.751247">
    <ele>586</ele>
    <time>2014-06-16T15:29:43Z</time>
    <speed>19.892223</speed>
  </trkpt>
  <trkpt lat="5.861217" lon="-75.751519">
    <ele>585</ele>
    <time>2014-06-16T15:29:45Z</time>
    <speed>20.071445</speed>
  </trkpt>
  <trkpt lat="5.861469" lon="-75.751794">
    <ele>584</ele>
    <time>2014-06-16T15:29:47Z</time>
    <speed>19.75107</speed>
  </trkpt>
  <trkpt lat="5.861706" lon="-75.752075">
    <ele>585</ele>
    <time>2014-06-16T15:29:49Z</time>
    <speed>20.02994</speed>
  </trkpt>
  <trkpt lat="5.861959" lon="-75.752358">
    <ele>588</ele>
    <time>2014-06-16T15:29:51Z</time>
    <speed>20.562365</speed>
  </trkpt>
  <trkpt lat="5.862226" lon="-75.752640">
    <ele>588</ele>
    <time>2014-06-16T15:29:53Z</time>
    <speed>20.48517</speed>
  </trkpt>
  <trkpt lat="5.862470" lon="-75.752906">
    <ele>589</ele>
    <time>2014-06-16T15:29:55Z</time>
    <speed>20.146603</speed>
  </trkpt>
  <trkpt lat="5.862730" lon="-75.753151">
    <ele>589</ele>
    <time>2014-06-16T15:29:57Z</time>
    <speed>20.124914</speed>
  </trkpt>
  <trkpt lat="5.862976" lon="-75.753420">
    <ele>588</ele>
    <time>2014-06-16T15:29:59Z</time>
    <speed>20.028978</speed>
  </trkpt>
  <trkpt lat="5.863228" lon="-75.753685">
    <ele>587</ele>
    <time>2014-06-16T15:30:01Z</time>
    <speed>19.671387</speed>
  </trkpt>
  <trkpt lat="5.863452" lon="-75.753942">
    <ele>588</ele>
    <time>2014-06-16T15:30:03Z</time>
    <speed>18.136454</speed>
  </trkpt>
  <trkpt lat="5.863690" lon="-75.754201">
    <ele>588</ele>
    <time>2014-06-16T15:30:05Z</time>
    <speed>19.197598</speed>
  </trkpt>
  <trkpt lat="5.863900" lon="-75.754469">
    <ele>589</ele>
    <time>2014-06-16T15:30:07Z</time>
    <speed>18.367329</speed>
  </trkpt>
  <trkpt lat="5.864074" lon="-75.754722">
    <ele>591</ele>
    <time>2014-06-16T15:30:09Z</time>
    <speed>17.703352</speed>
  </trkpt>
  <trkpt lat="5.864256" lon="-75.754987">
    <ele>592</ele>
    <time>2014-06-16T15:30:11Z</time>
    <speed>17.782106</speed>
  </trkpt>
  <trkpt lat="5.864423" lon="-75.755263">
    <ele>596</ele>
    <time>2014-06-16T15:30:13Z</time>
    <speed>17.511576</speed>
  </trkpt>
  <trkpt lat="5.864593" lon="-75.755542">
    <ele>596</ele>
    <time>2014-06-16T15:30:15Z</time>
    <speed>17.857555</speed>
  </trkpt>
  <trkpt lat="5.864766" lon="-75.755819">
    <ele>598</ele>
    <time>2014-06-16T15:30:17Z</time>
    <speed>18.03192</speed>
  </trkpt>
  <trkpt lat="5.864937" lon="-75.756121">
    <ele>598</ele>
    <time>2014-06-16T15:30:19Z</time>
    <speed>18.24949</speed>
  </trkpt>
  <trkpt lat="5.865106" lon="-75.756423">
    <ele>601</ele>
    <time>2014-06-16T15:30:21Z</time>
    <speed>18.314508</speed>
  </trkpt>
  <trkpt lat="5.865271" lon="-75.756714">
    <ele>603</ele>
    <time>2014-06-16T15:30:23Z</time>
    <speed>18.34997</speed>
  </trkpt>
  <trkpt lat="5.865445" lon="-75.757005">
    <ele>604</ele>
    <time>2014-06-16T15:30:25Z</time>
    <speed>18.875614</speed>
  </trkpt>
  <trkpt lat="5.865631" lon="-75.757305">
    <ele>605</ele>
    <time>2014-06-16T15:30:27Z</time>
    <speed>18.96628</speed>
  </trkpt>
  <trkpt lat="5.865808" lon="-75.757602">
    <ele>603</ele>
    <time>2014-06-16T15:30:29Z</time>
    <speed>18.606077</speed>
  </trkpt>
  <trkpt lat="5.865993" lon="-75.757899">
    <ele>603</ele>
    <time>2014-06-16T15:30:31Z</time>
    <speed>18.45513</speed>
  </trkpt>
  <trkpt lat="5.866175" lon="-75.758200">
    <ele>601</ele>
    <time>2014-06-16T15:30:33Z</time>
    <speed>18.870617</speed>
  </trkpt>
  <trkpt lat="5.866361" lon="-75.758497">
    <ele>600</ele>
    <time>2014-06-16T15:30:35Z</time>
    <speed>18.822159</speed>
  </trkpt>
  <trkpt lat="5.866555" lon="-75.758796">
    <ele>599</ele>
    <time>2014-06-16T15:30:37Z</time>
    <speed>19.135445</speed>
  </trkpt>
  <trkpt lat="5.866724" lon="-75.759060">
    <ele>597</ele>
    <time>2014-06-16T15:30:39Z</time>
    <speed>17.128284</speed>
  </trkpt>
  <trkpt lat="5.866894" lon="-75.759333">
    <ele>598</ele>
    <time>2014-06-16T15:30:41Z</time>
    <speed>17.240332</speed>
  </trkpt>
  <trkpt lat="5.867049" lon="-75.759591">
    <ele>596</ele>
    <time>2014-06-16T15:30:43Z</time>
    <speed>16.264112</speed>
  </trkpt>
  <trkpt lat="5.867199" lon="-75.759845">
    <ele>594</ele>
    <time>2014-06-16T15:30:45Z</time>
    <speed>15.757903</speed>
  </trkpt>
  <trkpt lat="5.867342" lon="-75.760089">
    <ele>594</ele>
    <time>2014-06-16T15:30:47Z</time>
    <speed>15.069133</speed>
  </trkpt>
  <trkpt lat="5.867471" lon="-75.760307">
    <ele>595</ele>
    <time>2014-06-16T15:30:49Z</time>
    <speed>12.927418</speed>
  </trkpt>
  <trkpt lat="5.867588" lon="-75.760502">
    <ele>596</ele>
    <time>2014-06-16T15:30:51Z</time>
    <speed>11.338373</speed>
  </trkpt>
  <trkpt lat="5.867699" lon="-75.760675">
    <ele>597</ele>
    <time>2014-06-16T15:30:53Z</time>
    <speed>9.799533</speed>
  </trkpt>
  <trkpt lat="5.867784" lon="-75.760830">
    <ele>599</ele>
    <time>2014-06-16T15:30:55Z</time>
    <speed>9.752357</speed>
  </trkpt>
  <trkpt lat="5.867763" lon="-75.761025">
    <ele>601</ele>
    <time>2014-06-16T15:30:57Z</time>
    <speed>8.521081</speed>
  </trkpt>
  <trkpt lat="5.867701" lon="-75.761253">
    <ele>603</ele>
    <time>2014-06-16T15:30:59Z</time>
    <speed>11.645906</speed>
  </trkpt>
  <trkpt lat="5.867652" lon="-75.761449">
    <ele>602</ele>
    <time>2014-06-16T15:31:01Z</time>
    <speed>10.276217</speed>
  </trkpt>
  <trkpt lat="5.867573" lon="-75.761653">
    <ele>602</ele>
    <time>2014-06-16T15:31:03Z</time>
    <speed>12.94882</speed>
  </trkpt>
  <trkpt lat="5.867446" lon="-75.761917">
    <ele>598</ele>
    <time>2014-06-16T15:31:05Z</time>
    <speed>12.775273</speed>
  </trkpt>
  <trkpt lat="5.867321" lon="-75.762178">
    <ele>594</ele>
    <time>2014-06-16T15:31:07Z</time>
    <speed>12.743218</speed>
  </trkpt>
  <trkpt lat="5.867317" lon="-75.762360">
    <ele>594</ele>
    <time>2014-06-16T15:31:09Z</time>
    <speed>7.932428</speed>
  </trkpt>
  <trkpt lat="5.867410" lon="-75.762576">
    <ele>593</ele>
    <time>2014-06-16T15:31:11Z</time>
    <speed>10.559012</speed>
  </trkpt>
  <trkpt lat="5.867567" lon="-75.762707">
    <ele>594</ele>
    <time>2014-06-16T15:31:13Z</time>
    <speed>11.936103</speed>
  </trkpt>
  <trkpt lat="5.867758" lon="-75.762787">
    <ele>594</ele>
    <time>2014-06-16T15:31:15Z</time>
    <speed>11.759625</speed>
  </trkpt>
  <trkpt lat="5.867953" lon="-75.762875">
    <ele>595</ele>
    <time>2014-06-16T15:31:17Z</time>
    <speed>10.772621</speed>
  </trkpt>
  <trkpt lat="5.868116" lon="-75.762951">
    <ele>596</ele>
    <time>2014-06-16T15:31:19Z</time>
    <speed>9.172074</speed>
  </trkpt>
  <trkpt lat="5.868298" lon="-75.763108">
    <ele>597</ele>
    <time>2014-06-16T15:31:21Z</time>
    <speed>11.249421</speed>
  </trkpt>
  <trkpt lat="5.868451" lon="-75.763277">
    <ele>599</ele>
    <time>2014-06-16T15:31:23Z</time>
    <speed>10.807388</speed>
  </trkpt>
  <trkpt lat="5.868591" lon="-75.763460">
    <ele>600</ele>
    <time>2014-06-16T15:31:25Z</time>
    <speed>11.550066</speed>
  </trkpt>
  <trkpt lat="5.868746" lon="-75.763673">
    <ele>603</ele>
    <time>2014-06-16T15:31:27Z</time>
    <speed>11.617983</speed>
  </trkpt>
  <trkpt lat="5.868897" lon="-75.763871">
    <ele>602</ele>
    <time>2014-06-16T15:31:29Z</time>
    <speed>11.352952</speed>
  </trkpt>
  <trkpt lat="5.869077" lon="-75.764007">
    <ele>604</ele>
    <time>2014-06-16T15:31:31Z</time>
    <speed>10.668957</speed>
  </trkpt>
  <trkpt lat="5.869293" lon="-75.764068">
    <ele>606</ele>
    <time>2014-06-16T15:31:33Z</time>
    <speed>10.577069</speed>
  </trkpt>
  <trkpt lat="5.869509" lon="-75.764106">
    <ele>608</ele>
    <time>2014-06-16T15:31:35Z</time>
    <speed>10.134349</speed>
  </trkpt>
  <trkpt lat="5.869731" lon="-75.764133">
    <ele>609</ele>
    <time>2014-06-16T15:31:37Z</time>
    <speed>10.476645</speed>
  </trkpt>
  <trkpt lat="5.869949" lon="-75.764164">
    <ele>611</ele>
    <time>2014-06-16T15:31:39Z</time>
    <speed>11.5638075</speed>
  </trkpt>
  <trkpt lat="5.870203" lon="-75.764202">
    <ele>612</ele>
    <time>2014-06-16T15:31:41Z</time>
    <speed>11.978985</speed>
  </trkpt>
  <trkpt lat="5.870490" lon="-75.764281">
    <ele>612</ele>
    <time>2014-06-16T15:31:43Z</time>
    <speed>13.430249</speed>
  </trkpt>
  <trkpt lat="5.870777" lon="-75.764377">
    <ele>611</ele>
    <time>2014-06-16T15:31:45Z</time>
    <speed>13.172848</speed>
  </trkpt>
  <trkpt lat="5.871058" lon="-75.764462">
    <ele>609</ele>
    <time>2014-06-16T15:31:47Z</time>
    <speed>14.2794</speed>
  </trkpt>
  <trkpt lat="5.871375" lon="-75.764525">
    <ele>611</ele>
    <time>2014-06-16T15:31:49Z</time>
    <speed>14.597613</speed>
  </trkpt>
  <trkpt lat="5.871683" lon="-75.764571">
    <ele>609</ele>
    <time>2014-06-16T15:31:51Z</time>
    <speed>14.882643</speed>
  </trkpt>
  <trkpt lat="5.871971" lon="-75.764618">
    <ele>608</ele>
    <time>2014-06-16T15:31:53Z</time>
    <speed>14.763959</speed>
  </trkpt>
  <trkpt lat="5.872254" lon="-75.764696">
    <ele>608</ele>
    <time>2014-06-16T15:31:55Z</time>
    <speed>14.859583</speed>
  </trkpt>
  <trkpt lat="5.872502" lon="-75.764855">
    <ele>606</ele>
    <time>2014-06-16T15:31:57Z</time>
    <speed>15.441479</speed>
  </trkpt>
  <trkpt lat="5.872738" lon="-75.765023">
    <ele>607</ele>
    <time>2014-06-16T15:31:59Z</time>
    <speed>15.606388</speed>
  </trkpt>
  <trkpt lat="5.872958" lon="-75.765190">
    <ele>604</ele>
    <time>2014-06-16T15:32:01Z</time>
    <speed>14.095673</speed>
  </trkpt>
  <trkpt lat="5.873156" lon="-75.765372">
    <ele>604</ele>
    <time>2014-06-16T15:32:03Z</time>
    <speed>13.673899</speed>
  </trkpt>
  <trkpt lat="5.873267" lon="-75.765602">
    <ele>605</ele>
    <time>2014-06-16T15:32:05Z</time>
    <speed>14.148203</speed>
  </trkpt>
  <trkpt lat="5.873396" lon="-75.765865">
    <ele>603</ele>
    <time>2014-06-16T15:32:07Z</time>
    <speed>14.65485</speed>
  </trkpt>
  <trkpt lat="5.873542" lon="-75.766120">
    <ele>602</ele>
    <time>2014-06-16T15:32:09Z</time>
    <speed>15.012474</speed>
  </trkpt>
  <trkpt lat="5.873699" lon="-75.766374">
    <ele>603</ele>
    <time>2014-06-16T15:32:11Z</time>
    <speed>16.234083</speed>
  </trkpt>
  <trkpt lat="5.873874" lon="-75.766659">
    <ele>602</ele>
    <time>2014-06-16T15:32:13Z</time>
    <speed>16.368145</speed>
  </trkpt>
  <trkpt lat="5.874055" lon="-75.766944">
    <ele>602</ele>
    <time>2014-06-16T15:32:15Z</time>
    <speed>17.104546</speed>
  </trkpt>
  <trkpt lat="5.874238" lon="-75.767224">
    <ele>601</ele>
    <time>2014-06-16T15:32:17Z</time>
    <speed>18.17265</speed>
  </trkpt>
  <trkpt lat="5.874417" lon="-75.767506">
    <ele>602</ele>
    <time>2014-06-16T15:32:19Z</time>
    <speed>18.329418</speed>
  </trkpt>
  <trkpt lat="5.874594" lon="-75.767789">
    <ele>598</ele>
    <time>2014-06-16T15:32:21Z</time>
    <speed>18.163763</speed>
  </trkpt>
  <trkpt lat="5.874766" lon="-75.768064">
    <ele>597</ele>
    <time>2014-06-16T15:32:23Z</time>
    <speed>17.157694</speed>
  </trkpt>
  <trkpt lat="5.874919" lon="-75.768316">
    <ele>594</ele>
    <time>2014-06-16T15:32:25Z</time>
    <speed>15.353332</speed>
  </trkpt>
  <trkpt lat="5.875048" lon="-75.768541">
    <ele>594</ele>
    <time>2014-06-16T15:32:27Z</time>
    <speed>13.5755205</speed>
  </trkpt>
  <trkpt lat="5.875153" lon="-75.768778">
    <ele>592</ele>
    <time>2014-06-16T15:32:29Z</time>
    <speed>14.079481</speed>
  </trkpt>
  <trkpt lat="5.875173" lon="-75.769059">
    <ele>590</ele>
    <time>2014-06-16T15:32:31Z</time>
    <speed>13.983175</speed>
  </trkpt>
  <trkpt lat="5.875118" lon="-75.769347">
    <ele>591</ele>
    <time>2014-06-16T15:32:33Z</time>
    <speed>15.292218</speed>
  </trkpt>
  <trkpt lat="5.875036" lon="-75.769630">
    <ele>586</ele>
    <time>2014-06-16T15:32:35Z</time>
    <speed>13.689475</speed>
  </trkpt>
  <trkpt lat="5.875045" lon="-75.769884">
    <ele>586</ele>
    <time>2014-06-16T15:32:37Z</time>
    <speed>13.083725</speed>
  </trkpt>
  <trkpt lat="5.875191" lon="-75.770086">
    <ele>585</ele>
    <time>2014-06-16T15:32:39Z</time>
    <speed>13.363291</speed>
  </trkpt>
  <trkpt lat="5.875404" lon="-75.770264">
    <ele>584</ele>
    <time>2014-06-16T15:32:41Z</time>
    <speed>15.206714</speed>
  </trkpt>
  <trkpt lat="5.875650" lon="-75.770457">
    <ele>584</ele>
    <time>2014-06-16T15:32:43Z</time>
    <speed>15.844044</speed>
  </trkpt>
  <trkpt lat="5.875860" lon="-75.770678">
    <ele>582</ele>
    <time>2014-06-16T15:32:45Z</time>
    <speed>15.491807</speed>
  </trkpt>
  <trkpt lat="5.876024" lon="-75.770914">
    <ele>581</ele>
    <time>2014-06-16T15:32:47Z</time>
    <speed>15.033248</speed>
  </trkpt>
  <trkpt lat="5.876174" lon="-75.771159">
    <ele>580</ele>
    <time>2014-06-16T15:32:49Z</time>
    <speed>14.223636</speed>
  </trkpt>
  <trkpt lat="5.876302" lon="-75.771375">
    <ele>578</ele>
    <time>2014-06-16T15:32:51Z</time>
    <speed>12.225935</speed>
  </trkpt>
  <trkpt lat="5.876439" lon="-75.771496">
    <ele>578</ele>
    <time>2014-06-16T15:32:53Z</time>
    <speed>9.743984</speed>
  </trkpt>
  <trkpt lat="5.876592" lon="-75.771547">
    <ele>579</ele>
    <time>2014-06-16T15:32:55Z</time>
    <speed>8.278908</speed>
  </trkpt>
  <trkpt lat="5.876747" lon="-75.771529">
    <ele>580</ele>
    <time>2014-06-16T15:32:57Z</time>
    <speed>8.410721</speed>
  </trkpt>
  <trkpt lat="5.876899" lon="-75.771536">
    <ele>581</ele>
    <time>2014-06-16T15:32:59Z</time>
    <speed>7.488135</speed>
  </trkpt>
  <trkpt lat="5.877060" lon="-75.771566">
    <ele>582</ele>
    <time>2014-06-16T15:33:01Z</time>
    <speed>6.9728727</speed>
  </trkpt>
  <trkpt lat="5.877171" lon="-75.771650">
    <ele>581</ele>
    <time>2014-06-16T15:33:03Z</time>
    <speed>7.095037</speed>
  </trkpt>
  <trkpt lat="5.877250" lon="-75.771762">
    <ele>582</ele>
    <time>2014-06-16T15:33:05Z</time>
    <speed>7.965191</speed>
  </trkpt>
  <trkpt lat="5.877324" lon="-75.771901">
    <ele>583</ele>
    <time>2014-06-16T15:33:07Z</time>
    <speed>8.11</speed>
  </trkpt>
  <trkpt lat="5.877407" lon="-75.772061">
    <ele>584</ele>
    <time>2014-06-16T15:33:09Z</time>
    <speed>9.211366</speed>
  </trkpt>
  <trkpt lat="5.877494" lon="-75.772206">
    <ele>584</ele>
    <time>2014-06-16T15:33:11Z</time>
    <speed>8.561984</speed>
  </trkpt>
  <trkpt lat="5.877590" lon="-75.772367">
    <ele>585</ele>
    <time>2014-06-16T15:33:13Z</time>
    <speed>9.644432</speed>
  </trkpt>
  <trkpt lat="5.877684" lon="-75.772541">
    <ele>587</ele>
    <time>2014-06-16T15:33:15Z</time>
    <speed>10.119182</speed>
  </trkpt>
  <trkpt lat="5.877778" lon="-75.772732">
    <ele>587</ele>
    <time>2014-06-16T15:33:17Z</time>
    <speed>10.921222</speed>
  </trkpt>
  <trkpt lat="5.877852" lon="-75.772951">
    <ele>586</ele>
    <time>2014-06-16T15:33:19Z</time>
    <speed>11.135557</speed>
  </trkpt>
  <trkpt lat="5.877924" lon="-75.773185">
    <ele>586</ele>
    <time>2014-06-16T15:33:21Z</time>
    <speed>11.440161</speed>
  </trkpt>
  <trkpt lat="5.877994" lon="-75.773400">
    <ele>586</ele>
    <time>2014-06-16T15:33:23Z</time>
    <speed>11.458548</speed>
  </trkpt>
  <trkpt lat="5.878078" lon="-75.773629">
    <ele>586</ele>
    <time>2014-06-16T15:33:25Z</time>
    <speed>12.501899</speed>
  </trkpt>
  <trkpt lat="5.878185" lon="-75.773875">
    <ele>586</ele>
    <time>2014-06-16T15:33:27Z</time>
    <speed>12.874777</speed>
  </trkpt>
  <trkpt lat="5.878304" lon="-75.774117">
    <ele>585</ele>
    <time>2014-06-16T15:33:29Z</time>
    <speed>14.440614</speed>
  </trkpt>
  <trkpt lat="5.878442" lon="-75.774359">
    <ele>585</ele>
    <time>2014-06-16T15:33:31Z</time>
    <speed>13.931253</speed>
  </trkpt>
  <trkpt lat="5.878601" lon="-75.774622">
    <ele>584</ele>
    <time>2014-06-16T15:33:33Z</time>
    <speed>14.988835</speed>
  </trkpt>
  <trkpt lat="5.878756" lon="-75.774876">
    <ele>585</ele>
    <time>2014-06-16T15:33:35Z</time>
    <speed>15.186135</speed>
  </trkpt>
  <trkpt lat="5.878902" lon="-75.775121">
    <ele>585</ele>
    <time>2014-06-16T15:33:37Z</time>
    <speed>15.765151</speed>
  </trkpt>
  <trkpt lat="5.879028" lon="-75.775376">
    <ele>583</ele>
    <time>2014-06-16T15:33:39Z</time>
    <speed>14.885189</speed>
  </trkpt>
  <trkpt lat="5.879149" lon="-75.775637">
    <ele>583</ele>
    <time>2014-06-16T15:33:41Z</time>
    <speed>13.9415655</speed>
  </trkpt>
  <trkpt lat="5.879284" lon="-75.775900">
    <ele>581</ele>
    <time>2014-06-16T15:33:43Z</time>
    <speed>15.201794</speed>
  </trkpt>
  <trkpt lat="5.879478" lon="-75.776108">
    <ele>580</ele>
    <time>2014-06-16T15:33:45Z</time>
    <speed>14.998375</speed>
  </trkpt>
  <trkpt lat="5.879681" lon="-75.776294">
    <ele>579</ele>
    <time>2014-06-16T15:33:47Z</time>
    <speed>14.253641</speed>
  </trkpt>
  <trkpt lat="5.879892" lon="-75.776513">
    <ele>579</ele>
    <time>2014-06-16T15:33:49Z</time>
    <speed>15.898341</speed>
  </trkpt>
  <trkpt lat="5.880104" lon="-75.776722">
    <ele>575</ele>
    <time>2014-06-16T15:33:51Z</time>
    <speed>15.114464</speed>
  </trkpt>
  <trkpt lat="5.880309" lon="-75.776914">
    <ele>576</ele>
    <time>2014-06-16T15:33:53Z</time>
    <speed>14.627031</speed>
  </trkpt>
  <trkpt lat="5.880544" lon="-75.777106">
    <ele>575</ele>
    <time>2014-06-16T15:33:55Z</time>
    <speed>15.597581</speed>
  </trkpt>
  <trkpt lat="5.880792" lon="-75.777311">
    <ele>575</ele>
    <time>2014-06-16T15:33:57Z</time>
    <speed>15.832646</speed>
  </trkpt>
  <trkpt lat="5.881021" lon="-75.777540">
    <ele>575</ele>
    <time>2014-06-16T15:33:59Z</time>
    <speed>16.259195</speed>
  </trkpt>
  <trkpt lat="5.881210" lon="-75.777744">
    <ele>574</ele>
    <time>2014-06-16T15:34:01Z</time>
    <speed>14.679815</speed>
  </trkpt>
  <trkpt lat="5.881377" lon="-75.777938">
    <ele>574</ele>
    <time>2014-06-16T15:34:03Z</time>
    <speed>14.214132</speed>
  </trkpt>
  <trkpt lat="5.881531" lon="-75.778125">
    <ele>575</ele>
    <time>2014-06-16T15:34:05Z</time>
    <speed>13.222714</speed>
  </trkpt>
  <trkpt lat="5.881690" lon="-75.778307">
    <ele>576</ele>
    <time>2014-06-16T15:34:07Z</time>
    <speed>13.002078</speed>
  </trkpt>
  <trkpt lat="5.881828" lon="-75.778471">
    <ele>575</ele>
    <time>2014-06-16T15:34:09Z</time>
    <speed>12.189428</speed>
  </trkpt>
  <trkpt lat="5.881946" lon="-75.778649">
    <ele>575</ele>
    <time>2014-06-16T15:34:11Z</time>
    <speed>12.205712</speed>
  </trkpt>
  <trkpt lat="5.882064" lon="-75.778853">
    <ele>576</ele>
    <time>2014-06-16T15:34:13Z</time>
    <speed>12.79608</speed>
  </trkpt>
  <trkpt lat="5.882179" lon="-75.779068">
    <ele>574</ele>
    <time>2014-06-16T15:34:15Z</time>
    <speed>11.775153</speed>
  </trkpt>
  <trkpt lat="5.882252" lon="-75.779184">
    <ele>573</ele>
    <time>2014-06-16T15:34:17Z</time>
    <speed>6.4156556</speed>
  </trkpt>
  <trkpt lat="5.882317" lon="-75.779281">
    <ele>572</ele>
    <time>2014-06-16T15:34:19Z</time>
    <speed>6.2231226</speed>
  </trkpt>
  <trkpt lat="5.882390" lon="-75.779397">
    <ele>572</ele>
    <time>2014-06-16T15:34:21Z</time>
    <speed>6.5849624</speed>
  </trkpt>
  <trkpt lat="5.882442" lon="-75.779505">
    <ele>571</ele>
    <time>2014-06-16T15:34:23Z</time>
    <speed>5.192984</speed>
  </trkpt>
  <trkpt lat="5.882476" lon="-75.779590">
    <ele>570</ele>
    <time>2014-06-16T15:34:25Z</time>
    <speed>5.526543</speed>
  </trkpt>
  <trkpt lat="5.882511" lon="-75.779681">
    <ele>570</ele>
    <time>2014-06-16T15:34:27Z</time>
    <speed>5.4568458</speed>
  </trkpt>
  <trkpt lat="5.882556" lon="-75.779780">
    <ele>572</ele>
    <time>2014-06-16T15:34:29Z</time>
    <speed>6.297401</speed>
  </trkpt>
  <trkpt lat="5.882610" lon="-75.779907">
    <ele>570</ele>
    <time>2014-06-16T15:34:31Z</time>
    <speed>7.7606645</speed>
  </trkpt>
  <trkpt lat="5.882709" lon="-75.780093">
    <ele>570</ele>
    <time>2014-06-16T15:34:33Z</time>
    <speed>9.573523</speed>
  </trkpt>
  <trkpt lat="5.882823" lon="-75.780293">
    <ele>568</ele>
    <time>2014-06-16T15:34:35Z</time>
    <speed>9.326961</speed>
  </trkpt>
  <trkpt lat="5.882933" lon="-75.780479">
    <ele>568</ele>
    <time>2014-06-16T15:34:37Z</time>
    <speed>8.908661</speed>
  </trkpt>
  <trkpt lat="5.883029" lon="-75.780601">
    <ele>567</ele>
    <time>2014-06-16T15:34:39Z</time>
    <speed>6.649616</speed>
  </trkpt>
  <trkpt lat="5.883122" lon="-75.780679">
    <ele>567</ele>
    <time>2014-06-16T15:34:41Z</time>
    <speed>6.719387</speed>
  </trkpt>
  <trkpt lat="5.883238" lon="-75.780765">
    <ele>568</ele>
    <time>2014-06-16T15:34:43Z</time>
    <speed>7.0663075</speed>
  </trkpt>
  <trkpt lat="5.883399" lon="-75.780830">
    <ele>569</ele>
    <time>2014-06-16T15:34:45Z</time>
    <speed>7.827207</speed>
  </trkpt>
  <trkpt lat="5.883594" lon="-75.780841">
    <ele>569</ele>
    <time>2014-06-16T15:34:47Z</time>
    <speed>8.931505</speed>
  </trkpt>
  <trkpt lat="5.883764" lon="-75.780882">
    <ele>569</ele>
    <time>2014-06-16T15:34:49Z</time>
    <speed>7.2737026</speed>
  </trkpt>
  <trkpt lat="5.883929" lon="-75.780931">
    <ele>567</ele>
    <time>2014-06-16T15:34:51Z</time>
    <speed>7.4393697</speed>
  </trkpt>
  <trkpt lat="5.884092" lon="-75.781004">
    <ele>569</ele>
    <time>2014-06-16T15:34:53Z</time>
    <speed>7.899881</speed>
  </trkpt>
  <trkpt lat="5.884239" lon="-75.781094">
    <ele>570</ele>
    <time>2014-06-16T15:34:55Z</time>
    <speed>8.111957</speed>
  </trkpt>
  <trkpt lat="5.884345" lon="-75.781209">
    <ele>570</ele>
    <time>2014-06-16T15:34:57Z</time>
    <speed>8.405234</speed>
  </trkpt>
  <trkpt lat="5.884444" lon="-75.781349">
    <ele>571</ele>
    <time>2014-06-16T15:34:59Z</time>
    <speed>8.689012</speed>
  </trkpt>
  <trkpt lat="5.884532" lon="-75.781488">
    <ele>571</ele>
    <time>2014-06-16T15:35:01Z</time>
    <speed>8.560043</speed>
  </trkpt>
  <trkpt lat="5.884621" lon="-75.781622">
    <ele>573</ele>
    <time>2014-06-16T15:35:03Z</time>
    <speed>8.177085</speed>
  </trkpt>
  <trkpt lat="5.884723" lon="-75.781771">
    <ele>574</ele>
    <time>2014-06-16T15:35:05Z</time>
    <speed>9.551874</speed>
  </trkpt>
  <trkpt lat="5.884843" lon="-75.781945">
    <ele>575</ele>
    <time>2014-06-16T15:35:07Z</time>
    <speed>9.991165</speed>
  </trkpt>
  <trkpt lat="5.884947" lon="-75.782114">
    <ele>575</ele>
    <time>2014-06-16T15:35:09Z</time>
    <speed>9.903572</speed>
  </trkpt>
  <trkpt lat="5.885044" lon="-75.782289">
    <ele>574</ele>
    <time>2014-06-16T15:35:11Z</time>
    <speed>10.055762</speed>
  </trkpt>
  <trkpt lat="5.885158" lon="-75.782471">
    <ele>574</ele>
    <time>2014-06-16T15:35:13Z</time>
    <speed>11.3313265</speed>
  </trkpt>
  <trkpt lat="5.885286" lon="-75.782689">
    <ele>573</ele>
    <time>2014-06-16T15:35:15Z</time>
    <speed>12.406721</speed>
  </trkpt>
  <trkpt lat="5.885411" lon="-75.782915">
    <ele>572</ele>
    <time>2014-06-16T15:35:17Z</time>
    <speed>11.52142</speed>
  </trkpt>
  <trkpt lat="5.885533" lon="-75.783121">
    <ele>571</ele>
    <time>2014-06-16T15:35:19Z</time>
    <speed>12.5210285</speed>
  </trkpt>
  <trkpt lat="5.885673" lon="-75.783343">
    <ele>570</ele>
    <time>2014-06-16T15:35:21Z</time>
    <speed>12.51859</speed>
  </trkpt>
  <trkpt lat="5.885815" lon="-75.783543">
    <ele>571</ele>
    <time>2014-06-16T15:35:23Z</time>
    <speed>12.655638</speed>
  </trkpt>
  <trkpt lat="5.886027" lon="-75.783692">
    <ele>570</ele>
    <time>2014-06-16T15:35:25Z</time>
    <speed>14.123899</speed>
  </trkpt>
  <trkpt lat="5.886263" lon="-75.783831">
    <ele>571</ele>
    <time>2014-06-16T15:35:27Z</time>
    <speed>15.406756</speed>
  </trkpt>
  <trkpt lat="5.886547" lon="-75.783981">
    <ele>570</ele>
    <time>2014-06-16T15:35:29Z</time>
    <speed>15.515155</speed>
  </trkpt>
  <trkpt lat="5.886821" lon="-75.784141">
    <ele>570</ele>
    <time>2014-06-16T15:35:31Z</time>
    <speed>15.805617</speed>
  </trkpt>
  <trkpt lat="5.887079" lon="-75.784279">
    <ele>571</ele>
    <time>2014-06-16T15:35:33Z</time>
    <speed>15.180766</speed>
  </trkpt>
  <trkpt lat="5.887324" lon="-75.784402">
    <ele>572</ele>
    <time>2014-06-16T15:35:35Z</time>
    <speed>14.128967</speed>
  </trkpt>
  <trkpt lat="5.887556" lon="-75.784514">
    <ele>573</ele>
    <time>2014-06-16T15:35:37Z</time>
    <speed>14.0547285</speed>
  </trkpt>
  <trkpt lat="5.887770" lon="-75.784625">
    <ele>575</ele>
    <time>2014-06-16T15:35:39Z</time>
    <speed>13.724482</speed>
  </trkpt>
  <trkpt lat="5.887980" lon="-75.784763">
    <ele>575</ele>
    <time>2014-06-16T15:35:41Z</time>
    <speed>13.349182</speed>
  </trkpt>
  <trkpt lat="5.888178" lon="-75.784923">
    <ele>576</ele>
    <time>2014-06-16T15:35:43Z</time>
    <speed>13.937536</speed>
  </trkpt>
  <trkpt lat="5.888364" lon="-75.785091">
    <ele>577</ele>
    <time>2014-06-16T15:35:45Z</time>
    <speed>13.366453</speed>
  </trkpt>
  <trkpt lat="5.888526" lon="-75.785244">
    <ele>580</ele>
    <time>2014-06-16T15:35:47Z</time>
    <speed>12.096403</speed>
  </trkpt>
  <trkpt lat="5.888661" lon="-75.785389">
    <ele>581</ele>
    <time>2014-06-16T15:35:49Z</time>
    <speed>12.17561</speed>
  </trkpt>
  <trkpt lat="5.888796" lon="-75.785561">
    <ele>581</ele>
    <time>2014-06-16T15:35:51Z</time>
    <speed>12.277504</speed>
  </trkpt>
  <trkpt lat="5.888929" lon="-75.785769">
    <ele>583</ele>
    <time>2014-06-16T15:35:53Z</time>
    <speed>12.17373</speed>
  </trkpt>
  <trkpt lat="5.889043" lon="-75.785982">
    <ele>584</ele>
    <time>2014-06-16T15:35:55Z</time>
    <speed>12.261728</speed>
  </trkpt>
  <trkpt lat="5.889154" lon="-75.786205">
    <ele>587</ele>
    <time>2014-06-16T15:35:57Z</time>
    <speed>13.073408</speed>
  </trkpt>
  <trkpt lat="5.889262" lon="-75.786432">
    <ele>588</ele>
    <time>2014-06-16T15:35:59Z</time>
    <speed>13.469626</speed>
  </trkpt>
  <trkpt lat="5.889363" lon="-75.786656">
    <ele>590</ele>
    <time>2014-06-16T15:36:01Z</time>
    <speed>13.717532</speed>
  </trkpt>
  <trkpt lat="5.889458" lon="-75.786874">
    <ele>590</ele>
    <time>2014-06-16T15:36:03Z</time>
    <speed>13.34326</speed>
  </trkpt>
  <trkpt lat="5.889541" lon="-75.787079">
    <ele>589</ele>
    <time>2014-06-16T15:36:05Z</time>
    <speed>12.99538</speed>
  </trkpt>
  <trkpt lat="5.889557" lon="-75.787359">
    <ele>589</ele>
    <time>2014-06-16T15:36:07Z</time>
    <speed>14.097602</speed>
  </trkpt>
  <trkpt lat="5.889533" lon="-75.787636">
    <ele>587</ele>
    <time>2014-06-16T15:36:09Z</time>
    <speed>14.931807</speed>
  </trkpt>
  <trkpt lat="5.889482" lon="-75.787877">
    <ele>586</ele>
    <time>2014-06-16T15:36:11Z</time>
    <speed>13.869672</speed>
  </trkpt>
  <trkpt lat="5.889427" lon="-75.788123">
    <ele>584</ele>
    <time>2014-06-16T15:36:13Z</time>
    <speed>13.326583</speed>
  </trkpt>
  <trkpt lat="5.889414" lon="-75.788348">
    <ele>580</ele>
    <time>2014-06-16T15:36:15Z</time>
    <speed>11.948577</speed>
  </trkpt>
  <trkpt lat="5.889480" lon="-75.788540">
    <ele>580</ele>
    <time>2014-06-16T15:36:17Z</time>
    <speed>10.2585945</speed>
  </trkpt>
  <trkpt lat="5.889538" lon="-75.788663">
    <ele>579</ele>
    <time>2014-06-16T15:36:19Z</time>
    <speed>7.263213</speed>
  </trkpt>
  <trkpt lat="5.889586" lon="-75.788766">
    <ele>578</ele>
    <time>2014-06-16T15:36:21Z</time>
    <speed>6.628973</speed>
  </trkpt>
  <trkpt lat="5.889632" lon="-75.788873">
    <ele>579</ele>
    <time>2014-06-16T15:36:23Z</time>
    <speed>6.8140206</speed>
  </trkpt>
  <trkpt lat="5.889671" lon="-75.788973">
    <ele>577</ele>
    <time>2014-06-16T15:36:25Z</time>
    <speed>5.831829</speed>
  </trkpt>
  <trkpt lat="5.889702" lon="-75.789053">
    <ele>576</ele>
    <time>2014-06-16T15:36:27Z</time>
    <speed>4.728048</speed>
  </trkpt>
  <trkpt lat="5.889725" lon="-75.789124">
    <ele>576</ele>
    <time>2014-06-16T15:36:29Z</time>
    <speed>4.0455403</speed>
  </trkpt>
  <trkpt lat="5.889755" lon="-75.789211">
    <ele>575</ele>
    <time>2014-06-16T15:36:31Z</time>
    <speed>4.316968</speed>
  </trkpt>
  <trkpt lat="5.889784" lon="-75.789307">
    <ele>575</ele>
    <time>2014-06-16T15:36:33Z</time>
    <speed>5.2962775</speed>
  </trkpt>
  <trkpt lat="5.889812" lon="-75.789404">
    <ele>574</ele>
    <time>2014-06-16T15:36:35Z</time>
    <speed>5.348195</speed>
  </trkpt>
  <trkpt lat="5.889841" lon="-75.789505">
    <ele>574</ele>
    <time>2014-06-16T15:36:37Z</time>
    <speed>5.1363697</speed>
  </trkpt>
  <trkpt lat="5.889867" lon="-75.789592">
    <ele>574</ele>
    <time>2014-06-16T15:36:39Z</time>
    <speed>4.418643</speed>
  </trkpt>
  <trkpt lat="5.889892" lon="-75.789668">
    <ele>574</ele>
    <time>2014-06-16T15:36:41Z</time>
    <speed>4.207007</speed>
  </trkpt>
  <trkpt lat="5.889916" lon="-75.789733">
    <ele>574</ele>
    <time>2014-06-16T15:36:43Z</time>
    <speed>3.9070563</speed>
  </trkpt>
  <trkpt lat="5.889943" lon="-75.789805">
    <ele>573</ele>
    <time>2014-06-16T15:36:45Z</time>
    <speed>4.468311</speed>
  </trkpt>
  <trkpt lat="5.889974" lon="-75.789881">
    <ele>576</ele>
    <time>2014-06-16T15:36:47Z</time>
    <speed>4.234293</speed>
  </trkpt>
  <trkpt lat="5.890013" lon="-75.789957">
    <ele>576</ele>
    <time>2014-06-16T15:36:49Z</time>
    <speed>3.748299</speed>
  </trkpt>
  <trkpt lat="5.890057" lon="-75.790052">
    <ele>578</ele>
    <time>2014-06-16T15:36:51Z</time>
    <speed>5.2235255</speed>
  </trkpt>
  <trkpt lat="5.890094" lon="-75.790180">
    <ele>580</ele>
    <time>2014-06-16T15:36:53Z</time>
    <speed>6.2220798</speed>
  </trkpt>
  <trkpt lat="5.890132" lon="-75.790313">
    <ele>581</ele>
    <time>2014-06-16T15:36:55Z</time>
    <speed>6.5848217</speed>
  </trkpt>
  <trkpt lat="5.890171" lon="-75.790449">
    <ele>583</ele>
    <time>2014-06-16T15:36:57Z</time>
    <speed>6.5229044</speed>
  </trkpt>
  <trkpt lat="5.890223" lon="-75.790631">
    <ele>584</ele>
    <time>2014-06-16T15:36:59Z</time>
    <speed>8.447984</speed>
  </trkpt>
  <trkpt lat="5.890283" lon="-75.790824">
    <ele>586</ele>
    <time>2014-06-16T15:37:01Z</time>
    <speed>8.071323</speed>
  </trkpt>
  <trkpt lat="5.890365" lon="-75.791020">
    <ele>588</ele>
    <time>2014-06-16T15:37:03Z</time>
    <speed>8.647573</speed>
  </trkpt>
  <trkpt lat="5.890452" lon="-75.791211">
    <ele>591</ele>
    <time>2014-06-16T15:37:05Z</time>
    <speed>8.741506</speed>
  </trkpt>
  <trkpt lat="5.890529" lon="-75.791380">
    <ele>592</ele>
    <time>2014-06-16T15:37:07Z</time>
    <speed>8.676886</speed>
  </trkpt>
  <trkpt lat="5.890605" lon="-75.791554">
    <ele>593</ele>
    <time>2014-06-16T15:37:09Z</time>
    <speed>9.673304</speed>
  </trkpt>
  <trkpt lat="5.890693" lon="-75.791754">
    <ele>595</ele>
    <time>2014-06-16T15:37:11Z</time>
    <speed>10.220065</speed>
  </trkpt>
  <trkpt lat="5.890821" lon="-75.791912">
    <ele>597</ele>
    <time>2014-06-16T15:37:13Z</time>
    <speed>10.128405</speed>
  </trkpt>
  <trkpt lat="5.890974" lon="-75.792036">
    <ele>598</ele>
    <time>2014-06-16T15:37:15Z</time>
    <speed>9.910605</speed>
  </trkpt>
  <trkpt lat="5.891138" lon="-75.792142">
    <ele>598</ele>
    <time>2014-06-16T15:37:17Z</time>
    <speed>9.670367</speed>
  </trkpt>
  <trkpt lat="5.891254" lon="-75.792292">
    <ele>599</ele>
    <time>2014-06-16T15:37:19Z</time>
    <speed>7.9014444</speed>
  </trkpt>
  <trkpt lat="5.891316" lon="-75.792450">
    <ele>602</ele>
    <time>2014-06-16T15:37:21Z</time>
    <speed>6.6341987</speed>
  </trkpt>
  <trkpt lat="5.891293" lon="-75.792675">
    <ele>604</ele>
    <time>2014-06-16T15:37:23Z</time>
    <speed>12.378676</speed>
  </trkpt>
  <trkpt lat="5.891257" lon="-75.792899">
    <ele>607</ele>
    <time>2014-06-16T15:37:25Z</time>
    <speed>12.362151</speed>
  </trkpt>
  <trkpt lat="5.891257" lon="-75.793135">
    <ele>608</ele>
    <time>2014-06-16T15:37:27Z</time>
    <speed>12.241274</speed>
  </trkpt>
  <trkpt lat="5.891282" lon="-75.793393">
    <ele>611</ele>
    <time>2014-06-16T15:37:29Z</time>
    <speed>12.813514</speed>
  </trkpt>
  <trkpt lat="5.891379" lon="-75.793618">
    <ele>612</ele>
    <time>2014-06-16T15:37:31Z</time>
    <speed>11.628831</speed>
  </trkpt>
  <trkpt lat="5.891501" lon="-75.793879">
    <ele>613</ele>
    <time>2014-06-16T15:37:33Z</time>
    <speed>12.631607</speed>
  </trkpt>
  <trkpt lat="5.891586" lon="-75.794084">
    <ele>614</ele>
    <time>2014-06-16T15:37:35Z</time>
    <speed>10.110504</speed>
  </trkpt>
  <trkpt lat="5.891704" lon="-75.794312">
    <ele>614</ele>
    <time>2014-06-16T15:37:37Z</time>
    <speed>12.145005</speed>
  </trkpt>
  <trkpt lat="5.891709" lon="-75.794597">
    <ele>613</ele>
    <time>2014-06-16T15:37:39Z</time>
    <speed>12.588934</speed>
  </trkpt>
  <trkpt lat="5.891674" lon="-75.794897">
    <ele>612</ele>
    <time>2014-06-16T15:37:41Z</time>
    <speed>13.865981</speed>
  </trkpt>
  <trkpt lat="5.891646" lon="-75.795147">
    <ele>613</ele>
    <time>2014-06-16T15:37:43Z</time>
    <speed>12.982621</speed>
  </trkpt>
  <trkpt lat="5.891611" lon="-75.795402">
    <ele>612</ele>
    <time>2014-06-16T15:37:45Z</time>
    <speed>13.968146</speed>
  </trkpt>
  <trkpt lat="5.891536" lon="-75.795638">
    <ele>612</ele>
    <time>2014-06-16T15:37:47Z</time>
    <speed>12.744332</speed>
  </trkpt>
  <trkpt lat="5.891417" lon="-75.795857">
    <ele>609</ele>
    <time>2014-06-16T15:37:49Z</time>
    <speed>13.087435</speed>
  </trkpt>
  <trkpt lat="5.891294" lon="-75.796086">
    <ele>607</ele>
    <time>2014-06-16T15:37:51Z</time>
    <speed>12.663737</speed>
  </trkpt>
  <trkpt lat="5.891205" lon="-75.796298">
    <ele>605</ele>
    <time>2014-06-16T15:37:53Z</time>
    <speed>11.116175</speed>
  </trkpt>
  <trkpt lat="5.891178" lon="-75.796489">
    <ele>604</ele>
    <time>2014-06-16T15:37:55Z</time>
    <speed>9.461712</speed>
  </trkpt>
  <trkpt lat="5.891183" lon="-75.796630">
    <ele>602</ele>
    <time>2014-06-16T15:37:57Z</time>
    <speed>6.774021</speed>
  </trkpt>
  <trkpt lat="5.891199" lon="-75.796735">
    <ele>603</ele>
    <time>2014-06-16T15:37:59Z</time>
    <speed>6.2865477</speed>
  </trkpt>
  <trkpt lat="5.891217" lon="-75.796843">
    <ele>603</ele>
    <time>2014-06-16T15:38:01Z</time>
    <speed>5.942544</speed>
  </trkpt>
  <trkpt lat="5.891232" lon="-75.796988">
    <ele>604</ele>
    <time>2014-06-16T15:38:03Z</time>
    <speed>7.618851</speed>
  </trkpt>
  <trkpt lat="5.891256" lon="-75.797164">
    <ele>604</ele>
    <time>2014-06-16T15:38:05Z</time>
    <speed>8.56781</speed>
  </trkpt>
  <trkpt lat="5.891321" lon="-75.797331">
    <ele>604</ele>
    <time>2014-06-16T15:38:07Z</time>
    <speed>9.566103</speed>
  </trkpt>
  <trkpt lat="5.891411" lon="-75.797504">
    <ele>605</ele>
    <time>2014-06-16T15:38:09Z</time>
    <speed>9.9818535</speed>
  </trkpt>
  <trkpt lat="5.891529" lon="-75.797678">
    <ele>606</ele>
    <time>2014-06-16T15:38:11Z</time>
    <speed>10.864242</speed>
  </trkpt>
  <trkpt lat="5.891678" lon="-75.797855">
    <ele>607</ele>
    <time>2014-06-16T15:38:13Z</time>
    <speed>11.03642</speed>
  </trkpt>
  <trkpt lat="5.891839" lon="-75.798033">
    <ele>608</ele>
    <time>2014-06-16T15:38:15Z</time>
    <speed>11.326182</speed>
  </trkpt>
  <trkpt lat="5.892000" lon="-75.798208">
    <ele>608</ele>
    <time>2014-06-16T15:38:17Z</time>
    <speed>10.545408</speed>
  </trkpt>
  <trkpt lat="5.892117" lon="-75.798337">
    <ele>606</ele>
    <time>2014-06-16T15:38:19Z</time>
    <speed>7.5669346</speed>
  </trkpt>
  <trkpt lat="5.892207" lon="-75.798440">
    <ele>607</ele>
    <time>2014-06-16T15:38:21Z</time>
    <speed>6.6321096</speed>
  </trkpt>
  <trkpt lat="5.892275" lon="-75.798536">
    <ele>607</ele>
    <time>2014-06-16T15:38:23Z</time>
    <speed>6.259981</speed>
  </trkpt>
  <trkpt lat="5.892344" lon="-75.798647">
    <ele>607</ele>
    <time>2014-06-16T15:38:25Z</time>
    <speed>7.3711452</speed>
  </trkpt>
  <trkpt lat="5.892412" lon="-75.798778">
    <ele>608</ele>
    <time>2014-06-16T15:38:27Z</time>
    <speed>8.341823</speed>
  </trkpt>
  <trkpt lat="5.892475" lon="-75.798928">
    <ele>609</ele>
    <time>2014-06-16T15:38:29Z</time>
    <speed>9.436454</speed>
  </trkpt>
  <trkpt lat="5.892543" lon="-75.799109">
    <ele>610</ele>
    <time>2014-06-16T15:38:31Z</time>
    <speed>10.275648</speed>
  </trkpt>
  <trkpt lat="5.892615" lon="-75.799295">
    <ele>611</ele>
    <time>2014-06-16T15:38:33Z</time>
    <speed>10.990804</speed>
  </trkpt>
  <trkpt lat="5.892676" lon="-75.799487">
    <ele>610</ele>
    <time>2014-06-16T15:38:35Z</time>
    <speed>11.490491</speed>
  </trkpt>
  <trkpt lat="5.892716" lon="-75.799694">
    <ele>611</ele>
    <time>2014-06-16T15:38:37Z</time>
    <speed>11.83859</speed>
  </trkpt>
  <trkpt lat="5.892735" lon="-75.799916">
    <ele>612</ele>
    <time>2014-06-16T15:38:39Z</time>
    <speed>11.587206</speed>
  </trkpt>
  <trkpt lat="5.892745" lon="-75.800151">
    <ele>610</ele>
    <time>2014-06-16T15:38:41Z</time>
    <speed>12.562495</speed>
  </trkpt>
  <trkpt lat="5.892757" lon="-75.800386">
    <ele>610</ele>
    <time>2014-06-16T15:38:43Z</time>
    <speed>11.313224</speed>
  </trkpt>
  <trkpt lat="5.892765" lon="-75.800667">
    <ele>609</ele>
    <time>2014-06-16T15:38:45Z</time>
    <speed>14.606934</speed>
  </trkpt>
  <trkpt lat="5.892762" lon="-75.800962">
    <ele>606</ele>
    <time>2014-06-16T15:38:47Z</time>
    <speed>15.082492</speed>
  </trkpt>
  <trkpt lat="5.892769" lon="-75.801236">
    <ele>606</ele>
    <time>2014-06-16T15:38:49Z</time>
    <speed>14.117642</speed>
  </trkpt>
  <trkpt lat="5.892798" lon="-75.801477">
    <ele>605</ele>
    <time>2014-06-16T15:38:51Z</time>
    <speed>12.177403</speed>
  </trkpt>
  <trkpt lat="5.892853" lon="-75.801701">
    <ele>603</ele>
    <time>2014-06-16T15:38:53Z</time>
    <speed>11.676293</speed>
  </trkpt>
  <trkpt lat="5.892943" lon="-75.801924">
    <ele>601</ele>
    <time>2014-06-16T15:38:55Z</time>
    <speed>12.822368</speed>
  </trkpt>
  <trkpt lat="5.893073" lon="-75.802139">
    <ele>602</ele>
    <time>2014-06-16T15:38:57Z</time>
    <speed>13.241255</speed>
  </trkpt>
  <trkpt lat="5.893217" lon="-75.802338">
    <ele>602</ele>
    <time>2014-06-16T15:38:59Z</time>
    <speed>13.062909</speed>
  </trkpt>
  <trkpt lat="5.893367" lon="-75.802534">
    <ele>602</ele>
    <time>2014-06-16T15:39:01Z</time>
    <speed>13.511774</speed>
  </trkpt>
  <trkpt lat="5.893516" lon="-75.802737">
    <ele>604</ele>
    <time>2014-06-16T15:39:03Z</time>
    <speed>13.248669</speed>
  </trkpt>
  <trkpt lat="5.893703" lon="-75.802974">
    <ele>604</ele>
    <time>2014-06-16T15:39:05Z</time>
    <speed>13.921293</speed>
  </trkpt>
  <trkpt lat="5.893850" lon="-75.803211">
    <ele>605</ele>
    <time>2014-06-16T15:39:07Z</time>
    <speed>13.799577</speed>
  </trkpt>
  <trkpt lat="5.893896" lon="-75.803476">
    <ele>608</ele>
    <time>2014-06-16T15:39:09Z</time>
    <speed>15.13217</speed>
  </trkpt>
  <trkpt lat="5.893915" lon="-75.803749">
    <ele>609</ele>
    <time>2014-06-16T15:39:11Z</time>
    <speed>14.888765</speed>
  </trkpt>
  <trkpt lat="5.893918" lon="-75.804029">
    <ele>609</ele>
    <time>2014-06-16T15:39:13Z</time>
    <speed>15.116201</speed>
  </trkpt>
  <trkpt lat="5.893912" lon="-75.804330">
    <ele>608</ele>
    <time>2014-06-16T15:39:15Z</time>
    <speed>15.197602</speed>
  </trkpt>
  <trkpt lat="5.893912" lon="-75.804630">
    <ele>610</ele>
    <time>2014-06-16T15:39:17Z</time>
    <speed>14.760914</speed>
  </trkpt>
  <trkpt lat="5.893964" lon="-75.804894">
    <ele>610</ele>
    <time>2014-06-16T15:39:19Z</time>
    <speed>13.673248</speed>
  </trkpt>
  <trkpt lat="5.894076" lon="-75.805143">
    <ele>611</ele>
    <time>2014-06-16T15:39:21Z</time>
    <speed>14.645868</speed>
  </trkpt>
  <trkpt lat="5.894204" lon="-75.805382">
    <ele>610</ele>
    <time>2014-06-16T15:39:23Z</time>
    <speed>14.934906</speed>
  </trkpt>
  <trkpt lat="5.894353" lon="-75.805619">
    <ele>612</ele>
    <time>2014-06-16T15:39:25Z</time>
    <speed>15.902232</speed>
  </trkpt>
  <trkpt lat="5.894542" lon="-75.805876">
    <ele>611</ele>
    <time>2014-06-16T15:39:27Z</time>
    <speed>16.107132</speed>
  </trkpt>
  <trkpt lat="5.894774" lon="-75.806149">
    <ele>610</ele>
    <time>2014-06-16T15:39:29Z</time>
    <speed>18.254526</speed>
  </trkpt>
  <trkpt lat="5.894988" lon="-75.806384">
    <ele>611</ele>
    <time>2014-06-16T15:39:31Z</time>
    <speed>18.013088</speed>
  </trkpt>
  <trkpt lat="5.895203" lon="-75.806603">
    <ele>608</ele>
    <time>2014-06-16T15:39:33Z</time>
    <speed>17.37822</speed>
  </trkpt>
  <trkpt lat="5.895397" lon="-75.806807">
    <ele>606</ele>
    <time>2014-06-16T15:39:35Z</time>
    <speed>15.667401</speed>
  </trkpt>
  <trkpt lat="5.895597" lon="-75.807005">
    <ele>605</ele>
    <time>2014-06-16T15:39:37Z</time>
    <speed>15.537869</speed>
  </trkpt>
  <trkpt lat="5.895821" lon="-75.807205">
    <ele>607</ele>
    <time>2014-06-16T15:39:39Z</time>
    <speed>16.11586</speed>
  </trkpt>
  <trkpt lat="5.896040" lon="-75.807406">
    <ele>607</ele>
    <time>2014-06-16T15:39:41Z</time>
    <speed>16.66665</speed>
  </trkpt>
  <trkpt lat="5.896251" lon="-75.807610">
    <ele>603</ele>
    <time>2014-06-16T15:39:43Z</time>
    <speed>16.00668</speed>
  </trkpt>
  <trkpt lat="5.896427" lon="-75.807788">
    <ele>603</ele>
    <time>2014-06-16T15:39:45Z</time>
    <speed>13.589767</speed>
  </trkpt>
  <trkpt lat="5.896612" lon="-75.807975">
    <ele>602</ele>
    <time>2014-06-16T15:39:47Z</time>
    <speed>14.4768915</speed>
  </trkpt>
  <trkpt lat="5.896818" lon="-75.808152">
    <ele>604</ele>
    <time>2014-06-16T15:39:49Z</time>
    <speed>13.832042</speed>
  </trkpt>
  <trkpt lat="5.897024" lon="-75.808329">
    <ele>606</ele>
    <time>2014-06-16T15:39:51Z</time>
    <speed>14.389645</speed>
  </trkpt>
  <trkpt lat="5.897308" lon="-75.808433">
    <ele>607</ele>
    <time>2014-06-16T15:39:53Z</time>
    <speed>15.555595</speed>
  </trkpt>
  <trkpt lat="5.897595" lon="-75.808517">
    <ele>607</ele>
    <time>2014-06-16T15:39:55Z</time>
    <speed>15.589702</speed>
  </trkpt>
  <trkpt lat="5.897872" lon="-75.808598">
    <ele>607</ele>
    <time>2014-06-16T15:39:57Z</time>
    <speed>14.770034</speed>
  </trkpt>
  <trkpt lat="5.898115" lon="-75.808666">
    <ele>608</ele>
    <time>2014-06-16T15:39:59Z</time>
    <speed>14.212156</speed>
  </trkpt>
  <trkpt lat="5.898325" lon="-75.808780">
    <ele>609</ele>
    <time>2014-06-16T15:40:01Z</time>
    <speed>14.570994</speed>
  </trkpt>
  <trkpt lat="5.898536" lon="-75.808946">
    <ele>610</ele>
    <time>2014-06-16T15:40:03Z</time>
    <speed>14.143268</speed>
  </trkpt>
  <trkpt lat="5.898737" lon="-75.809136">
    <ele>610</ele>
    <time>2014-06-16T15:40:05Z</time>
    <speed>15.084456</speed>
  </trkpt>
  <trkpt lat="5.898927" lon="-75.809325">
    <ele>609</ele>
    <time>2014-06-16T15:40:07Z</time>
    <speed>14.074366</speed>
  </trkpt>
  <trkpt lat="5.899111" lon="-75.809515">
    <ele>609</ele>
    <time>2014-06-16T15:40:09Z</time>
    <speed>12.508809</speed>
  </trkpt>
  <trkpt lat="5.899267" lon="-75.809669">
    <ele>608</ele>
    <time>2014-06-16T15:40:11Z</time>
    <speed>11.429648</speed>
  </trkpt>
  <trkpt lat="5.899454" lon="-75.809757">
    <ele>610</ele>
    <time>2014-06-16T15:40:13Z</time>
    <speed>10.482811</speed>
  </trkpt>
  <trkpt lat="5.899645" lon="-75.809813">
    <ele>610</ele>
    <time>2014-06-16T15:40:15Z</time>
    <speed>9.680915</speed>
  </trkpt>
  <trkpt lat="5.899896" lon="-75.809785">
    <ele>611</ele>
    <time>2014-06-16T15:40:17Z</time>
    <speed>12.395353</speed>
  </trkpt>
  <trkpt lat="5.900114" lon="-75.809735">
    <ele>611</ele>
    <time>2014-06-16T15:40:19Z</time>
    <speed>10.385402</speed>
  </trkpt>
  <trkpt lat="5.900324" lon="-75.809770">
    <ele>613</ele>
    <time>2014-06-16T15:40:21Z</time>
    <speed>10.926287</speed>
  </trkpt>
  <trkpt lat="5.900528" lon="-75.809861">
    <ele>613</ele>
    <time>2014-06-16T15:40:23Z</time>
    <speed>10.919163</speed>
  </trkpt>
  <trkpt lat="5.900696" lon="-75.810043">
    <ele>615</ele>
    <time>2014-06-16T15:40:25Z</time>
    <speed>12.920694</speed>
  </trkpt>
  <trkpt lat="5.900873" lon="-75.810266">
    <ele>616</ele>
    <time>2014-06-16T15:40:27Z</time>
    <speed>14.247353</speed>
  </trkpt>
  <trkpt lat="5.901069" lon="-75.810509">
    <ele>616</ele>
    <time>2014-06-16T15:40:29Z</time>
    <speed>14.716855</speed>
  </trkpt>
  <trkpt lat="5.901260" lon="-75.810734">
    <ele>617</ele>
    <time>2014-06-16T15:40:31Z</time>
    <speed>15.055501</speed>
  </trkpt>
  <trkpt lat="5.901445" lon="-75.810949">
    <ele>618</ele>
    <time>2014-06-16T15:40:33Z</time>
    <speed>15.2773695</speed>
  </trkpt>
  <trkpt lat="5.901630" lon="-75.811168">
    <ele>617</ele>
    <time>2014-06-16T15:40:35Z</time>
    <speed>15.553168</speed>
  </trkpt>
  <trkpt lat="5.901842" lon="-75.811411">
    <ele>617</ele>
    <time>2014-06-16T15:40:37Z</time>
    <speed>16.875214</speed>
  </trkpt>
  <trkpt lat="5.902067" lon="-75.811669">
    <ele>615</ele>
    <time>2014-06-16T15:40:39Z</time>
    <speed>17.970058</speed>
  </trkpt>
  <trkpt lat="5.902288" lon="-75.811918">
    <ele>613</ele>
    <time>2014-06-16T15:40:41Z</time>
    <speed>17.702503</speed>
  </trkpt>
  <trkpt lat="5.902483" lon="-75.812143">
    <ele>612</ele>
    <time>2014-06-16T15:40:43Z</time>
    <speed>16.336203</speed>
  </trkpt>
  <trkpt lat="5.902689" lon="-75.812371">
    <ele>612</ele>
    <time>2014-06-16T15:40:45Z</time>
    <speed>15.910911</speed>
  </trkpt>
  <trkpt lat="5.902946" lon="-75.812550">
    <ele>613</ele>
    <time>2014-06-16T15:40:47Z</time>
    <speed>16.600855</speed>
  </trkpt>
  <trkpt lat="5.903225" lon="-75.812652">
    <ele>612</ele>
    <time>2014-06-16T15:40:49Z</time>
    <speed>16.45893</speed>
  </trkpt>
  <trkpt lat="5.903488" lon="-75.812741">
    <ele>612</ele>
    <time>2014-06-16T15:40:51Z</time>
    <speed>14.699812</speed>
  </trkpt>
  <trkpt lat="5.903756" lon="-75.812817">
    <ele>613</ele>
    <time>2014-06-16T15:40:53Z</time>
    <speed>14.780503</speed>
  </trkpt>
  <trkpt lat="5.904030" lon="-75.812883">
    <ele>613</ele>
    <time>2014-06-16T15:40:55Z</time>
    <speed>15.502438</speed>
  </trkpt>
  <trkpt lat="5.904284" lon="-75.812934">
    <ele>613</ele>
    <time>2014-06-16T15:40:57Z</time>
    <speed>13.822963</speed>
  </trkpt>
  <trkpt lat="5.904516" lon="-75.812987">
    <ele>611</ele>
    <time>2014-06-16T15:40:59Z</time>
    <speed>12.324326</speed>
  </trkpt>
  <trkpt lat="5.904727" lon="-75.813097">
    <ele>611</ele>
    <time>2014-06-16T15:41:01Z</time>
    <speed>12.073033</speed>
  </trkpt>
  <trkpt lat="5.904915" lon="-75.813228">
    <ele>611</ele>
    <time>2014-06-16T15:41:03Z</time>
    <speed>11.442836</speed>
  </trkpt>
  <trkpt lat="5.905083" lon="-75.813451">
    <ele>611</ele>
    <time>2014-06-16T15:41:05Z</time>
    <speed>14.349836</speed>
  </trkpt>
  <trkpt lat="5.905238" lon="-75.813697">
    <ele>612</ele>
    <time>2014-06-16T15:41:07Z</time>
    <speed>15.865682</speed>
  </trkpt>
  <trkpt lat="5.905389" lon="-75.813940">
    <ele>613</ele>
    <time>2014-06-16T15:41:09Z</time>
    <speed>14.960375</speed>
  </trkpt>
  <trkpt lat="5.905549" lon="-75.814200">
    <ele>613</ele>
    <time>2014-06-16T15:41:11Z</time>
    <speed>15.932941</speed>
  </trkpt>
  <trkpt lat="5.905724" lon="-75.814475">
    <ele>611</ele>
    <time>2014-06-16T15:41:13Z</time>
    <speed>16.599472</speed>
  </trkpt>
  <trkpt lat="5.905889" lon="-75.814738">
    <ele>611</ele>
    <time>2014-06-16T15:41:15Z</time>
    <speed>16.023634</speed>
  </trkpt>
  <trkpt lat="5.906071" lon="-75.815016">
    <ele>612</ele>
    <time>2014-06-16T15:41:17Z</time>
    <speed>15.817318</speed>
  </trkpt>
  <trkpt lat="5.906240" lon="-75.815263">
    <ele>612</ele>
    <time>2014-06-16T15:41:19Z</time>
    <speed>15.31954</speed>
  </trkpt>
  <trkpt lat="5.906413" lon="-75.815498">
    <ele>613</ele>
    <time>2014-06-16T15:41:21Z</time>
    <speed>16.333557</speed>
  </trkpt>
  <trkpt lat="5.906577" lon="-75.815730">
    <ele>613</ele>
    <time>2014-06-16T15:41:23Z</time>
    <speed>16.226263</speed>
  </trkpt>
  <trkpt lat="5.906754" lon="-75.815989">
    <ele>611</ele>
    <time>2014-06-16T15:41:25Z</time>
    <speed>17.261501</speed>
  </trkpt>
  <trkpt lat="5.906932" lon="-75.816259">
    <ele>610</ele>
    <time>2014-06-16T15:41:27Z</time>
    <speed>16.622673</speed>
  </trkpt>
  <trkpt lat="5.907092" lon="-75.816518">
    <ele>608</ele>
    <time>2014-06-16T15:41:29Z</time>
    <speed>16.199192</speed>
  </trkpt>
  <trkpt lat="5.907260" lon="-75.816792">
    <ele>609</ele>
    <time>2014-06-16T15:41:31Z</time>
    <speed>17.117765</speed>
  </trkpt>
  <trkpt lat="5.907434" lon="-75.817071">
    <ele>609</ele>
    <time>2014-06-16T15:41:33Z</time>
    <speed>17.47088</speed>
  </trkpt>
  <trkpt lat="5.907620" lon="-75.817351">
    <ele>610</ele>
    <time>2014-06-16T15:41:35Z</time>
    <speed>18.260986</speed>
  </trkpt>
  <trkpt lat="5.907810" lon="-75.817633">
    <ele>609</ele>
    <time>2014-06-16T15:41:37Z</time>
    <speed>18.150873</speed>
  </trkpt>
  <trkpt lat="5.907989" lon="-75.817909">
    <ele>609</ele>
    <time>2014-06-16T15:41:39Z</time>
    <speed>17.9605</speed>
  </trkpt>
  <trkpt lat="5.908174" lon="-75.818184">
    <ele>609</ele>
    <time>2014-06-16T15:41:41Z</time>
    <speed>18.258291</speed>
  </trkpt>
  <trkpt lat="5.908369" lon="-75.818467">
    <ele>610</ele>
    <time>2014-06-16T15:41:43Z</time>
    <speed>18.395786</speed>
  </trkpt>
  <trkpt lat="5.908554" lon="-75.818744">
    <ele>611</ele>
    <time>2014-06-16T15:41:45Z</time>
    <speed>18.10567</speed>
  </trkpt>
  <trkpt lat="5.908738" lon="-75.819023">
    <ele>610</ele>
    <time>2014-06-16T15:41:47Z</time>
    <speed>18.126875</speed>
  </trkpt>
  <trkpt lat="5.908923" lon="-75.819301">
    <ele>610</ele>
    <time>2014-06-16T15:41:49Z</time>
    <speed>18.009148</speed>
  </trkpt>
  <trkpt lat="5.909103" lon="-75.819558">
    <ele>610</ele>
    <time>2014-06-16T15:41:51Z</time>
    <speed>16.826828</speed>
  </trkpt>
  <trkpt lat="5.909269" lon="-75.819791">
    <ele>608</ele>
    <time>2014-06-16T15:41:53Z</time>
    <speed>15.542775</speed>
  </trkpt>
  <trkpt lat="5.909422" lon="-75.820011">
    <ele>608</ele>
    <time>2014-06-16T15:41:55Z</time>
    <speed>13.822886</speed>
  </trkpt>
  <trkpt lat="5.909509" lon="-75.820232">
    <ele>607</ele>
    <time>2014-06-16T15:41:57Z</time>
    <speed>12.377831</speed>
  </trkpt>
  <trkpt lat="5.909461" lon="-75.820456">
    <ele>609</ele>
    <time>2014-06-16T15:41:59Z</time>
    <speed>12.648331</speed>
  </trkpt>
  <trkpt lat="5.909346" lon="-75.820667">
    <ele>609</ele>
    <time>2014-06-16T15:42:01Z</time>
    <speed>12.9085</speed>
  </trkpt>
  <trkpt lat="5.909186" lon="-75.820883">
    <ele>609</ele>
    <time>2014-06-16T15:42:03Z</time>
    <speed>13.9283495</speed>
  </trkpt>
  <trkpt lat="5.909005" lon="-75.821124">
    <ele>610</ele>
    <time>2014-06-16T15:42:05Z</time>
    <speed>13.712621</speed>
  </trkpt>
  <trkpt lat="5.908845" lon="-75.821367">
    <ele>610</ele>
    <time>2014-06-16T15:42:07Z</time>
    <speed>13.610159</speed>
  </trkpt>
  <trkpt lat="5.908804" lon="-75.821615">
    <ele>611</ele>
    <time>2014-06-16T15:42:09Z</time>
    <speed>11.70977</speed>
  </trkpt>
  <trkpt lat="5.908879" lon="-75.821840">
    <ele>612</ele>
    <time>2014-06-16T15:42:11Z</time>
    <speed>12.473486</speed>
  </trkpt>
  <trkpt lat="5.908997" lon="-75.822063">
    <ele>613</ele>
    <time>2014-06-16T15:42:13Z</time>
    <speed>13.786288</speed>
  </trkpt>
  <trkpt lat="5.909155" lon="-75.822307">
    <ele>614</ele>
    <time>2014-06-16T15:42:15Z</time>
    <speed>15.682194</speed>
  </trkpt>
  <trkpt lat="5.909313" lon="-75.822550">
    <ele>614</ele>
    <time>2014-06-16T15:42:17Z</time>
    <speed>15.95293</speed>
  </trkpt>
  <trkpt lat="5.909477" lon="-75.822794">
    <ele>618</ele>
    <time>2014-06-16T15:42:19Z</time>
    <speed>16.291538</speed>
  </trkpt>
  <trkpt lat="5.909654" lon="-75.823063">
    <ele>618</ele>
    <time>2014-06-16T15:42:21Z</time>
    <speed>16.883905</speed>
  </trkpt>
  <trkpt lat="5.909828" lon="-75.823341">
    <ele>619</ele>
    <time>2014-06-16T15:42:23Z</time>
    <speed>17.203327</speed>
  </trkpt>
  <trkpt lat="5.909991" lon="-75.823633">
    <ele>620</ele>
    <time>2014-06-16T15:42:25Z</time>
    <speed>17.39643</speed>
  </trkpt>
  <trkpt lat="5.910138" lon="-75.823920">
    <ele>620</ele>
    <time>2014-06-16T15:42:27Z</time>
    <speed>16.81917</speed>
  </trkpt>
  <trkpt lat="5.910285" lon="-75.824187">
    <ele>621</ele>
    <time>2014-06-16T15:42:29Z</time>
    <speed>15.487133</speed>
  </trkpt>
  <trkpt lat="5.910439" lon="-75.824417">
    <ele>621</ele>
    <time>2014-06-16T15:42:31Z</time>
    <speed>14.861444</speed>
  </trkpt>
  <trkpt lat="5.910636" lon="-75.824631">
    <ele>622</ele>
    <time>2014-06-16T15:42:33Z</time>
    <speed>15.387461</speed>
  </trkpt>
  <trkpt lat="5.910886" lon="-75.824756">
    <ele>622</ele>
    <time>2014-06-16T15:42:35Z</time>
    <speed>13.413354</speed>
  </trkpt>
  <trkpt lat="5.911172" lon="-75.824883">
    <ele>624</ele>
    <time>2014-06-16T15:42:37Z</time>
    <speed>15.013382</speed>
  </trkpt>
  <trkpt lat="5.911480" lon="-75.825034">
    <ele>623</ele>
    <time>2014-06-16T15:42:39Z</time>
    <speed>16.88437</speed>
  </trkpt>
  <trkpt lat="5.911733" lon="-75.825245">
    <ele>620</ele>
    <time>2014-06-16T15:42:41Z</time>
    <speed>17.242151</speed>
  </trkpt>
  <trkpt lat="5.911990" lon="-75.825448">
    <ele>618</ele>
    <time>2014-06-16T15:42:43Z</time>
    <speed>18.219921</speed>
  </trkpt>
  <trkpt lat="5.912286" lon="-75.825610">
    <ele>617</ele>
    <time>2014-06-16T15:42:45Z</time>
    <speed>17.60091</speed>
  </trkpt>
  <trkpt lat="5.912537" lon="-75.825775">
    <ele>614</ele>
    <time>2014-06-16T15:42:47Z</time>
    <speed>15.997816</speed>
  </trkpt>
  <trkpt lat="5.912753" lon="-75.825925">
    <ele>610</ele>
    <time>2014-06-16T15:42:49Z</time>
    <speed>14.1646595</speed>
  </trkpt>
  <trkpt lat="5.912940" lon="-75.826038">
    <ele>608</ele>
    <time>2014-06-16T15:42:51Z</time>
    <speed>10.496908</speed>
  </trkpt>
  <trkpt lat="5.913112" lon="-75.826148">
    <ele>606</ele>
    <time>2014-06-16T15:42:53Z</time>
    <speed>11.56586</speed>
  </trkpt>
  <trkpt lat="5.913113" lon="-75.826386">
    <ele>604</ele>
    <time>2014-06-16T15:42:55Z</time>
    <speed>13.456772</speed>
  </trkpt>
  <trkpt lat="5.913178" lon="-75.826617">
    <ele>605</ele>
    <time>2014-06-16T15:42:57Z</time>
    <speed>13.243452</speed>
  </trkpt>
  <trkpt lat="5.913287" lon="-75.826861">
    <ele>607</ele>
    <time>2014-06-16T15:42:59Z</time>
    <speed>12.738541</speed>
  </trkpt>
  <trkpt lat="5.913406" lon="-75.827108">
    <ele>608</ele>
    <time>2014-06-16T15:43:01Z</time>
    <speed>11.882045</speed>
  </trkpt>
  <trkpt lat="5.913550" lon="-75.827324">
    <ele>608</ele>
    <time>2014-06-16T15:43:03Z</time>
    <speed>12.336205</speed>
  </trkpt>
  <trkpt lat="5.913665" lon="-75.827508">
    <ele>609</ele>
    <time>2014-06-16T15:43:05Z</time>
    <speed>11.534511</speed>
  </trkpt>
  <trkpt lat="5.913785" lon="-75.827604">
    <ele>608</ele>
    <time>2014-06-16T15:43:07Z</time>
    <speed>7.428883</speed>
  </trkpt>
  <trkpt lat="5.913913" lon="-75.827623">
    <ele>610</ele>
    <time>2014-06-16T15:43:09Z</time>
    <speed>8.017271</speed>
  </trkpt>
  <trkpt lat="5.914045" lon="-75.827546">
    <ele>611</ele>
    <time>2014-06-16T15:43:11Z</time>
    <speed>9.393526</speed>
  </trkpt>
  <trkpt lat="5.914208" lon="-75.827435">
    <ele>612</ele>
    <time>2014-06-16T15:43:13Z</time>
    <speed>11.372697</speed>
  </trkpt>
  <trkpt lat="5.914384" lon="-75.827307">
    <ele>612</ele>
    <time>2014-06-16T15:43:15Z</time>
    <speed>11.637293</speed>
  </trkpt>
  <trkpt lat="5.914557" lon="-75.827162">
    <ele>613</ele>
    <time>2014-06-16T15:43:17Z</time>
    <speed>11.403803</speed>
  </trkpt>
  <trkpt lat="5.914785" lon="-75.827030">
    <ele>613</ele>
    <time>2014-06-16T15:43:19Z</time>
    <speed>11.894914</speed>
  </trkpt>
  <trkpt lat="5.915039" lon="-75.827063">
    <ele>609</ele>
    <time>2014-06-16T15:43:21Z</time>
    <speed>12.573101</speed>
  </trkpt>
  <trkpt lat="5.915270" lon="-75.827223">
    <ele>609</ele>
    <time>2014-06-16T15:43:23Z</time>
    <speed>14.753447</speed>
  </trkpt>
  <trkpt lat="5.915481" lon="-75.827453">
    <ele>608</ele>
    <time>2014-06-16T15:43:25Z</time>
    <speed>16.956598</speed>
  </trkpt>
  <trkpt lat="5.915706" lon="-75.827678">
    <ele>608</ele>
    <time>2014-06-16T15:43:27Z</time>
    <speed>17.31423</speed>
  </trkpt>
  <trkpt lat="5.915940" lon="-75.827916">
    <ele>607</ele>
    <time>2014-06-16T15:43:29Z</time>
    <speed>18.002066</speed>
  </trkpt>
  <trkpt lat="5.916123" lon="-75.828197">
    <ele>607</ele>
    <time>2014-06-16T15:43:31Z</time>
    <speed>17.975737</speed>
  </trkpt>
  <trkpt lat="5.916258" lon="-75.828483">
    <ele>605</ele>
    <time>2014-06-16T15:43:33Z</time>
    <speed>16.808493</speed>
  </trkpt>
  <trkpt lat="5.916403" lon="-75.828767">
    <ele>602</ele>
    <time>2014-06-16T15:43:35Z</time>
    <speed>17.282124</speed>
  </trkpt>
  <trkpt lat="5.916562" lon="-75.829038">
    <ele>601</ele>
    <time>2014-06-16T15:43:37Z</time>
    <speed>17.181551</speed>
  </trkpt>
  <trkpt lat="5.916723" lon="-75.829302">
    <ele>599</ele>
    <time>2014-06-16T15:43:39Z</time>
    <speed>17.721819</speed>
  </trkpt>
  <trkpt lat="5.916898" lon="-75.829558">
    <ele>598</ele>
    <time>2014-06-16T15:43:41Z</time>
    <speed>16.085577</speed>
  </trkpt>
  <trkpt lat="5.917099" lon="-75.829795">
    <ele>596</ele>
    <time>2014-06-16T15:43:43Z</time>
    <speed>16.581045</speed>
  </trkpt>
  <trkpt lat="5.917371" lon="-75.829972">
    <ele>593</ele>
    <time>2014-06-16T15:43:45Z</time>
    <speed>16.822813</speed>
  </trkpt>
  <trkpt lat="5.917660" lon="-75.830126">
    <ele>592</ele>
    <time>2014-06-16T15:43:47Z</time>
    <speed>17.237936</speed>
  </trkpt>
  <trkpt lat="5.917968" lon="-75.830238">
    <ele>590</ele>
    <time>2014-06-16T15:43:49Z</time>
    <speed>18.226501</speed>
  </trkpt>
  <trkpt lat="5.918321" lon="-75.830344">
    <ele>587</ele>
    <time>2014-06-16T15:43:51Z</time>
    <speed>19.176605</speed>
  </trkpt>
  <trkpt lat="5.918666" lon="-75.830454">
    <ele>585</ele>
    <time>2014-06-16T15:43:53Z</time>
    <speed>19.298868</speed>
  </trkpt>
  <trkpt lat="5.918996" lon="-75.830557">
    <ele>584</ele>
    <time>2014-06-16T15:43:55Z</time>
    <speed>19.267632</speed>
  </trkpt>
  <trkpt lat="5.919342" lon="-75.830649">
    <ele>578</ele>
    <time>2014-06-16T15:43:57Z</time>
    <speed>19.130026</speed>
  </trkpt>
  <trkpt lat="5.919683" lon="-75.830727">
    <ele>576</ele>
    <time>2014-06-16T15:43:59Z</time>
    <speed>17.403801</speed>
  </trkpt>
  <trkpt lat="5.919958" lon="-75.830784">
    <ele>573</ele>
    <time>2014-06-16T15:44:01Z</time>
    <speed>15.390935</speed>
  </trkpt>
  <trkpt lat="5.920166" lon="-75.830929">
    <ele>572</ele>
    <time>2014-06-16T15:44:03Z</time>
    <speed>13.718101</speed>
  </trkpt>
  <trkpt lat="5.920286" lon="-75.831130">
    <ele>571</ele>
    <time>2014-06-16T15:44:05Z</time>
    <speed>12.350727</speed>
  </trkpt>
  <trkpt lat="5.920344" lon="-75.831382">
    <ele>569</ele>
    <time>2014-06-16T15:44:07Z</time>
    <speed>12.376856</speed>
  </trkpt>
  <trkpt lat="5.920445" lon="-75.831568">
    <ele>566</ele>
    <time>2014-06-16T15:44:09Z</time>
    <speed>10.194048</speed>
  </trkpt>
  <trkpt lat="5.920574" lon="-75.831661">
    <ele>565</ele>
    <time>2014-06-16T15:44:11Z</time>
    <speed>8.289407</speed>
  </trkpt>
  <trkpt lat="5.920681" lon="-75.831672">
    <ele>564</ele>
    <time>2014-06-16T15:44:13Z</time>
    <speed>6.409105</speed>
  </trkpt>
  <trkpt lat="5.920797" lon="-75.831661">
    <ele>564</ele>
    <time>2014-06-16T15:44:15Z</time>
    <speed>7.331806</speed>
  </trkpt>
  <trkpt lat="5.920902" lon="-75.831627">
    <ele>565</ele>
    <time>2014-06-16T15:44:17Z</time>
    <speed>6.065062</speed>
  </trkpt>
  <trkpt lat="5.920979" lon="-75.831592">
    <ele>564</ele>
    <time>2014-06-16T15:44:19Z</time>
    <speed>4.2737317</speed>
  </trkpt>
  <trkpt lat="5.921033" lon="-75.831565">
    <ele>565</ele>
    <time>2014-06-16T15:44:21Z</time>
    <speed>3.2141488</speed>
  </trkpt>
  <trkpt lat="5.921081" lon="-75.831521">
    <ele>565</ele>
    <time>2014-06-16T15:44:23Z</time>
    <speed>3.2161994</speed>
  </trkpt>
  <trkpt lat="5.921118" lon="-75.831476">
    <ele>565</ele>
    <time>2014-06-16T15:44:25Z</time>
    <speed>4.154542</speed>
  </trkpt>
  <trkpt lat="5.921141" lon="-75.831422">
    <ele>566</ele>
    <time>2014-06-16T15:44:27Z</time>
    <speed>3.4115937</speed>
  </trkpt>
  <trkpt lat="5.921166" lon="-75.831366">
    <ele>568</ele>
    <time>2014-06-16T15:44:29Z</time>
    <speed>3.4525979</speed>
  </trkpt>
  <trkpt lat="5.921192" lon="-75.831309">
    <ele>569</ele>
    <time>2014-06-16T15:44:31Z</time>
    <speed>3.8844593</speed>
  </trkpt>
  <trkpt lat="5.921236" lon="-75.831207">
    <ele>570</ele>
    <time>2014-06-16T15:44:33Z</time>
    <speed>4.82641</speed>
  </trkpt>
  <trkpt lat="5.921289" lon="-75.831062">
    <ele>572</ele>
    <time>2014-06-16T15:44:35Z</time>
    <speed>6.714145</speed>
  </trkpt>
  <trkpt lat="5.921349" lon="-75.830905">
    <ele>572</ele>
    <time>2014-06-16T15:44:37Z</time>
    <speed>7.420293</speed>
  </trkpt>
  <trkpt lat="5.921424" lon="-75.830767">
    <ele>573</ele>
    <time>2014-06-16T15:44:39Z</time>
    <speed>6.882995</speed>
  </trkpt>
  <trkpt lat="5.921526" lon="-75.830642">
    <ele>575</ele>
    <time>2014-06-16T15:44:41Z</time>
    <speed>7.9000077</speed>
  </trkpt>
  <trkpt lat="5.921685" lon="-75.830571">
    <ele>576</ele>
    <time>2014-06-16T15:44:43Z</time>
    <speed>8.556726</speed>
  </trkpt>
  <trkpt lat="5.921863" lon="-75.830511">
    <ele>577</ele>
    <time>2014-06-16T15:44:45Z</time>
    <speed>9.485956</speed>
  </trkpt>
  <trkpt lat="5.922044" lon="-75.830451">
    <ele>578</ele>
    <time>2014-06-16T15:44:47Z</time>
    <speed>8.99531</speed>
  </trkpt>
  <trkpt lat="5.922234" lon="-75.830406">
    <ele>579</ele>
    <time>2014-06-16T15:44:49Z</time>
    <speed>9.604673</speed>
  </trkpt>
  <trkpt lat="5.922455" lon="-75.830374">
    <ele>581</ele>
    <time>2014-06-16T15:44:51Z</time>
    <speed>9.987488</speed>
  </trkpt>
  <trkpt lat="5.922747" lon="-75.830424">
    <ele>582</ele>
    <time>2014-06-16T15:44:53Z</time>
    <speed>11.603738</speed>
  </trkpt>
  <trkpt lat="5.922950" lon="-75.830646">
    <ele>583</ele>
    <time>2014-06-16T15:44:55Z</time>
    <speed>13.321726</speed>
  </trkpt>
  <trkpt lat="5.923058" lon="-75.830915">
    <ele>583</ele>
    <time>2014-06-16T15:44:57Z</time>
    <speed>13.417277</speed>
  </trkpt>
  <trkpt lat="5.923144" lon="-75.831185">
    <ele>583</ele>
    <time>2014-06-16T15:44:59Z</time>
    <speed>13.414451</speed>
  </trkpt>
  <trkpt lat="5.923220" lon="-75.831434">
    <ele>584</ele>
    <time>2014-06-16T15:45:01Z</time>
    <speed>12.849536</speed>
  </trkpt>
  <trkpt lat="5.923329" lon="-75.831702">
    <ele>586</ele>
    <time>2014-06-16T15:45:03Z</time>
    <speed>13.9624815</speed>
  </trkpt>
  <trkpt lat="5.923566" lon="-75.831914">
    <ele>586</ele>
    <time>2014-06-16T15:45:05Z</time>
    <speed>15.103241</speed>
  </trkpt>
  <trkpt lat="5.923809" lon="-75.832067">
    <ele>586</ele>
    <time>2014-06-16T15:45:07Z</time>
    <speed>14.492068</speed>
  </trkpt>
  <trkpt lat="5.924058" lon="-75.832200">
    <ele>588</ele>
    <time>2014-06-16T15:45:09Z</time>
    <speed>14.134279</speed>
  </trkpt>
  <trkpt lat="5.924274" lon="-75.832317">
    <ele>589</ele>
    <time>2014-06-16T15:45:11Z</time>
    <speed>12.341628</speed>
  </trkpt>
  <trkpt lat="5.924500" lon="-75.832438">
    <ele>590</ele>
    <time>2014-06-16T15:45:13Z</time>
    <speed>13.564651</speed>
  </trkpt>
  <trkpt lat="5.924738" lon="-75.832563">
    <ele>592</ele>
    <time>2014-06-16T15:45:15Z</time>
    <speed>12.988617</speed>
  </trkpt>
  <trkpt lat="5.924984" lon="-75.832711">
    <ele>593</ele>
    <time>2014-06-16T15:45:17Z</time>
    <speed>13.748675</speed>
  </trkpt>
  <trkpt lat="5.925204" lon="-75.832863">
    <ele>595</ele>
    <time>2014-06-16T15:45:19Z</time>
    <speed>14.576112</speed>
  </trkpt>
  <trkpt lat="5.925382" lon="-75.833053">
    <ele>595</ele>
    <time>2014-06-16T15:45:21Z</time>
    <speed>13.841649</speed>
  </trkpt>
  <trkpt lat="5.925593" lon="-75.833248">
    <ele>596</ele>
    <time>2014-06-16T15:45:23Z</time>
    <speed>14.059202</speed>
  </trkpt>
  <trkpt lat="5.925809" lon="-75.833440">
    <ele>596</ele>
    <time>2014-06-16T15:45:25Z</time>
    <speed>14.6501255</speed>
  </trkpt>
  <trkpt lat="5.926018" lon="-75.833622">
    <ele>596</ele>
    <time>2014-06-16T15:45:27Z</time>
    <speed>13.61862</speed>
  </trkpt>
  <trkpt lat="5.926247" lon="-75.833773">
    <ele>596</ele>
    <time>2014-06-16T15:45:29Z</time>
    <speed>13.587612</speed>
  </trkpt>
  <trkpt lat="5.926471" lon="-75.833870">
    <ele>594</ele>
    <time>2014-06-16T15:45:31Z</time>
    <speed>11.840166</speed>
  </trkpt>
  <trkpt lat="5.926722" lon="-75.833938">
    <ele>593</ele>
    <time>2014-06-16T15:45:33Z</time>
    <speed>11.269701</speed>
  </trkpt>
  <trkpt lat="5.926942" lon="-75.833997">
    <ele>592</ele>
    <time>2014-06-16T15:45:35Z</time>
    <speed>11.405444</speed>
  </trkpt>
  <trkpt lat="5.927141" lon="-75.834085">
    <ele>590</ele>
    <time>2014-06-16T15:45:37Z</time>
    <speed>10.897729</speed>
  </trkpt>
  <trkpt lat="5.927339" lon="-75.834122">
    <ele>590</ele>
    <time>2014-06-16T15:45:39Z</time>
    <speed>11.100656</speed>
  </trkpt>
  <trkpt lat="5.927540" lon="-75.834119">
    <ele>586</ele>
    <time>2014-06-16T15:45:41Z</time>
    <speed>10.288046</speed>
  </trkpt>
  <trkpt lat="5.927708" lon="-75.834113">
    <ele>584</ele>
    <time>2014-06-16T15:45:43Z</time>
    <speed>8.610693</speed>
  </trkpt>
  <trkpt lat="5.927884" lon="-75.834199">
    <ele>584</ele>
    <time>2014-06-16T15:45:45Z</time>
    <speed>11.183816</speed>
  </trkpt>
  <trkpt lat="5.928060" lon="-75.834368">
    <ele>583</ele>
    <time>2014-06-16T15:45:47Z</time>
    <speed>12.11754</speed>
  </trkpt>
  <trkpt lat="5.928232" lon="-75.834570">
    <ele>581</ele>
    <time>2014-06-16T15:45:49Z</time>
    <speed>12.891372</speed>
  </trkpt>
  <trkpt lat="5.928381" lon="-75.834841">
    <ele>580</ele>
    <time>2014-06-16T15:45:51Z</time>
    <speed>14.389329</speed>
  </trkpt>
  <trkpt lat="5.928542" lon="-75.835092">
    <ele>579</ele>
    <time>2014-06-16T15:45:53Z</time>
    <speed>14.949046</speed>
  </trkpt>
  <trkpt lat="5.928730" lon="-75.835295">
    <ele>576</ele>
    <time>2014-06-16T15:45:55Z</time>
    <speed>14.109425</speed>
  </trkpt>
  <trkpt lat="5.928933" lon="-75.835469">
    <ele>574</ele>
    <time>2014-06-16T15:45:57Z</time>
    <speed>13.65637</speed>
  </trkpt>
  <trkpt lat="5.929087" lon="-75.835677">
    <ele>575</ele>
    <time>2014-06-16T15:45:59Z</time>
    <speed>13.245622</speed>
  </trkpt>
  <trkpt lat="5.929228" lon="-75.835923">
    <ele>574</ele>
    <time>2014-06-16T15:46:01Z</time>
    <speed>15.735022</speed>
  </trkpt>
  <trkpt lat="5.929381" lon="-75.836226">
    <ele>573</ele>
    <time>2014-06-16T15:46:03Z</time>
    <speed>17.329636</speed>
  </trkpt>
  <trkpt lat="5.929521" lon="-75.836512">
    <ele>573</ele>
    <time>2014-06-16T15:46:05Z</time>
    <speed>16.588324</speed>
  </trkpt>
  <trkpt lat="5.929672" lon="-75.836806">
    <ele>572</ele>
    <time>2014-06-16T15:46:07Z</time>
    <speed>16.606644</speed>
  </trkpt>
  <trkpt lat="5.929814" lon="-75.837086">
    <ele>571</ele>
    <time>2014-06-16T15:46:09Z</time>
    <speed>15.896163</speed>
  </trkpt>
  <trkpt lat="5.929965" lon="-75.837366">
    <ele>570</ele>
    <time>2014-06-16T15:46:11Z</time>
    <speed>15.358669</speed>
  </trkpt>
  <trkpt lat="5.930092" lon="-75.837658">
    <ele>571</ele>
    <time>2014-06-16T15:46:13Z</time>
    <speed>16.761087</speed>
  </trkpt>
  <trkpt lat="5.930131" lon="-75.837957">
    <ele>571</ele>
    <time>2014-06-16T15:46:15Z</time>
    <speed>16.316622</speed>
  </trkpt>
  <trkpt lat="5.930185" lon="-75.838262">
    <ele>572</ele>
    <time>2014-06-16T15:46:17Z</time>
    <speed>16.57756</speed>
  </trkpt>
  <trkpt lat="5.930192" lon="-75.838593">
    <ele>571</ele>
    <time>2014-06-16T15:46:19Z</time>
    <speed>17.097662</speed>
  </trkpt>
  <trkpt lat="5.930209" lon="-75.838933">
    <ele>568</ele>
    <time>2014-06-16T15:46:21Z</time>
    <speed>15.751696</speed>
  </trkpt>
  <trkpt lat="5.930240" lon="-75.839259">
    <ele>568</ele>
    <time>2014-06-16T15:46:23Z</time>
    <speed>15.28794</speed>
  </trkpt>
  <trkpt lat="5.930341" lon="-75.839552">
    <ele>569</ele>
    <time>2014-06-16T15:46:25Z</time>
    <speed>15.135389</speed>
  </trkpt>
  <trkpt lat="5.930463" lon="-75.839819">
    <ele>570</ele>
    <time>2014-06-16T15:46:27Z</time>
    <speed>14.78437</speed>
  </trkpt>
  <trkpt lat="5.930626" lon="-75.840079">
    <ele>570</ele>
    <time>2014-06-16T15:46:29Z</time>
    <speed>16.26637</speed>
  </trkpt>
  <trkpt lat="5.930800" lon="-75.840320">
    <ele>570</ele>
    <time>2014-06-16T15:46:31Z</time>
    <speed>15.497132</speed>
  </trkpt>
  <trkpt lat="5.930963" lon="-75.840541">
    <ele>571</ele>
    <time>2014-06-16T15:46:33Z</time>
    <speed>14.410862</speed>
  </trkpt>
  <trkpt lat="5.931132" lon="-75.840776">
    <ele>571</ele>
    <time>2014-06-16T15:46:35Z</time>
    <speed>13.596851</speed>
  </trkpt>
  <trkpt lat="5.931240" lon="-75.841035">
    <ele>572</ele>
    <time>2014-06-16T15:46:37Z</time>
    <speed>14.963571</speed>
  </trkpt>
  <trkpt lat="5.931322" lon="-75.841426">
    <ele>573</ele>
    <time>2014-06-16T15:46:39Z</time>
    <speed>19.046364</speed>
  </trkpt>
  <trkpt lat="5.931394" lon="-75.841772">
    <ele>573</ele>
    <time>2014-06-16T15:46:41Z</time>
    <speed>17.068054</speed>
  </trkpt>
  <trkpt lat="5.931490" lon="-75.842080">
    <ele>573</ele>
    <time>2014-06-16T15:46:43Z</time>
    <speed>16.955275</speed>
  </trkpt>
  <trkpt lat="5.931673" lon="-75.842288">
    <ele>572</ele>
    <time>2014-06-16T15:46:45Z</time>
    <speed>15.245525</speed>
  </trkpt>
  <trkpt lat="5.931865" lon="-75.842501">
    <ele>572</ele>
    <time>2014-06-16T15:46:47Z</time>
    <speed>14.384255</speed>
  </trkpt>
  <trkpt lat="5.932047" lon="-75.842719">
    <ele>571</ele>
    <time>2014-06-16T15:46:49Z</time>
    <speed>14.101589</speed>
  </trkpt>
  <trkpt lat="5.932159" lon="-75.842968">
    <ele>572</ele>
    <time>2014-06-16T15:46:51Z</time>
    <speed>15.161902</speed>
  </trkpt>
  <trkpt lat="5.932241" lon="-75.843266">
    <ele>571</ele>
    <time>2014-06-16T15:46:53Z</time>
    <speed>17.082684</speed>
  </trkpt>
  <trkpt lat="5.932378" lon="-75.843541">
    <ele>573</ele>
    <time>2014-06-16T15:46:55Z</time>
    <speed>16.936815</speed>
  </trkpt>
  <trkpt lat="5.932585" lon="-75.843764">
    <ele>572</ele>
    <time>2014-06-16T15:46:57Z</time>
    <speed>16.30257</speed>
  </trkpt>
  <trkpt lat="5.932792" lon="-75.843940">
    <ele>572</ele>
    <time>2014-06-16T15:46:59Z</time>
    <speed>15.951943</speed>
  </trkpt>
  <trkpt lat="5.932985" lon="-75.844139">
    <ele>569</ele>
    <time>2014-06-16T15:47:01Z</time>
    <speed>15.578599</speed>
  </trkpt>
  <trkpt lat="5.933165" lon="-75.844347">
    <ele>570</ele>
    <time>2014-06-16T15:47:03Z</time>
    <speed>15.640279</speed>
  </trkpt>
  <trkpt lat="5.933318" lon="-75.844553">
    <ele>570</ele>
    <time>2014-06-16T15:47:05Z</time>
    <speed>14.755544</speed>
  </trkpt>
  <trkpt lat="5.933417" lon="-75.844803">
    <ele>570</ele>
    <time>2014-06-16T15:47:07Z</time>
    <speed>15.7677355</speed>
  </trkpt>
  <trkpt lat="5.933478" lon="-75.845082">
    <ele>570</ele>
    <time>2014-06-16T15:47:09Z</time>
    <speed>16.143713</speed>
  </trkpt>
  <trkpt lat="5.933534" lon="-75.845352">
    <ele>569</ele>
    <time>2014-06-16T15:47:11Z</time>
    <speed>14.687893</speed>
  </trkpt>
  <trkpt lat="5.933691" lon="-75.845756">
    <ele>568</ele>
    <time>2014-06-16T15:47:14Z</time>
    <speed>16.550905</speed>
  </trkpt>
  <trkpt lat="5.933840" lon="-75.845989">
    <ele>569</ele>
    <time>2014-06-16T15:47:16Z</time>
    <speed>16.407196</speed>
  </trkpt>
  <trkpt lat="5.933996" lon="-75.846253">
    <ele>567</ele>
    <time>2014-06-16T15:47:18Z</time>
    <speed>17.135489</speed>
  </trkpt>
  <trkpt lat="5.934133" lon="-75.846528">
    <ele>567</ele>
    <time>2014-06-16T15:47:20Z</time>
    <speed>16.704922</speed>
  </trkpt>
  <trkpt lat="5.934259" lon="-75.846836">
    <ele>566</ele>
    <time>2014-06-16T15:47:22Z</time>
    <speed>18.114502</speed>
  </trkpt>
  <trkpt lat="5.934373" lon="-75.847152">
    <ele>568</ele>
    <time>2014-06-16T15:47:24Z</time>
    <speed>17.860771</speed>
  </trkpt>
  <trkpt lat="5.934484" lon="-75.847452">
    <ele>567</ele>
    <time>2014-06-16T15:47:26Z</time>
    <speed>17.339184</speed>
  </trkpt>
  <trkpt lat="5.934591" lon="-75.847771">
    <ele>566</ele>
    <time>2014-06-16T15:47:28Z</time>
    <speed>17.995897</speed>
  </trkpt>
  <trkpt lat="5.934686" lon="-75.848100">
    <ele>566</ele>
    <time>2014-06-16T15:47:30Z</time>
    <speed>16.696012</speed>
  </trkpt>
  <trkpt lat="5.934765" lon="-75.848441">
    <ele>568</ele>
    <time>2014-06-16T15:47:32Z</time>
    <speed>18.91818</speed>
  </trkpt>
  <trkpt lat="5.934816" lon="-75.848777">
    <ele>567</ele>
    <time>2014-06-16T15:47:34Z</time>
    <speed>17.880222</speed>
  </trkpt>
  <trkpt lat="5.934860" lon="-75.849140">
    <ele>564</ele>
    <time>2014-06-16T15:47:36Z</time>
    <speed>18.875866</speed>
  </trkpt>
  <trkpt lat="5.934922" lon="-75.849528">
    <ele>564</ele>
    <time>2014-06-16T15:47:38Z</time>
    <speed>18.846546</speed>
  </trkpt>
  <trkpt lat="5.934959" lon="-75.849880">
    <ele>565</ele>
    <time>2014-06-16T15:47:40Z</time>
    <speed>17.905062</speed>
  </trkpt>
  <trkpt lat="5.934988" lon="-75.850202">
    <ele>564</ele>
    <time>2014-06-16T15:47:42Z</time>
    <speed>17.204483</speed>
  </trkpt>
  <trkpt lat="5.935026" lon="-75.850513">
    <ele>566</ele>
    <time>2014-06-16T15:47:44Z</time>
    <speed>17.001705</speed>
  </trkpt>
  <trkpt lat="5.935068" lon="-75.850827">
    <ele>564</ele>
    <time>2014-06-16T15:47:46Z</time>
    <speed>16.496563</speed>
  </trkpt>
  <trkpt lat="5.935119" lon="-75.851139">
    <ele>566</ele>
    <time>2014-06-16T15:47:48Z</time>
    <speed>16.875809</speed>
  </trkpt>
  <trkpt lat="5.935197" lon="-75.851440">
    <ele>566</ele>
    <time>2014-06-16T15:47:50Z</time>
    <speed>16.354967</speed>
  </trkpt>
  <trkpt lat="5.935246" lon="-75.851702">
    <ele>567</ele>
    <time>2014-06-16T15:47:52Z</time>
    <speed>15.232004</speed>
  </trkpt>
  <trkpt lat="5.935292" lon="-75.851990">
    <ele>567</ele>
    <time>2014-06-16T15:47:54Z</time>
    <speed>16.566416</speed>
  </trkpt>
  <trkpt lat="5.935361" lon="-75.852311">
    <ele>567</ele>
    <time>2014-06-16T15:47:56Z</time>
    <speed>17.019121</speed>
  </trkpt>
  <trkpt lat="5.935435" lon="-75.852639">
    <ele>567</ele>
    <time>2014-06-16T15:47:58Z</time>
    <speed>16.591679</speed>
  </trkpt>
  <trkpt lat="5.935541" lon="-75.852970">
    <ele>567</ele>
    <time>2014-06-16T15:48:00Z</time>
    <speed>17.297897</speed>
  </trkpt>
  <trkpt lat="5.935629" lon="-75.853256">
    <ele>568</ele>
    <time>2014-06-16T15:48:02Z</time>
    <speed>15.695478</speed>
  </trkpt>
  <trkpt lat="5.935726" lon="-75.853542">
    <ele>569</ele>
    <time>2014-06-16T15:48:04Z</time>
    <speed>14.616645</speed>
  </trkpt>
  <trkpt lat="5.935801" lon="-75.853783">
    <ele>569</ele>
    <time>2014-06-16T15:48:06Z</time>
    <speed>10.457539</speed>
  </trkpt>
  <trkpt lat="5.935699" lon="-75.854006">
    <ele>571</ele>
    <time>2014-06-16T15:48:08Z</time>
    <speed>12.0087385</speed>
  </trkpt>
  <trkpt lat="5.935561" lon="-75.854202">
    <ele>571</ele>
    <time>2014-06-16T15:48:10Z</time>
    <speed>11.705166</speed>
  </trkpt>
  <trkpt lat="5.935444" lon="-75.854410">
    <ele>573</ele>
    <time>2014-06-16T15:48:12Z</time>
    <speed>12.049397</speed>
  </trkpt>
  <trkpt lat="5.935411" lon="-75.854664">
    <ele>574</ele>
    <time>2014-06-16T15:48:14Z</time>
    <speed>12.664244</speed>
  </trkpt>
  <trkpt lat="5.935490" lon="-75.854885">
    <ele>573</ele>
    <time>2014-06-16T15:48:16Z</time>
    <speed>12.936852</speed>
  </trkpt>
  <trkpt lat="5.935599" lon="-75.855091">
    <ele>572</ele>
    <time>2014-06-16T15:48:18Z</time>
    <speed>11.260852</speed>
  </trkpt>
  <trkpt lat="5.935671" lon="-75.855283">
    <ele>572</ele>
    <time>2014-06-16T15:48:20Z</time>
    <speed>10.774325</speed>
  </trkpt>
  <trkpt lat="5.935675" lon="-75.855496">
    <ele>572</ele>
    <time>2014-06-16T15:48:22Z</time>
    <speed>11.764108</speed>
  </trkpt>
  <trkpt lat="5.935535" lon="-75.855709">
    <ele>572</ele>
    <time>2014-06-16T15:48:24Z</time>
    <speed>12.685608</speed>
  </trkpt>
  <trkpt lat="5.935414" lon="-75.855909">
    <ele>573</ele>
    <time>2014-06-16T15:48:26Z</time>
    <speed>12.151923</speed>
  </trkpt>
  <trkpt lat="5.935294" lon="-75.856122">
    <ele>572</ele>
    <time>2014-06-16T15:48:28Z</time>
    <speed>12.562851</speed>
  </trkpt>
  <trkpt lat="5.935145" lon="-75.856356">
    <ele>572</ele>
    <time>2014-06-16T15:48:30Z</time>
    <speed>13.8912525</speed>
  </trkpt>
  <trkpt lat="5.934938" lon="-75.856540">
    <ele>572</ele>
    <time>2014-06-16T15:48:32Z</time>
    <speed>13.276178</speed>
  </trkpt>
  <trkpt lat="5.934715" lon="-75.856714">
    <ele>571</ele>
    <time>2014-06-16T15:48:34Z</time>
    <speed>13.936135</speed>
  </trkpt>
  <trkpt lat="5.934530" lon="-75.856896">
    <ele>571</ele>
    <time>2014-06-16T15:48:36Z</time>
    <speed>13.15649</speed>
  </trkpt>
  <trkpt lat="5.934422" lon="-75.857076">
    <ele>571</ele>
    <time>2014-06-16T15:48:38Z</time>
    <speed>10.796257</speed>
  </trkpt>
  <trkpt lat="5.934306" lon="-75.857297">
    <ele>570</ele>
    <time>2014-06-16T15:48:40Z</time>
    <speed>14.227835</speed>
  </trkpt>
  <trkpt lat="5.934158" lon="-75.857575">
    <ele>572</ele>
    <time>2014-06-16T15:48:42Z</time>
    <speed>14.763064</speed>
  </trkpt>
  <trkpt lat="5.934032" lon="-75.857801">
    <ele>568</ele>
    <time>2014-06-16T15:48:44Z</time>
    <speed>12.971045</speed>
  </trkpt>
  <trkpt lat="5.933942" lon="-75.857939">
    <ele>566</ele>
    <time>2014-06-16T15:48:46Z</time>
    <speed>8.437114</speed>
  </trkpt>
  <trkpt lat="5.933867" lon="-75.858040">
    <ele>564</ele>
    <time>2014-06-16T15:48:48Z</time>
    <speed>5.1252666</speed>
  </trkpt>
  <trkpt lat="5.933810" lon="-75.858118">
    <ele>564</ele>
    <time>2014-06-16T15:48:50Z</time>
    <speed>5.2607718</speed>
  </trkpt>
  <trkpt lat="5.933732" lon="-75.858206">
    <ele>564</ele>
    <time>2014-06-16T15:48:52Z</time>
    <speed>4.48529</speed>
  </trkpt>
  <trkpt lat="5.933679" lon="-75.858267">
    <ele>564</ele>
    <time>2014-06-16T15:48:54Z</time>
    <speed>3.5285485</speed>
  </trkpt>
  <trkpt lat="5.933611" lon="-75.858335">
    <ele>563</ele>
    <time>2014-06-16T15:48:56Z</time>
    <speed>4.961804</speed>
  </trkpt>
  <trkpt lat="5.933532" lon="-75.858410">
    <ele>562</ele>
    <time>2014-06-16T15:48:58Z</time>
    <speed>6.556397</speed>
  </trkpt>
  <trkpt lat="5.933442" lon="-75.858501">
    <ele>562</ele>
    <time>2014-06-16T15:49:00Z</time>
    <speed>8.141221</speed>
  </trkpt>
  <trkpt lat="5.933350" lon="-75.858597">
    <ele>564</ele>
    <time>2014-06-16T15:49:02Z</time>
    <speed>7.912486</speed>
  </trkpt>
  <trkpt lat="5.933226" lon="-75.858681">
    <ele>564</ele>
    <time>2014-06-16T15:49:04Z</time>
    <speed>9.054177</speed>
  </trkpt>
  <trkpt lat="5.933061" lon="-75.858730">
    <ele>563</ele>
    <time>2014-06-16T15:49:06Z</time>
    <speed>8.898632</speed>
  </trkpt>
  <trkpt lat="5.932853" lon="-75.858764">
    <ele>564</ele>
    <time>2014-06-16T15:49:08Z</time>
    <speed>9.226347</speed>
  </trkpt>
  <trkpt lat="5.932659" lon="-75.858798">
    <ele>565</ele>
    <time>2014-06-16T15:49:10Z</time>
    <speed>8.207018</speed>
  </trkpt>
  <trkpt lat="5.932512" lon="-75.858832">
    <ele>563</ele>
    <time>2014-06-16T15:49:12Z</time>
    <speed>5.8989725</speed>
  </trkpt>
  <trkpt lat="5.932483" lon="-75.858869">
    <ele>562</ele>
    <time>2014-06-16T15:49:14Z</time>
    <speed>0.0</speed>
  </trkpt>
  <trkpt lat="5.932490" lon="-75.858971">
    <ele>563</ele>
    <time>2014-06-16T15:49:16Z</time>
    <speed>5.643535</speed>
  </trkpt>
  <trkpt lat="5.932563" lon="-75.859084">
    <ele>565</ele>
    <time>2014-06-16T15:49:18Z</time>
    <speed>5.9797206</speed>
  </trkpt>
  <trkpt lat="5.932669" lon="-75.859164">
    <ele>564</ele>
    <time>2014-06-16T15:49:20Z</time>
    <speed>6.6829987</speed>
  </trkpt>
  <trkpt lat="5.932786" lon="-75.859245">
    <ele>565</ele>
    <time>2014-06-16T15:49:22Z</time>
    <speed>6.9664097</speed>
  </trkpt>
  <trkpt lat="5.932904" lon="-75.859335">
    <ele>564</ele>
    <time>2014-06-16T15:49:24Z</time>
    <speed>7.5045977</speed>
  </trkpt>
  <trkpt lat="5.933021" lon="-75.859423">
    <ele>564</ele>
    <time>2014-06-16T15:49:26Z</time>
    <speed>7.4954925</speed>
  </trkpt>
  <trkpt lat="5.933127" lon="-75.859519">
    <ele>564</ele>
    <time>2014-06-16T15:49:28Z</time>
    <speed>7.572933</speed>
  </trkpt>
  <trkpt lat="5.933215" lon="-75.859622">
    <ele>565</ele>
    <time>2014-06-16T15:49:30Z</time>
    <speed>7.5550804</speed>
  </trkpt>
  <trkpt lat="5.933292" lon="-75.859722">
    <ele>563</ele>
    <time>2014-06-16T15:49:32Z</time>
    <speed>6.9300275</speed>
  </trkpt>
  <trkpt lat="5.933355" lon="-75.859833">
    <ele>565</ele>
    <time>2014-06-16T15:49:34Z</time>
    <speed>6.4935474</speed>
  </trkpt>
  <trkpt lat="5.933418" lon="-75.859963">
    <ele>565</ele>
    <time>2014-06-16T15:49:36Z</time>
    <speed>8.330743</speed>
  </trkpt>
  <trkpt lat="5.933486" lon="-75.860134">
    <ele>564</ele>
    <time>2014-06-16T15:49:38Z</time>
    <speed>8.27637</speed>
  </trkpt>
  <trkpt lat="5.933555" lon="-75.860293">
    <ele>564</ele>
    <time>2014-06-16T15:49:40Z</time>
    <speed>8.644121</speed>
  </trkpt>
  <trkpt lat="5.933634" lon="-75.860434">
    <ele>565</ele>
    <time>2014-06-16T15:49:42Z</time>
    <speed>8.114014</speed>
  </trkpt>
  <trkpt lat="5.933708" lon="-75.860560">
    <ele>565</ele>
    <time>2014-06-16T15:49:44Z</time>
    <speed>7.2969694</speed>
  </trkpt>
  <trkpt lat="5.933803" lon="-75.860685">
    <ele>566</ele>
    <time>2014-06-16T15:49:46Z</time>
    <speed>8.441086</speed>
  </trkpt>
  <trkpt lat="5.933899" lon="-75.860799">
    <ele>567</ele>
    <time>2014-06-16T15:49:48Z</time>
    <speed>7.730577</speed>
  </trkpt>
  <trkpt lat="5.934004" lon="-75.860920">
    <ele>566</ele>
    <time>2014-06-16T15:49:50Z</time>
    <speed>7.2970924</speed>
  </trkpt>
  <trkpt lat="5.934109" lon="-75.861026">
    <ele>566</ele>
    <time>2014-06-16T15:49:52Z</time>
    <speed>6.5081205</speed>
  </trkpt>
  <trkpt lat="5.934206" lon="-75.861092">
    <ele>566</ele>
    <time>2014-06-16T15:49:54Z</time>
    <speed>5.177518</speed>
  </trkpt>
  <trkpt lat="5.934301" lon="-75.861112">
    <ele>566</ele>
    <time>2014-06-16T15:49:56Z</time>
    <speed>4.6234307</speed>
  </trkpt>
  <trkpt lat="5.934346" lon="-75.861098">
    <ele>566</ele>
    <time>2014-06-16T15:50:02Z</time>
    <speed>1.0317785</speed>
  </trkpt>
  <trkpt lat="5.934408" lon="-75.861054">
    <ele>566</ele>
    <time>2014-06-16T15:50:05Z</time>
    <speed>3.5494287</speed>
  </trkpt>
  <trkpt lat="5.934485" lon="-75.860970">
    <ele>567</ele>
    <time>2014-06-16T15:50:07Z</time>
    <speed>4.4057193</speed>
  </trkpt>
  <trkpt lat="5.934571" lon="-75.860882">
    <ele>568</ele>
    <time>2014-06-16T15:50:09Z</time>
    <speed>5.0745473</speed>
  </trkpt>
  <trkpt lat="5.934684" lon="-75.860779">
    <ele>567</ele>
    <time>2014-06-16T15:50:11Z</time>
    <speed>6.959792</speed>
  </trkpt>
  <trkpt lat="5.934817" lon="-75.860670">
    <ele>568</ele>
    <time>2014-06-16T15:50:13Z</time>
    <speed>7.4878454</speed>
  </trkpt>
  <trkpt lat="5.934948" lon="-75.860590">
    <ele>567</ele>
    <time>2014-06-16T15:50:15Z</time>
    <speed>8.362521</speed>
  </trkpt>
  <trkpt lat="5.935082" lon="-75.860520">
    <ele>568</ele>
    <time>2014-06-16T15:50:17Z</time>
    <speed>8.542656</speed>
  </trkpt>
  <trkpt lat="5.935233" lon="-75.860431">
    <ele>568</ele>
    <time>2014-06-16T15:50:19Z</time>
    <speed>9.411557</speed>
  </trkpt>
  <trkpt lat="5.935397" lon="-75.860319">
    <ele>569</ele>
    <time>2014-06-16T15:50:21Z</time>
    <speed>9.843526</speed>
  </trkpt>
  <trkpt lat="5.935574" lon="-75.860190">
    <ele>569</ele>
    <time>2014-06-16T15:50:23Z</time>
    <speed>11.207214</speed>
  </trkpt>
  <trkpt lat="5.935732" lon="-75.860037">
    <ele>567</ele>
    <time>2014-06-16T15:50:25Z</time>
    <speed>11.388023</speed>
  </trkpt>
  <trkpt lat="5.935860" lon="-75.859867">
    <ele>570</ele>
    <time>2014-06-16T15:50:27Z</time>
    <speed>11.681123</speed>
  </trkpt>
  <trkpt lat="5.935926" lon="-75.859664">
    <ele>570</ele>
    <time>2014-06-16T15:50:29Z</time>
    <speed>11.118124</speed>
  </trkpt>
  <trkpt lat="5.935969" lon="-75.859431">
    <ele>570</ele>
    <time>2014-06-16T15:50:31Z</time>
    <speed>12.8184185</speed>
  </trkpt>
  <trkpt lat="5.936031" lon="-75.859171">
    <ele>571</ele>
    <time>2014-06-16T15:50:33Z</time>
    <speed>13.451312</speed>
  </trkpt>
  <trkpt lat="5.936097" lon="-75.858905">
    <ele>571</ele>
    <time>2014-06-16T15:50:35Z</time>
    <speed>13.409109</speed>
  </trkpt>
  <trkpt lat="5.936164" lon="-75.858683">
    <ele>572</ele>
    <time>2014-06-16T15:50:37Z</time>
    <speed>11.569442</speed>
  </trkpt>
  <trkpt lat="5.936323" lon="-75.858501">
    <ele>573</ele>
    <time>2014-06-16T15:50:39Z</time>
    <speed>12.017917</speed>
  </trkpt>
  <trkpt lat="5.936552" lon="-75.858395">
    <ele>573</ele>
    <time>2014-06-16T15:50:41Z</time>
    <speed>13.785234</speed>
  </trkpt>
  <trkpt lat="5.936781" lon="-75.858314">
    <ele>573</ele>
    <time>2014-06-16T15:50:43Z</time>
    <speed>13.089042</speed>
  </trkpt>
  <trkpt lat="5.937001" lon="-75.858228">
    <ele>572</ele>
    <time>2014-06-16T15:50:45Z</time>
    <speed>12.534253</speed>
  </trkpt>
  <trkpt lat="5.937234" lon="-75.858137">
    <ele>572</ele>
    <time>2014-06-16T15:50:47Z</time>
    <speed>12.737839</speed>
  </trkpt>
  <trkpt lat="5.937467" lon="-75.858052">
    <ele>572</ele>
    <time>2014-06-16T15:50:49Z</time>
    <speed>12.523916</speed>
  </trkpt>
  <trkpt lat="5.937677" lon="-75.857975">
    <ele>571</ele>
    <time>2014-06-16T15:50:51Z</time>
    <speed>11.814386</speed>
  </trkpt>
  <trkpt lat="5.937901" lon="-75.857893">
    <ele>571</ele>
    <time>2014-06-16T15:50:53Z</time>
    <speed>11.866189</speed>
  </trkpt>
  <trkpt lat="5.938114" lon="-75.857824">
    <ele>571</ele>
    <time>2014-06-16T15:50:55Z</time>
    <speed>11.420673</speed>
  </trkpt>
  <trkpt lat="5.938308" lon="-75.857746">
    <ele>571</ele>
    <time>2014-06-16T15:50:57Z</time>
    <speed>10.79307</speed>
  </trkpt>
  <trkpt lat="5.938494" lon="-75.857658">
    <ele>571</ele>
    <time>2014-06-16T15:50:59Z</time>
    <speed>11.021375</speed>
  </trkpt>
  <trkpt lat="5.938677" lon="-75.857565">
    <ele>572</ele>
    <time>2014-06-16T15:51:01Z</time>
    <speed>11.734146</speed>
  </trkpt>
  <trkpt lat="5.938915" lon="-75.857473">
    <ele>573</ele>
    <time>2014-06-16T15:51:03Z</time>
    <speed>13.382685</speed>
  </trkpt>
  <trkpt lat="5.939166" lon="-75.857388">
    <ele>574</ele>
    <time>2014-06-16T15:51:05Z</time>
    <speed>13.839685</speed>
  </trkpt>
  <trkpt lat="5.939431" lon="-75.857306">
    <ele>574</ele>
    <time>2014-06-16T15:51:07Z</time>
    <speed>15.020685</speed>
  </trkpt>
  <trkpt lat="5.939692" lon="-75.857227">
    <ele>574</ele>
    <time>2014-06-16T15:51:09Z</time>
    <speed>15.390737</speed>
  </trkpt>
  <trkpt lat="5.939954" lon="-75.857146">
    <ele>573</ele>
    <time>2014-06-16T15:51:11Z</time>
    <speed>14.998457</speed>
  </trkpt>
  <trkpt lat="5.940228" lon="-75.857067">
    <ele>572</ele>
    <time>2014-06-16T15:51:13Z</time>
    <speed>15.862199</speed>
  </trkpt>
  <trkpt lat="5.940517" lon="-75.856989">
    <ele>573</ele>
    <time>2014-06-16T15:51:15Z</time>
    <speed>16.766317</speed>
  </trkpt>
  <trkpt lat="5.940807" lon="-75.856911">
    <ele>572</ele>
    <time>2014-06-16T15:51:17Z</time>
    <speed>16.682245</speed>
  </trkpt>
  <trkpt lat="5.941118" lon="-75.856817">
    <ele>572</ele>
    <time>2014-06-16T15:51:19Z</time>
    <speed>17.064762</speed>
  </trkpt>
  <trkpt lat="5.941444" lon="-75.856721">
    <ele>570</ele>
    <time>2014-06-16T15:51:21Z</time>
    <speed>17.900656</speed>
  </trkpt>
  <trkpt lat="5.941759" lon="-75.856635">
    <ele>570</ele>
    <time>2014-06-16T15:51:23Z</time>
    <speed>17.623838</speed>
  </trkpt>
  <trkpt lat="5.942078" lon="-75.856548">
    <ele>569</ele>
    <time>2014-06-16T15:51:25Z</time>
    <speed>17.54504</speed>
  </trkpt>
  <trkpt lat="5.942397" lon="-75.856456">
    <ele>566</ele>
    <time>2014-06-16T15:51:27Z</time>
    <speed>16.445791</speed>
  </trkpt>
  <trkpt lat="5.942689" lon="-75.856353">
    <ele>566</ele>
    <time>2014-06-16T15:51:29Z</time>
    <speed>15.789643</speed>
  </trkpt>
  <trkpt lat="5.942945" lon="-75.856252">
    <ele>564</ele>
    <time>2014-06-16T15:51:31Z</time>
    <speed>15.817772</speed>
  </trkpt>
  <trkpt lat="5.943207" lon="-75.856159">
    <ele>566</ele>
    <time>2014-06-16T15:51:33Z</time>
    <speed>15.982512</speed>
  </trkpt>
  <trkpt lat="5.943498" lon="-75.856078">
    <ele>566</ele>
    <time>2014-06-16T15:51:35Z</time>
    <speed>16.510952</speed>
  </trkpt>
  <trkpt lat="5.943817" lon="-75.856009">
    <ele>566</ele>
    <time>2014-06-16T15:51:37Z</time>
    <speed>16.104435</speed>
  </trkpt>
  <trkpt lat="5.944134" lon="-75.855951">
    <ele>566</ele>
    <time>2014-06-16T15:51:39Z</time>
    <speed>16.619146</speed>
  </trkpt>
  <trkpt lat="5.944439" lon="-75.855888">
    <ele>565</ele>
    <time>2014-06-16T15:51:41Z</time>
    <speed>16.50155</speed>
  </trkpt>
  <trkpt lat="5.944728" lon="-75.855815">
    <ele>565</ele>
    <time>2014-06-16T15:51:43Z</time>
    <speed>16.33986</speed>
  </trkpt>
  <trkpt lat="5.945023" lon="-75.855737">
    <ele>567</ele>
    <time>2014-06-16T15:51:45Z</time>
    <speed>16.5314</speed>
  </trkpt>
  <trkpt lat="5.945331" lon="-75.855655">
    <ele>566</ele>
    <time>2014-06-16T15:51:47Z</time>
    <speed>16.703611</speed>
  </trkpt>
  <trkpt lat="5.945643" lon="-75.855573">
    <ele>567</ele>
    <time>2014-06-16T15:51:49Z</time>
    <speed>16.815107</speed>
  </trkpt>
  <trkpt lat="5.945936" lon="-75.855489">
    <ele>566</ele>
    <time>2014-06-16T15:51:51Z</time>
    <speed>16.617393</speed>
  </trkpt>
  <trkpt lat="5.946240" lon="-75.855409">
    <ele>566</ele>
    <time>2014-06-16T15:51:53Z</time>
    <speed>16.88903</speed>
  </trkpt>
  <trkpt lat="5.946552" lon="-75.855323">
    <ele>567</ele>
    <time>2014-06-16T15:51:55Z</time>
    <speed>17.43912</speed>
  </trkpt>
  <trkpt lat="5.946878" lon="-75.855230">
    <ele>569</ele>
    <time>2014-06-16T15:51:57Z</time>
    <speed>18.941198</speed>
  </trkpt>
  <trkpt lat="5.947209" lon="-75.855135">
    <ele>569</ele>
    <time>2014-06-16T15:51:59Z</time>
    <speed>17.975538</speed>
  </trkpt>
  <trkpt lat="5.947524" lon="-75.855004">
    <ele>568</ele>
    <time>2014-06-16T15:52:01Z</time>
    <speed>18.593765</speed>
  </trkpt>
  <trkpt lat="5.947844" lon="-75.854834">
    <ele>568</ele>
    <time>2014-06-16T15:52:03Z</time>
    <speed>18.448523</speed>
  </trkpt>
  <trkpt lat="5.948140" lon="-75.854667">
    <ele>569</ele>
    <time>2014-06-16T15:52:05Z</time>
    <speed>19.290747</speed>
  </trkpt>
  <trkpt lat="5.948457" lon="-75.854485">
    <ele>570</ele>
    <time>2014-06-16T15:52:07Z</time>
    <speed>18.869112</speed>
  </trkpt>
  <trkpt lat="5.948767" lon="-75.854295">
    <ele>569</ele>
    <time>2014-06-16T15:52:09Z</time>
    <speed>18.398214</speed>
  </trkpt>
  <trkpt lat="5.949070" lon="-75.854116">
    <ele>572</ele>
    <time>2014-06-16T15:52:11Z</time>
    <speed>18.765785</speed>
  </trkpt>
  <trkpt lat="5.949364" lon="-75.853949">
    <ele>572</ele>
    <time>2014-06-16T15:52:13Z</time>
    <speed>18.155684</speed>
  </trkpt>
  <trkpt lat="5.949653" lon="-75.853782">
    <ele>568</ele>
    <time>2014-06-16T15:52:15Z</time>
    <speed>17.74906</speed>
  </trkpt>
  <trkpt lat="5.949925" lon="-75.853627">
    <ele>566</ele>
    <time>2014-06-16T15:52:17Z</time>
    <speed>16.332865</speed>
  </trkpt>
  <trkpt lat="5.950196" lon="-75.853503">
    <ele>564</ele>
    <time>2014-06-16T15:52:19Z</time>
    <speed>16.457859</speed>
  </trkpt>
  <trkpt lat="5.950479" lon="-75.853446">
    <ele>567</ele>
    <time>2014-06-16T15:52:21Z</time>
    <speed>16.466286</speed>
  </trkpt>
  <trkpt lat="5.950792" lon="-75.853388">
    <ele>568</ele>
    <time>2014-06-16T15:52:23Z</time>
    <speed>18.399845</speed>
  </trkpt>
  <trkpt lat="5.951131" lon="-75.853324">
    <ele>571</ele>
    <time>2014-06-16T15:52:25Z</time>
    <speed>19.920263</speed>
  </trkpt>
  <trkpt lat="5.951476" lon="-75.853224">
    <ele>569</ele>
    <time>2014-06-16T15:52:27Z</time>
    <speed>19.57789</speed>
  </trkpt>
  <trkpt lat="5.951818" lon="-75.853080">
    <ele>572</ele>
    <time>2014-06-16T15:52:29Z</time>
    <speed>20.3061</speed>
  </trkpt>
  <trkpt lat="5.952192" lon="-75.852961">
    <ele>572</ele>
    <time>2014-06-16T15:52:31Z</time>
    <speed>20.69669</speed>
  </trkpt>
  <trkpt lat="5.952579" lon="-75.852841">
    <ele>573</ele>
    <time>2014-06-16T15:52:33Z</time>
    <speed>20.87633</speed>
  </trkpt>
  <trkpt lat="5.952954" lon="-75.852726">
    <ele>572</ele>
    <time>2014-06-16T15:52:35Z</time>
    <speed>20.70332</speed>
  </trkpt>
  <trkpt lat="5.953287" lon="-75.852631">
    <ele>574</ele>
    <time>2014-06-16T15:52:37Z</time>
    <speed>20.328512</speed>
  </trkpt>
  <trkpt lat="5.953671" lon="-75.852593">
    <ele>573</ele>
    <time>2014-06-16T15:52:39Z</time>
    <speed>19.832672</speed>
  </trkpt>
  <trkpt lat="5.954062" lon="-75.852609">
    <ele>575</ele>
    <time>2014-06-16T15:52:41Z</time>
    <speed>20.760485</speed>
  </trkpt>
  <trkpt lat="5.954449" lon="-75.852672">
    <ele>574</ele>
    <time>2014-06-16T15:52:43Z</time>
    <speed>21.294085</speed>
  </trkpt>
  <trkpt lat="5.954819" lon="-75.852776">
    <ele>574</ele>
    <time>2014-06-16T15:52:45Z</time>
    <speed>21.589237</speed>
  </trkpt>
  <trkpt lat="5.955190" lon="-75.852874">
    <ele>575</ele>
    <time>2014-06-16T15:52:47Z</time>
    <speed>20.999441</speed>
  </trkpt>
  <trkpt lat="5.955550" lon="-75.852985">
    <ele>572</ele>
    <time>2014-06-16T15:52:49Z</time>
    <speed>19.779413</speed>
  </trkpt>
  <trkpt lat="5.955869" lon="-75.853086">
    <ele>571</ele>
    <time>2014-06-16T15:52:51Z</time>
    <speed>18.335062</speed>
  </trkpt>
  <trkpt lat="5.956177" lon="-75.853186">
    <ele>570</ele>
    <time>2014-06-16T15:52:53Z</time>
    <speed>17.428133</speed>
  </trkpt>
  <trkpt lat="5.956478" lon="-75.853283">
    <ele>568</ele>
    <time>2014-06-16T15:52:55Z</time>
    <speed>17.074451</speed>
  </trkpt>
  <trkpt lat="5.956730" lon="-75.853338">
    <ele>567</ele>
    <time>2014-06-16T15:52:57Z</time>
    <speed>14.5539</speed>
  </trkpt>
  <trkpt lat="5.957006" lon="-75.853298">
    <ele>567</ele>
    <time>2014-06-16T15:52:59Z</time>
    <speed>13.433655</speed>
  </trkpt>
  <trkpt lat="5.957266" lon="-75.853154">
    <ele>567</ele>
    <time>2014-06-16T15:53:01Z</time>
    <speed>15.523806</speed>
  </trkpt>
  <trkpt lat="5.957449" lon="-75.852920">
    <ele>567</ele>
    <time>2014-06-16T15:53:03Z</time>
    <speed>15.147946</speed>
  </trkpt>
  <trkpt lat="5.957610" lon="-75.852688">
    <ele>568</ele>
    <time>2014-06-16T15:53:05Z</time>
    <speed>14.886193</speed>
  </trkpt>
  <trkpt lat="5.957775" lon="-75.852451">
    <ele>569</ele>
    <time>2014-06-16T15:53:07Z</time>
    <speed>15.954496</speed>
  </trkpt>
  <trkpt lat="5.957952" lon="-75.852196">
    <ele>570</ele>
    <time>2014-06-16T15:53:09Z</time>
    <speed>15.786221</speed>
  </trkpt>
  <trkpt lat="5.958192" lon="-75.851978">
    <ele>570</ele>
    <time>2014-06-16T15:53:11Z</time>
    <speed>16.372478</speed>
  </trkpt>
  <trkpt lat="5.958457" lon="-75.851818">
    <ele>572</ele>
    <time>2014-06-16T15:53:13Z</time>
    <speed>16.890612</speed>
  </trkpt>
  <trkpt lat="5.958736" lon="-75.851679">
    <ele>576</ele>
    <time>2014-06-16T15:53:15Z</time>
    <speed>17.24287</speed>
  </trkpt>
  <trkpt lat="5.959040" lon="-75.851549">
    <ele>577</ele>
    <time>2014-06-16T15:53:17Z</time>
    <speed>18.26307</speed>
  </trkpt>
  <trkpt lat="5.959316" lon="-75.851445">
    <ele>577</ele>
    <time>2014-06-16T15:53:19Z</time>
    <speed>16.773582</speed>
  </trkpt>
  <trkpt lat="5.959591" lon="-75.851351">
    <ele>580</ele>
    <time>2014-06-16T15:53:21Z</time>
    <speed>16.290628</speed>
  </trkpt>
  <trkpt lat="5.959857" lon="-75.851263">
    <ele>579</ele>
    <time>2014-06-16T15:53:23Z</time>
    <speed>15.838223</speed>
  </trkpt>
  <trkpt lat="5.960155" lon="-75.851184">
    <ele>581</ele>
    <time>2014-06-16T15:53:25Z</time>
    <speed>16.215317</speed>
  </trkpt>
  <trkpt lat="5.960444" lon="-75.851149">
    <ele>579</ele>
    <time>2014-06-16T15:53:27Z</time>
    <speed>15.2505455</speed>
  </trkpt>
  <trkpt lat="5.960694" lon="-75.851111">
    <ele>578</ele>
    <time>2014-06-16T15:53:29Z</time>
    <speed>12.547937</speed>
  </trkpt>
  <trkpt lat="5.960823" lon="-75.850986">
    <ele>577</ele>
    <time>2014-06-16T15:53:31Z</time>
    <speed>11.923144</speed>
  </trkpt>
  <trkpt lat="5.960983" lon="-75.850855">
    <ele>578</ele>
    <time>2014-06-16T15:53:33Z</time>
    <speed>12.168573</speed>
  </trkpt>
  <trkpt lat="5.961194" lon="-75.850749">
    <ele>578</ele>
    <time>2014-06-16T15:53:35Z</time>
    <speed>12.747834</speed>
  </trkpt>
  <trkpt lat="5.961433" lon="-75.850652">
    <ele>578</ele>
    <time>2014-06-16T15:53:37Z</time>
    <speed>13.780671</speed>
  </trkpt>
  <trkpt lat="5.961634" lon="-75.850534">
    <ele>577</ele>
    <time>2014-06-16T15:53:39Z</time>
    <speed>13.727918</speed>
  </trkpt>
  <trkpt lat="5.961826" lon="-75.850367">
    <ele>576</ele>
    <time>2014-06-16T15:53:41Z</time>
    <speed>14.080696</speed>
  </trkpt>
  <trkpt lat="5.962007" lon="-75.850177">
    <ele>577</ele>
    <time>2014-06-16T15:53:43Z</time>
    <speed>14.21944</speed>
  </trkpt>
  <trkpt lat="5.962171" lon="-75.849980">
    <ele>576</ele>
    <time>2014-06-16T15:53:45Z</time>
    <speed>13.48058</speed>
  </trkpt>
  <trkpt lat="5.962309" lon="-75.849784">
    <ele>574</ele>
    <time>2014-06-16T15:53:47Z</time>
    <speed>12.373354</speed>
  </trkpt>
  <trkpt lat="5.962383" lon="-75.849591">
    <ele>571</ele>
    <time>2014-06-16T15:53:49Z</time>
    <speed>11.044879</speed>
  </trkpt>
  <trkpt lat="5.962419" lon="-75.849406">
    <ele>569</ele>
    <time>2014-06-16T15:53:51Z</time>
    <speed>9.384616</speed>
  </trkpt>
  <trkpt lat="5.962459" lon="-75.849263">
    <ele>568</ele>
    <time>2014-06-16T15:53:53Z</time>
    <speed>7.595087</speed>
  </trkpt>
  <trkpt lat="5.962550" lon="-75.849156">
    <ele>568</ele>
    <time>2014-06-16T15:53:55Z</time>
    <speed>7.3368435</speed>
  </trkpt>
  <trkpt lat="5.962683" lon="-75.849156">
    <ele>567</ele>
    <time>2014-06-16T15:53:57Z</time>
    <speed>8.595246</speed>
  </trkpt>
  <trkpt lat="5.962846" lon="-75.849224">
    <ele>566</ele>
    <time>2014-06-16T15:53:59Z</time>
    <speed>9.915551</speed>
  </trkpt>
  <trkpt lat="5.963000" lon="-75.849320">
    <ele>564</ele>
    <time>2014-06-16T15:54:01Z</time>
    <speed>9.841445</speed>
  </trkpt>
  <trkpt lat="5.963142" lon="-75.849418">
    <ele>562</ele>
    <time>2014-06-16T15:54:03Z</time>
    <speed>8.012885</speed>
  </trkpt>
  <trkpt lat="5.963251" lon="-75.849459">
    <ele>562</ele>
    <time>2014-06-16T15:54:05Z</time>
    <speed>5.666706</speed>
  </trkpt>
  <trkpt lat="5.963369" lon="-75.849405">
    <ele>561</ele>
    <time>2014-06-16T15:54:07Z</time>
    <speed>6.6769314</speed>
  </trkpt>
  <trkpt lat="5.963400" lon="-75.849278">
    <ele>560</ele>
    <time>2014-06-16T15:54:09Z</time>
    <speed>6.802663</speed>
  </trkpt>
  <trkpt lat="5.963343" lon="-75.849128">
    <ele>560</ele>
    <time>2014-06-16T15:54:11Z</time>
    <speed>8.01916</speed>
  </trkpt>
  <trkpt lat="5.963231" lon="-75.848985">
    <ele>559</ele>
    <time>2014-06-16T15:54:13Z</time>
    <speed>8.883279</speed>
  </trkpt>
  <trkpt lat="5.963062" lon="-75.848892">
    <ele>560</ele>
    <time>2014-06-16T15:54:15Z</time>
    <speed>9.184904</speed>
  </trkpt>
  <trkpt lat="5.962913" lon="-75.848781">
    <ele>561</ele>
    <time>2014-06-16T15:54:17Z</time>
    <speed>8.144711</speed>
  </trkpt>
  <trkpt lat="5.962813" lon="-75.848649">
    <ele>561</ele>
    <time>2014-06-16T15:54:19Z</time>
    <speed>8.390343</speed>
  </trkpt>
  <trkpt lat="5.962769" lon="-75.848475">
    <ele>561</ele>
    <time>2014-06-16T15:54:21Z</time>
    <speed>9.475047</speed>
  </trkpt>
  <trkpt lat="5.962802" lon="-75.848277">
    <ele>562</ele>
    <time>2014-06-16T15:54:23Z</time>
    <speed>10.546554</speed>
  </trkpt>
  <trkpt lat="5.962857" lon="-75.848030">
    <ele>562</ele>
    <time>2014-06-16T15:54:25Z</time>
    <speed>11.319872</speed>
  </trkpt>
  <trkpt lat="5.962916" lon="-75.847804">
    <ele>562</ele>
    <time>2014-06-16T15:54:27Z</time>
    <speed>11.596064</speed>
  </trkpt>
  <trkpt lat="5.962979" lon="-75.847591">
    <ele>562</ele>
    <time>2014-06-16T15:54:29Z</time>
    <speed>10.61085</speed>
  </trkpt>
  <trkpt lat="5.963057" lon="-75.847363">
    <ele>563</ele>
    <time>2014-06-16T15:54:31Z</time>
    <speed>11.272799</speed>
  </trkpt>
  <trkpt lat="5.963125" lon="-75.847171">
    <ele>562</ele>
    <time>2014-06-16T15:54:33Z</time>
    <speed>10.130651</speed>
  </trkpt>
  <trkpt lat="5.963203" lon="-75.846969">
    <ele>563</ele>
    <time>2014-06-16T15:54:35Z</time>
    <speed>11.1743765</speed>
  </trkpt>
  <trkpt lat="5.963271" lon="-75.846728">
    <ele>562</ele>
    <time>2014-06-16T15:54:37Z</time>
    <speed>12.45073</speed>
  </trkpt>
  <trkpt lat="5.963329" lon="-75.846470">
    <ele>563</ele>
    <time>2014-06-16T15:54:39Z</time>
    <speed>12.874827</speed>
  </trkpt>
  <trkpt lat="5.963378" lon="-75.846217">
    <ele>561</ele>
    <time>2014-06-16T15:54:41Z</time>
    <speed>12.159428</speed>
  </trkpt>
  <trkpt lat="5.963424" lon="-75.845963">
    <ele>562</ele>
    <time>2014-06-16T15:54:43Z</time>
    <speed>12.449711</speed>
  </trkpt>
  <trkpt lat="5.963536" lon="-75.845740">
    <ele>563</ele>
    <time>2014-06-16T15:54:45Z</time>
    <speed>12.283942</speed>
  </trkpt>
  <trkpt lat="5.963670" lon="-75.845537">
    <ele>563</ele>
    <time>2014-06-16T15:54:47Z</time>
    <speed>12.906504</speed>
  </trkpt>
  <trkpt lat="5.963815" lon="-75.845356">
    <ele>564</ele>
    <time>2014-06-16T15:54:49Z</time>
    <speed>12.978421</speed>
  </trkpt>
  <trkpt lat="5.963978" lon="-75.845185">
    <ele>565</ele>
    <time>2014-06-16T15:54:51Z</time>
    <speed>12.203468</speed>
  </trkpt>
  <trkpt lat="5.964151" lon="-75.845016">
    <ele>565</ele>
    <time>2014-06-16T15:54:53Z</time>
    <speed>12.664091</speed>
  </trkpt>
  <trkpt lat="5.964334" lon="-75.844846">
    <ele>563</ele>
    <time>2014-06-16T15:54:55Z</time>
    <speed>11.797979</speed>
  </trkpt>
  <trkpt lat="5.964487" lon="-75.844703">
    <ele>563</ele>
    <time>2014-06-16T15:54:57Z</time>
    <speed>9.358663</speed>
  </trkpt>
  <trkpt lat="5.964599" lon="-75.844596">
    <ele>562</ele>
    <time>2014-06-16T15:54:59Z</time>
    <speed>6.227716</speed>
  </trkpt>
  <trkpt lat="5.964662" lon="-75.844536">
    <ele>561</ele>
    <time>2014-06-16T15:55:01Z</time>
    <speed>3.9883568</speed>
  </trkpt>
  <trkpt lat="5.964713" lon="-75.844479">
    <ele>560</ele>
    <time>2014-06-16T15:55:03Z</time>
    <speed>2.905729</speed>
  </trkpt>
  <trkpt lat="5.964777" lon="-75.844400">
    <ele>560</ele>
    <time>2014-06-16T15:55:05Z</time>
    <speed>3.8151722</speed>
  </trkpt>
  <trkpt lat="5.964856" lon="-75.844307">
    <ele>561</ele>
    <time>2014-06-16T15:55:07Z</time>
    <speed>5.554159</speed>
  </trkpt>
  <trkpt lat="5.964955" lon="-75.844198">
    <ele>561</ele>
    <time>2014-06-16T15:55:09Z</time>
    <speed>7.512556</speed>
  </trkpt>
  <trkpt lat="5.965054" lon="-75.844079">
    <ele>561</ele>
    <time>2014-06-16T15:55:11Z</time>
    <speed>8.203574</speed>
  </trkpt>
  <trkpt lat="5.965171" lon="-75.843967">
    <ele>562</ele>
    <time>2014-06-16T15:55:13Z</time>
    <speed>7.492628</speed>
  </trkpt>
  <trkpt lat="5.965318" lon="-75.843849">
    <ele>562</ele>
    <time>2014-06-16T15:55:15Z</time>
    <speed>9.559677</speed>
  </trkpt>
  <trkpt lat="5.965521" lon="-75.843705">
    <ele>563</ele>
    <time>2014-06-16T15:55:17Z</time>
    <speed>10.89646</speed>
  </trkpt>
  <trkpt lat="5.965720" lon="-75.843588">
    <ele>563</ele>
    <time>2014-06-16T15:55:19Z</time>
    <speed>11.083974</speed>
  </trkpt>
  <trkpt lat="5.965932" lon="-75.843497">
    <ele>563</ele>
    <time>2014-06-16T15:55:21Z</time>
    <speed>11.916453</speed>
  </trkpt>
  <trkpt lat="5.966117" lon="-75.843450">
    <ele>566</ele>
    <time>2014-06-16T15:55:23Z</time>
    <speed>10.86</speed>
  </trkpt>
  <trkpt lat="5.966314" lon="-75.843408">
    <ele>566</ele>
    <time>2014-06-16T15:55:25Z</time>
    <speed>10.960577</speed>
  </trkpt>
  <trkpt lat="5.966518" lon="-75.843375">
    <ele>567</ele>
    <time>2014-06-16T15:55:27Z</time>
    <speed>10.713847</speed>
  </trkpt>
  <trkpt lat="5.966684" lon="-75.843343">
    <ele>565</ele>
    <time>2014-06-16T15:55:29Z</time>
    <speed>8.264961</speed>
  </trkpt>
  <trkpt lat="5.966842" lon="-75.843270">
    <ele>566</ele>
    <time>2014-06-16T15:55:31Z</time>
    <speed>8.492493</speed>
  </trkpt>
  <trkpt lat="5.966954" lon="-75.843171">
    <ele>565</ele>
    <time>2014-06-16T15:55:33Z</time>
    <speed>6.543304</speed>
  </trkpt>
  <trkpt lat="5.966987" lon="-75.843092">
    <ele>565</ele>
    <time>2014-06-16T15:55:35Z</time>
    <speed>4.8699694</speed>
  </trkpt>
  <trkpt lat="5.966999" lon="-75.843027">
    <ele>563</ele>
    <time>2014-06-16T15:55:37Z</time>
    <speed>4.0783544</speed>
  </trkpt>
  <trkpt lat="5.966990" lon="-75.842972">
    <ele>563</ele>
    <time>2014-06-16T15:55:39Z</time>
    <speed>3.4287841</speed>
  </trkpt>
  <trkpt lat="5.966972" lon="-75.842889">
    <ele>562</ele>
    <time>2014-06-16T15:55:41Z</time>
    <speed>4.0370264</speed>
  </trkpt>
  <trkpt lat="5.966945" lon="-75.842800">
    <ele>564</ele>
    <time>2014-06-16T15:55:43Z</time>
    <speed>4.2213345</speed>
  </trkpt>
  <trkpt lat="5.966908" lon="-75.842696">
    <ele>564</ele>
    <time>2014-06-16T15:55:45Z</time>
    <speed>5.495877</speed>
  </trkpt>
  <trkpt lat="5.966877" lon="-75.842592">
    <ele>564</ele>
    <time>2014-06-16T15:55:47Z</time>
    <speed>6.093913</speed>
  </trkpt>
  <trkpt lat="5.966828" lon="-75.842479">
    <ele>565</ele>
    <time>2014-06-16T15:55:49Z</time>
    <speed>6.459704</speed>
  </trkpt>
  <trkpt lat="5.966768" lon="-75.842341">
    <ele>565</ele>
    <time>2014-06-16T15:55:51Z</time>
    <speed>7.9525027</speed>
  </trkpt>
  <trkpt lat="5.966699" lon="-75.842144">
    <ele>565</ele>
    <time>2014-06-16T15:55:53Z</time>
    <speed>9.933837</speed>
  </trkpt>
  <trkpt lat="5.966638" lon="-75.841952">
    <ele>566</ele>
    <time>2014-06-16T15:55:55Z</time>
    <speed>10.331014</speed>
  </trkpt>
  <trkpt lat="5.966576" lon="-75.841748">
    <ele>565</ele>
    <time>2014-06-16T15:55:57Z</time>
    <speed>11.730874</speed>
  </trkpt>
  <trkpt lat="5.966514" lon="-75.841535">
    <ele>565</ele>
    <time>2014-06-16T15:55:59Z</time>
    <speed>11.997886</speed>
  </trkpt>
  <trkpt lat="5.966445" lon="-75.841315">
    <ele>566</ele>
    <time>2014-06-16T15:56:01Z</time>
    <speed>12.122342</speed>
  </trkpt>
  <trkpt lat="5.966382" lon="-75.841125">
    <ele>565</ele>
    <time>2014-06-16T15:56:03Z</time>
    <speed>9.3012905</speed>
  </trkpt>
  <trkpt lat="5.966341" lon="-75.841006">
    <ele>564</ele>
    <time>2014-06-16T15:56:05Z</time>
    <speed>6.2583647</speed>
  </trkpt>
  <trkpt lat="5.966322" lon="-75.840949">
    <ele>563</ele>
    <time>2014-06-16T15:56:07Z</time>
    <speed>3.2951274</speed>
  </trkpt>
  <trkpt lat="5.966299" lon="-75.840894">
    <ele>563</ele>
    <time>2014-06-16T15:56:09Z</time>
    <speed>4.0440493</speed>
  </trkpt>
  <trkpt lat="5.966267" lon="-75.840817">
    <ele>564</ele>
    <time>2014-06-16T15:56:11Z</time>
    <speed>3.8275654</speed>
  </trkpt>
  <trkpt lat="5.966229" lon="-75.840709">
    <ele>564</ele>
    <time>2014-06-16T15:56:13Z</time>
    <speed>6.0414467</speed>
  </trkpt>
  <trkpt lat="5.966189" lon="-75.840593">
    <ele>565</ele>
    <time>2014-06-16T15:56:15Z</time>
    <speed>7.192092</speed>
  </trkpt>
  <trkpt lat="5.966198" lon="-75.840454">
    <ele>566</ele>
    <time>2014-06-16T15:56:17Z</time>
    <speed>7.171043</speed>
  </trkpt>
  <trkpt lat="5.966282" lon="-75.840312">
    <ele>567</ele>
    <time>2014-06-16T15:56:19Z</time>
    <speed>8.063708</speed>
  </trkpt>
  <trkpt lat="5.966345" lon="-75.840255">
    <ele>567</ele>
    <time>2014-06-16T15:56:21Z</time>
    <speed>7.856947</speed>
  </trkpt>
  <trkpt lat="5.966496" lon="-75.840143">
    <ele>568</ele>
    <time>2014-06-16T15:56:23Z</time>
    <speed>8.563901</speed>
  </trkpt>
  <trkpt lat="5.966663" lon="-75.840036">
    <ele>568</ele>
    <time>2014-06-16T15:56:25Z</time>
    <speed>8.705913</speed>
  </trkpt>
  <trkpt lat="5.966844" lon="-75.839927">
    <ele>568</ele>
    <time>2014-06-16T15:56:27Z</time>
    <speed>9.632609</speed>
  </trkpt>
  <trkpt lat="5.967022" lon="-75.839827">
    <ele>568</ele>
    <time>2014-06-16T15:56:29Z</time>
    <speed>8.095571</speed>
  </trkpt>
  <trkpt lat="5.967196" lon="-75.839727">
    <ele>565</ele>
    <time>2014-06-16T15:56:31Z</time>
    <speed>10.115837</speed>
  </trkpt>
  <trkpt lat="5.967335" lon="-75.839655">
    <ele>564</ele>
    <time>2014-06-16T15:56:33Z</time>
    <speed>6.3555326</speed>
  </trkpt>
  <trkpt lat="5.967431" lon="-75.839613">
    <ele>562</ele>
    <time>2014-06-16T15:56:35Z</time>
    <speed>3.9263968</speed>
  </trkpt>
  <trkpt lat="5.967524" lon="-75.839560">
    <ele>561</ele>
    <time>2014-06-16T15:56:37Z</time>
    <speed>4.120651</speed>
  </trkpt>
  <trkpt lat="5.967630" lon="-75.839508">
    <ele>561</ele>
    <time>2014-06-16T15:56:39Z</time>
    <speed>4.8826976</speed>
  </trkpt>
  <trkpt lat="5.967732" lon="-75.839453">
    <ele>562</ele>
    <time>2014-06-16T15:56:41Z</time>
    <speed>5.1391664</speed>
  </trkpt>
  <trkpt lat="5.967873" lon="-75.839379">
    <ele>560</ele>
    <time>2014-06-16T15:56:43Z</time>
    <speed>7.8279333</speed>
  </trkpt>
  <trkpt lat="5.968022" lon="-75.839302">
    <ele>561</ele>
    <time>2014-06-16T15:56:45Z</time>
    <speed>8.064673</speed>
  </trkpt>
  <trkpt lat="5.968160" lon="-75.839219">
    <ele>560</ele>
    <time>2014-06-16T15:56:47Z</time>
    <speed>8.150447</speed>
  </trkpt>
  <trkpt lat="5.968292" lon="-75.839124">
    <ele>560</ele>
    <time>2014-06-16T15:56:49Z</time>
    <speed>8.732</speed>
  </trkpt>
  <trkpt lat="5.968415" lon="-75.839024">
    <ele>561</ele>
    <time>2014-06-16T15:56:51Z</time>
    <speed>8.848228</speed>
  </trkpt>
  <trkpt lat="5.968549" lon="-75.838918">
    <ele>560</ele>
    <time>2014-06-16T15:56:53Z</time>
    <speed>9.410117</speed>
  </trkpt>
  <trkpt lat="5.968693" lon="-75.838797">
    <ele>560</ele>
    <time>2014-06-16T15:56:55Z</time>
    <speed>8.863726</speed>
  </trkpt>
  <trkpt lat="5.968819" lon="-75.838682">
    <ele>560</ele>
    <time>2014-06-16T15:56:57Z</time>
    <speed>8.492279</speed>
  </trkpt>
  <trkpt lat="5.968950" lon="-75.838557">
    <ele>561</ele>
    <time>2014-06-16T15:56:59Z</time>
    <speed>8.985567</speed>
  </trkpt>
  <trkpt lat="5.969062" lon="-75.838444">
    <ele>561</ele>
    <time>2014-06-16T15:57:01Z</time>
    <speed>7.2989464</speed>
  </trkpt>
  <trkpt lat="5.969129" lon="-75.838349">
    <ele>560</ele>
    <time>2014-06-16T15:57:03Z</time>
    <speed>4.8024716</speed>
  </trkpt>
  <trkpt lat="5.969154" lon="-75.838277">
    <ele>559</ele>
    <time>2014-06-16T15:57:05Z</time>
    <speed>3.7916858</speed>
  </trkpt>
  <trkpt lat="5.969184" lon="-75.838207">
    <ele>558</ele>
    <time>2014-06-16T15:57:07Z</time>
    <speed>2.2897243</speed>
  </trkpt>
  <trkpt lat="5.969193" lon="-75.838144">
    <ele>558</ele>
    <time>2014-06-16T15:57:10Z</time>
    <speed>0.9941271</speed>
  </trkpt>
 </trkseg>
</trk>
</gpx>
